<?xml version='1.0' encoding='UTF-8'?><gpx version="1.1" creator="JPX - https://github.com/jenetics/jpx" xmlns="http://www.topografix.com/GPX/1/1"><trk><trkseg><trkpt lat="41.121815" lon="9.4771567"><ele>73.0</ele><time>2026-05-01T08:34:08.676Z</time></trkpt><trkpt lat="41.1225233" lon="9.4830633"><ele>73.0</ele><time>2026-05-01T08:34:56.679Z</time></trkpt><trkpt lat="41.1225817" lon="9.48331"><ele>73.0</ele><time>2026-05-01T08:34:58.679Z</time></trkpt><trkpt lat="41.122605" lon="9.483415"><ele>73.0</ele><time>2026-05-01T08:34:59.679Z</time></trkpt><trkpt lat="41.1226533" lon="9.48358"><ele>73.0</ele><time>2026-05-01T08:35:01.679Z</time></trkpt><trkpt lat="41.1226617" lon="9.4837217"><ele>71.2</ele><time>2026-05-01T08:35:02.679Z</time></trkpt><trkpt lat="41.1227133" lon="9.4838217"><ele>69.4</ele><time>2026-05-01T08:35:03.679Z</time></trkpt><trkpt lat="41.1227317" lon="9.4839633"><ele>67.60000000000001</ele><time>2026-05-01T08:35:04.679Z</time></trkpt><trkpt lat="41.122725" lon="9.4840817"><ele>65.8</ele><time>2026-05-01T08:35:05.679Z</time></trkpt><trkpt lat="41.1227667" lon="9.484185"><ele>64.0</ele><time>2026-05-01T08:35:06.68Z</time></trkpt><trkpt lat="41.1227617" lon="9.4843183"><ele>64.0</ele><time>2026-05-01T08:35:07.679Z</time></trkpt><trkpt lat="41.122765" lon="9.4844383"><ele>64.0</ele><time>2026-05-01T08:35:08.679Z</time></trkpt><trkpt lat="41.1227383" lon="9.4845783"><ele>64.0</ele><time>2026-05-01T08:35:09.679Z</time></trkpt><trkpt lat="41.1226967" lon="9.4847067"><ele>64.0</ele><time>2026-05-01T08:35:10.679Z</time></trkpt><trkpt lat="41.1226467" lon="9.4848417"><ele>64.0</ele><time>2026-05-01T08:35:11.679Z</time></trkpt><trkpt lat="41.1226217" lon="9.4849767"><ele>64.8</ele><time>2026-05-01T08:35:12.679Z</time></trkpt><trkpt lat="41.1226067" lon="9.4851167"><ele>65.60000000000001</ele><time>2026-05-01T08:35:13.679Z</time></trkpt><trkpt lat="41.1225917" lon="9.485255"><ele>66.4</ele><time>2026-05-01T08:35:14.679Z</time></trkpt><trkpt lat="41.1225967" lon="9.4853983"><ele>67.2</ele><time>2026-05-01T08:35:15.679Z</time></trkpt><trkpt lat="41.1225817" lon="9.4855167"><ele>68.0</ele><time>2026-05-01T08:35:16.679Z</time></trkpt><trkpt lat="41.1226167" lon="9.4856567"><ele>68.0</ele><time>2026-05-01T08:35:17.679Z</time></trkpt><trkpt lat="41.12265" lon="9.4857933"><ele>68.0</ele><time>2026-05-01T08:35:18.679Z</time></trkpt><trkpt lat="41.1226867" lon="9.48593"><ele>68.0</ele><time>2026-05-01T08:35:19.679Z</time></trkpt><trkpt lat="41.1227267" lon="9.48608"><ele>68.0</ele><time>2026-05-01T08:35:20.679Z</time></trkpt><trkpt lat="41.12279" lon="9.486225"><ele>68.0</ele><time>2026-05-01T08:35:21.679Z</time></trkpt><trkpt lat="41.122855" lon="9.486385"><ele>68.0</ele><time>2026-05-01T08:35:22.68Z</time></trkpt><trkpt lat="41.1229167" lon="9.4865633"><ele>68.0</ele><time>2026-05-01T08:35:23.679Z</time></trkpt><trkpt lat="41.1229767" lon="9.4867083"><ele>68.0</ele><time>2026-05-01T08:35:24.679Z</time></trkpt><trkpt lat="41.1230467" lon="9.486865"><ele>68.0</ele><time>2026-05-01T08:35:25.679Z</time></trkpt><trkpt lat="41.1231183" lon="9.4870117"><ele>68.0</ele><time>2026-05-01T08:35:26.679Z</time></trkpt><trkpt lat="41.12321" lon="9.48713"><ele>68.0</ele><time>2026-05-01T08:35:27.679Z</time></trkpt><trkpt lat="41.1232683" lon="9.48726"><ele>68.0</ele><time>2026-05-01T08:35:28.679Z</time></trkpt><trkpt lat="41.12333" lon="9.4873783"><ele>72.2</ele><time>2026-05-01T08:35:29.679Z</time></trkpt><trkpt lat="41.1233917" lon="9.48749"><ele>76.4</ele><time>2026-05-01T08:35:30.68Z</time></trkpt><trkpt lat="41.1234533" lon="9.48761"><ele>80.60000000000001</ele><time>2026-05-01T08:35:31.679Z</time></trkpt><trkpt lat="41.123485" lon="9.487745"><ele>84.8</ele><time>2026-05-01T08:35:32.679Z</time></trkpt><trkpt lat="41.1234933" lon="9.487885"><ele>89.0</ele><time>2026-05-01T08:35:33.679Z</time></trkpt><trkpt lat="41.1235167" lon="9.4880033"><ele>92.0</ele><time>2026-05-01T08:35:34.679Z</time></trkpt><trkpt lat="41.123515" lon="9.4881633"><ele>95.0</ele><time>2026-05-01T08:35:35.68Z</time></trkpt><trkpt lat="41.123495" lon="9.4883083"><ele>98.0</ele><time>2026-05-01T08:35:36.679Z</time></trkpt><trkpt lat="41.123465" lon="9.48845"><ele>101.0</ele><time>2026-05-01T08:35:37.679Z</time></trkpt><trkpt lat="41.1234167" lon="9.488605"><ele>100.4</ele><time>2026-05-01T08:35:38.679Z</time></trkpt><trkpt lat="41.1234183" lon="9.4887667"><ele>99.8</ele><time>2026-05-01T08:35:39.68Z</time></trkpt><trkpt lat="41.123425" lon="9.48893"><ele>99.2</ele><time>2026-05-01T08:35:40.679Z</time></trkpt><trkpt lat="41.123425" lon="9.48908"><ele>98.60000000000001</ele><time>2026-05-01T08:35:41.679Z</time></trkpt><trkpt lat="41.1233567" lon="9.4891533"><ele>98.0</ele><time>2026-05-01T08:35:42.679Z</time></trkpt><trkpt lat="41.1233067" lon="9.4892167"><ele>98.0</ele><time>2026-05-01T08:35:43.679Z</time></trkpt><trkpt lat="41.1233233" lon="9.489325"><ele>98.0</ele><time>2026-05-01T08:35:44.679Z</time></trkpt><trkpt lat="41.1233583" lon="9.4894233"><ele>98.0</ele><time>2026-05-01T08:35:45.679Z</time></trkpt><trkpt lat="41.1233233" lon="9.4895633"><ele>98.0</ele><time>2026-05-01T08:35:47.679Z</time></trkpt><trkpt lat="41.1232917" lon="9.4896967"><ele>98.0</ele><time>2026-05-01T08:35:48.679Z</time></trkpt><trkpt lat="41.1232583" lon="9.4898417"><ele>98.0</ele><time>2026-05-01T08:35:49.679Z</time></trkpt><trkpt lat="41.12326" lon="9.49001"><ele>98.0</ele><time>2026-05-01T08:35:50.679Z</time></trkpt><trkpt lat="41.1232583" lon="9.49018"><ele>98.0</ele><time>2026-05-01T08:35:51.679Z</time></trkpt><trkpt lat="41.1232567" lon="9.490345"><ele>98.0</ele><time>2026-05-01T08:35:52.679Z</time></trkpt><trkpt lat="41.12331" lon="9.49052"><ele>97.99999999999999</ele><time>2026-05-01T08:35:53.679Z</time></trkpt><trkpt lat="41.12329" lon="9.4906517"><ele>98.0</ele><time>2026-05-01T08:35:54.679Z</time></trkpt><trkpt lat="41.12327" lon="9.490775"><ele>98.0</ele><time>2026-05-01T08:35:55.679Z</time></trkpt><trkpt lat="41.1232333" lon="9.4908517"><ele>98.0</ele><time>2026-05-01T08:35:56.679Z</time></trkpt><trkpt lat="41.1231683" lon="9.490915"><ele>97.99999999999999</ele><time>2026-05-01T08:35:57.679Z</time></trkpt><trkpt lat="41.1230917" lon="9.4909933"><ele>98.0</ele><time>2026-05-01T08:35:58.679Z</time></trkpt><trkpt lat="41.1229933" lon="9.4910367"><ele>97.33333333333333</ele><time>2026-05-01T08:35:59.679Z</time></trkpt><trkpt lat="41.1229067" lon="9.4910717"><ele>96.66666666666666</ele><time>2026-05-01T08:36:00.679Z</time></trkpt><trkpt lat="41.1228083" lon="9.491035"><ele>96.0</ele><time>2026-05-01T08:36:01.679Z</time></trkpt><trkpt lat="41.122745" lon="9.4910367"><ele>95.33333333333333</ele><time>2026-05-01T08:36:02.679Z</time></trkpt><trkpt lat="41.122685" lon="9.4910083"><ele>94.66666666666666</ele><time>2026-05-01T08:36:03.679Z</time></trkpt><trkpt lat="41.1226183" lon="9.4909717"><ele>94.0</ele><time>2026-05-01T08:36:04.679Z</time></trkpt><trkpt lat="41.1225533" lon="9.490935"><ele>94.0</ele><time>2026-05-01T08:36:05.679Z</time></trkpt><trkpt lat="41.1224883" lon="9.4908883"><ele>94.0</ele><time>2026-05-01T08:36:06.679Z</time></trkpt><trkpt lat="41.1223983" lon="9.4908317"><ele>94.0</ele><time>2026-05-01T08:36:07.679Z</time></trkpt><trkpt lat="41.1223133" lon="9.490745"><ele>94.0</ele><time>2026-05-01T08:36:08.679Z</time></trkpt><trkpt lat="41.1222367" lon="9.4906717"><ele>94.0</ele><time>2026-05-01T08:36:09.679Z</time></trkpt><trkpt lat="41.122165" lon="9.4905933"><ele>94.0</ele><time>2026-05-01T08:36:10.679Z</time></trkpt><trkpt lat="41.1220983" lon="9.4905217"><ele>94.0</ele><time>2026-05-01T08:36:11.679Z</time></trkpt><trkpt lat="41.1220283" lon="9.4904567"><ele>94.0</ele><time>2026-05-01T08:36:12.679Z</time></trkpt><trkpt lat="41.1219617" lon="9.4903917"><ele>94.0</ele><time>2026-05-01T08:36:13.679Z</time></trkpt><trkpt lat="41.1218983" lon="9.490335"><ele>94.0</ele><time>2026-05-01T08:36:14.679Z</time></trkpt><trkpt lat="41.12183" lon="9.490265"><ele>94.0</ele><time>2026-05-01T08:36:15.679Z</time></trkpt><trkpt lat="41.1217867" lon="9.4901933"><ele>94.0</ele><time>2026-05-01T08:36:16.679Z</time></trkpt><trkpt lat="41.121745" lon="9.4900933"><ele>94.0</ele><time>2026-05-01T08:36:17.679Z</time></trkpt><trkpt lat="41.1217133" lon="9.4900083"><ele>94.0</ele><time>2026-05-01T08:36:18.679Z</time></trkpt><trkpt lat="41.1216733" lon="9.4899217"><ele>94.0</ele><time>2026-05-01T08:36:19.679Z</time></trkpt><trkpt lat="41.1216367" lon="9.489815"><ele>94.0</ele><time>2026-05-01T08:36:20.679Z</time></trkpt><trkpt lat="41.1216167" lon="9.4896967"><ele>94.0</ele><time>2026-05-01T08:36:21.68Z</time></trkpt><trkpt lat="41.1215933" lon="9.4895867"><ele>94.6</ele><time>2026-05-01T08:36:22.679Z</time></trkpt><trkpt lat="41.12159" lon="9.489465"><ele>95.2</ele><time>2026-05-01T08:36:23.679Z</time></trkpt><trkpt lat="41.12157" lon="9.4893417"><ele>95.8</ele><time>2026-05-01T08:36:24.679Z</time></trkpt><trkpt lat="41.1215567" lon="9.4892117"><ele>96.39999999999999</ele><time>2026-05-01T08:36:25.679Z</time></trkpt><trkpt lat="41.12151" lon="9.4890817"><ele>97.0</ele><time>2026-05-01T08:36:26.678Z</time></trkpt><trkpt lat="41.1214733" lon="9.48896"><ele>99.19999999999999</ele><time>2026-05-01T08:36:27.678Z</time></trkpt><trkpt lat="41.1214467" lon="9.4888267"><ele>101.4</ele><time>2026-05-01T08:36:28.678Z</time></trkpt><trkpt lat="41.1214283" lon="9.488705"><ele>103.60000000000001</ele><time>2026-05-01T08:36:29.679Z</time></trkpt><trkpt lat="41.12138" lon="9.4885833"><ele>105.80000000000001</ele><time>2026-05-01T08:36:30.678Z</time></trkpt><trkpt lat="41.1213317" lon="9.4884533"><ele>108.0</ele><time>2026-05-01T08:36:31.678Z</time></trkpt><trkpt lat="41.121285" lon="9.4883317"><ele>108.0</ele><time>2026-05-01T08:36:32.678Z</time></trkpt><trkpt lat="41.12125" lon="9.4882117"><ele>108.00000000000001</ele><time>2026-05-01T08:36:33.678Z</time></trkpt><trkpt lat="41.1212217" lon="9.4880833"><ele>108.00000000000001</ele><time>2026-05-01T08:36:34.678Z</time></trkpt><trkpt lat="41.121255" lon="9.4879333"><ele>108.0</ele><time>2026-05-01T08:36:35.678Z</time></trkpt><trkpt lat="41.1212733" lon="9.4878"><ele>108.0</ele><time>2026-05-01T08:36:36.678Z</time></trkpt><trkpt lat="41.121275" lon="9.487675"><ele>105.2</ele><time>2026-05-01T08:36:37.678Z</time></trkpt><trkpt lat="41.1212867" lon="9.4875567"><ele>102.4</ele><time>2026-05-01T08:36:38.678Z</time></trkpt><trkpt lat="41.121295" lon="9.4874633"><ele>99.60000000000001</ele><time>2026-05-01T08:36:39.678Z</time></trkpt><trkpt lat="41.1212817" lon="9.4873683"><ele>96.80000000000001</ele><time>2026-05-01T08:36:40.678Z</time></trkpt><trkpt lat="41.12122" lon="9.4872067"><ele>94.0</ele><time>2026-05-01T08:36:42.678Z</time></trkpt><trkpt lat="41.1211633" lon="9.4871217"><ele>92.5</ele><time>2026-05-01T08:36:43.678Z</time></trkpt><trkpt lat="41.1211167" lon="9.4870367"><ele>91.0</ele><time>2026-05-01T08:36:44.679Z</time></trkpt><trkpt lat="41.12106" lon="9.4869483"><ele>89.5</ele><time>2026-05-01T08:36:45.678Z</time></trkpt><trkpt lat="41.121005" lon="9.4868533"><ele>88.0</ele><time>2026-05-01T08:36:46.678Z</time></trkpt><trkpt lat="41.120965" lon="9.4867733"><ele>86.5</ele><time>2026-05-01T08:36:47.678Z</time></trkpt><trkpt lat="41.120925" lon="9.486705"><ele>85.0</ele><time>2026-05-01T08:36:48.678Z</time></trkpt><trkpt lat="41.1208433" lon="9.4866"><ele>85.0</ele><time>2026-05-01T08:36:50.678Z</time></trkpt><trkpt lat="41.12079" lon="9.4865017"><ele>85.0</ele><time>2026-05-01T08:36:52.678Z</time></trkpt><trkpt lat="41.1207517" lon="9.4864083"><ele>85.0</ele><time>2026-05-01T08:36:54.678Z</time></trkpt><trkpt lat="41.1207267" lon="9.4863133"><ele>85.0</ele><time>2026-05-01T08:36:56.678Z</time></trkpt><trkpt lat="41.1206667" lon="9.4862367"><ele>85.0</ele><time>2026-05-01T08:36:59.678Z</time></trkpt><trkpt lat="41.1206167" lon="9.48618"><ele>85.0</ele><time>2026-05-01T08:37:02.678Z</time></trkpt><trkpt lat="41.1205483" lon="9.4861433"><ele>86.16666666666666</ele><time>2026-05-01T08:37:05.678Z</time></trkpt><trkpt lat="41.1204617" lon="9.4861833"><ele>87.33333333333333</ele><time>2026-05-01T08:37:25.678Z</time></trkpt><trkpt lat="41.1205667" lon="9.4862667"><ele>88.5</ele><time>2026-05-01T08:38:02.678Z</time></trkpt><trkpt lat="41.12058" lon="9.4861783"><ele>89.66666666666667</ele><time>2026-05-01T08:38:41.678Z</time></trkpt><trkpt lat="41.1206" lon="9.4860817"><ele>90.83333333333334</ele><time>2026-05-01T08:38:43.678Z</time></trkpt><trkpt lat="41.12056" lon="9.4860083"><ele>92.0</ele><time>2026-05-01T08:38:46.678Z</time></trkpt><trkpt lat="41.1205483" lon="9.4858983"><ele>92.0</ele><time>2026-05-01T08:38:50.678Z</time></trkpt><trkpt lat="41.1205833" lon="9.485825"><ele>92.0</ele><time>2026-05-01T08:38:52.678Z</time></trkpt><trkpt lat="41.1206483" lon="9.4857283"><ele>92.0</ele><time>2026-05-01T08:38:54.678Z</time></trkpt><trkpt lat="41.1205767" lon="9.4856933"><ele>92.0</ele><time>2026-05-01T08:38:55.678Z</time></trkpt><trkpt lat="41.120515" lon="9.4856517"><ele>92.0</ele><time>2026-05-01T08:38:57.678Z</time></trkpt><trkpt lat="41.1204617" lon="9.4855967"><ele>92.0</ele><time>2026-05-01T08:38:59.678Z</time></trkpt><trkpt lat="41.12038" lon="9.4855667"><ele>92.0</ele><time>2026-05-01T08:39:01.678Z</time></trkpt><trkpt lat="41.12031" lon="9.485515"><ele>92.0</ele><time>2026-05-01T08:39:05.678Z</time></trkpt><trkpt lat="41.1202717" lon="9.4854417"><ele>92.0</ele><time>2026-05-01T08:39:08.678Z</time></trkpt><trkpt lat="41.1202383" lon="9.4853617"><ele>92.0</ele><time>2026-05-01T08:39:11.678Z</time></trkpt><trkpt lat="41.1202317" lon="9.4852367"><ele>92.0</ele><time>2026-05-01T08:39:17.678Z</time></trkpt><trkpt lat="41.120185" lon="9.4851367"><ele>92.0</ele><time>2026-05-01T08:39:22.678Z</time></trkpt><trkpt lat="41.1201167" lon="9.4851233"><ele>90.5</ele><time>2026-05-01T08:39:23.678Z</time></trkpt><trkpt lat="41.120045" lon="9.4850933"><ele>89.0</ele><time>2026-05-01T08:39:25.678Z</time></trkpt><trkpt lat="41.1199633" lon="9.485055"><ele>87.5</ele><time>2026-05-01T08:39:28.678Z</time></trkpt><trkpt lat="41.1199033" lon="9.4850183"><ele>86.0</ele><time>2026-05-01T08:39:30.678Z</time></trkpt><trkpt lat="41.11982" lon="9.4849883"><ele>84.5</ele><time>2026-05-01T08:39:32.678Z</time></trkpt><trkpt lat="41.119755" lon="9.4849333"><ele>83.0</ele><time>2026-05-01T08:39:34.678Z</time></trkpt><trkpt lat="41.1197083" lon="9.4848083"><ele>84.33333333333334</ele><time>2026-05-01T08:39:36.678Z</time></trkpt><trkpt lat="41.1196567" lon="9.4847567"><ele>85.66666666666667</ele><time>2026-05-01T08:39:37.678Z</time></trkpt><trkpt lat="41.1195767" lon="9.484665"><ele>87.0</ele><time>2026-05-01T08:39:39.678Z</time></trkpt><trkpt lat="41.1195233" lon="9.48457"><ele>88.33333333333333</ele><time>2026-05-01T08:39:41.678Z</time></trkpt><trkpt lat="41.11946" lon="9.484505"><ele>89.66666666666666</ele><time>2026-05-01T08:39:43.678Z</time></trkpt><trkpt lat="41.1193933" lon="9.4844167"><ele>91.0</ele><time>2026-05-01T08:39:45.679Z</time></trkpt><trkpt lat="41.1193133" lon="9.4843517"><ele>91.0</ele><time>2026-05-01T08:39:47.679Z</time></trkpt><trkpt lat="41.1192133" lon="9.484315"><ele>91.0</ele><time>2026-05-01T08:39:49.678Z</time></trkpt><trkpt lat="41.1191517" lon="9.4842933"><ele>91.0</ele><time>2026-05-01T08:39:50.678Z</time></trkpt><trkpt lat="41.11906" lon="9.4842117"><ele>91.0</ele><time>2026-05-01T08:39:52.678Z</time></trkpt><trkpt lat="41.1189717" lon="9.48414"><ele>91.0</ele><time>2026-05-01T08:39:54.678Z</time></trkpt><trkpt lat="41.1188733" lon="9.4841017"><ele>91.8</ele><time>2026-05-01T08:39:56.678Z</time></trkpt><trkpt lat="41.1187867" lon="9.484055"><ele>92.6</ele><time>2026-05-01T08:39:58.678Z</time></trkpt><trkpt lat="41.118665" lon="9.4840183"><ele>93.4</ele><time>2026-05-01T08:40:00.678Z</time></trkpt><trkpt lat="41.1186" lon="9.4840017"><ele>94.2</ele><time>2026-05-01T08:40:01.678Z</time></trkpt><trkpt lat="41.1185133" lon="9.48397"><ele>95.0</ele><time>2026-05-01T08:40:03.678Z</time></trkpt><trkpt lat="41.1184283" lon="9.483975"><ele>95.0</ele><time>2026-05-01T08:40:05.678Z</time></trkpt><trkpt lat="41.1183133" lon="9.4839733"><ele>95.0</ele><time>2026-05-01T08:40:07.678Z</time></trkpt><trkpt lat="41.1182067" lon="9.4839667"><ele>95.0</ele><time>2026-05-01T08:40:09.678Z</time></trkpt><trkpt lat="41.11812" lon="9.4839567"><ele>95.0</ele><time>2026-05-01T08:40:11.678Z</time></trkpt><trkpt lat="41.118045" lon="9.4839133"><ele>95.0</ele><time>2026-05-01T08:40:13.678Z</time></trkpt><trkpt lat="41.11796" lon="9.4838767"><ele>94.4</ele><time>2026-05-01T08:40:15.678Z</time></trkpt><trkpt lat="41.1178633" lon="9.483825"><ele>93.8</ele><time>2026-05-01T08:40:18.678Z</time></trkpt><trkpt lat="41.117785" lon="9.4837933"><ele>93.19999999999999</ele><time>2026-05-01T08:40:20.678Z</time></trkpt><trkpt lat="41.1177083" lon="9.4837433"><ele>92.6</ele><time>2026-05-01T08:40:22.678Z</time></trkpt><trkpt lat="41.1176133" lon="9.483695"><ele>92.0</ele><time>2026-05-01T08:40:24.678Z</time></trkpt><trkpt lat="41.1175267" lon="9.4836433"><ele>91.0</ele><time>2026-05-01T08:40:26.678Z</time></trkpt><trkpt lat="41.1174433" lon="9.48362"><ele>90.0</ele><time>2026-05-01T08:40:28.678Z</time></trkpt><trkpt lat="41.1173483" lon="9.4836317"><ele>89.0</ele><time>2026-05-01T08:40:30.678Z</time></trkpt><trkpt lat="41.1172517" lon="9.4836667"><ele>88.0</ele><time>2026-05-01T08:40:32.678Z</time></trkpt><trkpt lat="41.1171633" lon="9.4836633"><ele>87.0</ele><time>2026-05-01T08:40:34.678Z</time></trkpt><trkpt lat="41.1170683" lon="9.48362"><ele>87.0</ele><time>2026-05-01T08:40:36.678Z</time></trkpt><trkpt lat="41.116985" lon="9.483565"><ele>87.0</ele><time>2026-05-01T08:40:38.678Z</time></trkpt><trkpt lat="41.1168983" lon="9.4834983"><ele>87.0</ele><time>2026-05-01T08:40:40.678Z</time></trkpt><trkpt lat="41.116805" lon="9.48345"><ele>87.0</ele><time>2026-05-01T08:40:42.678Z</time></trkpt><trkpt lat="41.11674" lon="9.4834167"><ele>87.0</ele><time>2026-05-01T08:40:44.678Z</time></trkpt><trkpt lat="41.1166767" lon="9.48336"><ele>87.0</ele><time>2026-05-01T08:40:47.678Z</time></trkpt><trkpt lat="41.1167483" lon="9.4832733"><ele>87.0</ele><time>2026-05-01T08:41:35.678Z</time></trkpt><trkpt lat="41.116785" lon="9.4831617"><ele>87.0</ele><time>2026-05-01T08:41:37.678Z</time></trkpt><trkpt lat="41.11686" lon="9.4830167"><ele>87.0</ele><time>2026-05-01T08:41:39.678Z</time></trkpt><trkpt lat="41.1169183" lon="9.482945"><ele>87.0</ele><time>2026-05-01T08:41:40.678Z</time></trkpt><trkpt lat="41.1169833" lon="9.4828783"><ele>87.0</ele><time>2026-05-01T08:41:41.678Z</time></trkpt><trkpt lat="41.1170417" lon="9.4828183"><ele>87.16666666666667</ele><time>2026-05-01T08:41:42.678Z</time></trkpt><trkpt lat="41.1171283" lon="9.4827017"><ele>87.33333333333333</ele><time>2026-05-01T08:41:44.678Z</time></trkpt><trkpt lat="41.1171417" lon="9.48262"><ele>87.5</ele><time>2026-05-01T08:41:45.678Z</time></trkpt><trkpt lat="41.1171083" lon="9.48248"><ele>87.66666666666666</ele><time>2026-05-01T08:41:47.679Z</time></trkpt><trkpt lat="41.117075" lon="9.4824083"><ele>87.83333333333333</ele><time>2026-05-01T08:41:48.678Z</time></trkpt><trkpt lat="41.1170367" lon="9.4823283"><ele>88.0</ele><time>2026-05-01T08:41:49.678Z</time></trkpt><trkpt lat="41.1169833" lon="9.48225"><ele>88.0</ele><time>2026-05-01T08:41:50.678Z</time></trkpt><trkpt lat="41.1169367" lon="9.4821583"><ele>88.0</ele><time>2026-05-01T08:41:51.678Z</time></trkpt><trkpt lat="41.1168883" lon="9.4820667"><ele>88.0</ele><time>2026-05-01T08:41:52.678Z</time></trkpt><trkpt lat="41.1168433" lon="9.4819717"><ele>88.0</ele><time>2026-05-01T08:41:53.678Z</time></trkpt><trkpt lat="41.1167883" lon="9.4818683"><ele>88.0</ele><time>2026-05-01T08:41:54.678Z</time></trkpt><trkpt lat="41.1167167" lon="9.4817617"><ele>89.60000000000001</ele><time>2026-05-01T08:41:55.678Z</time></trkpt><trkpt lat="41.1166417" lon="9.48167"><ele>91.2</ele><time>2026-05-01T08:41:56.678Z</time></trkpt><trkpt lat="41.1165583" lon="9.4815867"><ele>92.8</ele><time>2026-05-01T08:41:57.678Z</time></trkpt><trkpt lat="41.1164683" lon="9.4815033"><ele>94.4</ele><time>2026-05-01T08:41:58.678Z</time></trkpt><trkpt lat="41.1163933" lon="9.4814417"><ele>96.0</ele><time>2026-05-01T08:41:59.678Z</time></trkpt><trkpt lat="41.1163183" lon="9.48138"><ele>96.8</ele><time>2026-05-01T08:42:00.678Z</time></trkpt><trkpt lat="41.1162483" lon="9.4813067"><ele>97.6</ele><time>2026-05-01T08:42:01.678Z</time></trkpt><trkpt lat="41.11618" lon="9.4812467"><ele>98.4</ele><time>2026-05-01T08:42:02.678Z</time></trkpt><trkpt lat="41.1161033" lon="9.4812017"><ele>99.2</ele><time>2026-05-01T08:42:03.678Z</time></trkpt><trkpt lat="41.1160283" lon="9.4811167"><ele>100.0</ele><time>2026-05-01T08:42:05.678Z</time></trkpt><trkpt lat="41.1160933" lon="9.4810167"><ele>102.25</ele><time>2026-05-01T08:42:07.678Z</time></trkpt><trkpt lat="41.1161633" lon="9.4809283"><ele>104.5</ele><time>2026-05-01T08:42:08.678Z</time></trkpt><trkpt lat="41.1161967" lon="9.480845"><ele>106.75</ele><time>2026-05-01T08:42:09.678Z</time></trkpt><trkpt lat="41.1163617" lon="9.4806983"><ele>109.0</ele><time>2026-05-01T08:42:10.678Z</time></trkpt><trkpt lat="41.1164517" lon="9.4806183"><ele>109.00000000000001</ele><time>2026-05-01T08:42:11.677Z</time></trkpt><trkpt lat="41.11654" lon="9.480545"><ele>109.0</ele><time>2026-05-01T08:42:12.677Z</time></trkpt><trkpt lat="41.1166167" lon="9.4804867"><ele>109.0</ele><time>2026-05-01T08:42:13.678Z</time></trkpt><trkpt lat="41.116685" lon="9.48043"><ele>109.0</ele><time>2026-05-01T08:42:14.677Z</time></trkpt><trkpt lat="41.1167583" lon="9.4803917"><ele>109.00000000000001</ele><time>2026-05-01T08:42:15.677Z</time></trkpt><trkpt lat="41.1168383" lon="9.4803817"><ele>109.0</ele><time>2026-05-01T08:42:16.677Z</time></trkpt><trkpt lat="41.1169083" lon="9.4803567"><ele>107.66666666666667</ele><time>2026-05-01T08:42:17.677Z</time></trkpt><trkpt lat="41.11698" lon="9.4803233"><ele>106.33333333333334</ele><time>2026-05-01T08:42:18.677Z</time></trkpt><trkpt lat="41.117075" lon="9.4802217"><ele>105.0</ele><time>2026-05-01T08:42:19.677Z</time></trkpt><trkpt lat="41.11713" lon="9.4801583"><ele>103.66666666666666</ele><time>2026-05-01T08:42:20.677Z</time></trkpt><trkpt lat="41.1172067" lon="9.4800783"><ele>102.33333333333333</ele><time>2026-05-01T08:42:21.677Z</time></trkpt><trkpt lat="41.1172633" lon="9.480005"><ele>101.0</ele><time>2026-05-01T08:42:22.677Z</time></trkpt><trkpt lat="41.117315" lon="9.47993"><ele>100.99999999999999</ele><time>2026-05-01T08:42:23.677Z</time></trkpt><trkpt lat="41.1173633" lon="9.47986"><ele>101.0</ele><time>2026-05-01T08:42:24.677Z</time></trkpt><trkpt lat="41.117425" lon="9.4797767"><ele>101.0</ele><time>2026-05-01T08:42:25.678Z</time></trkpt><trkpt lat="41.117475" lon="9.4797"><ele>101.0</ele><time>2026-05-01T08:42:26.677Z</time></trkpt><trkpt lat="41.1175233" lon="9.4796217"><ele>100.99999999999999</ele><time>2026-05-01T08:42:27.677Z</time></trkpt><trkpt lat="41.117565" lon="9.4795467"><ele>101.0</ele><time>2026-05-01T08:42:28.677Z</time></trkpt><trkpt lat="41.1176083" lon="9.4794633"><ele>98.99999999999999</ele><time>2026-05-01T08:42:29.677Z</time></trkpt><trkpt lat="41.11766" lon="9.47938"><ele>97.0</ele><time>2026-05-01T08:42:30.677Z</time></trkpt><trkpt lat="41.1177" lon="9.47922"><ele>95.0</ele><time>2026-05-01T08:42:32.677Z</time></trkpt><trkpt lat="41.117705" lon="9.47913"><ele>93.0</ele><time>2026-05-01T08:42:33.677Z</time></trkpt><trkpt lat="41.117715" lon="9.4790383"><ele>91.0</ele><time>2026-05-01T08:42:34.677Z</time></trkpt><trkpt lat="41.1177283" lon="9.47895"><ele>89.0</ele><time>2026-05-01T08:42:35.677Z</time></trkpt><trkpt lat="41.11775" lon="9.478855"><ele>87.33333333333334</ele><time>2026-05-01T08:42:36.677Z</time></trkpt><trkpt lat="41.1177683" lon="9.4787583"><ele>85.66666666666667</ele><time>2026-05-01T08:42:37.677Z</time></trkpt><trkpt lat="41.1177833" lon="9.4786617"><ele>84.0</ele><time>2026-05-01T08:42:38.677Z</time></trkpt><trkpt lat="41.1178" lon="9.4785683"><ele>82.33333333333333</ele><time>2026-05-01T08:42:39.677Z</time></trkpt><trkpt lat="41.1178083" lon="9.4784783"><ele>80.66666666666666</ele><time>2026-05-01T08:42:40.677Z</time></trkpt><trkpt lat="41.1178333" lon="9.4783317"><ele>79.0</ele><time>2026-05-01T08:42:42.677Z</time></trkpt><trkpt lat="41.1178733" lon="9.4782367"><ele>79.0</ele><time>2026-05-01T08:42:44.677Z</time></trkpt><trkpt lat="41.11794" lon="9.4781683"><ele>79.0</ele><time>2026-05-01T08:42:46.677Z</time></trkpt><trkpt lat="41.1180067" lon="9.478135"><ele>79.0</ele><time>2026-05-01T08:42:47.677Z</time></trkpt><trkpt lat="41.1180867" lon="9.4781167"><ele>79.0</ele><time>2026-05-01T08:42:48.677Z</time></trkpt><trkpt lat="41.1182017" lon="9.4781233"><ele>79.0</ele><time>2026-05-01T08:42:49.677Z</time></trkpt><trkpt lat="41.1182983" lon="9.478125"><ele>79.0</ele><time>2026-05-01T08:42:50.677Z</time></trkpt><trkpt lat="41.1183717" lon="9.4781283"><ele>77.66666666666666</ele><time>2026-05-01T08:42:51.678Z</time></trkpt><trkpt lat="41.1184467" lon="9.4781183"><ele>76.33333333333333</ele><time>2026-05-01T08:42:52.677Z</time></trkpt><trkpt lat="41.11851" lon="9.4780967"><ele>75.0</ele><time>2026-05-01T08:42:53.677Z</time></trkpt><trkpt lat="41.1185717" lon="9.4780633"><ele>73.66666666666667</ele><time>2026-05-01T08:42:54.678Z</time></trkpt><trkpt lat="41.1186367" lon="9.478"><ele>72.33333333333334</ele><time>2026-05-01T08:42:55.677Z</time></trkpt><trkpt lat="41.1187033" lon="9.4779083"><ele>71.0</ele><time>2026-05-01T08:42:56.677Z</time></trkpt><trkpt lat="41.1187583" lon="9.4778117"><ele>71.0</ele><time>2026-05-01T08:42:57.677Z</time></trkpt><trkpt lat="41.1188017" lon="9.4776683"><ele>71.0</ele><time>2026-05-01T08:42:58.677Z</time></trkpt><trkpt lat="41.1188333" lon="9.4775083"><ele>71.0</ele><time>2026-05-01T08:42:59.677Z</time></trkpt><trkpt lat="41.1188417" lon="9.47735"><ele>71.0</ele><time>2026-05-01T08:43:00.677Z</time></trkpt><trkpt lat="41.1188617" lon="9.4771967"><ele>69.2</ele><time>2026-05-01T08:43:01.677Z</time></trkpt><trkpt lat="41.118885" lon="9.4770533"><ele>67.39999999999999</ele><time>2026-05-01T08:43:02.677Z</time></trkpt><trkpt lat="41.11891" lon="9.4769117"><ele>65.6</ele><time>2026-05-01T08:43:03.677Z</time></trkpt><trkpt lat="41.11895" lon="9.47678"><ele>63.8</ele><time>2026-05-01T08:43:04.677Z</time></trkpt><trkpt lat="41.1190033" lon="9.476645"><ele>62.0</ele><time>2026-05-01T08:43:05.677Z</time></trkpt><trkpt lat="41.1190567" lon="9.4764983"><ele>57.75</ele><time>2026-05-01T08:43:06.677Z</time></trkpt><trkpt lat="41.1190967" lon="9.4763533"><ele>53.5</ele><time>2026-05-01T08:43:07.677Z</time></trkpt><trkpt lat="41.1191217" lon="9.476205"><ele>49.25</ele><time>2026-05-01T08:43:08.677Z</time></trkpt><trkpt lat="41.1191533" lon="9.47606"><ele>45.0</ele><time>2026-05-01T08:43:09.677Z</time></trkpt><trkpt lat="41.119185" lon="9.4759083"><ele>45.0</ele><time>2026-05-01T08:43:10.677Z</time></trkpt><trkpt lat="41.119225" lon="9.4757467"><ele>45.0</ele><time>2026-05-01T08:43:11.677Z</time></trkpt><trkpt lat="41.1192717" lon="9.475595"><ele>45.0</ele><time>2026-05-01T08:43:12.677Z</time></trkpt><trkpt lat="41.1193083" lon="9.47546"><ele>45.0</ele><time>2026-05-01T08:43:13.677Z</time></trkpt><trkpt lat="41.1193483" lon="9.475325"><ele>44.2</ele><time>2026-05-01T08:43:14.677Z</time></trkpt><trkpt lat="41.11938" lon="9.4751833"><ele>43.4</ele><time>2026-05-01T08:43:15.677Z</time></trkpt><trkpt lat="41.1194117" lon="9.4750467"><ele>42.599999999999994</ele><time>2026-05-01T08:43:16.677Z</time></trkpt><trkpt lat="41.11944" lon="9.47492"><ele>41.8</ele><time>2026-05-01T08:43:17.677Z</time></trkpt><trkpt lat="41.1194583" lon="9.4748067"><ele>41.0</ele><time>2026-05-01T08:43:18.677Z</time></trkpt><trkpt lat="41.11949" lon="9.4747083"><ele>41.0</ele><time>2026-05-01T08:43:19.677Z</time></trkpt><trkpt lat="41.1195283" lon="9.4746183"><ele>41.0</ele><time>2026-05-01T08:43:20.677Z</time></trkpt><trkpt lat="41.1195667" lon="9.4745217"><ele>41.0</ele><time>2026-05-01T08:43:21.677Z</time></trkpt><trkpt lat="41.1196083" lon="9.4744233"><ele>41.0</ele><time>2026-05-01T08:43:22.677Z</time></trkpt><trkpt lat="41.1196717" lon="9.4743483"><ele>41.0</ele><time>2026-05-01T08:43:23.677Z</time></trkpt><trkpt lat="41.1197483" lon="9.4742667"><ele>41.0</ele><time>2026-05-01T08:43:24.677Z</time></trkpt><trkpt lat="41.1198267" lon="9.4742"><ele>38.599999999999994</ele><time>2026-05-01T08:43:25.677Z</time></trkpt><trkpt lat="41.119925" lon="9.4741317"><ele>36.199999999999996</ele><time>2026-05-01T08:43:26.677Z</time></trkpt><trkpt lat="41.1200117" lon="9.4740583"><ele>33.8</ele><time>2026-05-01T08:43:27.677Z</time></trkpt><trkpt lat="41.12009" lon="9.4739833"><ele>31.4</ele><time>2026-05-01T08:43:28.677Z</time></trkpt><trkpt lat="41.120165" lon="9.47389"><ele>29.0</ele><time>2026-05-01T08:43:29.677Z</time></trkpt><trkpt lat="41.1202333" lon="9.4737983"><ele>27.833333333333332</ele><time>2026-05-01T08:43:30.677Z</time></trkpt><trkpt lat="41.1202933" lon="9.4736917"><ele>26.666666666666664</ele><time>2026-05-01T08:43:31.677Z</time></trkpt><trkpt lat="41.1203417" lon="9.47359"><ele>25.5</ele><time>2026-05-01T08:43:32.677Z</time></trkpt><trkpt lat="41.1203583" lon="9.4734917"><ele>24.333333333333332</ele><time>2026-05-01T08:43:33.677Z</time></trkpt><trkpt lat="41.1203717" lon="9.473405"><ele>23.166666666666664</ele><time>2026-05-01T08:43:34.677Z</time></trkpt><trkpt lat="41.1203567" lon="9.4732933"><ele>22.0</ele><time>2026-05-01T08:43:36.677Z</time></trkpt><trkpt lat="41.1203033" lon="9.4732417"><ele>22.0</ele><time>2026-05-01T08:43:40.677Z</time></trkpt><trkpt lat="41.1202333" lon="9.473265"><ele>22.0</ele><time>2026-05-01T08:44:09.677Z</time></trkpt><trkpt lat="41.1201883" lon="9.4731833"><ele>22.0</ele><time>2026-05-01T08:44:11.677Z</time></trkpt><trkpt lat="41.1201017" lon="9.473085"><ele>22.0</ele><time>2026-05-01T08:44:13.677Z</time></trkpt><trkpt lat="41.12004" lon="9.4730383"><ele>22.0</ele><time>2026-05-01T08:44:14.677Z</time></trkpt><trkpt lat="41.1198517" lon="9.4729683"><ele>22.0</ele><time>2026-05-01T08:44:15.677Z</time></trkpt><trkpt lat="41.1196633" lon="9.4728967"><ele>22.0</ele><time>2026-05-01T08:44:16.677Z</time></trkpt><trkpt lat="41.1194567" lon="9.4728417"><ele>22.0</ele><time>2026-05-01T08:44:17.677Z</time></trkpt><trkpt lat="41.1192883" lon="9.472775"><ele>22.0</ele><time>2026-05-01T08:44:18.677Z</time></trkpt><trkpt lat="41.1191167" lon="9.4726883"><ele>22.0</ele><time>2026-05-01T08:44:19.677Z</time></trkpt><trkpt lat="41.1189667" lon="9.4726067"><ele>22.0</ele><time>2026-05-01T08:44:20.677Z</time></trkpt><trkpt lat="41.118835" lon="9.47251"><ele>23.75</ele><time>2026-05-01T08:44:21.677Z</time></trkpt><trkpt lat="41.1187133" lon="9.47241"><ele>25.5</ele><time>2026-05-01T08:44:22.677Z</time></trkpt><trkpt lat="41.1185867" lon="9.4723083"><ele>27.25</ele><time>2026-05-01T08:44:23.677Z</time></trkpt><trkpt lat="41.1184533" lon="9.4722183"><ele>29.0</ele><time>2026-05-01T08:44:24.677Z</time></trkpt><trkpt lat="41.1183233" lon="9.4721317"><ele>28.25</ele><time>2026-05-01T08:44:25.677Z</time></trkpt><trkpt lat="41.1181983" lon="9.4720567"><ele>27.5</ele><time>2026-05-01T08:44:26.677Z</time></trkpt><trkpt lat="41.1180833" lon="9.47198"><ele>26.75</ele><time>2026-05-01T08:44:27.677Z</time></trkpt><trkpt lat="41.117985" lon="9.471905"><ele>26.0</ele><time>2026-05-01T08:44:28.677Z</time></trkpt><trkpt lat="41.117895" lon="9.4718267"><ele>26.0</ele><time>2026-05-01T08:44:29.677Z</time></trkpt><trkpt lat="41.117805" lon="9.4717483"><ele>26.0</ele><time>2026-05-01T08:44:30.677Z</time></trkpt><trkpt lat="41.1177183" lon="9.4716617"><ele>26.0</ele><time>2026-05-01T08:44:31.677Z</time></trkpt><trkpt lat="41.1176283" lon="9.47159"><ele>26.0</ele><time>2026-05-01T08:44:32.677Z</time></trkpt><trkpt lat="41.1175333" lon="9.4715117"><ele>26.0</ele><time>2026-05-01T08:44:33.677Z</time></trkpt><trkpt lat="41.1174367" lon="9.471425"><ele>25.25</ele><time>2026-05-01T08:44:34.677Z</time></trkpt><trkpt lat="41.1173333" lon="9.4713333"><ele>24.5</ele><time>2026-05-01T08:44:35.677Z</time></trkpt><trkpt lat="41.1172217" lon="9.4712483"><ele>23.75</ele><time>2026-05-01T08:44:36.677Z</time></trkpt><trkpt lat="41.1171067" lon="9.4711617"><ele>23.0</ele><time>2026-05-01T08:44:37.677Z</time></trkpt><trkpt lat="41.1169917" lon="9.47107"><ele>22.25</ele><time>2026-05-01T08:44:38.677Z</time></trkpt><trkpt lat="41.1168683" lon="9.4709767"><ele>21.5</ele><time>2026-05-01T08:44:39.677Z</time></trkpt><trkpt lat="41.11674" lon="9.470885"><ele>20.75</ele><time>2026-05-01T08:44:40.677Z</time></trkpt><trkpt lat="41.1166133" lon="9.4707867"><ele>20.0</ele><time>2026-05-01T08:44:41.677Z</time></trkpt><trkpt lat="41.1164833" lon="9.4706933"><ele>19.75</ele><time>2026-05-01T08:44:42.677Z</time></trkpt><trkpt lat="41.1163583" lon="9.470605"><ele>19.5</ele><time>2026-05-01T08:44:43.677Z</time></trkpt><trkpt lat="41.1162317" lon="9.4705233"><ele>19.25</ele><time>2026-05-01T08:44:44.677Z</time></trkpt><trkpt lat="41.1161083" lon="9.4704467"><ele>19.0</ele><time>2026-05-01T08:44:45.677Z</time></trkpt><trkpt lat="41.1159967" lon="9.4703717"><ele>18.8</ele><time>2026-05-01T08:44:46.677Z</time></trkpt><trkpt lat="41.1158883" lon="9.4702967"><ele>18.599999999999998</ele><time>2026-05-01T08:44:47.677Z</time></trkpt><trkpt lat="41.1157967" lon="9.4702267"><ele>18.4</ele><time>2026-05-01T08:44:48.677Z</time></trkpt><trkpt lat="41.11571" lon="9.4701717"><ele>18.2</ele><time>2026-05-01T08:44:49.677Z</time></trkpt><trkpt lat="41.1156383" lon="9.4701067"><ele>18.0</ele><time>2026-05-01T08:44:50.677Z</time></trkpt><trkpt lat="41.1155667" lon="9.47004"><ele>18.0</ele><time>2026-05-01T08:44:51.677Z</time></trkpt><trkpt lat="41.11551" lon="9.4699667"><ele>18.0</ele><time>2026-05-01T08:44:52.677Z</time></trkpt><trkpt lat="41.1154467" lon="9.4699117"><ele>18.0</ele><time>2026-05-01T08:44:53.677Z</time></trkpt><trkpt lat="41.1153917" lon="9.4698617"><ele>18.0</ele><time>2026-05-01T08:44:54.677Z</time></trkpt><trkpt lat="41.11532" lon="9.469835"><ele>18.0</ele><time>2026-05-01T08:44:55.677Z</time></trkpt><trkpt lat="41.1152583" lon="9.4697983"><ele>18.0</ele><time>2026-05-01T08:44:56.677Z</time></trkpt><trkpt lat="41.115155" lon="9.4697683"><ele>18.0</ele><time>2026-05-01T08:44:58.677Z</time></trkpt><trkpt lat="41.1150917" lon="9.4697433"><ele>18.0</ele><time>2026-05-01T08:45:00.677Z</time></trkpt><trkpt lat="41.1150117" lon="9.46984"><ele>18.0</ele><time>2026-05-01T08:45:18.677Z</time></trkpt><trkpt lat="41.1149417" lon="9.4698967"><ele>18.0</ele><time>2026-05-01T08:45:25.677Z</time></trkpt><trkpt lat="41.1149833" lon="9.469965"><ele>18.0</ele><time>2026-05-01T08:46:03.677Z</time></trkpt><trkpt lat="41.11503" lon="9.470025"><ele>18.0</ele><time>2026-05-01T08:46:07.677Z</time></trkpt><trkpt lat="41.11511" lon="9.47004"><ele>18.0</ele><time>2026-05-01T08:46:14.677Z</time></trkpt><trkpt lat="41.1151667" lon="9.4699733"><ele>18.0</ele><time>2026-05-01T08:46:28.677Z</time></trkpt><trkpt lat="41.1151017" lon="9.4699533"><ele>18.0</ele><time>2026-05-01T08:46:34.677Z</time></trkpt><trkpt lat="41.1151467" lon="9.46988"><ele>18.0</ele><time>2026-05-01T08:46:42.677Z</time></trkpt><trkpt lat="41.115095" lon="9.469805"><ele>18.0</ele><time>2026-05-01T08:46:46.677Z</time></trkpt><trkpt lat="41.1151817" lon="9.4698767"><ele>18.0</ele><time>2026-05-01T08:48:08.676Z</time></trkpt><trkpt lat="41.1150633" lon="9.469945"><ele>18.0</ele><time>2026-05-01T08:48:31.676Z</time></trkpt><trkpt lat="41.11501" lon="9.4699917"><ele>18.0</ele><time>2026-05-01T08:48:35.676Z</time></trkpt><trkpt lat="41.1149367" lon="9.4700267"><ele>18.0</ele><time>2026-05-01T08:48:38.676Z</time></trkpt><trkpt lat="41.11489" lon="9.469925"><ele>18.0</ele><time>2026-05-01T08:48:43.676Z</time></trkpt><trkpt lat="41.1150033" lon="9.4698917"><ele>18.0</ele><time>2026-05-01T08:48:57.676Z</time></trkpt><trkpt lat="41.11508" lon="9.4698817"><ele>18.0</ele><time>2026-05-01T08:49:17.676Z</time></trkpt><trkpt lat="41.11516" lon="9.4699033"><ele>18.000000000000004</ele><time>2026-05-01T08:49:20.676Z</time></trkpt><trkpt lat="41.1150933" lon="9.4698983"><ele>18.0</ele><time>2026-05-01T08:49:28.676Z</time></trkpt><trkpt lat="41.1150283" lon="9.46989"><ele>18.0</ele><time>2026-05-01T08:49:32.676Z</time></trkpt><trkpt lat="41.114955" lon="9.4698717"><ele>18.0</ele><time>2026-05-01T08:49:37.676Z</time></trkpt><trkpt lat="41.1150267" lon="9.4698583"><ele>18.0</ele><time>2026-05-01T08:49:59.676Z</time></trkpt><trkpt lat="41.1150083" lon="9.4697767"><ele>18.000000000000004</ele><time>2026-05-01T08:50:02.676Z</time></trkpt><trkpt lat="41.1149117" lon="9.4698067"><ele>18.0</ele><time>2026-05-01T08:50:11.676Z</time></trkpt><trkpt lat="41.11484" lon="9.4698383"><ele>18.0</ele><time>2026-05-01T08:50:14.676Z</time></trkpt><trkpt lat="41.11477" lon="9.4698033"><ele>18.0</ele><time>2026-05-01T08:50:16.677Z</time></trkpt><trkpt lat="41.1147183" lon="9.4698733"><ele>18.0</ele><time>2026-05-01T08:50:21.676Z</time></trkpt><trkpt lat="41.114745" lon="9.46996"><ele>18.0</ele><time>2026-05-01T08:50:49.676Z</time></trkpt><trkpt lat="41.1148067" lon="9.4699817"><ele>18.0</ele><time>2026-05-01T08:50:53.676Z</time></trkpt><trkpt lat="41.1148633" lon="9.4700433"><ele>18.0</ele><time>2026-05-01T08:50:56.676Z</time></trkpt><trkpt lat="41.1149617" lon="9.4701017"><ele>18.0</ele><time>2026-05-01T08:51:03.676Z</time></trkpt><trkpt lat="41.1150433" lon="9.4700717"><ele>18.0</ele><time>2026-05-01T08:51:08.676Z</time></trkpt><trkpt lat="41.1151367" lon="9.4700967"><ele>18.0</ele><time>2026-05-01T08:51:10.676Z</time></trkpt><trkpt lat="41.1152467" lon="9.4701433"><ele>18.0</ele><time>2026-05-01T08:51:12.676Z</time></trkpt><trkpt lat="41.1153117" lon="9.4701167"><ele>18.0</ele><time>2026-05-01T08:51:13.676Z</time></trkpt><trkpt lat="41.1153667" lon="9.4700567"><ele>18.0</ele><time>2026-05-01T08:51:14.676Z</time></trkpt><trkpt lat="41.1154167" lon="9.4700033"><ele>18.0</ele><time>2026-05-01T08:51:15.676Z</time></trkpt><trkpt lat="41.1154917" lon="9.4700267"><ele>18.0</ele><time>2026-05-01T08:51:20.676Z</time></trkpt><trkpt lat="41.11558" lon="9.470125"><ele>18.0</ele><time>2026-05-01T08:51:45.676Z</time></trkpt><trkpt lat="41.115645" lon="9.4702067"><ele>18.0</ele><time>2026-05-01T08:51:46.676Z</time></trkpt><trkpt lat="41.1157217" lon="9.4703183"><ele>18.0</ele><time>2026-05-01T08:51:47.676Z</time></trkpt><trkpt lat="41.1157867" lon="9.470415"><ele>18.25</ele><time>2026-05-01T08:51:48.676Z</time></trkpt><trkpt lat="41.1158583" lon="9.470525"><ele>18.5</ele><time>2026-05-01T08:51:49.676Z</time></trkpt><trkpt lat="41.1159583" lon="9.470625"><ele>18.75</ele><time>2026-05-01T08:51:50.676Z</time></trkpt><trkpt lat="41.1160917" lon="9.4707017"><ele>19.0</ele><time>2026-05-01T08:51:51.676Z</time></trkpt><trkpt lat="41.1162133" lon="9.47079"><ele>19.0</ele><time>2026-05-01T08:51:52.676Z</time></trkpt><trkpt lat="41.1163583" lon="9.4708667"><ele>19.0</ele><time>2026-05-01T08:51:53.676Z</time></trkpt><trkpt lat="41.1164933" lon="9.4709583"><ele>19.0</ele><time>2026-05-01T08:51:54.676Z</time></trkpt><trkpt lat="41.11662" lon="9.4710433"><ele>19.333333333333332</ele><time>2026-05-01T08:51:55.676Z</time></trkpt><trkpt lat="41.116785" lon="9.4711467"><ele>19.666666666666668</ele><time>2026-05-01T08:51:56.676Z</time></trkpt><trkpt lat="41.1169283" lon="9.4712333"><ele>20.0</ele><time>2026-05-01T08:51:57.676Z</time></trkpt><trkpt lat="41.1170767" lon="9.4713083"><ele>21.0</ele><time>2026-05-01T08:51:58.676Z</time></trkpt><trkpt lat="41.117235" lon="9.4713967"><ele>22.0</ele><time>2026-05-01T08:51:59.676Z</time></trkpt><trkpt lat="41.1173733" lon="9.47149"><ele>23.0</ele><time>2026-05-01T08:52:00.676Z</time></trkpt><trkpt lat="41.11749" lon="9.47158"><ele>23.75</ele><time>2026-05-01T08:52:01.676Z</time></trkpt><trkpt lat="41.1176" lon="9.4716817"><ele>24.5</ele><time>2026-05-01T08:52:02.676Z</time></trkpt><trkpt lat="41.11771" lon="9.4717933"><ele>25.25</ele><time>2026-05-01T08:52:03.676Z</time></trkpt><trkpt lat="41.1178217" lon="9.4719033"><ele>26.0</ele><time>2026-05-01T08:52:04.676Z</time></trkpt><trkpt lat="41.117935" lon="9.4720117"><ele>27.0</ele><time>2026-05-01T08:52:05.676Z</time></trkpt><trkpt lat="41.1180617" lon="9.4721217"><ele>28.0</ele><time>2026-05-01T08:52:06.676Z</time></trkpt><trkpt lat="41.1181967" lon="9.4722267"><ele>29.0</ele><time>2026-05-01T08:52:07.676Z</time></trkpt><trkpt lat="41.1183383" lon="9.47233"><ele>29.0</ele><time>2026-05-01T08:52:08.676Z</time></trkpt><trkpt lat="41.1184983" lon="9.4724467"><ele>29.0</ele><time>2026-05-01T08:52:09.676Z</time></trkpt><trkpt lat="41.118635" lon="9.4725417"><ele>29.0</ele><time>2026-05-01T08:52:10.676Z</time></trkpt><trkpt lat="41.118765" lon="9.4726267"><ele>29.0</ele><time>2026-05-01T08:52:11.676Z</time></trkpt><trkpt lat="41.1188883" lon="9.4727083"><ele>29.0</ele><time>2026-05-01T08:52:12.676Z</time></trkpt><trkpt lat="41.1190233" lon="9.4727867"><ele>29.0</ele><time>2026-05-01T08:52:13.676Z</time></trkpt><trkpt lat="41.1191517" lon="9.4728417"><ele>29.0</ele><time>2026-05-01T08:52:14.676Z</time></trkpt><trkpt lat="41.1192867" lon="9.4729067"><ele>28.75</ele><time>2026-05-01T08:52:15.677Z</time></trkpt><trkpt lat="41.1194217" lon="9.472965"><ele>28.5</ele><time>2026-05-01T08:52:16.676Z</time></trkpt><trkpt lat="41.119555" lon="9.47302"><ele>28.25</ele><time>2026-05-01T08:52:17.676Z</time></trkpt><trkpt lat="41.1196883" lon="9.47307"><ele>28.0</ele><time>2026-05-01T08:52:18.676Z</time></trkpt><trkpt lat="41.1198183" lon="9.4731083"><ele>26.799999999999997</ele><time>2026-05-01T08:52:19.676Z</time></trkpt><trkpt lat="41.119935" lon="9.4731517"><ele>25.599999999999998</ele><time>2026-05-01T08:52:20.676Z</time></trkpt><trkpt lat="41.120035" lon="9.473195"><ele>24.4</ele><time>2026-05-01T08:52:21.676Z</time></trkpt><trkpt lat="41.1201217" lon="9.4732267"><ele>23.200000000000003</ele><time>2026-05-01T08:52:22.676Z</time></trkpt><trkpt lat="41.1202" lon="9.4732717"><ele>22.0</ele><time>2026-05-01T08:52:23.676Z</time></trkpt><trkpt lat="41.1202667" lon="9.4733133"><ele>22.0</ele><time>2026-05-01T08:52:24.676Z</time></trkpt><trkpt lat="41.1203367" lon="9.4733667"><ele>22.0</ele><time>2026-05-01T08:52:25.676Z</time></trkpt><trkpt lat="41.1203733" lon="9.4734567"><ele>22.0</ele><time>2026-05-01T08:52:26.676Z</time></trkpt><trkpt lat="41.1204017" lon="9.473545"><ele>22.0</ele><time>2026-05-01T08:52:27.676Z</time></trkpt><trkpt lat="41.1204183" lon="9.4736367"><ele>22.0</ele><time>2026-05-01T08:52:28.676Z</time></trkpt><trkpt lat="41.1204117" lon="9.4737267"><ele>22.0</ele><time>2026-05-01T08:52:29.676Z</time></trkpt><trkpt lat="41.1203517" lon="9.473845"><ele>23.400000000000002</ele><time>2026-05-01T08:52:30.676Z</time></trkpt><trkpt lat="41.1202917" lon="9.4739383"><ele>24.8</ele><time>2026-05-01T08:52:31.676Z</time></trkpt><trkpt lat="41.1202233" lon="9.474015"><ele>26.2</ele><time>2026-05-01T08:52:32.676Z</time></trkpt><trkpt lat="41.120155" lon="9.4740883"><ele>27.6</ele><time>2026-05-01T08:52:33.676Z</time></trkpt><trkpt lat="41.1200833" lon="9.4741633"><ele>29.0</ele><time>2026-05-01T08:52:34.676Z</time></trkpt><trkpt lat="41.120015" lon="9.47424"><ele>29.0</ele><time>2026-05-01T08:52:35.677Z</time></trkpt><trkpt lat="41.1199267" lon="9.4743183"><ele>29.0</ele><time>2026-05-01T08:52:36.676Z</time></trkpt><trkpt lat="41.11983" lon="9.4743933"><ele>29.0</ele><time>2026-05-01T08:52:37.676Z</time></trkpt><trkpt lat="41.11975" lon="9.4744683"><ele>29.0</ele><time>2026-05-01T08:52:38.676Z</time></trkpt><trkpt lat="41.119665" lon="9.4745417"><ele>29.0</ele><time>2026-05-01T08:52:39.676Z</time></trkpt><trkpt lat="41.11958" lon="9.4746233"><ele>31.4</ele><time>2026-05-01T08:52:40.677Z</time></trkpt><trkpt lat="41.119515" lon="9.47471"><ele>33.8</ele><time>2026-05-01T08:52:41.676Z</time></trkpt><trkpt lat="41.1194517" lon="9.474805"><ele>36.199999999999996</ele><time>2026-05-01T08:52:42.676Z</time></trkpt><trkpt lat="41.1193983" lon="9.474905"><ele>38.599999999999994</ele><time>2026-05-01T08:52:43.676Z</time></trkpt><trkpt lat="41.1193583" lon="9.4750333"><ele>41.0</ele><time>2026-05-01T08:52:44.676Z</time></trkpt><trkpt lat="41.1192783" lon="9.4753517"><ele>42.0</ele><time>2026-05-01T08:52:46.676Z</time></trkpt><trkpt lat="41.119245" lon="9.4755183"><ele>43.0</ele><time>2026-05-01T08:52:47.677Z</time></trkpt><trkpt lat="41.1191967" lon="9.4756767"><ele>44.0</ele><time>2026-05-01T08:52:48.677Z</time></trkpt><trkpt lat="41.11915" lon="9.4758467"><ele>45.0</ele><time>2026-05-01T08:52:49.676Z</time></trkpt><trkpt lat="41.1191483" lon="9.4760267"><ele>45.0</ele><time>2026-05-01T08:52:50.676Z</time></trkpt><trkpt lat="41.119135" lon="9.476205"><ele>45.0</ele><time>2026-05-01T08:52:51.676Z</time></trkpt><trkpt lat="41.1191017" lon="9.476375"><ele>45.0</ele><time>2026-05-01T08:52:52.676Z</time></trkpt><trkpt lat="41.1190667" lon="9.476525"><ele>45.0</ele><time>2026-05-01T08:52:53.676Z</time></trkpt><trkpt lat="41.1190133" lon="9.47667"><ele>49.25</ele><time>2026-05-01T08:52:54.676Z</time></trkpt><trkpt lat="41.1189467" lon="9.4768"><ele>53.5</ele><time>2026-05-01T08:52:55.676Z</time></trkpt><trkpt lat="41.1188867" lon="9.4769317"><ele>57.75</ele><time>2026-05-01T08:52:56.676Z</time></trkpt><trkpt lat="41.1188467" lon="9.4770783"><ele>62.0</ele><time>2026-05-01T08:52:57.676Z</time></trkpt><trkpt lat="41.1188183" lon="9.47723"><ele>63.8</ele><time>2026-05-01T08:52:58.676Z</time></trkpt><trkpt lat="41.11879" lon="9.4773817"><ele>65.6</ele><time>2026-05-01T08:52:59.676Z</time></trkpt><trkpt lat="41.1187617" lon="9.4775183"><ele>67.39999999999999</ele><time>2026-05-01T08:53:00.676Z</time></trkpt><trkpt lat="41.1187283" lon="9.4776367"><ele>69.2</ele><time>2026-05-01T08:53:01.676Z</time></trkpt><trkpt lat="41.1187" lon="9.47773"><ele>71.0</ele><time>2026-05-01T08:53:02.676Z</time></trkpt><trkpt lat="41.1186483" lon="9.477835"><ele>71.0</ele><time>2026-05-01T08:53:04.676Z</time></trkpt><trkpt lat="41.1186133" lon="9.477965"><ele>71.0</ele><time>2026-05-01T08:53:55.675Z</time></trkpt><trkpt lat="41.1185533" lon="9.4780417"><ele>71.0</ele><time>2026-05-01T08:53:56.675Z</time></trkpt><trkpt lat="41.1184783" lon="9.4781183"><ele>71.0</ele><time>2026-05-01T08:53:57.675Z</time></trkpt><trkpt lat="41.1184067" lon="9.478195"><ele>71.0</ele><time>2026-05-01T08:53:58.675Z</time></trkpt><trkpt lat="41.1183633" lon="9.4782633"><ele>71.0</ele><time>2026-05-01T08:53:59.675Z</time></trkpt><trkpt lat="41.1182817" lon="9.4782467"><ele>72.6</ele><time>2026-05-01T08:54:00.676Z</time></trkpt><trkpt lat="41.118175" lon="9.47825"><ele>74.19999999999999</ele><time>2026-05-01T08:54:01.675Z</time></trkpt><trkpt lat="41.1180783" lon="9.4782533"><ele>75.80000000000001</ele><time>2026-05-01T08:54:02.675Z</time></trkpt><trkpt lat="41.1179867" lon="9.4782867"><ele>77.4</ele><time>2026-05-01T08:54:03.675Z</time></trkpt><trkpt lat="41.11788" lon="9.4783417"><ele>79.0</ele><time>2026-05-01T08:54:04.675Z</time></trkpt><trkpt lat="41.1178033" lon="9.478385"><ele>79.0</ele><time>2026-05-01T08:54:05.675Z</time></trkpt><trkpt lat="41.1176667" lon="9.4785283"><ele>79.0</ele><time>2026-05-01T08:54:07.675Z</time></trkpt><trkpt lat="41.117595" lon="9.478635"><ele>79.0</ele><time>2026-05-01T08:54:08.675Z</time></trkpt><trkpt lat="41.1175217" lon="9.4787683"><ele>79.0</ele><time>2026-05-01T08:54:09.675Z</time></trkpt><trkpt lat="41.1174633" lon="9.47892"><ele>81.25</ele><time>2026-05-01T08:54:10.675Z</time></trkpt><trkpt lat="41.1174317" lon="9.4790917"><ele>83.5</ele><time>2026-05-01T08:54:11.675Z</time></trkpt><trkpt lat="41.117415" lon="9.47928"><ele>85.75</ele><time>2026-05-01T08:54:12.675Z</time></trkpt><trkpt lat="41.1173783" lon="9.4794617"><ele>88.0</ele><time>2026-05-01T08:54:13.675Z</time></trkpt><trkpt lat="41.1173617" lon="9.4796267"><ele>91.25</ele><time>2026-05-01T08:54:14.675Z</time></trkpt><trkpt lat="41.1173283" lon="9.4797533"><ele>94.5</ele><time>2026-05-01T08:54:15.675Z</time></trkpt><trkpt lat="41.117305" lon="9.4798783"><ele>97.75</ele><time>2026-05-01T08:54:16.675Z</time></trkpt><trkpt lat="41.1172117" lon="9.4800717"><ele>101.0</ele><time>2026-05-01T08:54:18.675Z</time></trkpt><trkpt lat="41.1171533" lon="9.4801567"><ele>101.0</ele><time>2026-05-01T08:54:19.675Z</time></trkpt><trkpt lat="41.1171067" lon="9.4802333"><ele>101.0</ele><time>2026-05-01T08:54:20.675Z</time></trkpt><trkpt lat="41.1170117" lon="9.48037"><ele>101.0</ele><time>2026-05-01T08:54:22.675Z</time></trkpt><trkpt lat="41.1169433" lon="9.480445"><ele>101.0</ele><time>2026-05-01T08:54:23.675Z</time></trkpt><trkpt lat="41.1168667" lon="9.4805467"><ele>101.0</ele><time>2026-05-01T08:54:25.675Z</time></trkpt><trkpt lat="41.1167967" lon="9.4806133"><ele>101.99999999999999</ele><time>2026-05-01T08:54:28.675Z</time></trkpt><trkpt lat="41.1167017" lon="9.4806183"><ele>103.0</ele><time>2026-05-01T08:54:30.675Z</time></trkpt><trkpt lat="41.11661" lon="9.4806217"><ele>104.0</ele><time>2026-05-01T08:54:32.675Z</time></trkpt><trkpt lat="41.1165167" lon="9.4806783"><ele>105.0</ele><time>2026-05-01T08:54:34.675Z</time></trkpt><trkpt lat="41.1164733" lon="9.4807433"><ele>105.99999999999999</ele><time>2026-05-01T08:54:35.675Z</time></trkpt><trkpt lat="41.1164133" lon="9.48081"><ele>107.0</ele><time>2026-05-01T08:54:36.675Z</time></trkpt><trkpt lat="41.1163583" lon="9.4808717"><ele>107.33333333333333</ele><time>2026-05-01T08:54:37.675Z</time></trkpt><trkpt lat="41.116305" lon="9.4809317"><ele>107.66666666666666</ele><time>2026-05-01T08:54:38.675Z</time></trkpt><trkpt lat="41.1162617" lon="9.48102"><ele>108.0</ele><time>2026-05-01T08:54:39.675Z</time></trkpt><trkpt lat="41.1162067" lon="9.4810933"><ele>108.33333333333334</ele><time>2026-05-01T08:54:40.675Z</time></trkpt><trkpt lat="41.1161633" lon="9.4811617"><ele>108.66666666666667</ele><time>2026-05-01T08:54:41.675Z</time></trkpt><trkpt lat="41.1160933" lon="9.48127"><ele>109.0</ele><time>2026-05-01T08:54:43.675Z</time></trkpt><trkpt lat="41.1160117" lon="9.4813333"><ele>109.16666666666667</ele><time>2026-05-01T08:54:46.675Z</time></trkpt><trkpt lat="41.1159233" lon="9.4813433"><ele>109.33333333333334</ele><time>2026-05-01T08:54:48.675Z</time></trkpt><trkpt lat="41.1158067" lon="9.481315"><ele>109.5</ele><time>2026-05-01T08:54:50.675Z</time></trkpt><trkpt lat="41.1157383" lon="9.4812833"><ele>109.66666666666666</ele><time>2026-05-01T08:54:51.675Z</time></trkpt><trkpt lat="41.115665" lon="9.4812367"><ele>109.83333333333333</ele><time>2026-05-01T08:54:52.675Z</time></trkpt><trkpt lat="41.115585" lon="9.4811967"><ele>110.0</ele><time>2026-05-01T08:54:53.675Z</time></trkpt><trkpt lat="41.1155083" lon="9.4811533"><ele>109.99999999999999</ele><time>2026-05-01T08:54:54.676Z</time></trkpt><trkpt lat="41.115435" lon="9.48111"><ele>110.0</ele><time>2026-05-01T08:54:55.675Z</time></trkpt><trkpt lat="41.1153733" lon="9.48106"><ele>110.0</ele><time>2026-05-01T08:54:56.675Z</time></trkpt><trkpt lat="41.1152767" lon="9.4809917"><ele>110.0</ele><time>2026-05-01T08:54:58.675Z</time></trkpt><trkpt lat="41.1152133" lon="9.4809917"><ele>109.99999999999999</ele><time>2026-05-01T08:54:59.675Z</time></trkpt><trkpt lat="41.1151383" lon="9.4810133"><ele>110.0</ele><time>2026-05-01T08:55:00.675Z</time></trkpt><trkpt lat="41.1150533" lon="9.48105"><ele>109.99999999999999</ele><time>2026-05-01T08:55:01.675Z</time></trkpt><trkpt lat="41.1149717" lon="9.4811017"><ele>110.0</ele><time>2026-05-01T08:55:02.675Z</time></trkpt><trkpt lat="41.114895" lon="9.48114"><ele>110.0</ele><time>2026-05-01T08:55:03.675Z</time></trkpt><trkpt lat="41.1148267" lon="9.4811833"><ele>110.0</ele><time>2026-05-01T08:55:04.675Z</time></trkpt><trkpt lat="41.1147617" lon="9.4812683"><ele>109.99999999999999</ele><time>2026-05-01T08:55:05.675Z</time></trkpt><trkpt lat="41.11471" lon="9.4813533"><ele>110.0</ele><time>2026-05-01T08:55:06.676Z</time></trkpt><trkpt lat="41.1146567" lon="9.4814217"><ele>109.66666666666666</ele><time>2026-05-01T08:55:07.675Z</time></trkpt><trkpt lat="41.114575" lon="9.4815267"><ele>109.33333333333333</ele><time>2026-05-01T08:55:09.675Z</time></trkpt><trkpt lat="41.1145117" lon="9.4815917"><ele>109.0</ele><time>2026-05-01T08:55:11.675Z</time></trkpt><trkpt lat="41.114465" lon="9.481655"><ele>108.66666666666666</ele><time>2026-05-01T08:55:14.675Z</time></trkpt><trkpt lat="41.11452" lon="9.48161"><ele>108.33333333333333</ele><time>2026-05-01T08:55:45.675Z</time></trkpt><trkpt lat="41.1144967" lon="9.4817167"><ele>108.0</ele><time>2026-05-01T08:55:55.675Z</time></trkpt><trkpt lat="41.114565" lon="9.4816483"><ele>108.0</ele><time>2026-05-01T08:56:06.675Z</time></trkpt><trkpt lat="41.114615" lon="9.48159"><ele>108.00000000000001</ele><time>2026-05-01T08:56:07.675Z</time></trkpt><trkpt lat="41.1146733" lon="9.4815317"><ele>108.00000000000001</ele><time>2026-05-01T08:56:08.675Z</time></trkpt><trkpt lat="41.1147567" lon="9.4814583"><ele>108.0</ele><time>2026-05-01T08:56:09.675Z</time></trkpt><trkpt lat="41.1148483" lon="9.4813767"><ele>108.0</ele><time>2026-05-01T08:56:10.675Z</time></trkpt><trkpt lat="41.1149333" lon="9.481305"><ele>108.4</ele><time>2026-05-01T08:56:11.675Z</time></trkpt><trkpt lat="41.11502" lon="9.4812433"><ele>108.80000000000001</ele><time>2026-05-01T08:56:12.675Z</time></trkpt><trkpt lat="41.1151117" lon="9.48118"><ele>109.2</ele><time>2026-05-01T08:56:13.675Z</time></trkpt><trkpt lat="41.11519" lon="9.4811317"><ele>109.6</ele><time>2026-05-01T08:56:14.675Z</time></trkpt><trkpt lat="41.1152733" lon="9.4810933"><ele>110.0</ele><time>2026-05-01T08:56:15.675Z</time></trkpt><trkpt lat="41.115365" lon="9.4810767"><ele>109.99999999999999</ele><time>2026-05-01T08:56:16.675Z</time></trkpt><trkpt lat="41.11544" lon="9.4810717"><ele>110.0</ele><time>2026-05-01T08:56:17.676Z</time></trkpt><trkpt lat="41.115515" lon="9.481075"><ele>110.0</ele><time>2026-05-01T08:56:18.675Z</time></trkpt><trkpt lat="41.115595" lon="9.4811017"><ele>110.0</ele><time>2026-05-01T08:56:19.675Z</time></trkpt><trkpt lat="41.1156783" lon="9.4811283"><ele>109.99999999999999</ele><time>2026-05-01T08:56:20.675Z</time></trkpt><trkpt lat="41.11576" lon="9.4811617"><ele>110.0</ele><time>2026-05-01T08:56:21.675Z</time></trkpt><trkpt lat="41.1158617" lon="9.4811867"><ele>109.8</ele><time>2026-05-01T08:56:22.675Z</time></trkpt><trkpt lat="41.1159617" lon="9.4811983"><ele>109.6</ele><time>2026-05-01T08:56:23.675Z</time></trkpt><trkpt lat="41.1160617" lon="9.4811967"><ele>109.4</ele><time>2026-05-01T08:56:24.675Z</time></trkpt><trkpt lat="41.1161467" lon="9.48119"><ele>109.2</ele><time>2026-05-01T08:56:25.675Z</time></trkpt><trkpt lat="41.116215" lon="9.481165"><ele>109.0</ele><time>2026-05-01T08:56:26.675Z</time></trkpt><trkpt lat="41.11631" lon="9.4811133"><ele>109.00000000000001</ele><time>2026-05-01T08:56:28.675Z</time></trkpt><trkpt lat="41.11637" lon="9.4810667"><ele>109.0</ele><time>2026-05-01T08:56:29.675Z</time></trkpt><trkpt lat="41.11643" lon="9.48099"><ele>109.0</ele><time>2026-05-01T08:56:30.675Z</time></trkpt><trkpt lat="41.1164817" lon="9.48089"><ele>109.0</ele><time>2026-05-01T08:56:31.675Z</time></trkpt><trkpt lat="41.11654" lon="9.48081"><ele>109.00000000000001</ele><time>2026-05-01T08:56:32.675Z</time></trkpt><trkpt lat="41.11661" lon="9.480715"><ele>109.0</ele><time>2026-05-01T08:56:33.675Z</time></trkpt><trkpt lat="41.1167033" lon="9.480635"><ele>108.6</ele><time>2026-05-01T08:56:34.675Z</time></trkpt><trkpt lat="41.1167867" lon="9.48057"><ele>108.2</ele><time>2026-05-01T08:56:35.675Z</time></trkpt><trkpt lat="41.1168767" lon="9.4805267"><ele>107.79999999999998</ele><time>2026-05-01T08:56:36.675Z</time></trkpt><trkpt lat="41.11697" lon="9.4804833"><ele>107.39999999999999</ele><time>2026-05-01T08:56:37.675Z</time></trkpt><trkpt lat="41.1170583" lon="9.4804233"><ele>107.0</ele><time>2026-05-01T08:56:38.675Z</time></trkpt><trkpt lat="41.1171333" lon="9.4803433"><ele>105.8</ele><time>2026-05-01T08:56:39.675Z</time></trkpt><trkpt lat="41.1171967" lon="9.48025"><ele>104.6</ele><time>2026-05-01T08:56:40.675Z</time></trkpt><trkpt lat="41.1172583" lon="9.4801533"><ele>103.39999999999999</ele><time>2026-05-01T08:56:41.675Z</time></trkpt><trkpt lat="41.11731" lon="9.4800433"><ele>102.19999999999999</ele><time>2026-05-01T08:56:42.675Z</time></trkpt><trkpt lat="41.1173783" lon="9.47994"><ele>101.0</ele><time>2026-05-01T08:56:43.675Z</time></trkpt><trkpt lat="41.1174283" lon="9.479845"><ele>100.49999999999999</ele><time>2026-05-01T08:56:44.675Z</time></trkpt><trkpt lat="41.1174817" lon="9.47976"><ele>100.0</ele><time>2026-05-01T08:56:45.675Z</time></trkpt><trkpt lat="41.1175333" lon="9.4796767"><ele>99.5</ele><time>2026-05-01T08:56:46.675Z</time></trkpt><trkpt lat="41.1175833" lon="9.4796"><ele>99.0</ele><time>2026-05-01T08:56:47.675Z</time></trkpt><trkpt lat="41.1176317" lon="9.4795383"><ele>98.49999999999999</ele><time>2026-05-01T08:56:48.675Z</time></trkpt><trkpt lat="41.117665" lon="9.4793683"><ele>98.0</ele><time>2026-05-01T08:56:50.675Z</time></trkpt><trkpt lat="41.11767" lon="9.47926"><ele>96.49999999999999</ele><time>2026-05-01T08:56:51.675Z</time></trkpt><trkpt lat="41.1176633" lon="9.4791417"><ele>95.0</ele><time>2026-05-01T08:56:52.675Z</time></trkpt><trkpt lat="41.1176733" lon="9.4790183"><ele>93.5</ele><time>2026-05-01T08:56:53.675Z</time></trkpt><trkpt lat="41.1176817" lon="9.47892"><ele>92.0</ele><time>2026-05-01T08:56:54.675Z</time></trkpt><trkpt lat="41.117695" lon="9.4788183"><ele>90.5</ele><time>2026-05-01T08:56:55.675Z</time></trkpt><trkpt lat="41.1177183" lon="9.4787233"><ele>89.0</ele><time>2026-05-01T08:56:56.675Z</time></trkpt><trkpt lat="41.11774" lon="9.4786283"><ele>87.33333333333334</ele><time>2026-05-01T08:56:57.675Z</time></trkpt><trkpt lat="41.1177633" lon="9.4785367"><ele>85.66666666666667</ele><time>2026-05-01T08:56:58.675Z</time></trkpt><trkpt lat="41.11779" lon="9.4784483"><ele>84.0</ele><time>2026-05-01T08:56:59.675Z</time></trkpt><trkpt lat="41.1178333" lon="9.4783217"><ele>82.33333333333333</ele><time>2026-05-01T08:57:01.675Z</time></trkpt><trkpt lat="41.117895" lon="9.47825"><ele>80.66666666666666</ele><time>2026-05-01T08:57:03.675Z</time></trkpt><trkpt lat="41.11801" lon="9.4782167"><ele>79.0</ele><time>2026-05-01T08:57:05.675Z</time></trkpt><trkpt lat="41.118105" lon="9.47821"><ele>79.0</ele><time>2026-05-01T08:57:06.675Z</time></trkpt><trkpt lat="41.118195" lon="9.4781933"><ele>79.0</ele><time>2026-05-01T08:57:07.675Z</time></trkpt><trkpt lat="41.1182767" lon="9.4781817"><ele>79.0</ele><time>2026-05-01T08:57:08.675Z</time></trkpt><trkpt lat="41.1183567" lon="9.478175"><ele>79.0</ele><time>2026-05-01T08:57:09.675Z</time></trkpt><trkpt lat="41.11843" lon="9.4781633"><ele>79.0</ele><time>2026-05-01T08:57:10.675Z</time></trkpt><trkpt lat="41.1185267" lon="9.478105"><ele>79.0</ele><time>2026-05-01T08:57:12.675Z</time></trkpt><trkpt lat="41.1185917" lon="9.4780633"><ele>77.66666666666666</ele><time>2026-05-01T08:57:14.675Z</time></trkpt><trkpt lat="41.1186633" lon="9.4780167"><ele>76.33333333333333</ele><time>2026-05-01T08:57:19.675Z</time></trkpt><trkpt lat="41.118605" lon="9.47793"><ele>75.0</ele><time>2026-05-01T08:57:35.675Z</time></trkpt><trkpt lat="41.118615" lon="9.4778367"><ele>73.66666666666667</ele><time>2026-05-01T08:57:37.675Z</time></trkpt><trkpt lat="41.118595" lon="9.4777483"><ele>72.33333333333334</ele><time>2026-05-01T08:57:39.675Z</time></trkpt><trkpt lat="41.1186083" lon="9.4778583"><ele>71.0</ele><time>2026-05-01T08:57:45.675Z</time></trkpt><trkpt lat="41.1185933" lon="9.4779417"><ele>71.0</ele><time>2026-05-01T08:57:46.675Z</time></trkpt><trkpt lat="41.118535" lon="9.4780783"><ele>71.0</ele><time>2026-05-01T08:57:48.675Z</time></trkpt><trkpt lat="41.11848" lon="9.4781283"><ele>71.0</ele><time>2026-05-01T08:57:49.675Z</time></trkpt><trkpt lat="41.11842" lon="9.47817"><ele>71.0</ele><time>2026-05-01T08:57:50.675Z</time></trkpt><trkpt lat="41.1183583" lon="9.4782067"><ele>71.0</ele><time>2026-05-01T08:57:51.675Z</time></trkpt><trkpt lat="41.1182783" lon="9.478225"><ele>71.0</ele><time>2026-05-01T08:57:52.675Z</time></trkpt><trkpt lat="41.1181933" lon="9.4782383"><ele>72.6</ele><time>2026-05-01T08:57:53.676Z</time></trkpt><trkpt lat="41.118105" lon="9.4782733"><ele>74.19999999999999</ele><time>2026-05-01T08:57:54.675Z</time></trkpt><trkpt lat="41.1180283" lon="9.4783067"><ele>75.80000000000001</ele><time>2026-05-01T08:57:55.675Z</time></trkpt><trkpt lat="41.1179317" lon="9.4783667"><ele>77.4</ele><time>2026-05-01T08:57:56.675Z</time></trkpt><trkpt lat="41.1178567" lon="9.478435"><ele>79.0</ele><time>2026-05-01T08:57:57.675Z</time></trkpt><trkpt lat="41.1177733" lon="9.47852"><ele>79.0</ele><time>2026-05-01T08:57:58.675Z</time></trkpt><trkpt lat="41.11769" lon="9.47863"><ele>79.0</ele><time>2026-05-01T08:57:59.675Z</time></trkpt><trkpt lat="41.1176233" lon="9.4787667"><ele>79.0</ele><time>2026-05-01T08:58:00.675Z</time></trkpt><trkpt lat="41.1175617" lon="9.478915"><ele>79.0</ele><time>2026-05-01T08:58:01.675Z</time></trkpt><trkpt lat="41.117485" lon="9.4790583"><ele>80.80000000000001</ele><time>2026-05-01T08:58:02.675Z</time></trkpt><trkpt lat="41.1174433" lon="9.4791967"><ele>82.60000000000001</ele><time>2026-05-01T08:58:03.675Z</time></trkpt><trkpt lat="41.11741" lon="9.4793317"><ele>84.4</ele><time>2026-05-01T08:58:04.675Z</time></trkpt><trkpt lat="41.1173867" lon="9.4794717"><ele>86.2</ele><time>2026-05-01T08:58:05.675Z</time></trkpt><trkpt lat="41.1173533" lon="9.47959"><ele>88.0</ele><time>2026-05-01T08:58:06.675Z</time></trkpt><trkpt lat="41.1173167" lon="9.4796967"><ele>90.60000000000001</ele><time>2026-05-01T08:58:07.675Z</time></trkpt><trkpt lat="41.11728" lon="9.479805"><ele>93.2</ele><time>2026-05-01T08:58:08.675Z</time></trkpt><trkpt lat="41.11724" lon="9.4798867"><ele>95.8</ele><time>2026-05-01T08:58:09.675Z</time></trkpt><trkpt lat="41.1172" lon="9.4800417"><ele>98.4</ele><time>2026-05-01T08:58:11.675Z</time></trkpt><trkpt lat="41.1171517" lon="9.480125"><ele>101.0</ele><time>2026-05-01T08:58:12.675Z</time></trkpt><trkpt lat="41.1170933" lon="9.480215"><ele>100.99999999999999</ele><time>2026-05-01T08:58:13.675Z</time></trkpt><trkpt lat="41.117045" lon="9.4803167"><ele>101.0</ele><time>2026-05-01T08:58:14.675Z</time></trkpt><trkpt lat="41.1169983" lon="9.4803983"><ele>101.0</ele><time>2026-05-01T08:58:15.675Z</time></trkpt><trkpt lat="41.1169433" lon="9.4804783"><ele>101.0</ele><time>2026-05-01T08:58:16.675Z</time></trkpt><trkpt lat="41.1168983" lon="9.4805583"><ele>100.99999999999999</ele><time>2026-05-01T08:58:17.675Z</time></trkpt><trkpt lat="41.1168483" lon="9.480615"><ele>101.0</ele><time>2026-05-01T08:58:18.676Z</time></trkpt><trkpt lat="41.1167133" lon="9.48064"><ele>101.99999999999999</ele><time>2026-05-01T08:58:20.675Z</time></trkpt><trkpt lat="41.116605" lon="9.4807167"><ele>103.0</ele><time>2026-05-01T08:58:22.675Z</time></trkpt><trkpt lat="41.1165517" lon="9.480785"><ele>104.0</ele><time>2026-05-01T08:58:23.675Z</time></trkpt><trkpt lat="41.1164933" lon="9.4808733"><ele>105.0</ele><time>2026-05-01T08:58:24.675Z</time></trkpt><trkpt lat="41.1164417" lon="9.48095"><ele>105.99999999999999</ele><time>2026-05-01T08:58:25.675Z</time></trkpt><trkpt lat="41.1163933" lon="9.4810333"><ele>107.0</ele><time>2026-05-01T08:58:26.675Z</time></trkpt><trkpt lat="41.1163483" lon="9.4811167"><ele>107.33333333333333</ele><time>2026-05-01T08:58:27.675Z</time></trkpt><trkpt lat="41.11627" lon="9.4812283"><ele>107.66666666666666</ele><time>2026-05-01T08:58:29.675Z</time></trkpt><trkpt lat="41.1162267" lon="9.4812917"><ele>108.0</ele><time>2026-05-01T08:58:30.675Z</time></trkpt><trkpt lat="41.116175" lon="9.4813617"><ele>108.33333333333334</ele><time>2026-05-01T08:58:31.675Z</time></trkpt><trkpt lat="41.116145" lon="9.4814367"><ele>108.66666666666667</ele><time>2026-05-01T08:58:32.675Z</time></trkpt><trkpt lat="41.1161233" lon="9.4815167"><ele>109.0</ele><time>2026-05-01T08:58:33.675Z</time></trkpt><trkpt lat="41.1160967" lon="9.48165"><ele>107.50000000000001</ele><time>2026-05-01T08:58:35.675Z</time></trkpt><trkpt lat="41.116155" lon="9.481735"><ele>106.0</ele><time>2026-05-01T08:58:37.675Z</time></trkpt><trkpt lat="41.1162267" lon="9.4817717"><ele>104.5</ele><time>2026-05-01T08:58:38.675Z</time></trkpt><trkpt lat="41.1163017" lon="9.4818133"><ele>103.0</ele><time>2026-05-01T08:58:39.675Z</time></trkpt><trkpt lat="41.1163933" lon="9.4818767"><ele>101.50000000000001</ele><time>2026-05-01T08:58:40.675Z</time></trkpt><trkpt lat="41.11646" lon="9.4819583"><ele>100.0</ele><time>2026-05-01T08:58:41.675Z</time></trkpt><trkpt lat="41.116535" lon="9.4820433"><ele>98.00000000000001</ele><time>2026-05-01T08:58:42.675Z</time></trkpt><trkpt lat="41.1165767" lon="9.4821167"><ele>96.0</ele><time>2026-05-01T08:58:43.675Z</time></trkpt><trkpt lat="41.1166267" lon="9.482185"><ele>94.0</ele><time>2026-05-01T08:58:44.675Z</time></trkpt><trkpt lat="41.1166683" lon="9.4822583"><ele>92.0</ele><time>2026-05-01T08:58:45.675Z</time></trkpt><trkpt lat="41.116745" lon="9.4823283"><ele>90.0</ele><time>2026-05-01T08:58:46.675Z</time></trkpt><trkpt lat="41.116805" lon="9.482415"><ele>88.0</ele><time>2026-05-01T08:58:47.675Z</time></trkpt><trkpt lat="41.1168717" lon="9.482505"><ele>88.0</ele><time>2026-05-01T08:58:48.675Z</time></trkpt><trkpt lat="41.1169317" lon="9.4825783"><ele>88.0</ele><time>2026-05-01T08:58:49.675Z</time></trkpt><trkpt lat="41.1169867" lon="9.4826567"><ele>88.0</ele><time>2026-05-01T08:58:50.675Z</time></trkpt><trkpt lat="41.1170383" lon="9.4827367"><ele>88.0</ele><time>2026-05-01T08:58:51.675Z</time></trkpt><trkpt lat="41.11709" lon="9.4828567"><ele>88.0</ele><time>2026-05-01T08:58:53.675Z</time></trkpt><trkpt lat="41.1170633" lon="9.48294"><ele>88.0</ele><time>2026-05-01T08:58:55.675Z</time></trkpt><trkpt lat="41.116995" lon="9.48289"><ele>87.85714285714286</ele><time>2026-05-01T08:59:42.675Z</time></trkpt><trkpt lat="41.1169883" lon="9.4829867"><ele>87.71428571428571</ele><time>2026-05-01T09:00:04.674Z</time></trkpt><trkpt lat="41.11694" lon="9.483095"><ele>87.57142857142857</ele><time>2026-05-01T09:00:06.674Z</time></trkpt><trkpt lat="41.116905" lon="9.4831683"><ele>87.42857142857143</ele><time>2026-05-01T09:00:07.674Z</time></trkpt><trkpt lat="41.11688" lon="9.4832533"><ele>87.28571428571429</ele><time>2026-05-01T09:00:08.674Z</time></trkpt><trkpt lat="41.11687" lon="9.483345"><ele>87.14285714285714</ele><time>2026-05-01T09:00:09.674Z</time></trkpt><trkpt lat="41.1168467" lon="9.4834267"><ele>87.0</ele><time>2026-05-01T09:00:10.674Z</time></trkpt><trkpt lat="41.1168283" lon="9.4835117"><ele>87.0</ele><time>2026-05-01T09:00:11.674Z</time></trkpt><trkpt lat="41.1167967" lon="9.4835983"><ele>87.0</ele><time>2026-05-01T09:00:12.674Z</time></trkpt><trkpt lat="41.1167483" lon="9.4836817"><ele>87.0</ele><time>2026-05-01T09:00:13.674Z</time></trkpt><trkpt lat="41.1166933" lon="9.4837633"><ele>87.0</ele><time>2026-05-01T09:00:14.674Z</time></trkpt><trkpt lat="41.11662" lon="9.4838367"><ele>87.0</ele><time>2026-05-01T09:00:15.674Z</time></trkpt><trkpt lat="41.1165433" lon="9.4838717"><ele>87.0</ele><time>2026-05-01T09:00:16.674Z</time></trkpt><trkpt lat="41.1164117" lon="9.4839517"><ele>88.0</ele><time>2026-05-01T09:00:18.674Z</time></trkpt><trkpt lat="41.11636" lon="9.4840167"><ele>89.0</ele><time>2026-05-01T09:00:19.674Z</time></trkpt><trkpt lat="41.1163133" lon="9.4840867"><ele>90.0</ele><time>2026-05-01T09:00:20.675Z</time></trkpt><trkpt lat="41.1162583" lon="9.4841533"><ele>91.0</ele><time>2026-05-01T09:00:21.674Z</time></trkpt><trkpt lat="41.1162" lon="9.4841917"><ele>92.0</ele><time>2026-05-01T09:00:22.674Z</time></trkpt><trkpt lat="41.116125" lon="9.4842267"><ele>93.0</ele><time>2026-05-01T09:00:24.674Z</time></trkpt><trkpt lat="41.1160283" lon="9.4841833"><ele>93.0</ele><time>2026-05-01T09:00:26.674Z</time></trkpt><trkpt lat="41.1159383" lon="9.4842033"><ele>93.0</ele><time>2026-05-01T09:00:28.674Z</time></trkpt><trkpt lat="41.1158767" lon="9.4842583"><ele>93.0</ele><time>2026-05-01T09:00:29.674Z</time></trkpt><trkpt lat="41.1158067" lon="9.484305"><ele>93.0</ele><time>2026-05-01T09:00:30.674Z</time></trkpt><trkpt lat="41.115735" lon="9.4843517"><ele>93.0</ele><time>2026-05-01T09:00:31.674Z</time></trkpt><trkpt lat="41.1156733" lon="9.484395"><ele>93.0</ele><time>2026-05-01T09:00:32.674Z</time></trkpt><trkpt lat="41.1156217" lon="9.4844483"><ele>93.57142857142858</ele><time>2026-05-01T09:00:33.675Z</time></trkpt><trkpt lat="41.1155583" lon="9.484495"><ele>94.14285714285714</ele><time>2026-05-01T09:00:34.674Z</time></trkpt><trkpt lat="41.115495" lon="9.48454"><ele>94.71428571428572</ele><time>2026-05-01T09:00:35.674Z</time></trkpt><trkpt lat="41.1154233" lon="9.4845883"><ele>95.28571428571429</ele><time>2026-05-01T09:00:36.675Z</time></trkpt><trkpt lat="41.1153517" lon="9.4846283"><ele>95.85714285714286</ele><time>2026-05-01T09:00:37.674Z</time></trkpt><trkpt lat="41.1152783" lon="9.484665"><ele>96.42857142857143</ele><time>2026-05-01T09:00:38.674Z</time></trkpt><trkpt lat="41.1152183" lon="9.4847033"><ele>97.0</ele><time>2026-05-01T09:00:39.674Z</time></trkpt><trkpt lat="41.1151383" lon="9.484755"><ele>97.0</ele><time>2026-05-01T09:00:41.674Z</time></trkpt><trkpt lat="41.1150633" lon="9.4847667"><ele>97.0</ele><time>2026-05-01T09:00:44.674Z</time></trkpt><trkpt lat="41.1151733" lon="9.4846717"><ele>97.0</ele><time>2026-05-01T09:01:06.674Z</time></trkpt><trkpt lat="41.1152733" lon="9.4846217"><ele>97.0</ele><time>2026-05-01T09:01:08.674Z</time></trkpt><trkpt lat="41.1153367" lon="9.4845883"><ele>97.0</ele><time>2026-05-01T09:01:09.674Z</time></trkpt><trkpt lat="41.115405" lon="9.4845417"><ele>97.0</ele><time>2026-05-01T09:01:10.674Z</time></trkpt><trkpt lat="41.115475" lon="9.4844817"><ele>97.0</ele><time>2026-05-01T09:01:11.674Z</time></trkpt><trkpt lat="41.11555" lon="9.4844167"><ele>97.0</ele><time>2026-05-01T09:01:12.674Z</time></trkpt><trkpt lat="41.11563" lon="9.4843517"><ele>97.0</ele><time>2026-05-01T09:01:13.674Z</time></trkpt><trkpt lat="41.1157183" lon="9.484275"><ele>97.0</ele><time>2026-05-01T09:01:14.674Z</time></trkpt><trkpt lat="41.1157967" lon="9.48421"><ele>96.33333333333334</ele><time>2026-05-01T09:01:15.674Z</time></trkpt><trkpt lat="41.1158767" lon="9.4841517"><ele>95.66666666666667</ele><time>2026-05-01T09:01:16.674Z</time></trkpt><trkpt lat="41.1159483" lon="9.4841183"><ele>95.0</ele><time>2026-05-01T09:01:17.674Z</time></trkpt><trkpt lat="41.1160333" lon="9.484095"><ele>94.33333333333334</ele><time>2026-05-01T09:01:18.674Z</time></trkpt><trkpt lat="41.116105" lon="9.4840917"><ele>93.66666666666667</ele><time>2026-05-01T09:01:19.674Z</time></trkpt><trkpt lat="41.1161733" lon="9.4840817"><ele>93.0</ele><time>2026-05-01T09:01:20.674Z</time></trkpt><trkpt lat="41.11629" lon="9.48408"><ele>93.0</ele><time>2026-05-01T09:01:22.674Z</time></trkpt><trkpt lat="41.116385" lon="9.4840283"><ele>93.0</ele><time>2026-05-01T09:01:24.674Z</time></trkpt><trkpt lat="41.1164167" lon="9.4839033"><ele>93.0</ele><time>2026-05-01T09:01:26.674Z</time></trkpt><trkpt lat="41.1164467" lon="9.4838067"><ele>93.0</ele><time>2026-05-01T09:01:28.674Z</time></trkpt><trkpt lat="41.1164967" lon="9.4837433"><ele>93.0</ele><time>2026-05-01T09:01:30.674Z</time></trkpt><trkpt lat="41.1165667" lon="9.4836383"><ele>91.80000000000001</ele><time>2026-05-01T09:01:32.674Z</time></trkpt><trkpt lat="41.116615" lon="9.4835517"><ele>90.6</ele><time>2026-05-01T09:01:33.674Z</time></trkpt><trkpt lat="41.11666" lon="9.4834683"><ele>89.4</ele><time>2026-05-01T09:01:34.674Z</time></trkpt><trkpt lat="41.1167167" lon="9.48335"><ele>88.19999999999999</ele><time>2026-05-01T09:01:36.674Z</time></trkpt><trkpt lat="41.116795" lon="9.483295"><ele>87.0</ele><time>2026-05-01T09:09:39.673Z</time></trkpt><trkpt lat="41.11685" lon="9.48315"><ele>87.0</ele><time>2026-05-01T09:09:41.673Z</time></trkpt><trkpt lat="41.116895" lon="9.4830767"><ele>87.0</ele><time>2026-05-01T09:09:42.673Z</time></trkpt><trkpt lat="41.11695" lon="9.4830217"><ele>87.0</ele><time>2026-05-01T09:09:43.673Z</time></trkpt><trkpt lat="41.1170033" lon="9.4829667"><ele>87.0</ele><time>2026-05-01T09:09:44.673Z</time></trkpt><trkpt lat="41.1170533" lon="9.482915"><ele>87.0</ele><time>2026-05-01T09:09:45.673Z</time></trkpt><trkpt lat="41.1171433" lon="9.48282"><ele>87.0</ele><time>2026-05-01T09:09:47.673Z</time></trkpt><trkpt lat="41.1171567" lon="9.4826667"><ele>87.16666666666667</ele><time>2026-05-01T09:09:49.673Z</time></trkpt><trkpt lat="41.11713" lon="9.4825783"><ele>87.33333333333333</ele><time>2026-05-01T09:09:50.673Z</time></trkpt><trkpt lat="41.1170733" lon="9.4824817"><ele>87.5</ele><time>2026-05-01T09:09:51.673Z</time></trkpt><trkpt lat="41.117015" lon="9.482395"><ele>87.66666666666666</ele><time>2026-05-01T09:09:52.673Z</time></trkpt><trkpt lat="41.116955" lon="9.4823033"><ele>87.83333333333333</ele><time>2026-05-01T09:09:53.673Z</time></trkpt><trkpt lat="41.1168983" lon="9.4822133"><ele>88.0</ele><time>2026-05-01T09:09:54.673Z</time></trkpt><trkpt lat="41.1168433" lon="9.48212"><ele>89.60000000000001</ele><time>2026-05-01T09:09:55.673Z</time></trkpt><trkpt lat="41.1167783" lon="9.48201"><ele>91.2</ele><time>2026-05-01T09:09:56.673Z</time></trkpt><trkpt lat="41.1167133" lon="9.48191"><ele>92.8</ele><time>2026-05-01T09:09:57.673Z</time></trkpt><trkpt lat="41.1166433" lon="9.4818233"><ele>94.4</ele><time>2026-05-01T09:09:58.673Z</time></trkpt><trkpt lat="41.1165717" lon="9.481745"><ele>96.0</ele><time>2026-05-01T09:09:59.673Z</time></trkpt><trkpt lat="41.1164817" lon="9.4816667"><ele>96.66666666666667</ele><time>2026-05-01T09:10:00.673Z</time></trkpt><trkpt lat="41.1164033" lon="9.4816017"><ele>97.33333333333334</ele><time>2026-05-01T09:10:01.673Z</time></trkpt><trkpt lat="41.1163333" lon="9.4815467"><ele>98.0</ele><time>2026-05-01T09:10:02.673Z</time></trkpt><trkpt lat="41.1162767" lon="9.4814833"><ele>98.66666666666667</ele><time>2026-05-01T09:10:03.673Z</time></trkpt><trkpt lat="41.1162167" lon="9.481365"><ele>99.33333333333334</ele><time>2026-05-01T09:10:05.674Z</time></trkpt><trkpt lat="41.1162283" lon="9.4812717"><ele>100.0</ele><time>2026-05-01T09:10:07.673Z</time></trkpt><trkpt lat="41.116275" lon="9.4811867"><ele>101.4</ele><time>2026-05-01T09:10:09.673Z</time></trkpt><trkpt lat="41.1163583" lon="9.4810417"><ele>102.8</ele><time>2026-05-01T09:10:11.673Z</time></trkpt><trkpt lat="41.1164217" lon="9.48094"><ele>104.19999999999999</ele><time>2026-05-01T09:10:12.673Z</time></trkpt><trkpt lat="41.116485" lon="9.48083"><ele>105.6</ele><time>2026-05-01T09:10:13.673Z</time></trkpt><trkpt lat="41.1165517" lon="9.4807283"><ele>107.0</ele><time>2026-05-01T09:10:14.673Z</time></trkpt><trkpt lat="41.1166167" lon="9.4806317"><ele>107.0</ele><time>2026-05-01T09:10:15.673Z</time></trkpt><trkpt lat="41.11667" lon="9.4805483"><ele>106.99999999999999</ele><time>2026-05-01T09:10:16.673Z</time></trkpt><trkpt lat="41.1167233" lon="9.4804667"><ele>106.99999999999999</ele><time>2026-05-01T09:10:17.673Z</time></trkpt><trkpt lat="41.1167967" lon="9.4804233"><ele>107.0</ele><time>2026-05-01T09:10:18.673Z</time></trkpt><trkpt lat="41.1169167" lon="9.4803567"><ele>107.0</ele><time>2026-05-01T09:10:20.673Z</time></trkpt><trkpt lat="41.116995" lon="9.480325"><ele>105.99999999999999</ele><time>2026-05-01T09:10:21.673Z</time></trkpt><trkpt lat="41.117085" lon="9.480295"><ele>105.0</ele><time>2026-05-01T09:10:22.673Z</time></trkpt><trkpt lat="41.117165" lon="9.4802567"><ele>104.0</ele><time>2026-05-01T09:10:23.673Z</time></trkpt><trkpt lat="41.1172467" lon="9.4802117"><ele>103.0</ele><time>2026-05-01T09:10:24.673Z</time></trkpt><trkpt lat="41.1173067" lon="9.4801483"><ele>101.99999999999999</ele><time>2026-05-01T09:10:25.673Z</time></trkpt><trkpt lat="41.1173733" lon="9.4800717"><ele>101.0</ele><time>2026-05-01T09:10:26.673Z</time></trkpt><trkpt lat="41.1174283" lon="9.4799967"><ele>100.49999999999999</ele><time>2026-05-01T09:10:27.673Z</time></trkpt><trkpt lat="41.1174817" lon="9.4799317"><ele>100.0</ele><time>2026-05-01T09:10:28.673Z</time></trkpt><trkpt lat="41.117535" lon="9.4798533"><ele>99.5</ele><time>2026-05-01T09:10:29.673Z</time></trkpt><trkpt lat="41.1175917" lon="9.4797667"><ele>99.0</ele><time>2026-05-01T09:10:30.673Z</time></trkpt><trkpt lat="41.1176433" lon="9.47967"><ele>98.49999999999999</ele><time>2026-05-01T09:10:31.673Z</time></trkpt><trkpt lat="41.1176817" lon="9.4795667"><ele>98.0</ele><time>2026-05-01T09:10:32.673Z</time></trkpt><trkpt lat="41.1177133" lon="9.47947"><ele>96.49999999999999</ele><time>2026-05-01T09:10:33.673Z</time></trkpt><trkpt lat="41.1177333" lon="9.47937"><ele>95.0</ele><time>2026-05-01T09:10:34.673Z</time></trkpt><trkpt lat="41.1177583" lon="9.4792483"><ele>93.5</ele><time>2026-05-01T09:10:35.673Z</time></trkpt><trkpt lat="41.1177517" lon="9.4791283"><ele>92.0</ele><time>2026-05-01T09:10:36.673Z</time></trkpt><trkpt lat="41.1177283" lon="9.4790083"><ele>90.5</ele><time>2026-05-01T09:10:37.673Z</time></trkpt><trkpt lat="41.117745" lon="9.4788967"><ele>89.0</ele><time>2026-05-01T09:10:38.673Z</time></trkpt><trkpt lat="41.1177617" lon="9.4787833"><ele>87.33333333333334</ele><time>2026-05-01T09:10:39.673Z</time></trkpt><trkpt lat="41.1177767" lon="9.4786933"><ele>85.66666666666667</ele><time>2026-05-01T09:10:40.673Z</time></trkpt><trkpt lat="41.1177933" lon="9.4785983"><ele>84.0</ele><time>2026-05-01T09:10:41.673Z</time></trkpt><trkpt lat="41.1178067" lon="9.4785067"><ele>82.33333333333333</ele><time>2026-05-01T09:10:42.673Z</time></trkpt><trkpt lat="41.1178317" lon="9.4783617"><ele>80.66666666666666</ele><time>2026-05-01T09:10:44.673Z</time></trkpt><trkpt lat="41.11786" lon="9.4782617"><ele>79.0</ele><time>2026-05-01T09:10:46.673Z</time></trkpt><trkpt lat="41.1179567" lon="9.47822"><ele>79.0</ele><time>2026-05-01T09:10:48.673Z</time></trkpt><trkpt lat="41.1180483" lon="9.47819"><ele>79.0</ele><time>2026-05-01T09:10:49.673Z</time></trkpt><trkpt lat="41.1181467" lon="9.4781783"><ele>79.0</ele><time>2026-05-01T09:10:50.673Z</time></trkpt><trkpt lat="41.1182333" lon="9.478165"><ele>79.0</ele><time>2026-05-01T09:10:51.673Z</time></trkpt><trkpt lat="41.1183233" lon="9.4781517"><ele>79.0</ele><time>2026-05-01T09:10:52.673Z</time></trkpt><trkpt lat="41.1184217" lon="9.478125"><ele>77.66666666666666</ele><time>2026-05-01T09:10:53.673Z</time></trkpt><trkpt lat="41.1185383" lon="9.478065"><ele>76.33333333333333</ele><time>2026-05-01T09:10:55.672Z</time></trkpt><trkpt lat="41.1185933" lon="9.47801"><ele>75.0</ele><time>2026-05-01T09:10:56.672Z</time></trkpt><trkpt lat="41.118645" lon="9.47794"><ele>73.66666666666667</ele><time>2026-05-01T09:10:57.672Z</time></trkpt><trkpt lat="41.1187033" lon="9.4778583"><ele>72.33333333333334</ele><time>2026-05-01T09:10:58.672Z</time></trkpt><trkpt lat="41.118745" lon="9.47775"><ele>71.0</ele><time>2026-05-01T09:10:59.672Z</time></trkpt><trkpt lat="41.1187733" lon="9.4776217"><ele>71.0</ele><time>2026-05-01T09:11:00.672Z</time></trkpt><trkpt lat="41.118785" lon="9.477495"><ele>71.0</ele><time>2026-05-01T09:11:01.672Z</time></trkpt><trkpt lat="41.1188033" lon="9.4773667"><ele>71.0</ele><time>2026-05-01T09:11:02.672Z</time></trkpt><trkpt lat="41.1188217" lon="9.4772367"><ele>71.0</ele><time>2026-05-01T09:11:03.672Z</time></trkpt><trkpt lat="41.1188483" lon="9.4771117"><ele>71.0</ele><time>2026-05-01T09:11:04.673Z</time></trkpt><trkpt lat="41.1188733" lon="9.4769917"><ele>69.5</ele><time>2026-05-01T09:11:05.672Z</time></trkpt><trkpt lat="41.1189083" lon="9.476895"><ele>68.0</ele><time>2026-05-01T09:11:06.672Z</time></trkpt><trkpt lat="41.1189433" lon="9.47682"><ele>66.5</ele><time>2026-05-01T09:11:07.672Z</time></trkpt><trkpt lat="41.1190067" lon="9.4767317"><ele>65.0</ele><time>2026-05-01T09:11:08.672Z</time></trkpt><trkpt lat="41.1190567" lon="9.4766567"><ele>63.50000000000001</ele><time>2026-05-01T09:11:09.672Z</time></trkpt><trkpt lat="41.1190917" lon="9.4765767"><ele>62.0</ele><time>2026-05-01T09:11:10.672Z</time></trkpt><trkpt lat="41.11911" lon="9.4764867"><ele>59.16666666666667</ele><time>2026-05-01T09:11:11.672Z</time></trkpt><trkpt lat="41.119125" lon="9.47638"><ele>56.333333333333336</ele><time>2026-05-01T09:11:12.672Z</time></trkpt><trkpt lat="41.1191317" lon="9.47627"><ele>53.5</ele><time>2026-05-01T09:11:13.672Z</time></trkpt><trkpt lat="41.11914" lon="9.47616"><ele>50.66666666666667</ele><time>2026-05-01T09:11:14.672Z</time></trkpt><trkpt lat="41.1191533" lon="9.4760367"><ele>47.833333333333336</ele><time>2026-05-01T09:11:15.672Z</time></trkpt><trkpt lat="41.1191683" lon="9.4759183"><ele>45.0</ele><time>2026-05-01T09:11:16.672Z</time></trkpt><trkpt lat="41.1191883" lon="9.4758317"><ele>45.0</ele><time>2026-05-01T09:11:17.672Z</time></trkpt><trkpt lat="41.1192133" lon="9.475745"><ele>45.0</ele><time>2026-05-01T09:11:18.672Z</time></trkpt><trkpt lat="41.1192467" lon="9.4756517"><ele>45.0</ele><time>2026-05-01T09:11:19.672Z</time></trkpt><trkpt lat="41.11929" lon="9.4755383"><ele>45.0</ele><time>2026-05-01T09:11:20.672Z</time></trkpt><trkpt lat="41.11934" lon="9.4754067"><ele>45.0</ele><time>2026-05-01T09:11:21.672Z</time></trkpt><trkpt lat="41.1193767" lon="9.4752533"><ele>44.0</ele><time>2026-05-01T09:11:22.672Z</time></trkpt><trkpt lat="41.1194567" lon="9.475045"><ele>43.0</ele><time>2026-05-01T09:11:23.672Z</time></trkpt><trkpt lat="41.11948" lon="9.4748917"><ele>42.0</ele><time>2026-05-01T09:11:24.672Z</time></trkpt><trkpt lat="41.119515" lon="9.4747283"><ele>41.0</ele><time>2026-05-01T09:11:25.672Z</time></trkpt><trkpt lat="41.1195583" lon="9.474585"><ele>39.8</ele><time>2026-05-01T09:11:26.672Z</time></trkpt><trkpt lat="41.1196217" lon="9.4744667"><ele>38.599999999999994</ele><time>2026-05-01T09:11:27.672Z</time></trkpt><trkpt lat="41.11967" lon="9.47437"><ele>37.4</ele><time>2026-05-01T09:11:28.672Z</time></trkpt><trkpt lat="41.11973" lon="9.474295"><ele>36.2</ele><time>2026-05-01T09:11:29.672Z</time></trkpt><trkpt lat="41.1198133" lon="9.4742183"><ele>35.0</ele><time>2026-05-01T09:11:30.672Z</time></trkpt><trkpt lat="41.1199" lon="9.4741417"><ele>34.0</ele><time>2026-05-01T09:11:31.672Z</time></trkpt><trkpt lat="41.11998" lon="9.4740833"><ele>33.0</ele><time>2026-05-01T09:11:32.672Z</time></trkpt><trkpt lat="41.12006" lon="9.4740133"><ele>32.0</ele><time>2026-05-01T09:11:33.672Z</time></trkpt><trkpt lat="41.1201317" lon="9.47393"><ele>31.0</ele><time>2026-05-01T09:11:34.672Z</time></trkpt><trkpt lat="41.12019" lon="9.4738533"><ele>29.999999999999996</ele><time>2026-05-01T09:11:35.672Z</time></trkpt><trkpt lat="41.1202467" lon="9.4737817"><ele>29.0</ele><time>2026-05-01T09:11:36.672Z</time></trkpt><trkpt lat="41.1202883" lon="9.4736817"><ele>27.833333333333332</ele><time>2026-05-01T09:11:37.672Z</time></trkpt><trkpt lat="41.1203233" lon="9.47357"><ele>26.666666666666664</ele><time>2026-05-01T09:11:38.672Z</time></trkpt><trkpt lat="41.1203467" lon="9.4734683"><ele>25.5</ele><time>2026-05-01T09:11:39.672Z</time></trkpt><trkpt lat="41.1203667" lon="9.473365"><ele>24.333333333333332</ele><time>2026-05-01T09:11:40.672Z</time></trkpt><trkpt lat="41.1203667" lon="9.4732383"><ele>23.166666666666664</ele><time>2026-05-01T09:11:42.673Z</time></trkpt><trkpt lat="41.1203083" lon="9.4731817"><ele>22.0</ele><time>2026-05-01T09:11:45.672Z</time></trkpt><trkpt lat="41.1202583" lon="9.4731267"><ele>22.0</ele><time>2026-05-01T09:11:48.672Z</time></trkpt><trkpt lat="41.1201433" lon="9.47306"><ele>22.0</ele><time>2026-05-01T09:11:50.672Z</time></trkpt><trkpt lat="41.1200367" lon="9.4730367"><ele>22.0</ele><time>2026-05-01T09:11:51.672Z</time></trkpt><trkpt lat="41.1199183" lon="9.4730117"><ele>22.0</ele><time>2026-05-01T09:11:52.672Z</time></trkpt><trkpt lat="41.1197983" lon="9.4729717"><ele>22.0</ele><time>2026-05-01T09:11:53.672Z</time></trkpt><trkpt lat="41.119695" lon="9.472915"><ele>22.0</ele><time>2026-05-01T09:11:54.672Z</time></trkpt><trkpt lat="41.1195683" lon="9.47286"><ele>22.0</ele><time>2026-05-01T09:11:55.672Z</time></trkpt><trkpt lat="41.1194183" lon="9.47282"><ele>22.0</ele><time>2026-05-01T09:11:56.672Z</time></trkpt><trkpt lat="41.1192717" lon="9.4727633"><ele>22.0</ele><time>2026-05-01T09:11:57.672Z</time></trkpt><trkpt lat="41.1191267" lon="9.4727117"><ele>22.0</ele><time>2026-05-01T09:11:58.672Z</time></trkpt><trkpt lat="41.1189867" lon="9.472625"><ele>22.0</ele><time>2026-05-01T09:11:59.672Z</time></trkpt><trkpt lat="41.1188417" lon="9.472525"><ele>24.333333333333332</ele><time>2026-05-01T09:12:00.672Z</time></trkpt><trkpt lat="41.1187217" lon="9.4723983"><ele>26.666666666666664</ele><time>2026-05-01T09:12:01.672Z</time></trkpt><trkpt lat="41.11857" lon="9.4722883"><ele>29.0</ele><time>2026-05-01T09:12:02.672Z</time></trkpt><trkpt lat="41.1184417" lon="9.4721683"><ele>28.0</ele><time>2026-05-01T09:12:03.672Z</time></trkpt><trkpt lat="41.1183133" lon="9.47205"><ele>27.0</ele><time>2026-05-01T09:12:04.672Z</time></trkpt><trkpt lat="41.1181867" lon="9.4719383"><ele>26.0</ele><time>2026-05-01T09:12:05.672Z</time></trkpt><trkpt lat="41.1180567" lon="9.4718317"><ele>26.0</ele><time>2026-05-01T09:12:06.672Z</time></trkpt><trkpt lat="41.1179217" lon="9.47173"><ele>26.0</ele><time>2026-05-01T09:12:07.672Z</time></trkpt><trkpt lat="41.1177917" lon="9.4716317"><ele>26.0</ele><time>2026-05-01T09:12:08.672Z</time></trkpt><trkpt lat="41.1176533" lon="9.47153"><ele>26.0</ele><time>2026-05-01T09:12:09.672Z</time></trkpt><trkpt lat="41.1175183" lon="9.47143"><ele>26.0</ele><time>2026-05-01T09:12:10.672Z</time></trkpt><trkpt lat="41.11736" lon="9.4713517"><ele>26.0</ele><time>2026-05-01T09:12:11.672Z</time></trkpt><trkpt lat="41.117235" lon="9.4712533"><ele>24.5</ele><time>2026-05-01T09:12:12.672Z</time></trkpt><trkpt lat="41.117105" lon="9.4711667"><ele>23.0</ele><time>2026-05-01T09:12:13.672Z</time></trkpt><trkpt lat="41.116975" lon="9.4710817"><ele>21.5</ele><time>2026-05-01T09:12:14.672Z</time></trkpt><trkpt lat="41.116835" lon="9.4709817"><ele>20.0</ele><time>2026-05-01T09:12:15.672Z</time></trkpt><trkpt lat="41.1167033" lon="9.4708933"><ele>19.666666666666668</ele><time>2026-05-01T09:12:16.672Z</time></trkpt><trkpt lat="41.1165483" lon="9.4708067"><ele>19.333333333333332</ele><time>2026-05-01T09:12:17.672Z</time></trkpt><trkpt lat="41.116415" lon="9.4707267"><ele>19.0</ele><time>2026-05-01T09:12:18.672Z</time></trkpt><trkpt lat="41.116275" lon="9.4706317"><ele>19.0</ele><time>2026-05-01T09:12:19.672Z</time></trkpt><trkpt lat="41.1161317" lon="9.470545"><ele>19.0</ele><time>2026-05-01T09:12:20.672Z</time></trkpt><trkpt lat="41.1160017" lon="9.4704567"><ele>19.0</ele><time>2026-05-01T09:12:21.672Z</time></trkpt><trkpt lat="41.1158817" lon="9.4703817"><ele>19.0</ele><time>2026-05-01T09:12:22.672Z</time></trkpt><trkpt lat="41.1157783" lon="9.4702933"><ele>18.8</ele><time>2026-05-01T09:12:23.672Z</time></trkpt><trkpt lat="41.1156967" lon="9.47021"><ele>18.599999999999998</ele><time>2026-05-01T09:12:24.672Z</time></trkpt><trkpt lat="41.115625" lon="9.4701267"><ele>18.4</ele><time>2026-05-01T09:12:25.672Z</time></trkpt><trkpt lat="41.1155583" lon="9.4700417"><ele>18.2</ele><time>2026-05-01T09:12:26.672Z</time></trkpt><trkpt lat="41.11548" lon="9.4699667"><ele>18.0</ele><time>2026-05-01T09:12:27.672Z</time></trkpt><trkpt lat="41.1153917" lon="9.469915"><ele>18.0</ele><time>2026-05-01T09:12:28.672Z</time></trkpt><trkpt lat="41.1152917" lon="9.4698783"><ele>18.0</ele><time>2026-05-01T09:12:29.672Z</time></trkpt><trkpt lat="41.1151833" lon="9.4698633"><ele>18.0</ele><time>2026-05-01T09:12:30.672Z</time></trkpt><trkpt lat="41.11506" lon="9.46985"><ele>18.0</ele><time>2026-05-01T09:12:31.672Z</time></trkpt><trkpt lat="41.1149317" lon="9.469845"><ele>18.75</ele><time>2026-05-01T09:12:32.672Z</time></trkpt><trkpt lat="41.1147833" lon="9.469845"><ele>19.5</ele><time>2026-05-01T09:12:33.672Z</time></trkpt><trkpt lat="41.11465" lon="9.4698383"><ele>20.25</ele><time>2026-05-01T09:12:34.672Z</time></trkpt><trkpt lat="41.1145" lon="9.4698633"><ele>21.0</ele><time>2026-05-01T09:12:35.672Z</time></trkpt><trkpt lat="41.1143583" lon="9.4698883"><ele>21.0</ele><time>2026-05-01T09:12:36.672Z</time></trkpt><trkpt lat="41.11426" lon="9.4698867"><ele>21.0</ele><time>2026-05-01T09:12:37.672Z</time></trkpt><trkpt lat="41.1141533" lon="9.4698867"><ele>21.0</ele><time>2026-05-01T09:12:38.672Z</time></trkpt><trkpt lat="41.1140533" lon="9.4698933"><ele>21.0</ele><time>2026-05-01T09:12:39.672Z</time></trkpt><trkpt lat="41.1139433" lon="9.4698967"><ele>21.0</ele><time>2026-05-01T09:12:40.672Z</time></trkpt><trkpt lat="41.1138383" lon="9.4699083"><ele>21.333333333333332</ele><time>2026-05-01T09:12:41.672Z</time></trkpt><trkpt lat="41.1137267" lon="9.46992"><ele>21.666666666666668</ele><time>2026-05-01T09:12:42.672Z</time></trkpt><trkpt lat="41.1136383" lon="9.469935"><ele>22.0</ele><time>2026-05-01T09:12:43.672Z</time></trkpt><trkpt lat="41.1135583" lon="9.4699467"><ele>22.333333333333336</ele><time>2026-05-01T09:12:44.672Z</time></trkpt><trkpt lat="41.1134833" lon="9.4699433"><ele>22.666666666666668</ele><time>2026-05-01T09:12:45.672Z</time></trkpt><trkpt lat="41.1133983" lon="9.4699533"><ele>23.0</ele><time>2026-05-01T09:12:46.672Z</time></trkpt><trkpt lat="41.1133167" lon="9.46997"><ele>23.0</ele><time>2026-05-01T09:12:47.672Z</time></trkpt><trkpt lat="41.1132517" lon="9.4699867"><ele>23.0</ele><time>2026-05-01T09:12:48.672Z</time></trkpt><trkpt lat="41.113125" lon="9.47003"><ele>23.0</ele><time>2026-05-01T09:12:50.672Z</time></trkpt><trkpt lat="41.1130483" lon="9.47005"><ele>23.0</ele><time>2026-05-01T09:12:51.672Z</time></trkpt><trkpt lat="41.1129667" lon="9.4700717"><ele>23.0</ele><time>2026-05-01T09:12:52.672Z</time></trkpt><trkpt lat="41.1128733" lon="9.4700933"><ele>25.166666666666668</ele><time>2026-05-01T09:12:53.672Z</time></trkpt><trkpt lat="41.1127833" lon="9.470095"><ele>27.333333333333336</ele><time>2026-05-01T09:12:54.672Z</time></trkpt><trkpt lat="41.1126917" lon="9.4700817"><ele>29.5</ele><time>2026-05-01T09:12:55.672Z</time></trkpt><trkpt lat="41.1125967" lon="9.4700667"><ele>31.666666666666668</ele><time>2026-05-01T09:12:56.672Z</time></trkpt><trkpt lat="41.1125167" lon="9.4700517"><ele>33.833333333333336</ele><time>2026-05-01T09:12:57.673Z</time></trkpt><trkpt lat="41.1124367" lon="9.4700467"><ele>36.0</ele><time>2026-05-01T09:12:58.672Z</time></trkpt><trkpt lat="41.1123667" lon="9.4700533"><ele>38.166666666666664</ele><time>2026-05-01T09:12:59.672Z</time></trkpt><trkpt lat="41.1123083" lon="9.4700883"><ele>40.33333333333333</ele><time>2026-05-01T09:13:00.672Z</time></trkpt><trkpt lat="41.112245" lon="9.470235"><ele>42.5</ele><time>2026-05-01T09:13:02.672Z</time></trkpt><trkpt lat="41.112235" lon="9.4703383"><ele>44.666666666666664</ele><time>2026-05-01T09:13:03.672Z</time></trkpt><trkpt lat="41.1122467" lon="9.4704383"><ele>46.83333333333333</ele><time>2026-05-01T09:13:04.672Z</time></trkpt><trkpt lat="41.1122417" lon="9.4705283"><ele>49.0</ele><time>2026-05-01T09:13:05.672Z</time></trkpt><trkpt lat="41.1122267" lon="9.4706733"><ele>48.99999999999999</ele><time>2026-05-01T09:13:07.672Z</time></trkpt><trkpt lat="41.11217" lon="9.4707367"><ele>49.0</ele><time>2026-05-01T09:13:09.672Z</time></trkpt><trkpt lat="41.112085" lon="9.4707417"><ele>49.0</ele><time>2026-05-01T09:13:11.672Z</time></trkpt><trkpt lat="41.11219" lon="9.47075"><ele>49.0</ele><time>2026-05-01T09:13:27.672Z</time></trkpt><trkpt lat="41.11226" lon="9.4707217"><ele>48.99999999999999</ele><time>2026-05-01T09:13:28.672Z</time></trkpt><trkpt lat="41.11233" lon="9.4706633"><ele>49.0</ele><time>2026-05-01T09:13:29.672Z</time></trkpt><trkpt lat="41.112385" lon="9.4706"><ele>46.99999999999999</ele><time>2026-05-01T09:13:30.672Z</time></trkpt><trkpt lat="41.112425" lon="9.470515"><ele>45.0</ele><time>2026-05-01T09:13:31.672Z</time></trkpt><trkpt lat="41.11245" lon="9.470435"><ele>43.0</ele><time>2026-05-01T09:13:32.672Z</time></trkpt><trkpt lat="41.1124483" lon="9.4703467"><ele>41.0</ele><time>2026-05-01T09:13:33.672Z</time></trkpt><trkpt lat="41.1124717" lon="9.4701883"><ele>39.0</ele><time>2026-05-01T09:13:35.672Z</time></trkpt><trkpt lat="41.112545" lon="9.470075"><ele>37.0</ele><time>2026-05-01T09:13:37.672Z</time></trkpt><trkpt lat="41.1126567" lon="9.470045"><ele>36.800000000000004</ele><time>2026-05-01T09:13:39.672Z</time></trkpt><trkpt lat="41.1127517" lon="9.47009"><ele>36.6</ele><time>2026-05-01T09:13:40.672Z</time></trkpt><trkpt lat="41.1128333" lon="9.4700983"><ele>36.400000000000006</ele><time>2026-05-01T09:13:41.672Z</time></trkpt><trkpt lat="41.1129233" lon="9.4701017"><ele>36.2</ele><time>2026-05-01T09:13:42.672Z</time></trkpt><trkpt lat="41.113025" lon="9.4700967"><ele>36.0</ele><time>2026-05-01T09:13:43.672Z</time></trkpt><trkpt lat="41.1131033" lon="9.47007"><ele>36.0</ele><time>2026-05-01T09:13:44.672Z</time></trkpt><trkpt lat="41.11318" lon="9.4700467"><ele>36.0</ele><time>2026-05-01T09:13:45.672Z</time></trkpt><trkpt lat="41.1132517" lon="9.4700233"><ele>36.0</ele><time>2026-05-01T09:13:46.672Z</time></trkpt><trkpt lat="41.1133133" lon="9.4699983"><ele>36.0</ele><time>2026-05-01T09:13:47.672Z</time></trkpt><trkpt lat="41.11339" lon="9.46995"><ele>36.0</ele><time>2026-05-01T09:13:49.672Z</time></trkpt><trkpt lat="41.11336" lon="9.469855"><ele>36.0</ele><time>2026-05-01T09:14:15.672Z</time></trkpt><trkpt lat="41.1132967" lon="9.46994"><ele>36.0</ele><time>2026-05-01T09:15:17.672Z</time></trkpt><trkpt lat="41.1131767" lon="9.4699983"><ele>36.0</ele><time>2026-05-01T09:15:19.673Z</time></trkpt><trkpt lat="41.112715" lon="9.4700767"><ele>36.0</ele><time>2026-05-01T09:15:25.672Z</time></trkpt><trkpt lat="41.1126383" lon="9.4700717"><ele>36.0</ele><time>2026-05-01T09:15:26.672Z</time></trkpt><trkpt lat="41.112495" lon="9.470065"><ele>36.0</ele><time>2026-05-01T09:15:28.671Z</time></trkpt><trkpt lat="41.11241" lon="9.4701533"><ele>36.0</ele><time>2026-05-01T09:15:30.671Z</time></trkpt><trkpt lat="41.1123833" lon="9.4703367"><ele>38.166666666666664</ele><time>2026-05-01T09:15:32.671Z</time></trkpt><trkpt lat="41.112365" lon="9.47044"><ele>40.33333333333333</ele><time>2026-05-01T09:15:33.671Z</time></trkpt><trkpt lat="41.1123433" lon="9.4705483"><ele>42.5</ele><time>2026-05-01T09:15:34.671Z</time></trkpt><trkpt lat="41.112315" lon="9.4706533"><ele>44.666666666666664</ele><time>2026-05-01T09:15:35.671Z</time></trkpt><trkpt lat="41.1122867" lon="9.4707317"><ele>46.83333333333333</ele><time>2026-05-01T09:15:36.671Z</time></trkpt><trkpt lat="41.1122067" lon="9.4707967"><ele>49.0</ele><time>2026-05-01T09:15:38.671Z</time></trkpt><trkpt lat="41.11214" lon="9.470825"><ele>48.99999999999999</ele><time>2026-05-01T09:15:40.671Z</time></trkpt><trkpt lat="41.1120817" lon="9.4707933"><ele>49.0</ele><time>2026-05-01T09:15:43.671Z</time></trkpt><trkpt lat="41.11215" lon="9.4707933"><ele>49.0</ele><time>2026-05-01T09:15:51.672Z</time></trkpt><trkpt lat="41.112295" lon="9.470745"><ele>49.0</ele><time>2026-05-01T09:15:53.671Z</time></trkpt><trkpt lat="41.1123617" lon="9.4706917"><ele>48.99999999999999</ele><time>2026-05-01T09:15:54.671Z</time></trkpt><trkpt lat="41.11242" lon="9.4706183"><ele>49.0</ele><time>2026-05-01T09:15:55.671Z</time></trkpt><trkpt lat="41.11246" lon="9.4705133"><ele>46.400000000000006</ele><time>2026-05-01T09:15:56.671Z</time></trkpt><trkpt lat="41.112475" lon="9.4704083"><ele>43.800000000000004</ele><time>2026-05-01T09:15:57.671Z</time></trkpt><trkpt lat="41.1124917" lon="9.47031"><ele>41.2</ele><time>2026-05-01T09:15:58.671Z</time></trkpt><trkpt lat="41.1125233" lon="9.4702133"><ele>38.6</ele><time>2026-05-01T09:15:59.671Z</time></trkpt><trkpt lat="41.1125917" lon="9.470085"><ele>36.0</ele><time>2026-05-01T09:16:01.671Z</time></trkpt><trkpt lat="41.1127083" lon="9.470025"><ele>36.0</ele><time>2026-05-01T09:16:03.671Z</time></trkpt><trkpt lat="41.1127767" lon="9.4700317"><ele>36.0</ele><time>2026-05-01T09:16:04.671Z</time></trkpt><trkpt lat="41.1128633" lon="9.470045"><ele>36.0</ele><time>2026-05-01T09:16:05.671Z</time></trkpt><trkpt lat="41.112965" lon="9.4700467"><ele>36.0</ele><time>2026-05-01T09:16:06.671Z</time></trkpt><trkpt lat="41.1130583" lon="9.4700183"><ele>36.0</ele><time>2026-05-01T09:16:07.671Z</time></trkpt><trkpt lat="41.1131533" lon="9.4699933"><ele>33.4</ele><time>2026-05-01T09:16:08.671Z</time></trkpt><trkpt lat="41.1132483" lon="9.4699683"><ele>30.8</ele><time>2026-05-01T09:16:09.671Z</time></trkpt><trkpt lat="41.1133467" lon="9.4699483"><ele>28.2</ele><time>2026-05-01T09:16:10.671Z</time></trkpt><trkpt lat="41.113445" lon="9.4699383"><ele>25.599999999999998</ele><time>2026-05-01T09:16:11.671Z</time></trkpt><trkpt lat="41.113545" lon="9.4699267"><ele>23.0</ele><time>2026-05-01T09:16:12.671Z</time></trkpt><trkpt lat="41.11364" lon="9.4699117"><ele>23.0</ele><time>2026-05-01T09:16:13.671Z</time></trkpt><trkpt lat="41.1137383" lon="9.4699017"><ele>23.0</ele><time>2026-05-01T09:16:14.671Z</time></trkpt><trkpt lat="41.1138267" lon="9.4699167"><ele>23.0</ele><time>2026-05-01T09:16:15.671Z</time></trkpt><trkpt lat="41.1139167" lon="9.469915"><ele>23.0</ele><time>2026-05-01T09:16:16.671Z</time></trkpt><trkpt lat="41.1140183" lon="9.46992"><ele>23.0</ele><time>2026-05-01T09:16:17.671Z</time></trkpt><trkpt lat="41.114115" lon="9.46992"><ele>22.5</ele><time>2026-05-01T09:16:18.671Z</time></trkpt><trkpt lat="41.11421" lon="9.4699167"><ele>22.0</ele><time>2026-05-01T09:16:19.671Z</time></trkpt><trkpt lat="41.114415" lon="9.4699167"><ele>21.5</ele><time>2026-05-01T09:16:21.671Z</time></trkpt><trkpt lat="41.1145133" lon="9.4699133"><ele>21.0</ele><time>2026-05-01T09:16:22.671Z</time></trkpt><trkpt lat="41.11461" lon="9.4699083"><ele>21.0</ele><time>2026-05-01T09:16:23.671Z</time></trkpt><trkpt lat="41.1147117" lon="9.4699067"><ele>21.0</ele><time>2026-05-01T09:16:24.671Z</time></trkpt><trkpt lat="41.1148117" lon="9.4699083"><ele>21.0</ele><time>2026-05-01T09:16:25.671Z</time></trkpt><trkpt lat="41.1149133" lon="9.4699167"><ele>21.0</ele><time>2026-05-01T09:16:26.671Z</time></trkpt><trkpt lat="41.1150067" lon="9.4699083"><ele>21.0</ele><time>2026-05-01T09:16:27.671Z</time></trkpt><trkpt lat="41.115105" lon="9.4699067"><ele>20.5</ele><time>2026-05-01T09:16:28.671Z</time></trkpt><trkpt lat="41.1151983" lon="9.4699017"><ele>20.0</ele><time>2026-05-01T09:16:29.671Z</time></trkpt><trkpt lat="41.115295" lon="9.4698883"><ele>19.5</ele><time>2026-05-01T09:16:30.671Z</time></trkpt><trkpt lat="41.1153817" lon="9.4698767"><ele>19.0</ele><time>2026-05-01T09:16:31.671Z</time></trkpt><trkpt lat="41.1154567" lon="9.4698717"><ele>18.5</ele><time>2026-05-01T09:16:32.671Z</time></trkpt><trkpt lat="41.1155433" lon="9.4698617"><ele>18.0</ele><time>2026-05-01T09:16:34.671Z</time></trkpt><trkpt lat="41.1156033" lon="9.4697567"><ele>17.0</ele><time>2026-05-01T09:16:42.671Z</time></trkpt><trkpt lat="41.1155833" lon="9.4695767"><ele>16.0</ele><time>2026-05-01T09:16:44.671Z</time></trkpt><trkpt lat="41.1155733" lon="9.4694467"><ele>15.0</ele><time>2026-05-01T09:16:45.671Z</time></trkpt><trkpt lat="41.1155533" lon="9.4693033"><ele>14.0</ele><time>2026-05-01T09:16:46.671Z</time></trkpt><trkpt lat="41.1155717" lon="9.4689233"><ele>14.75</ele><time>2026-05-01T09:16:48.671Z</time></trkpt><trkpt lat="41.1155917" lon="9.4687317"><ele>15.5</ele><time>2026-05-01T09:16:49.671Z</time></trkpt><trkpt lat="41.1155883" lon="9.4685233"><ele>16.25</ele><time>2026-05-01T09:16:50.671Z</time></trkpt><trkpt lat="41.1156033" lon="9.468335"><ele>17.0</ele><time>2026-05-01T09:16:51.671Z</time></trkpt><trkpt lat="41.1156217" lon="9.4681433"><ele>17.0</ele><time>2026-05-01T09:16:52.671Z</time></trkpt><trkpt lat="41.1156383" lon="9.467955"><ele>17.0</ele><time>2026-05-01T09:16:53.671Z</time></trkpt><trkpt lat="41.1156583" lon="9.4677617"><ele>17.0</ele><time>2026-05-01T09:16:54.671Z</time></trkpt><trkpt lat="41.1156783" lon="9.4675733"><ele>17.0</ele><time>2026-05-01T09:16:55.671Z</time></trkpt><trkpt lat="41.1156967" lon="9.4673867"><ele>19.25</ele><time>2026-05-01T09:16:56.671Z</time></trkpt><trkpt lat="41.1156983" lon="9.4671967"><ele>21.5</ele><time>2026-05-01T09:16:57.671Z</time></trkpt><trkpt lat="41.1157" lon="9.4670017"><ele>23.75</ele><time>2026-05-01T09:16:58.671Z</time></trkpt><trkpt lat="41.1156917" lon="9.4667917"><ele>26.0</ele><time>2026-05-01T09:16:59.671Z</time></trkpt><trkpt lat="41.1156433" lon="9.4666017"><ele>26.0</ele><time>2026-05-01T09:17:00.671Z</time></trkpt><trkpt lat="41.1156183" lon="9.466415"><ele>26.0</ele><time>2026-05-01T09:17:01.671Z</time></trkpt><trkpt lat="41.1155583" lon="9.46624"><ele>26.0</ele><time>2026-05-01T09:17:02.671Z</time></trkpt><trkpt lat="41.1155033" lon="9.4660483"><ele>26.0</ele><time>2026-05-01T09:17:03.671Z</time></trkpt><trkpt lat="41.1154467" lon="9.4658667"><ele>21.333333333333332</ele><time>2026-05-01T09:17:04.671Z</time></trkpt><trkpt lat="41.115375" lon="9.4657067"><ele>16.666666666666664</ele><time>2026-05-01T09:17:05.671Z</time></trkpt><trkpt lat="41.11528" lon="9.4655583"><ele>12.0</ele><time>2026-05-01T09:17:06.671Z</time></trkpt><trkpt lat="41.11511" lon="9.4654733"><ele>10.0</ele><time>2026-05-01T09:17:07.671Z</time></trkpt><trkpt lat="41.1150167" lon="9.4653517"><ele>8.0</ele><time>2026-05-01T09:17:08.671Z</time></trkpt><trkpt lat="41.1149" lon="9.4652783"><ele>6.0</ele><time>2026-05-01T09:17:09.671Z</time></trkpt><trkpt lat="41.1147733" lon="9.4652367"><ele>4.0</ele><time>2026-05-01T09:17:10.671Z</time></trkpt><trkpt lat="41.1144467" lon="9.465205"><ele>4.0</ele><time>2026-05-01T09:17:12.671Z</time></trkpt><trkpt lat="41.1143183" lon="9.4651633"><ele>4.0</ele><time>2026-05-01T09:17:13.671Z</time></trkpt><trkpt lat="41.11421" lon="9.4650917"><ele>4.0</ele><time>2026-05-01T09:17:14.671Z</time></trkpt><trkpt lat="41.1141383" lon="9.4650217"><ele>4.0</ele><time>2026-05-01T09:17:15.671Z</time></trkpt><trkpt lat="41.1140317" lon="9.464945"><ele>4.666666666666666</ele><time>2026-05-01T09:17:16.671Z</time></trkpt><trkpt lat="41.1139267" lon="9.464855"><ele>5.333333333333333</ele><time>2026-05-01T09:17:17.671Z</time></trkpt><trkpt lat="41.1137233" lon="9.4646833"><ele>6.0</ele><time>2026-05-01T09:17:19.671Z</time></trkpt><trkpt lat="41.113395" lon="9.464445"><ele>6.0</ele><time>2026-05-01T09:17:22.671Z</time></trkpt><trkpt lat="41.113305" lon="9.4643367"><ele>6.0</ele><time>2026-05-01T09:17:23.671Z</time></trkpt><trkpt lat="41.1131933" lon="9.4642317"><ele>6.0</ele><time>2026-05-01T09:17:24.671Z</time></trkpt><trkpt lat="41.1130583" lon="9.464125"><ele>6.0</ele><time>2026-05-01T09:17:25.671Z</time></trkpt><trkpt lat="41.1129283" lon="9.4640183"><ele>6.25</ele><time>2026-05-01T09:17:26.671Z</time></trkpt><trkpt lat="41.1127917" lon="9.4639133"><ele>6.5</ele><time>2026-05-01T09:17:27.671Z</time></trkpt><trkpt lat="41.1126683" lon="9.4638033"><ele>6.75</ele><time>2026-05-01T09:17:28.671Z</time></trkpt><trkpt lat="41.112555" lon="9.4636967"><ele>7.0</ele><time>2026-05-01T09:17:29.671Z</time></trkpt><trkpt lat="41.112445" lon="9.4635983"><ele>7.0</ele><time>2026-05-01T09:17:30.671Z</time></trkpt><trkpt lat="41.1123317" lon="9.463505"><ele>7.0</ele><time>2026-05-01T09:17:31.671Z</time></trkpt><trkpt lat="41.112215" lon="9.463435"><ele>7.0</ele><time>2026-05-01T09:17:32.671Z</time></trkpt><trkpt lat="41.1120967" lon="9.4633717"><ele>7.0</ele><time>2026-05-01T09:17:33.671Z</time></trkpt><trkpt lat="41.111955" lon="9.4633333"><ele>7.0</ele><time>2026-05-01T09:17:34.671Z</time></trkpt><trkpt lat="41.1118183" lon="9.4633167"><ele>7.0</ele><time>2026-05-01T09:17:35.671Z</time></trkpt><trkpt lat="41.1116933" lon="9.46332"><ele>7.0</ele><time>2026-05-01T09:17:36.671Z</time></trkpt><trkpt lat="41.1115683" lon="9.4633267"><ele>7.0</ele><time>2026-05-01T09:17:37.671Z</time></trkpt><trkpt lat="41.1114567" lon="9.4633667"><ele>7.5</ele><time>2026-05-01T09:17:38.671Z</time></trkpt><trkpt lat="41.1113283" lon="9.4634167"><ele>8.0</ele><time>2026-05-01T09:17:39.671Z</time></trkpt><trkpt lat="41.1111983" lon="9.463475"><ele>8.5</ele><time>2026-05-01T09:17:40.671Z</time></trkpt><trkpt lat="41.1110617" lon="9.4635333"><ele>9.0</ele><time>2026-05-01T09:17:41.671Z</time></trkpt><trkpt lat="41.110945" lon="9.4635867"><ele>9.0</ele><time>2026-05-01T09:17:42.671Z</time></trkpt><trkpt lat="41.11084" lon="9.4636583"><ele>9.0</ele><time>2026-05-01T09:17:43.671Z</time></trkpt><trkpt lat="41.1107167" lon="9.4637283"><ele>9.0</ele><time>2026-05-01T09:17:44.671Z</time></trkpt><trkpt lat="41.1105917" lon="9.46378"><ele>9.0</ele><time>2026-05-01T09:17:45.671Z</time></trkpt><trkpt lat="41.11046" lon="9.463835"><ele>10.8</ele><time>2026-05-01T09:17:46.671Z</time></trkpt><trkpt lat="41.1103283" lon="9.4638883"><ele>12.600000000000001</ele><time>2026-05-01T09:17:47.671Z</time></trkpt><trkpt lat="41.1102267" lon="9.463945"><ele>14.4</ele><time>2026-05-01T09:17:48.671Z</time></trkpt><trkpt lat="41.1101417" lon="9.4639983"><ele>16.2</ele><time>2026-05-01T09:17:49.671Z</time></trkpt><trkpt lat="41.1100733" lon="9.4640517"><ele>18.0</ele><time>2026-05-01T09:17:50.671Z</time></trkpt><trkpt lat="41.1100283" lon="9.4641167"><ele>18.0</ele><time>2026-05-01T09:17:51.671Z</time></trkpt><trkpt lat="41.1100233" lon="9.4642767"><ele>18.0</ele><time>2026-05-01T09:17:53.671Z</time></trkpt><trkpt lat="41.110055" lon="9.4643583"><ele>18.0</ele><time>2026-05-01T09:17:54.671Z</time></trkpt><trkpt lat="41.1100767" lon="9.46444"><ele>18.0</ele><time>2026-05-01T09:17:55.671Z</time></trkpt><trkpt lat="41.1100983" lon="9.464525"><ele>18.0</ele><time>2026-05-01T09:17:56.671Z</time></trkpt><trkpt lat="41.1101417" lon="9.46468"><ele>18.0</ele><time>2026-05-01T09:17:58.671Z</time></trkpt><trkpt lat="41.11014" lon="9.4648367"><ele>17.0</ele><time>2026-05-01T09:18:00.671Z</time></trkpt><trkpt lat="41.1101083" lon="9.464925"><ele>16.0</ele><time>2026-05-01T09:18:01.671Z</time></trkpt><trkpt lat="41.1100267" lon="9.465075"><ele>15.0</ele><time>2026-05-01T09:18:03.671Z</time></trkpt><trkpt lat="41.10997" lon="9.4651333"><ele>14.0</ele><time>2026-05-01T09:18:04.671Z</time></trkpt><trkpt lat="41.1098917" lon="9.4651833"><ele>13.0</ele><time>2026-05-01T09:18:05.671Z</time></trkpt><trkpt lat="41.1098233" lon="9.4652383"><ele>13.600000000000001</ele><time>2026-05-01T09:18:06.672Z</time></trkpt><trkpt lat="41.1097367" lon="9.4652883"><ele>14.200000000000001</ele><time>2026-05-01T09:18:07.671Z</time></trkpt><trkpt lat="41.1096567" lon="9.4653483"><ele>14.8</ele><time>2026-05-01T09:18:08.671Z</time></trkpt><trkpt lat="41.109585" lon="9.46541"><ele>15.4</ele><time>2026-05-01T09:18:09.671Z</time></trkpt><trkpt lat="41.1094983" lon="9.46548"><ele>16.0</ele><time>2026-05-01T09:18:10.671Z</time></trkpt><trkpt lat="41.109405" lon="9.4655567"><ele>16.0</ele><time>2026-05-01T09:18:11.671Z</time></trkpt><trkpt lat="41.1093033" lon="9.465615"><ele>16.0</ele><time>2026-05-01T09:18:12.671Z</time></trkpt><trkpt lat="41.1091733" lon="9.4656817"><ele>16.0</ele><time>2026-05-01T09:18:13.671Z</time></trkpt><trkpt lat="41.1090683" lon="9.4657217"><ele>16.0</ele><time>2026-05-01T09:18:14.671Z</time></trkpt><trkpt lat="41.10896" lon="9.4657467"><ele>16.8</ele><time>2026-05-01T09:18:15.671Z</time></trkpt><trkpt lat="41.1088583" lon="9.4657667"><ele>17.6</ele><time>2026-05-01T09:18:16.671Z</time></trkpt><trkpt lat="41.1087533" lon="9.4657633"><ele>18.4</ele><time>2026-05-01T09:18:17.671Z</time></trkpt><trkpt lat="41.1086467" lon="9.4657583"><ele>19.2</ele><time>2026-05-01T09:18:18.671Z</time></trkpt><trkpt lat="41.10855" lon="9.4657283"><ele>20.0</ele><time>2026-05-01T09:18:19.671Z</time></trkpt><trkpt lat="41.10845" lon="9.465685"><ele>20.0</ele><time>2026-05-01T09:18:20.672Z</time></trkpt><trkpt lat="41.1083483" lon="9.4656483"><ele>20.0</ele><time>2026-05-01T09:18:21.672Z</time></trkpt><trkpt lat="41.1082733" lon="9.4656183"><ele>20.0</ele><time>2026-05-01T09:18:22.671Z</time></trkpt><trkpt lat="41.1082017" lon="9.46559"><ele>20.0</ele><time>2026-05-01T09:18:23.671Z</time></trkpt><trkpt lat="41.10811" lon="9.465545"><ele>20.0</ele><time>2026-05-01T09:18:25.671Z</time></trkpt><trkpt lat="41.108055" lon="9.4654883"><ele>20.0</ele><time>2026-05-01T09:18:27.671Z</time></trkpt><trkpt lat="41.108155" lon="9.4654367"><ele>24.2</ele><time>2026-05-01T09:18:32.671Z</time></trkpt><trkpt lat="41.1082767" lon="9.465415"><ele>28.4</ele><time>2026-05-01T09:18:34.671Z</time></trkpt><trkpt lat="41.1083383" lon="9.4653833"><ele>32.599999999999994</ele><time>2026-05-01T09:18:35.671Z</time></trkpt><trkpt lat="41.1084067" lon="9.4653583"><ele>36.8</ele><time>2026-05-01T09:18:36.671Z</time></trkpt><trkpt lat="41.1085117" lon="9.4653317"><ele>41.0</ele><time>2026-05-01T09:18:37.671Z</time></trkpt><trkpt lat="41.10862" lon="9.465295"><ele>41.0</ele><time>2026-05-01T09:18:38.671Z</time></trkpt><trkpt lat="41.1087167" lon="9.4652617"><ele>41.0</ele><time>2026-05-01T09:18:39.671Z</time></trkpt><trkpt lat="41.1088" lon="9.4652367"><ele>41.0</ele><time>2026-05-01T09:18:40.671Z</time></trkpt><trkpt lat="41.1088683" lon="9.4651867"><ele>41.0</ele><time>2026-05-01T09:18:42.672Z</time></trkpt><trkpt lat="41.10892" lon="9.465245"><ele>41.0</ele><time>2026-05-01T09:19:15.671Z</time></trkpt><trkpt lat="41.10899" lon="9.46517"><ele>41.0</ele><time>2026-05-01T09:19:35.671Z</time></trkpt><trkpt lat="41.1090383" lon="9.4650983"><ele>38.599999999999994</ele><time>2026-05-01T09:19:37.671Z</time></trkpt><trkpt lat="41.1090967" lon="9.4650167"><ele>36.199999999999996</ele><time>2026-05-01T09:19:39.671Z</time></trkpt><trkpt lat="41.1091917" lon="9.46492"><ele>33.8</ele><time>2026-05-01T09:19:43.671Z</time></trkpt><trkpt lat="41.1092417" lon="9.464835"><ele>31.4</ele><time>2026-05-01T09:19:45.671Z</time></trkpt><trkpt lat="41.10926" lon="9.464735"><ele>29.0</ele><time>2026-05-01T09:19:47.671Z</time></trkpt><trkpt lat="41.1091717" lon="9.4646717"><ele>28.999999999999996</ele><time>2026-05-01T09:20:46.67Z</time></trkpt><trkpt lat="41.1091733" lon="9.4647633"><ele>29.0</ele><time>2026-05-01T09:20:53.67Z</time></trkpt><trkpt lat="41.10916" lon="9.464885"><ele>29.0</ele><time>2026-05-01T09:20:56.67Z</time></trkpt><trkpt lat="41.1091083" lon="9.4649367"><ele>29.0</ele><time>2026-05-01T09:20:57.67Z</time></trkpt><trkpt lat="41.1090633" lon="9.4649967"><ele>28.999999999999996</ele><time>2026-05-01T09:20:58.67Z</time></trkpt><trkpt lat="41.109" lon="9.4650633"><ele>29.0</ele><time>2026-05-01T09:20:59.67Z</time></trkpt><trkpt lat="41.10892" lon="9.4651333"><ele>31.4</ele><time>2026-05-01T09:21:00.67Z</time></trkpt><trkpt lat="41.108835" lon="9.4651917"><ele>33.8</ele><time>2026-05-01T09:21:01.67Z</time></trkpt><trkpt lat="41.1087483" lon="9.4652367"><ele>36.199999999999996</ele><time>2026-05-01T09:21:02.67Z</time></trkpt><trkpt lat="41.1086517" lon="9.4652717"><ele>38.599999999999994</ele><time>2026-05-01T09:21:03.67Z</time></trkpt><trkpt lat="41.1085517" lon="9.4653"><ele>41.0</ele><time>2026-05-01T09:21:04.67Z</time></trkpt><trkpt lat="41.10845" lon="9.4653317"><ele>41.0</ele><time>2026-05-01T09:21:05.671Z</time></trkpt><trkpt lat="41.1083617" lon="9.4653717"><ele>41.0</ele><time>2026-05-01T09:21:06.67Z</time></trkpt><trkpt lat="41.1082817" lon="9.4654083"><ele>41.0</ele><time>2026-05-01T09:21:07.67Z</time></trkpt><trkpt lat="41.1082133" lon="9.4654383"><ele>41.0</ele><time>2026-05-01T09:21:08.67Z</time></trkpt><trkpt lat="41.1081033" lon="9.465475"><ele>41.0</ele><time>2026-05-01T09:21:10.67Z</time></trkpt><trkpt lat="41.108045" lon="9.46553"><ele>41.0</ele><time>2026-05-01T09:21:12.67Z</time></trkpt><trkpt lat="41.108155" lon="9.46558"><ele>35.75</ele><time>2026-05-01T09:21:15.67Z</time></trkpt><trkpt lat="41.1082583" lon="9.4655983"><ele>30.5</ele><time>2026-05-01T09:21:16.671Z</time></trkpt><trkpt lat="41.1083733" lon="9.4656267"><ele>25.25</ele><time>2026-05-01T09:21:17.67Z</time></trkpt><trkpt lat="41.1084933" lon="9.46566"><ele>20.0</ele><time>2026-05-01T09:21:18.67Z</time></trkpt><trkpt lat="41.1086033" lon="9.4657"><ele>20.0</ele><time>2026-05-01T09:21:19.67Z</time></trkpt><trkpt lat="41.1087117" lon="9.4657233"><ele>20.0</ele><time>2026-05-01T09:21:20.67Z</time></trkpt><trkpt lat="41.1088133" lon="9.4657217"><ele>20.0</ele><time>2026-05-01T09:21:21.67Z</time></trkpt><trkpt lat="41.108905" lon="9.4657117"><ele>20.0</ele><time>2026-05-01T09:21:22.67Z</time></trkpt><trkpt lat="41.109" lon="9.4656933"><ele>20.0</ele><time>2026-05-01T09:21:23.67Z</time></trkpt><trkpt lat="41.1090833" lon="9.465665"><ele>19.2</ele><time>2026-05-01T09:21:24.67Z</time></trkpt><trkpt lat="41.1091667" lon="9.4656183"><ele>18.4</ele><time>2026-05-01T09:21:25.67Z</time></trkpt><trkpt lat="41.1092583" lon="9.46558"><ele>17.6</ele><time>2026-05-01T09:21:26.67Z</time></trkpt><trkpt lat="41.1093583" lon="9.4655517"><ele>16.8</ele><time>2026-05-01T09:21:27.67Z</time></trkpt><trkpt lat="41.1094417" lon="9.4654983"><ele>16.0</ele><time>2026-05-01T09:21:28.67Z</time></trkpt><trkpt lat="41.1095317" lon="9.465435"><ele>15.4</ele><time>2026-05-01T09:21:29.67Z</time></trkpt><trkpt lat="41.10964" lon="9.4653667"><ele>14.8</ele><time>2026-05-01T09:21:30.67Z</time></trkpt><trkpt lat="41.1097417" lon="9.4652867"><ele>14.200000000000001</ele><time>2026-05-01T09:21:31.67Z</time></trkpt><trkpt lat="41.109835" lon="9.46521"><ele>13.600000000000001</ele><time>2026-05-01T09:21:32.67Z</time></trkpt><trkpt lat="41.1099183" lon="9.4651367"><ele>13.0</ele><time>2026-05-01T09:21:33.67Z</time></trkpt><trkpt lat="41.109995" lon="9.4650783"><ele>12.999999999999998</ele><time>2026-05-01T09:21:34.671Z</time></trkpt><trkpt lat="41.1100533" lon="9.465"><ele>13.0</ele><time>2026-05-01T09:21:35.67Z</time></trkpt><trkpt lat="41.110145" lon="9.464965"><ele>13.0</ele><time>2026-05-01T09:21:36.67Z</time></trkpt><trkpt lat="41.1102183" lon="9.4648917"><ele>13.0</ele><time>2026-05-01T09:21:37.67Z</time></trkpt><trkpt lat="41.110275" lon="9.46482"><ele>12.999999999999998</ele><time>2026-05-01T09:21:38.67Z</time></trkpt><trkpt lat="41.1103117" lon="9.4647167"><ele>13.0</ele><time>2026-05-01T09:21:39.67Z</time></trkpt><trkpt lat="41.1103433" lon="9.4646167"><ele>14.0</ele><time>2026-05-01T09:21:40.67Z</time></trkpt><trkpt lat="41.11035" lon="9.46449"><ele>15.0</ele><time>2026-05-01T09:21:41.67Z</time></trkpt><trkpt lat="41.110355" lon="9.4643683"><ele>16.0</ele><time>2026-05-01T09:21:42.67Z</time></trkpt><trkpt lat="41.1103317" lon="9.4642583"><ele>17.0</ele><time>2026-05-01T09:21:43.67Z</time></trkpt><trkpt lat="41.110265" lon="9.4641417"><ele>18.0</ele><time>2026-05-01T09:21:44.67Z</time></trkpt><trkpt lat="41.1102217" lon="9.4640733"><ele>18.0</ele><time>2026-05-01T09:21:45.67Z</time></trkpt><trkpt lat="41.1101817" lon="9.4640083"><ele>18.0</ele><time>2026-05-01T09:21:47.67Z</time></trkpt><trkpt lat="41.1100433" lon="9.46407"><ele>18.0</ele><time>2026-05-01T09:22:02.67Z</time></trkpt><trkpt lat="41.1099617" lon="9.4640617"><ele>18.0</ele><time>2026-05-01T09:22:04.67Z</time></trkpt><trkpt lat="41.1098817" lon="9.4640817"><ele>18.0</ele><time>2026-05-01T09:22:06.67Z</time></trkpt><trkpt lat="41.10981" lon="9.4641383"><ele>20.75</ele><time>2026-05-01T09:22:19.67Z</time></trkpt><trkpt lat="41.109685" lon="9.4641983"><ele>23.5</ele><time>2026-05-01T09:22:21.67Z</time></trkpt><trkpt lat="41.1095883" lon="9.46424"><ele>26.25</ele><time>2026-05-01T09:22:22.67Z</time></trkpt><trkpt lat="41.10948" lon="9.464285"><ele>29.0</ele><time>2026-05-01T09:22:23.67Z</time></trkpt><trkpt lat="41.1093583" lon="9.4643183"><ele>29.0</ele><time>2026-05-01T09:22:24.67Z</time></trkpt><trkpt lat="41.1092467" lon="9.4643417"><ele>29.0</ele><time>2026-05-01T09:22:25.67Z</time></trkpt><trkpt lat="41.1091217" lon="9.4643517"><ele>29.0</ele><time>2026-05-01T09:22:26.67Z</time></trkpt><trkpt lat="41.1090067" lon="9.4643433"><ele>29.0</ele><time>2026-05-01T09:22:27.67Z</time></trkpt><trkpt lat="41.108885" lon="9.4643133"><ele>31.5</ele><time>2026-05-01T09:22:28.67Z</time></trkpt><trkpt lat="41.1087683" lon="9.4642767"><ele>34.0</ele><time>2026-05-01T09:22:29.67Z</time></trkpt><trkpt lat="41.1086483" lon="9.4642233"><ele>36.5</ele><time>2026-05-01T09:22:30.67Z</time></trkpt><trkpt lat="41.10855" lon="9.464135"><ele>39.0</ele><time>2026-05-01T09:22:31.67Z</time></trkpt><trkpt lat="41.1084633" lon="9.4640133"><ele>39.0</ele><time>2026-05-01T09:22:32.671Z</time></trkpt><trkpt lat="41.1084033" lon="9.4638867"><ele>39.0</ele><time>2026-05-01T09:22:33.67Z</time></trkpt><trkpt lat="41.1083633" lon="9.463745"><ele>39.0</ele><time>2026-05-01T09:22:34.67Z</time></trkpt><trkpt lat="41.1083567" lon="9.463605"><ele>39.0</ele><time>2026-05-01T09:22:35.67Z</time></trkpt><trkpt lat="41.1084033" lon="9.4634567"><ele>40.0</ele><time>2026-05-01T09:22:36.67Z</time></trkpt><trkpt lat="41.1084717" lon="9.4633167"><ele>41.0</ele><time>2026-05-01T09:22:37.67Z</time></trkpt><trkpt lat="41.1085633" lon="9.4631833"><ele>42.0</ele><time>2026-05-01T09:22:38.67Z</time></trkpt><trkpt lat="41.1087067" lon="9.46304"><ele>43.0</ele><time>2026-05-01T09:22:39.67Z</time></trkpt><trkpt lat="41.1088333" lon="9.462885"><ele>42.66666666666667</ele><time>2026-05-01T09:22:40.67Z</time></trkpt><trkpt lat="41.108945" lon="9.4627533"><ele>42.333333333333336</ele><time>2026-05-01T09:22:41.67Z</time></trkpt><trkpt lat="41.1090783" lon="9.4626367"><ele>42.0</ele><time>2026-05-01T09:22:42.67Z</time></trkpt><trkpt lat="41.1091617" lon="9.462485"><ele>42.0</ele><time>2026-05-01T09:22:43.67Z</time></trkpt><trkpt lat="41.10925" lon="9.4623683"><ele>42.0</ele><time>2026-05-01T09:22:44.67Z</time></trkpt><trkpt lat="41.1092867" lon="9.4622117"><ele>42.0</ele><time>2026-05-01T09:22:45.67Z</time></trkpt><trkpt lat="41.1092983" lon="9.462055"><ele>42.0</ele><time>2026-05-01T09:22:46.67Z</time></trkpt><trkpt lat="41.1092733" lon="9.4618867"><ele>43.666666666666664</ele><time>2026-05-01T09:22:47.67Z</time></trkpt><trkpt lat="41.10921" lon="9.46172"><ele>45.33333333333333</ele><time>2026-05-01T09:22:48.67Z</time></trkpt><trkpt lat="41.1091017" lon="9.4615417"><ele>47.0</ele><time>2026-05-01T09:22:49.67Z</time></trkpt><trkpt lat="41.108985" lon="9.4613817"><ele>48.0</ele><time>2026-05-01T09:22:50.67Z</time></trkpt><trkpt lat="41.108875" lon="9.4612117"><ele>49.0</ele><time>2026-05-01T09:22:51.67Z</time></trkpt><trkpt lat="41.1087633" lon="9.4610283"><ele>50.0</ele><time>2026-05-01T09:22:52.67Z</time></trkpt><trkpt lat="41.108665" lon="9.4608483"><ele>50.0</ele><time>2026-05-01T09:22:53.67Z</time></trkpt><trkpt lat="41.1085533" lon="9.460675"><ele>50.0</ele><time>2026-05-01T09:22:54.67Z</time></trkpt><trkpt lat="41.10845" lon="9.4605"><ele>50.0</ele><time>2026-05-01T09:22:55.67Z</time></trkpt><trkpt lat="41.1083517" lon="9.460335"><ele>50.0</ele><time>2026-05-01T09:22:56.67Z</time></trkpt><trkpt lat="41.1082567" lon="9.46017"><ele>50.0</ele><time>2026-05-01T09:22:57.67Z</time></trkpt><trkpt lat="41.108155" lon="9.4600083"><ele>50.0</ele><time>2026-05-01T09:22:58.67Z</time></trkpt><trkpt lat="41.1080567" lon="9.4598467"><ele>51.0</ele><time>2026-05-01T09:22:59.67Z</time></trkpt><trkpt lat="41.10796" lon="9.459675"><ele>52.0</ele><time>2026-05-01T09:23:00.67Z</time></trkpt><trkpt lat="41.1078583" lon="9.4595067"><ele>53.0</ele><time>2026-05-01T09:23:01.67Z</time></trkpt><trkpt lat="41.1077583" lon="9.459335"><ele>50.333333333333336</ele><time>2026-05-01T09:23:02.67Z</time></trkpt><trkpt lat="41.1076583" lon="9.4591783"><ele>47.66666666666667</ele><time>2026-05-01T09:23:03.67Z</time></trkpt><trkpt lat="41.1075567" lon="9.4590217"><ele>45.0</ele><time>2026-05-01T09:23:04.67Z</time></trkpt><trkpt lat="41.1074583" lon="9.4588683"><ele>44.0</ele><time>2026-05-01T09:23:05.67Z</time></trkpt><trkpt lat="41.1073567" lon="9.458715"><ele>43.0</ele><time>2026-05-01T09:23:06.67Z</time></trkpt><trkpt lat="41.1072417" lon="9.45855"><ele>42.0</ele><time>2026-05-01T09:23:07.67Z</time></trkpt><trkpt lat="41.10713" lon="9.4584083"><ele>42.0</ele><time>2026-05-01T09:23:08.67Z</time></trkpt><trkpt lat="41.1070267" lon="9.4582467"><ele>42.0</ele><time>2026-05-01T09:23:09.67Z</time></trkpt><trkpt lat="41.1069083" lon="9.458125"><ele>42.0</ele><time>2026-05-01T09:23:10.67Z</time></trkpt><trkpt lat="41.106775" lon="9.4580083"><ele>42.25</ele><time>2026-05-01T09:23:11.67Z</time></trkpt><trkpt lat="41.1066567" lon="9.457895"><ele>42.5</ele><time>2026-05-01T09:23:12.67Z</time></trkpt><trkpt lat="41.10655" lon="9.4577617"><ele>42.75</ele><time>2026-05-01T09:23:13.67Z</time></trkpt><trkpt lat="41.1064517" lon="9.45762"><ele>43.0</ele><time>2026-05-01T09:23:14.67Z</time></trkpt><trkpt lat="41.1063617" lon="9.4574733"><ele>43.0</ele><time>2026-05-01T09:23:15.67Z</time></trkpt><trkpt lat="41.1062683" lon="9.457315"><ele>43.0</ele><time>2026-05-01T09:23:16.67Z</time></trkpt><trkpt lat="41.1061617" lon="9.4571467"><ele>43.0</ele><time>2026-05-01T09:23:17.67Z</time></trkpt><trkpt lat="41.1060467" lon="9.4569967"><ele>40.333333333333336</ele><time>2026-05-01T09:23:18.67Z</time></trkpt><trkpt lat="41.10591" lon="9.4568717"><ele>37.666666666666664</ele><time>2026-05-01T09:23:19.67Z</time></trkpt><trkpt lat="41.1057733" lon="9.4567617"><ele>35.0</ele><time>2026-05-01T09:23:20.67Z</time></trkpt><trkpt lat="41.105615" lon="9.4566967"><ele>34.0</ele><time>2026-05-01T09:23:21.67Z</time></trkpt><trkpt lat="41.1054583" lon="9.4566533"><ele>33.0</ele><time>2026-05-01T09:23:22.67Z</time></trkpt><trkpt lat="41.105295" lon="9.4566383"><ele>32.0</ele><time>2026-05-01T09:23:23.671Z</time></trkpt><trkpt lat="41.10514" lon="9.4566567"><ele>32.0</ele><time>2026-05-01T09:23:24.67Z</time></trkpt><trkpt lat="41.1049717" lon="9.4566967"><ele>32.0</ele><time>2026-05-01T09:23:25.67Z</time></trkpt><trkpt lat="41.104805" lon="9.4567367"><ele>32.0</ele><time>2026-05-01T09:23:26.67Z</time></trkpt><trkpt lat="41.1046717" lon="9.456765"><ele>30.666666666666664</ele><time>2026-05-01T09:23:27.67Z</time></trkpt><trkpt lat="41.10451" lon="9.4567867"><ele>29.333333333333336</ele><time>2026-05-01T09:23:28.67Z</time></trkpt><trkpt lat="41.104365" lon="9.4568017"><ele>28.0</ele><time>2026-05-01T09:23:29.67Z</time></trkpt><trkpt lat="41.10422" lon="9.4568283"><ele>26.5</ele><time>2026-05-01T09:23:30.671Z</time></trkpt><trkpt lat="41.1040583" lon="9.45685"><ele>25.0</ele><time>2026-05-01T09:23:31.67Z</time></trkpt><trkpt lat="41.1039333" lon="9.4568767"><ele>23.5</ele><time>2026-05-01T09:23:32.67Z</time></trkpt><trkpt lat="41.1037867" lon="9.4568967"><ele>22.0</ele><time>2026-05-01T09:23:33.67Z</time></trkpt><trkpt lat="41.1036433" lon="9.456905"><ele>22.0</ele><time>2026-05-01T09:23:34.67Z</time></trkpt><trkpt lat="41.1034983" lon="9.4569"><ele>22.0</ele><time>2026-05-01T09:23:35.67Z</time></trkpt><trkpt lat="41.103345" lon="9.4568633"><ele>22.0</ele><time>2026-05-01T09:23:36.67Z</time></trkpt><trkpt lat="41.1031933" lon="9.456805"><ele>21.0</ele><time>2026-05-01T09:23:37.67Z</time></trkpt><trkpt lat="41.1030533" lon="9.4566983"><ele>20.0</ele><time>2026-05-01T09:23:38.67Z</time></trkpt><trkpt lat="41.1028967" lon="9.4566017"><ele>19.0</ele><time>2026-05-01T09:23:39.67Z</time></trkpt><trkpt lat="41.10276" lon="9.4564983"><ele>19.0</ele><time>2026-05-01T09:23:40.67Z</time></trkpt><trkpt lat="41.1026633" lon="9.4563833"><ele>19.0</ele><time>2026-05-01T09:23:41.67Z</time></trkpt><trkpt lat="41.1025417" lon="9.45628"><ele>19.0</ele><time>2026-05-01T09:23:42.67Z</time></trkpt><trkpt lat="41.10242" lon="9.4561733"><ele>19.0</ele><time>2026-05-01T09:23:43.67Z</time></trkpt><trkpt lat="41.1022983" lon="9.45607"><ele>17.5</ele><time>2026-05-01T09:23:44.67Z</time></trkpt><trkpt lat="41.1021733" lon="9.45596"><ele>16.0</ele><time>2026-05-01T09:23:45.67Z</time></trkpt><trkpt lat="41.1020583" lon="9.455875"><ele>14.5</ele><time>2026-05-01T09:23:46.67Z</time></trkpt><trkpt lat="41.10193" lon="9.4558133"><ele>13.0</ele><time>2026-05-01T09:23:47.67Z</time></trkpt><trkpt lat="41.1017917" lon="9.4557783"><ele>13.0</ele><time>2026-05-01T09:23:48.67Z</time></trkpt><trkpt lat="41.1016483" lon="9.4557567"><ele>13.0</ele><time>2026-05-01T09:23:49.67Z</time></trkpt><trkpt lat="41.1014933" lon="9.4557383"><ele>13.0</ele><time>2026-05-01T09:23:50.67Z</time></trkpt><trkpt lat="41.101325" lon="9.4557183"><ele>13.333333333333332</ele><time>2026-05-01T09:23:51.67Z</time></trkpt><trkpt lat="41.10116" lon="9.4556967"><ele>13.666666666666668</ele><time>2026-05-01T09:23:52.67Z</time></trkpt><trkpt lat="41.1009933" lon="9.4556883"><ele>14.0</ele><time>2026-05-01T09:23:53.67Z</time></trkpt><trkpt lat="41.1008283" lon="9.4556717"><ele>14.0</ele><time>2026-05-01T09:23:54.67Z</time></trkpt><trkpt lat="41.1006683" lon="9.4556683"><ele>14.0</ele><time>2026-05-01T09:23:55.67Z</time></trkpt><trkpt lat="41.1005033" lon="9.45565"><ele>14.0</ele><time>2026-05-01T09:23:56.67Z</time></trkpt><trkpt lat="41.1003417" lon="9.45563"><ele>14.0</ele><time>2026-05-01T09:23:57.67Z</time></trkpt><trkpt lat="41.1001867" lon="9.4556083"><ele>14.0</ele><time>2026-05-01T09:23:58.67Z</time></trkpt><trkpt lat="41.10004" lon="9.455565"><ele>14.0</ele><time>2026-05-01T09:23:59.67Z</time></trkpt><trkpt lat="41.0998917" lon="9.455495"><ele>15.333333333333334</ele><time>2026-05-01T09:24:00.67Z</time></trkpt><trkpt lat="41.09974" lon="9.4554083"><ele>16.666666666666668</ele><time>2026-05-01T09:24:01.67Z</time></trkpt><trkpt lat="41.0996117" lon="9.45528"><ele>18.0</ele><time>2026-05-01T09:24:02.67Z</time></trkpt><trkpt lat="41.09947" lon="9.4551283"><ele>18.0</ele><time>2026-05-01T09:24:03.67Z</time></trkpt><trkpt lat="41.0993517" lon="9.45494"><ele>18.0</ele><time>2026-05-01T09:24:04.67Z</time></trkpt><trkpt lat="41.0992367" lon="9.4547583"><ele>18.0</ele><time>2026-05-01T09:24:05.67Z</time></trkpt><trkpt lat="41.0991283" lon="9.4545583"><ele>17.666666666666668</ele><time>2026-05-01T09:24:06.67Z</time></trkpt><trkpt lat="41.099025" lon="9.4543717"><ele>17.333333333333336</ele><time>2026-05-01T09:24:07.67Z</time></trkpt><trkpt lat="41.0989117" lon="9.45421"><ele>17.0</ele><time>2026-05-01T09:24:08.67Z</time></trkpt><trkpt lat="41.0987867" lon="9.454055"><ele>17.0</ele><time>2026-05-01T09:24:09.67Z</time></trkpt><trkpt lat="41.0986583" lon="9.4539267"><ele>17.0</ele><time>2026-05-01T09:24:10.67Z</time></trkpt><trkpt lat="41.0985133" lon="9.4538333"><ele>17.0</ele><time>2026-05-01T09:24:11.67Z</time></trkpt><trkpt lat="41.0983433" lon="9.4537667"><ele>16.333333333333336</ele><time>2026-05-01T09:24:12.67Z</time></trkpt><trkpt lat="41.0982" lon="9.4537067"><ele>15.666666666666668</ele><time>2026-05-01T09:24:13.67Z</time></trkpt><trkpt lat="41.0980417" lon="9.4536583"><ele>15.0</ele><time>2026-05-01T09:24:14.67Z</time></trkpt><trkpt lat="41.0978567" lon="9.453635"><ele>15.0</ele><time>2026-05-01T09:24:15.67Z</time></trkpt><trkpt lat="41.09768" lon="9.4535833"><ele>15.0</ele><time>2026-05-01T09:24:16.67Z</time></trkpt><trkpt lat="41.0975083" lon="9.453525"><ele>15.0</ele><time>2026-05-01T09:24:17.67Z</time></trkpt><trkpt lat="41.0973517" lon="9.4534633"><ele>15.666666666666668</ele><time>2026-05-01T09:24:18.67Z</time></trkpt><trkpt lat="41.0972" lon="9.4534067"><ele>16.333333333333336</ele><time>2026-05-01T09:24:19.67Z</time></trkpt><trkpt lat="41.0970417" lon="9.4533533"><ele>17.0</ele><time>2026-05-01T09:24:20.67Z</time></trkpt><trkpt lat="41.096875" lon="9.4532983"><ele>17.0</ele><time>2026-05-01T09:24:21.67Z</time></trkpt><trkpt lat="41.09671" lon="9.4532433"><ele>17.0</ele><time>2026-05-01T09:24:22.67Z</time></trkpt><trkpt lat="41.0965517" lon="9.453185"><ele>17.0</ele><time>2026-05-01T09:24:23.67Z</time></trkpt><trkpt lat="41.0963933" lon="9.4531233"><ele>17.333333333333336</ele><time>2026-05-01T09:24:24.67Z</time></trkpt><trkpt lat="41.0962333" lon="9.453065"><ele>17.666666666666668</ele><time>2026-05-01T09:24:25.67Z</time></trkpt><trkpt lat="41.0960683" lon="9.4530067"><ele>18.0</ele><time>2026-05-01T09:24:26.67Z</time></trkpt><trkpt lat="41.0959033" lon="9.45295"><ele>17.333333333333332</ele><time>2026-05-01T09:24:27.67Z</time></trkpt><trkpt lat="41.095735" lon="9.4528867"><ele>16.666666666666664</ele><time>2026-05-01T09:24:28.67Z</time></trkpt><trkpt lat="41.095575" lon="9.4528183"><ele>16.0</ele><time>2026-05-01T09:24:29.67Z</time></trkpt><trkpt lat="41.0954183" lon="9.4527517"><ele>16.0</ele><time>2026-05-01T09:24:30.67Z</time></trkpt><trkpt lat="41.0952583" lon="9.4526883"><ele>16.0</ele><time>2026-05-01T09:24:31.67Z</time></trkpt><trkpt lat="41.0951033" lon="9.4526333"><ele>16.0</ele><time>2026-05-01T09:24:32.67Z</time></trkpt><trkpt lat="41.094935" lon="9.4525633"><ele>17.333333333333332</ele><time>2026-05-01T09:24:33.67Z</time></trkpt><trkpt lat="41.0947767" lon="9.4524867"><ele>18.666666666666668</ele><time>2026-05-01T09:24:34.67Z</time></trkpt><trkpt lat="41.0946183" lon="9.45242"><ele>20.0</ele><time>2026-05-01T09:24:35.67Z</time></trkpt><trkpt lat="41.0944717" lon="9.4523483"><ele>20.0</ele><time>2026-05-01T09:24:36.67Z</time></trkpt><trkpt lat="41.0943183" lon="9.4522717"><ele>20.0</ele><time>2026-05-01T09:24:37.67Z</time></trkpt><trkpt lat="41.0941633" lon="9.4521983"><ele>20.0</ele><time>2026-05-01T09:24:38.67Z</time></trkpt><trkpt lat="41.0940217" lon="9.4521217"><ele>18.666666666666668</ele><time>2026-05-01T09:24:39.67Z</time></trkpt><trkpt lat="41.0938617" lon="9.4520633"><ele>17.333333333333332</ele><time>2026-05-01T09:24:40.67Z</time></trkpt><trkpt lat="41.0937167" lon="9.4519917"><ele>16.0</ele><time>2026-05-01T09:24:41.67Z</time></trkpt><trkpt lat="41.0935617" lon="9.4519233"><ele>16.0</ele><time>2026-05-01T09:24:42.67Z</time></trkpt><trkpt lat="41.0933967" lon="9.45187"><ele>16.0</ele><time>2026-05-01T09:24:43.67Z</time></trkpt><trkpt lat="41.093245" lon="9.4518267"><ele>16.0</ele><time>2026-05-01T09:24:44.671Z</time></trkpt><trkpt lat="41.0931017" lon="9.451805"><ele>16.333333333333332</ele><time>2026-05-01T09:24:45.67Z</time></trkpt><trkpt lat="41.0929617" lon="9.4518333"><ele>16.666666666666668</ele><time>2026-05-01T09:24:46.67Z</time></trkpt><trkpt lat="41.092805" lon="9.4518983"><ele>17.0</ele><time>2026-05-01T09:24:47.67Z</time></trkpt><trkpt lat="41.0926367" lon="9.4519917"><ele>17.0</ele><time>2026-05-01T09:24:48.67Z</time></trkpt><trkpt lat="41.0924817" lon="9.452085"><ele>17.0</ele><time>2026-05-01T09:24:49.67Z</time></trkpt><trkpt lat="41.0923283" lon="9.4521817"><ele>17.0</ele><time>2026-05-01T09:24:50.67Z</time></trkpt><trkpt lat="41.0921867" lon="9.4522783"><ele>18.666666666666668</ele><time>2026-05-01T09:24:51.67Z</time></trkpt><trkpt lat="41.09203" lon="9.4523717"><ele>20.333333333333332</ele><time>2026-05-01T09:24:52.67Z</time></trkpt><trkpt lat="41.0918933" lon="9.4525067"><ele>22.0</ele><time>2026-05-01T09:24:53.67Z</time></trkpt><trkpt lat="41.0917683" lon="9.4526467"><ele>22.0</ele><time>2026-05-01T09:24:54.67Z</time></trkpt><trkpt lat="41.09164" lon="9.4527717"><ele>22.0</ele><time>2026-05-01T09:24:55.67Z</time></trkpt><trkpt lat="41.0915117" lon="9.4528883"><ele>22.0</ele><time>2026-05-01T09:24:56.67Z</time></trkpt><trkpt lat="41.0913767" lon="9.4529917"><ele>23.333333333333332</ele><time>2026-05-01T09:24:57.67Z</time></trkpt><trkpt lat="41.0912267" lon="9.4530717"><ele>24.666666666666664</ele><time>2026-05-01T09:24:58.67Z</time></trkpt><trkpt lat="41.0910767" lon="9.453125"><ele>26.0</ele><time>2026-05-01T09:24:59.67Z</time></trkpt><trkpt lat="41.0909217" lon="9.4531517"><ele>25.666666666666664</ele><time>2026-05-01T09:25:00.67Z</time></trkpt><trkpt lat="41.0907433" lon="9.4531533"><ele>25.333333333333336</ele><time>2026-05-01T09:25:01.67Z</time></trkpt><trkpt lat="41.0905567" lon="9.453145"><ele>25.0</ele><time>2026-05-01T09:25:02.67Z</time></trkpt><trkpt lat="41.090395" lon="9.453155"><ele>25.0</ele><time>2026-05-01T09:25:03.67Z</time></trkpt><trkpt lat="41.0902483" lon="9.4531783"><ele>25.0</ele><time>2026-05-01T09:25:04.67Z</time></trkpt><trkpt lat="41.0900783" lon="9.453195"><ele>25.0</ele><time>2026-05-01T09:25:05.67Z</time></trkpt><trkpt lat="41.0899217" lon="9.45321"><ele>23.333333333333336</ele><time>2026-05-01T09:25:06.67Z</time></trkpt><trkpt lat="41.0897533" lon="9.4532433"><ele>21.666666666666668</ele><time>2026-05-01T09:25:07.67Z</time></trkpt><trkpt lat="41.0896017" lon="9.4533017"><ele>20.0</ele><time>2026-05-01T09:25:08.67Z</time></trkpt><trkpt lat="41.0894283" lon="9.45336"><ele>20.0</ele><time>2026-05-01T09:25:09.67Z</time></trkpt><trkpt lat="41.0892617" lon="9.4534467"><ele>20.0</ele><time>2026-05-01T09:25:10.67Z</time></trkpt><trkpt lat="41.089095" lon="9.4535233"><ele>20.0</ele><time>2026-05-01T09:25:11.67Z</time></trkpt><trkpt lat="41.0889483" lon="9.4536167"><ele>19.666666666666668</ele><time>2026-05-01T09:25:12.67Z</time></trkpt><trkpt lat="41.0888067" lon="9.4537133"><ele>19.333333333333332</ele><time>2026-05-01T09:25:13.67Z</time></trkpt><trkpt lat="41.0886567" lon="9.453775"><ele>19.0</ele><time>2026-05-01T09:25:14.67Z</time></trkpt><trkpt lat="41.08852" lon="9.4538633"><ele>19.0</ele><time>2026-05-01T09:25:15.67Z</time></trkpt><trkpt lat="41.0883833" lon="9.4539167"><ele>19.0</ele><time>2026-05-01T09:25:16.671Z</time></trkpt><trkpt lat="41.088255" lon="9.4539717"><ele>19.0</ele><time>2026-05-01T09:25:17.67Z</time></trkpt><trkpt lat="41.0881217" lon="9.4540117"><ele>19.0</ele><time>2026-05-01T09:25:18.67Z</time></trkpt><trkpt lat="41.0879833" lon="9.45403"><ele>19.666666666666664</ele><time>2026-05-01T09:25:19.67Z</time></trkpt><trkpt lat="41.0878167" lon="9.453995"><ele>20.333333333333332</ele><time>2026-05-01T09:25:20.67Z</time></trkpt><trkpt lat="41.0876567" lon="9.4539"><ele>21.0</ele><time>2026-05-01T09:25:21.67Z</time></trkpt><trkpt lat="41.087515" lon="9.4537867"><ele>21.0</ele><time>2026-05-01T09:25:22.67Z</time></trkpt><trkpt lat="41.0873717" lon="9.453685"><ele>21.0</ele><time>2026-05-01T09:25:23.67Z</time></trkpt><trkpt lat="41.0872317" lon="9.4535583"><ele>21.0</ele><time>2026-05-01T09:25:24.67Z</time></trkpt><trkpt lat="41.0870883" lon="9.4534517"><ele>21.0</ele><time>2026-05-01T09:25:25.67Z</time></trkpt><trkpt lat="41.086945" lon="9.4533533"><ele>21.0</ele><time>2026-05-01T09:25:26.67Z</time></trkpt><trkpt lat="41.0868033" lon="9.4532683"><ele>21.0</ele><time>2026-05-01T09:25:27.67Z</time></trkpt><trkpt lat="41.0866517" lon="9.4532117"><ele>21.0</ele><time>2026-05-01T09:25:28.67Z</time></trkpt><trkpt lat="41.0865083" lon="9.45319"><ele>21.0</ele><time>2026-05-01T09:25:29.671Z</time></trkpt><trkpt lat="41.0863817" lon="9.4531883"><ele>21.0</ele><time>2026-05-01T09:25:30.67Z</time></trkpt><trkpt lat="41.0862467" lon="9.4532367"><ele>21.0</ele><time>2026-05-01T09:25:31.67Z</time></trkpt><trkpt lat="41.08611" lon="9.4533133"><ele>21.0</ele><time>2026-05-01T09:25:32.67Z</time></trkpt><trkpt lat="41.085985" lon="9.4534133"><ele>21.0</ele><time>2026-05-01T09:25:33.67Z</time></trkpt><trkpt lat="41.0858733" lon="9.4535267"><ele>21.0</ele><time>2026-05-01T09:25:34.67Z</time></trkpt><trkpt lat="41.085765" lon="9.45365"><ele>21.0</ele><time>2026-05-01T09:25:35.67Z</time></trkpt><trkpt lat="41.08568" lon="9.4537767"><ele>20.400000000000002</ele><time>2026-05-01T09:25:36.67Z</time></trkpt><trkpt lat="41.08562" lon="9.4539117"><ele>19.8</ele><time>2026-05-01T09:25:37.67Z</time></trkpt><trkpt lat="41.0855533" lon="9.454045"><ele>19.200000000000003</ele><time>2026-05-01T09:25:38.67Z</time></trkpt><trkpt lat="41.0855033" lon="9.45417"><ele>18.6</ele><time>2026-05-01T09:25:39.67Z</time></trkpt><trkpt lat="41.085445" lon="9.4542567"><ele>18.0</ele><time>2026-05-01T09:25:40.67Z</time></trkpt><trkpt lat="41.0853967" lon="9.4543183"><ele>18.0</ele><time>2026-05-01T09:25:41.67Z</time></trkpt><trkpt lat="41.085345" lon="9.4543733"><ele>18.0</ele><time>2026-05-01T09:25:42.67Z</time></trkpt><trkpt lat="41.08521" lon="9.4543767"><ele>18.0</ele><time>2026-05-01T09:25:44.67Z</time></trkpt><trkpt lat="41.085125" lon="9.4543233"><ele>18.0</ele><time>2026-05-01T09:25:45.67Z</time></trkpt><trkpt lat="41.085015" lon="9.4542033"><ele>18.0</ele><time>2026-05-01T09:25:46.671Z</time></trkpt><trkpt lat="41.0848817" lon="9.4540683"><ele>16.333333333333332</ele><time>2026-05-01T09:25:47.67Z</time></trkpt><trkpt lat="41.0847117" lon="9.4539067"><ele>14.666666666666666</ele><time>2026-05-01T09:25:48.67Z</time></trkpt><trkpt lat="41.0845417" lon="9.4537617"><ele>13.0</ele><time>2026-05-01T09:25:49.67Z</time></trkpt><trkpt lat="41.0843583" lon="9.4536167"><ele>13.0</ele><time>2026-05-01T09:25:50.67Z</time></trkpt><trkpt lat="41.0842183" lon="9.4535"><ele>13.0</ele><time>2026-05-01T09:25:51.67Z</time></trkpt><trkpt lat="41.0840683" lon="9.45338"><ele>13.0</ele><time>2026-05-01T09:25:52.67Z</time></trkpt><trkpt lat="41.0839367" lon="9.453255"><ele>11.666666666666666</ele><time>2026-05-01T09:25:53.67Z</time></trkpt><trkpt lat="41.0838233" lon="9.45312"><ele>10.333333333333332</ele><time>2026-05-01T09:25:54.67Z</time></trkpt><trkpt lat="41.0837283" lon="9.4529483"><ele>9.0</ele><time>2026-05-01T09:25:55.67Z</time></trkpt><trkpt lat="41.0836433" lon="9.4527583"><ele>9.0</ele><time>2026-05-01T09:25:56.67Z</time></trkpt><trkpt lat="41.083575" lon="9.45257"><ele>9.0</ele><time>2026-05-01T09:25:57.67Z</time></trkpt><trkpt lat="41.0835067" lon="9.45236"><ele>9.0</ele><time>2026-05-01T09:25:58.67Z</time></trkpt><trkpt lat="41.0834483" lon="9.45218"><ele>8.25</ele><time>2026-05-01T09:25:59.67Z</time></trkpt><trkpt lat="41.0833983" lon="9.4519883"><ele>7.5</ele><time>2026-05-01T09:26:00.67Z</time></trkpt><trkpt lat="41.083345" lon="9.4518217"><ele>6.75</ele><time>2026-05-01T09:26:01.67Z</time></trkpt><trkpt lat="41.08329" lon="9.4516517"><ele>6.0</ele><time>2026-05-01T09:26:02.671Z</time></trkpt><trkpt lat="41.0832333" lon="9.451475"><ele>5.0</ele><time>2026-05-01T09:26:03.67Z</time></trkpt><trkpt lat="41.0831083" lon="9.451135"><ele>4.0</ele><time>2026-05-01T09:26:05.67Z</time></trkpt><trkpt lat="41.08305" lon="9.4509683"><ele>3.0</ele><time>2026-05-01T09:26:06.67Z</time></trkpt><trkpt lat="41.082995" lon="9.4508067"><ele>3.0</ele><time>2026-05-01T09:26:07.67Z</time></trkpt><trkpt lat="41.082935" lon="9.4506567"><ele>3.0</ele><time>2026-05-01T09:26:08.669Z</time></trkpt><trkpt lat="41.082885" lon="9.4504983"><ele>3.0</ele><time>2026-05-01T09:26:09.669Z</time></trkpt><trkpt lat="41.0828367" lon="9.45033"><ele>3.0</ele><time>2026-05-01T09:26:10.669Z</time></trkpt><trkpt lat="41.0827783" lon="9.4501583"><ele>3.0</ele><time>2026-05-01T09:26:11.669Z</time></trkpt><trkpt lat="41.0827267" lon="9.4499717"><ele>3.0</ele><time>2026-05-01T09:26:12.669Z</time></trkpt><trkpt lat="41.082635" lon="9.4496117"><ele>3.0</ele><time>2026-05-01T09:26:14.669Z</time></trkpt><trkpt lat="41.0826033" lon="9.4494333"><ele>2.6666666666666665</ele><time>2026-05-01T09:26:15.669Z</time></trkpt><trkpt lat="41.0825833" lon="9.4492367"><ele>2.333333333333333</ele><time>2026-05-01T09:26:16.669Z</time></trkpt><trkpt lat="41.08257" lon="9.4490183"><ele>2.0</ele><time>2026-05-01T09:26:17.669Z</time></trkpt><trkpt lat="41.0826283" lon="9.4487467"><ele>2.0</ele><time>2026-05-01T09:26:18.669Z</time></trkpt><trkpt lat="41.082645" lon="9.4485333"><ele>2.0</ele><time>2026-05-01T09:26:19.669Z</time></trkpt><trkpt lat="41.0826383" lon="9.4483317"><ele>2.0</ele><time>2026-05-01T09:26:20.669Z</time></trkpt><trkpt lat="41.0826483" lon="9.4481483"><ele>2.0</ele><time>2026-05-01T09:26:21.669Z</time></trkpt><trkpt lat="41.08268" lon="9.4479583"><ele>2.0</ele><time>2026-05-01T09:26:22.669Z</time></trkpt><trkpt lat="41.0827217" lon="9.4477733"><ele>2.0</ele><time>2026-05-01T09:26:23.669Z</time></trkpt><trkpt lat="41.0828017" lon="9.4475883"><ele>2.0</ele><time>2026-05-01T09:26:24.67Z</time></trkpt><trkpt lat="41.0828867" lon="9.4474317"><ele>2.0</ele><time>2026-05-01T09:26:25.669Z</time></trkpt><trkpt lat="41.0829767" lon="9.4472833"><ele>2.0</ele><time>2026-05-01T09:26:26.669Z</time></trkpt><trkpt lat="41.0830533" lon="9.447115"><ele>2.0</ele><time>2026-05-01T09:26:27.669Z</time></trkpt><trkpt lat="41.08311" lon="9.446955"><ele>2.0</ele><time>2026-05-01T09:26:28.669Z</time></trkpt><trkpt lat="41.083165" lon="9.4467717"><ele>2.0</ele><time>2026-05-01T09:26:29.669Z</time></trkpt><trkpt lat="41.0831917" lon="9.4465717"><ele>2.0</ele><time>2026-05-01T09:26:30.669Z</time></trkpt><trkpt lat="41.0831933" lon="9.4463583"><ele>2.6666666666666665</ele><time>2026-05-01T09:26:31.669Z</time></trkpt><trkpt lat="41.0831533" lon="9.44614"><ele>3.333333333333333</ele><time>2026-05-01T09:26:32.669Z</time></trkpt><trkpt lat="41.0831433" lon="9.4459217"><ele>4.0</ele><time>2026-05-01T09:26:33.669Z</time></trkpt><trkpt lat="41.0831267" lon="9.4457033"><ele>4.0</ele><time>2026-05-01T09:26:34.669Z</time></trkpt><trkpt lat="41.0831167" lon="9.4454833"><ele>4.0</ele><time>2026-05-01T09:26:35.669Z</time></trkpt><trkpt lat="41.0831" lon="9.4452667"><ele>4.0</ele><time>2026-05-01T09:26:36.669Z</time></trkpt><trkpt lat="41.08309" lon="9.4450467"><ele>4.0</ele><time>2026-05-01T09:26:37.669Z</time></trkpt><trkpt lat="41.0830783" lon="9.4448333"><ele>4.0</ele><time>2026-05-01T09:26:38.669Z</time></trkpt><trkpt lat="41.08307" lon="9.4446283"><ele>4.0</ele><time>2026-05-01T09:26:39.669Z</time></trkpt><trkpt lat="41.0830667" lon="9.4444133"><ele>3.333333333333333</ele><time>2026-05-01T09:26:40.669Z</time></trkpt><trkpt lat="41.083055" lon="9.4441933"><ele>2.6666666666666665</ele><time>2026-05-01T09:26:41.669Z</time></trkpt><trkpt lat="41.0830633" lon="9.4439733"><ele>2.0</ele><time>2026-05-01T09:26:42.669Z</time></trkpt><trkpt lat="41.0830717" lon="9.44377"><ele>2.0</ele><time>2026-05-01T09:26:43.669Z</time></trkpt><trkpt lat="41.083115" lon="9.44358"><ele>2.0</ele><time>2026-05-01T09:26:44.669Z</time></trkpt><trkpt lat="41.08317" lon="9.4433967"><ele>2.0</ele><time>2026-05-01T09:26:45.669Z</time></trkpt><trkpt lat="41.0832433" lon="9.44323"><ele>2.0</ele><time>2026-05-01T09:26:46.669Z</time></trkpt><trkpt lat="41.0833317" lon="9.4430783"><ele>2.0</ele><time>2026-05-01T09:26:47.669Z</time></trkpt><trkpt lat="41.0834683" lon="9.4429517"><ele>2.0</ele><time>2026-05-01T09:26:48.669Z</time></trkpt><trkpt lat="41.08359" lon="9.4428067"><ele>2.0</ele><time>2026-05-01T09:26:49.669Z</time></trkpt><trkpt lat="41.08371" lon="9.4426733"><ele>2.0</ele><time>2026-05-01T09:26:50.669Z</time></trkpt><trkpt lat="41.0838333" lon="9.442555"><ele>2.0</ele><time>2026-05-01T09:26:51.669Z</time></trkpt><trkpt lat="41.0839483" lon="9.4424217"><ele>2.0</ele><time>2026-05-01T09:26:52.669Z</time></trkpt><trkpt lat="41.0840567" lon="9.4422833"><ele>2.5</ele><time>2026-05-01T09:26:53.669Z</time></trkpt><trkpt lat="41.0841483" lon="9.44214"><ele>3.0</ele><time>2026-05-01T09:26:54.669Z</time></trkpt><trkpt lat="41.0842233" lon="9.4419683"><ele>3.5</ele><time>2026-05-01T09:26:55.669Z</time></trkpt><trkpt lat="41.084275" lon="9.44178"><ele>4.0</ele><time>2026-05-01T09:26:56.669Z</time></trkpt><trkpt lat="41.0842967" lon="9.4415683"><ele>4.0</ele><time>2026-05-01T09:26:57.669Z</time></trkpt><trkpt lat="41.084295" lon="9.4413583"><ele>4.0</ele><time>2026-05-01T09:26:58.669Z</time></trkpt><trkpt lat="41.0842683" lon="9.4411633"><ele>4.0</ele><time>2026-05-01T09:26:59.669Z</time></trkpt><trkpt lat="41.08424" lon="9.4409767"><ele>4.0</ele><time>2026-05-01T09:27:00.669Z</time></trkpt><trkpt lat="41.0842433" lon="9.440785"><ele>4.0</ele><time>2026-05-01T09:27:01.669Z</time></trkpt><trkpt lat="41.08426" lon="9.4405967"><ele>4.0</ele><time>2026-05-01T09:27:02.669Z</time></trkpt><trkpt lat="41.08427" lon="9.440415"><ele>4.0</ele><time>2026-05-01T09:27:03.669Z</time></trkpt><trkpt lat="41.08428" lon="9.4402367"><ele>4.5</ele><time>2026-05-01T09:27:04.669Z</time></trkpt><trkpt lat="41.0842883" lon="9.440055"><ele>5.0</ele><time>2026-05-01T09:27:05.669Z</time></trkpt><trkpt lat="41.0843117" lon="9.4398533"><ele>5.5</ele><time>2026-05-01T09:27:06.669Z</time></trkpt><trkpt lat="41.0843283" lon="9.439665"><ele>6.0</ele><time>2026-05-01T09:27:07.669Z</time></trkpt><trkpt lat="41.0843483" lon="9.4394583"><ele>6.0</ele><time>2026-05-01T09:27:08.669Z</time></trkpt><trkpt lat="41.0843683" lon="9.4392633"><ele>6.0</ele><time>2026-05-01T09:27:09.669Z</time></trkpt><trkpt lat="41.0843817" lon="9.43908"><ele>6.0</ele><time>2026-05-01T09:27:10.669Z</time></trkpt><trkpt lat="41.0844067" lon="9.4388767"><ele>6.0</ele><time>2026-05-01T09:27:11.669Z</time></trkpt><trkpt lat="41.0844267" lon="9.438675"><ele>6.333333333333334</ele><time>2026-05-01T09:27:12.669Z</time></trkpt><trkpt lat="41.08445" lon="9.4384733"><ele>6.666666666666667</ele><time>2026-05-01T09:27:13.669Z</time></trkpt><trkpt lat="41.084485" lon="9.4382767"><ele>7.0</ele><time>2026-05-01T09:27:14.669Z</time></trkpt><trkpt lat="41.084515" lon="9.4380717"><ele>7.666666666666667</ele><time>2026-05-01T09:27:15.669Z</time></trkpt><trkpt lat="41.084545" lon="9.4378633"><ele>8.333333333333334</ele><time>2026-05-01T09:27:16.669Z</time></trkpt><trkpt lat="41.0845667" lon="9.4376633"><ele>9.0</ele><time>2026-05-01T09:27:17.669Z</time></trkpt><trkpt lat="41.08459" lon="9.4374633"><ele>9.0</ele><time>2026-05-01T09:27:18.669Z</time></trkpt><trkpt lat="41.084615" lon="9.4372583"><ele>9.0</ele><time>2026-05-01T09:27:19.669Z</time></trkpt><trkpt lat="41.0846333" lon="9.4370517"><ele>9.0</ele><time>2026-05-01T09:27:20.669Z</time></trkpt><trkpt lat="41.084655" lon="9.4368433"><ele>9.0</ele><time>2026-05-01T09:27:21.669Z</time></trkpt><trkpt lat="41.0846733" lon="9.43663"><ele>9.0</ele><time>2026-05-01T09:27:22.669Z</time></trkpt><trkpt lat="41.0846867" lon="9.4364117"><ele>9.0</ele><time>2026-05-01T09:27:23.669Z</time></trkpt><trkpt lat="41.084705" lon="9.4362"><ele>9.0</ele><time>2026-05-01T09:27:24.669Z</time></trkpt><trkpt lat="41.08472" lon="9.4359967"><ele>9.0</ele><time>2026-05-01T09:27:25.669Z</time></trkpt><trkpt lat="41.0847283" lon="9.4358"><ele>9.0</ele><time>2026-05-01T09:27:26.669Z</time></trkpt><trkpt lat="41.0847517" lon="9.4355933"><ele>9.5</ele><time>2026-05-01T09:27:27.669Z</time></trkpt><trkpt lat="41.0847783" lon="9.4354017"><ele>10.0</ele><time>2026-05-01T09:27:28.669Z</time></trkpt><trkpt lat="41.0847967" lon="9.4352333"><ele>10.5</ele><time>2026-05-01T09:27:29.669Z</time></trkpt><trkpt lat="41.0848133" lon="9.4350617"><ele>11.0</ele><time>2026-05-01T09:27:30.67Z</time></trkpt><trkpt lat="41.08482" lon="9.4349033"><ele>11.0</ele><time>2026-05-01T09:27:31.669Z</time></trkpt><trkpt lat="41.08482" lon="9.4347767"><ele>11.0</ele><time>2026-05-01T09:27:32.669Z</time></trkpt><trkpt lat="41.084835" lon="9.4346533"><ele>11.0</ele><time>2026-05-01T09:27:33.669Z</time></trkpt><trkpt lat="41.0848467" lon="9.4345433"><ele>11.0</ele><time>2026-05-01T09:27:34.669Z</time></trkpt><trkpt lat="41.0848583" lon="9.434445"><ele>11.0</ele><time>2026-05-01T09:27:35.669Z</time></trkpt><trkpt lat="41.0848867" lon="9.434295"><ele>11.4</ele><time>2026-05-01T09:27:37.669Z</time></trkpt><trkpt lat="41.0849083" lon="9.4342033"><ele>11.8</ele><time>2026-05-01T09:27:39.669Z</time></trkpt><trkpt lat="41.0848867" lon="9.4340967"><ele>12.200000000000001</ele><time>2026-05-01T09:27:48.67Z</time></trkpt><trkpt lat="41.08479" lon="9.4340433"><ele>12.600000000000001</ele><time>2026-05-01T09:27:50.669Z</time></trkpt><trkpt lat="41.0846967" lon="9.434035"><ele>13.0</ele><time>2026-05-01T09:27:51.669Z</time></trkpt><trkpt lat="41.084575" lon="9.4340317"><ele>13.0</ele><time>2026-05-01T09:27:52.669Z</time></trkpt><trkpt lat="41.0844667" lon="9.434025"><ele>13.0</ele><time>2026-05-01T09:27:53.669Z</time></trkpt><trkpt lat="41.0843383" lon="9.434"><ele>13.0</ele><time>2026-05-01T09:27:54.669Z</time></trkpt><trkpt lat="41.0842017" lon="9.4339633"><ele>13.0</ele><time>2026-05-01T09:27:55.669Z</time></trkpt><trkpt lat="41.0840733" lon="9.4339183"><ele>13.0</ele><time>2026-05-01T09:27:56.669Z</time></trkpt><trkpt lat="41.0839417" lon="9.433835"><ele>13.0</ele><time>2026-05-01T09:27:57.669Z</time></trkpt><trkpt lat="41.083845" lon="9.4337117"><ele>13.0</ele><time>2026-05-01T09:27:58.669Z</time></trkpt><trkpt lat="41.0837383" lon="9.43361"><ele>13.0</ele><time>2026-05-01T09:27:59.669Z</time></trkpt><trkpt lat="41.083635" lon="9.4335183"><ele>13.0</ele><time>2026-05-01T09:28:00.669Z</time></trkpt><trkpt lat="41.0835183" lon="9.4334467"><ele>13.0</ele><time>2026-05-01T09:28:01.669Z</time></trkpt><trkpt lat="41.083405" lon="9.4333417"><ele>13.0</ele><time>2026-05-01T09:28:02.669Z</time></trkpt><trkpt lat="41.0832933" lon="9.4332517"><ele>13.0</ele><time>2026-05-01T09:28:03.669Z</time></trkpt><trkpt lat="41.0831817" lon="9.4331567"><ele>13.25</ele><time>2026-05-01T09:28:04.669Z</time></trkpt><trkpt lat="41.0830733" lon="9.4330683"><ele>13.5</ele><time>2026-05-01T09:28:05.669Z</time></trkpt><trkpt lat="41.082955" lon="9.4329633"><ele>13.75</ele><time>2026-05-01T09:28:06.669Z</time></trkpt><trkpt lat="41.0828467" lon="9.4328717"><ele>14.0</ele><time>2026-05-01T09:28:07.669Z</time></trkpt><trkpt lat="41.0827333" lon="9.43278"><ele>14.0</ele><time>2026-05-01T09:28:08.669Z</time></trkpt><trkpt lat="41.0826183" lon="9.4326833"><ele>14.0</ele><time>2026-05-01T09:28:09.67Z</time></trkpt><trkpt lat="41.0825067" lon="9.4325917"><ele>14.0</ele><time>2026-05-01T09:28:10.669Z</time></trkpt><trkpt lat="41.0823883" lon="9.43249"><ele>14.0</ele><time>2026-05-01T09:28:11.669Z</time></trkpt><trkpt lat="41.082255" lon="9.4324067"><ele>14.0</ele><time>2026-05-01T09:28:12.669Z</time></trkpt><trkpt lat="41.0821367" lon="9.4323083"><ele>14.0</ele><time>2026-05-01T09:28:13.669Z</time></trkpt><trkpt lat="41.0820083" lon="9.4322217"><ele>14.0</ele><time>2026-05-01T09:28:14.669Z</time></trkpt><trkpt lat="41.0818733" lon="9.4321383"><ele>14.0</ele><time>2026-05-01T09:28:15.669Z</time></trkpt><trkpt lat="41.08173" lon="9.432055"><ele>15.333333333333334</ele><time>2026-05-01T09:28:16.669Z</time></trkpt><trkpt lat="41.0815883" lon="9.4319683"><ele>16.666666666666668</ele><time>2026-05-01T09:28:17.669Z</time></trkpt><trkpt lat="41.08144" lon="9.4318817"><ele>18.0</ele><time>2026-05-01T09:28:18.669Z</time></trkpt><trkpt lat="41.0812883" lon="9.4317983"><ele>18.0</ele><time>2026-05-01T09:28:19.669Z</time></trkpt><trkpt lat="41.0811317" lon="9.4317383"><ele>18.0</ele><time>2026-05-01T09:28:20.669Z</time></trkpt><trkpt lat="41.0809833" lon="9.4316533"><ele>18.0</ele><time>2026-05-01T09:28:21.669Z</time></trkpt><trkpt lat="41.0808483" lon="9.4315733"><ele>17.0</ele><time>2026-05-01T09:28:22.669Z</time></trkpt><trkpt lat="41.0806983" lon="9.4315067"><ele>16.0</ele><time>2026-05-01T09:28:23.669Z</time></trkpt><trkpt lat="41.080535" lon="9.4314283"><ele>15.0</ele><time>2026-05-01T09:28:24.669Z</time></trkpt><trkpt lat="41.0803883" lon="9.43137"><ele>15.0</ele><time>2026-05-01T09:28:25.669Z</time></trkpt><trkpt lat="41.08024" lon="9.43132"><ele>15.0</ele><time>2026-05-01T09:28:26.669Z</time></trkpt><trkpt lat="41.0800917" lon="9.4312617"><ele>15.0</ele><time>2026-05-01T09:28:27.669Z</time></trkpt><trkpt lat="41.0799383" lon="9.431205"><ele>16.0</ele><time>2026-05-01T09:28:28.669Z</time></trkpt><trkpt lat="41.0797833" lon="9.43116"><ele>17.0</ele><time>2026-05-01T09:28:29.669Z</time></trkpt><trkpt lat="41.07963" lon="9.4311183"><ele>18.0</ele><time>2026-05-01T09:28:30.669Z</time></trkpt><trkpt lat="41.07947" lon="9.431085"><ele>18.0</ele><time>2026-05-01T09:28:31.669Z</time></trkpt><trkpt lat="41.0793067" lon="9.43105"><ele>18.0</ele><time>2026-05-01T09:28:32.669Z</time></trkpt><trkpt lat="41.07916" lon="9.43102"><ele>18.0</ele><time>2026-05-01T09:28:33.669Z</time></trkpt><trkpt lat="41.079015" lon="9.4309933"><ele>17.25</ele><time>2026-05-01T09:28:34.669Z</time></trkpt><trkpt lat="41.07888" lon="9.4309667"><ele>16.5</ele><time>2026-05-01T09:28:35.669Z</time></trkpt><trkpt lat="41.0787633" lon="9.4309417"><ele>15.75</ele><time>2026-05-01T09:28:36.669Z</time></trkpt><trkpt lat="41.0786583" lon="9.43092"><ele>15.0</ele><time>2026-05-01T09:28:37.669Z</time></trkpt><trkpt lat="41.078545" lon="9.430885"><ele>15.0</ele><time>2026-05-01T09:28:38.669Z</time></trkpt><trkpt lat="41.0784333" lon="9.4308533"><ele>15.0</ele><time>2026-05-01T09:28:39.669Z</time></trkpt><trkpt lat="41.078325" lon="9.4308117"><ele>15.0</ele><time>2026-05-01T09:28:40.669Z</time></trkpt><trkpt lat="41.078215" lon="9.43076"><ele>15.0</ele><time>2026-05-01T09:28:41.669Z</time></trkpt><trkpt lat="41.07811" lon="9.4306967"><ele>15.2</ele><time>2026-05-01T09:28:42.669Z</time></trkpt><trkpt lat="41.0780017" lon="9.4306433"><ele>15.4</ele><time>2026-05-01T09:28:43.669Z</time></trkpt><trkpt lat="41.0778983" lon="9.4305917"><ele>15.600000000000001</ele><time>2026-05-01T09:28:44.669Z</time></trkpt><trkpt lat="41.077815" lon="9.4305167"><ele>15.8</ele><time>2026-05-01T09:28:45.669Z</time></trkpt><trkpt lat="41.077725" lon="9.4304483"><ele>16.0</ele><time>2026-05-01T09:28:46.669Z</time></trkpt><trkpt lat="41.0776333" lon="9.4303867"><ele>16.0</ele><time>2026-05-01T09:28:47.669Z</time></trkpt><trkpt lat="41.07754" lon="9.4303167"><ele>16.0</ele><time>2026-05-01T09:28:48.669Z</time></trkpt><trkpt lat="41.07743" lon="9.43024"><ele>16.0</ele><time>2026-05-01T09:28:49.669Z</time></trkpt><trkpt lat="41.0773217" lon="9.430155"><ele>16.0</ele><time>2026-05-01T09:28:50.669Z</time></trkpt><trkpt lat="41.0771833" lon="9.4300683"><ele>15.0</ele><time>2026-05-01T09:28:51.669Z</time></trkpt><trkpt lat="41.077045" lon="9.4299867"><ele>14.0</ele><time>2026-05-01T09:28:52.669Z</time></trkpt><trkpt lat="41.0768983" lon="9.4299067"><ele>13.0</ele><time>2026-05-01T09:28:53.669Z</time></trkpt><trkpt lat="41.0767617" lon="9.4298183"><ele>13.0</ele><time>2026-05-01T09:28:54.669Z</time></trkpt><trkpt lat="41.07662" lon="9.4297117"><ele>13.0</ele><time>2026-05-01T09:28:55.669Z</time></trkpt><trkpt lat="41.0764717" lon="9.4296017"><ele>13.0</ele><time>2026-05-01T09:28:56.669Z</time></trkpt><trkpt lat="41.0763467" lon="9.429465"><ele>13.0</ele><time>2026-05-01T09:28:57.669Z</time></trkpt><trkpt lat="41.076225" lon="9.4293317"><ele>13.0</ele><time>2026-05-01T09:28:58.669Z</time></trkpt><trkpt lat="41.07611" lon="9.429175"><ele>13.0</ele><time>2026-05-01T09:28:59.669Z</time></trkpt><trkpt lat="41.0759833" lon="9.4290267"><ele>13.0</ele><time>2026-05-01T09:29:00.669Z</time></trkpt><trkpt lat="41.0758517" lon="9.4288717"><ele>13.0</ele><time>2026-05-01T09:29:01.669Z</time></trkpt><trkpt lat="41.0757367" lon="9.42872"><ele>13.0</ele><time>2026-05-01T09:29:02.669Z</time></trkpt><trkpt lat="41.0756217" lon="9.4285867"><ele>13.25</ele><time>2026-05-01T09:29:03.669Z</time></trkpt><trkpt lat="41.07549" lon="9.4284683"><ele>13.5</ele><time>2026-05-01T09:29:04.669Z</time></trkpt><trkpt lat="41.075385" lon="9.42835"><ele>13.75</ele><time>2026-05-01T09:29:05.669Z</time></trkpt><trkpt lat="41.0752767" lon="9.428215"><ele>14.0</ele><time>2026-05-01T09:29:06.669Z</time></trkpt><trkpt lat="41.0751633" lon="9.4280767"><ele>13.333333333333334</ele><time>2026-05-01T09:29:07.669Z</time></trkpt><trkpt lat="41.0750433" lon="9.4279317"><ele>12.666666666666668</ele><time>2026-05-01T09:29:08.669Z</time></trkpt><trkpt lat="41.0749233" lon="9.4278033"><ele>12.0</ele><time>2026-05-01T09:29:09.669Z</time></trkpt><trkpt lat="41.0748017" lon="9.4276767"><ele>12.0</ele><time>2026-05-01T09:29:10.669Z</time></trkpt><trkpt lat="41.07467" lon="9.4275667"><ele>12.0</ele><time>2026-05-01T09:29:11.669Z</time></trkpt><trkpt lat="41.0745367" lon="9.4274317"><ele>12.0</ele><time>2026-05-01T09:29:12.669Z</time></trkpt><trkpt lat="41.0744083" lon="9.4273033"><ele>12.0</ele><time>2026-05-01T09:29:13.669Z</time></trkpt><trkpt lat="41.0742817" lon="9.4271667"><ele>12.0</ele><time>2026-05-01T09:29:14.669Z</time></trkpt><trkpt lat="41.0741583" lon="9.4270333"><ele>12.0</ele><time>2026-05-01T09:29:15.669Z</time></trkpt><trkpt lat="41.0740233" lon="9.426915"><ele>11.0</ele><time>2026-05-01T09:29:16.669Z</time></trkpt><trkpt lat="41.0739217" lon="9.426765"><ele>10.0</ele><time>2026-05-01T09:29:17.669Z</time></trkpt><trkpt lat="41.0738017" lon="9.4266183"><ele>9.0</ele><time>2026-05-01T09:29:18.669Z</time></trkpt><trkpt lat="41.0736683" lon="9.4264767"><ele>9.0</ele><time>2026-05-01T09:29:19.669Z</time></trkpt><trkpt lat="41.0735233" lon="9.42635"><ele>9.0</ele><time>2026-05-01T09:29:20.669Z</time></trkpt><trkpt lat="41.07339" lon="9.4262267"><ele>9.0</ele><time>2026-05-01T09:29:21.669Z</time></trkpt><trkpt lat="41.0732617" lon="9.42609"><ele>8.666666666666666</ele><time>2026-05-01T09:29:22.669Z</time></trkpt><trkpt lat="41.07314" lon="9.425945"><ele>8.333333333333332</ele><time>2026-05-01T09:29:23.669Z</time></trkpt><trkpt lat="41.0730267" lon="9.42578"><ele>8.0</ele><time>2026-05-01T09:29:24.669Z</time></trkpt><trkpt lat="41.072915" lon="9.42564"><ele>9.333333333333332</ele><time>2026-05-01T09:29:25.669Z</time></trkpt><trkpt lat="41.0728233" lon="9.4254717"><ele>10.666666666666666</ele><time>2026-05-01T09:29:26.669Z</time></trkpt><trkpt lat="41.07273" lon="9.4253133"><ele>12.0</ele><time>2026-05-01T09:29:27.669Z</time></trkpt><trkpt lat="41.0726467" lon="9.425135"><ele>12.0</ele><time>2026-05-01T09:29:28.669Z</time></trkpt><trkpt lat="41.0725667" lon="9.424965"><ele>12.0</ele><time>2026-05-01T09:29:29.669Z</time></trkpt><trkpt lat="41.072485" lon="9.4247683"><ele>12.0</ele><time>2026-05-01T09:29:30.669Z</time></trkpt><trkpt lat="41.0724067" lon="9.4245433"><ele>11.333333333333334</ele><time>2026-05-01T09:29:31.669Z</time></trkpt><trkpt lat="41.072325" lon="9.424345"><ele>10.666666666666668</ele><time>2026-05-01T09:29:32.669Z</time></trkpt><trkpt lat="41.0722383" lon="9.424155"><ele>10.0</ele><time>2026-05-01T09:29:33.669Z</time></trkpt><trkpt lat="41.0721583" lon="9.42396"><ele>11.666666666666668</ele><time>2026-05-01T09:29:34.669Z</time></trkpt><trkpt lat="41.0720767" lon="9.42375"><ele>13.333333333333334</ele><time>2026-05-01T09:29:35.669Z</time></trkpt><trkpt lat="41.0720033" lon="9.4235517"><ele>15.0</ele><time>2026-05-01T09:29:36.669Z</time></trkpt><trkpt lat="41.0719183" lon="9.4233733"><ele>15.0</ele><time>2026-05-01T09:29:37.669Z</time></trkpt><trkpt lat="41.0718267" lon="9.4232017"><ele>15.0</ele><time>2026-05-01T09:29:38.669Z</time></trkpt><trkpt lat="41.071745" lon="9.4230217"><ele>15.0</ele><time>2026-05-01T09:29:39.669Z</time></trkpt><trkpt lat="41.0716683" lon="9.4228217"><ele>15.0</ele><time>2026-05-01T09:29:40.669Z</time></trkpt><trkpt lat="41.0715767" lon="9.4226217"><ele>15.0</ele><time>2026-05-01T09:29:41.669Z</time></trkpt><trkpt lat="41.0714967" lon="9.42243"><ele>15.0</ele><time>2026-05-01T09:29:42.669Z</time></trkpt><trkpt lat="41.07141" lon="9.4222417"><ele>16.0</ele><time>2026-05-01T09:29:43.669Z</time></trkpt><trkpt lat="41.0713267" lon="9.4220383"><ele>17.0</ele><time>2026-05-01T09:29:44.669Z</time></trkpt><trkpt lat="41.0712417" lon="9.421855"><ele>18.0</ele><time>2026-05-01T09:29:45.669Z</time></trkpt><trkpt lat="41.0711617" lon="9.4216633"><ele>18.0</ele><time>2026-05-01T09:29:46.669Z</time></trkpt><trkpt lat="41.0710883" lon="9.4214617"><ele>18.0</ele><time>2026-05-01T09:29:47.669Z</time></trkpt><trkpt lat="41.071015" lon="9.42127"><ele>18.0</ele><time>2026-05-01T09:29:48.669Z</time></trkpt><trkpt lat="41.07094" lon="9.4210733"><ele>19.0</ele><time>2026-05-01T09:29:49.669Z</time></trkpt><trkpt lat="41.0708767" lon="9.4208733"><ele>20.0</ele><time>2026-05-01T09:29:50.669Z</time></trkpt><trkpt lat="41.0708117" lon="9.4206767"><ele>21.0</ele><time>2026-05-01T09:29:51.669Z</time></trkpt><trkpt lat="41.07073" lon="9.4204917"><ele>19.666666666666668</ele><time>2026-05-01T09:29:52.669Z</time></trkpt><trkpt lat="41.0706667" lon="9.4203133"><ele>18.333333333333336</ele><time>2026-05-01T09:29:53.669Z</time></trkpt><trkpt lat="41.0706033" lon="9.4201217"><ele>17.0</ele><time>2026-05-01T09:29:54.669Z</time></trkpt><trkpt lat="41.0705283" lon="9.4199367"><ele>17.0</ele><time>2026-05-01T09:29:55.669Z</time></trkpt><trkpt lat="41.070445" lon="9.4197467"><ele>17.0</ele><time>2026-05-01T09:29:56.669Z</time></trkpt><trkpt lat="41.070355" lon="9.4195467"><ele>17.0</ele><time>2026-05-01T09:29:57.669Z</time></trkpt><trkpt lat="41.070255" lon="9.419355"><ele>17.666666666666668</ele><time>2026-05-01T09:29:58.669Z</time></trkpt><trkpt lat="41.070165" lon="9.4191717"><ele>18.333333333333332</ele><time>2026-05-01T09:29:59.669Z</time></trkpt><trkpt lat="41.070095" lon="9.4190067"><ele>19.0</ele><time>2026-05-01T09:30:00.669Z</time></trkpt><trkpt lat="41.0700133" lon="9.41884"><ele>17.75</ele><time>2026-05-01T09:30:01.669Z</time></trkpt><trkpt lat="41.0699317" lon="9.4186883"><ele>16.5</ele><time>2026-05-01T09:30:02.669Z</time></trkpt><trkpt lat="41.0698517" lon="9.4185383"><ele>15.25</ele><time>2026-05-01T09:30:03.669Z</time></trkpt><trkpt lat="41.0697633" lon="9.4183967"><ele>14.0</ele><time>2026-05-01T09:30:04.669Z</time></trkpt><trkpt lat="41.06968" lon="9.41827"><ele>14.0</ele><time>2026-05-01T09:30:05.669Z</time></trkpt><trkpt lat="41.0696117" lon="9.4181667"><ele>13.999999999999998</ele><time>2026-05-01T09:30:06.669Z</time></trkpt><trkpt lat="41.06953" lon="9.41806"><ele>13.999999999999998</ele><time>2026-05-01T09:30:07.669Z</time></trkpt><trkpt lat="41.0694367" lon="9.4179817"><ele>14.0</ele><time>2026-05-01T09:30:08.669Z</time></trkpt><trkpt lat="41.0693583" lon="9.4179283"><ele>14.0</ele><time>2026-05-01T09:30:09.67Z</time></trkpt><trkpt lat="41.0692767" lon="9.417875"><ele>14.166666666666668</ele><time>2026-05-01T09:30:10.669Z</time></trkpt><trkpt lat="41.0691917" lon="9.4178467"><ele>14.333333333333334</ele><time>2026-05-01T09:30:11.669Z</time></trkpt><trkpt lat="41.0691067" lon="9.41787"><ele>14.5</ele><time>2026-05-01T09:30:12.669Z</time></trkpt><trkpt lat="41.069045" lon="9.417925"><ele>14.666666666666668</ele><time>2026-05-01T09:30:13.669Z</time></trkpt><trkpt lat="41.0689783" lon="9.41801"><ele>14.833333333333334</ele><time>2026-05-01T09:30:15.669Z</time></trkpt><trkpt lat="41.06897" lon="9.4181017"><ele>15.0</ele><time>2026-05-01T09:30:36.669Z</time></trkpt><trkpt lat="41.0689567" lon="9.418185"><ele>13.75</ele><time>2026-05-01T09:30:37.669Z</time></trkpt><trkpt lat="41.0689383" lon="9.418315"><ele>12.5</ele><time>2026-05-01T09:30:38.669Z</time></trkpt><trkpt lat="41.0689367" lon="9.418495"><ele>11.25</ele><time>2026-05-01T09:30:39.669Z</time></trkpt><trkpt lat="41.0689367" lon="9.4186917"><ele>10.0</ele><time>2026-05-01T09:30:40.669Z</time></trkpt><trkpt lat="41.068925" lon="9.4189067"><ele>10.0</ele><time>2026-05-01T09:30:41.669Z</time></trkpt><trkpt lat="41.0689117" lon="9.4191167"><ele>10.0</ele><time>2026-05-01T09:30:42.669Z</time></trkpt><trkpt lat="41.0688867" lon="9.419335"><ele>10.0</ele><time>2026-05-01T09:30:43.669Z</time></trkpt><trkpt lat="41.06887" lon="9.419575"><ele>10.333333333333334</ele><time>2026-05-01T09:30:44.67Z</time></trkpt><trkpt lat="41.0688367" lon="9.4197783"><ele>10.666666666666666</ele><time>2026-05-01T09:30:45.669Z</time></trkpt><trkpt lat="41.068835" lon="9.42"><ele>11.0</ele><time>2026-05-01T09:30:46.669Z</time></trkpt><trkpt lat="41.0688167" lon="9.420205"><ele>11.0</ele><time>2026-05-01T09:30:47.669Z</time></trkpt><trkpt lat="41.06879" lon="9.42041"><ele>11.0</ele><time>2026-05-01T09:30:48.669Z</time></trkpt><trkpt lat="41.0687783" lon="9.4206283"><ele>11.0</ele><time>2026-05-01T09:30:49.669Z</time></trkpt><trkpt lat="41.0687583" lon="9.4208317"><ele>10.25</ele><time>2026-05-01T09:30:50.669Z</time></trkpt><trkpt lat="41.0687333" lon="9.4210233"><ele>9.5</ele><time>2026-05-01T09:30:51.669Z</time></trkpt><trkpt lat="41.0687" lon="9.4212033"><ele>8.75</ele><time>2026-05-01T09:30:52.669Z</time></trkpt><trkpt lat="41.0686683" lon="9.4214017"><ele>8.0</ele><time>2026-05-01T09:30:53.669Z</time></trkpt><trkpt lat="41.0686333" lon="9.4216033"><ele>7.666666666666666</ele><time>2026-05-01T09:30:54.669Z</time></trkpt><trkpt lat="41.0685983" lon="9.4218067"><ele>7.333333333333334</ele><time>2026-05-01T09:30:55.669Z</time></trkpt><trkpt lat="41.06857" lon="9.422005"><ele>7.0</ele><time>2026-05-01T09:30:56.669Z</time></trkpt><trkpt lat="41.068545" lon="9.42221"><ele>6.666666666666667</ele><time>2026-05-01T09:30:57.669Z</time></trkpt><trkpt lat="41.0685217" lon="9.422415"><ele>6.333333333333334</ele><time>2026-05-01T09:30:58.669Z</time></trkpt><trkpt lat="41.06851" lon="9.422625"><ele>6.0</ele><time>2026-05-01T09:30:59.669Z</time></trkpt><trkpt lat="41.0684867" lon="9.422825"><ele>6.333333333333334</ele><time>2026-05-01T09:31:00.669Z</time></trkpt><trkpt lat="41.0684633" lon="9.4230383"><ele>6.666666666666667</ele><time>2026-05-01T09:31:01.669Z</time></trkpt><trkpt lat="41.0684317" lon="9.4232417"><ele>7.0</ele><time>2026-05-01T09:31:02.669Z</time></trkpt><trkpt lat="41.0684217" lon="9.42343"><ele>7.0</ele><time>2026-05-01T09:31:03.669Z</time></trkpt><trkpt lat="41.0684" lon="9.4236217"><ele>7.0</ele><time>2026-05-01T09:31:04.669Z</time></trkpt><trkpt lat="41.0683617" lon="9.4238117"><ele>7.0</ele><time>2026-05-01T09:31:05.669Z</time></trkpt><trkpt lat="41.0683217" lon="9.4240167"><ele>7.25</ele><time>2026-05-01T09:31:06.669Z</time></trkpt><trkpt lat="41.06829" lon="9.4242133"><ele>7.5</ele><time>2026-05-01T09:31:07.669Z</time></trkpt><trkpt lat="41.0682567" lon="9.4243917"><ele>7.75</ele><time>2026-05-01T09:31:08.67Z</time></trkpt><trkpt lat="41.068225" lon="9.4245567"><ele>8.0</ele><time>2026-05-01T09:31:09.669Z</time></trkpt><trkpt lat="41.0681967" lon="9.4247183"><ele>8.166666666666666</ele><time>2026-05-01T09:31:10.669Z</time></trkpt><trkpt lat="41.0681817" lon="9.424845"><ele>8.333333333333332</ele><time>2026-05-01T09:31:11.669Z</time></trkpt><trkpt lat="41.0681667" lon="9.424965"><ele>8.5</ele><time>2026-05-01T09:31:12.669Z</time></trkpt><trkpt lat="41.06815" lon="9.4250733"><ele>8.666666666666666</ele><time>2026-05-01T09:31:13.669Z</time></trkpt><trkpt lat="41.06813" lon="9.425165"><ele>8.833333333333334</ele><time>2026-05-01T09:31:14.669Z</time></trkpt><trkpt lat="41.06811" lon="9.4252817"><ele>9.0</ele><time>2026-05-01T09:31:16.669Z</time></trkpt><trkpt lat="41.0681717" lon="9.4253017"><ele>9.0</ele><time>2026-05-01T09:31:36.669Z</time></trkpt><trkpt lat="41.0682383" lon="9.42542"><ele>9.0</ele><time>2026-05-01T09:31:38.669Z</time></trkpt><trkpt lat="41.068325" lon="9.42562"><ele>9.0</ele><time>2026-05-01T09:31:40.669Z</time></trkpt><trkpt lat="41.0683617" lon="9.4256983"><ele>9.0</ele><time>2026-05-01T09:31:41.669Z</time></trkpt><trkpt lat="41.0684" lon="9.42577"><ele>9.0</ele><time>2026-05-01T09:31:42.669Z</time></trkpt><trkpt lat="41.06843" lon="9.425955"><ele>9.0</ele><time>2026-05-01T09:31:45.669Z</time></trkpt><trkpt lat="41.0684" lon="9.4260583"><ele>9.0</ele><time>2026-05-01T09:31:47.67Z</time></trkpt><trkpt lat="41.0682933" lon="9.42614"><ele>9.0</ele><time>2026-05-01T09:31:49.67Z</time></trkpt><trkpt lat="41.0681883" lon="9.4261883"><ele>9.0</ele><time>2026-05-01T09:31:51.669Z</time></trkpt><trkpt lat="41.0680583" lon="9.4262383"><ele>8.75</ele><time>2026-05-01T09:31:53.669Z</time></trkpt><trkpt lat="41.0678367" lon="9.4263417"><ele>8.5</ele><time>2026-05-01T09:31:57.669Z</time></trkpt><trkpt lat="41.067775" lon="9.426385"><ele>8.25</ele><time>2026-05-01T09:31:58.669Z</time></trkpt><trkpt lat="41.0677033" lon="9.42642"><ele>8.0</ele><time>2026-05-01T09:31:59.669Z</time></trkpt><trkpt lat="41.0676167" lon="9.4264583"><ele>8.0</ele><time>2026-05-01T09:32:00.67Z</time></trkpt><trkpt lat="41.067525" lon="9.4265033"><ele>8.0</ele><time>2026-05-01T09:32:01.669Z</time></trkpt><trkpt lat="41.0674317" lon="9.4265333"><ele>8.0</ele><time>2026-05-01T09:32:02.669Z</time></trkpt><trkpt lat="41.0673283" lon="9.426565"><ele>8.0</ele><time>2026-05-01T09:32:03.669Z</time></trkpt><trkpt lat="41.0672133" lon="9.4265933"><ele>8.0</ele><time>2026-05-01T09:32:04.669Z</time></trkpt><trkpt lat="41.0670917" lon="9.4266133"><ele>8.5</ele><time>2026-05-01T09:32:05.669Z</time></trkpt><trkpt lat="41.066955" lon="9.4266367"><ele>9.0</ele><time>2026-05-01T09:32:06.669Z</time></trkpt><trkpt lat="41.06683" lon="9.4266567"><ele>9.5</ele><time>2026-05-01T09:32:07.669Z</time></trkpt><trkpt lat="41.066695" lon="9.426675"><ele>10.0</ele><time>2026-05-01T09:32:08.669Z</time></trkpt><trkpt lat="41.0665483" lon="9.4266967"><ele>10.25</ele><time>2026-05-01T09:32:09.669Z</time></trkpt><trkpt lat="41.066405" lon="9.426725"><ele>10.5</ele><time>2026-05-01T09:32:10.669Z</time></trkpt><trkpt lat="41.066245" lon="9.4267233"><ele>10.75</ele><time>2026-05-01T09:32:11.669Z</time></trkpt><trkpt lat="41.0661017" lon="9.42674"><ele>11.0</ele><time>2026-05-01T09:32:12.669Z</time></trkpt><trkpt lat="41.0659533" lon="9.4267517"><ele>11.0</ele><time>2026-05-01T09:32:13.669Z</time></trkpt><trkpt lat="41.0658367" lon="9.4267783"><ele>11.0</ele><time>2026-05-01T09:32:14.669Z</time></trkpt><trkpt lat="41.0657117" lon="9.426805"><ele>11.0</ele><time>2026-05-01T09:32:15.669Z</time></trkpt><trkpt lat="41.0655917" lon="9.4268317"><ele>11.0</ele><time>2026-05-01T09:32:16.669Z</time></trkpt><trkpt lat="41.065475" lon="9.4268633"><ele>10.600000000000001</ele><time>2026-05-01T09:32:17.669Z</time></trkpt><trkpt lat="41.0653583" lon="9.4268867"><ele>10.200000000000001</ele><time>2026-05-01T09:32:18.669Z</time></trkpt><trkpt lat="41.0652617" lon="9.4269183"><ele>9.8</ele><time>2026-05-01T09:32:19.669Z</time></trkpt><trkpt lat="41.0651533" lon="9.4269483"><ele>9.4</ele><time>2026-05-01T09:32:20.669Z</time></trkpt><trkpt lat="41.0650433" lon="9.4269717"><ele>9.0</ele><time>2026-05-01T09:32:21.67Z</time></trkpt><trkpt lat="41.0649417" lon="9.4269933"><ele>9.0</ele><time>2026-05-01T09:32:22.669Z</time></trkpt><trkpt lat="41.06484" lon="9.42701"><ele>9.0</ele><time>2026-05-01T09:32:23.669Z</time></trkpt><trkpt lat="41.0647483" lon="9.4270233"><ele>9.0</ele><time>2026-05-01T09:32:24.669Z</time></trkpt><trkpt lat="41.0646767" lon="9.427045"><ele>9.0</ele><time>2026-05-01T09:32:25.669Z</time></trkpt><trkpt lat="41.0646133" lon="9.427065"><ele>9.0</ele><time>2026-05-01T09:32:26.669Z</time></trkpt><trkpt lat="41.0645167" lon="9.4270967"><ele>9.0</ele><time>2026-05-01T09:32:28.669Z</time></trkpt><trkpt lat="41.064445" lon="9.42711"><ele>9.25</ele><time>2026-05-01T09:32:32.669Z</time></trkpt><trkpt lat="41.0643267" lon="9.42719"><ele>9.5</ele><time>2026-05-01T09:32:35.669Z</time></trkpt><trkpt lat="41.064205" lon="9.4272933"><ele>9.75</ele><time>2026-05-01T09:32:37.669Z</time></trkpt><trkpt lat="41.06413" lon="9.4273583"><ele>10.0</ele><time>2026-05-01T09:32:38.669Z</time></trkpt><trkpt lat="41.0640383" lon="9.4274317"><ele>10.0</ele><time>2026-05-01T09:32:39.669Z</time></trkpt><trkpt lat="41.0639333" lon="9.4275033"><ele>10.0</ele><time>2026-05-01T09:32:40.669Z</time></trkpt><trkpt lat="41.0638167" lon="9.42758"><ele>10.0</ele><time>2026-05-01T09:32:41.669Z</time></trkpt><trkpt lat="41.063695" lon="9.4276483"><ele>10.0</ele><time>2026-05-01T09:32:42.669Z</time></trkpt><trkpt lat="41.063575" lon="9.4277083"><ele>10.0</ele><time>2026-05-01T09:32:43.669Z</time></trkpt><trkpt lat="41.0634533" lon="9.4277833"><ele>10.0</ele><time>2026-05-01T09:32:44.669Z</time></trkpt><trkpt lat="41.063335" lon="9.42785"><ele>10.0</ele><time>2026-05-01T09:32:45.669Z</time></trkpt><trkpt lat="41.0631717" lon="9.4279217"><ele>10.0</ele><time>2026-05-01T09:32:46.669Z</time></trkpt><trkpt lat="41.0630417" lon="9.42798"><ele>10.2</ele><time>2026-05-01T09:32:47.669Z</time></trkpt><trkpt lat="41.0629333" lon="9.4280383"><ele>10.4</ele><time>2026-05-01T09:32:48.669Z</time></trkpt><trkpt lat="41.0628283" lon="9.4280817"><ele>10.600000000000001</ele><time>2026-05-01T09:32:49.669Z</time></trkpt><trkpt lat="41.0627333" lon="9.4281183"><ele>10.8</ele><time>2026-05-01T09:32:50.669Z</time></trkpt><trkpt lat="41.0626133" lon="9.4281417"><ele>11.0</ele><time>2026-05-01T09:32:51.669Z</time></trkpt><trkpt lat="41.062475" lon="9.4281483"><ele>11.25</ele><time>2026-05-01T09:32:52.669Z</time></trkpt><trkpt lat="41.0623333" lon="9.4281483"><ele>11.5</ele><time>2026-05-01T09:32:53.669Z</time></trkpt><trkpt lat="41.062185" lon="9.4281483"><ele>11.75</ele><time>2026-05-01T09:32:54.669Z</time></trkpt><trkpt lat="41.06205" lon="9.4281583"><ele>12.0</ele><time>2026-05-01T09:32:55.669Z</time></trkpt><trkpt lat="41.061905" lon="9.4281933"><ele>12.0</ele><time>2026-05-01T09:32:56.669Z</time></trkpt><trkpt lat="41.0617333" lon="9.42822"><ele>12.0</ele><time>2026-05-01T09:32:57.669Z</time></trkpt><trkpt lat="41.0615667" lon="9.4282467"><ele>12.0</ele><time>2026-05-01T09:32:58.669Z</time></trkpt><trkpt lat="41.0614" lon="9.4282783"><ele>12.25</ele><time>2026-05-01T09:32:59.669Z</time></trkpt><trkpt lat="41.0612467" lon="9.4282983"><ele>12.5</ele><time>2026-05-01T09:33:00.669Z</time></trkpt><trkpt lat="41.0611117" lon="9.4283117"><ele>12.75</ele><time>2026-05-01T09:33:01.669Z</time></trkpt><trkpt lat="41.0609617" lon="9.42833"><ele>13.0</ele><time>2026-05-01T09:33:02.669Z</time></trkpt><trkpt lat="41.0607967" lon="9.42833"><ele>13.0</ele><time>2026-05-01T09:33:03.669Z</time></trkpt><trkpt lat="41.06066" lon="9.4283167"><ele>13.0</ele><time>2026-05-01T09:33:04.67Z</time></trkpt><trkpt lat="41.0605133" lon="9.4282983"><ele>13.0</ele><time>2026-05-01T09:33:05.669Z</time></trkpt><trkpt lat="41.060375" lon="9.4282817"><ele>13.0</ele><time>2026-05-01T09:33:06.669Z</time></trkpt><trkpt lat="41.0602433" lon="9.4282617"><ele>13.0</ele><time>2026-05-01T09:33:07.669Z</time></trkpt><trkpt lat="41.0601283" lon="9.42825"><ele>13.0</ele><time>2026-05-01T09:33:08.669Z</time></trkpt><trkpt lat="41.0600283" lon="9.428255"><ele>13.0</ele><time>2026-05-01T09:33:09.669Z</time></trkpt><trkpt lat="41.059945" lon="9.4283033"><ele>13.0</ele><time>2026-05-01T09:33:10.669Z</time></trkpt><trkpt lat="41.0598583" lon="9.42838"><ele>13.0</ele><time>2026-05-01T09:33:11.669Z</time></trkpt><trkpt lat="41.059775" lon="9.42846"><ele>13.166666666666666</ele><time>2026-05-01T09:33:12.668Z</time></trkpt><trkpt lat="41.0596983" lon="9.4285317"><ele>13.333333333333332</ele><time>2026-05-01T09:33:13.668Z</time></trkpt><trkpt lat="41.059645" lon="9.4286117"><ele>13.5</ele><time>2026-05-01T09:33:14.668Z</time></trkpt><trkpt lat="41.0595967" lon="9.428685"><ele>13.666666666666668</ele><time>2026-05-01T09:33:15.668Z</time></trkpt><trkpt lat="41.0595683" lon="9.4287667"><ele>13.833333333333334</ele><time>2026-05-01T09:33:16.668Z</time></trkpt><trkpt lat="41.0595167" lon="9.428875"><ele>14.0</ele><time>2026-05-01T09:33:18.668Z</time></trkpt><trkpt lat="41.059455" lon="9.4288967"><ele>14.0</ele><time>2026-05-01T09:33:20.668Z</time></trkpt><trkpt lat="41.0593567" lon="9.4287783"><ele>13.999999999999998</ele><time>2026-05-01T09:33:22.668Z</time></trkpt><trkpt lat="41.0592867" lon="9.42871"><ele>13.999999999999998</ele><time>2026-05-01T09:33:23.668Z</time></trkpt><trkpt lat="41.0591983" lon="9.42865"><ele>14.0</ele><time>2026-05-01T09:33:24.668Z</time></trkpt><trkpt lat="41.0591" lon="9.4285933"><ele>14.0</ele><time>2026-05-01T09:33:25.668Z</time></trkpt><trkpt lat="41.0590033" lon="9.4285483"><ele>14.5</ele><time>2026-05-01T09:33:26.668Z</time></trkpt><trkpt lat="41.05888" lon="9.4285017"><ele>15.0</ele><time>2026-05-01T09:33:27.668Z</time></trkpt><trkpt lat="41.058755" lon="9.4284467"><ele>15.5</ele><time>2026-05-01T09:33:28.668Z</time></trkpt><trkpt lat="41.0586433" lon="9.4283783"><ele>16.0</ele><time>2026-05-01T09:33:29.669Z</time></trkpt><trkpt lat="41.0585433" lon="9.4283033"><ele>16.0</ele><time>2026-05-01T09:33:30.668Z</time></trkpt><trkpt lat="41.058445" lon="9.4282283"><ele>16.0</ele><time>2026-05-01T09:33:31.668Z</time></trkpt><trkpt lat="41.0583417" lon="9.4281517"><ele>16.0</ele><time>2026-05-01T09:33:32.668Z</time></trkpt><trkpt lat="41.0582467" lon="9.42809"><ele>16.0</ele><time>2026-05-01T09:33:33.668Z</time></trkpt><trkpt lat="41.058145" lon="9.4280367"><ele>16.0</ele><time>2026-05-01T09:33:34.668Z</time></trkpt><trkpt lat="41.0580383" lon="9.4279817"><ele>16.0</ele><time>2026-05-01T09:33:35.668Z</time></trkpt><trkpt lat="41.0579333" lon="9.4279317"><ele>16.0</ele><time>2026-05-01T09:33:36.668Z</time></trkpt><trkpt lat="41.05782" lon="9.4278933"><ele>16.0</ele><time>2026-05-01T09:33:37.668Z</time></trkpt><trkpt lat="41.0577133" lon="9.4278617"><ele>16.0</ele><time>2026-05-01T09:33:38.668Z</time></trkpt><trkpt lat="41.057605" lon="9.42784"><ele>16.0</ele><time>2026-05-01T09:33:39.668Z</time></trkpt><trkpt lat="41.0575017" lon="9.4277983"><ele>16.400000000000002</ele><time>2026-05-01T09:33:40.669Z</time></trkpt><trkpt lat="41.0574017" lon="9.4277433"><ele>16.8</ele><time>2026-05-01T09:33:41.668Z</time></trkpt><trkpt lat="41.0573033" lon="9.4276683"><ele>17.200000000000003</ele><time>2026-05-01T09:33:42.668Z</time></trkpt><trkpt lat="41.057215" lon="9.42759"><ele>17.6</ele><time>2026-05-01T09:33:43.668Z</time></trkpt><trkpt lat="41.0571267" lon="9.427525"><ele>18.0</ele><time>2026-05-01T09:33:44.668Z</time></trkpt><trkpt lat="41.05702" lon="9.4274783"><ele>18.0</ele><time>2026-05-01T09:33:45.668Z</time></trkpt><trkpt lat="41.0568933" lon="9.4274533"><ele>18.0</ele><time>2026-05-01T09:33:46.668Z</time></trkpt><trkpt lat="41.0567717" lon="9.42741"><ele>18.0</ele><time>2026-05-01T09:33:47.668Z</time></trkpt><trkpt lat="41.0566417" lon="9.4273583"><ele>18.0</ele><time>2026-05-01T09:33:48.668Z</time></trkpt><trkpt lat="41.0565533" lon="9.427265"><ele>18.4</ele><time>2026-05-01T09:33:49.668Z</time></trkpt><trkpt lat="41.0564667" lon="9.4271617"><ele>18.8</ele><time>2026-05-01T09:33:50.668Z</time></trkpt><trkpt lat="41.0564083" lon="9.4270467"><ele>19.2</ele><time>2026-05-01T09:33:51.668Z</time></trkpt><trkpt lat="41.0563417" lon="9.4269367"><ele>19.6</ele><time>2026-05-01T09:33:52.668Z</time></trkpt><trkpt lat="41.05625" lon="9.42683"><ele>20.0</ele><time>2026-05-01T09:33:53.668Z</time></trkpt><trkpt lat="41.0561567" lon="9.4267117"><ele>20.0</ele><time>2026-05-01T09:33:54.668Z</time></trkpt><trkpt lat="41.05603" lon="9.426605"><ele>20.0</ele><time>2026-05-01T09:33:55.669Z</time></trkpt><trkpt lat="41.055945" lon="9.4265067"><ele>20.0</ele><time>2026-05-01T09:33:56.668Z</time></trkpt><trkpt lat="41.0558467" lon="9.4264183"><ele>20.0</ele><time>2026-05-01T09:33:57.668Z</time></trkpt><trkpt lat="41.055755" lon="9.4263483"><ele>20.2</ele><time>2026-05-01T09:33:58.668Z</time></trkpt><trkpt lat="41.0556967" lon="9.4262517"><ele>20.4</ele><time>2026-05-01T09:33:59.668Z</time></trkpt><trkpt lat="41.055655" lon="9.42615"><ele>20.6</ele><time>2026-05-01T09:34:00.668Z</time></trkpt><trkpt lat="41.0556283" lon="9.42604"><ele>20.8</ele><time>2026-05-01T09:34:01.668Z</time></trkpt><trkpt lat="41.05561" lon="9.4259133"><ele>21.0</ele><time>2026-05-01T09:34:02.668Z</time></trkpt><trkpt lat="41.055585" lon="9.425805"><ele>21.0</ele><time>2026-05-01T09:34:03.668Z</time></trkpt><trkpt lat="41.0555633" lon="9.4257117"><ele>21.0</ele><time>2026-05-01T09:34:04.668Z</time></trkpt><trkpt lat="41.0555317" lon="9.4255883"><ele>21.0</ele><time>2026-05-01T09:34:06.668Z</time></trkpt><trkpt lat="41.0555383" lon="9.4254883"><ele>21.0</ele><time>2026-05-01T09:34:14.668Z</time></trkpt><trkpt lat="41.0555083" lon="9.425385"><ele>21.0</ele><time>2026-05-01T09:34:16.668Z</time></trkpt><trkpt lat="41.0554633" lon="9.425225"><ele>20.400000000000002</ele><time>2026-05-01T09:34:18.668Z</time></trkpt><trkpt lat="41.0554117" lon="9.4251317"><ele>19.8</ele><time>2026-05-01T09:34:19.668Z</time></trkpt><trkpt lat="41.0553567" lon="9.425015"><ele>19.200000000000003</ele><time>2026-05-01T09:34:20.668Z</time></trkpt><trkpt lat="41.0552967" lon="9.4249283"><ele>18.6</ele><time>2026-05-01T09:34:21.668Z</time></trkpt><trkpt lat="41.0552367" lon="9.4248467"><ele>18.0</ele><time>2026-05-01T09:34:22.668Z</time></trkpt><trkpt lat="41.055165" lon="9.4247767"><ele>18.0</ele><time>2026-05-01T09:34:23.668Z</time></trkpt><trkpt lat="41.0550983" lon="9.4247133"><ele>18.0</ele><time>2026-05-01T09:34:24.668Z</time></trkpt><trkpt lat="41.055035" lon="9.4246583"><ele>18.0</ele><time>2026-05-01T09:34:25.668Z</time></trkpt><trkpt lat="41.0549783" lon="9.4245867"><ele>18.0</ele><time>2026-05-01T09:34:26.668Z</time></trkpt><trkpt lat="41.0549183" lon="9.4245233"><ele>18.0</ele><time>2026-05-01T09:34:27.668Z</time></trkpt><trkpt lat="41.05486" lon="9.4244617"><ele>18.0</ele><time>2026-05-01T09:34:28.668Z</time></trkpt><trkpt lat="41.054805" lon="9.4244083"><ele>18.0</ele><time>2026-05-01T09:34:29.668Z</time></trkpt><trkpt lat="41.054705" lon="9.4243233"><ele>18.0</ele><time>2026-05-01T09:34:31.668Z</time></trkpt><trkpt lat="41.0546067" lon="9.42424"><ele>18.0</ele><time>2026-05-01T09:34:33.668Z</time></trkpt><trkpt lat="41.0545517" lon="9.4241967"><ele>18.0</ele><time>2026-05-01T09:34:34.668Z</time></trkpt><trkpt lat="41.0544433" lon="9.4241333"><ele>18.0</ele><time>2026-05-01T09:34:36.668Z</time></trkpt><trkpt lat="41.0543867" lon="9.4240867"><ele>18.0</ele><time>2026-05-01T09:34:37.668Z</time></trkpt><trkpt lat="41.05432" lon="9.42404"><ele>18.0</ele><time>2026-05-01T09:34:38.668Z</time></trkpt><trkpt lat="41.054255" lon="9.4239983"><ele>18.0</ele><time>2026-05-01T09:34:39.668Z</time></trkpt><trkpt lat="41.05419" lon="9.4239567"><ele>18.0</ele><time>2026-05-01T09:34:40.668Z</time></trkpt><trkpt lat="41.0541033" lon="9.42392"><ele>18.0</ele><time>2026-05-01T09:34:41.668Z</time></trkpt><trkpt lat="41.0540167" lon="9.4238683"><ele>18.0</ele><time>2026-05-01T09:34:42.668Z</time></trkpt><trkpt lat="41.0539433" lon="9.423815"><ele>18.0</ele><time>2026-05-01T09:34:43.668Z</time></trkpt><trkpt lat="41.05387" lon="9.4237717"><ele>18.0</ele><time>2026-05-01T09:34:44.668Z</time></trkpt><trkpt lat="41.053805" lon="9.4237367"><ele>18.0</ele><time>2026-05-01T09:34:45.668Z</time></trkpt><trkpt lat="41.0537083" lon="9.423685"><ele>18.0</ele><time>2026-05-01T09:34:46.668Z</time></trkpt><trkpt lat="41.0536367" lon="9.42365"><ele>18.0</ele><time>2026-05-01T09:34:47.668Z</time></trkpt><trkpt lat="41.053575" lon="9.4236167"><ele>18.0</ele><time>2026-05-01T09:34:48.668Z</time></trkpt><trkpt lat="41.0535117" lon="9.423585"><ele>18.000000000000004</ele><time>2026-05-01T09:34:49.668Z</time></trkpt><trkpt lat="41.05344" lon="9.4235433"><ele>18.0</ele><time>2026-05-01T09:34:50.668Z</time></trkpt><trkpt lat="41.05338" lon="9.4235083"><ele>18.0</ele><time>2026-05-01T09:34:51.668Z</time></trkpt><trkpt lat="41.0533117" lon="9.42347"><ele>18.0</ele><time>2026-05-01T09:34:52.668Z</time></trkpt><trkpt lat="41.05325" lon="9.4234367"><ele>18.0</ele><time>2026-05-01T09:34:53.668Z</time></trkpt><trkpt lat="41.0531867" lon="9.4234067"><ele>18.000000000000004</ele><time>2026-05-01T09:34:54.668Z</time></trkpt><trkpt lat="41.053125" lon="9.4233717"><ele>18.0</ele><time>2026-05-01T09:34:55.668Z</time></trkpt><trkpt lat="41.0530633" lon="9.4233367"><ele>18.571428571428573</ele><time>2026-05-01T09:34:56.668Z</time></trkpt><trkpt lat="41.053" lon="9.4232933"><ele>19.142857142857142</ele><time>2026-05-01T09:34:57.668Z</time></trkpt><trkpt lat="41.0529333" lon="9.4232583"><ele>19.714285714285715</ele><time>2026-05-01T09:34:58.668Z</time></trkpt><trkpt lat="41.0528633" lon="9.4232083"><ele>20.285714285714285</ele><time>2026-05-01T09:34:59.668Z</time></trkpt><trkpt lat="41.052805" lon="9.4231567"><ele>20.857142857142858</ele><time>2026-05-01T09:35:00.668Z</time></trkpt><trkpt lat="41.0527433" lon="9.4230983"><ele>21.42857142857143</ele><time>2026-05-01T09:35:01.668Z</time></trkpt><trkpt lat="41.0526917" lon="9.4230417"><ele>22.0</ele><time>2026-05-01T09:35:02.668Z</time></trkpt><trkpt lat="41.0526267" lon="9.4229933"><ele>22.0</ele><time>2026-05-01T09:35:03.668Z</time></trkpt><trkpt lat="41.0525617" lon="9.422955"><ele>22.0</ele><time>2026-05-01T09:35:04.668Z</time></trkpt><trkpt lat="41.0525" lon="9.422925"><ele>22.0</ele><time>2026-05-01T09:35:05.668Z</time></trkpt><trkpt lat="41.0524317" lon="9.4228983"><ele>22.0</ele><time>2026-05-01T09:35:06.668Z</time></trkpt><trkpt lat="41.0523617" lon="9.4228517"><ele>22.0</ele><time>2026-05-01T09:35:07.668Z</time></trkpt><trkpt lat="41.0522967" lon="9.422805"><ele>22.0</ele><time>2026-05-01T09:35:08.668Z</time></trkpt><trkpt lat="41.0522417" lon="9.4227417"><ele>22.0</ele><time>2026-05-01T09:35:09.668Z</time></trkpt><trkpt lat="41.0521867" lon="9.4226917"><ele>22.0</ele><time>2026-05-01T09:35:10.668Z</time></trkpt><trkpt lat="41.0521167" lon="9.4226317"><ele>22.0</ele><time>2026-05-01T09:35:11.668Z</time></trkpt><trkpt lat="41.0520533" lon="9.42259"><ele>22.0</ele><time>2026-05-01T09:35:12.668Z</time></trkpt><trkpt lat="41.0519867" lon="9.4225483"><ele>22.0</ele><time>2026-05-01T09:35:13.668Z</time></trkpt><trkpt lat="41.051925" lon="9.4225083"><ele>22.0</ele><time>2026-05-01T09:35:14.668Z</time></trkpt><trkpt lat="41.05187" lon="9.42246"><ele>22.0</ele><time>2026-05-01T09:35:15.668Z</time></trkpt><trkpt lat="41.05181" lon="9.4224133"><ele>22.0</ele><time>2026-05-01T09:35:16.668Z</time></trkpt><trkpt lat="41.0517517" lon="9.422355"><ele>22.0</ele><time>2026-05-01T09:35:17.668Z</time></trkpt><trkpt lat="41.0516933" lon="9.42229"><ele>22.0</ele><time>2026-05-01T09:35:18.668Z</time></trkpt><trkpt lat="41.0516267" lon="9.42223"><ele>22.0</ele><time>2026-05-01T09:35:19.668Z</time></trkpt><trkpt lat="41.0515483" lon="9.4221467"><ele>22.0</ele><time>2026-05-01T09:35:20.668Z</time></trkpt><trkpt lat="41.051465" lon="9.4220733"><ele>22.0</ele><time>2026-05-01T09:35:21.668Z</time></trkpt><trkpt lat="41.05138" lon="9.4220067"><ele>21.666666666666664</ele><time>2026-05-01T09:35:22.668Z</time></trkpt><trkpt lat="41.0513033" lon="9.4219433"><ele>21.333333333333332</ele><time>2026-05-01T09:35:23.668Z</time></trkpt><trkpt lat="41.051235" lon="9.4218933"><ele>21.0</ele><time>2026-05-01T09:35:24.668Z</time></trkpt><trkpt lat="41.05116" lon="9.42184"><ele>20.666666666666668</ele><time>2026-05-01T09:35:25.668Z</time></trkpt><trkpt lat="41.0510833" lon="9.42179"><ele>20.333333333333336</ele><time>2026-05-01T09:35:26.668Z</time></trkpt><trkpt lat="41.051005" lon="9.42174"><ele>20.0</ele><time>2026-05-01T09:35:27.669Z</time></trkpt><trkpt lat="41.0509117" lon="9.4216667"><ele>20.0</ele><time>2026-05-01T09:35:28.668Z</time></trkpt><trkpt lat="41.0508533" lon="9.4215983"><ele>20.0</ele><time>2026-05-01T09:35:29.668Z</time></trkpt><trkpt lat="41.0507917" lon="9.4215183"><ele>20.0</ele><time>2026-05-01T09:35:30.668Z</time></trkpt><trkpt lat="41.0507233" lon="9.4214383"><ele>20.0</ele><time>2026-05-01T09:35:31.668Z</time></trkpt><trkpt lat="41.0506617" lon="9.42136"><ele>20.0</ele><time>2026-05-01T09:35:32.668Z</time></trkpt><trkpt lat="41.050605" lon="9.4212867"><ele>20.0</ele><time>2026-05-01T09:35:33.668Z</time></trkpt><trkpt lat="41.0505467" lon="9.42122"><ele>20.0</ele><time>2026-05-01T09:35:34.669Z</time></trkpt><trkpt lat="41.0504817" lon="9.421155"><ele>20.0</ele><time>2026-05-01T09:35:35.668Z</time></trkpt><trkpt lat="41.050415" lon="9.4211017"><ele>20.0</ele><time>2026-05-01T09:35:36.668Z</time></trkpt><trkpt lat="41.050345" lon="9.42106"><ele>20.0</ele><time>2026-05-01T09:35:37.668Z</time></trkpt><trkpt lat="41.0502833" lon="9.4210267"><ele>20.0</ele><time>2026-05-01T09:35:38.668Z</time></trkpt><trkpt lat="41.0501983" lon="9.4210467"><ele>20.0</ele><time>2026-05-01T09:35:39.668Z</time></trkpt><trkpt lat="41.0501067" lon="9.4210783"><ele>20.0</ele><time>2026-05-01T09:35:40.668Z</time></trkpt><trkpt lat="41.0500067" lon="9.4211333"><ele>20.0</ele><time>2026-05-01T09:35:41.668Z</time></trkpt><trkpt lat="41.049915" lon="9.4211783"><ele>20.0</ele><time>2026-05-01T09:35:42.668Z</time></trkpt><trkpt lat="41.04983" lon="9.4212167"><ele>20.0</ele><time>2026-05-01T09:35:43.668Z</time></trkpt><trkpt lat="41.049755" lon="9.4212317"><ele>20.0</ele><time>2026-05-01T09:35:44.668Z</time></trkpt><trkpt lat="41.0496283" lon="9.4212217"><ele>20.428571428571427</ele><time>2026-05-01T09:35:46.668Z</time></trkpt><trkpt lat="41.0495517" lon="9.4212167"><ele>20.857142857142858</ele><time>2026-05-01T09:35:47.668Z</time></trkpt><trkpt lat="41.0494817" lon="9.42121"><ele>21.285714285714285</ele><time>2026-05-01T09:35:48.668Z</time></trkpt><trkpt lat="41.049405" lon="9.4211933"><ele>21.714285714285715</ele><time>2026-05-01T09:35:49.668Z</time></trkpt><trkpt lat="41.0493233" lon="9.4211617"><ele>22.142857142857142</ele><time>2026-05-01T09:35:50.668Z</time></trkpt><trkpt lat="41.04926" lon="9.4211483"><ele>22.571428571428573</ele><time>2026-05-01T09:35:51.668Z</time></trkpt><trkpt lat="41.0491933" lon="9.4211467"><ele>23.0</ele><time>2026-05-01T09:35:52.668Z</time></trkpt><trkpt lat="41.049125" lon="9.4211633"><ele>22.799999999999997</ele><time>2026-05-01T09:35:53.668Z</time></trkpt><trkpt lat="41.04905" lon="9.4212067"><ele>22.6</ele><time>2026-05-01T09:35:54.668Z</time></trkpt><trkpt lat="41.0489617" lon="9.4212617"><ele>22.4</ele><time>2026-05-01T09:35:55.668Z</time></trkpt><trkpt lat="41.0488733" lon="9.4213133"><ele>22.200000000000003</ele><time>2026-05-01T09:35:56.668Z</time></trkpt><trkpt lat="41.0487717" lon="9.421375"><ele>22.0</ele><time>2026-05-01T09:35:57.668Z</time></trkpt><trkpt lat="41.0486567" lon="9.42141"><ele>22.0</ele><time>2026-05-01T09:35:58.668Z</time></trkpt><trkpt lat="41.0485633" lon="9.4214167"><ele>22.0</ele><time>2026-05-01T09:35:59.668Z</time></trkpt><trkpt lat="41.0484617" lon="9.4214117"><ele>22.0</ele><time>2026-05-01T09:36:00.668Z</time></trkpt><trkpt lat="41.0483633" lon="9.4214"><ele>22.0</ele><time>2026-05-01T09:36:01.668Z</time></trkpt><trkpt lat="41.048255" lon="9.421355"><ele>22.0</ele><time>2026-05-01T09:36:02.668Z</time></trkpt><trkpt lat="41.0481483" lon="9.4213233"><ele>23.0</ele><time>2026-05-01T09:36:03.668Z</time></trkpt><trkpt lat="41.0480517" lon="9.4212833"><ele>24.0</ele><time>2026-05-01T09:36:04.668Z</time></trkpt><trkpt lat="41.047955" lon="9.42123"><ele>25.000000000000004</ele><time>2026-05-01T09:36:05.668Z</time></trkpt><trkpt lat="41.047855" lon="9.42117"><ele>26.0</ele><time>2026-05-01T09:36:06.668Z</time></trkpt><trkpt lat="41.0477533" lon="9.4211033"><ele>27.0</ele><time>2026-05-01T09:36:07.668Z</time></trkpt><trkpt lat="41.0476517" lon="9.42103"><ele>27.0</ele><time>2026-05-01T09:36:08.668Z</time></trkpt><trkpt lat="41.04756" lon="9.420965"><ele>27.000000000000004</ele><time>2026-05-01T09:36:09.668Z</time></trkpt><trkpt lat="41.0474717" lon="9.4209083"><ele>27.000000000000004</ele><time>2026-05-01T09:36:10.668Z</time></trkpt><trkpt lat="41.0473717" lon="9.42084"><ele>27.0</ele><time>2026-05-01T09:36:11.668Z</time></trkpt><trkpt lat="41.047265" lon="9.420775"><ele>27.0</ele><time>2026-05-01T09:36:12.668Z</time></trkpt><trkpt lat="41.0471633" lon="9.42069"><ele>27.0</ele><time>2026-05-01T09:36:13.668Z</time></trkpt><trkpt lat="41.047065" lon="9.4205983"><ele>27.0</ele><time>2026-05-01T09:36:14.668Z</time></trkpt><trkpt lat="41.0469683" lon="9.4205017"><ele>27.0</ele><time>2026-05-01T09:36:15.668Z</time></trkpt><trkpt lat="41.04687" lon="9.4204067"><ele>27.0</ele><time>2026-05-01T09:36:16.668Z</time></trkpt><trkpt lat="41.0467683" lon="9.420315"><ele>27.8</ele><time>2026-05-01T09:36:17.668Z</time></trkpt><trkpt lat="41.04667" lon="9.4202317"><ele>28.6</ele><time>2026-05-01T09:36:18.668Z</time></trkpt><trkpt lat="41.04658" lon="9.4201583"><ele>29.400000000000002</ele><time>2026-05-01T09:36:19.668Z</time></trkpt><trkpt lat="41.0465" lon="9.4200883"><ele>30.200000000000003</ele><time>2026-05-01T09:36:20.668Z</time></trkpt><trkpt lat="41.0464233" lon="9.42002"><ele>31.0</ele><time>2026-05-01T09:36:21.668Z</time></trkpt><trkpt lat="41.04634" lon="9.4199367"><ele>31.8</ele><time>2026-05-01T09:36:22.668Z</time></trkpt><trkpt lat="41.046255" lon="9.41986"><ele>32.6</ele><time>2026-05-01T09:36:23.668Z</time></trkpt><trkpt lat="41.0461667" lon="9.419795"><ele>33.4</ele><time>2026-05-01T09:36:24.668Z</time></trkpt><trkpt lat="41.046085" lon="9.4197233"><ele>34.2</ele><time>2026-05-01T09:36:25.668Z</time></trkpt><trkpt lat="41.0460183" lon="9.41966"><ele>35.0</ele><time>2026-05-01T09:36:26.669Z</time></trkpt><trkpt lat="41.045955" lon="9.4196083"><ele>35.0</ele><time>2026-05-01T09:36:27.669Z</time></trkpt><trkpt lat="41.0458917" lon="9.4195367"><ele>35.0</ele><time>2026-05-01T09:36:28.668Z</time></trkpt><trkpt lat="41.0458183" lon="9.4194783"><ele>35.0</ele><time>2026-05-01T09:36:29.668Z</time></trkpt><trkpt lat="41.0457483" lon="9.4194283"><ele>35.0</ele><time>2026-05-01T09:36:30.668Z</time></trkpt><trkpt lat="41.0456783" lon="9.419375"><ele>35.0</ele><time>2026-05-01T09:36:31.668Z</time></trkpt><trkpt lat="41.0456117" lon="9.4193267"><ele>35.0</ele><time>2026-05-01T09:36:32.668Z</time></trkpt><trkpt lat="41.0455517" lon="9.4192867"><ele>35.5</ele><time>2026-05-01T09:36:33.668Z</time></trkpt><trkpt lat="41.0454533" lon="9.419225"><ele>36.0</ele><time>2026-05-01T09:36:35.668Z</time></trkpt><trkpt lat="41.0453817" lon="9.41917"><ele>36.5</ele><time>2026-05-01T09:36:37.668Z</time></trkpt><trkpt lat="41.04532" lon="9.4191233"><ele>37.0</ele><time>2026-05-01T09:37:02.668Z</time></trkpt><trkpt lat="41.0453867" lon="9.4191417"><ele>37.5</ele><time>2026-05-01T09:39:29.668Z</time></trkpt><trkpt lat="41.0453317" lon="9.4191967"><ele>38.0</ele><time>2026-05-01T09:41:10.667Z</time></trkpt><trkpt lat="41.045325" lon="9.4191133"><ele>38.0</ele><time>2026-05-01T09:44:19.668Z</time></trkpt><trkpt lat="41.0452383" lon="9.4190267"><ele>38.0</ele><time>2026-05-01T09:44:21.667Z</time></trkpt><trkpt lat="41.0451817" lon="9.4189567"><ele>38.0</ele><time>2026-05-01T09:44:22.667Z</time></trkpt><trkpt lat="41.0451233" lon="9.4189017"><ele>38.0</ele><time>2026-05-01T09:44:23.667Z</time></trkpt><trkpt lat="41.0450617" lon="9.4188367"><ele>38.0</ele><time>2026-05-01T09:44:24.667Z</time></trkpt><trkpt lat="41.0450033" lon="9.418775"><ele>38.0</ele><time>2026-05-01T09:44:25.667Z</time></trkpt><trkpt lat="41.0449433" lon="9.4187133"><ele>38.199999999999996</ele><time>2026-05-01T09:44:26.667Z</time></trkpt><trkpt lat="41.0448733" lon="9.4186467"><ele>38.4</ele><time>2026-05-01T09:44:27.667Z</time></trkpt><trkpt lat="41.0447917" lon="9.4185817"><ele>38.599999999999994</ele><time>2026-05-01T09:44:28.667Z</time></trkpt><trkpt lat="41.0447117" lon="9.4185183"><ele>38.8</ele><time>2026-05-01T09:44:29.667Z</time></trkpt><trkpt lat="41.0446333" lon="9.418445"><ele>39.0</ele><time>2026-05-01T09:44:30.667Z</time></trkpt><trkpt lat="41.0445533" lon="9.4183633"><ele>39.0</ele><time>2026-05-01T09:44:31.667Z</time></trkpt><trkpt lat="41.0444733" lon="9.4182783"><ele>39.0</ele><time>2026-05-01T09:44:32.667Z</time></trkpt><trkpt lat="41.0443883" lon="9.41819"><ele>39.0</ele><time>2026-05-01T09:44:33.667Z</time></trkpt><trkpt lat="41.0442983" lon="9.4181"><ele>39.0</ele><time>2026-05-01T09:44:34.668Z</time></trkpt><trkpt lat="41.0442083" lon="9.4180183"><ele>39.0</ele><time>2026-05-01T09:44:35.667Z</time></trkpt><trkpt lat="41.0441083" lon="9.417935"><ele>39.5</ele><time>2026-05-01T09:44:36.667Z</time></trkpt><trkpt lat="41.044" lon="9.4178483"><ele>40.0</ele><time>2026-05-01T09:44:37.667Z</time></trkpt><trkpt lat="41.0438767" lon="9.4177883"><ele>40.5</ele><time>2026-05-01T09:44:38.667Z</time></trkpt><trkpt lat="41.0437733" lon="9.4177317"><ele>41.0</ele><time>2026-05-01T09:44:39.667Z</time></trkpt><trkpt lat="41.043655" lon="9.4176933"><ele>41.0</ele><time>2026-05-01T09:44:40.667Z</time></trkpt><trkpt lat="41.0435233" lon="9.417675"><ele>41.0</ele><time>2026-05-01T09:44:41.667Z</time></trkpt><trkpt lat="41.0433767" lon="9.41767"><ele>41.0</ele><time>2026-05-01T09:44:42.667Z</time></trkpt><trkpt lat="41.0432217" lon="9.4176467"><ele>41.0</ele><time>2026-05-01T09:44:43.667Z</time></trkpt><trkpt lat="41.0431" lon="9.4176283"><ele>42.199999999999996</ele><time>2026-05-01T09:44:44.667Z</time></trkpt><trkpt lat="41.042985" lon="9.417615"><ele>43.4</ele><time>2026-05-01T09:44:45.667Z</time></trkpt><trkpt lat="41.0428833" lon="9.4175867"><ele>44.6</ele><time>2026-05-01T09:44:46.667Z</time></trkpt><trkpt lat="41.04279" lon="9.4175367"><ele>45.8</ele><time>2026-05-01T09:44:47.667Z</time></trkpt><trkpt lat="41.0426967" lon="9.4174717"><ele>47.0</ele><time>2026-05-01T09:44:48.667Z</time></trkpt><trkpt lat="41.0426083" lon="9.4174067"><ele>47.0</ele><time>2026-05-01T09:44:49.667Z</time></trkpt><trkpt lat="41.04251" lon="9.41733"><ele>47.0</ele><time>2026-05-01T09:44:50.668Z</time></trkpt><trkpt lat="41.0424233" lon="9.4172783"><ele>47.0</ele><time>2026-05-01T09:44:51.667Z</time></trkpt><trkpt lat="41.0423317" lon="9.4172317"><ele>47.0</ele><time>2026-05-01T09:44:52.667Z</time></trkpt><trkpt lat="41.0422183" lon="9.4171983"><ele>47.0</ele><time>2026-05-01T09:44:53.667Z</time></trkpt><trkpt lat="41.0420883" lon="9.417185"><ele>47.25</ele><time>2026-05-01T09:44:54.667Z</time></trkpt><trkpt lat="41.0419633" lon="9.417175"><ele>47.5</ele><time>2026-05-01T09:44:55.667Z</time></trkpt><trkpt lat="41.04183" lon="9.41715"><ele>47.75</ele><time>2026-05-01T09:44:56.667Z</time></trkpt><trkpt lat="41.0416967" lon="9.4171183"><ele>48.0</ele><time>2026-05-01T09:44:57.667Z</time></trkpt><trkpt lat="41.04158" lon="9.4170817"><ele>47.166666666666664</ele><time>2026-05-01T09:44:58.667Z</time></trkpt><trkpt lat="41.0414783" lon="9.4170383"><ele>46.333333333333336</ele><time>2026-05-01T09:44:59.667Z</time></trkpt><trkpt lat="41.041385" lon="9.4169867"><ele>45.5</ele><time>2026-05-01T09:45:00.667Z</time></trkpt><trkpt lat="41.0413117" lon="9.4169283"><ele>44.66666666666667</ele><time>2026-05-01T09:45:01.667Z</time></trkpt><trkpt lat="41.0412567" lon="9.4168667"><ele>43.833333333333336</ele><time>2026-05-01T09:45:02.667Z</time></trkpt><trkpt lat="41.041205" lon="9.4167883"><ele>43.0</ele><time>2026-05-01T09:45:03.667Z</time></trkpt><trkpt lat="41.0411567" lon="9.4166883"><ele>43.0</ele><time>2026-05-01T09:45:04.668Z</time></trkpt><trkpt lat="41.041095" lon="9.416575"><ele>43.0</ele><time>2026-05-01T09:45:05.667Z</time></trkpt><trkpt lat="41.0410433" lon="9.4164683"><ele>43.0</ele><time>2026-05-01T09:45:06.667Z</time></trkpt><trkpt lat="41.040995" lon="9.416365"><ele>43.0</ele><time>2026-05-01T09:45:07.667Z</time></trkpt><trkpt lat="41.04095" lon="9.41628"><ele>43.0</ele><time>2026-05-01T09:45:08.667Z</time></trkpt><trkpt lat="41.0409033" lon="9.4162017"><ele>43.0</ele><time>2026-05-01T09:45:09.667Z</time></trkpt><trkpt lat="41.04085" lon="9.41613"><ele>43.0</ele><time>2026-05-01T09:45:11.667Z</time></trkpt><trkpt lat="41.040815" lon="9.416045"><ele>43.0</ele><time>2026-05-01T09:45:18.667Z</time></trkpt><trkpt lat="41.0407433" lon="9.4159067"><ele>43.0</ele><time>2026-05-01T09:45:20.667Z</time></trkpt><trkpt lat="41.0406983" lon="9.4158083"><ele>43.0</ele><time>2026-05-01T09:45:21.667Z</time></trkpt><trkpt lat="41.0406517" lon="9.4157083"><ele>43.0</ele><time>2026-05-01T09:45:22.667Z</time></trkpt><trkpt lat="41.040595" lon="9.4156083"><ele>43.0</ele><time>2026-05-01T09:45:23.667Z</time></trkpt><trkpt lat="41.04048" lon="9.4154083"><ele>43.0</ele><time>2026-05-01T09:45:25.667Z</time></trkpt><trkpt lat="41.0403783" lon="9.4152283"><ele>43.0</ele><time>2026-05-01T09:45:27.667Z</time></trkpt><trkpt lat="41.0403333" lon="9.4151367"><ele>43.0</ele><time>2026-05-01T09:45:28.667Z</time></trkpt><trkpt lat="41.0402833" lon="9.4150667"><ele>43.0</ele><time>2026-05-01T09:45:29.667Z</time></trkpt><trkpt lat="41.0402417" lon="9.4149983"><ele>43.0</ele><time>2026-05-01T09:45:30.667Z</time></trkpt><trkpt lat="41.0401967" lon="9.4149367"><ele>43.0</ele><time>2026-05-01T09:45:31.667Z</time></trkpt><trkpt lat="41.040095" lon="9.41482"><ele>43.0</ele><time>2026-05-01T09:45:33.667Z</time></trkpt><trkpt lat="41.04003" lon="9.4147483"><ele>43.0</ele><time>2026-05-01T09:45:34.667Z</time></trkpt><trkpt lat="41.0399517" lon="9.414665"><ele>43.0</ele><time>2026-05-01T09:45:35.667Z</time></trkpt><trkpt lat="41.0398633" lon="9.414575"><ele>43.0</ele><time>2026-05-01T09:45:36.667Z</time></trkpt><trkpt lat="41.0397617" lon="9.4144833"><ele>43.0</ele><time>2026-05-01T09:45:37.667Z</time></trkpt><trkpt lat="41.0396667" lon="9.414415"><ele>43.0</ele><time>2026-05-01T09:45:38.667Z</time></trkpt><trkpt lat="41.03957" lon="9.4143467"><ele>43.0</ele><time>2026-05-01T09:45:39.667Z</time></trkpt><trkpt lat="41.0394767" lon="9.4142817"><ele>43.0</ele><time>2026-05-01T09:45:40.667Z</time></trkpt><trkpt lat="41.03937" lon="9.4142083"><ele>43.0</ele><time>2026-05-01T09:45:41.667Z</time></trkpt><trkpt lat="41.0392633" lon="9.4141317"><ele>43.0</ele><time>2026-05-01T09:45:42.667Z</time></trkpt><trkpt lat="41.03916" lon="9.4140533"><ele>44.0</ele><time>2026-05-01T09:45:43.667Z</time></trkpt><trkpt lat="41.03905" lon="9.413955"><ele>45.0</ele><time>2026-05-01T09:45:44.667Z</time></trkpt><trkpt lat="41.0389767" lon="9.4138567"><ele>46.0</ele><time>2026-05-01T09:45:45.667Z</time></trkpt><trkpt lat="41.038875" lon="9.4137583"><ele>47.0</ele><time>2026-05-01T09:45:46.668Z</time></trkpt><trkpt lat="41.0387717" lon="9.4136467"><ele>47.0</ele><time>2026-05-01T09:45:47.667Z</time></trkpt><trkpt lat="41.0386567" lon="9.413535"><ele>47.0</ele><time>2026-05-01T09:45:48.667Z</time></trkpt><trkpt lat="41.038535" lon="9.413425"><ele>47.0</ele><time>2026-05-01T09:45:49.667Z</time></trkpt><trkpt lat="41.0384133" lon="9.4133117"><ele>47.0</ele><time>2026-05-01T09:45:50.667Z</time></trkpt><trkpt lat="41.0382917" lon="9.413175"><ele>49.25</ele><time>2026-05-01T09:45:51.667Z</time></trkpt><trkpt lat="41.0381867" lon="9.4130517"><ele>51.5</ele><time>2026-05-01T09:45:52.667Z</time></trkpt><trkpt lat="41.0380783" lon="9.4129317"><ele>53.75</ele><time>2026-05-01T09:45:53.667Z</time></trkpt><trkpt lat="41.0379717" lon="9.41281"><ele>56.0</ele><time>2026-05-01T09:45:54.667Z</time></trkpt><trkpt lat="41.0378867" lon="9.4127033"><ele>56.75</ele><time>2026-05-01T09:45:55.667Z</time></trkpt><trkpt lat="41.0377967" lon="9.4125883"><ele>57.5</ele><time>2026-05-01T09:45:56.667Z</time></trkpt><trkpt lat="41.0377183" lon="9.4124633"><ele>58.25</ele><time>2026-05-01T09:45:57.667Z</time></trkpt><trkpt lat="41.03765" lon="9.4123117"><ele>59.0</ele><time>2026-05-01T09:45:58.667Z</time></trkpt><trkpt lat="41.0375733" lon="9.4121617"><ele>59.0</ele><time>2026-05-01T09:45:59.667Z</time></trkpt><trkpt lat="41.0375083" lon="9.4120017"><ele>59.0</ele><time>2026-05-01T09:46:00.667Z</time></trkpt><trkpt lat="41.0374417" lon="9.4118567"><ele>59.0</ele><time>2026-05-01T09:46:01.667Z</time></trkpt><trkpt lat="41.037395" lon="9.4117133"><ele>59.0</ele><time>2026-05-01T09:46:02.667Z</time></trkpt><trkpt lat="41.0373383" lon="9.4116083"><ele>59.0</ele><time>2026-05-01T09:46:03.667Z</time></trkpt><trkpt lat="41.0372583" lon="9.4115217"><ele>59.00000000000001</ele><time>2026-05-01T09:46:04.667Z</time></trkpt><trkpt lat="41.0371917" lon="9.41136"><ele>59.00000000000001</ele><time>2026-05-01T09:46:05.667Z</time></trkpt><trkpt lat="41.0371367" lon="9.4112633"><ele>59.0</ele><time>2026-05-01T09:46:06.667Z</time></trkpt><trkpt lat="41.0370783" lon="9.4112117"><ele>59.0</ele><time>2026-05-01T09:46:07.667Z</time></trkpt><trkpt lat="41.0370183" lon="9.4111433"><ele>57.5</ele><time>2026-05-01T09:46:08.667Z</time></trkpt><trkpt lat="41.03694" lon="9.4110783"><ele>56.0</ele><time>2026-05-01T09:46:09.667Z</time></trkpt><trkpt lat="41.0368317" lon="9.4110333"><ele>54.5</ele><time>2026-05-01T09:46:10.667Z</time></trkpt><trkpt lat="41.0367117" lon="9.4109683"><ele>53.0</ele><time>2026-05-01T09:46:11.667Z</time></trkpt><trkpt lat="41.0366083" lon="9.410895"><ele>52.75</ele><time>2026-05-01T09:46:12.667Z</time></trkpt><trkpt lat="41.0364983" lon="9.410805"><ele>52.5</ele><time>2026-05-01T09:46:13.667Z</time></trkpt><trkpt lat="41.0363767" lon="9.4107"><ele>52.25</ele><time>2026-05-01T09:46:14.667Z</time></trkpt><trkpt lat="41.0362517" lon="9.410595"><ele>52.0</ele><time>2026-05-01T09:46:15.667Z</time></trkpt><trkpt lat="41.0361283" lon="9.4104933"><ele>52.25</ele><time>2026-05-01T09:46:16.667Z</time></trkpt><trkpt lat="41.0360183" lon="9.4103733"><ele>52.5</ele><time>2026-05-01T09:46:17.667Z</time></trkpt><trkpt lat="41.0359133" lon="9.410245"><ele>52.75</ele><time>2026-05-01T09:46:18.667Z</time></trkpt><trkpt lat="41.0358217" lon="9.4101117"><ele>53.0</ele><time>2026-05-01T09:46:19.667Z</time></trkpt><trkpt lat="41.03573" lon="9.4099867"><ele>53.16666666666667</ele><time>2026-05-01T09:46:20.667Z</time></trkpt><trkpt lat="41.0356567" lon="9.4098767"><ele>53.333333333333336</ele><time>2026-05-01T09:46:21.667Z</time></trkpt><trkpt lat="41.0356" lon="9.409775"><ele>53.5</ele><time>2026-05-01T09:46:22.667Z</time></trkpt><trkpt lat="41.0355617" lon="9.409675"><ele>53.66666666666667</ele><time>2026-05-01T09:46:23.667Z</time></trkpt><trkpt lat="41.0355283" lon="9.4095867"><ele>53.833333333333336</ele><time>2026-05-01T09:46:24.667Z</time></trkpt><trkpt lat="41.0355067" lon="9.4095033"><ele>54.0</ele><time>2026-05-01T09:46:25.667Z</time></trkpt><trkpt lat="41.0354817" lon="9.409355"><ele>54.2</ele><time>2026-05-01T09:46:27.667Z</time></trkpt><trkpt lat="41.03546" lon="9.4092383"><ele>54.400000000000006</ele><time>2026-05-01T09:46:29.667Z</time></trkpt><trkpt lat="41.035375" lon="9.40925"><ele>54.6</ele><time>2026-05-01T09:46:32.667Z</time></trkpt><trkpt lat="41.0352617" lon="9.4092767"><ele>54.8</ele><time>2026-05-01T09:46:34.667Z</time></trkpt><trkpt lat="41.035155" lon="9.40929"><ele>55.0</ele><time>2026-05-01T09:46:35.667Z</time></trkpt><trkpt lat="41.0350367" lon="9.4092967"><ele>55.33333333333333</ele><time>2026-05-01T09:46:36.667Z</time></trkpt><trkpt lat="41.0348833" lon="9.40929"><ele>55.66666666666667</ele><time>2026-05-01T09:46:37.667Z</time></trkpt><trkpt lat="41.0347267" lon="9.4092817"><ele>56.0</ele><time>2026-05-01T09:46:38.667Z</time></trkpt><trkpt lat="41.0345567" lon="9.4092683"><ele>56.0</ele><time>2026-05-01T09:46:39.667Z</time></trkpt><trkpt lat="41.034415" lon="9.4092633"><ele>56.0</ele><time>2026-05-01T09:46:40.667Z</time></trkpt><trkpt lat="41.0342817" lon="9.40926"><ele>56.0</ele><time>2026-05-01T09:46:41.667Z</time></trkpt><trkpt lat="41.0341567" lon="9.409245"><ele>56.0</ele><time>2026-05-01T09:46:42.667Z</time></trkpt><trkpt lat="41.0340283" lon="9.4092367"><ele>56.25</ele><time>2026-05-01T09:46:43.667Z</time></trkpt><trkpt lat="41.0339067" lon="9.4092183"><ele>56.5</ele><time>2026-05-01T09:46:44.667Z</time></trkpt><trkpt lat="41.0338" lon="9.40923"><ele>56.75</ele><time>2026-05-01T09:46:45.667Z</time></trkpt><trkpt lat="41.0336733" lon="9.4092517"><ele>57.0</ele><time>2026-05-01T09:46:46.667Z</time></trkpt><trkpt lat="41.0335633" lon="9.4093"><ele>57.0</ele><time>2026-05-01T09:46:47.667Z</time></trkpt><trkpt lat="41.0334417" lon="9.4093483"><ele>57.0</ele><time>2026-05-01T09:46:48.667Z</time></trkpt><trkpt lat="41.0333083" lon="9.4094133"><ele>57.0</ele><time>2026-05-01T09:46:49.667Z</time></trkpt><trkpt lat="41.0331533" lon="9.4094733"><ele>57.0</ele><time>2026-05-01T09:46:50.667Z</time></trkpt><trkpt lat="41.0330267" lon="9.40954"><ele>58.5</ele><time>2026-05-01T09:46:51.667Z</time></trkpt><trkpt lat="41.032895" lon="9.409615"><ele>60.0</ele><time>2026-05-01T09:46:52.667Z</time></trkpt><trkpt lat="41.032795" lon="9.409725"><ele>61.5</ele><time>2026-05-01T09:46:53.667Z</time></trkpt><trkpt lat="41.0327233" lon="9.4098667"><ele>63.0</ele><time>2026-05-01T09:46:54.667Z</time></trkpt><trkpt lat="41.032645" lon="9.41002"><ele>63.0</ele><time>2026-05-01T09:46:55.667Z</time></trkpt><trkpt lat="41.0325683" lon="9.4101783"><ele>63.0</ele><time>2026-05-01T09:46:56.667Z</time></trkpt><trkpt lat="41.03248" lon="9.4103233"><ele>63.0</ele><time>2026-05-01T09:46:57.667Z</time></trkpt><trkpt lat="41.0323783" lon="9.41045"><ele>63.0</ele><time>2026-05-01T09:46:58.667Z</time></trkpt><trkpt lat="41.032275" lon="9.4105767"><ele>63.75</ele><time>2026-05-01T09:46:59.667Z</time></trkpt><trkpt lat="41.0321683" lon="9.4106967"><ele>64.5</ele><time>2026-05-01T09:47:00.667Z</time></trkpt><trkpt lat="41.0320583" lon="9.4108183"><ele>65.25</ele><time>2026-05-01T09:47:01.667Z</time></trkpt><trkpt lat="41.0319367" lon="9.4109417"><ele>66.0</ele><time>2026-05-01T09:47:02.667Z</time></trkpt><trkpt lat="41.03181" lon="9.411065"><ele>66.0</ele><time>2026-05-01T09:47:03.667Z</time></trkpt><trkpt lat="41.03169" lon="9.41118"><ele>66.0</ele><time>2026-05-01T09:47:04.667Z</time></trkpt><trkpt lat="41.031575" lon="9.4113083"><ele>66.0</ele><time>2026-05-01T09:47:05.667Z</time></trkpt><trkpt lat="41.031465" lon="9.4114367"><ele>66.0</ele><time>2026-05-01T09:47:06.667Z</time></trkpt><trkpt lat="41.031375" lon="9.4115717"><ele>67.33333333333333</ele><time>2026-05-01T09:47:07.667Z</time></trkpt><trkpt lat="41.0312733" lon="9.41171"><ele>68.66666666666666</ele><time>2026-05-01T09:47:08.667Z</time></trkpt><trkpt lat="41.0311583" lon="9.41184"><ele>70.0</ele><time>2026-05-01T09:47:09.667Z</time></trkpt><trkpt lat="41.0310283" lon="9.4119517"><ele>70.0</ele><time>2026-05-01T09:47:10.667Z</time></trkpt><trkpt lat="41.0309267" lon="9.4120567"><ele>70.0</ele><time>2026-05-01T09:47:11.667Z</time></trkpt><trkpt lat="41.0308383" lon="9.4121617"><ele>70.0</ele><time>2026-05-01T09:47:12.667Z</time></trkpt><trkpt lat="41.0307217" lon="9.412245"><ele>70.0</ele><time>2026-05-01T09:47:13.667Z</time></trkpt><trkpt lat="41.0305783" lon="9.4123117"><ele>69.25</ele><time>2026-05-01T09:47:14.667Z</time></trkpt><trkpt lat="41.0304617" lon="9.4123833"><ele>68.5</ele><time>2026-05-01T09:47:15.667Z</time></trkpt><trkpt lat="41.0303433" lon="9.4124483"><ele>67.75</ele><time>2026-05-01T09:47:16.667Z</time></trkpt><trkpt lat="41.0301983" lon="9.4125033"><ele>67.0</ele><time>2026-05-01T09:47:17.667Z</time></trkpt><trkpt lat="41.0300367" lon="9.412545"><ele>67.25</ele><time>2026-05-01T09:47:18.667Z</time></trkpt><trkpt lat="41.0298983" lon="9.4125917"><ele>67.5</ele><time>2026-05-01T09:47:19.667Z</time></trkpt><trkpt lat="41.029755" lon="9.4126267"><ele>67.75</ele><time>2026-05-01T09:47:20.668Z</time></trkpt><trkpt lat="41.02963" lon="9.4126817"><ele>68.0</ele><time>2026-05-01T09:47:21.667Z</time></trkpt><trkpt lat="41.0295367" lon="9.4127817"><ele>68.0</ele><time>2026-05-01T09:47:22.667Z</time></trkpt><trkpt lat="41.02939" lon="9.412875"><ele>68.0</ele><time>2026-05-01T09:47:23.667Z</time></trkpt><trkpt lat="41.0292633" lon="9.4129917"><ele>68.0</ele><time>2026-05-01T09:47:24.667Z</time></trkpt><trkpt lat="41.0291367" lon="9.4131033"><ele>67.75</ele><time>2026-05-01T09:47:25.667Z</time></trkpt><trkpt lat="41.0290133" lon="9.4132133"><ele>67.5</ele><time>2026-05-01T09:47:26.667Z</time></trkpt><trkpt lat="41.0288733" lon="9.413325"><ele>67.25</ele><time>2026-05-01T09:47:27.667Z</time></trkpt><trkpt lat="41.0287683" lon="9.4134267"><ele>67.0</ele><time>2026-05-01T09:47:28.667Z</time></trkpt><trkpt lat="41.0286683" lon="9.41353"><ele>67.0</ele><time>2026-05-01T09:47:29.667Z</time></trkpt><trkpt lat="41.0285367" lon="9.4135983"><ele>67.0</ele><time>2026-05-01T09:47:30.667Z</time></trkpt><trkpt lat="41.0283983" lon="9.4136467"><ele>67.0</ele><time>2026-05-01T09:47:31.667Z</time></trkpt><trkpt lat="41.0282617" lon="9.4136917"><ele>67.0</ele><time>2026-05-01T09:47:32.667Z</time></trkpt><trkpt lat="41.02812" lon="9.4137233"><ele>67.25</ele><time>2026-05-01T09:47:33.667Z</time></trkpt><trkpt lat="41.02798" lon="9.4137517"><ele>67.5</ele><time>2026-05-01T09:47:34.667Z</time></trkpt><trkpt lat="41.0278333" lon="9.4137783"><ele>67.75</ele><time>2026-05-01T09:47:35.667Z</time></trkpt><trkpt lat="41.0277017" lon="9.4138117"><ele>68.0</ele><time>2026-05-01T09:47:36.667Z</time></trkpt><trkpt lat="41.0275767" lon="9.4138417"><ele>68.5</ele><time>2026-05-01T09:47:37.667Z</time></trkpt><trkpt lat="41.02745" lon="9.413905"><ele>69.0</ele><time>2026-05-01T09:47:38.667Z</time></trkpt><trkpt lat="41.0273283" lon="9.4139917"><ele>69.5</ele><time>2026-05-01T09:47:39.667Z</time></trkpt><trkpt lat="41.0271983" lon="9.4140883"><ele>70.0</ele><time>2026-05-01T09:47:40.667Z</time></trkpt><trkpt lat="41.02708" lon="9.41419"><ele>70.0</ele><time>2026-05-01T09:47:41.667Z</time></trkpt><trkpt lat="41.0269483" lon="9.41429"><ele>70.0</ele><time>2026-05-01T09:47:42.667Z</time></trkpt><trkpt lat="41.0268183" lon="9.4143783"><ele>70.0</ele><time>2026-05-01T09:47:43.667Z</time></trkpt><trkpt lat="41.0267117" lon="9.4144617"><ele>70.0</ele><time>2026-05-01T09:47:44.667Z</time></trkpt><trkpt lat="41.0266367" lon="9.41453"><ele>71.16666666666666</ele><time>2026-05-01T09:47:45.667Z</time></trkpt><trkpt lat="41.026555" lon="9.4145733"><ele>72.33333333333333</ele><time>2026-05-01T09:47:46.667Z</time></trkpt><trkpt lat="41.026485" lon="9.41459"><ele>73.5</ele><time>2026-05-01T09:47:47.667Z</time></trkpt><trkpt lat="41.0264167" lon="9.41457"><ele>74.66666666666667</ele><time>2026-05-01T09:47:48.667Z</time></trkpt><trkpt lat="41.0263433" lon="9.4145467"><ele>75.83333333333334</ele><time>2026-05-01T09:47:49.667Z</time></trkpt><trkpt lat="41.02627" lon="9.41453"><ele>77.0</ele><time>2026-05-01T09:47:50.667Z</time></trkpt><trkpt lat="41.0262" lon="9.4144567"><ele>77.0</ele><time>2026-05-01T09:47:51.668Z</time></trkpt><trkpt lat="41.0261167" lon="9.4143517"><ele>77.0</ele><time>2026-05-01T09:47:52.667Z</time></trkpt><trkpt lat="41.0260267" lon="9.414245"><ele>77.0</ele><time>2026-05-01T09:47:53.666Z</time></trkpt><trkpt lat="41.0259567" lon="9.4141267"><ele>77.0</ele><time>2026-05-01T09:47:54.666Z</time></trkpt><trkpt lat="41.025915" lon="9.4139917"><ele>77.0</ele><time>2026-05-01T09:47:55.666Z</time></trkpt><trkpt lat="41.0258667" lon="9.413845"><ele>77.0</ele><time>2026-05-01T09:47:56.666Z</time></trkpt><trkpt lat="41.0258267" lon="9.4137183"><ele>77.0</ele><time>2026-05-01T09:47:57.666Z</time></trkpt><trkpt lat="41.02579" lon="9.4136133"><ele>77.0</ele><time>2026-05-01T09:47:58.666Z</time></trkpt><trkpt lat="41.02575" lon="9.41353"><ele>77.0</ele><time>2026-05-01T09:47:59.666Z</time></trkpt><trkpt lat="41.0256967" lon="9.4134517"><ele>78.8</ele><time>2026-05-01T09:48:00.666Z</time></trkpt><trkpt lat="41.0256233" lon="9.41338"><ele>80.6</ele><time>2026-05-01T09:48:01.666Z</time></trkpt><trkpt lat="41.0255333" lon="9.413295"><ele>82.39999999999999</ele><time>2026-05-01T09:48:02.666Z</time></trkpt><trkpt lat="41.02543" lon="9.4132233"><ele>84.2</ele><time>2026-05-01T09:48:03.666Z</time></trkpt><trkpt lat="41.0253233" lon="9.4131533"><ele>86.0</ele><time>2026-05-01T09:48:04.666Z</time></trkpt><trkpt lat="41.0252183" lon="9.4130717"><ele>86.0</ele><time>2026-05-01T09:48:05.666Z</time></trkpt><trkpt lat="41.0251233" lon="9.4130033"><ele>86.0</ele><time>2026-05-01T09:48:06.666Z</time></trkpt><trkpt lat="41.0250317" lon="9.4129183"><ele>86.0</ele><time>2026-05-01T09:48:07.666Z</time></trkpt><trkpt lat="41.024965" lon="9.4128017"><ele>86.0</ele><time>2026-05-01T09:48:08.666Z</time></trkpt><trkpt lat="41.0249" lon="9.41269"><ele>86.0</ele><time>2026-05-01T09:48:09.666Z</time></trkpt><trkpt lat="41.0248417" lon="9.4125967"><ele>86.0</ele><time>2026-05-01T09:48:10.666Z</time></trkpt><trkpt lat="41.024775" lon="9.41251"><ele>86.0</ele><time>2026-05-01T09:48:11.666Z</time></trkpt><trkpt lat="41.024665" lon="9.4124767"><ele>86.0</ele><time>2026-05-01T09:48:13.666Z</time></trkpt><trkpt lat="41.024585" lon="9.4125067"><ele>86.0</ele><time>2026-05-01T09:48:14.666Z</time></trkpt><trkpt lat="41.0245083" lon="9.41257"><ele>86.0</ele><time>2026-05-01T09:48:15.666Z</time></trkpt><trkpt lat="41.0244267" lon="9.412615"><ele>86.0</ele><time>2026-05-01T09:48:16.666Z</time></trkpt><trkpt lat="41.0243383" lon="9.4126483"><ele>86.0</ele><time>2026-05-01T09:48:17.666Z</time></trkpt><trkpt lat="41.024235" lon="9.412655"><ele>86.0</ele><time>2026-05-01T09:48:18.666Z</time></trkpt><trkpt lat="41.024135" lon="9.412655"><ele>86.0</ele><time>2026-05-01T09:48:19.667Z</time></trkpt><trkpt lat="41.0240367" lon="9.4126583"><ele>86.0</ele><time>2026-05-01T09:48:20.666Z</time></trkpt><trkpt lat="41.02394" lon="9.4126783"><ele>85.19999999999999</ele><time>2026-05-01T09:48:21.666Z</time></trkpt><trkpt lat="41.023845" lon="9.4127083"><ele>84.39999999999999</ele><time>2026-05-01T09:48:22.666Z</time></trkpt><trkpt lat="41.0237533" lon="9.41275"><ele>83.6</ele><time>2026-05-01T09:48:23.666Z</time></trkpt><trkpt lat="41.02367" lon="9.4128283"><ele>82.8</ele><time>2026-05-01T09:48:24.666Z</time></trkpt><trkpt lat="41.0235883" lon="9.41296"><ele>82.0</ele><time>2026-05-01T09:48:25.666Z</time></trkpt><trkpt lat="41.0234833" lon="9.4130733"><ele>84.25</ele><time>2026-05-01T09:48:26.667Z</time></trkpt><trkpt lat="41.0233717" lon="9.4131867"><ele>86.5</ele><time>2026-05-01T09:48:27.666Z</time></trkpt><trkpt lat="41.02325" lon="9.4132767"><ele>88.75</ele><time>2026-05-01T09:48:28.666Z</time></trkpt><trkpt lat="41.0231417" lon="9.413365"><ele>91.0</ele><time>2026-05-01T09:48:29.666Z</time></trkpt><trkpt lat="41.023035" lon="9.41344"><ele>91.19999999999999</ele><time>2026-05-01T09:48:30.666Z</time></trkpt><trkpt lat="41.0229283" lon="9.4135"><ele>91.39999999999999</ele><time>2026-05-01T09:48:31.666Z</time></trkpt><trkpt lat="41.0228133" lon="9.41355"><ele>91.6</ele><time>2026-05-01T09:48:32.666Z</time></trkpt><trkpt lat="41.0227167" lon="9.4136"><ele>91.8</ele><time>2026-05-01T09:48:33.666Z</time></trkpt><trkpt lat="41.022625" lon="9.413645"><ele>92.0</ele><time>2026-05-01T09:48:34.666Z</time></trkpt><trkpt lat="41.0225367" lon="9.413695"><ele>91.39999999999999</ele><time>2026-05-01T09:48:35.666Z</time></trkpt><trkpt lat="41.0224433" lon="9.41375"><ele>90.8</ele><time>2026-05-01T09:48:36.666Z</time></trkpt><trkpt lat="41.02236" lon="9.4138483"><ele>90.2</ele><time>2026-05-01T09:48:37.666Z</time></trkpt><trkpt lat="41.0222933" lon="9.4139767"><ele>89.6</ele><time>2026-05-01T09:48:38.666Z</time></trkpt><trkpt lat="41.0222117" lon="9.4140633"><ele>89.0</ele><time>2026-05-01T09:48:39.666Z</time></trkpt><trkpt lat="41.02212" lon="9.4141233"><ele>90.75</ele><time>2026-05-01T09:48:40.666Z</time></trkpt><trkpt lat="41.0220317" lon="9.4141533"><ele>92.5</ele><time>2026-05-01T09:48:41.666Z</time></trkpt><trkpt lat="41.0219033" lon="9.4142017"><ele>94.25</ele><time>2026-05-01T09:48:42.666Z</time></trkpt><trkpt lat="41.0217817" lon="9.4142483"><ele>96.0</ele><time>2026-05-01T09:48:43.666Z</time></trkpt><trkpt lat="41.02168" lon="9.41429"><ele>96.0</ele><time>2026-05-01T09:48:44.666Z</time></trkpt><trkpt lat="41.0215683" lon="9.414315"><ele>96.0</ele><time>2026-05-01T09:48:45.666Z</time></trkpt><trkpt lat="41.021455" lon="9.4143133"><ele>96.0</ele><time>2026-05-01T09:48:46.666Z</time></trkpt><trkpt lat="41.021355" lon="9.4143083"><ele>96.0</ele><time>2026-05-01T09:48:47.666Z</time></trkpt><trkpt lat="41.0212417" lon="9.4143017"><ele>96.0</ele><time>2026-05-01T09:48:48.666Z</time></trkpt><trkpt lat="41.0211267" lon="9.4142983"><ele>96.0</ele><time>2026-05-01T09:48:49.666Z</time></trkpt><trkpt lat="41.0209967" lon="9.414305"><ele>96.0</ele><time>2026-05-01T09:48:50.666Z</time></trkpt><trkpt lat="41.0208767" lon="9.414325"><ele>96.0</ele><time>2026-05-01T09:48:51.667Z</time></trkpt><trkpt lat="41.0207583" lon="9.4143517"><ele>96.0</ele><time>2026-05-01T09:48:52.666Z</time></trkpt><trkpt lat="41.0206183" lon="9.414375"><ele>95.25</ele><time>2026-05-01T09:48:53.666Z</time></trkpt><trkpt lat="41.020485" lon="9.4143917"><ele>94.5</ele><time>2026-05-01T09:48:54.666Z</time></trkpt><trkpt lat="41.020365" lon="9.414405"><ele>93.75</ele><time>2026-05-01T09:48:55.666Z</time></trkpt><trkpt lat="41.0202383" lon="9.4144267"><ele>93.0</ele><time>2026-05-01T09:48:56.666Z</time></trkpt><trkpt lat="41.02013" lon="9.4144333"><ele>93.0</ele><time>2026-05-01T09:48:57.666Z</time></trkpt><trkpt lat="41.0200267" lon="9.41444"><ele>93.0</ele><time>2026-05-01T09:48:58.666Z</time></trkpt><trkpt lat="41.0199167" lon="9.4144233"><ele>93.0</ele><time>2026-05-01T09:48:59.666Z</time></trkpt><trkpt lat="41.019795" lon="9.4143833"><ele>93.0</ele><time>2026-05-01T09:49:00.666Z</time></trkpt><trkpt lat="41.019665" lon="9.4143317"><ele>92.75</ele><time>2026-05-01T09:49:01.666Z</time></trkpt><trkpt lat="41.019545" lon="9.41428"><ele>92.5</ele><time>2026-05-01T09:49:02.666Z</time></trkpt><trkpt lat="41.0194317" lon="9.4142283"><ele>92.25</ele><time>2026-05-01T09:49:03.666Z</time></trkpt><trkpt lat="41.0193167" lon="9.4141817"><ele>92.0</ele><time>2026-05-01T09:49:04.666Z</time></trkpt><trkpt lat="41.0192083" lon="9.4141283"><ele>92.0</ele><time>2026-05-01T09:49:05.666Z</time></trkpt><trkpt lat="41.0191017" lon="9.4140667"><ele>92.0</ele><time>2026-05-01T09:49:06.666Z</time></trkpt><trkpt lat="41.01899" lon="9.413985"><ele>92.0</ele><time>2026-05-01T09:49:07.666Z</time></trkpt><trkpt lat="41.0188683" lon="9.4138883"><ele>92.0</ele><time>2026-05-01T09:49:08.666Z</time></trkpt><trkpt lat="41.0187317" lon="9.4137733"><ele>91.66666666666667</ele><time>2026-05-01T09:49:09.666Z</time></trkpt><trkpt lat="41.0185883" lon="9.413665"><ele>91.33333333333333</ele><time>2026-05-01T09:49:10.666Z</time></trkpt><trkpt lat="41.0184433" lon="9.41356"><ele>91.0</ele><time>2026-05-01T09:49:11.666Z</time></trkpt><trkpt lat="41.0182917" lon="9.4134417"><ele>91.0</ele><time>2026-05-01T09:49:12.666Z</time></trkpt><trkpt lat="41.01814" lon="9.4133433"><ele>91.0</ele><time>2026-05-01T09:49:13.666Z</time></trkpt><trkpt lat="41.0180067" lon="9.4132417"><ele>91.0</ele><time>2026-05-01T09:49:14.666Z</time></trkpt><trkpt lat="41.0178783" lon="9.4131333"><ele>91.0</ele><time>2026-05-01T09:49:15.666Z</time></trkpt><trkpt lat="41.017765" lon="9.4130233"><ele>91.0</ele><time>2026-05-01T09:49:16.666Z</time></trkpt><trkpt lat="41.017665" lon="9.41291"><ele>91.0</ele><time>2026-05-01T09:49:17.666Z</time></trkpt><trkpt lat="41.01757" lon="9.4128183"><ele>91.0</ele><time>2026-05-01T09:49:18.666Z</time></trkpt><trkpt lat="41.017465" lon="9.4127183"><ele>90.4</ele><time>2026-05-01T09:49:19.666Z</time></trkpt><trkpt lat="41.0173567" lon="9.4126417"><ele>89.8</ele><time>2026-05-01T09:49:20.666Z</time></trkpt><trkpt lat="41.01726" lon="9.412575"><ele>89.2</ele><time>2026-05-01T09:49:21.666Z</time></trkpt><trkpt lat="41.0171667" lon="9.4125417"><ele>88.60000000000001</ele><time>2026-05-01T09:49:22.666Z</time></trkpt><trkpt lat="41.0172667" lon="9.4126267"><ele>88.0</ele><time>2026-05-01T09:49:23.666Z</time></trkpt><trkpt lat="41.0171617" lon="9.4125983"><ele>88.0</ele><time>2026-05-01T09:49:25.666Z</time></trkpt><trkpt lat="41.0170867" lon="9.4125267"><ele>88.0</ele><time>2026-05-01T09:49:27.666Z</time></trkpt><trkpt lat="41.0170667" lon="9.4123817"><ele>88.0</ele><time>2026-05-01T09:49:29.666Z</time></trkpt><trkpt lat="41.017085" lon="9.412255"><ele>88.0</ele><time>2026-05-01T09:49:31.666Z</time></trkpt><trkpt lat="41.0171183" lon="9.412145"><ele>88.0</ele><time>2026-05-01T09:49:33.666Z</time></trkpt><trkpt lat="41.0171533" lon="9.4120133"><ele>87.5</ele><time>2026-05-01T09:49:35.666Z</time></trkpt><trkpt lat="41.0171717" lon="9.4119167"><ele>87.0</ele><time>2026-05-01T09:49:36.666Z</time></trkpt><trkpt lat="41.01718" lon="9.4118217"><ele>86.5</ele><time>2026-05-01T09:49:37.666Z</time></trkpt><trkpt lat="41.017205" lon="9.41172"><ele>86.0</ele><time>2026-05-01T09:49:38.666Z</time></trkpt><trkpt lat="41.0172267" lon="9.4115867"><ele>85.5</ele><time>2026-05-01T09:49:39.666Z</time></trkpt><trkpt lat="41.0172317" lon="9.4114317"><ele>85.0</ele><time>2026-05-01T09:49:40.666Z</time></trkpt><trkpt lat="41.0172283" lon="9.4112667"><ele>84.75</ele><time>2026-05-01T09:49:41.666Z</time></trkpt><trkpt lat="41.0172383" lon="9.4110783"><ele>84.5</ele><time>2026-05-01T09:49:42.666Z</time></trkpt><trkpt lat="41.0172417" lon="9.4108833"><ele>84.25</ele><time>2026-05-01T09:49:43.666Z</time></trkpt><trkpt lat="41.0172317" lon="9.4106983"><ele>84.0</ele><time>2026-05-01T09:49:44.666Z</time></trkpt><trkpt lat="41.0172133" lon="9.4105283"><ele>84.5</ele><time>2026-05-01T09:49:45.666Z</time></trkpt><trkpt lat="41.0171883" lon="9.4103533"><ele>85.0</ele><time>2026-05-01T09:49:46.666Z</time></trkpt><trkpt lat="41.0171567" lon="9.4101783"><ele>85.5</ele><time>2026-05-01T09:49:47.666Z</time></trkpt><trkpt lat="41.01712" lon="9.4100233"><ele>86.0</ele><time>2026-05-01T09:49:48.666Z</time></trkpt><trkpt lat="41.0170733" lon="9.4098833"><ele>86.0</ele><time>2026-05-01T09:49:49.666Z</time></trkpt><trkpt lat="41.0170083" lon="9.409755"><ele>86.0</ele><time>2026-05-01T09:49:50.666Z</time></trkpt><trkpt lat="41.01694" lon="9.4096317"><ele>86.0</ele><time>2026-05-01T09:49:51.666Z</time></trkpt><trkpt lat="41.0168483" lon="9.4095217"><ele>86.0</ele><time>2026-05-01T09:49:52.666Z</time></trkpt><trkpt lat="41.0167667" lon="9.4093883"><ele>86.0</ele><time>2026-05-01T09:49:53.666Z</time></trkpt><trkpt lat="41.0166883" lon="9.4092617"><ele>86.0</ele><time>2026-05-01T09:49:54.666Z</time></trkpt><trkpt lat="41.0166283" lon="9.4091117"><ele>86.0</ele><time>2026-05-01T09:49:55.666Z</time></trkpt><trkpt lat="41.0165833" lon="9.4089283"><ele>86.0</ele><time>2026-05-01T09:49:56.666Z</time></trkpt><trkpt lat="41.0165367" lon="9.4087583"><ele>86.75</ele><time>2026-05-01T09:49:57.666Z</time></trkpt><trkpt lat="41.0164833" lon="9.4086017"><ele>87.5</ele><time>2026-05-01T09:49:58.666Z</time></trkpt><trkpt lat="41.0164133" lon="9.4084433"><ele>88.25</ele><time>2026-05-01T09:49:59.666Z</time></trkpt><trkpt lat="41.01632" lon="9.4082783"><ele>89.0</ele><time>2026-05-01T09:50:00.666Z</time></trkpt><trkpt lat="41.016235" lon="9.4081017"><ele>89.75</ele><time>2026-05-01T09:50:01.666Z</time></trkpt><trkpt lat="41.016145" lon="9.4079283"><ele>90.5</ele><time>2026-05-01T09:50:02.666Z</time></trkpt><trkpt lat="41.0160667" lon="9.4077733"><ele>91.25</ele><time>2026-05-01T09:50:03.667Z</time></trkpt><trkpt lat="41.0159883" lon="9.4076367"><ele>92.0</ele><time>2026-05-01T09:50:04.666Z</time></trkpt><trkpt lat="41.0159017" lon="9.4075017"><ele>92.0</ele><time>2026-05-01T09:50:05.666Z</time></trkpt><trkpt lat="41.0158117" lon="9.4073817"><ele>92.0</ele><time>2026-05-01T09:50:06.666Z</time></trkpt><trkpt lat="41.01572" lon="9.4072633"><ele>92.0</ele><time>2026-05-01T09:50:07.666Z</time></trkpt><trkpt lat="41.015625" lon="9.4071283"><ele>92.0</ele><time>2026-05-01T09:50:08.666Z</time></trkpt><trkpt lat="41.0155333" lon="9.40699"><ele>92.0</ele><time>2026-05-01T09:50:09.666Z</time></trkpt><trkpt lat="41.01544" lon="9.4068517"><ele>92.0</ele><time>2026-05-01T09:50:10.666Z</time></trkpt><trkpt lat="41.0153517" lon="9.4067283"><ele>92.0</ele><time>2026-05-01T09:50:11.666Z</time></trkpt><trkpt lat="41.0152717" lon="9.4066183"><ele>92.0</ele><time>2026-05-01T09:50:12.666Z</time></trkpt><trkpt lat="41.015205" lon="9.4065167"><ele>92.0</ele><time>2026-05-01T09:50:13.666Z</time></trkpt><trkpt lat="41.0151417" lon="9.40643"><ele>92.0</ele><time>2026-05-01T09:50:14.666Z</time></trkpt><trkpt lat="41.01507" lon="9.4063533"><ele>92.0</ele><time>2026-05-01T09:50:15.666Z</time></trkpt><trkpt lat="41.0149983" lon="9.4062967"><ele>92.0</ele><time>2026-05-01T09:50:16.666Z</time></trkpt><trkpt lat="41.01493" lon="9.406255"><ele>92.0</ele><time>2026-05-01T09:50:17.666Z</time></trkpt><trkpt lat="41.0148467" lon="9.4062217"><ele>92.0</ele><time>2026-05-01T09:50:18.666Z</time></trkpt><trkpt lat="41.0147667" lon="9.4062067"><ele>92.6</ele><time>2026-05-01T09:50:19.666Z</time></trkpt><trkpt lat="41.0146767" lon="9.4062117"><ele>93.19999999999999</ele><time>2026-05-01T09:50:20.666Z</time></trkpt><trkpt lat="41.0145867" lon="9.4062367"><ele>93.8</ele><time>2026-05-01T09:50:21.666Z</time></trkpt><trkpt lat="41.0144883" lon="9.4062783"><ele>94.4</ele><time>2026-05-01T09:50:22.666Z</time></trkpt><trkpt lat="41.0143967" lon="9.4063417"><ele>95.0</ele><time>2026-05-01T09:50:23.666Z</time></trkpt><trkpt lat="41.0142867" lon="9.4063733"><ele>95.0</ele><time>2026-05-01T09:50:24.666Z</time></trkpt><trkpt lat="41.014195" lon="9.406385"><ele>95.0</ele><time>2026-05-01T09:50:25.666Z</time></trkpt><trkpt lat="41.014105" lon="9.4063683"><ele>95.0</ele><time>2026-05-01T09:50:26.666Z</time></trkpt><trkpt lat="41.01402" lon="9.4063267"><ele>95.0</ele><time>2026-05-01T09:50:27.666Z</time></trkpt><trkpt lat="41.0139367" lon="9.40628"><ele>95.0</ele><time>2026-05-01T09:50:28.666Z</time></trkpt><trkpt lat="41.01386" lon="9.4062117"><ele>96.75</ele><time>2026-05-01T09:50:29.666Z</time></trkpt><trkpt lat="41.013755" lon="9.4061467"><ele>98.5</ele><time>2026-05-01T09:50:30.666Z</time></trkpt><trkpt lat="41.01366" lon="9.40607"><ele>100.25</ele><time>2026-05-01T09:50:31.666Z</time></trkpt><trkpt lat="41.0135567" lon="9.4059967"><ele>102.0</ele><time>2026-05-01T09:50:32.666Z</time></trkpt><trkpt lat="41.0134533" lon="9.4059167"><ele>102.0</ele><time>2026-05-01T09:50:33.666Z</time></trkpt><trkpt lat="41.0133583" lon="9.4058583"><ele>102.0</ele><time>2026-05-01T09:50:34.666Z</time></trkpt><trkpt lat="41.01328" lon="9.4058083"><ele>102.0</ele><time>2026-05-01T09:50:35.666Z</time></trkpt><trkpt lat="41.0131933" lon="9.4057517"><ele>102.0</ele><time>2026-05-01T09:50:36.666Z</time></trkpt><trkpt lat="41.0131217" lon="9.4057183"><ele>102.0</ele><time>2026-05-01T09:50:37.666Z</time></trkpt><trkpt lat="41.0130233" lon="9.4056717"><ele>102.6</ele><time>2026-05-01T09:50:39.666Z</time></trkpt><trkpt lat="41.0130767" lon="9.4057383"><ele>103.19999999999999</ele><time>2026-05-01T09:50:50.666Z</time></trkpt><trkpt lat="41.01309" lon="9.4056383"><ele>103.8</ele><time>2026-05-01T09:50:52.667Z</time></trkpt><trkpt lat="41.013135" lon="9.405465"><ele>104.4</ele><time>2026-05-01T09:50:54.666Z</time></trkpt><trkpt lat="41.0131633" lon="9.405345"><ele>105.0</ele><time>2026-05-01T09:50:55.666Z</time></trkpt><trkpt lat="41.0131933" lon="9.4052117"><ele>105.6</ele><time>2026-05-01T09:50:56.666Z</time></trkpt><trkpt lat="41.013215" lon="9.4050867"><ele>106.2</ele><time>2026-05-01T09:50:57.666Z</time></trkpt><trkpt lat="41.0132517" lon="9.4049617"><ele>106.80000000000001</ele><time>2026-05-01T09:50:58.666Z</time></trkpt><trkpt lat="41.013285" lon="9.404855"><ele>107.4</ele><time>2026-05-01T09:50:59.666Z</time></trkpt><trkpt lat="41.013305" lon="9.404775"><ele>108.0</ele><time>2026-05-01T09:51:00.666Z</time></trkpt><trkpt lat="41.0133" lon="9.4045933"><ele>108.0</ele><time>2026-05-01T09:51:02.666Z</time></trkpt><trkpt lat="41.0132817" lon="9.4044717"><ele>108.00000000000001</ele><time>2026-05-01T09:51:03.666Z</time></trkpt><trkpt lat="41.0132583" lon="9.40433"><ele>108.00000000000001</ele><time>2026-05-01T09:51:04.666Z</time></trkpt><trkpt lat="41.013225" lon="9.4041867"><ele>108.0</ele><time>2026-05-01T09:51:05.666Z</time></trkpt><trkpt lat="41.0132017" lon="9.404045"><ele>108.0</ele><time>2026-05-01T09:51:06.666Z</time></trkpt><trkpt lat="41.0131933" lon="9.4039167"><ele>107.80000000000001</ele><time>2026-05-01T09:51:07.667Z</time></trkpt><trkpt lat="41.0131967" lon="9.4037833"><ele>107.60000000000001</ele><time>2026-05-01T09:51:08.666Z</time></trkpt><trkpt lat="41.0132233" lon="9.4036367"><ele>107.39999999999999</ele><time>2026-05-01T09:51:09.666Z</time></trkpt><trkpt lat="41.013255" lon="9.40349"><ele>107.19999999999999</ele><time>2026-05-01T09:51:10.666Z</time></trkpt><trkpt lat="41.0132883" lon="9.4033517"><ele>107.0</ele><time>2026-05-01T09:51:11.666Z</time></trkpt><trkpt lat="41.0133383" lon="9.403205"><ele>107.0</ele><time>2026-05-01T09:51:12.666Z</time></trkpt><trkpt lat="41.0133917" lon="9.4030633"><ele>106.99999999999999</ele><time>2026-05-01T09:51:13.666Z</time></trkpt><trkpt lat="41.0134483" lon="9.4029383"><ele>106.99999999999999</ele><time>2026-05-01T09:51:14.666Z</time></trkpt><trkpt lat="41.0135083" lon="9.40282"><ele>107.0</ele><time>2026-05-01T09:51:15.666Z</time></trkpt><trkpt lat="41.0135617" lon="9.4027133"><ele>107.0</ele><time>2026-05-01T09:51:16.667Z</time></trkpt><trkpt lat="41.0136283" lon="9.4026183"><ele>107.0</ele><time>2026-05-01T09:51:17.666Z</time></trkpt><trkpt lat="41.0137067" lon="9.40253"><ele>106.99999999999999</ele><time>2026-05-01T09:51:18.666Z</time></trkpt><trkpt lat="41.0137967" lon="9.4024233"><ele>106.99999999999999</ele><time>2026-05-01T09:51:19.666Z</time></trkpt><trkpt lat="41.013885" lon="9.402335"><ele>107.0</ele><time>2026-05-01T09:51:20.666Z</time></trkpt><trkpt lat="41.0139633" lon="9.4022433"><ele>107.0</ele><time>2026-05-01T09:51:21.666Z</time></trkpt><trkpt lat="41.0140467" lon="9.4021633"><ele>106.5</ele><time>2026-05-01T09:51:22.666Z</time></trkpt><trkpt lat="41.014145" lon="9.4020717"><ele>106.0</ele><time>2026-05-01T09:51:23.666Z</time></trkpt><trkpt lat="41.0142567" lon="9.4019967"><ele>105.5</ele><time>2026-05-01T09:51:24.666Z</time></trkpt><trkpt lat="41.0143633" lon="9.401905"><ele>105.0</ele><time>2026-05-01T09:51:25.666Z</time></trkpt><trkpt lat="41.01446" lon="9.4017983"><ele>105.0</ele><time>2026-05-01T09:51:26.666Z</time></trkpt><trkpt lat="41.014585" lon="9.4017233"><ele>105.0</ele><time>2026-05-01T09:51:27.666Z</time></trkpt><trkpt lat="41.0147317" lon="9.40167"><ele>105.0</ele><time>2026-05-01T09:51:28.666Z</time></trkpt><trkpt lat="41.014875" lon="9.4016183"><ele>105.0</ele><time>2026-05-01T09:51:29.667Z</time></trkpt><trkpt lat="41.0150267" lon="9.4015517"><ele>104.75</ele><time>2026-05-01T09:51:30.666Z</time></trkpt><trkpt lat="41.0151767" lon="9.401475"><ele>104.5</ele><time>2026-05-01T09:51:31.666Z</time></trkpt><trkpt lat="41.0153117" lon="9.4013967"><ele>104.25</ele><time>2026-05-01T09:51:32.666Z</time></trkpt><trkpt lat="41.01541" lon="9.4013167"><ele>104.0</ele><time>2026-05-01T09:51:33.666Z</time></trkpt><trkpt lat="41.0155133" lon="9.401245"><ele>104.0</ele><time>2026-05-01T09:51:34.666Z</time></trkpt><trkpt lat="41.0156167" lon="9.4011733"><ele>104.0</ele><time>2026-05-01T09:51:35.666Z</time></trkpt><trkpt lat="41.0157117" lon="9.4010883"><ele>104.0</ele><time>2026-05-01T09:51:36.666Z</time></trkpt><trkpt lat="41.0158117" lon="9.4010183"><ele>104.0</ele><time>2026-05-01T09:51:37.666Z</time></trkpt><trkpt lat="41.0158933" lon="9.40095"><ele>104.0</ele><time>2026-05-01T09:51:38.666Z</time></trkpt><trkpt lat="41.01597" lon="9.4008833"><ele>103.99999999999999</ele><time>2026-05-01T09:51:39.666Z</time></trkpt><trkpt lat="41.01602" lon="9.4008267"><ele>104.0</ele><time>2026-05-01T09:51:40.666Z</time></trkpt><trkpt lat="41.01609" lon="9.4007567"><ele>104.0</ele><time>2026-05-01T09:51:41.666Z</time></trkpt><trkpt lat="41.016125" lon="9.4006767"><ele>104.0</ele><time>2026-05-01T09:51:42.666Z</time></trkpt><trkpt lat="41.0161017" lon="9.40057"><ele>103.99999999999999</ele><time>2026-05-01T09:51:43.666Z</time></trkpt><trkpt lat="41.01613" lon="9.4004667"><ele>104.0</ele><time>2026-05-01T09:51:44.666Z</time></trkpt><trkpt lat="41.016175" lon="9.4003833"><ele>103.83333333333333</ele><time>2026-05-01T09:51:45.666Z</time></trkpt><trkpt lat="41.0162133" lon="9.4003117"><ele>103.66666666666666</ele><time>2026-05-01T09:51:46.666Z</time></trkpt><trkpt lat="41.0162483" lon="9.4002083"><ele>103.5</ele><time>2026-05-01T09:51:47.666Z</time></trkpt><trkpt lat="41.0162817" lon="9.4000867"><ele>103.33333333333334</ele><time>2026-05-01T09:51:48.666Z</time></trkpt><trkpt lat="41.0163067" lon="9.39997"><ele>103.16666666666667</ele><time>2026-05-01T09:51:49.666Z</time></trkpt><trkpt lat="41.0163217" lon="9.39984"><ele>103.0</ele><time>2026-05-01T09:51:50.667Z</time></trkpt><trkpt lat="41.0163633" lon="9.3997217"><ele>103.4</ele><time>2026-05-01T09:51:51.666Z</time></trkpt><trkpt lat="41.0163933" lon="9.3996"><ele>103.80000000000001</ele><time>2026-05-01T09:51:52.666Z</time></trkpt><trkpt lat="41.0164383" lon="9.39948"><ele>104.2</ele><time>2026-05-01T09:51:53.666Z</time></trkpt><trkpt lat="41.0164883" lon="9.399335"><ele>104.6</ele><time>2026-05-01T09:51:54.666Z</time></trkpt><trkpt lat="41.0165467" lon="9.3991917"><ele>105.0</ele><time>2026-05-01T09:51:55.666Z</time></trkpt><trkpt lat="41.0166217" lon="9.3990683"><ele>106.5</ele><time>2026-05-01T09:51:56.666Z</time></trkpt><trkpt lat="41.01668" lon="9.3989417"><ele>108.0</ele><time>2026-05-01T09:51:57.666Z</time></trkpt><trkpt lat="41.0167483" lon="9.398805"><ele>109.5</ele><time>2026-05-01T09:51:58.666Z</time></trkpt><trkpt lat="41.016815" lon="9.3986717"><ele>111.0</ele><time>2026-05-01T09:51:59.666Z</time></trkpt><trkpt lat="41.0168783" lon="9.3985367"><ele>111.5</ele><time>2026-05-01T09:52:00.666Z</time></trkpt><trkpt lat="41.01694" lon="9.3984167"><ele>112.0</ele><time>2026-05-01T09:52:01.666Z</time></trkpt><trkpt lat="41.0170017" lon="9.3982867"><ele>112.5</ele><time>2026-05-01T09:52:02.666Z</time></trkpt><trkpt lat="41.0170633" lon="9.398165"><ele>113.0</ele><time>2026-05-01T09:52:03.666Z</time></trkpt><trkpt lat="41.017125" lon="9.3980367"><ele>114.0</ele><time>2026-05-01T09:52:04.666Z</time></trkpt><trkpt lat="41.0171783" lon="9.39792"><ele>115.00000000000001</ele><time>2026-05-01T09:52:05.666Z</time></trkpt><trkpt lat="41.0172167" lon="9.3977917"><ele>116.00000000000001</ele><time>2026-05-01T09:52:06.666Z</time></trkpt><trkpt lat="41.0172633" lon="9.3976683"><ele>117.0</ele><time>2026-05-01T09:52:07.666Z</time></trkpt><trkpt lat="41.0172983" lon="9.397535"><ele>118.0</ele><time>2026-05-01T09:52:08.666Z</time></trkpt><trkpt lat="41.01732" lon="9.397415"><ele>118.0</ele><time>2026-05-01T09:52:09.666Z</time></trkpt><trkpt lat="41.0173033" lon="9.397305"><ele>118.00000000000001</ele><time>2026-05-01T09:52:10.666Z</time></trkpt><trkpt lat="41.01729" lon="9.3971833"><ele>118.00000000000001</ele><time>2026-05-01T09:52:11.666Z</time></trkpt><trkpt lat="41.0172917" lon="9.3970467"><ele>118.0</ele><time>2026-05-01T09:52:12.666Z</time></trkpt><trkpt lat="41.0172833" lon="9.3968983"><ele>118.0</ele><time>2026-05-01T09:52:13.666Z</time></trkpt><trkpt lat="41.01728" lon="9.3967367"><ele>118.0</ele><time>2026-05-01T09:52:14.666Z</time></trkpt><trkpt lat="41.0172883" lon="9.3965683"><ele>118.0</ele><time>2026-05-01T09:52:15.666Z</time></trkpt><trkpt lat="41.0173" lon="9.3963983"><ele>118.0</ele><time>2026-05-01T09:52:16.666Z</time></trkpt><trkpt lat="41.0172967" lon="9.396225"><ele>118.0</ele><time>2026-05-01T09:52:17.666Z</time></trkpt><trkpt lat="41.0173183" lon="9.3961217"><ele>118.0</ele><time>2026-05-01T09:52:18.666Z</time></trkpt><trkpt lat="41.0173317" lon="9.3959533"><ele>118.00000000000001</ele><time>2026-05-01T09:52:19.666Z</time></trkpt><trkpt lat="41.0173733" lon="9.3958383"><ele>118.00000000000001</ele><time>2026-05-01T09:52:20.666Z</time></trkpt><trkpt lat="41.017415" lon="9.3957467"><ele>118.0</ele><time>2026-05-01T09:52:21.666Z</time></trkpt><trkpt lat="41.0174667" lon="9.3956617"><ele>118.0</ele><time>2026-05-01T09:52:22.666Z</time></trkpt><trkpt lat="41.0175183" lon="9.3955683"><ele>123.0</ele><time>2026-05-01T09:52:23.666Z</time></trkpt><trkpt lat="41.0175583" lon="9.39546"><ele>128.0</ele><time>2026-05-01T09:52:24.666Z</time></trkpt><trkpt lat="41.0175967" lon="9.3953233"><ele>133.0</ele><time>2026-05-01T09:52:25.666Z</time></trkpt><trkpt lat="41.0176317" lon="9.39518"><ele>138.0</ele><time>2026-05-01T09:52:26.666Z</time></trkpt><trkpt lat="41.017695" lon="9.3950317"><ele>143.0</ele><time>2026-05-01T09:52:27.666Z</time></trkpt><trkpt lat="41.0177367" lon="9.3948567"><ele>143.0</ele><time>2026-05-01T09:52:28.666Z</time></trkpt><trkpt lat="41.0177733" lon="9.3946783"><ele>143.0</ele><time>2026-05-01T09:52:29.666Z</time></trkpt><trkpt lat="41.0178033" lon="9.3945117"><ele>143.0</ele><time>2026-05-01T09:52:30.666Z</time></trkpt><trkpt lat="41.017835" lon="9.3943617"><ele>143.0</ele><time>2026-05-01T09:52:31.666Z</time></trkpt><trkpt lat="41.017875" lon="9.3942183"><ele>144.5</ele><time>2026-05-01T09:52:32.666Z</time></trkpt><trkpt lat="41.0179117" lon="9.394055"><ele>146.0</ele><time>2026-05-01T09:52:33.666Z</time></trkpt><trkpt lat="41.0179467" lon="9.393885"><ele>147.5</ele><time>2026-05-01T09:52:34.666Z</time></trkpt><trkpt lat="41.0179717" lon="9.39372"><ele>149.0</ele><time>2026-05-01T09:52:35.666Z</time></trkpt><trkpt lat="41.0180117" lon="9.3935783"><ele>150.0</ele><time>2026-05-01T09:52:36.666Z</time></trkpt><trkpt lat="41.0180783" lon="9.3934467"><ele>151.0</ele><time>2026-05-01T09:52:37.666Z</time></trkpt><trkpt lat="41.0181567" lon="9.3933317"><ele>152.0</ele><time>2026-05-01T09:52:38.666Z</time></trkpt><trkpt lat="41.0182333" lon="9.3932217"><ele>153.0</ele><time>2026-05-01T09:52:39.666Z</time></trkpt><trkpt lat="41.0183083" lon="9.3931283"><ele>153.6</ele><time>2026-05-01T09:52:40.666Z</time></trkpt><trkpt lat="41.0183983" lon="9.39305"><ele>154.20000000000002</ele><time>2026-05-01T09:52:41.666Z</time></trkpt><trkpt lat="41.018455" lon="9.3929667"><ele>154.8</ele><time>2026-05-01T09:52:42.666Z</time></trkpt><trkpt lat="41.01851" lon="9.3928883"><ele>155.4</ele><time>2026-05-01T09:52:43.666Z</time></trkpt><trkpt lat="41.0185567" lon="9.3927783"><ele>156.0</ele><time>2026-05-01T09:52:44.666Z</time></trkpt><trkpt lat="41.0186033" lon="9.3926633"><ele>156.6</ele><time>2026-05-01T09:52:45.666Z</time></trkpt><trkpt lat="41.01865" lon="9.39256"><ele>157.2</ele><time>2026-05-01T09:52:46.666Z</time></trkpt><trkpt lat="41.0186983" lon="9.3924317"><ele>157.8</ele><time>2026-05-01T09:52:47.666Z</time></trkpt><trkpt lat="41.01875" lon="9.3923117"><ele>158.4</ele><time>2026-05-01T09:52:48.666Z</time></trkpt><trkpt lat="41.0187883" lon="9.3921933"><ele>159.0</ele><time>2026-05-01T09:52:49.666Z</time></trkpt><trkpt lat="41.0188367" lon="9.3920933"><ele>159.0</ele><time>2026-05-01T09:52:50.666Z</time></trkpt><trkpt lat="41.018885" lon="9.3919967"><ele>159.0</ele><time>2026-05-01T09:52:51.667Z</time></trkpt><trkpt lat="41.01892" lon="9.3919083"><ele>159.0</ele><time>2026-05-01T09:52:52.666Z</time></trkpt><trkpt lat="41.01895" lon="9.3918283"><ele>159.0</ele><time>2026-05-01T09:52:53.666Z</time></trkpt><trkpt lat="41.0188967" lon="9.3917217"><ele>159.0</ele><time>2026-05-01T09:52:55.666Z</time></trkpt><trkpt lat="41.0188233" lon="9.3916017"><ele>159.0</ele><time>2026-05-01T09:52:57.666Z</time></trkpt><trkpt lat="41.0187667" lon="9.39154"><ele>159.0</ele><time>2026-05-01T09:52:58.666Z</time></trkpt><trkpt lat="41.0187" lon="9.391475"><ele>159.0</ele><time>2026-05-01T09:52:59.666Z</time></trkpt><trkpt lat="41.01862" lon="9.391405"><ele>159.0</ele><time>2026-05-01T09:53:00.666Z</time></trkpt><trkpt lat="41.0185283" lon="9.391325"><ele>159.0</ele><time>2026-05-01T09:53:01.666Z</time></trkpt><trkpt lat="41.01844" lon="9.391245"><ele>159.0</ele><time>2026-05-01T09:53:02.666Z</time></trkpt><trkpt lat="41.018355" lon="9.3911633"><ele>156.25</ele><time>2026-05-01T09:53:03.666Z</time></trkpt><trkpt lat="41.0182683" lon="9.3910967"><ele>153.5</ele><time>2026-05-01T09:53:04.666Z</time></trkpt><trkpt lat="41.018165" lon="9.391025"><ele>150.75</ele><time>2026-05-01T09:53:05.666Z</time></trkpt><trkpt lat="41.018065" lon="9.3909483"><ele>148.0</ele><time>2026-05-01T09:53:06.666Z</time></trkpt><trkpt lat="41.0179567" lon="9.3908633"><ele>148.0</ele><time>2026-05-01T09:53:07.666Z</time></trkpt><trkpt lat="41.017855" lon="9.3907767"><ele>148.0</ele><time>2026-05-01T09:53:08.666Z</time></trkpt><trkpt lat="41.0177517" lon="9.390695"><ele>148.0</ele><time>2026-05-01T09:53:09.666Z</time></trkpt><trkpt lat="41.0176617" lon="9.3906117"><ele>148.0</ele><time>2026-05-01T09:53:10.666Z</time></trkpt><trkpt lat="41.0175833" lon="9.3905283"><ele>148.6</ele><time>2026-05-01T09:53:11.666Z</time></trkpt><trkpt lat="41.0175183" lon="9.3904383"><ele>149.20000000000002</ele><time>2026-05-01T09:53:12.666Z</time></trkpt><trkpt lat="41.0174583" lon="9.3903333"><ele>149.8</ele><time>2026-05-01T09:53:13.666Z</time></trkpt><trkpt lat="41.0174117" lon="9.3902517"><ele>150.4</ele><time>2026-05-01T09:53:14.666Z</time></trkpt><trkpt lat="41.0173683" lon="9.39014"><ele>151.0</ele><time>2026-05-01T09:53:15.666Z</time></trkpt><trkpt lat="41.0173383" lon="9.39"><ele>149.16666666666669</ele><time>2026-05-01T09:53:16.666Z</time></trkpt><trkpt lat="41.017305" lon="9.3898733"><ele>147.33333333333334</ele><time>2026-05-01T09:53:17.666Z</time></trkpt><trkpt lat="41.0172683" lon="9.3897567"><ele>145.5</ele><time>2026-05-01T09:53:18.666Z</time></trkpt><trkpt lat="41.0172433" lon="9.3896483"><ele>143.66666666666666</ele><time>2026-05-01T09:53:19.666Z</time></trkpt><trkpt lat="41.0172267" lon="9.3895517"><ele>141.83333333333331</ele><time>2026-05-01T09:53:20.666Z</time></trkpt><trkpt lat="41.01725" lon="9.3894367"><ele>140.0</ele><time>2026-05-01T09:53:21.666Z</time></trkpt><trkpt lat="41.01729" lon="9.38932"><ele>140.0</ele><time>2026-05-01T09:53:22.666Z</time></trkpt><trkpt lat="41.017335" lon="9.3892183"><ele>140.0</ele><time>2026-05-01T09:53:23.666Z</time></trkpt><trkpt lat="41.0173633" lon="9.3891267"><ele>140.0</ele><time>2026-05-01T09:53:24.666Z</time></trkpt><trkpt lat="41.0173617" lon="9.3889767"><ele>140.0</ele><time>2026-05-01T09:53:26.667Z</time></trkpt><trkpt lat="41.0173167" lon="9.3889"><ele>140.0</ele><time>2026-05-01T09:53:27.666Z</time></trkpt><trkpt lat="41.0172533" lon="9.3888217"><ele>140.0</ele><time>2026-05-01T09:53:28.666Z</time></trkpt><trkpt lat="41.01718" lon="9.3887533"><ele>139.83333333333331</ele><time>2026-05-01T09:53:29.666Z</time></trkpt><trkpt lat="41.0170983" lon="9.3886783"><ele>139.66666666666666</ele><time>2026-05-01T09:53:30.666Z</time></trkpt><trkpt lat="41.0170283" lon="9.3886083"><ele>139.5</ele><time>2026-05-01T09:53:31.666Z</time></trkpt><trkpt lat="41.0169417" lon="9.3885"><ele>139.33333333333334</ele><time>2026-05-01T09:53:33.666Z</time></trkpt><trkpt lat="41.01691" lon="9.3884267"><ele>139.16666666666669</ele><time>2026-05-01T09:53:34.666Z</time></trkpt><trkpt lat="41.0168733" lon="9.3883467"><ele>139.0</ele><time>2026-05-01T09:53:35.666Z</time></trkpt><trkpt lat="41.0168533" lon="9.3882517"><ele>139.0</ele><time>2026-05-01T09:53:36.666Z</time></trkpt><trkpt lat="41.016825" lon="9.3881767"><ele>139.0</ele><time>2026-05-01T09:53:37.666Z</time></trkpt><trkpt lat="41.0167883" lon="9.3880833"><ele>139.0</ele><time>2026-05-01T09:53:39.666Z</time></trkpt><trkpt lat="41.016705" lon="9.3881083"><ele>139.0</ele><time>2026-05-01T09:53:42.667Z</time></trkpt><trkpt lat="41.0166317" lon="9.3881983"><ele>139.0</ele><time>2026-05-01T09:53:44.666Z</time></trkpt><trkpt lat="41.0165833" lon="9.388265"><ele>139.0</ele><time>2026-05-01T09:53:45.666Z</time></trkpt><trkpt lat="41.0165283" lon="9.3883467"><ele>141.4</ele><time>2026-05-01T09:53:46.666Z</time></trkpt><trkpt lat="41.0164667" lon="9.3884367"><ele>143.8</ele><time>2026-05-01T09:53:47.666Z</time></trkpt><trkpt lat="41.016415" lon="9.38855"><ele>146.2</ele><time>2026-05-01T09:53:48.666Z</time></trkpt><trkpt lat="41.01638" lon="9.3886483"><ele>148.6</ele><time>2026-05-01T09:53:49.666Z</time></trkpt><trkpt lat="41.016345" lon="9.38875"><ele>151.0</ele><time>2026-05-01T09:53:50.666Z</time></trkpt><trkpt lat="41.0163067" lon="9.3888633"><ele>151.16666666666669</ele><time>2026-05-01T09:53:51.666Z</time></trkpt><trkpt lat="41.01626" lon="9.3889633"><ele>151.33333333333334</ele><time>2026-05-01T09:53:52.666Z</time></trkpt><trkpt lat="41.01622" lon="9.3890433"><ele>151.5</ele><time>2026-05-01T09:53:53.666Z</time></trkpt><trkpt lat="41.0161533" lon="9.3891267"><ele>151.66666666666666</ele><time>2026-05-01T09:53:55.666Z</time></trkpt><trkpt lat="41.0162067" lon="9.3890683"><ele>151.83333333333331</ele><time>2026-05-01T09:54:31.667Z</time></trkpt><trkpt lat="41.0161383" lon="9.3891067"><ele>152.0</ele><time>2026-05-01T09:54:40.666Z</time></trkpt><trkpt lat="41.01607" lon="9.3891367"><ele>152.0</ele><time>2026-05-01T09:54:42.665Z</time></trkpt><trkpt lat="41.0159767" lon="9.3891833"><ele>152.0</ele><time>2026-05-01T09:54:44.665Z</time></trkpt><trkpt lat="41.01591" lon="9.3892167"><ele>152.0</ele><time>2026-05-01T09:54:45.665Z</time></trkpt><trkpt lat="41.0158317" lon="9.389315"><ele>152.0</ele><time>2026-05-01T09:54:47.665Z</time></trkpt><trkpt lat="41.0157483" lon="9.38943"><ele>152.0</ele><time>2026-05-01T09:54:49.665Z</time></trkpt><trkpt lat="41.015705" lon="9.3894983"><ele>153.6</ele><time>2026-05-01T09:54:50.665Z</time></trkpt><trkpt lat="41.0156333" lon="9.3895917"><ele>155.2</ele><time>2026-05-01T09:54:52.665Z</time></trkpt><trkpt lat="41.01555" lon="9.3896633"><ele>156.8</ele><time>2026-05-01T09:54:54.665Z</time></trkpt><trkpt lat="41.0154433" lon="9.389695"><ele>158.4</ele><time>2026-05-01T09:54:56.665Z</time></trkpt><trkpt lat="41.0153417" lon="9.3897317"><ele>160.0</ele><time>2026-05-01T09:54:58.665Z</time></trkpt><trkpt lat="41.0152767" lon="9.3897483"><ele>160.5</ele><time>2026-05-01T09:54:59.665Z</time></trkpt><trkpt lat="41.0151617" lon="9.3897883"><ele>161.0</ele><time>2026-05-01T09:55:01.665Z</time></trkpt><trkpt lat="41.0150717" lon="9.38979"><ele>161.5</ele><time>2026-05-01T09:55:03.665Z</time></trkpt><trkpt lat="41.0149817" lon="9.3898067"><ele>162.0</ele><time>2026-05-01T09:55:06.665Z</time></trkpt><trkpt lat="41.014915" lon="9.3898383"><ele>162.5</ele><time>2026-05-01T09:55:10.665Z</time></trkpt><trkpt lat="41.0148483" lon="9.389835"><ele>163.0</ele><time>2026-05-01T09:55:14.665Z</time></trkpt><trkpt lat="41.0147833" lon="9.3897783"><ele>164.66666666666669</ele><time>2026-05-01T09:55:32.665Z</time></trkpt><trkpt lat="41.0147083" lon="9.389745"><ele>166.33333333333334</ele><time>2026-05-01T09:55:35.666Z</time></trkpt><trkpt lat="41.01463" lon="9.3897167"><ele>168.0</ele><time>2026-05-01T09:55:37.665Z</time></trkpt><trkpt lat="41.0145533" lon="9.3896983"><ele>169.66666666666666</ele><time>2026-05-01T09:55:39.665Z</time></trkpt><trkpt lat="41.014445" lon="9.3896817"><ele>171.33333333333331</ele><time>2026-05-01T09:55:41.665Z</time></trkpt><trkpt lat="41.01438" lon="9.38968"><ele>173.0</ele><time>2026-05-01T09:55:42.665Z</time></trkpt><trkpt lat="41.014255" lon="9.3896767"><ele>172.60000000000002</ele><time>2026-05-01T09:55:44.665Z</time></trkpt><trkpt lat="41.0141867" lon="9.389665"><ele>172.20000000000002</ele><time>2026-05-01T09:55:45.665Z</time></trkpt><trkpt lat="41.0141217" lon="9.3896517"><ele>171.8</ele><time>2026-05-01T09:55:46.665Z</time></trkpt><trkpt lat="41.0140067" lon="9.3896283"><ele>171.4</ele><time>2026-05-01T09:55:48.665Z</time></trkpt><trkpt lat="41.0138933" lon="9.389605"><ele>171.0</ele><time>2026-05-01T09:55:50.665Z</time></trkpt><trkpt lat="41.0137733" lon="9.389565"><ele>172.0</ele><time>2026-05-01T09:55:52.665Z</time></trkpt><trkpt lat="41.0137117" lon="9.3895333"><ele>173.0</ele><time>2026-05-01T09:55:53.665Z</time></trkpt><trkpt lat="41.01364" lon="9.3895033"><ele>174.0</ele><time>2026-05-01T09:55:54.665Z</time></trkpt><trkpt lat="41.0135167" lon="9.38947"><ele>175.0</ele><time>2026-05-01T09:55:56.665Z</time></trkpt><trkpt lat="41.013395" lon="9.38944"><ele>176.0</ele><time>2026-05-01T09:55:58.665Z</time></trkpt><trkpt lat="41.0132783" lon="9.3894033"><ele>177.14285714285714</ele><time>2026-05-01T09:56:00.665Z</time></trkpt><trkpt lat="41.0132117" lon="9.3893883"><ele>178.28571428571428</ele><time>2026-05-01T09:56:01.665Z</time></trkpt><trkpt lat="41.0131333" lon="9.3893767"><ele>179.42857142857144</ele><time>2026-05-01T09:56:02.665Z</time></trkpt><trkpt lat="41.0130683" lon="9.3893617"><ele>180.57142857142856</ele><time>2026-05-01T09:56:03.665Z</time></trkpt><trkpt lat="41.012995" lon="9.3893417"><ele>181.7142857142857</ele><time>2026-05-01T09:56:04.665Z</time></trkpt><trkpt lat="41.01293" lon="9.3893233"><ele>182.85714285714286</ele><time>2026-05-01T09:56:05.665Z</time></trkpt><trkpt lat="41.0128633" lon="9.38932"><ele>184.0</ele><time>2026-05-01T09:56:06.665Z</time></trkpt><trkpt lat="41.01279" lon="9.389325"><ele>184.0</ele><time>2026-05-01T09:56:07.665Z</time></trkpt><trkpt lat="41.0127233" lon="9.3893367"><ele>184.0</ele><time>2026-05-01T09:56:08.665Z</time></trkpt><trkpt lat="41.0126517" lon="9.3893517"><ele>184.0</ele><time>2026-05-01T09:56:09.665Z</time></trkpt><trkpt lat="41.01253" lon="9.3893683"><ele>184.0</ele><time>2026-05-01T09:56:11.665Z</time></trkpt><trkpt lat="41.0124133" lon="9.3894"><ele>184.0</ele><time>2026-05-01T09:56:13.665Z</time></trkpt><trkpt lat="41.0123467" lon="9.3894117"><ele>184.0</ele><time>2026-05-01T09:56:14.665Z</time></trkpt><trkpt lat="41.0122483" lon="9.3894117"><ele>187.2</ele><time>2026-05-01T09:56:16.665Z</time></trkpt><trkpt lat="41.0121483" lon="9.3893833"><ele>190.39999999999998</ele><time>2026-05-01T09:56:18.665Z</time></trkpt><trkpt lat="41.0120433" lon="9.3893767"><ele>193.6</ele><time>2026-05-01T09:56:20.665Z</time></trkpt><trkpt lat="41.0119267" lon="9.3893767"><ele>196.8</ele><time>2026-05-01T09:56:22.665Z</time></trkpt><trkpt lat="41.0118583" lon="9.38939"><ele>200.0</ele><time>2026-05-01T09:56:23.665Z</time></trkpt><trkpt lat="41.01175" lon="9.3894233"><ele>200.83333333333334</ele><time>2026-05-01T09:56:25.665Z</time></trkpt><trkpt lat="41.0116517" lon="9.3894783"><ele>201.66666666666669</ele><time>2026-05-01T09:56:27.665Z</time></trkpt><trkpt lat="41.0116133" lon="9.38956"><ele>202.5</ele><time>2026-05-01T09:56:29.665Z</time></trkpt><trkpt lat="41.011575" lon="9.3896583"><ele>203.33333333333331</ele><time>2026-05-01T09:56:31.665Z</time></trkpt><trkpt lat="41.0115033" lon="9.389745"><ele>204.16666666666666</ele><time>2026-05-01T09:56:33.665Z</time></trkpt><trkpt lat="41.011455" lon="9.3898033"><ele>205.0</ele><time>2026-05-01T09:56:34.665Z</time></trkpt><trkpt lat="41.0114033" lon="9.38986"><ele>204.99999999999997</ele><time>2026-05-01T09:56:35.665Z</time></trkpt><trkpt lat="41.0113517" lon="9.3899217"><ele>205.0</ele><time>2026-05-01T09:56:36.665Z</time></trkpt><trkpt lat="41.0113083" lon="9.3899883"><ele>205.0</ele><time>2026-05-01T09:56:37.665Z</time></trkpt><trkpt lat="41.0112533" lon="9.3900383"><ele>205.0</ele><time>2026-05-01T09:56:38.665Z</time></trkpt><trkpt lat="41.0111633" lon="9.390135"><ele>204.99999999999997</ele><time>2026-05-01T09:56:40.665Z</time></trkpt><trkpt lat="41.0110667" lon="9.3902283"><ele>205.0</ele><time>2026-05-01T09:56:42.665Z</time></trkpt><trkpt lat="41.0109567" lon="9.3903033"><ele>204.99999999999997</ele><time>2026-05-01T09:56:44.665Z</time></trkpt><trkpt lat="41.01088" lon="9.3903283"><ele>205.0</ele><time>2026-05-01T09:56:45.665Z</time></trkpt><trkpt lat="41.010815" lon="9.3903583"><ele>205.0</ele><time>2026-05-01T09:56:46.665Z</time></trkpt><trkpt lat="41.0107433" lon="9.3903983"><ele>205.0</ele><time>2026-05-01T09:56:47.665Z</time></trkpt><trkpt lat="41.01067" lon="9.39044"><ele>204.99999999999997</ele><time>2026-05-01T09:56:48.665Z</time></trkpt><trkpt lat="41.0105667" lon="9.3904717"><ele>205.0</ele><time>2026-05-01T09:56:50.665Z</time></trkpt><trkpt lat="41.01046" lon="9.390495"><ele>204.99999999999997</ele><time>2026-05-01T09:56:52.665Z</time></trkpt><trkpt lat="41.010385" lon="9.3905483"><ele>205.0</ele><time>2026-05-01T09:56:54.665Z</time></trkpt><trkpt lat="41.0104" lon="9.3906383"><ele>205.0</ele><time>2026-05-01T10:01:13.665Z</time></trkpt><trkpt lat="41.01046" lon="9.39073"><ele>205.0</ele><time>2026-05-01T10:02:59.665Z</time></trkpt><trkpt lat="41.0103733" lon="9.3907867"><ele>204.99999999999997</ele><time>2026-05-01T10:04:01.664Z</time></trkpt><trkpt lat="41.0103067" lon="9.3907733"><ele>205.0</ele><time>2026-05-01T10:04:32.664Z</time></trkpt><trkpt lat="41.0102" lon="9.3907683"><ele>205.0</ele><time>2026-05-01T10:04:34.664Z</time></trkpt><trkpt lat="41.010095" lon="9.3907433"><ele>205.0</ele><time>2026-05-01T10:04:36.664Z</time></trkpt><trkpt lat="41.0099783" lon="9.390695"><ele>205.0</ele><time>2026-05-01T10:04:38.664Z</time></trkpt><trkpt lat="41.0099117" lon="9.390665"><ele>205.0</ele><time>2026-05-01T10:04:39.664Z</time></trkpt><trkpt lat="41.0098083" lon="9.390625"><ele>205.0</ele><time>2026-05-01T10:04:41.664Z</time></trkpt><trkpt lat="41.0096867" lon="9.3905917"><ele>204.83333333333331</ele><time>2026-05-01T10:04:43.664Z</time></trkpt><trkpt lat="41.0096067" lon="9.3905667"><ele>204.66666666666666</ele><time>2026-05-01T10:04:44.664Z</time></trkpt><trkpt lat="41.00954" lon="9.3905417"><ele>204.5</ele><time>2026-05-01T10:04:45.664Z</time></trkpt><trkpt lat="41.00947" lon="9.3905233"><ele>204.33333333333331</ele><time>2026-05-01T10:04:46.664Z</time></trkpt><trkpt lat="41.0093683" lon="9.3904533"><ele>204.16666666666666</ele><time>2026-05-01T10:04:47.664Z</time></trkpt><trkpt lat="41.0093" lon="9.3904283"><ele>204.0</ele><time>2026-05-01T10:04:48.664Z</time></trkpt><trkpt lat="41.009235" lon="9.3904117"><ele>204.83333333333334</ele><time>2026-05-01T10:04:49.664Z</time></trkpt><trkpt lat="41.00915" lon="9.3903767"><ele>205.66666666666669</ele><time>2026-05-01T10:04:50.664Z</time></trkpt><trkpt lat="41.00907" lon="9.390355"><ele>206.5</ele><time>2026-05-01T10:04:51.664Z</time></trkpt><trkpt lat="41.0089817" lon="9.3903283"><ele>207.33333333333334</ele><time>2026-05-01T10:04:52.664Z</time></trkpt><trkpt lat="41.008895" lon="9.3903117"><ele>208.16666666666669</ele><time>2026-05-01T10:04:53.664Z</time></trkpt><trkpt lat="41.0088117" lon="9.39029"><ele>209.0</ele><time>2026-05-01T10:04:54.664Z</time></trkpt><trkpt lat="41.0087267" lon="9.390255"><ele>209.00000000000003</ele><time>2026-05-01T10:04:55.664Z</time></trkpt><trkpt lat="41.008655" lon="9.3902283"><ele>209.0</ele><time>2026-05-01T10:04:56.664Z</time></trkpt><trkpt lat="41.00858" lon="9.390215"><ele>209.0</ele><time>2026-05-01T10:04:57.664Z</time></trkpt><trkpt lat="41.008505" lon="9.3902083"><ele>209.0</ele><time>2026-05-01T10:04:58.664Z</time></trkpt><trkpt lat="41.008425" lon="9.3902167"><ele>209.00000000000003</ele><time>2026-05-01T10:04:59.664Z</time></trkpt><trkpt lat="41.008345" lon="9.3902183"><ele>209.0</ele><time>2026-05-01T10:05:00.664Z</time></trkpt><trkpt lat="41.0082667" lon="9.3902233"><ele>210.16666666666669</ele><time>2026-05-01T10:05:01.664Z</time></trkpt><trkpt lat="41.008195" lon="9.39025"><ele>211.33333333333334</ele><time>2026-05-01T10:05:02.664Z</time></trkpt><trkpt lat="41.0081067" lon="9.3902683"><ele>212.5</ele><time>2026-05-01T10:05:03.664Z</time></trkpt><trkpt lat="41.0080233" lon="9.390285"><ele>213.66666666666669</ele><time>2026-05-01T10:05:04.664Z</time></trkpt><trkpt lat="41.00794" lon="9.3903017"><ele>214.83333333333334</ele><time>2026-05-01T10:05:05.664Z</time></trkpt><trkpt lat="41.0078583" lon="9.3903083"><ele>216.0</ele><time>2026-05-01T10:05:06.664Z</time></trkpt><trkpt lat="41.00778" lon="9.3903083"><ele>216.0</ele><time>2026-05-01T10:05:07.664Z</time></trkpt><trkpt lat="41.007695" lon="9.3903033"><ele>216.0</ele><time>2026-05-01T10:05:08.664Z</time></trkpt><trkpt lat="41.0076283" lon="9.3902983"><ele>216.0</ele><time>2026-05-01T10:05:09.664Z</time></trkpt><trkpt lat="41.00755" lon="9.3902667"><ele>216.0</ele><time>2026-05-01T10:05:10.664Z</time></trkpt><trkpt lat="41.007495" lon="9.39021"><ele>216.0</ele><time>2026-05-01T10:05:11.664Z</time></trkpt><trkpt lat="41.0074433" lon="9.3901367"><ele>216.0</ele><time>2026-05-01T10:05:12.664Z</time></trkpt><trkpt lat="41.007385" lon="9.3900883"><ele>216.0</ele><time>2026-05-01T10:05:13.664Z</time></trkpt><trkpt lat="41.007315" lon="9.390045"><ele>217.4</ele><time>2026-05-01T10:05:14.664Z</time></trkpt><trkpt lat="41.00721" lon="9.3899483"><ele>218.8</ele><time>2026-05-01T10:05:16.664Z</time></trkpt><trkpt lat="41.0071283" lon="9.3898967"><ele>220.20000000000002</ele><time>2026-05-01T10:05:17.664Z</time></trkpt><trkpt lat="41.0070383" lon="9.3898433"><ele>221.60000000000002</ele><time>2026-05-01T10:05:18.664Z</time></trkpt><trkpt lat="41.0069417" lon="9.3897933"><ele>223.0</ele><time>2026-05-01T10:05:19.664Z</time></trkpt><trkpt lat="41.00685" lon="9.38974"><ele>222.99999999999997</ele><time>2026-05-01T10:05:20.664Z</time></trkpt><trkpt lat="41.0067683" lon="9.3896767"><ele>223.0</ele><time>2026-05-01T10:05:21.664Z</time></trkpt><trkpt lat="41.0066833" lon="9.3896367"><ele>223.0</ele><time>2026-05-01T10:05:22.664Z</time></trkpt><trkpt lat="41.006605" lon="9.3895967"><ele>223.0</ele><time>2026-05-01T10:05:23.664Z</time></trkpt><trkpt lat="41.006525" lon="9.3895567"><ele>222.99999999999997</ele><time>2026-05-01T10:05:24.664Z</time></trkpt><trkpt lat="41.0064517" lon="9.3895317"><ele>223.0</ele><time>2026-05-01T10:05:25.664Z</time></trkpt><trkpt lat="41.006355" lon="9.389515"><ele>225.2</ele><time>2026-05-01T10:05:27.664Z</time></trkpt><trkpt lat="41.0062783" lon="9.3894967"><ele>227.4</ele><time>2026-05-01T10:05:34.664Z</time></trkpt><trkpt lat="41.0061967" lon="9.3894483"><ele>229.59999999999997</ele><time>2026-05-01T10:05:36.664Z</time></trkpt><trkpt lat="41.00607" lon="9.3893917"><ele>231.79999999999998</ele><time>2026-05-01T10:05:38.664Z</time></trkpt><trkpt lat="41.00599" lon="9.3893583"><ele>234.0</ele><time>2026-05-01T10:05:39.664Z</time></trkpt><trkpt lat="41.0059133" lon="9.389315"><ele>234.0</ele><time>2026-05-01T10:05:40.664Z</time></trkpt><trkpt lat="41.0058233" lon="9.389275"><ele>234.0</ele><time>2026-05-01T10:05:41.664Z</time></trkpt><trkpt lat="41.0056967" lon="9.3892417"><ele>234.0</ele><time>2026-05-01T10:05:42.664Z</time></trkpt><trkpt lat="41.005575" lon="9.3892"><ele>234.0</ele><time>2026-05-01T10:05:43.664Z</time></trkpt><trkpt lat="41.005455" lon="9.3891483"><ele>234.0</ele><time>2026-05-01T10:05:44.664Z</time></trkpt><trkpt lat="41.00533" lon="9.3890883"><ele>234.0</ele><time>2026-05-01T10:05:45.664Z</time></trkpt><trkpt lat="41.005205" lon="9.3890317"><ele>234.0</ele><time>2026-05-01T10:05:46.664Z</time></trkpt><trkpt lat="41.0050817" lon="9.3889683"><ele>234.0</ele><time>2026-05-01T10:05:47.664Z</time></trkpt><trkpt lat="41.0049583" lon="9.388915"><ele>235.75</ele><time>2026-05-01T10:05:48.664Z</time></trkpt><trkpt lat="41.0048333" lon="9.388855"><ele>237.5</ele><time>2026-05-01T10:05:49.664Z</time></trkpt><trkpt lat="41.0047033" lon="9.3888033"><ele>239.25</ele><time>2026-05-01T10:05:50.664Z</time></trkpt><trkpt lat="41.0045817" lon="9.388755"><ele>241.0</ele><time>2026-05-01T10:05:51.664Z</time></trkpt><trkpt lat="41.0044567" lon="9.3887133"><ele>241.0</ele><time>2026-05-01T10:05:52.664Z</time></trkpt><trkpt lat="41.00433" lon="9.3886883"><ele>241.0</ele><time>2026-05-01T10:05:53.664Z</time></trkpt><trkpt lat="41.0042067" lon="9.3886733"><ele>241.0</ele><time>2026-05-01T10:05:54.664Z</time></trkpt><trkpt lat="41.0040867" lon="9.3886767"><ele>241.0</ele><time>2026-05-01T10:05:55.664Z</time></trkpt><trkpt lat="41.0039717" lon="9.388695"><ele>240.8</ele><time>2026-05-01T10:05:56.664Z</time></trkpt><trkpt lat="41.0038667" lon="9.3887283"><ele>240.60000000000002</ele><time>2026-05-01T10:05:57.664Z</time></trkpt><trkpt lat="41.0037783" lon="9.3887567"><ele>240.4</ele><time>2026-05-01T10:05:58.664Z</time></trkpt><trkpt lat="41.0037" lon="9.38879"><ele>240.2</ele><time>2026-05-01T10:05:59.664Z</time></trkpt><trkpt lat="41.003645" lon="9.3888367"><ele>240.0</ele><time>2026-05-01T10:06:00.664Z</time></trkpt><trkpt lat="41.0035867" lon="9.3889667"><ele>241.4</ele><time>2026-05-01T10:06:02.664Z</time></trkpt><trkpt lat="41.003595" lon="9.3890783"><ele>242.8</ele><time>2026-05-01T10:06:03.664Z</time></trkpt><trkpt lat="41.003635" lon="9.3891933"><ele>244.2</ele><time>2026-05-01T10:06:04.664Z</time></trkpt><trkpt lat="41.003685" lon="9.3892917"><ele>245.6</ele><time>2026-05-01T10:06:05.665Z</time></trkpt><trkpt lat="41.0037467" lon="9.3893833"><ele>247.0</ele><time>2026-05-01T10:06:06.664Z</time></trkpt><trkpt lat="41.0038317" lon="9.3894867"><ele>247.0</ele><time>2026-05-01T10:06:07.664Z</time></trkpt><trkpt lat="41.003925" lon="9.3895917"><ele>247.0</ele><time>2026-05-01T10:06:08.664Z</time></trkpt><trkpt lat="41.0039833" lon="9.3897017"><ele>247.0</ele><time>2026-05-01T10:06:09.664Z</time></trkpt><trkpt lat="41.00404" lon="9.3898033"><ele>247.0</ele><time>2026-05-01T10:06:10.664Z</time></trkpt><trkpt lat="41.0040767" lon="9.3899133"><ele>247.0</ele><time>2026-05-01T10:06:11.664Z</time></trkpt><trkpt lat="41.004105" lon="9.3900083"><ele>250.0</ele><time>2026-05-01T10:06:12.664Z</time></trkpt><trkpt lat="41.0041267" lon="9.3900967"><ele>253.0</ele><time>2026-05-01T10:06:13.664Z</time></trkpt><trkpt lat="41.0041567" lon="9.390235"><ele>256.0</ele><time>2026-05-01T10:06:15.664Z</time></trkpt><trkpt lat="41.004085" lon="9.3902267"><ele>259.0</ele><time>2026-05-01T10:06:28.664Z</time></trkpt><trkpt lat="41.0039367" lon="9.3902233"><ele>262.0</ele><time>2026-05-01T10:06:30.664Z</time></trkpt><trkpt lat="41.00385" lon="9.390235"><ele>262.0</ele><time>2026-05-01T10:06:31.664Z</time></trkpt><trkpt lat="41.0037533" lon="9.390255"><ele>262.0</ele><time>2026-05-01T10:06:32.664Z</time></trkpt><trkpt lat="41.00365" lon="9.3902667"><ele>262.0</ele><time>2026-05-01T10:06:33.664Z</time></trkpt><trkpt lat="41.003535" lon="9.3902883"><ele>262.0</ele><time>2026-05-01T10:06:34.664Z</time></trkpt><trkpt lat="41.0034233" lon="9.3903167"><ele>262.0</ele><time>2026-05-01T10:06:35.664Z</time></trkpt><trkpt lat="41.0033133" lon="9.3903533"><ele>262.6</ele><time>2026-05-01T10:06:36.664Z</time></trkpt><trkpt lat="41.0032267" lon="9.3904017"><ele>263.2</ele><time>2026-05-01T10:06:37.664Z</time></trkpt><trkpt lat="41.0031517" lon="9.390465"><ele>263.8</ele><time>2026-05-01T10:06:38.664Z</time></trkpt><trkpt lat="41.0030567" lon="9.390525"><ele>264.4</ele><time>2026-05-01T10:06:39.664Z</time></trkpt><trkpt lat="41.00303" lon="9.390675"><ele>265.0</ele><time>2026-05-01T10:06:40.664Z</time></trkpt><trkpt lat="41.0029717" lon="9.3907817"><ele>268.0</ele><time>2026-05-01T10:06:41.664Z</time></trkpt><trkpt lat="41.0029" lon="9.3908867"><ele>271.0</ele><time>2026-05-01T10:06:42.664Z</time></trkpt><trkpt lat="41.0028117" lon="9.3909817"><ele>274.0</ele><time>2026-05-01T10:06:43.664Z</time></trkpt><trkpt lat="41.0027167" lon="9.3910783"><ele>277.0</ele><time>2026-05-01T10:06:44.664Z</time></trkpt><trkpt lat="41.002625" lon="9.3911583"><ele>277.0</ele><time>2026-05-01T10:06:45.664Z</time></trkpt><trkpt lat="41.0025467" lon="9.3912383"><ele>277.0</ele><time>2026-05-01T10:06:46.664Z</time></trkpt><trkpt lat="41.002485" lon="9.39132"><ele>277.0</ele><time>2026-05-01T10:06:47.664Z</time></trkpt><trkpt lat="41.0024367" lon="9.3914017"><ele>277.0</ele><time>2026-05-01T10:06:48.664Z</time></trkpt><trkpt lat="41.0024017" lon="9.3914933"><ele>277.0</ele><time>2026-05-01T10:06:49.664Z</time></trkpt><trkpt lat="41.0023633" lon="9.3915967"><ele>277.0</ele><time>2026-05-01T10:06:50.664Z</time></trkpt><trkpt lat="41.0023333" lon="9.3917067"><ele>281.0</ele><time>2026-05-01T10:06:51.664Z</time></trkpt><trkpt lat="41.00231" lon="9.391825"><ele>285.0</ele><time>2026-05-01T10:06:52.664Z</time></trkpt><trkpt lat="41.0022983" lon="9.391955"><ele>289.0</ele><time>2026-05-01T10:06:53.664Z</time></trkpt><trkpt lat="41.002295" lon="9.392085"><ele>293.0</ele><time>2026-05-01T10:06:54.664Z</time></trkpt><trkpt lat="41.0023067" lon="9.3922233"><ele>297.0</ele><time>2026-05-01T10:06:55.664Z</time></trkpt><trkpt lat="41.00233" lon="9.39238"><ele>297.8</ele><time>2026-05-01T10:06:56.665Z</time></trkpt><trkpt lat="41.0023317" lon="9.39252"><ele>298.6</ele><time>2026-05-01T10:06:57.664Z</time></trkpt><trkpt lat="41.002325" lon="9.3926717"><ele>299.40000000000003</ele><time>2026-05-01T10:06:58.664Z</time></trkpt><trkpt lat="41.002325" lon="9.3928333"><ele>300.2</ele><time>2026-05-01T10:06:59.664Z</time></trkpt><trkpt lat="41.00231" lon="9.3929617"><ele>301.0</ele><time>2026-05-01T10:07:00.664Z</time></trkpt><trkpt lat="41.0022467" lon="9.3930517"><ele>301.2</ele><time>2026-05-01T10:07:01.664Z</time></trkpt><trkpt lat="41.00219" lon="9.3931483"><ele>301.40000000000003</ele><time>2026-05-01T10:07:02.664Z</time></trkpt><trkpt lat="41.0021133" lon="9.3932333"><ele>301.6</ele><time>2026-05-01T10:07:03.664Z</time></trkpt><trkpt lat="41.00202" lon="9.3932933"><ele>301.8</ele><time>2026-05-01T10:07:04.664Z</time></trkpt><trkpt lat="41.0019167" lon="9.3933433"><ele>302.0</ele><time>2026-05-01T10:07:05.664Z</time></trkpt><trkpt lat="41.0018233" lon="9.393375"><ele>302.0</ele><time>2026-05-01T10:07:06.665Z</time></trkpt><trkpt lat="41.0017033" lon="9.393375"><ele>302.0</ele><time>2026-05-01T10:07:07.664Z</time></trkpt><trkpt lat="41.0016" lon="9.3933467"><ele>302.0</ele><time>2026-05-01T10:07:08.664Z</time></trkpt><trkpt lat="41.00147" lon="9.393285"><ele>302.0</ele><time>2026-05-01T10:07:09.664Z</time></trkpt><trkpt lat="41.0013633" lon="9.3931817"><ele>302.0</ele><time>2026-05-01T10:07:10.664Z</time></trkpt><trkpt lat="41.0012867" lon="9.393095"><ele>302.0</ele><time>2026-05-01T10:07:11.664Z</time></trkpt><trkpt lat="41.0011867" lon="9.3929367"><ele>302.0</ele><time>2026-05-01T10:07:12.664Z</time></trkpt><trkpt lat="41.0011083" lon="9.3928183"><ele>302.0</ele><time>2026-05-01T10:07:13.664Z</time></trkpt><trkpt lat="41.0010233" lon="9.39271"><ele>301.8</ele><time>2026-05-01T10:07:14.664Z</time></trkpt><trkpt lat="41.0009383" lon="9.3926117"><ele>301.6</ele><time>2026-05-01T10:07:15.664Z</time></trkpt><trkpt lat="41.000845" lon="9.392535"><ele>301.40000000000003</ele><time>2026-05-01T10:07:16.664Z</time></trkpt><trkpt lat="41.0007667" lon="9.3924583"><ele>301.2</ele><time>2026-05-01T10:07:17.664Z</time></trkpt><trkpt lat="41.00068" lon="9.39236"><ele>301.0</ele><time>2026-05-01T10:07:18.664Z</time></trkpt><trkpt lat="41.000595" lon="9.3922917"><ele>301.0</ele><time>2026-05-01T10:07:19.664Z</time></trkpt><trkpt lat="41.0005117" lon="9.3922133"><ele>301.0</ele><time>2026-05-01T10:07:20.664Z</time></trkpt><trkpt lat="41.000425" lon="9.3921283"><ele>301.0</ele><time>2026-05-01T10:07:21.664Z</time></trkpt><trkpt lat="41.00035" lon="9.3920383"><ele>301.0</ele><time>2026-05-01T10:07:22.664Z</time></trkpt><trkpt lat="41.000265" lon="9.391945"><ele>301.0</ele><time>2026-05-01T10:07:23.664Z</time></trkpt><trkpt lat="41.00017" lon="9.391855"><ele>302.5</ele><time>2026-05-01T10:07:24.664Z</time></trkpt><trkpt lat="41.0000783" lon="9.391765"><ele>304.0</ele><time>2026-05-01T10:07:25.664Z</time></trkpt><trkpt lat="40.99996" lon="9.391685"><ele>305.5</ele><time>2026-05-01T10:07:26.664Z</time></trkpt><trkpt lat="40.99984" lon="9.39161"><ele>307.0</ele><time>2026-05-01T10:07:27.664Z</time></trkpt><trkpt lat="40.99973" lon="9.391535"><ele>307.0</ele><time>2026-05-01T10:07:28.664Z</time></trkpt><trkpt lat="40.99962" lon="9.39147"><ele>307.0</ele><time>2026-05-01T10:07:29.664Z</time></trkpt><trkpt lat="40.999505" lon="9.3914133"><ele>307.0</ele><time>2026-05-01T10:07:30.664Z</time></trkpt><trkpt lat="40.999385" lon="9.3913833"><ele>307.0</ele><time>2026-05-01T10:07:31.664Z</time></trkpt><trkpt lat="40.999275" lon="9.39136"><ele>306.0</ele><time>2026-05-01T10:07:32.664Z</time></trkpt><trkpt lat="40.9991583" lon="9.3913483"><ele>305.0</ele><time>2026-05-01T10:07:33.664Z</time></trkpt><trkpt lat="40.9990433" lon="9.3913317"><ele>304.0</ele><time>2026-05-01T10:07:34.664Z</time></trkpt><trkpt lat="40.9989333" lon="9.3912917"><ele>303.0</ele><time>2026-05-01T10:07:35.664Z</time></trkpt><trkpt lat="40.9988267" lon="9.3912367"><ele>305.75</ele><time>2026-05-01T10:07:36.664Z</time></trkpt><trkpt lat="40.9987333" lon="9.3911283"><ele>308.5</ele><time>2026-05-01T10:07:37.664Z</time></trkpt><trkpt lat="40.9986483" lon="9.3910217"><ele>311.25</ele><time>2026-05-01T10:07:38.664Z</time></trkpt><trkpt lat="40.9985567" lon="9.3909067"><ele>314.0</ele><time>2026-05-01T10:07:39.664Z</time></trkpt><trkpt lat="40.9984783" lon="9.3907833"><ele>314.0</ele><time>2026-05-01T10:07:40.664Z</time></trkpt><trkpt lat="40.9984067" lon="9.3906433"><ele>314.0</ele><time>2026-05-01T10:07:41.664Z</time></trkpt><trkpt lat="40.998355" lon="9.3904583"><ele>314.0</ele><time>2026-05-01T10:07:42.664Z</time></trkpt><trkpt lat="40.9983117" lon="9.3903117"><ele>314.0</ele><time>2026-05-01T10:07:43.664Z</time></trkpt><trkpt lat="40.9982767" lon="9.3901517"><ele>314.25</ele><time>2026-05-01T10:07:44.664Z</time></trkpt><trkpt lat="40.9982517" lon="9.3899867"><ele>314.5</ele><time>2026-05-01T10:07:45.664Z</time></trkpt><trkpt lat="40.9982367" lon="9.38981"><ele>314.75</ele><time>2026-05-01T10:07:46.664Z</time></trkpt><trkpt lat="40.9982083" lon="9.3896467"><ele>315.0</ele><time>2026-05-01T10:07:47.665Z</time></trkpt><trkpt lat="40.9981867" lon="9.3894817"><ele>315.5</ele><time>2026-05-01T10:07:48.664Z</time></trkpt><trkpt lat="40.9981617" lon="9.3893133"><ele>316.0</ele><time>2026-05-01T10:07:49.664Z</time></trkpt><trkpt lat="40.99815" lon="9.3891483"><ele>316.5</ele><time>2026-05-01T10:07:50.664Z</time></trkpt><trkpt lat="40.9981433" lon="9.3889833"><ele>317.0</ele><time>2026-05-01T10:07:51.664Z</time></trkpt><trkpt lat="40.9981333" lon="9.3888267"><ele>317.0</ele><time>2026-05-01T10:07:52.664Z</time></trkpt><trkpt lat="40.998125" lon="9.3886733"><ele>317.0</ele><time>2026-05-01T10:07:53.664Z</time></trkpt><trkpt lat="40.9981233" lon="9.38852"><ele>317.0</ele><time>2026-05-01T10:07:54.664Z</time></trkpt><trkpt lat="40.9981233" lon="9.3883733"><ele>317.0</ele><time>2026-05-01T10:07:55.664Z</time></trkpt><trkpt lat="40.9981233" lon="9.3882317"><ele>317.0</ele><time>2026-05-01T10:07:56.664Z</time></trkpt><trkpt lat="40.9981217" lon="9.3880867"><ele>318.75</ele><time>2026-05-01T10:07:57.664Z</time></trkpt><trkpt lat="40.9981133" lon="9.3879483"><ele>320.5</ele><time>2026-05-01T10:07:58.664Z</time></trkpt><trkpt lat="40.99811" lon="9.3878033"><ele>322.25</ele><time>2026-05-01T10:07:59.664Z</time></trkpt><trkpt lat="40.9980917" lon="9.38765"><ele>324.0</ele><time>2026-05-01T10:08:00.664Z</time></trkpt><trkpt lat="40.9980283" lon="9.3875117"><ele>324.0</ele><time>2026-05-01T10:08:01.664Z</time></trkpt><trkpt lat="40.9979633" lon="9.387395"><ele>324.0</ele><time>2026-05-01T10:08:02.664Z</time></trkpt><trkpt lat="40.9978633" lon="9.387285"><ele>324.0</ele><time>2026-05-01T10:08:03.664Z</time></trkpt><trkpt lat="40.9977583" lon="9.3872"><ele>324.0</ele><time>2026-05-01T10:08:04.665Z</time></trkpt><trkpt lat="40.9976467" lon="9.3871117"><ele>326.5</ele><time>2026-05-01T10:08:05.664Z</time></trkpt><trkpt lat="40.9975333" lon="9.3870183"><ele>329.0</ele><time>2026-05-01T10:08:06.664Z</time></trkpt><trkpt lat="40.9973817" lon="9.3869333"><ele>331.5</ele><time>2026-05-01T10:08:07.664Z</time></trkpt><trkpt lat="40.997275" lon="9.3868433"><ele>334.0</ele><time>2026-05-01T10:08:08.664Z</time></trkpt><trkpt lat="40.9971733" lon="9.386755"><ele>330.0</ele><time>2026-05-01T10:08:09.664Z</time></trkpt><trkpt lat="40.9971" lon="9.386675"><ele>326.0</ele><time>2026-05-01T10:08:10.664Z</time></trkpt><trkpt lat="40.9970433" lon="9.3865917"><ele>322.0</ele><time>2026-05-01T10:08:11.664Z</time></trkpt><trkpt lat="40.9970633" lon="9.3864267"><ele>318.0</ele><time>2026-05-01T10:08:13.664Z</time></trkpt><trkpt lat="40.9970683" lon="9.3863183"><ele>314.0</ele><time>2026-05-01T10:08:14.664Z</time></trkpt><trkpt lat="40.997065" lon="9.386205"><ele>314.0</ele><time>2026-05-01T10:08:15.664Z</time></trkpt><trkpt lat="40.9970517" lon="9.3861183"><ele>314.0</ele><time>2026-05-01T10:08:16.664Z</time></trkpt><trkpt lat="40.9970217" lon="9.3860067"><ele>314.0</ele><time>2026-05-01T10:08:17.664Z</time></trkpt><trkpt lat="40.9969733" lon="9.3859"><ele>314.0</ele><time>2026-05-01T10:08:18.665Z</time></trkpt><trkpt lat="40.9969033" lon="9.3857867"><ele>314.0</ele><time>2026-05-01T10:08:19.664Z</time></trkpt><trkpt lat="40.9968467" lon="9.3856833"><ele>314.0</ele><time>2026-05-01T10:08:20.664Z</time></trkpt><trkpt lat="40.9968017" lon="9.3855833"><ele>314.0</ele><time>2026-05-01T10:08:21.664Z</time></trkpt><trkpt lat="40.9967483" lon="9.38549"><ele>314.0</ele><time>2026-05-01T10:08:22.664Z</time></trkpt><trkpt lat="40.9967033" lon="9.3853833"><ele>314.0</ele><time>2026-05-01T10:08:23.664Z</time></trkpt><trkpt lat="40.9966517" lon="9.38531"><ele>314.0</ele><time>2026-05-01T10:08:24.663Z</time></trkpt><trkpt lat="40.9966033" lon="9.3852333"><ele>314.0</ele><time>2026-05-01T10:08:25.664Z</time></trkpt><trkpt lat="40.9965267" lon="9.3851133"><ele>308.25</ele><time>2026-05-01T10:08:27.664Z</time></trkpt><trkpt lat="40.9964583" lon="9.384985"><ele>302.5</ele><time>2026-05-01T10:08:29.665Z</time></trkpt><trkpt lat="40.9963583" lon="9.3849067"><ele>296.75</ele><time>2026-05-01T10:08:31.664Z</time></trkpt><trkpt lat="40.99624" lon="9.3848667"><ele>291.0</ele><time>2026-05-01T10:08:33.664Z</time></trkpt><trkpt lat="40.9961383" lon="9.3847917"><ele>291.0</ele><time>2026-05-01T10:08:35.664Z</time></trkpt><trkpt lat="40.99607" lon="9.3847017"><ele>291.0</ele><time>2026-05-01T10:08:37.664Z</time></trkpt><trkpt lat="40.9960233" lon="9.384605"><ele>291.0</ele><time>2026-05-01T10:08:39.664Z</time></trkpt><trkpt lat="40.9959333" lon="9.3845633"><ele>291.0</ele><time>2026-05-01T10:08:41.664Z</time></trkpt><trkpt lat="40.9958383" lon="9.3845233"><ele>291.0</ele><time>2026-05-01T10:08:43.664Z</time></trkpt><trkpt lat="40.9957367" lon="9.384475"><ele>289.40000000000003</ele><time>2026-05-01T10:08:45.664Z</time></trkpt><trkpt lat="40.9956367" lon="9.3843967"><ele>287.8</ele><time>2026-05-01T10:08:47.664Z</time></trkpt><trkpt lat="40.995605" lon="9.3843067"><ele>286.20000000000005</ele><time>2026-05-01T10:08:48.664Z</time></trkpt><trkpt lat="40.9955733" lon="9.3841933"><ele>284.6</ele><time>2026-05-01T10:08:49.664Z</time></trkpt><trkpt lat="40.99554" lon="9.3840867"><ele>283.0</ele><time>2026-05-01T10:08:50.664Z</time></trkpt><trkpt lat="40.9955233" lon="9.38398"><ele>283.0</ele><time>2026-05-01T10:08:51.664Z</time></trkpt><trkpt lat="40.9955167" lon="9.383855"><ele>283.0</ele><time>2026-05-01T10:08:52.664Z</time></trkpt><trkpt lat="40.9954967" lon="9.38373"><ele>283.0</ele><time>2026-05-01T10:08:53.664Z</time></trkpt><trkpt lat="40.995475" lon="9.3835983"><ele>283.0</ele><time>2026-05-01T10:08:54.664Z</time></trkpt><trkpt lat="40.9954383" lon="9.383475"><ele>283.0</ele><time>2026-05-01T10:08:55.664Z</time></trkpt><trkpt lat="40.9954067" lon="9.3833417"><ele>284.4</ele><time>2026-05-01T10:08:56.664Z</time></trkpt><trkpt lat="40.99538" lon="9.3832067"><ele>285.8</ele><time>2026-05-01T10:08:57.664Z</time></trkpt><trkpt lat="40.99534" lon="9.3830883"><ele>287.2</ele><time>2026-05-01T10:08:58.664Z</time></trkpt><trkpt lat="40.9953017" lon="9.38297"><ele>288.6</ele><time>2026-05-01T10:08:59.664Z</time></trkpt><trkpt lat="40.995255" lon="9.382865"><ele>290.0</ele><time>2026-05-01T10:09:00.664Z</time></trkpt><trkpt lat="40.995195" lon="9.38278"><ele>291.0</ele><time>2026-05-01T10:09:01.664Z</time></trkpt><trkpt lat="40.99513" lon="9.3827133"><ele>292.0</ele><time>2026-05-01T10:09:02.664Z</time></trkpt><trkpt lat="40.99505" lon="9.3826533"><ele>293.0</ele><time>2026-05-01T10:09:03.664Z</time></trkpt><trkpt lat="40.9949667" lon="9.3825767"><ele>294.0</ele><time>2026-05-01T10:09:04.664Z</time></trkpt><trkpt lat="40.9948267" lon="9.3824767"><ele>295.0</ele><time>2026-05-01T10:09:05.664Z</time></trkpt><trkpt lat="40.99474" lon="9.3823967"><ele>291.8333333333333</ele><time>2026-05-01T10:09:06.664Z</time></trkpt><trkpt lat="40.99468" lon="9.3823267"><ele>288.66666666666663</ele><time>2026-05-01T10:09:07.664Z</time></trkpt><trkpt lat="40.9946183" lon="9.38229"><ele>285.5</ele><time>2026-05-01T10:09:08.664Z</time></trkpt><trkpt lat="40.9945483" lon="9.3822483"><ele>282.3333333333333</ele><time>2026-05-01T10:09:09.664Z</time></trkpt><trkpt lat="40.994435" lon="9.3822733"><ele>279.1666666666667</ele><time>2026-05-01T10:09:10.664Z</time></trkpt><trkpt lat="40.9943367" lon="9.3822767"><ele>276.0</ele><time>2026-05-01T10:09:11.664Z</time></trkpt><trkpt lat="40.9942333" lon="9.3823333"><ele>275.8</ele><time>2026-05-01T10:09:12.664Z</time></trkpt><trkpt lat="40.9941283" lon="9.382325"><ele>275.6</ele><time>2026-05-01T10:09:13.664Z</time></trkpt><trkpt lat="40.99401" lon="9.3823267"><ele>275.4</ele><time>2026-05-01T10:09:14.664Z</time></trkpt><trkpt lat="40.9938967" lon="9.3823117"><ele>275.2</ele><time>2026-05-01T10:09:15.664Z</time></trkpt><trkpt lat="40.9937933" lon="9.382295"><ele>275.0</ele><time>2026-05-01T10:09:16.664Z</time></trkpt><trkpt lat="40.9937" lon="9.382275"><ele>275.0</ele><time>2026-05-01T10:09:17.664Z</time></trkpt><trkpt lat="40.99361" lon="9.3822533"><ele>275.0</ele><time>2026-05-01T10:09:18.664Z</time></trkpt><trkpt lat="40.993525" lon="9.382205"><ele>275.0</ele><time>2026-05-01T10:09:19.664Z</time></trkpt><trkpt lat="40.99346" lon="9.38216"><ele>275.0</ele><time>2026-05-01T10:09:20.665Z</time></trkpt><trkpt lat="40.9933717" lon="9.3820633"><ele>275.0</ele><time>2026-05-01T10:09:22.664Z</time></trkpt><trkpt lat="40.99333" lon="9.38198"><ele>275.0</ele><time>2026-05-01T10:09:23.664Z</time></trkpt><trkpt lat="40.9933183" lon="9.3818733"><ele>275.8</ele><time>2026-05-01T10:09:24.664Z</time></trkpt><trkpt lat="40.9933067" lon="9.3817583"><ele>276.6</ele><time>2026-05-01T10:09:25.664Z</time></trkpt><trkpt lat="40.99328" lon="9.38163"><ele>277.4</ele><time>2026-05-01T10:09:26.664Z</time></trkpt><trkpt lat="40.99324" lon="9.3815083"><ele>278.2</ele><time>2026-05-01T10:09:27.664Z</time></trkpt><trkpt lat="40.993195" lon="9.3813817"><ele>279.0</ele><time>2026-05-01T10:09:28.664Z</time></trkpt><trkpt lat="40.9931567" lon="9.3812567"><ele>279.0</ele><time>2026-05-01T10:09:29.664Z</time></trkpt><trkpt lat="40.9931333" lon="9.3811283"><ele>279.0</ele><time>2026-05-01T10:09:30.664Z</time></trkpt><trkpt lat="40.993105" lon="9.3809783"><ele>279.0</ele><time>2026-05-01T10:09:31.664Z</time></trkpt><trkpt lat="40.9931017" lon="9.3808217"><ele>279.0</ele><time>2026-05-01T10:09:32.664Z</time></trkpt><trkpt lat="40.9931033" lon="9.3806683"><ele>279.5</ele><time>2026-05-01T10:09:33.664Z</time></trkpt><trkpt lat="40.9931217" lon="9.380505"><ele>280.0</ele><time>2026-05-01T10:09:34.664Z</time></trkpt><trkpt lat="40.99314" lon="9.3803083"><ele>280.5</ele><time>2026-05-01T10:09:35.664Z</time></trkpt><trkpt lat="40.9931667" lon="9.3801633"><ele>281.0</ele><time>2026-05-01T10:09:36.664Z</time></trkpt><trkpt lat="40.9932083" lon="9.380015"><ele>281.0</ele><time>2026-05-01T10:09:37.664Z</time></trkpt><trkpt lat="40.9932567" lon="9.3798567"><ele>281.0</ele><time>2026-05-01T10:09:38.664Z</time></trkpt><trkpt lat="40.9932933" lon="9.3797283"><ele>281.0</ele><time>2026-05-01T10:09:39.664Z</time></trkpt><trkpt lat="40.9933433" lon="9.3796067"><ele>281.0</ele><time>2026-05-01T10:09:40.664Z</time></trkpt><trkpt lat="40.9933883" lon="9.37949"><ele>281.0</ele><time>2026-05-01T10:09:41.664Z</time></trkpt><trkpt lat="40.99343" lon="9.3793733"><ele>283.2</ele><time>2026-05-01T10:09:42.664Z</time></trkpt><trkpt lat="40.9934617" lon="9.3792433"><ele>285.40000000000003</ele><time>2026-05-01T10:09:43.664Z</time></trkpt><trkpt lat="40.9934917" lon="9.3791117"><ele>287.6</ele><time>2026-05-01T10:09:44.664Z</time></trkpt><trkpt lat="40.993505" lon="9.37897"><ele>289.8</ele><time>2026-05-01T10:09:45.664Z</time></trkpt><trkpt lat="40.993515" lon="9.378825"><ele>292.0</ele><time>2026-05-01T10:09:46.664Z</time></trkpt><trkpt lat="40.9935267" lon="9.3786817"><ele>294.4</ele><time>2026-05-01T10:09:47.664Z</time></trkpt><trkpt lat="40.99353" lon="9.37854"><ele>296.79999999999995</ele><time>2026-05-01T10:09:48.664Z</time></trkpt><trkpt lat="40.993535" lon="9.378395"><ele>299.2</ele><time>2026-05-01T10:09:49.664Z</time></trkpt><trkpt lat="40.99352" lon="9.378255"><ele>301.59999999999997</ele><time>2026-05-01T10:09:50.664Z</time></trkpt><trkpt lat="40.9934883" lon="9.37812"><ele>304.0</ele><time>2026-05-01T10:09:51.664Z</time></trkpt><trkpt lat="40.9934217" lon="9.3779817"><ele>303.25</ele><time>2026-05-01T10:09:52.664Z</time></trkpt><trkpt lat="40.99337" lon="9.377835"><ele>302.5</ele><time>2026-05-01T10:09:53.664Z</time></trkpt><trkpt lat="40.993305" lon="9.377705"><ele>301.75</ele><time>2026-05-01T10:09:54.664Z</time></trkpt><trkpt lat="40.9932517" lon="9.3775833"><ele>301.0</ele><time>2026-05-01T10:09:55.664Z</time></trkpt><trkpt lat="40.9932117" lon="9.3774533"><ele>301.0</ele><time>2026-05-01T10:09:56.664Z</time></trkpt><trkpt lat="40.9931783" lon="9.37733"><ele>301.0</ele><time>2026-05-01T10:09:57.664Z</time></trkpt><trkpt lat="40.9931467" lon="9.37721"><ele>301.0</ele><time>2026-05-01T10:09:58.664Z</time></trkpt><trkpt lat="40.9931083" lon="9.377105"><ele>301.0</ele><time>2026-05-01T10:09:59.664Z</time></trkpt><trkpt lat="40.993075" lon="9.3770083"><ele>301.0</ele><time>2026-05-01T10:10:00.664Z</time></trkpt><trkpt lat="40.9930383" lon="9.3769233"><ele>301.0</ele><time>2026-05-01T10:10:01.664Z</time></trkpt><trkpt lat="40.9929517" lon="9.376815"><ele>303.40000000000003</ele><time>2026-05-01T10:10:03.664Z</time></trkpt><trkpt lat="40.9928167" lon="9.3768367"><ele>305.8</ele><time>2026-05-01T10:10:05.664Z</time></trkpt><trkpt lat="40.9927367" lon="9.3768317"><ele>308.20000000000005</ele><time>2026-05-01T10:10:06.664Z</time></trkpt><trkpt lat="40.9926683" lon="9.3768283"><ele>310.6</ele><time>2026-05-01T10:10:07.664Z</time></trkpt><trkpt lat="40.99259" lon="9.3767833"><ele>313.0</ele><time>2026-05-01T10:10:08.664Z</time></trkpt><trkpt lat="40.992505" lon="9.3766883"><ele>313.0</ele><time>2026-05-01T10:10:10.664Z</time></trkpt><trkpt lat="40.992485" lon="9.3765467"><ele>313.0</ele><time>2026-05-01T10:10:12.664Z</time></trkpt><trkpt lat="40.992545" lon="9.376385"><ele>313.0</ele><time>2026-05-01T10:10:14.664Z</time></trkpt><trkpt lat="40.9925917" lon="9.3762933"><ele>313.0</ele><time>2026-05-01T10:10:15.664Z</time></trkpt><trkpt lat="40.9926467" lon="9.3761883"><ele>313.0</ele><time>2026-05-01T10:10:16.664Z</time></trkpt><trkpt lat="40.9927133" lon="9.37607"><ele>317.25</ele><time>2026-05-01T10:10:17.664Z</time></trkpt><trkpt lat="40.9927833" lon="9.375945"><ele>321.5</ele><time>2026-05-01T10:10:18.664Z</time></trkpt><trkpt lat="40.9928483" lon="9.3758167"><ele>325.75</ele><time>2026-05-01T10:10:19.664Z</time></trkpt><trkpt lat="40.9928967" lon="9.3756883"><ele>330.0</ele><time>2026-05-01T10:10:20.664Z</time></trkpt><trkpt lat="40.9929533" lon="9.3755433"><ele>333.0</ele><time>2026-05-01T10:10:21.664Z</time></trkpt><trkpt lat="40.9930117" lon="9.37542"><ele>336.0</ele><time>2026-05-01T10:10:22.664Z</time></trkpt><trkpt lat="40.9930567" lon="9.3753017"><ele>339.0</ele><time>2026-05-01T10:10:23.664Z</time></trkpt><trkpt lat="40.99311" lon="9.375195"><ele>342.0</ele><time>2026-05-01T10:10:24.664Z</time></trkpt><trkpt lat="40.9931783" lon="9.3750933"><ele>345.0</ele><time>2026-05-01T10:10:25.664Z</time></trkpt><trkpt lat="40.9932167" lon="9.3749967"><ele>345.0</ele><time>2026-05-01T10:10:26.664Z</time></trkpt><trkpt lat="40.9932533" lon="9.3748983"><ele>345.0</ele><time>2026-05-01T10:10:27.664Z</time></trkpt><trkpt lat="40.9932833" lon="9.3748133"><ele>345.0</ele><time>2026-05-01T10:10:28.664Z</time></trkpt><trkpt lat="40.9932933" lon="9.3746983"><ele>345.0</ele><time>2026-05-01T10:10:30.664Z</time></trkpt><trkpt lat="40.993195" lon="9.3747283"><ele>345.0</ele><time>2026-05-01T10:10:32.664Z</time></trkpt><trkpt lat="40.99311" lon="9.3747417"><ele>345.0</ele><time>2026-05-01T10:10:33.664Z</time></trkpt><trkpt lat="40.993005" lon="9.3747467"><ele>345.0</ele><time>2026-05-01T10:10:34.664Z</time></trkpt><trkpt lat="40.9928983" lon="9.3747583"><ele>345.0</ele><time>2026-05-01T10:10:35.664Z</time></trkpt><trkpt lat="40.9927783" lon="9.3747983"><ele>345.0</ele><time>2026-05-01T10:10:36.664Z</time></trkpt><trkpt lat="40.9925917" lon="9.374875"><ele>345.0</ele><time>2026-05-01T10:10:37.664Z</time></trkpt><trkpt lat="40.992465" lon="9.3749067"><ele>349.0</ele><time>2026-05-01T10:10:38.665Z</time></trkpt><trkpt lat="40.9923433" lon="9.37493"><ele>353.0</ele><time>2026-05-01T10:10:39.664Z</time></trkpt><trkpt lat="40.9922167" lon="9.3749367"><ele>357.0</ele><time>2026-05-01T10:10:40.664Z</time></trkpt><trkpt lat="40.9920883" lon="9.3749367"><ele>361.0</ele><time>2026-05-01T10:10:41.664Z</time></trkpt><trkpt lat="40.9919683" lon="9.3749383"><ele>361.0</ele><time>2026-05-01T10:10:42.664Z</time></trkpt><trkpt lat="40.9918567" lon="9.374945"><ele>361.0</ele><time>2026-05-01T10:10:43.664Z</time></trkpt><trkpt lat="40.991745" lon="9.374955"><ele>361.0</ele><time>2026-05-01T10:10:44.664Z</time></trkpt><trkpt lat="40.9916367" lon="9.3749733"><ele>361.0</ele><time>2026-05-01T10:10:45.664Z</time></trkpt><trkpt lat="40.9915333" lon="9.3750033"><ele>361.0</ele><time>2026-05-01T10:10:46.664Z</time></trkpt><trkpt lat="40.99144" lon="9.3750333"><ele>363.20000000000005</ele><time>2026-05-01T10:10:47.664Z</time></trkpt><trkpt lat="40.99135" lon="9.37506"><ele>365.40000000000003</ele><time>2026-05-01T10:10:48.664Z</time></trkpt><trkpt lat="40.9912717" lon="9.3750783"><ele>367.6</ele><time>2026-05-01T10:10:49.664Z</time></trkpt><trkpt lat="40.9912017" lon="9.3750833"><ele>369.8</ele><time>2026-05-01T10:10:50.664Z</time></trkpt><trkpt lat="40.9911083" lon="9.3750383"><ele>372.0</ele><time>2026-05-01T10:10:54.664Z</time></trkpt><trkpt lat="40.9912083" lon="9.374935"><ele>372.0</ele><time>2026-05-01T10:10:56.664Z</time></trkpt><trkpt lat="40.9912667" lon="9.3748783"><ele>372.0</ele><time>2026-05-01T10:10:57.664Z</time></trkpt><trkpt lat="40.991405" lon="9.3748167"><ele>372.0</ele><time>2026-05-01T10:10:58.664Z</time></trkpt><trkpt lat="40.9915133" lon="9.374755"><ele>372.0</ele><time>2026-05-01T10:10:59.665Z</time></trkpt><trkpt lat="40.99162" lon="9.3746933"><ele>373.3333333333333</ele><time>2026-05-01T10:11:00.664Z</time></trkpt><trkpt lat="40.9916883" lon="9.374645"><ele>374.6666666666667</ele><time>2026-05-01T10:11:01.664Z</time></trkpt><trkpt lat="40.991745" lon="9.3745867"><ele>376.0</ele><time>2026-05-01T10:11:02.664Z</time></trkpt><trkpt lat="40.9917983" lon="9.374525"><ele>377.33333333333337</ele><time>2026-05-01T10:11:03.664Z</time></trkpt><trkpt lat="40.991845" lon="9.37445"><ele>378.6666666666667</ele><time>2026-05-01T10:11:04.664Z</time></trkpt><trkpt lat="40.991915" lon="9.3743617"><ele>380.0</ele><time>2026-05-01T10:11:05.665Z</time></trkpt><trkpt lat="40.991975" lon="9.374275"><ele>380.0</ele><time>2026-05-01T10:11:06.664Z</time></trkpt><trkpt lat="40.9920317" lon="9.3741867"><ele>380.0</ele><time>2026-05-01T10:11:07.664Z</time></trkpt><trkpt lat="40.992075" lon="9.3741017"><ele>380.0</ele><time>2026-05-01T10:11:08.664Z</time></trkpt><trkpt lat="40.992105" lon="9.374025"><ele>380.0</ele><time>2026-05-01T10:11:09.664Z</time></trkpt><trkpt lat="40.9921467" lon="9.3739467"><ele>380.0</ele><time>2026-05-01T10:11:10.663Z</time></trkpt><trkpt lat="40.9921817" lon="9.3738683"><ele>380.0</ele><time>2026-05-01T10:11:11.663Z</time></trkpt><trkpt lat="40.9921917" lon="9.373785"><ele>380.0</ele><time>2026-05-01T10:11:12.663Z</time></trkpt><trkpt lat="40.9921717" lon="9.3737017"><ele>382.6</ele><time>2026-05-01T10:11:13.663Z</time></trkpt><trkpt lat="40.992125" lon="9.3735517"><ele>385.2</ele><time>2026-05-01T10:11:15.663Z</time></trkpt><trkpt lat="40.99209" lon="9.3734783"><ele>387.79999999999995</ele><time>2026-05-01T10:11:16.663Z</time></trkpt><trkpt lat="40.992025" lon="9.3734017"><ele>390.4</ele><time>2026-05-01T10:11:17.663Z</time></trkpt><trkpt lat="40.9919533" lon="9.37332"><ele>393.0</ele><time>2026-05-01T10:11:18.663Z</time></trkpt><trkpt lat="40.9918533" lon="9.3732433"><ele>393.0</ele><time>2026-05-01T10:11:19.663Z</time></trkpt><trkpt lat="40.9917633" lon="9.3731533"><ele>393.0</ele><time>2026-05-01T10:11:20.663Z</time></trkpt><trkpt lat="40.99169" lon="9.37306"><ele>393.0</ele><time>2026-05-01T10:11:21.663Z</time></trkpt><trkpt lat="40.9916133" lon="9.37296"><ele>393.0</ele><time>2026-05-01T10:11:22.663Z</time></trkpt><trkpt lat="40.991545" lon="9.3728483"><ele>393.0</ele><time>2026-05-01T10:11:23.663Z</time></trkpt><trkpt lat="40.9914817" lon="9.3727167"><ele>396.0</ele><time>2026-05-01T10:11:24.663Z</time></trkpt><trkpt lat="40.99143" lon="9.3726083"><ele>399.0</ele><time>2026-05-01T10:11:25.663Z</time></trkpt><trkpt lat="40.9913817" lon="9.3725017"><ele>402.0</ele><time>2026-05-01T10:11:26.663Z</time></trkpt><trkpt lat="40.9913317" lon="9.3723983"><ele>405.0</ele><time>2026-05-01T10:11:27.663Z</time></trkpt><trkpt lat="40.9912717" lon="9.37227"><ele>408.0</ele><time>2026-05-01T10:11:28.663Z</time></trkpt><trkpt lat="40.9912083" lon="9.3721567"><ele>411.59999999999997</ele><time>2026-05-01T10:11:29.663Z</time></trkpt><trkpt lat="40.991115" lon="9.37206"><ele>415.2</ele><time>2026-05-01T10:11:30.663Z</time></trkpt><trkpt lat="40.99105" lon="9.3719567"><ele>418.8</ele><time>2026-05-01T10:11:31.663Z</time></trkpt><trkpt lat="40.990995" lon="9.3718483"><ele>422.4</ele><time>2026-05-01T10:11:32.663Z</time></trkpt><trkpt lat="40.9909633" lon="9.3717617"><ele>426.0</ele><time>2026-05-01T10:11:33.663Z</time></trkpt><trkpt lat="40.99094" lon="9.3716783"><ele>426.0</ele><time>2026-05-01T10:11:34.663Z</time></trkpt><trkpt lat="40.9909017" lon="9.371595"><ele>426.0</ele><time>2026-05-01T10:11:35.663Z</time></trkpt><trkpt lat="40.99087" lon="9.3715133"><ele>426.0</ele><time>2026-05-01T10:11:36.663Z</time></trkpt><trkpt lat="40.9908917" lon="9.3713533"><ele>426.0</ele><time>2026-05-01T10:11:37.663Z</time></trkpt><trkpt lat="40.9908883" lon="9.3712167"><ele>426.0</ele><time>2026-05-01T10:11:38.663Z</time></trkpt><trkpt lat="40.9908567" lon="9.3711117"><ele>427.0</ele><time>2026-05-01T10:11:39.663Z</time></trkpt><trkpt lat="40.9908267" lon="9.3710167"><ele>428.0</ele><time>2026-05-01T10:11:40.663Z</time></trkpt><trkpt lat="40.9907967" lon="9.3709283"><ele>429.0</ele><time>2026-05-01T10:11:41.663Z</time></trkpt><trkpt lat="40.990755" lon="9.3708417"><ele>430.0</ele><time>2026-05-01T10:11:42.663Z</time></trkpt><trkpt lat="40.990755" lon="9.3707167"><ele>431.0</ele><time>2026-05-01T10:11:43.663Z</time></trkpt><trkpt lat="40.9907367" lon="9.37063"><ele>432.0</ele><time>2026-05-01T10:11:44.663Z</time></trkpt><trkpt lat="40.99073" lon="9.3704717"><ele>434.40000000000003</ele><time>2026-05-01T10:11:46.663Z</time></trkpt><trkpt lat="40.9907717" lon="9.370385"><ele>436.80000000000007</ele><time>2026-05-01T10:11:47.663Z</time></trkpt><trkpt lat="40.9908167" lon="9.3702483"><ele>439.2</ele><time>2026-05-01T10:11:49.663Z</time></trkpt><trkpt lat="40.9908983" lon="9.37013"><ele>441.6</ele><time>2026-05-01T10:11:51.663Z</time></trkpt><trkpt lat="40.9909433" lon="9.3700067"><ele>444.0</ele><time>2026-05-01T10:11:53.663Z</time></trkpt><trkpt lat="40.99097" lon="9.3698733"><ele>444.0</ele><time>2026-05-01T10:11:55.663Z</time></trkpt><trkpt lat="40.9909533" lon="9.3697733"><ele>444.0</ele><time>2026-05-01T10:11:57.664Z</time></trkpt><trkpt lat="40.9908467" lon="9.3696883"><ele>444.0</ele><time>2026-05-01T10:11:59.663Z</time></trkpt><trkpt lat="40.990755" lon="9.369655"><ele>444.0</ele><time>2026-05-01T10:12:00.663Z</time></trkpt><trkpt lat="40.9906967" lon="9.3696117"><ele>444.0</ele><time>2026-05-01T10:12:01.663Z</time></trkpt><trkpt lat="40.9906333" lon="9.3695583"><ele>444.0</ele><time>2026-05-01T10:12:02.663Z</time></trkpt><trkpt lat="40.9905867" lon="9.369495"><ele>446.1666666666667</ele><time>2026-05-01T10:12:03.663Z</time></trkpt><trkpt lat="40.9905467" lon="9.369425"><ele>448.33333333333337</ele><time>2026-05-01T10:12:04.663Z</time></trkpt><trkpt lat="40.9904883" lon="9.369355"><ele>450.5</ele><time>2026-05-01T10:12:05.663Z</time></trkpt><trkpt lat="40.990425" lon="9.3692817"><ele>452.6666666666667</ele><time>2026-05-01T10:12:06.663Z</time></trkpt><trkpt lat="40.9903683" lon="9.369195"><ele>454.83333333333337</ele><time>2026-05-01T10:12:07.663Z</time></trkpt><trkpt lat="40.9903017" lon="9.369105"><ele>457.0</ele><time>2026-05-01T10:12:08.663Z</time></trkpt><trkpt lat="40.9902733" lon="9.3689967"><ele>457.00000000000006</ele><time>2026-05-01T10:12:09.663Z</time></trkpt><trkpt lat="40.99026" lon="9.368895"><ele>457.0</ele><time>2026-05-01T10:12:10.663Z</time></trkpt><trkpt lat="40.9902783" lon="9.3687933"><ele>457.0</ele><time>2026-05-01T10:12:11.663Z</time></trkpt><trkpt lat="40.9902633" lon="9.3687033"><ele>457.0</ele><time>2026-05-01T10:12:12.663Z</time></trkpt><trkpt lat="40.99024" lon="9.368625"><ele>457.00000000000006</ele><time>2026-05-01T10:12:13.663Z</time></trkpt><trkpt lat="40.99015" lon="9.3685167"><ele>457.0</ele><time>2026-05-01T10:12:15.663Z</time></trkpt><trkpt lat="40.9901" lon="9.3684617"><ele>458.33333333333337</ele><time>2026-05-01T10:12:16.663Z</time></trkpt><trkpt lat="40.9900367" lon="9.3684067"><ele>459.6666666666667</ele><time>2026-05-01T10:12:17.663Z</time></trkpt><trkpt lat="40.98996" lon="9.368345"><ele>461.0</ele><time>2026-05-01T10:12:18.663Z</time></trkpt><trkpt lat="40.9898833" lon="9.36828"><ele>462.33333333333337</ele><time>2026-05-01T10:12:19.663Z</time></trkpt><trkpt lat="40.9898133" lon="9.3682117"><ele>463.6666666666667</ele><time>2026-05-01T10:12:20.663Z</time></trkpt><trkpt lat="40.9897367" lon="9.3681517"><ele>465.0</ele><time>2026-05-01T10:12:21.663Z</time></trkpt><trkpt lat="40.98967" lon="9.36809"><ele>465.5</ele><time>2026-05-01T10:12:22.663Z</time></trkpt><trkpt lat="40.9896067" lon="9.368015"><ele>466.0</ele><time>2026-05-01T10:12:23.663Z</time></trkpt><trkpt lat="40.989555" lon="9.3679367"><ele>466.5</ele><time>2026-05-01T10:12:24.663Z</time></trkpt><trkpt lat="40.989505" lon="9.3678467"><ele>467.0</ele><time>2026-05-01T10:12:25.663Z</time></trkpt><trkpt lat="40.989445" lon="9.3677483"><ele>467.5</ele><time>2026-05-01T10:12:26.663Z</time></trkpt><trkpt lat="40.9893817" lon="9.3676617"><ele>468.0</ele><time>2026-05-01T10:12:27.663Z</time></trkpt><trkpt lat="40.9893183" lon="9.3675783"><ele>468.0</ele><time>2026-05-01T10:12:28.663Z</time></trkpt><trkpt lat="40.9892567" lon="9.3674983"><ele>468.0</ele><time>2026-05-01T10:12:29.663Z</time></trkpt><trkpt lat="40.989205" lon="9.3674133"><ele>468.0</ele><time>2026-05-01T10:12:30.663Z</time></trkpt><trkpt lat="40.9891533" lon="9.367345"><ele>468.0</ele><time>2026-05-01T10:12:31.663Z</time></trkpt><trkpt lat="40.9891017" lon="9.3672917"><ele>468.0</ele><time>2026-05-01T10:12:32.663Z</time></trkpt><trkpt lat="40.9890283" lon="9.3672367"><ele>468.0</ele><time>2026-05-01T10:12:33.663Z</time></trkpt><trkpt lat="40.988975" lon="9.3671733"><ele>469.0</ele><time>2026-05-01T10:12:34.663Z</time></trkpt><trkpt lat="40.9889267" lon="9.3671083"><ele>469.99999999999994</ele><time>2026-05-01T10:12:35.664Z</time></trkpt><trkpt lat="40.9888817" lon="9.3670433"><ele>470.99999999999994</ele><time>2026-05-01T10:12:36.664Z</time></trkpt><trkpt lat="40.9888483" lon="9.366905"><ele>472.0</ele><time>2026-05-01T10:12:38.663Z</time></trkpt><trkpt lat="40.9888867" lon="9.3667733"><ele>473.0</ele><time>2026-05-01T10:12:40.663Z</time></trkpt><trkpt lat="40.9889683" lon="9.3666217"><ele>473.0</ele><time>2026-05-01T10:12:42.663Z</time></trkpt><trkpt lat="40.9890117" lon="9.3665333"><ele>472.99999999999994</ele><time>2026-05-01T10:12:43.663Z</time></trkpt><trkpt lat="40.9890383" lon="9.3664467"><ele>472.99999999999994</ele><time>2026-05-01T10:12:44.663Z</time></trkpt><trkpt lat="40.9890817" lon="9.3663267"><ele>473.0</ele><time>2026-05-01T10:12:45.663Z</time></trkpt><trkpt lat="40.989115" lon="9.3661917"><ele>473.0</ele><time>2026-05-01T10:12:46.663Z</time></trkpt><trkpt lat="40.9891167" lon="9.3660267"><ele>472.75</ele><time>2026-05-01T10:12:47.663Z</time></trkpt><trkpt lat="40.98914" lon="9.3658483"><ele>472.5</ele><time>2026-05-01T10:12:48.663Z</time></trkpt><trkpt lat="40.9891333" lon="9.3656767"><ele>472.25</ele><time>2026-05-01T10:12:49.663Z</time></trkpt><trkpt lat="40.9891267" lon="9.36551"><ele>472.0</ele><time>2026-05-01T10:12:50.663Z</time></trkpt><trkpt lat="40.9891317" lon="9.365345"><ele>471.25</ele><time>2026-05-01T10:12:51.663Z</time></trkpt><trkpt lat="40.989135" lon="9.3651917"><ele>470.5</ele><time>2026-05-01T10:12:52.663Z</time></trkpt><trkpt lat="40.9891283" lon="9.3650283"><ele>469.75</ele><time>2026-05-01T10:12:53.663Z</time></trkpt><trkpt lat="40.989105" lon="9.3648733"><ele>469.0</ele><time>2026-05-01T10:12:54.663Z</time></trkpt><trkpt lat="40.9890617" lon="9.36472"><ele>467.25</ele><time>2026-05-01T10:12:55.663Z</time></trkpt><trkpt lat="40.989005" lon="9.364575"><ele>465.5</ele><time>2026-05-01T10:12:56.663Z</time></trkpt><trkpt lat="40.988925" lon="9.36445"><ele>463.75</ele><time>2026-05-01T10:12:57.663Z</time></trkpt><trkpt lat="40.9888417" lon="9.3643317"><ele>462.0</ele><time>2026-05-01T10:12:58.663Z</time></trkpt><trkpt lat="40.98877" lon="9.3642"><ele>462.0</ele><time>2026-05-01T10:12:59.664Z</time></trkpt><trkpt lat="40.9887017" lon="9.364065"><ele>462.0</ele><time>2026-05-01T10:13:00.663Z</time></trkpt><trkpt lat="40.9886383" lon="9.36393"><ele>462.0</ele><time>2026-05-01T10:13:01.663Z</time></trkpt><trkpt lat="40.988585" lon="9.3638"><ele>462.0</ele><time>2026-05-01T10:13:02.663Z</time></trkpt><trkpt lat="40.988535" lon="9.3636683"><ele>460.25</ele><time>2026-05-01T10:13:03.663Z</time></trkpt><trkpt lat="40.988485" lon="9.3635233"><ele>458.5</ele><time>2026-05-01T10:13:04.663Z</time></trkpt><trkpt lat="40.9884367" lon="9.3633767"><ele>456.75</ele><time>2026-05-01T10:13:05.663Z</time></trkpt><trkpt lat="40.9883817" lon="9.3632333"><ele>455.0</ele><time>2026-05-01T10:13:06.663Z</time></trkpt><trkpt lat="40.98832" lon="9.363085"><ele>464.0</ele><time>2026-05-01T10:13:07.663Z</time></trkpt><trkpt lat="40.9882583" lon="9.3629567"><ele>473.0</ele><time>2026-05-01T10:13:08.663Z</time></trkpt><trkpt lat="40.9881833" lon="9.3628283"><ele>482.0</ele><time>2026-05-01T10:13:09.663Z</time></trkpt><trkpt lat="40.9881" lon="9.3626967"><ele>491.0</ele><time>2026-05-01T10:13:10.663Z</time></trkpt><trkpt lat="40.988005" lon="9.3625783"><ele>491.0</ele><time>2026-05-01T10:13:11.663Z</time></trkpt><trkpt lat="40.9879383" lon="9.362435"><ele>491.0</ele><time>2026-05-01T10:13:12.663Z</time></trkpt><trkpt lat="40.9878583" lon="9.36228"><ele>491.0</ele><time>2026-05-01T10:13:13.663Z</time></trkpt><trkpt lat="40.98778" lon="9.362125"><ele>491.0</ele><time>2026-05-01T10:13:14.663Z</time></trkpt><trkpt lat="40.987695" lon="9.361975"><ele>493.25</ele><time>2026-05-01T10:13:15.663Z</time></trkpt><trkpt lat="40.9876083" lon="9.3618433"><ele>495.5</ele><time>2026-05-01T10:13:16.663Z</time></trkpt><trkpt lat="40.9875117" lon="9.3617233"><ele>497.75</ele><time>2026-05-01T10:13:17.663Z</time></trkpt><trkpt lat="40.9874017" lon="9.3616267"><ele>500.0</ele><time>2026-05-01T10:13:18.663Z</time></trkpt><trkpt lat="40.9872933" lon="9.361505"><ele>502.0</ele><time>2026-05-01T10:13:19.663Z</time></trkpt><trkpt lat="40.9871867" lon="9.36138"><ele>504.0</ele><time>2026-05-01T10:13:20.663Z</time></trkpt><trkpt lat="40.9870817" lon="9.36129"><ele>506.0</ele><time>2026-05-01T10:13:21.663Z</time></trkpt><trkpt lat="40.9869633" lon="9.3612233"><ele>508.0</ele><time>2026-05-01T10:13:22.663Z</time></trkpt><trkpt lat="40.9868467" lon="9.3611533"><ele>506.4</ele><time>2026-05-01T10:13:23.663Z</time></trkpt><trkpt lat="40.98674" lon="9.36108"><ele>504.79999999999995</ele><time>2026-05-01T10:13:24.663Z</time></trkpt><trkpt lat="40.9866267" lon="9.36103"><ele>503.2</ele><time>2026-05-01T10:13:25.663Z</time></trkpt><trkpt lat="40.9865267" lon="9.3609767"><ele>501.6</ele><time>2026-05-01T10:13:26.663Z</time></trkpt><trkpt lat="40.9864433" lon="9.3609183"><ele>500.0</ele><time>2026-05-01T10:13:27.663Z</time></trkpt><trkpt lat="40.9863567" lon="9.360855"><ele>500.0</ele><time>2026-05-01T10:13:28.663Z</time></trkpt><trkpt lat="40.9862533" lon="9.3608133"><ele>500.0</ele><time>2026-05-01T10:13:29.663Z</time></trkpt><trkpt lat="40.9861333" lon="9.36079"><ele>500.0</ele><time>2026-05-01T10:13:30.663Z</time></trkpt><trkpt lat="40.985985" lon="9.3607733"><ele>500.0</ele><time>2026-05-01T10:13:31.663Z</time></trkpt><trkpt lat="40.985865" lon="9.36076"><ele>494.75</ele><time>2026-05-01T10:13:32.663Z</time></trkpt><trkpt lat="40.9857333" lon="9.36075"><ele>489.5</ele><time>2026-05-01T10:13:33.664Z</time></trkpt><trkpt lat="40.9855983" lon="9.3607367"><ele>484.25</ele><time>2026-05-01T10:13:34.663Z</time></trkpt><trkpt lat="40.985465" lon="9.36072"><ele>479.0</ele><time>2026-05-01T10:13:35.663Z</time></trkpt><trkpt lat="40.9852983" lon="9.36072"><ele>479.0</ele><time>2026-05-01T10:13:36.663Z</time></trkpt><trkpt lat="40.9851517" lon="9.36071"><ele>479.0</ele><time>2026-05-01T10:13:37.663Z</time></trkpt><trkpt lat="40.985015" lon="9.3607083"><ele>479.0</ele><time>2026-05-01T10:13:38.663Z</time></trkpt><trkpt lat="40.9848867" lon="9.3607183"><ele>479.0</ele><time>2026-05-01T10:13:39.663Z</time></trkpt><trkpt lat="40.9847567" lon="9.3607333"><ele>477.5</ele><time>2026-05-01T10:13:40.663Z</time></trkpt><trkpt lat="40.9846333" lon="9.3607267"><ele>476.0</ele><time>2026-05-01T10:13:41.663Z</time></trkpt><trkpt lat="40.9845167" lon="9.3607017"><ele>474.5</ele><time>2026-05-01T10:13:42.663Z</time></trkpt><trkpt lat="40.9844083" lon="9.3606733"><ele>473.0</ele><time>2026-05-01T10:13:43.663Z</time></trkpt><trkpt lat="40.9842933" lon="9.3606183"><ele>473.75</ele><time>2026-05-01T10:13:44.663Z</time></trkpt><trkpt lat="40.9841717" lon="9.3605333"><ele>474.5</ele><time>2026-05-01T10:13:45.663Z</time></trkpt><trkpt lat="40.984035" lon="9.360495"><ele>475.25</ele><time>2026-05-01T10:13:46.663Z</time></trkpt><trkpt lat="40.98391" lon="9.3604433"><ele>476.0</ele><time>2026-05-01T10:13:47.663Z</time></trkpt><trkpt lat="40.9837717" lon="9.3603967"><ele>474.5</ele><time>2026-05-01T10:13:48.663Z</time></trkpt><trkpt lat="40.98364" lon="9.3603533"><ele>473.0</ele><time>2026-05-01T10:13:49.663Z</time></trkpt><trkpt lat="40.9835033" lon="9.3603317"><ele>471.5</ele><time>2026-05-01T10:13:50.663Z</time></trkpt><trkpt lat="40.9833733" lon="9.3603267"><ele>470.0</ele><time>2026-05-01T10:13:51.663Z</time></trkpt><trkpt lat="40.983255" lon="9.3603233"><ele>470.0</ele><time>2026-05-01T10:13:52.663Z</time></trkpt><trkpt lat="40.9831233" lon="9.360325"><ele>470.0</ele><time>2026-05-01T10:13:53.663Z</time></trkpt><trkpt lat="40.9829967" lon="9.3603267"><ele>470.0</ele><time>2026-05-01T10:13:54.663Z</time></trkpt><trkpt lat="40.9828917" lon="9.3603417"><ele>470.0</ele><time>2026-05-01T10:13:55.663Z</time></trkpt><trkpt lat="40.98279" lon="9.3603333"><ele>469.99999999999994</ele><time>2026-05-01T10:13:56.663Z</time></trkpt><trkpt lat="40.982695" lon="9.3603183"><ele>470.0</ele><time>2026-05-01T10:13:57.663Z</time></trkpt><trkpt lat="40.982615" lon="9.360285"><ele>470.0</ele><time>2026-05-01T10:13:58.663Z</time></trkpt><trkpt lat="40.9825217" lon="9.3602333"><ele>470.0</ele><time>2026-05-01T10:13:59.663Z</time></trkpt><trkpt lat="40.9824467" lon="9.3601783"><ele>469.99999999999994</ele><time>2026-05-01T10:14:00.663Z</time></trkpt><trkpt lat="40.982375" lon="9.36013"><ele>470.0</ele><time>2026-05-01T10:14:01.663Z</time></trkpt><trkpt lat="40.98231" lon="9.3600667"><ele>468.66666666666663</ele><time>2026-05-01T10:14:02.663Z</time></trkpt><trkpt lat="40.9822417" lon="9.360005"><ele>467.3333333333333</ele><time>2026-05-01T10:14:03.663Z</time></trkpt><trkpt lat="40.9821733" lon="9.3599183"><ele>466.0</ele><time>2026-05-01T10:14:04.663Z</time></trkpt><trkpt lat="40.982125" lon="9.3598367"><ele>464.66666666666663</ele><time>2026-05-01T10:14:05.663Z</time></trkpt><trkpt lat="40.9820733" lon="9.3597617"><ele>463.3333333333333</ele><time>2026-05-01T10:14:06.663Z</time></trkpt><trkpt lat="40.9820233" lon="9.35968"><ele>462.0</ele><time>2026-05-01T10:14:07.663Z</time></trkpt><trkpt lat="40.98198" lon="9.3595783"><ele>462.0</ele><time>2026-05-01T10:14:08.663Z</time></trkpt><trkpt lat="40.981935" lon="9.35947"><ele>462.00000000000006</ele><time>2026-05-01T10:14:09.663Z</time></trkpt><trkpt lat="40.981895" lon="9.35937"><ele>462.00000000000006</ele><time>2026-05-01T10:14:10.663Z</time></trkpt><trkpt lat="40.9818667" lon="9.3592517"><ele>462.0</ele><time>2026-05-01T10:14:11.663Z</time></trkpt><trkpt lat="40.98185" lon="9.3591183"><ele>462.0</ele><time>2026-05-01T10:14:12.663Z</time></trkpt><trkpt lat="40.9818333" lon="9.35898"><ele>459.40000000000003</ele><time>2026-05-01T10:14:13.663Z</time></trkpt><trkpt lat="40.9818133" lon="9.3588533"><ele>456.80000000000007</ele><time>2026-05-01T10:14:14.663Z</time></trkpt><trkpt lat="40.9818117" lon="9.3587333"><ele>454.2</ele><time>2026-05-01T10:14:15.663Z</time></trkpt><trkpt lat="40.9817983" lon="9.3585933"><ele>451.6</ele><time>2026-05-01T10:14:16.663Z</time></trkpt><trkpt lat="40.9818" lon="9.35846"><ele>449.0</ele><time>2026-05-01T10:14:17.664Z</time></trkpt><trkpt lat="40.9818167" lon="9.3583767"><ele>448.99999999999994</ele><time>2026-05-01T10:14:18.663Z</time></trkpt><trkpt lat="40.981835" lon="9.3582967"><ele>449.0</ele><time>2026-05-01T10:14:19.663Z</time></trkpt><trkpt lat="40.9818633" lon="9.3582183"><ele>449.0</ele><time>2026-05-01T10:14:20.663Z</time></trkpt><trkpt lat="40.9818983" lon="9.3581417"><ele>449.0</ele><time>2026-05-01T10:14:21.663Z</time></trkpt><trkpt lat="40.9819517" lon="9.358045"><ele>448.99999999999994</ele><time>2026-05-01T10:14:22.663Z</time></trkpt><trkpt lat="40.9820017" lon="9.3579517"><ele>449.0</ele><time>2026-05-01T10:14:23.663Z</time></trkpt><trkpt lat="40.9820633" lon="9.3578433"><ele>445.6</ele><time>2026-05-01T10:14:24.663Z</time></trkpt><trkpt lat="40.982115" lon="9.35775"><ele>442.2</ele><time>2026-05-01T10:14:25.663Z</time></trkpt><trkpt lat="40.9821683" lon="9.3576367"><ele>438.80000000000007</ele><time>2026-05-01T10:14:26.663Z</time></trkpt><trkpt lat="40.98224" lon="9.3575033"><ele>435.40000000000003</ele><time>2026-05-01T10:14:27.663Z</time></trkpt><trkpt lat="40.9822817" lon="9.35737"><ele>432.0</ele><time>2026-05-01T10:14:28.663Z</time></trkpt><trkpt lat="40.982295" lon="9.3572167"><ele>430.20000000000005</ele><time>2026-05-01T10:14:29.663Z</time></trkpt><trkpt lat="40.9822817" lon="9.3571067"><ele>428.40000000000003</ele><time>2026-05-01T10:14:30.663Z</time></trkpt><trkpt lat="40.9822567" lon="9.3569667"><ele>426.6</ele><time>2026-05-01T10:14:31.663Z</time></trkpt><trkpt lat="40.9822433" lon="9.3568267"><ele>424.79999999999995</ele><time>2026-05-01T10:14:32.663Z</time></trkpt><trkpt lat="40.98222" lon="9.356645"><ele>423.0</ele><time>2026-05-01T10:14:33.663Z</time></trkpt><trkpt lat="40.98221" lon="9.3564867"><ele>421.0</ele><time>2026-05-01T10:14:34.663Z</time></trkpt><trkpt lat="40.98218" lon="9.356335"><ele>419.0</ele><time>2026-05-01T10:14:35.663Z</time></trkpt><trkpt lat="40.9821417" lon="9.3561933"><ele>417.0</ele><time>2026-05-01T10:14:36.663Z</time></trkpt><trkpt lat="40.9820833" lon="9.3560367"><ele>415.0</ele><time>2026-05-01T10:14:37.663Z</time></trkpt><trkpt lat="40.98203" lon="9.3558983"><ele>415.0</ele><time>2026-05-01T10:14:38.663Z</time></trkpt><trkpt lat="40.981975" lon="9.355765"><ele>415.0</ele><time>2026-05-01T10:14:39.663Z</time></trkpt><trkpt lat="40.9818983" lon="9.3556483"><ele>415.0</ele><time>2026-05-01T10:14:40.663Z</time></trkpt><trkpt lat="40.9818267" lon="9.3555267"><ele>415.0</ele><time>2026-05-01T10:14:41.663Z</time></trkpt><trkpt lat="40.9816983" lon="9.3554217"><ele>413.0</ele><time>2026-05-01T10:14:42.663Z</time></trkpt><trkpt lat="40.9815783" lon="9.3553033"><ele>411.0</ele><time>2026-05-01T10:14:43.663Z</time></trkpt><trkpt lat="40.98147" lon="9.35518"><ele>409.0</ele><time>2026-05-01T10:14:44.663Z</time></trkpt><trkpt lat="40.98135" lon="9.3550667"><ele>407.0</ele><time>2026-05-01T10:14:45.663Z</time></trkpt><trkpt lat="40.9812083" lon="9.354965"><ele>407.0</ele><time>2026-05-01T10:14:46.663Z</time></trkpt><trkpt lat="40.9811383" lon="9.3548233"><ele>407.0</ele><time>2026-05-01T10:14:47.663Z</time></trkpt><trkpt lat="40.9810683" lon="9.35468"><ele>407.0</ele><time>2026-05-01T10:14:48.663Z</time></trkpt><trkpt lat="40.9810083" lon="9.3545217"><ele>407.0</ele><time>2026-05-01T10:14:49.663Z</time></trkpt><trkpt lat="40.9809533" lon="9.354355"><ele>406.25</ele><time>2026-05-01T10:14:50.663Z</time></trkpt><trkpt lat="40.9808967" lon="9.354185"><ele>405.5</ele><time>2026-05-01T10:14:51.663Z</time></trkpt><trkpt lat="40.98084" lon="9.3540167"><ele>404.75</ele><time>2026-05-01T10:14:52.663Z</time></trkpt><trkpt lat="40.98079" lon="9.3538617"><ele>404.0</ele><time>2026-05-01T10:14:53.663Z</time></trkpt><trkpt lat="40.9807417" lon="9.353715"><ele>402.0</ele><time>2026-05-01T10:14:54.663Z</time></trkpt><trkpt lat="40.9806733" lon="9.3536433"><ele>400.0</ele><time>2026-05-01T10:14:55.663Z</time></trkpt><trkpt lat="40.9806133" lon="9.3535267"><ele>398.0</ele><time>2026-05-01T10:14:56.663Z</time></trkpt><trkpt lat="40.9805267" lon="9.3534083"><ele>396.0</ele><time>2026-05-01T10:14:57.663Z</time></trkpt><trkpt lat="40.9804267" lon="9.35329"><ele>396.0</ele><time>2026-05-01T10:14:58.663Z</time></trkpt><trkpt lat="40.9803367" lon="9.3531617"><ele>396.0</ele><time>2026-05-01T10:14:59.664Z</time></trkpt><trkpt lat="40.980255" lon="9.3530267"><ele>396.0</ele><time>2026-05-01T10:15:00.663Z</time></trkpt><trkpt lat="40.980175" lon="9.35289"><ele>396.0</ele><time>2026-05-01T10:15:01.663Z</time></trkpt><trkpt lat="40.9801067" lon="9.3527383"><ele>395.0</ele><time>2026-05-01T10:15:02.663Z</time></trkpt><trkpt lat="40.98004" lon="9.352595"><ele>394.0</ele><time>2026-05-01T10:15:03.663Z</time></trkpt><trkpt lat="40.9799967" lon="9.3524667"><ele>393.0</ele><time>2026-05-01T10:15:04.663Z</time></trkpt><trkpt lat="40.979945" lon="9.3523467"><ele>392.0</ele><time>2026-05-01T10:15:05.663Z</time></trkpt><trkpt lat="40.979915" lon="9.3522383"><ele>391.0</ele><time>2026-05-01T10:15:06.663Z</time></trkpt><trkpt lat="40.97989" lon="9.35213"><ele>388.0</ele><time>2026-05-01T10:15:07.663Z</time></trkpt><trkpt lat="40.9798767" lon="9.35202"><ele>385.0</ele><time>2026-05-01T10:15:08.663Z</time></trkpt><trkpt lat="40.9798817" lon="9.3519033"><ele>382.0</ele><time>2026-05-01T10:15:09.663Z</time></trkpt><trkpt lat="40.9798833" lon="9.3517767"><ele>379.0</ele><time>2026-05-01T10:15:10.663Z</time></trkpt><trkpt lat="40.9798967" lon="9.3516333"><ele>376.0</ele><time>2026-05-01T10:15:11.663Z</time></trkpt><trkpt lat="40.979895" lon="9.351495"><ele>375.5</ele><time>2026-05-01T10:15:12.663Z</time></trkpt><trkpt lat="40.9798867" lon="9.3513517"><ele>375.0</ele><time>2026-05-01T10:15:13.663Z</time></trkpt><trkpt lat="40.9798817" lon="9.3511867"><ele>374.5</ele><time>2026-05-01T10:15:14.663Z</time></trkpt><trkpt lat="40.9798817" lon="9.3509817"><ele>374.0</ele><time>2026-05-01T10:15:15.663Z</time></trkpt><trkpt lat="40.9798767" lon="9.3507867"><ele>374.0</ele><time>2026-05-01T10:15:16.663Z</time></trkpt><trkpt lat="40.979865" lon="9.3506017"><ele>374.0</ele><time>2026-05-01T10:15:17.663Z</time></trkpt><trkpt lat="40.9798533" lon="9.3504267"><ele>374.0</ele><time>2026-05-01T10:15:18.663Z</time></trkpt><trkpt lat="40.9798383" lon="9.35025"><ele>374.0</ele><time>2026-05-01T10:15:19.663Z</time></trkpt><trkpt lat="40.979835" lon="9.3500683"><ele>374.25</ele><time>2026-05-01T10:15:20.663Z</time></trkpt><trkpt lat="40.9798367" lon="9.3498883"><ele>374.5</ele><time>2026-05-01T10:15:21.663Z</time></trkpt><trkpt lat="40.979845" lon="9.349715"><ele>374.75</ele><time>2026-05-01T10:15:22.663Z</time></trkpt><trkpt lat="40.9798667" lon="9.3495617"><ele>375.0</ele><time>2026-05-01T10:15:23.663Z</time></trkpt><trkpt lat="40.9798867" lon="9.349425"><ele>374.8</ele><time>2026-05-01T10:15:24.663Z</time></trkpt><trkpt lat="40.9799033" lon="9.3493033"><ele>374.6</ele><time>2026-05-01T10:15:25.663Z</time></trkpt><trkpt lat="40.979915" lon="9.3491933"><ele>374.4</ele><time>2026-05-01T10:15:26.663Z</time></trkpt><trkpt lat="40.979935" lon="9.349065"><ele>374.2</ele><time>2026-05-01T10:15:28.663Z</time></trkpt><trkpt lat="40.9799367" lon="9.3489633"><ele>374.0</ele><time>2026-05-01T10:15:31.663Z</time></trkpt><trkpt lat="40.97995" lon="9.348835"><ele>374.0</ele><time>2026-05-01T10:15:34.663Z</time></trkpt><trkpt lat="40.9799167" lon="9.348715"><ele>374.0</ele><time>2026-05-01T10:15:36.663Z</time></trkpt><trkpt lat="40.9798683" lon="9.3486517"><ele>374.0</ele><time>2026-05-01T10:15:37.663Z</time></trkpt><trkpt lat="40.979795" lon="9.34858"><ele>374.0</ele><time>2026-05-01T10:15:38.663Z</time></trkpt><trkpt lat="40.9797467" lon="9.3485167"><ele>374.0</ele><time>2026-05-01T10:15:39.663Z</time></trkpt><trkpt lat="40.9796867" lon="9.3484317"><ele>374.0</ele><time>2026-05-01T10:15:40.663Z</time></trkpt><trkpt lat="40.979625" lon="9.3483433"><ele>374.0</ele><time>2026-05-01T10:15:41.663Z</time></trkpt><trkpt lat="40.9795633" lon="9.34824"><ele>374.0</ele><time>2026-05-01T10:15:42.663Z</time></trkpt><trkpt lat="40.9795417" lon="9.3481533"><ele>374.0</ele><time>2026-05-01T10:15:43.663Z</time></trkpt><trkpt lat="40.97954" lon="9.3480567"><ele>374.0</ele><time>2026-05-01T10:15:44.663Z</time></trkpt><trkpt lat="40.9795583" lon="9.3479633"><ele>374.0</ele><time>2026-05-01T10:15:45.663Z</time></trkpt><trkpt lat="40.9795817" lon="9.347875"><ele>374.0</ele><time>2026-05-01T10:15:46.663Z</time></trkpt><trkpt lat="40.979615" lon="9.3477267"><ele>373.4</ele><time>2026-05-01T10:15:48.663Z</time></trkpt><trkpt lat="40.9795917" lon="9.3476433"><ele>372.79999999999995</ele><time>2026-05-01T10:15:50.663Z</time></trkpt><trkpt lat="40.9795033" lon="9.3475917"><ele>372.20000000000005</ele><time>2026-05-01T10:15:52.663Z</time></trkpt><trkpt lat="40.9794283" lon="9.347595"><ele>371.6</ele><time>2026-05-01T10:15:53.663Z</time></trkpt><trkpt lat="40.979345" lon="9.3476167"><ele>371.0</ele><time>2026-05-01T10:15:54.663Z</time></trkpt><trkpt lat="40.979185" lon="9.3477217"><ele>370.25</ele><time>2026-05-01T10:15:56.663Z</time></trkpt><trkpt lat="40.979075" lon="9.34784"><ele>369.5</ele><time>2026-05-01T10:15:57.663Z</time></trkpt><trkpt lat="40.9789867" lon="9.3479417"><ele>368.75</ele><time>2026-05-01T10:15:58.663Z</time></trkpt><trkpt lat="40.9788917" lon="9.3480717"><ele>368.0</ele><time>2026-05-01T10:15:59.663Z</time></trkpt><trkpt lat="40.9787867" lon="9.348155"><ele>367.5</ele><time>2026-05-01T10:16:00.663Z</time></trkpt><trkpt lat="40.9786867" lon="9.3482217"><ele>367.0</ele><time>2026-05-01T10:16:01.663Z</time></trkpt><trkpt lat="40.9785867" lon="9.3482917"><ele>366.5</ele><time>2026-05-01T10:16:02.663Z</time></trkpt><trkpt lat="40.97846" lon="9.3483717"><ele>366.0</ele><time>2026-05-01T10:16:03.663Z</time></trkpt><trkpt lat="40.978355" lon="9.3484483"><ele>366.6</ele><time>2026-05-01T10:16:04.663Z</time></trkpt><trkpt lat="40.9782567" lon="9.3485233"><ele>367.20000000000005</ele><time>2026-05-01T10:16:05.663Z</time></trkpt><trkpt lat="40.9781617" lon="9.348585"><ele>367.79999999999995</ele><time>2026-05-01T10:16:06.663Z</time></trkpt><trkpt lat="40.978055" lon="9.3486333"><ele>368.4</ele><time>2026-05-01T10:16:07.663Z</time></trkpt><trkpt lat="40.9779417" lon="9.3486583"><ele>369.0</ele><time>2026-05-01T10:16:08.663Z</time></trkpt><trkpt lat="40.9778167" lon="9.3486617"><ele>369.0</ele><time>2026-05-01T10:16:09.663Z</time></trkpt><trkpt lat="40.9776933" lon="9.348685"><ele>369.0</ele><time>2026-05-01T10:16:10.663Z</time></trkpt><trkpt lat="40.977555" lon="9.3487083"><ele>369.0</ele><time>2026-05-01T10:16:11.663Z</time></trkpt><trkpt lat="40.9774183" lon="9.3487483"><ele>369.0</ele><time>2026-05-01T10:16:12.663Z</time></trkpt><trkpt lat="40.9772817" lon="9.3487933"><ele>370.25</ele><time>2026-05-01T10:16:13.663Z</time></trkpt><trkpt lat="40.9771667" lon="9.34885"><ele>371.5</ele><time>2026-05-01T10:16:14.663Z</time></trkpt><trkpt lat="40.9770517" lon="9.34892"><ele>372.75</ele><time>2026-05-01T10:16:15.663Z</time></trkpt><trkpt lat="40.9769417" lon="9.3489833"><ele>374.0</ele><time>2026-05-01T10:16:16.663Z</time></trkpt><trkpt lat="40.97683" lon="9.3490267"><ele>374.0</ele><time>2026-05-01T10:16:17.663Z</time></trkpt><trkpt lat="40.9767233" lon="9.349045"><ele>374.0</ele><time>2026-05-01T10:16:18.663Z</time></trkpt><trkpt lat="40.97662" lon="9.34905"><ele>374.0</ele><time>2026-05-01T10:16:19.663Z</time></trkpt><trkpt lat="40.9765267" lon="9.34902"><ele>374.0</ele><time>2026-05-01T10:16:20.663Z</time></trkpt><trkpt lat="40.9764383" lon="9.3489633"><ele>374.0</ele><time>2026-05-01T10:16:21.663Z</time></trkpt><trkpt lat="40.9763583" lon="9.3488733"><ele>376.25</ele><time>2026-05-01T10:16:22.663Z</time></trkpt><trkpt lat="40.9762867" lon="9.348765"><ele>378.5</ele><time>2026-05-01T10:16:23.663Z</time></trkpt><trkpt lat="40.9762267" lon="9.348635"><ele>380.75</ele><time>2026-05-01T10:16:24.663Z</time></trkpt><trkpt lat="40.9761767" lon="9.3484833"><ele>383.0</ele><time>2026-05-01T10:16:25.663Z</time></trkpt><trkpt lat="40.9761367" lon="9.3483167"><ele>383.0</ele><time>2026-05-01T10:16:26.663Z</time></trkpt><trkpt lat="40.9761033" lon="9.3481483"><ele>383.0</ele><time>2026-05-01T10:16:27.663Z</time></trkpt><trkpt lat="40.9760633" lon="9.348"><ele>383.0</ele><time>2026-05-01T10:16:28.663Z</time></trkpt><trkpt lat="40.9760333" lon="9.3478517"><ele>383.0</ele><time>2026-05-01T10:16:29.663Z</time></trkpt><trkpt lat="40.976015" lon="9.3476983"><ele>384.0</ele><time>2026-05-01T10:16:30.663Z</time></trkpt><trkpt lat="40.9759983" lon="9.347535"><ele>385.0</ele><time>2026-05-01T10:16:31.663Z</time></trkpt><trkpt lat="40.9759883" lon="9.3473617"><ele>386.0</ele><time>2026-05-01T10:16:32.663Z</time></trkpt><trkpt lat="40.97598" lon="9.3471883"><ele>387.0</ele><time>2026-05-01T10:16:33.663Z</time></trkpt><trkpt lat="40.9759767" lon="9.34701"><ele>387.75</ele><time>2026-05-01T10:16:34.663Z</time></trkpt><trkpt lat="40.975965" lon="9.346825"><ele>388.5</ele><time>2026-05-01T10:16:35.663Z</time></trkpt><trkpt lat="40.9759683" lon="9.3466317"><ele>389.25</ele><time>2026-05-01T10:16:36.663Z</time></trkpt><trkpt lat="40.975955" lon="9.3464483"><ele>390.0</ele><time>2026-05-01T10:16:37.663Z</time></trkpt><trkpt lat="40.9759417" lon="9.3462683"><ele>391.75</ele><time>2026-05-01T10:16:38.663Z</time></trkpt><trkpt lat="40.975915" lon="9.3460917"><ele>393.5</ele><time>2026-05-01T10:16:39.663Z</time></trkpt><trkpt lat="40.97591" lon="9.345915"><ele>395.25</ele><time>2026-05-01T10:16:40.663Z</time></trkpt><trkpt lat="40.9759" lon="9.3457417"><ele>397.0</ele><time>2026-05-01T10:16:41.663Z</time></trkpt><trkpt lat="40.9758883" lon="9.3455667"><ele>398.75</ele><time>2026-05-01T10:16:42.663Z</time></trkpt><trkpt lat="40.9758767" lon="9.3453917"><ele>400.5</ele><time>2026-05-01T10:16:43.663Z</time></trkpt><trkpt lat="40.9758633" lon="9.3452133"><ele>402.25</ele><time>2026-05-01T10:16:44.663Z</time></trkpt><trkpt lat="40.9758417" lon="9.3450333"><ele>404.0</ele><time>2026-05-01T10:16:45.663Z</time></trkpt><trkpt lat="40.97582" lon="9.3448483"><ele>405.25</ele><time>2026-05-01T10:16:46.664Z</time></trkpt><trkpt lat="40.97582" lon="9.3446533"><ele>406.5</ele><time>2026-05-01T10:16:47.663Z</time></trkpt><trkpt lat="40.9758233" lon="9.344495"><ele>407.75</ele><time>2026-05-01T10:16:48.663Z</time></trkpt><trkpt lat="40.9758233" lon="9.3443383"><ele>409.0</ele><time>2026-05-01T10:16:49.663Z</time></trkpt><trkpt lat="40.9758033" lon="9.3441967"><ele>409.0</ele><time>2026-05-01T10:16:50.664Z</time></trkpt><trkpt lat="40.975765" lon="9.344055"><ele>409.0</ele><time>2026-05-01T10:16:51.663Z</time></trkpt><trkpt lat="40.9757283" lon="9.3439083"><ele>409.0</ele><time>2026-05-01T10:16:52.663Z</time></trkpt><trkpt lat="40.9756883" lon="9.343755"><ele>409.0</ele><time>2026-05-01T10:16:53.663Z</time></trkpt><trkpt lat="40.9756417" lon="9.3435967"><ele>410.0</ele><time>2026-05-01T10:16:54.663Z</time></trkpt><trkpt lat="40.9755933" lon="9.3434433"><ele>411.0</ele><time>2026-05-01T10:16:55.663Z</time></trkpt><trkpt lat="40.9755467" lon="9.3433033"><ele>412.0</ele><time>2026-05-01T10:16:56.663Z</time></trkpt><trkpt lat="40.9755" lon="9.34318"><ele>413.0</ele><time>2026-05-01T10:16:57.663Z</time></trkpt><trkpt lat="40.9754467" lon="9.343055"><ele>413.49999999999994</ele><time>2026-05-01T10:16:58.663Z</time></trkpt><trkpt lat="40.9754017" lon="9.3429333"><ele>414.0</ele><time>2026-05-01T10:16:59.663Z</time></trkpt><trkpt lat="40.97536" lon="9.342825"><ele>414.5</ele><time>2026-05-01T10:17:00.663Z</time></trkpt><trkpt lat="40.97531" lon="9.34275"><ele>415.0</ele><time>2026-05-01T10:17:01.663Z</time></trkpt><trkpt lat="40.9752717" lon="9.3426683"><ele>415.49999999999994</ele><time>2026-05-01T10:17:02.663Z</time></trkpt><trkpt lat="40.9752483" lon="9.3425717"><ele>416.0</ele><time>2026-05-01T10:17:03.663Z</time></trkpt><trkpt lat="40.9752283" lon="9.3424817"><ele>416.0</ele><time>2026-05-01T10:17:04.663Z</time></trkpt><trkpt lat="40.9751617" lon="9.3423183"><ele>416.0</ele><time>2026-05-01T10:17:06.663Z</time></trkpt><trkpt lat="40.9751083" lon="9.342235"><ele>416.0</ele><time>2026-05-01T10:17:07.663Z</time></trkpt><trkpt lat="40.9750433" lon="9.3421717"><ele>416.0</ele><time>2026-05-01T10:17:08.663Z</time></trkpt><trkpt lat="40.9749633" lon="9.342105"><ele>416.0</ele><time>2026-05-01T10:17:09.663Z</time></trkpt><trkpt lat="40.97487" lon="9.3420133"><ele>416.4</ele><time>2026-05-01T10:17:10.663Z</time></trkpt><trkpt lat="40.9747883" lon="9.34192"><ele>416.8</ele><time>2026-05-01T10:17:11.663Z</time></trkpt><trkpt lat="40.97471" lon="9.341815"><ele>417.2</ele><time>2026-05-01T10:17:12.663Z</time></trkpt><trkpt lat="40.974645" lon="9.341715"><ele>417.59999999999997</ele><time>2026-05-01T10:17:13.663Z</time></trkpt><trkpt lat="40.9745883" lon="9.341595"><ele>418.0</ele><time>2026-05-01T10:17:14.663Z</time></trkpt><trkpt lat="40.974525" lon="9.3414767"><ele>418.0</ele><time>2026-05-01T10:17:15.663Z</time></trkpt><trkpt lat="40.9744583" lon="9.3413517"><ele>418.0</ele><time>2026-05-01T10:17:16.663Z</time></trkpt><trkpt lat="40.9743817" lon="9.34122"><ele>418.0</ele><time>2026-05-01T10:17:17.663Z</time></trkpt><trkpt lat="40.9743083" lon="9.3410783"><ele>418.0</ele><time>2026-05-01T10:17:18.663Z</time></trkpt><trkpt lat="40.9742267" lon="9.3409467"><ele>419.75</ele><time>2026-05-01T10:17:19.663Z</time></trkpt><trkpt lat="40.97415" lon="9.34082"><ele>421.5</ele><time>2026-05-01T10:17:20.663Z</time></trkpt><trkpt lat="40.9740733" lon="9.3406967"><ele>423.25</ele><time>2026-05-01T10:17:21.663Z</time></trkpt><trkpt lat="40.9739983" lon="9.3405867"><ele>425.0</ele><time>2026-05-01T10:17:22.663Z</time></trkpt><trkpt lat="40.9739367" lon="9.3404883"><ele>425.0</ele><time>2026-05-01T10:17:23.663Z</time></trkpt><trkpt lat="40.9738667" lon="9.3403883"><ele>425.0</ele><time>2026-05-01T10:17:24.663Z</time></trkpt><trkpt lat="40.9738" lon="9.3403083"><ele>425.0</ele><time>2026-05-01T10:17:25.663Z</time></trkpt><trkpt lat="40.97372" lon="9.3402617"><ele>425.0</ele><time>2026-05-01T10:17:26.663Z</time></trkpt><trkpt lat="40.9736367" lon="9.3402433"><ele>425.0</ele><time>2026-05-01T10:17:27.664Z</time></trkpt><trkpt lat="40.97355" lon="9.3402217"><ele>424.99999999999994</ele><time>2026-05-01T10:17:28.663Z</time></trkpt><trkpt lat="40.97347" lon="9.3401917"><ele>425.0</ele><time>2026-05-01T10:17:29.663Z</time></trkpt><trkpt lat="40.9733883" lon="9.3401567"><ele>425.0</ele><time>2026-05-01T10:17:30.663Z</time></trkpt><trkpt lat="40.9733067" lon="9.34013"><ele>425.0</ele><time>2026-05-01T10:17:31.663Z</time></trkpt><trkpt lat="40.9732183" lon="9.3400967"><ele>424.99999999999994</ele><time>2026-05-01T10:17:32.663Z</time></trkpt><trkpt lat="40.9731283" lon="9.3400733"><ele>425.0</ele><time>2026-05-01T10:17:33.663Z</time></trkpt><trkpt lat="40.9730367" lon="9.3400533"><ele>426.25</ele><time>2026-05-01T10:17:34.663Z</time></trkpt><trkpt lat="40.9729333" lon="9.34004"><ele>427.5</ele><time>2026-05-01T10:17:35.663Z</time></trkpt><trkpt lat="40.9728233" lon="9.3400417"><ele>428.75</ele><time>2026-05-01T10:17:36.663Z</time></trkpt><trkpt lat="40.9727183" lon="9.3400417"><ele>430.0</ele><time>2026-05-01T10:17:37.663Z</time></trkpt><trkpt lat="40.972585" lon="9.3400417"><ele>430.0</ele><time>2026-05-01T10:17:38.663Z</time></trkpt><trkpt lat="40.97245" lon="9.340025"><ele>430.0</ele><time>2026-05-01T10:17:39.663Z</time></trkpt><trkpt lat="40.97232" lon="9.339995"><ele>430.0</ele><time>2026-05-01T10:17:40.663Z</time></trkpt><trkpt lat="40.9721867" lon="9.339965"><ele>430.0</ele><time>2026-05-01T10:17:41.663Z</time></trkpt><trkpt lat="40.972065" lon="9.3398983"><ele>430.0</ele><time>2026-05-01T10:17:42.663Z</time></trkpt><trkpt lat="40.97194" lon="9.3398367"><ele>430.0</ele><time>2026-05-01T10:17:43.663Z</time></trkpt><trkpt lat="40.9718233" lon="9.3397733"><ele>430.0</ele><time>2026-05-01T10:17:44.663Z</time></trkpt><trkpt lat="40.97171" lon="9.3397183"><ele>430.0</ele><time>2026-05-01T10:17:45.663Z</time></trkpt><trkpt lat="40.97161" lon="9.3396867"><ele>428.75</ele><time>2026-05-01T10:17:46.663Z</time></trkpt><trkpt lat="40.9715083" lon="9.3396733"><ele>427.5</ele><time>2026-05-01T10:17:47.663Z</time></trkpt><trkpt lat="40.9714017" lon="9.3396833"><ele>426.25</ele><time>2026-05-01T10:17:48.663Z</time></trkpt><trkpt lat="40.9712817" lon="9.3396767"><ele>425.0</ele><time>2026-05-01T10:17:49.663Z</time></trkpt><trkpt lat="40.9711567" lon="9.339665"><ele>425.0</ele><time>2026-05-01T10:17:50.663Z</time></trkpt><trkpt lat="40.97104" lon="9.339665"><ele>425.0</ele><time>2026-05-01T10:17:51.663Z</time></trkpt><trkpt lat="40.9709" lon="9.3396483"><ele>425.0</ele><time>2026-05-01T10:17:52.663Z</time></trkpt><trkpt lat="40.9707517" lon="9.3396333"><ele>425.0</ele><time>2026-05-01T10:17:53.663Z</time></trkpt><trkpt lat="40.97061" lon="9.3396283"><ele>425.25</ele><time>2026-05-01T10:17:54.663Z</time></trkpt><trkpt lat="40.9704633" lon="9.3396383"><ele>425.5</ele><time>2026-05-01T10:17:55.663Z</time></trkpt><trkpt lat="40.970325" lon="9.3396367"><ele>425.75</ele><time>2026-05-01T10:17:56.663Z</time></trkpt><trkpt lat="40.9701917" lon="9.3396833"><ele>426.0</ele><time>2026-05-01T10:17:57.663Z</time></trkpt><trkpt lat="40.9700883" lon="9.3397617"><ele>427.75</ele><time>2026-05-01T10:17:58.663Z</time></trkpt><trkpt lat="40.9699617" lon="9.339805"><ele>429.5</ele><time>2026-05-01T10:17:59.663Z</time></trkpt><trkpt lat="40.9698467" lon="9.3398267"><ele>431.25</ele><time>2026-05-01T10:18:00.663Z</time></trkpt><trkpt lat="40.9697233" lon="9.3398417"><ele>433.0</ele><time>2026-05-01T10:18:01.663Z</time></trkpt><trkpt lat="40.9696033" lon="9.3398583"><ele>433.0</ele><time>2026-05-01T10:18:02.663Z</time></trkpt><trkpt lat="40.96947" lon="9.3398733"><ele>433.0</ele><time>2026-05-01T10:18:03.663Z</time></trkpt><trkpt lat="40.96933" lon="9.33989"><ele>433.0</ele><time>2026-05-01T10:18:04.663Z</time></trkpt><trkpt lat="40.9691867" lon="9.33992"><ele>433.0</ele><time>2026-05-01T10:18:05.664Z</time></trkpt><trkpt lat="40.9690533" lon="9.33997"><ele>433.4</ele><time>2026-05-01T10:18:06.663Z</time></trkpt><trkpt lat="40.9689367" lon="9.340015"><ele>433.79999999999995</ele><time>2026-05-01T10:18:07.663Z</time></trkpt><trkpt lat="40.9688283" lon="9.3400533"><ele>434.2</ele><time>2026-05-01T10:18:08.663Z</time></trkpt><trkpt lat="40.9687317" lon="9.3400783"><ele>434.6</ele><time>2026-05-01T10:18:09.663Z</time></trkpt><trkpt lat="40.9686333" lon="9.3401067"><ele>435.0</ele><time>2026-05-01T10:18:10.663Z</time></trkpt><trkpt lat="40.9685517" lon="9.3401267"><ele>435.0</ele><time>2026-05-01T10:18:11.663Z</time></trkpt><trkpt lat="40.9684667" lon="9.3401333"><ele>435.0</ele><time>2026-05-01T10:18:12.664Z</time></trkpt><trkpt lat="40.96841" lon="9.3400933"><ele>435.0</ele><time>2026-05-01T10:18:13.663Z</time></trkpt><trkpt lat="40.9683317" lon="9.3400483"><ele>435.0</ele><time>2026-05-01T10:18:14.663Z</time></trkpt><trkpt lat="40.9683083" lon="9.3399617"><ele>435.0</ele><time>2026-05-01T10:18:15.663Z</time></trkpt><trkpt lat="40.9682767" lon="9.339855"><ele>435.0</ele><time>2026-05-01T10:18:16.663Z</time></trkpt><trkpt lat="40.968225" lon="9.33976"><ele>434.6</ele><time>2026-05-01T10:18:17.663Z</time></trkpt><trkpt lat="40.96816" lon="9.33965"><ele>434.2</ele><time>2026-05-01T10:18:18.663Z</time></trkpt><trkpt lat="40.96812" lon="9.33953"><ele>433.79999999999995</ele><time>2026-05-01T10:18:19.663Z</time></trkpt><trkpt lat="40.96805" lon="9.3394183"><ele>433.4</ele><time>2026-05-01T10:18:20.663Z</time></trkpt><trkpt lat="40.9679767" lon="9.3393033"><ele>433.0</ele><time>2026-05-01T10:18:21.663Z</time></trkpt><trkpt lat="40.9679117" lon="9.33919"><ele>433.0</ele><time>2026-05-01T10:18:22.663Z</time></trkpt><trkpt lat="40.9678483" lon="9.339085"><ele>432.99999999999994</ele><time>2026-05-01T10:18:23.663Z</time></trkpt><trkpt lat="40.9677783" lon="9.3389867"><ele>432.99999999999994</ele><time>2026-05-01T10:18:24.663Z</time></trkpt><trkpt lat="40.9677083" lon="9.338885"><ele>433.0</ele><time>2026-05-01T10:18:25.663Z</time></trkpt><trkpt lat="40.9676317" lon="9.3388017"><ele>433.0</ele><time>2026-05-01T10:18:26.663Z</time></trkpt><trkpt lat="40.9675517" lon="9.3387167"><ele>434.4</ele><time>2026-05-01T10:18:27.663Z</time></trkpt><trkpt lat="40.9674717" lon="9.3386583"><ele>435.79999999999995</ele><time>2026-05-01T10:18:28.663Z</time></trkpt><trkpt lat="40.9673917" lon="9.3386283"><ele>437.2</ele><time>2026-05-01T10:18:29.663Z</time></trkpt><trkpt lat="40.9672983" lon="9.3386033"><ele>438.6</ele><time>2026-05-01T10:18:30.663Z</time></trkpt><trkpt lat="40.9672033" lon="9.3385717"><ele>440.0</ele><time>2026-05-01T10:18:31.663Z</time></trkpt><trkpt lat="40.9671033" lon="9.3385383"><ele>440.0</ele><time>2026-05-01T10:18:32.663Z</time></trkpt><trkpt lat="40.9669917" lon="9.3384917"><ele>440.0</ele><time>2026-05-01T10:18:33.663Z</time></trkpt><trkpt lat="40.9668883" lon="9.3384417"><ele>440.0</ele><time>2026-05-01T10:18:34.663Z</time></trkpt><trkpt lat="40.966785" lon="9.3383833"><ele>440.0</ele><time>2026-05-01T10:18:35.663Z</time></trkpt><trkpt lat="40.966685" lon="9.33831"><ele>439.0</ele><time>2026-05-01T10:18:36.663Z</time></trkpt><trkpt lat="40.9665717" lon="9.338215"><ele>438.0</ele><time>2026-05-01T10:18:37.663Z</time></trkpt><trkpt lat="40.9664467" lon="9.3380883"><ele>437.0</ele><time>2026-05-01T10:18:38.664Z</time></trkpt><trkpt lat="40.9663367" lon="9.3380317"><ele>436.0</ele><time>2026-05-01T10:18:39.663Z</time></trkpt><trkpt lat="40.9662483" lon="9.337955"><ele>435.75</ele><time>2026-05-01T10:18:40.663Z</time></trkpt><trkpt lat="40.9661517" lon="9.3378817"><ele>435.5</ele><time>2026-05-01T10:18:41.663Z</time></trkpt><trkpt lat="40.9660533" lon="9.3378117"><ele>435.25</ele><time>2026-05-01T10:18:42.663Z</time></trkpt><trkpt lat="40.96596" lon="9.3377333"><ele>435.0</ele><time>2026-05-01T10:18:43.663Z</time></trkpt><trkpt lat="40.9658583" lon="9.3376583"><ele>435.0</ele><time>2026-05-01T10:18:44.663Z</time></trkpt><trkpt lat="40.9657583" lon="9.3375717"><ele>435.0</ele><time>2026-05-01T10:18:45.663Z</time></trkpt><trkpt lat="40.9656583" lon="9.3374667"><ele>435.0</ele><time>2026-05-01T10:18:46.663Z</time></trkpt><trkpt lat="40.965545" lon="9.33733"><ele>435.0</ele><time>2026-05-01T10:18:47.663Z</time></trkpt><trkpt lat="40.9654367" lon="9.337215"><ele>434.5</ele><time>2026-05-01T10:18:48.663Z</time></trkpt><trkpt lat="40.9653283" lon="9.3370883"><ele>434.0</ele><time>2026-05-01T10:18:49.663Z</time></trkpt><trkpt lat="40.96522" lon="9.33697"><ele>433.5</ele><time>2026-05-01T10:18:50.663Z</time></trkpt><trkpt lat="40.965115" lon="9.336865"><ele>433.0</ele><time>2026-05-01T10:18:51.663Z</time></trkpt><trkpt lat="40.9650233" lon="9.3367583"><ele>433.0</ele><time>2026-05-01T10:18:52.663Z</time></trkpt><trkpt lat="40.9649367" lon="9.3366533"><ele>432.99999999999994</ele><time>2026-05-01T10:18:53.663Z</time></trkpt><trkpt lat="40.964865" lon="9.3365433"><ele>432.99999999999994</ele><time>2026-05-01T10:18:54.663Z</time></trkpt><trkpt lat="40.9647983" lon="9.33645"><ele>433.0</ele><time>2026-05-01T10:18:55.663Z</time></trkpt><trkpt lat="40.9647383" lon="9.336325"><ele>433.0</ele><time>2026-05-01T10:18:56.663Z</time></trkpt><trkpt lat="40.9646867" lon="9.33618"><ele>433.75</ele><time>2026-05-01T10:18:57.663Z</time></trkpt><trkpt lat="40.96466" lon="9.3360117"><ele>434.5</ele><time>2026-05-01T10:18:58.663Z</time></trkpt><trkpt lat="40.9646433" lon="9.335855"><ele>435.25</ele><time>2026-05-01T10:18:59.663Z</time></trkpt><trkpt lat="40.9646567" lon="9.335675"><ele>436.0</ele><time>2026-05-01T10:19:00.663Z</time></trkpt><trkpt lat="40.9646933" lon="9.3355267"><ele>436.00000000000006</ele><time>2026-05-01T10:19:01.663Z</time></trkpt><trkpt lat="40.9646967" lon="9.3354"><ele>436.0</ele><time>2026-05-01T10:19:02.663Z</time></trkpt><trkpt lat="40.9646917" lon="9.3353083"><ele>436.0</ele><time>2026-05-01T10:19:03.663Z</time></trkpt><trkpt lat="40.964615" lon="9.3351867"><ele>436.0</ele><time>2026-05-01T10:19:05.663Z</time></trkpt><trkpt lat="40.9645817" lon="9.3351033"><ele>436.00000000000006</ele><time>2026-05-01T10:19:06.663Z</time></trkpt><trkpt lat="40.9645333" lon="9.3350133"><ele>436.0</ele><time>2026-05-01T10:19:07.663Z</time></trkpt><trkpt lat="40.9644533" lon="9.3349483"><ele>436.0</ele><time>2026-05-01T10:19:08.663Z</time></trkpt><trkpt lat="40.96434" lon="9.3348917"><ele>436.0</ele><time>2026-05-01T10:19:09.664Z</time></trkpt><trkpt lat="40.9642233" lon="9.3348133"><ele>436.0</ele><time>2026-05-01T10:19:10.663Z</time></trkpt><trkpt lat="40.9641283" lon="9.3347333"><ele>436.0</ele><time>2026-05-01T10:19:11.663Z</time></trkpt><trkpt lat="40.9640517" lon="9.3346683"><ele>434.8</ele><time>2026-05-01T10:19:12.663Z</time></trkpt><trkpt lat="40.96398" lon="9.334605"><ele>433.6</ele><time>2026-05-01T10:19:13.663Z</time></trkpt><trkpt lat="40.963895" lon="9.3345717"><ele>432.4</ele><time>2026-05-01T10:19:14.663Z</time></trkpt><trkpt lat="40.9638083" lon="9.33458"><ele>431.2</ele><time>2026-05-01T10:19:15.663Z</time></trkpt><trkpt lat="40.9637033" lon="9.334605"><ele>430.0</ele><time>2026-05-01T10:19:16.663Z</time></trkpt><trkpt lat="40.963615" lon="9.33462"><ele>430.0</ele><time>2026-05-01T10:19:17.663Z</time></trkpt><trkpt lat="40.9635133" lon="9.3346383"><ele>430.0</ele><time>2026-05-01T10:19:18.663Z</time></trkpt><trkpt lat="40.9634117" lon="9.3346117"><ele>430.0</ele><time>2026-05-01T10:19:19.663Z</time></trkpt><trkpt lat="40.9632967" lon="9.3345767"><ele>430.0</ele><time>2026-05-01T10:19:20.663Z</time></trkpt><trkpt lat="40.9631833" lon="9.33452"><ele>430.0</ele><time>2026-05-01T10:19:21.663Z</time></trkpt><trkpt lat="40.9630717" lon="9.3344667"><ele>430.0</ele><time>2026-05-01T10:19:22.663Z</time></trkpt><trkpt lat="40.9629717" lon="9.3344117"><ele>430.0</ele><time>2026-05-01T10:19:23.663Z</time></trkpt><trkpt lat="40.962875" lon="9.3343567"><ele>430.0</ele><time>2026-05-01T10:19:24.663Z</time></trkpt><trkpt lat="40.96278" lon="9.3342933"><ele>430.0</ele><time>2026-05-01T10:19:25.663Z</time></trkpt><trkpt lat="40.9626817" lon="9.3342233"><ele>430.0</ele><time>2026-05-01T10:19:26.663Z</time></trkpt><trkpt lat="40.9625883" lon="9.3340767"><ele>430.5</ele><time>2026-05-01T10:19:27.663Z</time></trkpt><trkpt lat="40.962495" lon="9.333985"><ele>431.0</ele><time>2026-05-01T10:19:28.663Z</time></trkpt><trkpt lat="40.962415" lon="9.3338967"><ele>431.5</ele><time>2026-05-01T10:19:29.663Z</time></trkpt><trkpt lat="40.9623283" lon="9.333765"><ele>432.0</ele><time>2026-05-01T10:19:30.663Z</time></trkpt><trkpt lat="40.9622583" lon="9.3336633"><ele>432.0</ele><time>2026-05-01T10:19:31.663Z</time></trkpt><trkpt lat="40.9622017" lon="9.33356"><ele>432.00000000000006</ele><time>2026-05-01T10:19:32.662Z</time></trkpt><trkpt lat="40.9621483" lon="9.3334417"><ele>432.00000000000006</ele><time>2026-05-01T10:19:33.662Z</time></trkpt><trkpt lat="40.9620917" lon="9.3333217"><ele>432.0</ele><time>2026-05-01T10:19:34.662Z</time></trkpt><trkpt lat="40.9620317" lon="9.3332033"><ele>432.0</ele><time>2026-05-01T10:19:35.662Z</time></trkpt><trkpt lat="40.961955" lon="9.3330867"><ele>432.75</ele><time>2026-05-01T10:19:36.662Z</time></trkpt><trkpt lat="40.9618733" lon="9.3329683"><ele>433.5</ele><time>2026-05-01T10:19:37.662Z</time></trkpt><trkpt lat="40.9618" lon="9.3328433"><ele>434.25</ele><time>2026-05-01T10:19:38.662Z</time></trkpt><trkpt lat="40.9617117" lon="9.3327367"><ele>435.0</ele><time>2026-05-01T10:19:39.662Z</time></trkpt><trkpt lat="40.96162" lon="9.3326283"><ele>431.5</ele><time>2026-05-01T10:19:40.662Z</time></trkpt><trkpt lat="40.96153" lon="9.3325033"><ele>428.0</ele><time>2026-05-01T10:19:41.662Z</time></trkpt><trkpt lat="40.9614467" lon="9.3323517"><ele>424.5</ele><time>2026-05-01T10:19:42.662Z</time></trkpt><trkpt lat="40.9613517" lon="9.3322233"><ele>421.0</ele><time>2026-05-01T10:19:43.662Z</time></trkpt><trkpt lat="40.96123" lon="9.3320433"><ele>421.0</ele><time>2026-05-01T10:19:44.662Z</time></trkpt><trkpt lat="40.96114" lon="9.331945"><ele>421.0</ele><time>2026-05-01T10:19:45.662Z</time></trkpt><trkpt lat="40.9610567" lon="9.33183"><ele>421.0</ele><time>2026-05-01T10:19:46.662Z</time></trkpt><trkpt lat="40.9609817" lon="9.3317017"><ele>421.0</ele><time>2026-05-01T10:19:47.662Z</time></trkpt><trkpt lat="40.960905" lon="9.331565"><ele>416.25</ele><time>2026-05-01T10:19:48.662Z</time></trkpt><trkpt lat="40.960835" lon="9.3314183"><ele>411.5</ele><time>2026-05-01T10:19:49.662Z</time></trkpt><trkpt lat="40.9607633" lon="9.3312767"><ele>406.75</ele><time>2026-05-01T10:19:50.662Z</time></trkpt><trkpt lat="40.96069" lon="9.3311467"><ele>402.0</ele><time>2026-05-01T10:19:51.662Z</time></trkpt><trkpt lat="40.960615" lon="9.33103"><ele>401.5</ele><time>2026-05-01T10:19:52.662Z</time></trkpt><trkpt lat="40.9605133" lon="9.3308817"><ele>401.0</ele><time>2026-05-01T10:19:53.662Z</time></trkpt><trkpt lat="40.9604483" lon="9.33077"><ele>400.5</ele><time>2026-05-01T10:19:54.662Z</time></trkpt><trkpt lat="40.9603883" lon="9.3306483"><ele>400.0</ele><time>2026-05-01T10:19:55.662Z</time></trkpt><trkpt lat="40.960325" lon="9.3305467"><ele>398.8</ele><time>2026-05-01T10:19:56.662Z</time></trkpt><trkpt lat="40.960265" lon="9.3304583"><ele>397.6</ele><time>2026-05-01T10:19:57.662Z</time></trkpt><trkpt lat="40.9602" lon="9.3303917"><ele>396.4</ele><time>2026-05-01T10:19:58.662Z</time></trkpt><trkpt lat="40.9601217" lon="9.3303267"><ele>395.2</ele><time>2026-05-01T10:19:59.662Z</time></trkpt><trkpt lat="40.9600383" lon="9.3302733"><ele>394.0</ele><time>2026-05-01T10:20:00.662Z</time></trkpt><trkpt lat="40.9599333" lon="9.33022"><ele>397.25</ele><time>2026-05-01T10:20:01.662Z</time></trkpt><trkpt lat="40.9598217" lon="9.3301833"><ele>400.5</ele><time>2026-05-01T10:20:02.663Z</time></trkpt><trkpt lat="40.959695" lon="9.3301817"><ele>403.75</ele><time>2026-05-01T10:20:03.662Z</time></trkpt><trkpt lat="40.95956" lon="9.3302"><ele>407.0</ele><time>2026-05-01T10:20:04.662Z</time></trkpt><trkpt lat="40.9594417" lon="9.3302267"><ele>407.0</ele><time>2026-05-01T10:20:05.662Z</time></trkpt><trkpt lat="40.9593183" lon="9.33027"><ele>407.0</ele><time>2026-05-01T10:20:06.662Z</time></trkpt><trkpt lat="40.9592183" lon="9.3302967"><ele>407.0</ele><time>2026-05-01T10:20:07.662Z</time></trkpt><trkpt lat="40.9591183" lon="9.3302917"><ele>407.0</ele><time>2026-05-01T10:20:08.662Z</time></trkpt><trkpt lat="40.9590183" lon="9.3302933"><ele>407.0</ele><time>2026-05-01T10:20:09.662Z</time></trkpt><trkpt lat="40.9589017" lon="9.3303233"><ele>406.0</ele><time>2026-05-01T10:20:10.662Z</time></trkpt><trkpt lat="40.9587983" lon="9.3303267"><ele>405.0</ele><time>2026-05-01T10:20:11.662Z</time></trkpt><trkpt lat="40.958705" lon="9.3303117"><ele>404.0</ele><time>2026-05-01T10:20:12.662Z</time></trkpt><trkpt lat="40.9586067" lon="9.3303017"><ele>403.0</ele><time>2026-05-01T10:20:13.662Z</time></trkpt><trkpt lat="40.9585067" lon="9.3302583"><ele>402.0</ele><time>2026-05-01T10:20:14.662Z</time></trkpt><trkpt lat="40.958405" lon="9.3301767"><ele>399.75</ele><time>2026-05-01T10:20:15.662Z</time></trkpt><trkpt lat="40.9583033" lon="9.33007"><ele>397.5</ele><time>2026-05-01T10:20:16.662Z</time></trkpt><trkpt lat="40.9581883" lon="9.3299783"><ele>395.25</ele><time>2026-05-01T10:20:17.662Z</time></trkpt><trkpt lat="40.9580883" lon="9.3298617"><ele>393.0</ele><time>2026-05-01T10:20:18.662Z</time></trkpt><trkpt lat="40.95798" lon="9.3297333"><ele>393.5</ele><time>2026-05-01T10:20:19.662Z</time></trkpt><trkpt lat="40.957895" lon="9.3295967"><ele>394.0</ele><time>2026-05-01T10:20:20.662Z</time></trkpt><trkpt lat="40.9578217" lon="9.3294567"><ele>394.5</ele><time>2026-05-01T10:20:21.662Z</time></trkpt><trkpt lat="40.95776" lon="9.3292967"><ele>395.0</ele><time>2026-05-01T10:20:22.662Z</time></trkpt><trkpt lat="40.9576833" lon="9.32914"><ele>395.0</ele><time>2026-05-01T10:20:23.662Z</time></trkpt><trkpt lat="40.9576283" lon="9.3289683"><ele>395.0</ele><time>2026-05-01T10:20:24.662Z</time></trkpt><trkpt lat="40.9575917" lon="9.3288"><ele>395.0</ele><time>2026-05-01T10:20:25.662Z</time></trkpt><trkpt lat="40.95758" lon="9.3286167"><ele>395.0</ele><time>2026-05-01T10:20:26.662Z</time></trkpt><trkpt lat="40.957555" lon="9.328435"><ele>396.0</ele><time>2026-05-01T10:20:27.662Z</time></trkpt><trkpt lat="40.9575633" lon="9.3282133"><ele>397.0</ele><time>2026-05-01T10:20:28.662Z</time></trkpt><trkpt lat="40.9575683" lon="9.3280317"><ele>398.0</ele><time>2026-05-01T10:20:29.662Z</time></trkpt><trkpt lat="40.9575633" lon="9.327865"><ele>399.0</ele><time>2026-05-01T10:20:30.662Z</time></trkpt><trkpt lat="40.957565" lon="9.3277133"><ele>399.2</ele><time>2026-05-01T10:20:31.662Z</time></trkpt><trkpt lat="40.95757" lon="9.32754"><ele>399.4</ele><time>2026-05-01T10:20:32.662Z</time></trkpt><trkpt lat="40.9575617" lon="9.3274267"><ele>399.6</ele><time>2026-05-01T10:20:33.662Z</time></trkpt><trkpt lat="40.9575483" lon="9.32731"><ele>399.8</ele><time>2026-05-01T10:20:34.662Z</time></trkpt><trkpt lat="40.9575083" lon="9.3271867"><ele>400.0</ele><time>2026-05-01T10:20:35.662Z</time></trkpt><trkpt lat="40.9574" lon="9.3271133"><ele>396.0</ele><time>2026-05-01T10:20:36.662Z</time></trkpt><trkpt lat="40.9573367" lon="9.3270167"><ele>392.0</ele><time>2026-05-01T10:20:37.662Z</time></trkpt><trkpt lat="40.9572833" lon="9.3268967"><ele>388.0</ele><time>2026-05-01T10:20:38.662Z</time></trkpt><trkpt lat="40.957235" lon="9.326755"><ele>384.0</ele><time>2026-05-01T10:20:39.662Z</time></trkpt><trkpt lat="40.9571933" lon="9.3266167"><ele>380.0</ele><time>2026-05-01T10:20:40.662Z</time></trkpt><trkpt lat="40.9571367" lon="9.3264783"><ele>379.5</ele><time>2026-05-01T10:20:41.662Z</time></trkpt><trkpt lat="40.9570667" lon="9.3263417"><ele>379.0</ele><time>2026-05-01T10:20:42.662Z</time></trkpt><trkpt lat="40.9569367" lon="9.3261833"><ele>378.5</ele><time>2026-05-01T10:20:43.662Z</time></trkpt><trkpt lat="40.95685" lon="9.32603"><ele>378.0</ele><time>2026-05-01T10:20:44.662Z</time></trkpt><trkpt lat="40.9567867" lon="9.3258967"><ele>378.0</ele><time>2026-05-01T10:20:45.662Z</time></trkpt><trkpt lat="40.9567067" lon="9.3257583"><ele>378.0</ele><time>2026-05-01T10:20:46.662Z</time></trkpt><trkpt lat="40.9566217" lon="9.3256283"><ele>378.0</ele><time>2026-05-01T10:20:47.662Z</time></trkpt><trkpt lat="40.9565533" lon="9.3254783"><ele>378.0</ele><time>2026-05-01T10:20:48.662Z</time></trkpt><trkpt lat="40.95648" lon="9.3253367"><ele>377.75</ele><time>2026-05-01T10:20:49.662Z</time></trkpt><trkpt lat="40.9564067" lon="9.3251817"><ele>377.5</ele><time>2026-05-01T10:20:50.662Z</time></trkpt><trkpt lat="40.956345" lon="9.3250317"><ele>377.25</ele><time>2026-05-01T10:20:51.662Z</time></trkpt><trkpt lat="40.9562917" lon="9.3248867"><ele>377.0</ele><time>2026-05-01T10:20:52.662Z</time></trkpt><trkpt lat="40.9562517" lon="9.324755"><ele>378.20000000000005</ele><time>2026-05-01T10:20:53.662Z</time></trkpt><trkpt lat="40.9562183" lon="9.32464"><ele>379.4</ele><time>2026-05-01T10:20:54.662Z</time></trkpt><trkpt lat="40.9561667" lon="9.3245367"><ele>380.6</ele><time>2026-05-01T10:20:55.662Z</time></trkpt><trkpt lat="40.9561233" lon="9.324425"><ele>381.79999999999995</ele><time>2026-05-01T10:20:56.662Z</time></trkpt><trkpt lat="40.9560667" lon="9.3243117"><ele>383.0</ele><time>2026-05-01T10:20:57.662Z</time></trkpt><trkpt lat="40.9560033" lon="9.3241983"><ele>383.0</ele><time>2026-05-01T10:20:58.662Z</time></trkpt><trkpt lat="40.9559267" lon="9.3240933"><ele>383.0</ele><time>2026-05-01T10:20:59.662Z</time></trkpt><trkpt lat="40.9558433" lon="9.3239917"><ele>383.0</ele><time>2026-05-01T10:21:00.662Z</time></trkpt><trkpt lat="40.9557583" lon="9.3238967"><ele>383.0</ele><time>2026-05-01T10:21:01.662Z</time></trkpt><trkpt lat="40.9556667" lon="9.3238017"><ele>380.75</ele><time>2026-05-01T10:21:02.662Z</time></trkpt><trkpt lat="40.9555783" lon="9.3236883"><ele>378.5</ele><time>2026-05-01T10:21:03.662Z</time></trkpt><trkpt lat="40.9554683" lon="9.3235683"><ele>376.25</ele><time>2026-05-01T10:21:04.662Z</time></trkpt><trkpt lat="40.9553767" lon="9.3234417"><ele>374.0</ele><time>2026-05-01T10:21:05.662Z</time></trkpt><trkpt lat="40.9552917" lon="9.3233133"><ele>374.0</ele><time>2026-05-01T10:21:06.662Z</time></trkpt><trkpt lat="40.9552033" lon="9.32318"><ele>374.0</ele><time>2026-05-01T10:21:07.662Z</time></trkpt><trkpt lat="40.9551" lon="9.3230567"><ele>374.0</ele><time>2026-05-01T10:21:08.662Z</time></trkpt><trkpt lat="40.9549933" lon="9.3229533"><ele>374.0</ele><time>2026-05-01T10:21:09.662Z</time></trkpt><trkpt lat="40.954885" lon="9.3228667"><ele>372.6</ele><time>2026-05-01T10:21:10.662Z</time></trkpt><trkpt lat="40.954795" lon="9.3227783"><ele>371.2</ele><time>2026-05-01T10:21:11.662Z</time></trkpt><trkpt lat="40.954705" lon="9.3226867"><ele>369.8</ele><time>2026-05-01T10:21:12.662Z</time></trkpt><trkpt lat="40.9546083" lon="9.322605"><ele>368.40000000000003</ele><time>2026-05-01T10:21:13.662Z</time></trkpt><trkpt lat="40.9545333" lon="9.3225"><ele>367.0</ele><time>2026-05-01T10:21:14.662Z</time></trkpt><trkpt lat="40.9544633" lon="9.3224117"><ele>367.0</ele><time>2026-05-01T10:21:15.662Z</time></trkpt><trkpt lat="40.954395" lon="9.3223167"><ele>367.0</ele><time>2026-05-01T10:21:16.662Z</time></trkpt><trkpt lat="40.9543183" lon="9.3222567"><ele>367.0</ele><time>2026-05-01T10:21:17.662Z</time></trkpt><trkpt lat="40.9542367" lon="9.3222033"><ele>367.0</ele><time>2026-05-01T10:21:18.662Z</time></trkpt><trkpt lat="40.954145" lon="9.322155"><ele>367.0</ele><time>2026-05-01T10:21:19.662Z</time></trkpt><trkpt lat="40.9540117" lon="9.32214"><ele>366.0</ele><time>2026-05-01T10:21:20.662Z</time></trkpt><trkpt lat="40.9539033" lon="9.3221067"><ele>365.0</ele><time>2026-05-01T10:21:21.662Z</time></trkpt><trkpt lat="40.9537883" lon="9.3220683"><ele>364.0</ele><time>2026-05-01T10:21:22.663Z</time></trkpt><trkpt lat="40.9536583" lon="9.3220233"><ele>363.0</ele><time>2026-05-01T10:21:23.662Z</time></trkpt><trkpt lat="40.9535383" lon="9.3219633"><ele>363.0</ele><time>2026-05-01T10:21:24.662Z</time></trkpt><trkpt lat="40.9534283" lon="9.3218833"><ele>363.0</ele><time>2026-05-01T10:21:25.662Z</time></trkpt><trkpt lat="40.9533283" lon="9.3217967"><ele>363.0</ele><time>2026-05-01T10:21:26.662Z</time></trkpt><trkpt lat="40.953235" lon="9.3217033"><ele>363.0</ele><time>2026-05-01T10:21:27.662Z</time></trkpt><trkpt lat="40.9531467" lon="9.3215933"><ele>360.25</ele><time>2026-05-01T10:21:28.662Z</time></trkpt><trkpt lat="40.9530717" lon="9.321465"><ele>357.5</ele><time>2026-05-01T10:21:29.662Z</time></trkpt><trkpt lat="40.9530117" lon="9.321305"><ele>354.75</ele><time>2026-05-01T10:21:30.662Z</time></trkpt><trkpt lat="40.95295" lon="9.32112"><ele>352.0</ele><time>2026-05-01T10:21:31.662Z</time></trkpt><trkpt lat="40.9529067" lon="9.3209267"><ele>352.0</ele><time>2026-05-01T10:21:32.662Z</time></trkpt><trkpt lat="40.9528767" lon="9.320765"><ele>352.0</ele><time>2026-05-01T10:21:33.662Z</time></trkpt><trkpt lat="40.952815" lon="9.3206717"><ele>352.0</ele><time>2026-05-01T10:21:34.662Z</time></trkpt><trkpt lat="40.952755" lon="9.3205167"><ele>352.0</ele><time>2026-05-01T10:21:35.662Z</time></trkpt><trkpt lat="40.95272" lon="9.320355"><ele>352.25</ele><time>2026-05-01T10:21:36.662Z</time></trkpt><trkpt lat="40.95267" lon="9.320215"><ele>352.5</ele><time>2026-05-01T10:21:37.662Z</time></trkpt><trkpt lat="40.95264" lon="9.3200717"><ele>352.75</ele><time>2026-05-01T10:21:38.662Z</time></trkpt><trkpt lat="40.95263" lon="9.3199117"><ele>353.0</ele><time>2026-05-01T10:21:39.662Z</time></trkpt><trkpt lat="40.9526283" lon="9.31973"><ele>353.0</ele><time>2026-05-01T10:21:40.662Z</time></trkpt><trkpt lat="40.9526667" lon="9.3195483"><ele>353.0</ele><time>2026-05-01T10:21:41.662Z</time></trkpt><trkpt lat="40.952725" lon="9.3193383"><ele>353.0</ele><time>2026-05-01T10:21:42.662Z</time></trkpt><trkpt lat="40.95274" lon="9.3191733"><ele>353.0</ele><time>2026-05-01T10:21:43.662Z</time></trkpt><trkpt lat="40.9527833" lon="9.3189933"><ele>352.25</ele><time>2026-05-01T10:21:44.662Z</time></trkpt><trkpt lat="40.9528483" lon="9.3188333"><ele>351.5</ele><time>2026-05-01T10:21:45.662Z</time></trkpt><trkpt lat="40.952885" lon="9.3186883"><ele>350.75</ele><time>2026-05-01T10:21:46.662Z</time></trkpt><trkpt lat="40.952925" lon="9.31852"><ele>350.0</ele><time>2026-05-01T10:21:47.662Z</time></trkpt><trkpt lat="40.95295" lon="9.3183517"><ele>350.0</ele><time>2026-05-01T10:21:48.662Z</time></trkpt><trkpt lat="40.9529317" lon="9.3181933"><ele>350.0</ele><time>2026-05-01T10:21:49.662Z</time></trkpt><trkpt lat="40.952905" lon="9.3180517"><ele>350.0</ele><time>2026-05-01T10:21:50.662Z</time></trkpt><trkpt lat="40.9528783" lon="9.3179183"><ele>350.0</ele><time>2026-05-01T10:21:51.662Z</time></trkpt><trkpt lat="40.9528083" lon="9.3178017"><ele>350.0</ele><time>2026-05-01T10:21:52.662Z</time></trkpt><trkpt lat="40.9527383" lon="9.3176867"><ele>348.75</ele><time>2026-05-01T10:21:53.662Z</time></trkpt><trkpt lat="40.9526283" lon="9.3175767"><ele>347.5</ele><time>2026-05-01T10:21:54.662Z</time></trkpt><trkpt lat="40.952525" lon="9.3174617"><ele>346.25</ele><time>2026-05-01T10:21:55.662Z</time></trkpt><trkpt lat="40.952425" lon="9.3173467"><ele>345.0</ele><time>2026-05-01T10:21:56.662Z</time></trkpt><trkpt lat="40.9523133" lon="9.3172367"><ele>344.2</ele><time>2026-05-01T10:21:57.662Z</time></trkpt><trkpt lat="40.9522367" lon="9.3171317"><ele>343.4</ele><time>2026-05-01T10:21:58.662Z</time></trkpt><trkpt lat="40.9521517" lon="9.3170317"><ele>342.6</ele><time>2026-05-01T10:21:59.662Z</time></trkpt><trkpt lat="40.9520733" lon="9.3169283"><ele>341.8</ele><time>2026-05-01T10:22:00.662Z</time></trkpt><trkpt lat="40.95201" lon="9.3168167"><ele>341.0</ele><time>2026-05-01T10:22:01.662Z</time></trkpt><trkpt lat="40.9519517" lon="9.3166883"><ele>341.0</ele><time>2026-05-01T10:22:02.662Z</time></trkpt><trkpt lat="40.95187" lon="9.3165717"><ele>341.0</ele><time>2026-05-01T10:22:03.662Z</time></trkpt><trkpt lat="40.9518267" lon="9.3164233"><ele>341.0</ele><time>2026-05-01T10:22:04.662Z</time></trkpt><trkpt lat="40.9517783" lon="9.3162983"><ele>341.0</ele><time>2026-05-01T10:22:05.662Z</time></trkpt><trkpt lat="40.95172" lon="9.316155"><ele>340.6666666666667</ele><time>2026-05-01T10:22:06.662Z</time></trkpt><trkpt lat="40.9516617" lon="9.3159967"><ele>340.3333333333333</ele><time>2026-05-01T10:22:07.662Z</time></trkpt><trkpt lat="40.95161" lon="9.3158183"><ele>340.0</ele><time>2026-05-01T10:22:08.662Z</time></trkpt><trkpt lat="40.9515633" lon="9.3155817"><ele>340.3333333333333</ele><time>2026-05-01T10:22:09.662Z</time></trkpt><trkpt lat="40.9515283" lon="9.31533"><ele>340.6666666666667</ele><time>2026-05-01T10:22:10.662Z</time></trkpt><trkpt lat="40.9514933" lon="9.3150817"><ele>341.0</ele><time>2026-05-01T10:22:11.662Z</time></trkpt><trkpt lat="40.9514567" lon="9.3148267"><ele>340.0</ele><time>2026-05-01T10:22:12.662Z</time></trkpt><trkpt lat="40.95141" lon="9.314615"><ele>339.0</ele><time>2026-05-01T10:22:13.662Z</time></trkpt><trkpt lat="40.9514067" lon="9.3143483"><ele>338.0</ele><time>2026-05-01T10:22:14.662Z</time></trkpt><trkpt lat="40.951375" lon="9.31415"><ele>338.0</ele><time>2026-05-01T10:22:15.663Z</time></trkpt><trkpt lat="40.95134" lon="9.3139433"><ele>338.0</ele><time>2026-05-01T10:22:16.662Z</time></trkpt><trkpt lat="40.9512683" lon="9.313745"><ele>338.0</ele><time>2026-05-01T10:22:17.662Z</time></trkpt><trkpt lat="40.95125" lon="9.31356"><ele>338.0</ele><time>2026-05-01T10:22:18.663Z</time></trkpt><trkpt lat="40.9512483" lon="9.31338"><ele>338.0</ele><time>2026-05-01T10:22:19.662Z</time></trkpt><trkpt lat="40.9512367" lon="9.3132017"><ele>338.0</ele><time>2026-05-01T10:22:20.662Z</time></trkpt><trkpt lat="40.9512333" lon="9.3130233"><ele>338.0</ele><time>2026-05-01T10:22:21.662Z</time></trkpt><trkpt lat="40.9512333" lon="9.31285"><ele>338.0</ele><time>2026-05-01T10:22:22.662Z</time></trkpt><trkpt lat="40.9512317" lon="9.3126833"><ele>338.0</ele><time>2026-05-01T10:22:23.662Z</time></trkpt><trkpt lat="40.9512233" lon="9.312525"><ele>338.0</ele><time>2026-05-01T10:22:24.662Z</time></trkpt><trkpt lat="40.951215" lon="9.312395"><ele>338.0</ele><time>2026-05-01T10:22:25.662Z</time></trkpt><trkpt lat="40.951205" lon="9.312255"><ele>338.4</ele><time>2026-05-01T10:22:26.662Z</time></trkpt><trkpt lat="40.9511917" lon="9.3121233"><ele>338.79999999999995</ele><time>2026-05-01T10:22:27.662Z</time></trkpt><trkpt lat="40.9511767" lon="9.3120083"><ele>339.2</ele><time>2026-05-01T10:22:28.663Z</time></trkpt><trkpt lat="40.9511683" lon="9.3119117"><ele>339.6</ele><time>2026-05-01T10:22:29.662Z</time></trkpt><trkpt lat="40.95115" lon="9.311815"><ele>340.0</ele><time>2026-05-01T10:22:30.662Z</time></trkpt><trkpt lat="40.9512617" lon="9.3118633"><ele>340.0</ele><time>2026-05-01T10:22:39.662Z</time></trkpt><trkpt lat="40.95117" lon="9.311865"><ele>340.0</ele><time>2026-05-01T10:22:53.662Z</time></trkpt><trkpt lat="40.951155" lon="9.3117583"><ele>340.0</ele><time>2026-05-01T10:23:10.662Z</time></trkpt><trkpt lat="40.9511683" lon="9.3116417"><ele>340.0</ele><time>2026-05-01T10:23:12.662Z</time></trkpt><trkpt lat="40.9512633" lon="9.31144"><ele>340.0</ele><time>2026-05-01T10:23:14.662Z</time></trkpt><trkpt lat="40.9513367" lon="9.3112817"><ele>340.4</ele><time>2026-05-01T10:23:15.662Z</time></trkpt><trkpt lat="40.95138" lon="9.3111333"><ele>340.8</ele><time>2026-05-01T10:23:16.662Z</time></trkpt><trkpt lat="40.9514167" lon="9.31101"><ele>341.20000000000005</ele><time>2026-05-01T10:23:17.662Z</time></trkpt><trkpt lat="40.951455" lon="9.31089"><ele>341.6</ele><time>2026-05-01T10:23:18.662Z</time></trkpt><trkpt lat="40.9514983" lon="9.3107583"><ele>342.0</ele><time>2026-05-01T10:23:19.662Z</time></trkpt><trkpt lat="40.9515367" lon="9.3106267"><ele>342.0</ele><time>2026-05-01T10:23:20.662Z</time></trkpt><trkpt lat="40.9515767" lon="9.3104917"><ele>342.0</ele><time>2026-05-01T10:23:21.662Z</time></trkpt><trkpt lat="40.951615" lon="9.3103533"><ele>342.0</ele><time>2026-05-01T10:23:22.662Z</time></trkpt><trkpt lat="40.9516517" lon="9.31021"><ele>342.0</ele><time>2026-05-01T10:23:23.662Z</time></trkpt><trkpt lat="40.95169" lon="9.310065"><ele>343.0</ele><time>2026-05-01T10:23:24.662Z</time></trkpt><trkpt lat="40.9517317" lon="9.3099167"><ele>344.0</ele><time>2026-05-01T10:23:25.662Z</time></trkpt><trkpt lat="40.9517683" lon="9.309765"><ele>345.0</ele><time>2026-05-01T10:23:26.662Z</time></trkpt><trkpt lat="40.951815" lon="9.3096033"><ele>346.0</ele><time>2026-05-01T10:23:27.662Z</time></trkpt><trkpt lat="40.9518533" lon="9.3094483"><ele>346.0</ele><time>2026-05-01T10:23:28.662Z</time></trkpt><trkpt lat="40.9518917" lon="9.3092983"><ele>346.0</ele><time>2026-05-01T10:23:29.662Z</time></trkpt><trkpt lat="40.95192" lon="9.30917"><ele>346.0</ele><time>2026-05-01T10:23:30.662Z</time></trkpt><trkpt lat="40.9519533" lon="9.3090417"><ele>346.0</ele><time>2026-05-01T10:23:31.662Z</time></trkpt><trkpt lat="40.9519983" lon="9.308915"><ele>346.0</ele><time>2026-05-01T10:23:32.662Z</time></trkpt><trkpt lat="40.95205" lon="9.3087967"><ele>346.0</ele><time>2026-05-01T10:23:33.662Z</time></trkpt><trkpt lat="40.9521067" lon="9.3086833"><ele>346.0</ele><time>2026-05-01T10:23:34.662Z</time></trkpt><trkpt lat="40.9521533" lon="9.3085783"><ele>346.0</ele><time>2026-05-01T10:23:35.662Z</time></trkpt><trkpt lat="40.9521917" lon="9.30846"><ele>346.0</ele><time>2026-05-01T10:23:36.662Z</time></trkpt><trkpt lat="40.9522217" lon="9.3083333"><ele>346.0</ele><time>2026-05-01T10:23:37.662Z</time></trkpt><trkpt lat="40.9522467" lon="9.3082083"><ele>346.0</ele><time>2026-05-01T10:23:38.662Z</time></trkpt><trkpt lat="40.9522667" lon="9.3080833"><ele>346.0</ele><time>2026-05-01T10:23:39.662Z</time></trkpt><trkpt lat="40.952295" lon="9.3079533"><ele>346.0</ele><time>2026-05-01T10:23:40.662Z</time></trkpt><trkpt lat="40.9523433" lon="9.3078117"><ele>346.0</ele><time>2026-05-01T10:23:41.662Z</time></trkpt><trkpt lat="40.952385" lon="9.3076683"><ele>346.0</ele><time>2026-05-01T10:23:42.662Z</time></trkpt><trkpt lat="40.9524267" lon="9.30751"><ele>345.25</ele><time>2026-05-01T10:23:43.662Z</time></trkpt><trkpt lat="40.9524783" lon="9.3073567"><ele>344.5</ele><time>2026-05-01T10:23:44.662Z</time></trkpt><trkpt lat="40.9525367" lon="9.307205"><ele>343.75</ele><time>2026-05-01T10:23:45.662Z</time></trkpt><trkpt lat="40.9525933" lon="9.30705"><ele>343.0</ele><time>2026-05-01T10:23:46.662Z</time></trkpt><trkpt lat="40.9526617" lon="9.30689"><ele>341.75</ele><time>2026-05-01T10:23:47.662Z</time></trkpt><trkpt lat="40.9527283" lon="9.30673"><ele>340.5</ele><time>2026-05-01T10:23:48.662Z</time></trkpt><trkpt lat="40.9528017" lon="9.3065683"><ele>339.25</ele><time>2026-05-01T10:23:49.662Z</time></trkpt><trkpt lat="40.9528733" lon="9.306405"><ele>338.0</ele><time>2026-05-01T10:23:50.662Z</time></trkpt><trkpt lat="40.9529533" lon="9.3062483"><ele>337.75</ele><time>2026-05-01T10:23:51.662Z</time></trkpt><trkpt lat="40.953035" lon="9.306095"><ele>337.5</ele><time>2026-05-01T10:23:52.662Z</time></trkpt><trkpt lat="40.9531067" lon="9.3059417"><ele>337.25</ele><time>2026-05-01T10:23:53.662Z</time></trkpt><trkpt lat="40.9531867" lon="9.305785"><ele>337.0</ele><time>2026-05-01T10:23:54.662Z</time></trkpt><trkpt lat="40.9532783" lon="9.3056317"><ele>332.66666666666663</ele><time>2026-05-01T10:23:55.662Z</time></trkpt><trkpt lat="40.9533783" lon="9.3054783"><ele>328.3333333333333</ele><time>2026-05-01T10:23:56.662Z</time></trkpt><trkpt lat="40.953485" lon="9.30532"><ele>324.0</ele><time>2026-05-01T10:23:57.662Z</time></trkpt><trkpt lat="40.9536283" lon="9.3051767"><ele>324.0</ele><time>2026-05-01T10:23:58.662Z</time></trkpt><trkpt lat="40.95374" lon="9.3050283"><ele>324.0</ele><time>2026-05-01T10:23:59.662Z</time></trkpt><trkpt lat="40.9538517" lon="9.3048733"><ele>324.0</ele><time>2026-05-01T10:24:00.662Z</time></trkpt><trkpt lat="40.9539583" lon="9.30472"><ele>323.6666666666667</ele><time>2026-05-01T10:24:01.662Z</time></trkpt><trkpt lat="40.954065" lon="9.3045633"><ele>323.33333333333337</ele><time>2026-05-01T10:24:02.662Z</time></trkpt><trkpt lat="40.9541867" lon="9.3044117"><ele>323.0</ele><time>2026-05-01T10:24:03.662Z</time></trkpt><trkpt lat="40.95432" lon="9.3042633"><ele>323.0</ele><time>2026-05-01T10:24:04.662Z</time></trkpt><trkpt lat="40.95444" lon="9.3040933"><ele>323.0</ele><time>2026-05-01T10:24:05.662Z</time></trkpt><trkpt lat="40.9545717" lon="9.3039417"><ele>323.0</ele><time>2026-05-01T10:24:06.662Z</time></trkpt><trkpt lat="40.9546967" lon="9.3038083"><ele>323.0</ele><time>2026-05-01T10:24:07.662Z</time></trkpt><trkpt lat="40.9548167" lon="9.303685"><ele>323.0</ele><time>2026-05-01T10:24:08.662Z</time></trkpt><trkpt lat="40.9549433" lon="9.30356"><ele>323.0</ele><time>2026-05-01T10:24:09.662Z</time></trkpt><trkpt lat="40.9550583" lon="9.303435"><ele>323.0</ele><time>2026-05-01T10:24:10.662Z</time></trkpt><trkpt lat="40.95517" lon="9.3033133"><ele>323.0</ele><time>2026-05-01T10:24:11.662Z</time></trkpt><trkpt lat="40.9552767" lon="9.3031983"><ele>323.0</ele><time>2026-05-01T10:24:12.663Z</time></trkpt><trkpt lat="40.9553767" lon="9.30309"><ele>323.0</ele><time>2026-05-01T10:24:13.662Z</time></trkpt><trkpt lat="40.9554733" lon="9.3029883"><ele>322.5</ele><time>2026-05-01T10:24:14.662Z</time></trkpt><trkpt lat="40.9555517" lon="9.3028767"><ele>322.0</ele><time>2026-05-01T10:24:15.662Z</time></trkpt><trkpt lat="40.95562" lon="9.30275"><ele>321.5</ele><time>2026-05-01T10:24:16.662Z</time></trkpt><trkpt lat="40.955585" lon="9.3025733"><ele>321.0</ele><time>2026-05-01T10:24:17.662Z</time></trkpt><trkpt lat="40.9556017" lon="9.3023667"><ele>319.75</ele><time>2026-05-01T10:24:18.662Z</time></trkpt><trkpt lat="40.9556033" lon="9.3021717"><ele>318.5</ele><time>2026-05-01T10:24:19.662Z</time></trkpt><trkpt lat="40.9556217" lon="9.3019917"><ele>317.25</ele><time>2026-05-01T10:24:20.662Z</time></trkpt><trkpt lat="40.95566" lon="9.3018"><ele>316.0</ele><time>2026-05-01T10:24:21.662Z</time></trkpt><trkpt lat="40.9557167" lon="9.3016183"><ele>316.0</ele><time>2026-05-01T10:24:22.662Z</time></trkpt><trkpt lat="40.955785" lon="9.3014367"><ele>316.0</ele><time>2026-05-01T10:24:23.662Z</time></trkpt><trkpt lat="40.9558483" lon="9.3012533"><ele>316.0</ele><time>2026-05-01T10:24:24.662Z</time></trkpt><trkpt lat="40.9559183" lon="9.30107"><ele>313.3333333333333</ele><time>2026-05-01T10:24:25.662Z</time></trkpt><trkpt lat="40.95599" lon="9.3008983"><ele>310.6666666666667</ele><time>2026-05-01T10:24:26.662Z</time></trkpt><trkpt lat="40.9560583" lon="9.3007233"><ele>308.0</ele><time>2026-05-01T10:24:27.662Z</time></trkpt><trkpt lat="40.95613" lon="9.30054"><ele>306.33333333333337</ele><time>2026-05-01T10:24:28.662Z</time></trkpt><trkpt lat="40.9562017" lon="9.30035"><ele>304.6666666666667</ele><time>2026-05-01T10:24:29.662Z</time></trkpt><trkpt lat="40.9562767" lon="9.300155"><ele>303.0</ele><time>2026-05-01T10:24:30.662Z</time></trkpt><trkpt lat="40.95635" lon="9.2999667"><ele>303.0</ele><time>2026-05-01T10:24:31.662Z</time></trkpt><trkpt lat="40.9564217" lon="9.299785"><ele>303.0</ele><time>2026-05-01T10:24:32.662Z</time></trkpt><trkpt lat="40.956495" lon="9.29961"><ele>303.0</ele><time>2026-05-01T10:24:33.662Z</time></trkpt><trkpt lat="40.956565" lon="9.29944"><ele>302.5</ele><time>2026-05-01T10:24:34.662Z</time></trkpt><trkpt lat="40.9566267" lon="9.2992733"><ele>302.0</ele><time>2026-05-01T10:24:35.662Z</time></trkpt><trkpt lat="40.9566883" lon="9.2991217"><ele>301.5</ele><time>2026-05-01T10:24:36.662Z</time></trkpt><trkpt lat="40.9567533" lon="9.29898"><ele>301.0</ele><time>2026-05-01T10:24:37.662Z</time></trkpt><trkpt lat="40.956805" lon="9.2988533"><ele>299.8</ele><time>2026-05-01T10:24:38.662Z</time></trkpt><trkpt lat="40.95685" lon="9.298735"><ele>298.6</ele><time>2026-05-01T10:24:39.662Z</time></trkpt><trkpt lat="40.9568517" lon="9.29862"><ele>297.4</ele><time>2026-05-01T10:24:40.662Z</time></trkpt><trkpt lat="40.9568267" lon="9.2985067"><ele>296.2</ele><time>2026-05-01T10:24:41.662Z</time></trkpt><trkpt lat="40.9568" lon="9.2983883"><ele>295.0</ele><time>2026-05-01T10:24:42.662Z</time></trkpt><trkpt lat="40.9567767" lon="9.2982567"><ele>295.0</ele><time>2026-05-01T10:24:43.662Z</time></trkpt><trkpt lat="40.956765" lon="9.2981183"><ele>295.0</ele><time>2026-05-01T10:24:44.662Z</time></trkpt><trkpt lat="40.9567667" lon="9.297975"><ele>295.0</ele><time>2026-05-01T10:24:45.663Z</time></trkpt><trkpt lat="40.9567883" lon="9.2978367"><ele>295.0</ele><time>2026-05-01T10:24:46.662Z</time></trkpt><trkpt lat="40.956815" lon="9.29769"><ele>295.0</ele><time>2026-05-01T10:24:47.662Z</time></trkpt><trkpt lat="40.9568617" lon="9.2975317"><ele>293.0</ele><time>2026-05-01T10:24:48.662Z</time></trkpt><trkpt lat="40.9569133" lon="9.29736"><ele>291.0</ele><time>2026-05-01T10:24:49.662Z</time></trkpt><trkpt lat="40.95695" lon="9.2971933"><ele>289.0</ele><time>2026-05-01T10:24:50.662Z</time></trkpt><trkpt lat="40.9569967" lon="9.2970083"><ele>287.0</ele><time>2026-05-01T10:24:51.662Z</time></trkpt><trkpt lat="40.9570567" lon="9.2968267"><ele>287.0</ele><time>2026-05-01T10:24:52.662Z</time></trkpt><trkpt lat="40.957105" lon="9.2966517"><ele>287.0</ele><time>2026-05-01T10:24:53.662Z</time></trkpt><trkpt lat="40.9571517" lon="9.2964817"><ele>287.0</ele><time>2026-05-01T10:24:54.662Z</time></trkpt><trkpt lat="40.9571933" lon="9.2963017"><ele>287.0</ele><time>2026-05-01T10:24:55.662Z</time></trkpt><trkpt lat="40.9572117" lon="9.29613"><ele>287.5</ele><time>2026-05-01T10:24:56.662Z</time></trkpt><trkpt lat="40.9572083" lon="9.2959517"><ele>288.0</ele><time>2026-05-01T10:24:57.662Z</time></trkpt><trkpt lat="40.957195" lon="9.2957617"><ele>288.5</ele><time>2026-05-01T10:24:58.662Z</time></trkpt><trkpt lat="40.9571683" lon="9.2955567"><ele>289.0</ele><time>2026-05-01T10:24:59.662Z</time></trkpt><trkpt lat="40.9571433" lon="9.2953567"><ele>289.0</ele><time>2026-05-01T10:25:00.662Z</time></trkpt><trkpt lat="40.95712" lon="9.2951783"><ele>289.0</ele><time>2026-05-01T10:25:01.662Z</time></trkpt><trkpt lat="40.9570983" lon="9.2950267"><ele>289.0</ele><time>2026-05-01T10:25:02.662Z</time></trkpt><trkpt lat="40.9570817" lon="9.2948967"><ele>289.0</ele><time>2026-05-01T10:25:03.662Z</time></trkpt><trkpt lat="40.9570617" lon="9.2947917"><ele>289.0</ele><time>2026-05-01T10:25:04.662Z</time></trkpt><trkpt lat="40.95704" lon="9.2947083"><ele>289.59999999999997</ele><time>2026-05-01T10:25:05.662Z</time></trkpt><trkpt lat="40.9570033" lon="9.294605"><ele>290.2</ele><time>2026-05-01T10:25:07.662Z</time></trkpt><trkpt lat="40.95692" lon="9.2945533"><ele>290.79999999999995</ele><time>2026-05-01T10:25:10.662Z</time></trkpt><trkpt lat="40.9568483" lon="9.2945567"><ele>291.4</ele><time>2026-05-01T10:25:12.662Z</time></trkpt><trkpt lat="40.956735" lon="9.2945917"><ele>292.0</ele><time>2026-05-01T10:25:14.662Z</time></trkpt><trkpt lat="40.956615" lon="9.29461"><ele>293.0</ele><time>2026-05-01T10:25:16.662Z</time></trkpt><trkpt lat="40.9565117" lon="9.2946217"><ele>294.0</ele><time>2026-05-01T10:25:17.662Z</time></trkpt><trkpt lat="40.9563967" lon="9.294625"><ele>295.0</ele><time>2026-05-01T10:25:18.662Z</time></trkpt><trkpt lat="40.95627" lon="9.2946233"><ele>296.0</ele><time>2026-05-01T10:25:19.662Z</time></trkpt><trkpt lat="40.9561517" lon="9.2946183"><ele>296.0</ele><time>2026-05-01T10:25:20.662Z</time></trkpt><trkpt lat="40.9560333" lon="9.2946183"><ele>296.0</ele><time>2026-05-01T10:25:21.662Z</time></trkpt><trkpt lat="40.9558833" lon="9.2946083"><ele>296.0</ele><time>2026-05-01T10:25:22.662Z</time></trkpt><trkpt lat="40.95574" lon="9.2945883"><ele>296.0</ele><time>2026-05-01T10:25:23.662Z</time></trkpt><trkpt lat="40.9555633" lon="9.2945733"><ele>297.6666666666667</ele><time>2026-05-01T10:25:24.662Z</time></trkpt><trkpt lat="40.95536" lon="9.2945617"><ele>299.3333333333333</ele><time>2026-05-01T10:25:25.662Z</time></trkpt><trkpt lat="40.9551767" lon="9.29454"><ele>301.0</ele><time>2026-05-01T10:25:26.662Z</time></trkpt><trkpt lat="40.95502" lon="9.294525"><ele>301.0</ele><time>2026-05-01T10:25:27.662Z</time></trkpt><trkpt lat="40.9548683" lon="9.2945067"><ele>301.0</ele><time>2026-05-01T10:25:28.662Z</time></trkpt><trkpt lat="40.9547083" lon="9.2945"><ele>301.0</ele><time>2026-05-01T10:25:29.662Z</time></trkpt><trkpt lat="40.9545617" lon="9.2944833"><ele>301.0</ele><time>2026-05-01T10:25:30.662Z</time></trkpt><trkpt lat="40.95442" lon="9.2944817"><ele>301.0</ele><time>2026-05-01T10:25:31.662Z</time></trkpt><trkpt lat="40.9542967" lon="9.294465"><ele>301.0</ele><time>2026-05-01T10:25:32.662Z</time></trkpt><trkpt lat="40.9541833" lon="9.2944683"><ele>301.0</ele><time>2026-05-01T10:25:33.662Z</time></trkpt><trkpt lat="40.9540617" lon="9.2944567"><ele>299.75</ele><time>2026-05-01T10:25:34.662Z</time></trkpt><trkpt lat="40.9539383" lon="9.2944433"><ele>298.5</ele><time>2026-05-01T10:25:35.662Z</time></trkpt><trkpt lat="40.953805" lon="9.29444"><ele>297.25</ele><time>2026-05-01T10:25:36.662Z</time></trkpt><trkpt lat="40.953665" lon="9.2944383"><ele>296.0</ele><time>2026-05-01T10:25:37.662Z</time></trkpt><trkpt lat="40.9535217" lon="9.2944417"><ele>296.0</ele><time>2026-05-01T10:25:38.662Z</time></trkpt><trkpt lat="40.953385" lon="9.2944417"><ele>296.0</ele><time>2026-05-01T10:25:39.662Z</time></trkpt><trkpt lat="40.9532433" lon="9.29444"><ele>296.0</ele><time>2026-05-01T10:25:40.662Z</time></trkpt><trkpt lat="40.9531" lon="9.294435"><ele>296.0</ele><time>2026-05-01T10:25:41.662Z</time></trkpt><trkpt lat="40.9529667" lon="9.29443"><ele>295.0</ele><time>2026-05-01T10:25:42.662Z</time></trkpt><trkpt lat="40.952835" lon="9.2944267"><ele>294.0</ele><time>2026-05-01T10:25:43.662Z</time></trkpt><trkpt lat="40.9527133" lon="9.2944233"><ele>293.0</ele><time>2026-05-01T10:25:44.662Z</time></trkpt><trkpt lat="40.95259" lon="9.2944167"><ele>292.0</ele><time>2026-05-01T10:25:45.662Z</time></trkpt><trkpt lat="40.9524717" lon="9.2944067"><ele>291.25</ele><time>2026-05-01T10:25:46.662Z</time></trkpt><trkpt lat="40.9523533" lon="9.2944017"><ele>290.5</ele><time>2026-05-01T10:25:47.662Z</time></trkpt><trkpt lat="40.95224" lon="9.2944033"><ele>289.75</ele><time>2026-05-01T10:25:48.662Z</time></trkpt><trkpt lat="40.9521217" lon="9.2944217"><ele>289.0</ele><time>2026-05-01T10:25:49.662Z</time></trkpt><trkpt lat="40.952" lon="9.2944633"><ele>289.0</ele><time>2026-05-01T10:25:50.662Z</time></trkpt><trkpt lat="40.9518817" lon="9.2945217"><ele>289.0</ele><time>2026-05-01T10:25:51.662Z</time></trkpt><trkpt lat="40.951765" lon="9.2945917"><ele>289.0</ele><time>2026-05-01T10:25:52.662Z</time></trkpt><trkpt lat="40.951645" lon="9.2946783"><ele>289.0</ele><time>2026-05-01T10:25:53.662Z</time></trkpt><trkpt lat="40.9515183" lon="9.2947783"><ele>288.3333333333333</ele><time>2026-05-01T10:25:54.662Z</time></trkpt><trkpt lat="40.951385" lon="9.2948933"><ele>287.6666666666667</ele><time>2026-05-01T10:25:55.662Z</time></trkpt><trkpt lat="40.95126" lon="9.294995"><ele>287.0</ele><time>2026-05-01T10:25:56.662Z</time></trkpt><trkpt lat="40.951135" lon="9.2950967"><ele>287.0</ele><time>2026-05-01T10:25:57.662Z</time></trkpt><trkpt lat="40.950995" lon="9.29521"><ele>287.0</ele><time>2026-05-01T10:25:58.662Z</time></trkpt><trkpt lat="40.9508667" lon="9.295325"><ele>287.0</ele><time>2026-05-01T10:25:59.662Z</time></trkpt><trkpt lat="40.9507517" lon="9.295435"><ele>286.75</ele><time>2026-05-01T10:26:00.662Z</time></trkpt><trkpt lat="40.9506467" lon="9.295545"><ele>286.5</ele><time>2026-05-01T10:26:01.662Z</time></trkpt><trkpt lat="40.95054" lon="9.2956533"><ele>286.25</ele><time>2026-05-01T10:26:02.662Z</time></trkpt><trkpt lat="40.95042" lon="9.2957633"><ele>286.0</ele><time>2026-05-01T10:26:03.662Z</time></trkpt><trkpt lat="40.95031" lon="9.2958817"><ele>286.16666666666663</ele><time>2026-05-01T10:26:04.662Z</time></trkpt><trkpt lat="40.9502267" lon="9.295965"><ele>286.3333333333333</ele><time>2026-05-01T10:26:05.662Z</time></trkpt><trkpt lat="40.95015" lon="9.296035"><ele>286.5</ele><time>2026-05-01T10:26:06.662Z</time></trkpt><trkpt lat="40.9500783" lon="9.2960983"><ele>286.6666666666667</ele><time>2026-05-01T10:26:07.662Z</time></trkpt><trkpt lat="40.9500083" lon="9.2961583"><ele>286.83333333333337</ele><time>2026-05-01T10:26:08.662Z</time></trkpt><trkpt lat="40.9499433" lon="9.29621"><ele>287.0</ele><time>2026-05-01T10:26:09.662Z</time></trkpt><trkpt lat="40.94985" lon="9.2962367"><ele>287.0</ele><time>2026-05-01T10:26:11.662Z</time></trkpt><trkpt lat="40.9497917" lon="9.2961983"><ele>287.0</ele><time>2026-05-01T10:26:14.662Z</time></trkpt><trkpt lat="40.9497183" lon="9.29621"><ele>287.0</ele><time>2026-05-01T10:26:23.662Z</time></trkpt><trkpt lat="40.9496117" lon="9.2963317"><ele>287.0</ele><time>2026-05-01T10:26:25.662Z</time></trkpt><trkpt lat="40.9495133" lon="9.2964317"><ele>287.0</ele><time>2026-05-01T10:26:26.662Z</time></trkpt><trkpt lat="40.9493983" lon="9.296545"><ele>287.0</ele><time>2026-05-01T10:26:27.662Z</time></trkpt><trkpt lat="40.9492717" lon="9.29667"><ele>287.0</ele><time>2026-05-01T10:26:28.662Z</time></trkpt><trkpt lat="40.9491483" lon="9.2967933"><ele>287.0</ele><time>2026-05-01T10:26:29.662Z</time></trkpt><trkpt lat="40.948995" lon="9.2969317"><ele>288.33333333333337</ele><time>2026-05-01T10:26:30.662Z</time></trkpt><trkpt lat="40.9488633" lon="9.2970467"><ele>289.6666666666667</ele><time>2026-05-01T10:26:31.662Z</time></trkpt><trkpt lat="40.9487117" lon="9.2971517"><ele>291.0</ele><time>2026-05-01T10:26:32.662Z</time></trkpt><trkpt lat="40.948565" lon="9.2972417"><ele>291.3333333333333</ele><time>2026-05-01T10:26:33.662Z</time></trkpt><trkpt lat="40.94842" lon="9.29732"><ele>291.66666666666663</ele><time>2026-05-01T10:26:34.662Z</time></trkpt><trkpt lat="40.9482733" lon="9.2973967"><ele>292.0</ele><time>2026-05-01T10:26:35.662Z</time></trkpt><trkpt lat="40.9481133" lon="9.297475"><ele>292.0</ele><time>2026-05-01T10:26:36.662Z</time></trkpt><trkpt lat="40.9479633" lon="9.2975433"><ele>292.0</ele><time>2026-05-01T10:26:37.662Z</time></trkpt><trkpt lat="40.947815" lon="9.2976083"><ele>292.0</ele><time>2026-05-01T10:26:38.662Z</time></trkpt><trkpt lat="40.9476667" lon="9.2976733"><ele>290.0</ele><time>2026-05-01T10:26:39.662Z</time></trkpt><trkpt lat="40.9475183" lon="9.2977417"><ele>288.0</ele><time>2026-05-01T10:26:40.662Z</time></trkpt><trkpt lat="40.9473783" lon="9.2978067"><ele>286.0</ele><time>2026-05-01T10:26:41.662Z</time></trkpt><trkpt lat="40.9472233" lon="9.29788"><ele>286.0</ele><time>2026-05-01T10:26:42.662Z</time></trkpt><trkpt lat="40.9470683" lon="9.2979517"><ele>286.0</ele><time>2026-05-01T10:26:43.662Z</time></trkpt><trkpt lat="40.9468767" lon="9.2980433"><ele>286.0</ele><time>2026-05-01T10:26:44.662Z</time></trkpt><trkpt lat="40.9467217" lon="9.29812"><ele>286.66666666666663</ele><time>2026-05-01T10:26:45.662Z</time></trkpt><trkpt lat="40.9465633" lon="9.2982"><ele>287.3333333333333</ele><time>2026-05-01T10:26:46.662Z</time></trkpt><trkpt lat="40.9464017" lon="9.2982783"><ele>288.0</ele><time>2026-05-01T10:26:47.662Z</time></trkpt><trkpt lat="40.94625" lon="9.298365"><ele>288.0</ele><time>2026-05-01T10:26:48.662Z</time></trkpt><trkpt lat="40.9461067" lon="9.2984517"><ele>288.0</ele><time>2026-05-01T10:26:49.662Z</time></trkpt><trkpt lat="40.9459733" lon="9.2985417"><ele>288.0</ele><time>2026-05-01T10:26:50.662Z</time></trkpt><trkpt lat="40.9458483" lon="9.29863"><ele>288.0</ele><time>2026-05-01T10:26:51.662Z</time></trkpt><trkpt lat="40.9457367" lon="9.2987117"><ele>288.4</ele><time>2026-05-01T10:26:52.662Z</time></trkpt><trkpt lat="40.945645" lon="9.2987883"><ele>288.8</ele><time>2026-05-01T10:26:53.662Z</time></trkpt><trkpt lat="40.94557" lon="9.2988533"><ele>289.2</ele><time>2026-05-01T10:26:54.662Z</time></trkpt><trkpt lat="40.9455067" lon="9.2989017"><ele>289.6</ele><time>2026-05-01T10:26:55.662Z</time></trkpt><trkpt lat="40.9454" lon="9.298935"><ele>290.0</ele><time>2026-05-01T10:26:57.662Z</time></trkpt><trkpt lat="40.9453067" lon="9.2988533"><ele>290.0</ele><time>2026-05-01T10:26:59.662Z</time></trkpt><trkpt lat="40.9452667" lon="9.298765"><ele>290.0</ele><time>2026-05-01T10:27:00.662Z</time></trkpt><trkpt lat="40.9452083" lon="9.298675"><ele>290.0</ele><time>2026-05-01T10:27:01.662Z</time></trkpt><trkpt lat="40.9451317" lon="9.2985633"><ele>290.0</ele><time>2026-05-01T10:27:02.662Z</time></trkpt><trkpt lat="40.94505" lon="9.2984483"><ele>290.0</ele><time>2026-05-01T10:27:03.662Z</time></trkpt><trkpt lat="40.9449833" lon="9.29833"><ele>290.0</ele><time>2026-05-01T10:27:04.662Z</time></trkpt><trkpt lat="40.9449183" lon="9.2982217"><ele>290.0</ele><time>2026-05-01T10:27:05.662Z</time></trkpt><trkpt lat="40.9448517" lon="9.29812"><ele>290.0</ele><time>2026-05-01T10:27:06.662Z</time></trkpt><trkpt lat="40.9447767" lon="9.29803"><ele>290.0</ele><time>2026-05-01T10:27:07.662Z</time></trkpt><trkpt lat="40.9447033" lon="9.2979583"><ele>290.0</ele><time>2026-05-01T10:27:08.662Z</time></trkpt><trkpt lat="40.9446317" lon="9.2979033"><ele>290.2</ele><time>2026-05-01T10:27:09.663Z</time></trkpt><trkpt lat="40.94456" lon="9.2978583"><ele>290.4</ele><time>2026-05-01T10:27:10.662Z</time></trkpt><trkpt lat="40.9444817" lon="9.2978333"><ele>290.6</ele><time>2026-05-01T10:27:11.662Z</time></trkpt><trkpt lat="40.9444033" lon="9.29781"><ele>290.8</ele><time>2026-05-01T10:27:12.662Z</time></trkpt><trkpt lat="40.9442733" lon="9.2978767"><ele>291.0</ele><time>2026-05-01T10:27:13.662Z</time></trkpt><trkpt lat="40.9441333" lon="9.2979383"><ele>289.0</ele><time>2026-05-01T10:27:14.662Z</time></trkpt><trkpt lat="40.943995" lon="9.298005"><ele>287.0</ele><time>2026-05-01T10:27:15.662Z</time></trkpt><trkpt lat="40.9437933" lon="9.2981383"><ele>285.0</ele><time>2026-05-01T10:27:16.662Z</time></trkpt><trkpt lat="40.9436583" lon="9.2981883"><ele>285.0</ele><time>2026-05-01T10:27:17.662Z</time></trkpt><trkpt lat="40.943525" lon="9.2982317"><ele>285.0</ele><time>2026-05-01T10:27:18.662Z</time></trkpt><trkpt lat="40.9433933" lon="9.2982733"><ele>285.0</ele><time>2026-05-01T10:27:19.662Z</time></trkpt><trkpt lat="40.9432767" lon="9.2983117"><ele>285.0</ele><time>2026-05-01T10:27:20.662Z</time></trkpt><trkpt lat="40.9431717" lon="9.29835"><ele>284.5</ele><time>2026-05-01T10:27:21.662Z</time></trkpt><trkpt lat="40.943075" lon="9.2983783"><ele>284.0</ele><time>2026-05-01T10:27:22.662Z</time></trkpt><trkpt lat="40.9429883" lon="9.298405"><ele>283.5</ele><time>2026-05-01T10:27:23.662Z</time></trkpt><trkpt lat="40.9429017" lon="9.2984267"><ele>283.0</ele><time>2026-05-01T10:27:24.662Z</time></trkpt><trkpt lat="40.942815" lon="9.2984383"><ele>282.5</ele><time>2026-05-01T10:27:25.662Z</time></trkpt><trkpt lat="40.9427417" lon="9.2984267"><ele>282.0</ele><time>2026-05-01T10:27:26.662Z</time></trkpt><trkpt lat="40.942665" lon="9.2984033"><ele>282.0</ele><time>2026-05-01T10:27:27.662Z</time></trkpt><trkpt lat="40.942605" lon="9.2983433"><ele>282.0</ele><time>2026-05-01T10:27:28.662Z</time></trkpt><trkpt lat="40.9425533" lon="9.2982583"><ele>282.0</ele><time>2026-05-01T10:27:29.662Z</time></trkpt><trkpt lat="40.9425333" lon="9.2981167"><ele>282.0</ele><time>2026-05-01T10:27:30.662Z</time></trkpt><trkpt lat="40.9425" lon="9.2979833"><ele>282.0</ele><time>2026-05-01T10:27:31.662Z</time></trkpt><trkpt lat="40.942475" lon="9.2978333"><ele>282.25</ele><time>2026-05-01T10:27:32.662Z</time></trkpt><trkpt lat="40.9424417" lon="9.29767"><ele>282.5</ele><time>2026-05-01T10:27:33.662Z</time></trkpt><trkpt lat="40.94241" lon="9.29749"><ele>282.75</ele><time>2026-05-01T10:27:34.662Z</time></trkpt><trkpt lat="40.9423783" lon="9.2973017"><ele>283.0</ele><time>2026-05-01T10:27:35.662Z</time></trkpt><trkpt lat="40.94234" lon="9.2971083"><ele>283.0</ele><time>2026-05-01T10:27:36.662Z</time></trkpt><trkpt lat="40.9423117" lon="9.2969233"><ele>283.0</ele><time>2026-05-01T10:27:37.662Z</time></trkpt><trkpt lat="40.9422833" lon="9.2967267"><ele>283.0</ele><time>2026-05-01T10:27:38.662Z</time></trkpt><trkpt lat="40.94226" lon="9.2965417"><ele>283.0</ele><time>2026-05-01T10:27:39.662Z</time></trkpt><trkpt lat="40.942235" lon="9.2963617"><ele>282.5</ele><time>2026-05-01T10:27:40.662Z</time></trkpt><trkpt lat="40.9422067" lon="9.2961783"><ele>282.0</ele><time>2026-05-01T10:27:41.662Z</time></trkpt><trkpt lat="40.94218" lon="9.2959967"><ele>281.5</ele><time>2026-05-01T10:27:42.662Z</time></trkpt><trkpt lat="40.9421517" lon="9.2958133"><ele>281.0</ele><time>2026-05-01T10:27:43.662Z</time></trkpt><trkpt lat="40.942125" lon="9.29563"><ele>281.25</ele><time>2026-05-01T10:27:44.662Z</time></trkpt><trkpt lat="40.9420983" lon="9.2954483"><ele>281.5</ele><time>2026-05-01T10:27:45.662Z</time></trkpt><trkpt lat="40.9420733" lon="9.2952667"><ele>281.75</ele><time>2026-05-01T10:27:46.662Z</time></trkpt><trkpt lat="40.94205" lon="9.2950833"><ele>282.0</ele><time>2026-05-01T10:27:47.662Z</time></trkpt><trkpt lat="40.94202" lon="9.2949"><ele>283.0</ele><time>2026-05-01T10:27:48.662Z</time></trkpt><trkpt lat="40.9419867" lon="9.29471"><ele>284.0</ele><time>2026-05-01T10:27:49.663Z</time></trkpt><trkpt lat="40.9419567" lon="9.2945067"><ele>285.0</ele><time>2026-05-01T10:27:50.662Z</time></trkpt><trkpt lat="40.9419333" lon="9.2943067"><ele>285.0</ele><time>2026-05-01T10:27:51.662Z</time></trkpt><trkpt lat="40.941915" lon="9.2941117"><ele>285.0</ele><time>2026-05-01T10:27:52.662Z</time></trkpt><trkpt lat="40.941895" lon="9.2939233"><ele>285.0</ele><time>2026-05-01T10:27:53.662Z</time></trkpt><trkpt lat="40.9418683" lon="9.2937433"><ele>285.0</ele><time>2026-05-01T10:27:54.662Z</time></trkpt><trkpt lat="40.9418417" lon="9.29357"><ele>285.75</ele><time>2026-05-01T10:27:55.662Z</time></trkpt><trkpt lat="40.9418183" lon="9.2933917"><ele>286.5</ele><time>2026-05-01T10:27:56.662Z</time></trkpt><trkpt lat="40.9417983" lon="9.2932183"><ele>287.25</ele><time>2026-05-01T10:27:57.662Z</time></trkpt><trkpt lat="40.9417833" lon="9.2930433"><ele>288.0</ele><time>2026-05-01T10:27:58.662Z</time></trkpt><trkpt lat="40.94177" lon="9.292865"><ele>288.75</ele><time>2026-05-01T10:27:59.662Z</time></trkpt><trkpt lat="40.9417667" lon="9.2926783"><ele>289.5</ele><time>2026-05-01T10:28:00.662Z</time></trkpt><trkpt lat="40.9417717" lon="9.2924917"><ele>290.25</ele><time>2026-05-01T10:28:01.662Z</time></trkpt><trkpt lat="40.9417717" lon="9.2923167"><ele>291.0</ele><time>2026-05-01T10:28:02.662Z</time></trkpt><trkpt lat="40.9417667" lon="9.292155"><ele>291.75</ele><time>2026-05-01T10:28:03.662Z</time></trkpt><trkpt lat="40.9417633" lon="9.2919883"><ele>292.5</ele><time>2026-05-01T10:28:04.662Z</time></trkpt><trkpt lat="40.9417567" lon="9.2918383"><ele>293.25</ele><time>2026-05-01T10:28:05.662Z</time></trkpt><trkpt lat="40.9417433" lon="9.2916983"><ele>294.0</ele><time>2026-05-01T10:28:06.662Z</time></trkpt><trkpt lat="40.9418117" lon="9.2915767"><ele>294.0</ele><time>2026-05-01T10:28:07.662Z</time></trkpt><trkpt lat="40.9418033" lon="9.2914933"><ele>294.0</ele><time>2026-05-01T10:28:08.662Z</time></trkpt><trkpt lat="40.941785" lon="9.2913117"><ele>294.0</ele><time>2026-05-01T10:28:10.662Z</time></trkpt><trkpt lat="40.9417633" lon="9.29123"><ele>294.0</ele><time>2026-05-01T10:28:11.662Z</time></trkpt><trkpt lat="40.9417233" lon="9.291145"><ele>294.0</ele><time>2026-05-01T10:28:12.662Z</time></trkpt><trkpt lat="40.941635" lon="9.2911117"><ele>294.0</ele><time>2026-05-01T10:28:13.662Z</time></trkpt><trkpt lat="40.9415567" lon="9.2910267"><ele>295.3333333333333</ele><time>2026-05-01T10:28:14.662Z</time></trkpt><trkpt lat="40.9414083" lon="9.29096"><ele>296.66666666666663</ele><time>2026-05-01T10:28:15.662Z</time></trkpt><trkpt lat="40.9412733" lon="9.2908467"><ele>298.0</ele><time>2026-05-01T10:28:16.662Z</time></trkpt><trkpt lat="40.9411667" lon="9.2907317"><ele>298.0</ele><time>2026-05-01T10:28:17.662Z</time></trkpt><trkpt lat="40.9410417" lon="9.2906167"><ele>298.0</ele><time>2026-05-01T10:28:18.662Z</time></trkpt><trkpt lat="40.9409267" lon="9.290485"><ele>298.0</ele><time>2026-05-01T10:28:19.662Z</time></trkpt><trkpt lat="40.9408067" lon="9.290365"><ele>298.66666666666663</ele><time>2026-05-01T10:28:20.662Z</time></trkpt><trkpt lat="40.9406833" lon="9.29024"><ele>299.3333333333333</ele><time>2026-05-01T10:28:21.662Z</time></trkpt><trkpt lat="40.94056" lon="9.2901317"><ele>300.0</ele><time>2026-05-01T10:28:22.662Z</time></trkpt><trkpt lat="40.9404233" lon="9.2900433"><ele>300.0</ele><time>2026-05-01T10:28:23.661Z</time></trkpt><trkpt lat="40.940305" lon="9.28995"><ele>300.0</ele><time>2026-05-01T10:28:24.661Z</time></trkpt><trkpt lat="40.940185" lon="9.2898783"><ele>300.0</ele><time>2026-05-01T10:28:25.661Z</time></trkpt><trkpt lat="40.940065" lon="9.289825"><ele>300.0</ele><time>2026-05-01T10:28:26.661Z</time></trkpt><trkpt lat="40.9399483" lon="9.2897867"><ele>299.0</ele><time>2026-05-01T10:28:27.661Z</time></trkpt><trkpt lat="40.939835" lon="9.2897317"><ele>298.0</ele><time>2026-05-01T10:28:28.661Z</time></trkpt><trkpt lat="40.9397167" lon="9.2896833"><ele>297.0</ele><time>2026-05-01T10:28:29.661Z</time></trkpt><trkpt lat="40.9395817" lon="9.28964"><ele>296.0</ele><time>2026-05-01T10:28:30.661Z</time></trkpt><trkpt lat="40.939445" lon="9.2895767"><ele>296.0</ele><time>2026-05-01T10:28:31.661Z</time></trkpt><trkpt lat="40.9393017" lon="9.2895183"><ele>296.0</ele><time>2026-05-01T10:28:32.661Z</time></trkpt><trkpt lat="40.9391567" lon="9.28946"><ele>296.0</ele><time>2026-05-01T10:28:33.661Z</time></trkpt><trkpt lat="40.93901" lon="9.2894133"><ele>295.25</ele><time>2026-05-01T10:28:34.661Z</time></trkpt><trkpt lat="40.9388683" lon="9.2893667"><ele>294.5</ele><time>2026-05-01T10:28:35.661Z</time></trkpt><trkpt lat="40.93873" lon="9.2893283"><ele>293.75</ele><time>2026-05-01T10:28:36.661Z</time></trkpt><trkpt lat="40.9385867" lon="9.28929"><ele>293.0</ele><time>2026-05-01T10:28:37.661Z</time></trkpt><trkpt lat="40.9384567" lon="9.2892683"><ele>293.0</ele><time>2026-05-01T10:28:38.662Z</time></trkpt><trkpt lat="40.93834" lon="9.2892333"><ele>293.0</ele><time>2026-05-01T10:28:39.661Z</time></trkpt><trkpt lat="40.9382333" lon="9.2891867"><ele>293.0</ele><time>2026-05-01T10:28:40.66Z</time></trkpt><trkpt lat="40.938125" lon="9.289135"><ele>293.0</ele><time>2026-05-01T10:28:41.661Z</time></trkpt><trkpt lat="40.9380217" lon="9.2890767"><ele>293.0</ele><time>2026-05-01T10:28:42.661Z</time></trkpt><trkpt lat="40.9379183" lon="9.2890083"><ele>293.0</ele><time>2026-05-01T10:28:43.661Z</time></trkpt><trkpt lat="40.937835" lon="9.28892"><ele>293.0</ele><time>2026-05-01T10:28:44.661Z</time></trkpt><trkpt lat="40.9377417" lon="9.2888317"><ele>293.0</ele><time>2026-05-01T10:28:45.661Z</time></trkpt><trkpt lat="40.9376667" lon="9.2887417"><ele>293.0</ele><time>2026-05-01T10:28:46.661Z</time></trkpt><trkpt lat="40.9375767" lon="9.2886517"><ele>293.5</ele><time>2026-05-01T10:28:47.661Z</time></trkpt><trkpt lat="40.9374767" lon="9.2885617"><ele>294.0</ele><time>2026-05-01T10:28:48.662Z</time></trkpt><trkpt lat="40.937385" lon="9.28848"><ele>294.5</ele><time>2026-05-01T10:28:49.661Z</time></trkpt><trkpt lat="40.9372867" lon="9.2884067"><ele>295.0</ele><time>2026-05-01T10:28:50.661Z</time></trkpt><trkpt lat="40.9371883" lon="9.2883417"><ele>295.0</ele><time>2026-05-01T10:28:51.661Z</time></trkpt><trkpt lat="40.93711" lon="9.28827"><ele>295.0</ele><time>2026-05-01T10:28:52.661Z</time></trkpt><trkpt lat="40.93703" lon="9.2882017"><ele>295.0</ele><time>2026-05-01T10:28:53.661Z</time></trkpt><trkpt lat="40.936955" lon="9.2881467"><ele>295.0</ele><time>2026-05-01T10:28:54.661Z</time></trkpt><trkpt lat="40.9368767" lon="9.288085"><ele>295.0</ele><time>2026-05-01T10:28:55.661Z</time></trkpt><trkpt lat="40.93677" lon="9.2880367"><ele>295.3333333333333</ele><time>2026-05-01T10:28:56.661Z</time></trkpt><trkpt lat="40.9366833" lon="9.2880283"><ele>295.66666666666663</ele><time>2026-05-01T10:28:57.661Z</time></trkpt><trkpt lat="40.9365967" lon="9.28801"><ele>296.0</ele><time>2026-05-01T10:28:58.661Z</time></trkpt><trkpt lat="40.9365133" lon="9.2879783"><ele>296.3333333333333</ele><time>2026-05-01T10:28:59.662Z</time></trkpt><trkpt lat="40.9364467" lon="9.2879083"><ele>296.6666666666667</ele><time>2026-05-01T10:29:00.661Z</time></trkpt><trkpt lat="40.93638" lon="9.2878133"><ele>297.0</ele><time>2026-05-01T10:29:01.661Z</time></trkpt><trkpt lat="40.9363217" lon="9.2876733"><ele>297.0</ele><time>2026-05-01T10:29:02.661Z</time></trkpt><trkpt lat="40.9362467" lon="9.2875417"><ele>297.0</ele><time>2026-05-01T10:29:03.661Z</time></trkpt><trkpt lat="40.9361767" lon="9.2873983"><ele>297.0</ele><time>2026-05-01T10:29:04.661Z</time></trkpt><trkpt lat="40.9361033" lon="9.2872483"><ele>297.0</ele><time>2026-05-01T10:29:05.661Z</time></trkpt><trkpt lat="40.93601" lon="9.2871383"><ele>297.6</ele><time>2026-05-01T10:29:06.661Z</time></trkpt><trkpt lat="40.9359333" lon="9.2870183"><ele>298.2</ele><time>2026-05-01T10:29:07.661Z</time></trkpt><trkpt lat="40.935855" lon="9.2869017"><ele>298.8</ele><time>2026-05-01T10:29:08.661Z</time></trkpt><trkpt lat="40.9357783" lon="9.2868"><ele>299.4</ele><time>2026-05-01T10:29:09.661Z</time></trkpt><trkpt lat="40.9357233" lon="9.2867483"><ele>300.0</ele><time>2026-05-01T10:29:10.662Z</time></trkpt><trkpt lat="40.9356517" lon="9.28668"><ele>301.1666666666667</ele><time>2026-05-01T10:29:11.661Z</time></trkpt><trkpt lat="40.93558" lon="9.28663"><ele>302.3333333333333</ele><time>2026-05-01T10:29:12.661Z</time></trkpt><trkpt lat="40.9355217" lon="9.2865767"><ele>303.5</ele><time>2026-05-01T10:29:13.662Z</time></trkpt><trkpt lat="40.9354417" lon="9.2865067"><ele>304.66666666666663</ele><time>2026-05-01T10:29:14.661Z</time></trkpt><trkpt lat="40.9353617" lon="9.2864367"><ele>305.8333333333333</ele><time>2026-05-01T10:29:15.661Z</time></trkpt><trkpt lat="40.93527" lon="9.286385"><ele>307.0</ele><time>2026-05-01T10:29:16.661Z</time></trkpt><trkpt lat="40.935215" lon="9.2864533"><ele>307.0</ele><time>2026-05-01T10:29:18.661Z</time></trkpt><trkpt lat="40.9351267" lon="9.2864283"><ele>307.0</ele><time>2026-05-01T10:29:20.661Z</time></trkpt><trkpt lat="40.9350583" lon="9.2863967"><ele>307.0</ele><time>2026-05-01T10:29:21.661Z</time></trkpt><trkpt lat="40.9349783" lon="9.28637"><ele>307.0</ele><time>2026-05-01T10:29:22.661Z</time></trkpt><trkpt lat="40.934905" lon="9.2863283"><ele>307.0</ele><time>2026-05-01T10:29:23.661Z</time></trkpt><trkpt lat="40.9348367" lon="9.2862767"><ele>307.0</ele><time>2026-05-01T10:29:24.661Z</time></trkpt><trkpt lat="40.934765" lon="9.286215"><ele>308.8</ele><time>2026-05-01T10:29:25.661Z</time></trkpt><trkpt lat="40.9346917" lon="9.2861467"><ele>310.6</ele><time>2026-05-01T10:29:26.661Z</time></trkpt><trkpt lat="40.9346233" lon="9.286085"><ele>312.40000000000003</ele><time>2026-05-01T10:29:27.661Z</time></trkpt><trkpt lat="40.9345533" lon="9.2860183"><ele>314.2</ele><time>2026-05-01T10:29:28.661Z</time></trkpt><trkpt lat="40.9344933" lon="9.2859117"><ele>316.0</ele><time>2026-05-01T10:29:29.661Z</time></trkpt><trkpt lat="40.9344083" lon="9.28583"><ele>316.0</ele><time>2026-05-01T10:29:30.661Z</time></trkpt><trkpt lat="40.9343267" lon="9.2857433"><ele>316.0</ele><time>2026-05-01T10:29:31.662Z</time></trkpt><trkpt lat="40.9342333" lon="9.28565"><ele>316.0</ele><time>2026-05-01T10:29:32.661Z</time></trkpt><trkpt lat="40.93414" lon="9.285555"><ele>316.0</ele><time>2026-05-01T10:29:33.661Z</time></trkpt><trkpt lat="40.9340533" lon="9.285455"><ele>318.75</ele><time>2026-05-01T10:29:34.661Z</time></trkpt><trkpt lat="40.93395" lon="9.285375"><ele>321.5</ele><time>2026-05-01T10:29:35.661Z</time></trkpt><trkpt lat="40.93385" lon="9.285295"><ele>324.25</ele><time>2026-05-01T10:29:36.661Z</time></trkpt><trkpt lat="40.9337633" lon="9.28521"><ele>327.0</ele><time>2026-05-01T10:29:37.661Z</time></trkpt><trkpt lat="40.9336667" lon="9.2851033"><ele>327.0</ele><time>2026-05-01T10:29:38.661Z</time></trkpt><trkpt lat="40.9335683" lon="9.2850067"><ele>327.0</ele><time>2026-05-01T10:29:39.661Z</time></trkpt><trkpt lat="40.9334783" lon="9.2849133"><ele>327.0</ele><time>2026-05-01T10:29:40.661Z</time></trkpt><trkpt lat="40.93339" lon="9.2848367"><ele>327.0</ele><time>2026-05-01T10:29:41.661Z</time></trkpt><trkpt lat="40.933295" lon="9.2847617"><ele>328.25</ele><time>2026-05-01T10:29:42.661Z</time></trkpt><trkpt lat="40.9331883" lon="9.2846917"><ele>329.5</ele><time>2026-05-01T10:29:43.661Z</time></trkpt><trkpt lat="40.9330733" lon="9.2846417"><ele>330.75</ele><time>2026-05-01T10:29:44.661Z</time></trkpt><trkpt lat="40.9329667" lon="9.28457"><ele>332.0</ele><time>2026-05-01T10:29:45.661Z</time></trkpt><trkpt lat="40.9328633" lon="9.2844933"><ele>332.0</ele><time>2026-05-01T10:29:46.661Z</time></trkpt><trkpt lat="40.932765" lon="9.2844217"><ele>332.0</ele><time>2026-05-01T10:29:47.661Z</time></trkpt><trkpt lat="40.9326883" lon="9.2843417"><ele>332.0</ele><time>2026-05-01T10:29:48.661Z</time></trkpt><trkpt lat="40.9326117" lon="9.2842667"><ele>332.0</ele><time>2026-05-01T10:29:49.661Z</time></trkpt><trkpt lat="40.93252" lon="9.284185"><ele>332.0</ele><time>2026-05-01T10:29:50.661Z</time></trkpt><trkpt lat="40.9324267" lon="9.284115"><ele>332.0</ele><time>2026-05-01T10:29:51.661Z</time></trkpt><trkpt lat="40.9323333" lon="9.28404"><ele>332.0</ele><time>2026-05-01T10:29:52.661Z</time></trkpt><trkpt lat="40.932245" lon="9.2839667"><ele>332.0</ele><time>2026-05-01T10:29:53.661Z</time></trkpt><trkpt lat="40.9321567" lon="9.2838833"><ele>332.0</ele><time>2026-05-01T10:29:54.661Z</time></trkpt><trkpt lat="40.93207" lon="9.283815"><ele>332.0</ele><time>2026-05-01T10:29:55.661Z</time></trkpt><trkpt lat="40.932005" lon="9.28375"><ele>332.0</ele><time>2026-05-01T10:29:56.661Z</time></trkpt><trkpt lat="40.9319283" lon="9.283685"><ele>332.0</ele><time>2026-05-01T10:29:57.661Z</time></trkpt><trkpt lat="40.9318517" lon="9.2836217"><ele>332.0</ele><time>2026-05-01T10:29:58.661Z</time></trkpt><trkpt lat="40.9317733" lon="9.2835633"><ele>332.0</ele><time>2026-05-01T10:29:59.661Z</time></trkpt><trkpt lat="40.93169" lon="9.283485"><ele>332.0</ele><time>2026-05-01T10:30:00.661Z</time></trkpt><trkpt lat="40.9316233" lon="9.2834117"><ele>331.6</ele><time>2026-05-01T10:30:01.661Z</time></trkpt><trkpt lat="40.9315533" lon="9.2833133"><ele>331.20000000000005</ele><time>2026-05-01T10:30:02.661Z</time></trkpt><trkpt lat="40.9314767" lon="9.2832167"><ele>330.8</ele><time>2026-05-01T10:30:03.661Z</time></trkpt><trkpt lat="40.9314317" lon="9.2831233"><ele>330.4</ele><time>2026-05-01T10:30:04.661Z</time></trkpt><trkpt lat="40.9313683" lon="9.2830417"><ele>330.0</ele><time>2026-05-01T10:30:05.661Z</time></trkpt><trkpt lat="40.9312917" lon="9.2829567"><ele>330.0</ele><time>2026-05-01T10:30:06.662Z</time></trkpt><trkpt lat="40.93123" lon="9.2828733"><ele>330.0</ele><time>2026-05-01T10:30:07.661Z</time></trkpt><trkpt lat="40.931165" lon="9.2827883"><ele>330.0</ele><time>2026-05-01T10:30:08.661Z</time></trkpt><trkpt lat="40.9311" lon="9.2827067"><ele>330.0</ele><time>2026-05-01T10:30:09.661Z</time></trkpt><trkpt lat="40.9310483" lon="9.2826167"><ele>330.0</ele><time>2026-05-01T10:30:10.661Z</time></trkpt><trkpt lat="40.9310017" lon="9.2825517"><ele>330.0</ele><time>2026-05-01T10:30:11.661Z</time></trkpt><trkpt lat="40.9309317" lon="9.2824267"><ele>329.6666666666667</ele><time>2026-05-01T10:30:13.661Z</time></trkpt><trkpt lat="40.930875" lon="9.2823783"><ele>329.3333333333333</ele><time>2026-05-01T10:30:14.661Z</time></trkpt><trkpt lat="40.930765" lon="9.282315"><ele>329.0</ele><time>2026-05-01T10:30:16.661Z</time></trkpt><trkpt lat="40.9307017" lon="9.2822833"><ele>328.66666666666663</ele><time>2026-05-01T10:30:17.661Z</time></trkpt><trkpt lat="40.9306333" lon="9.2822667"><ele>328.3333333333333</ele><time>2026-05-01T10:30:18.661Z</time></trkpt><trkpt lat="40.93057" lon="9.2822717"><ele>328.0</ele><time>2026-05-01T10:30:19.661Z</time></trkpt><trkpt lat="40.9305067" lon="9.2822383"><ele>328.66666666666663</ele><time>2026-05-01T10:30:20.661Z</time></trkpt><trkpt lat="40.93044" lon="9.2821867"><ele>329.3333333333333</ele><time>2026-05-01T10:30:21.661Z</time></trkpt><trkpt lat="40.9303683" lon="9.28212"><ele>330.0</ele><time>2026-05-01T10:30:22.661Z</time></trkpt><trkpt lat="40.9302967" lon="9.2820467"><ele>330.6666666666667</ele><time>2026-05-01T10:30:23.661Z</time></trkpt><trkpt lat="40.9302483" lon="9.2819333"><ele>331.33333333333337</ele><time>2026-05-01T10:30:24.661Z</time></trkpt><trkpt lat="40.930185" lon="9.281845"><ele>332.0</ele><time>2026-05-01T10:30:25.661Z</time></trkpt><trkpt lat="40.9301367" lon="9.2817583"><ele>332.0</ele><time>2026-05-01T10:30:26.661Z</time></trkpt><trkpt lat="40.9300917" lon="9.2816967"><ele>332.0</ele><time>2026-05-01T10:30:27.661Z</time></trkpt><trkpt lat="40.9300283" lon="9.2816267"><ele>332.0</ele><time>2026-05-01T10:30:28.661Z</time></trkpt><trkpt lat="40.9299883" lon="9.2815233"><ele>332.0</ele><time>2026-05-01T10:30:29.661Z</time></trkpt><trkpt lat="40.9299583" lon="9.281435"><ele>332.0</ele><time>2026-05-01T10:30:30.661Z</time></trkpt><trkpt lat="40.9298967" lon="9.2815117"><ele>332.0</ele><time>2026-05-01T10:30:33.661Z</time></trkpt><trkpt lat="40.929805" lon="9.281645"><ele>330.6</ele><time>2026-05-01T10:30:35.661Z</time></trkpt><trkpt lat="40.9297433" lon="9.2817383"><ele>329.20000000000005</ele><time>2026-05-01T10:30:36.661Z</time></trkpt><trkpt lat="40.9296717" lon="9.2818"><ele>327.8</ele><time>2026-05-01T10:30:37.661Z</time></trkpt><trkpt lat="40.929585" lon="9.28189"><ele>326.4</ele><time>2026-05-01T10:30:38.661Z</time></trkpt><trkpt lat="40.9295067" lon="9.2819717"><ele>325.0</ele><time>2026-05-01T10:30:39.661Z</time></trkpt><trkpt lat="40.9294467" lon="9.2820867"><ele>325.0</ele><time>2026-05-01T10:30:40.661Z</time></trkpt><trkpt lat="40.9293817" lon="9.282185"><ele>325.0</ele><time>2026-05-01T10:30:41.661Z</time></trkpt><trkpt lat="40.9293167" lon="9.28229"><ele>325.0</ele><time>2026-05-01T10:30:42.661Z</time></trkpt><trkpt lat="40.9292383" lon="9.2823967"><ele>325.0</ele><time>2026-05-01T10:30:43.661Z</time></trkpt><trkpt lat="40.9291517" lon="9.2824833"><ele>325.0</ele><time>2026-05-01T10:30:44.661Z</time></trkpt><trkpt lat="40.9290683" lon="9.28256"><ele>325.8</ele><time>2026-05-01T10:30:45.662Z</time></trkpt><trkpt lat="40.92896" lon="9.2826317"><ele>326.6</ele><time>2026-05-01T10:30:46.661Z</time></trkpt><trkpt lat="40.9288583" lon="9.28268"><ele>327.4</ele><time>2026-05-01T10:30:47.661Z</time></trkpt><trkpt lat="40.9287533" lon="9.2827"><ele>328.2</ele><time>2026-05-01T10:30:48.661Z</time></trkpt><trkpt lat="40.928645" lon="9.2827383"><ele>329.0</ele><time>2026-05-01T10:30:49.661Z</time></trkpt><trkpt lat="40.9285283" lon="9.2827633"><ele>329.0</ele><time>2026-05-01T10:30:50.661Z</time></trkpt><trkpt lat="40.928435" lon="9.2827967"><ele>329.0</ele><time>2026-05-01T10:30:51.661Z</time></trkpt><trkpt lat="40.9282967" lon="9.2827583"><ele>329.0</ele><time>2026-05-01T10:30:52.661Z</time></trkpt><trkpt lat="40.9281717" lon="9.2827183"><ele>329.0</ele><time>2026-05-01T10:30:53.661Z</time></trkpt><trkpt lat="40.9280633" lon="9.2826483"><ele>329.2</ele><time>2026-05-01T10:30:54.661Z</time></trkpt><trkpt lat="40.92796" lon="9.2825667"><ele>329.4</ele><time>2026-05-01T10:30:55.661Z</time></trkpt><trkpt lat="40.927875" lon="9.28253"><ele>329.6</ele><time>2026-05-01T10:30:56.661Z</time></trkpt><trkpt lat="40.9278033" lon="9.2824983"><ele>329.8</ele><time>2026-05-01T10:30:57.661Z</time></trkpt><trkpt lat="40.9277083" lon="9.2824767"><ele>330.0</ele><time>2026-05-01T10:30:58.661Z</time></trkpt><trkpt lat="40.9276167" lon="9.2824467"><ele>330.2</ele><time>2026-05-01T10:30:59.661Z</time></trkpt><trkpt lat="40.92749" lon="9.2824367"><ele>330.4</ele><time>2026-05-01T10:31:00.661Z</time></trkpt><trkpt lat="40.9273967" lon="9.2824067"><ele>330.6</ele><time>2026-05-01T10:31:01.661Z</time></trkpt><trkpt lat="40.9272917" lon="9.2823767"><ele>330.8</ele><time>2026-05-01T10:31:02.661Z</time></trkpt><trkpt lat="40.9271967" lon="9.282375"><ele>331.0</ele><time>2026-05-01T10:31:03.661Z</time></trkpt><trkpt lat="40.9270883" lon="9.2823667"><ele>331.0</ele><time>2026-05-01T10:31:04.662Z</time></trkpt><trkpt lat="40.9269633" lon="9.282375"><ele>331.0</ele><time>2026-05-01T10:31:05.661Z</time></trkpt><trkpt lat="40.92684" lon="9.28239"><ele>331.0</ele><time>2026-05-01T10:31:06.661Z</time></trkpt><trkpt lat="40.92671" lon="9.2824133"><ele>331.0</ele><time>2026-05-01T10:31:07.661Z</time></trkpt><trkpt lat="40.9265917" lon="9.2824567"><ele>331.0</ele><time>2026-05-01T10:31:08.661Z</time></trkpt><trkpt lat="40.926485" lon="9.2824533"><ele>331.0</ele><time>2026-05-01T10:31:09.661Z</time></trkpt><trkpt lat="40.926375" lon="9.2824333"><ele>331.0</ele><time>2026-05-01T10:31:10.661Z</time></trkpt><trkpt lat="40.9262767" lon="9.282445"><ele>331.0</ele><time>2026-05-01T10:31:11.661Z</time></trkpt><trkpt lat="40.9261967" lon="9.2824383"><ele>331.0</ele><time>2026-05-01T10:31:12.661Z</time></trkpt><trkpt lat="40.9260983" lon="9.2824283"><ele>331.0</ele><time>2026-05-01T10:31:13.661Z</time></trkpt><trkpt lat="40.925975" lon="9.2824067"><ele>331.0</ele><time>2026-05-01T10:31:14.661Z</time></trkpt><trkpt lat="40.9258517" lon="9.282375"><ele>331.0</ele><time>2026-05-01T10:31:15.661Z</time></trkpt><trkpt lat="40.9257317" lon="9.2823433"><ele>331.0</ele><time>2026-05-01T10:31:16.661Z</time></trkpt><trkpt lat="40.925625" lon="9.2823067"><ele>330.6</ele><time>2026-05-01T10:31:17.661Z</time></trkpt><trkpt lat="40.9255183" lon="9.28226"><ele>330.20000000000005</ele><time>2026-05-01T10:31:18.661Z</time></trkpt><trkpt lat="40.9254167" lon="9.2821717"><ele>329.79999999999995</ele><time>2026-05-01T10:31:19.661Z</time></trkpt><trkpt lat="40.9253383" lon="9.28207"><ele>329.4</ele><time>2026-05-01T10:31:20.661Z</time></trkpt><trkpt lat="40.92525" lon="9.282025"><ele>329.0</ele><time>2026-05-01T10:31:21.661Z</time></trkpt><trkpt lat="40.9251767" lon="9.2819633"><ele>329.0</ele><time>2026-05-01T10:31:22.661Z</time></trkpt><trkpt lat="40.925115" lon="9.2819083"><ele>329.0</ele><time>2026-05-01T10:31:23.661Z</time></trkpt><trkpt lat="40.9250517" lon="9.281865"><ele>329.0</ele><time>2026-05-01T10:31:24.661Z</time></trkpt><trkpt lat="40.9249633" lon="9.28186"><ele>329.0</ele><time>2026-05-01T10:31:26.661Z</time></trkpt><trkpt lat="40.9249" lon="9.2819083"><ele>329.0</ele><time>2026-05-01T10:31:28.661Z</time></trkpt><trkpt lat="40.9247917" lon="9.2819267"><ele>329.0</ele><time>2026-05-01T10:31:30.661Z</time></trkpt><trkpt lat="40.924685" lon="9.2819983"><ele>329.2</ele><time>2026-05-01T10:31:31.661Z</time></trkpt><trkpt lat="40.9245533" lon="9.2820233"><ele>329.4</ele><time>2026-05-01T10:31:32.661Z</time></trkpt><trkpt lat="40.9244517" lon="9.2820533"><ele>329.6</ele><time>2026-05-01T10:31:33.661Z</time></trkpt><trkpt lat="40.9243517" lon="9.28208"><ele>329.8</ele><time>2026-05-01T10:31:34.661Z</time></trkpt><trkpt lat="40.9242483" lon="9.2821183"><ele>330.0</ele><time>2026-05-01T10:31:35.661Z</time></trkpt><trkpt lat="40.9241417" lon="9.28217"><ele>330.0</ele><time>2026-05-01T10:31:36.661Z</time></trkpt><trkpt lat="40.9240417" lon="9.2822133"><ele>330.0</ele><time>2026-05-01T10:31:37.661Z</time></trkpt><trkpt lat="40.9239183" lon="9.28226"><ele>330.0</ele><time>2026-05-01T10:31:38.661Z</time></trkpt><trkpt lat="40.9238317" lon="9.2823433"><ele>330.0</ele><time>2026-05-01T10:31:39.661Z</time></trkpt><trkpt lat="40.923725" lon="9.28239"><ele>329.0</ele><time>2026-05-01T10:31:40.661Z</time></trkpt><trkpt lat="40.923615" lon="9.28243"><ele>328.0</ele><time>2026-05-01T10:31:41.661Z</time></trkpt><trkpt lat="40.923505" lon="9.282455"><ele>327.0</ele><time>2026-05-01T10:31:42.661Z</time></trkpt><trkpt lat="40.923405" lon="9.2824783"><ele>326.0</ele><time>2026-05-01T10:31:43.661Z</time></trkpt><trkpt lat="40.9233083" lon="9.2824933"><ele>325.0</ele><time>2026-05-01T10:31:44.661Z</time></trkpt><trkpt lat="40.9232167" lon="9.282505"><ele>325.0</ele><time>2026-05-01T10:31:45.661Z</time></trkpt><trkpt lat="40.92313" lon="9.282505"><ele>325.0</ele><time>2026-05-01T10:31:46.661Z</time></trkpt><trkpt lat="40.9230433" lon="9.2824783"><ele>325.0</ele><time>2026-05-01T10:31:47.661Z</time></trkpt><trkpt lat="40.9229633" lon="9.2824517"><ele>325.0</ele><time>2026-05-01T10:31:48.661Z</time></trkpt><trkpt lat="40.92288" lon="9.2824217"><ele>325.0</ele><time>2026-05-01T10:31:49.661Z</time></trkpt><trkpt lat="40.9227983" lon="9.2823917"><ele>325.0</ele><time>2026-05-01T10:31:50.661Z</time></trkpt><trkpt lat="40.922695" lon="9.2823633"><ele>325.0</ele><time>2026-05-01T10:31:52.661Z</time></trkpt><trkpt lat="40.9225967" lon="9.282285"><ele>325.0</ele><time>2026-05-01T10:31:54.661Z</time></trkpt><trkpt lat="40.92254" lon="9.2822433"><ele>325.0</ele><time>2026-05-01T10:31:55.661Z</time></trkpt><trkpt lat="40.9223833" lon="9.2821317"><ele>325.0</ele><time>2026-05-01T10:31:56.661Z</time></trkpt><trkpt lat="40.9222967" lon="9.2820967"><ele>325.0</ele><time>2026-05-01T10:31:57.661Z</time></trkpt><trkpt lat="40.92221" lon="9.2820483"><ele>325.4</ele><time>2026-05-01T10:31:58.661Z</time></trkpt><trkpt lat="40.922175" lon="9.2819717"><ele>325.8</ele><time>2026-05-01T10:31:59.662Z</time></trkpt><trkpt lat="40.9220633" lon="9.2819517"><ele>326.20000000000005</ele><time>2026-05-01T10:32:00.661Z</time></trkpt><trkpt lat="40.9219367" lon="9.2818667"><ele>326.6</ele><time>2026-05-01T10:32:01.661Z</time></trkpt><trkpt lat="40.9218283" lon="9.28182"><ele>327.0</ele><time>2026-05-01T10:32:02.661Z</time></trkpt><trkpt lat="40.9217233" lon="9.281785"><ele>328.20000000000005</ele><time>2026-05-01T10:32:03.661Z</time></trkpt><trkpt lat="40.9216183" lon="9.2817633"><ele>329.4</ele><time>2026-05-01T10:32:04.661Z</time></trkpt><trkpt lat="40.9215067" lon="9.281745"><ele>330.6</ele><time>2026-05-01T10:32:05.661Z</time></trkpt><trkpt lat="40.9213967" lon="9.2817233"><ele>331.79999999999995</ele><time>2026-05-01T10:32:06.661Z</time></trkpt><trkpt lat="40.9212883" lon="9.281685"><ele>333.0</ele><time>2026-05-01T10:32:07.661Z</time></trkpt><trkpt lat="40.9211783" lon="9.2816517"><ele>333.0</ele><time>2026-05-01T10:32:08.661Z</time></trkpt><trkpt lat="40.9210633" lon="9.2816067"><ele>333.0</ele><time>2026-05-01T10:32:09.661Z</time></trkpt><trkpt lat="40.9209517" lon="9.2815517"><ele>333.0</ele><time>2026-05-01T10:32:10.661Z</time></trkpt><trkpt lat="40.9208433" lon="9.28146"><ele>333.0</ele><time>2026-05-01T10:32:11.661Z</time></trkpt><trkpt lat="40.92074" lon="9.2813683"><ele>333.59999999999997</ele><time>2026-05-01T10:32:12.661Z</time></trkpt><trkpt lat="40.92064" lon="9.2812733"><ele>334.2</ele><time>2026-05-01T10:32:13.661Z</time></trkpt><trkpt lat="40.92054" lon="9.2812167"><ele>334.8</ele><time>2026-05-01T10:32:14.661Z</time></trkpt><trkpt lat="40.92044" lon="9.2811583"><ele>335.4</ele><time>2026-05-01T10:32:16.661Z</time></trkpt><trkpt lat="40.9203667" lon="9.2811717"><ele>336.0</ele><time>2026-05-01T10:32:17.661Z</time></trkpt><trkpt lat="40.9202883" lon="9.2811617"><ele>336.0</ele><time>2026-05-01T10:32:18.661Z</time></trkpt><trkpt lat="40.9202183" lon="9.281195"><ele>336.0</ele><time>2026-05-01T10:32:19.661Z</time></trkpt><trkpt lat="40.920125" lon="9.2811817"><ele>336.0</ele><time>2026-05-01T10:32:20.661Z</time></trkpt><trkpt lat="40.9200617" lon="9.2812183"><ele>336.0</ele><time>2026-05-01T10:32:21.661Z</time></trkpt><trkpt lat="40.919995" lon="9.2812633"><ele>336.0</ele><time>2026-05-01T10:32:22.661Z</time></trkpt><trkpt lat="40.9198933" lon="9.2812667"><ele>336.0</ele><time>2026-05-01T10:32:23.661Z</time></trkpt><trkpt lat="40.9198083" lon="9.2812883"><ele>339.0</ele><time>2026-05-01T10:32:24.661Z</time></trkpt><trkpt lat="40.9197017" lon="9.2812483"><ele>342.0</ele><time>2026-05-01T10:32:25.661Z</time></trkpt><trkpt lat="40.9196033" lon="9.28125"><ele>345.0</ele><time>2026-05-01T10:32:26.662Z</time></trkpt><trkpt lat="40.919525" lon="9.2812517"><ele>348.0</ele><time>2026-05-01T10:32:27.661Z</time></trkpt><trkpt lat="40.9194167" lon="9.2811967"><ele>351.0</ele><time>2026-05-01T10:32:28.661Z</time></trkpt><trkpt lat="40.919325" lon="9.2811683"><ele>351.0</ele><time>2026-05-01T10:32:29.661Z</time></trkpt><trkpt lat="40.9192533" lon="9.2811683"><ele>351.0</ele><time>2026-05-01T10:32:31.661Z</time></trkpt><trkpt lat="40.91923" lon="9.2810883"><ele>351.0</ele><time>2026-05-01T10:32:41.661Z</time></trkpt><trkpt lat="40.91919" lon="9.2810067"><ele>351.0</ele><time>2026-05-01T10:32:44.661Z</time></trkpt><trkpt lat="40.9192733" lon="9.2810283"><ele>351.0</ele><time>2026-05-01T10:32:59.661Z</time></trkpt><trkpt lat="40.9193717" lon="9.281055"><ele>351.0</ele><time>2026-05-01T10:33:01.661Z</time></trkpt><trkpt lat="40.9194583" lon="9.281055"><ele>351.0</ele><time>2026-05-01T10:33:03.661Z</time></trkpt><trkpt lat="40.9195267" lon="9.28104"><ele>351.0</ele><time>2026-05-01T10:33:05.661Z</time></trkpt><trkpt lat="40.91958" lon="9.28098"><ele>351.0</ele><time>2026-05-01T10:33:09.661Z</time></trkpt><trkpt lat="40.919485" lon="9.2809633"><ele>351.0</ele><time>2026-05-01T10:33:20.661Z</time></trkpt><trkpt lat="40.9194017" lon="9.2809583"><ele>351.0</ele><time>2026-05-01T10:33:22.661Z</time></trkpt><trkpt lat="40.9192883" lon="9.28095"><ele>351.0</ele><time>2026-05-01T10:33:24.661Z</time></trkpt><trkpt lat="40.9191817" lon="9.2808783"><ele>351.5</ele><time>2026-05-01T10:33:26.661Z</time></trkpt><trkpt lat="40.9191183" lon="9.280825"><ele>352.0</ele><time>2026-05-01T10:33:27.661Z</time></trkpt><trkpt lat="40.9190417" lon="9.2807633"><ele>352.5</ele><time>2026-05-01T10:33:28.661Z</time></trkpt><trkpt lat="40.91897" lon="9.2807083"><ele>353.0</ele><time>2026-05-01T10:33:29.661Z</time></trkpt><trkpt lat="40.9189033" lon="9.28067"><ele>353.5</ele><time>2026-05-01T10:33:30.661Z</time></trkpt><trkpt lat="40.9188317" lon="9.280635"><ele>354.0</ele><time>2026-05-01T10:33:31.661Z</time></trkpt><trkpt lat="40.9187267" lon="9.2805933"><ele>354.0</ele><time>2026-05-01T10:33:33.661Z</time></trkpt><trkpt lat="40.9186533" lon="9.2805667"><ele>354.0</ele><time>2026-05-01T10:33:34.661Z</time></trkpt><trkpt lat="40.9185717" lon="9.2805383"><ele>354.0</ele><time>2026-05-01T10:33:35.661Z</time></trkpt><trkpt lat="40.9184967" lon="9.2805167"><ele>354.0</ele><time>2026-05-01T10:33:36.661Z</time></trkpt><trkpt lat="40.918415" lon="9.2804817"><ele>354.0</ele><time>2026-05-01T10:33:37.661Z</time></trkpt><trkpt lat="40.9183267" lon="9.28044"><ele>354.0</ele><time>2026-05-01T10:33:38.661Z</time></trkpt><trkpt lat="40.91822" lon="9.2803967"><ele>353.6666666666667</ele><time>2026-05-01T10:33:39.661Z</time></trkpt><trkpt lat="40.918005" lon="9.280285"><ele>353.33333333333337</ele><time>2026-05-01T10:33:41.661Z</time></trkpt><trkpt lat="40.9178967" lon="9.280235"><ele>353.0</ele><time>2026-05-01T10:33:42.661Z</time></trkpt><trkpt lat="40.9177917" lon="9.2801933"><ele>353.0</ele><time>2026-05-01T10:33:43.661Z</time></trkpt><trkpt lat="40.9176933" lon="9.2801533"><ele>353.0</ele><time>2026-05-01T10:33:44.661Z</time></trkpt><trkpt lat="40.9176117" lon="9.2801033"><ele>353.0</ele><time>2026-05-01T10:33:45.661Z</time></trkpt><trkpt lat="40.9175217" lon="9.2800433"><ele>353.0</ele><time>2026-05-01T10:33:46.661Z</time></trkpt><trkpt lat="40.9174483" lon="9.279965"><ele>353.0</ele><time>2026-05-01T10:33:47.661Z</time></trkpt><trkpt lat="40.9173933" lon="9.279865"><ele>353.5</ele><time>2026-05-01T10:33:48.661Z</time></trkpt><trkpt lat="40.9173383" lon="9.2797583"><ele>354.0</ele><time>2026-05-01T10:33:49.661Z</time></trkpt><trkpt lat="40.9172867" lon="9.2796633"><ele>354.5</ele><time>2026-05-01T10:33:50.661Z</time></trkpt><trkpt lat="40.9172317" lon="9.27958"><ele>355.0</ele><time>2026-05-01T10:33:51.661Z</time></trkpt><trkpt lat="40.917165" lon="9.2795217"><ele>355.5</ele><time>2026-05-01T10:33:52.661Z</time></trkpt><trkpt lat="40.9170767" lon="9.27948"><ele>356.0</ele><time>2026-05-01T10:33:53.661Z</time></trkpt><trkpt lat="40.916985" lon="9.2794483"><ele>356.0</ele><time>2026-05-01T10:33:54.661Z</time></trkpt><trkpt lat="40.9168817" lon="9.2794383"><ele>356.0</ele><time>2026-05-01T10:33:55.661Z</time></trkpt><trkpt lat="40.9167817" lon="9.27946"><ele>356.0</ele><time>2026-05-01T10:33:56.661Z</time></trkpt><trkpt lat="40.9165567" lon="9.2795183"><ele>356.0</ele><time>2026-05-01T10:33:58.661Z</time></trkpt><trkpt lat="40.91645" lon="9.2795017"><ele>358.20000000000005</ele><time>2026-05-01T10:33:59.661Z</time></trkpt><trkpt lat="40.9163467" lon="9.2794617"><ele>360.40000000000003</ele><time>2026-05-01T10:34:00.661Z</time></trkpt><trkpt lat="40.9162517" lon="9.2793967"><ele>362.6</ele><time>2026-05-01T10:34:01.661Z</time></trkpt><trkpt lat="40.9161617" lon="9.2793217"><ele>364.8</ele><time>2026-05-01T10:34:02.661Z</time></trkpt><trkpt lat="40.91608" lon="9.279235"><ele>367.0</ele><time>2026-05-01T10:34:03.661Z</time></trkpt><trkpt lat="40.9160033" lon="9.279155"><ele>367.0</ele><time>2026-05-01T10:34:04.661Z</time></trkpt><trkpt lat="40.9159133" lon="9.2790933"><ele>367.0</ele><time>2026-05-01T10:34:05.661Z</time></trkpt><trkpt lat="40.9158233" lon="9.2790483"><ele>367.0</ele><time>2026-05-01T10:34:06.661Z</time></trkpt><trkpt lat="40.9156083" lon="9.2790717"><ele>367.0</ele><time>2026-05-01T10:34:08.661Z</time></trkpt><trkpt lat="40.9155367" lon="9.2790783"><ele>368.5</ele><time>2026-05-01T10:34:09.662Z</time></trkpt><trkpt lat="40.9154617" lon="9.27906"><ele>370.0</ele><time>2026-05-01T10:34:10.661Z</time></trkpt><trkpt lat="40.915385" lon="9.279025"><ele>371.5</ele><time>2026-05-01T10:34:11.661Z</time></trkpt><trkpt lat="40.915305" lon="9.2789933"><ele>373.0</ele><time>2026-05-01T10:34:12.661Z</time></trkpt><trkpt lat="40.9152217" lon="9.2789517"><ele>374.5</ele><time>2026-05-01T10:34:13.661Z</time></trkpt><trkpt lat="40.9151467" lon="9.2788967"><ele>376.0</ele><time>2026-05-01T10:34:14.661Z</time></trkpt><trkpt lat="40.9150817" lon="9.2788033"><ele>376.20000000000005</ele><time>2026-05-01T10:34:15.661Z</time></trkpt><trkpt lat="40.915005" lon="9.278705"><ele>376.40000000000003</ele><time>2026-05-01T10:34:16.661Z</time></trkpt><trkpt lat="40.91494" lon="9.2786017"><ele>376.6</ele><time>2026-05-01T10:34:17.661Z</time></trkpt><trkpt lat="40.9148717" lon="9.27849"><ele>376.8</ele><time>2026-05-01T10:34:18.661Z</time></trkpt><trkpt lat="40.91481" lon="9.2783683"><ele>377.0</ele><time>2026-05-01T10:34:19.661Z</time></trkpt><trkpt lat="40.9147367" lon="9.27825"><ele>377.0</ele><time>2026-05-01T10:34:20.661Z</time></trkpt><trkpt lat="40.914675" lon="9.2781217"><ele>377.0</ele><time>2026-05-01T10:34:21.661Z</time></trkpt><trkpt lat="40.9146167" lon="9.2780083"><ele>377.0</ele><time>2026-05-01T10:34:22.661Z</time></trkpt><trkpt lat="40.9145633" lon="9.2779083"><ele>377.0</ele><time>2026-05-01T10:34:23.661Z</time></trkpt><trkpt lat="40.914515" lon="9.2778083"><ele>377.0</ele><time>2026-05-01T10:34:24.661Z</time></trkpt><trkpt lat="40.9144633" lon="9.2777117"><ele>376.33333333333337</ele><time>2026-05-01T10:34:25.661Z</time></trkpt><trkpt lat="40.9144117" lon="9.277635"><ele>375.6666666666667</ele><time>2026-05-01T10:34:26.662Z</time></trkpt><trkpt lat="40.9143733" lon="9.27755"><ele>375.0</ele><time>2026-05-01T10:34:27.661Z</time></trkpt><trkpt lat="40.9143517" lon="9.27744"><ele>374.3333333333333</ele><time>2026-05-01T10:34:29.661Z</time></trkpt><trkpt lat="40.914425" lon="9.27739"><ele>373.66666666666663</ele><time>2026-05-01T10:34:31.661Z</time></trkpt><trkpt lat="40.9145" lon="9.277385"><ele>373.0</ele><time>2026-05-01T10:34:32.661Z</time></trkpt><trkpt lat="40.9146283" lon="9.2773667"><ele>373.0</ele><time>2026-05-01T10:34:34.661Z</time></trkpt><trkpt lat="40.9147267" lon="9.2773467"><ele>373.0</ele><time>2026-05-01T10:34:35.661Z</time></trkpt><trkpt lat="40.914825" lon="9.2773067"><ele>373.0</ele><time>2026-05-01T10:34:36.661Z</time></trkpt><trkpt lat="40.9149017" lon="9.277295"><ele>373.0</ele><time>2026-05-01T10:34:37.661Z</time></trkpt><trkpt lat="40.9149967" lon="9.2772833"><ele>373.0</ele><time>2026-05-01T10:34:38.661Z</time></trkpt><trkpt lat="40.91508" lon="9.2772733"><ele>371.8333333333333</ele><time>2026-05-01T10:34:39.661Z</time></trkpt><trkpt lat="40.91515" lon="9.2772483"><ele>370.66666666666663</ele><time>2026-05-01T10:34:40.661Z</time></trkpt><trkpt lat="40.915225" lon="9.2772317"><ele>369.5</ele><time>2026-05-01T10:34:41.661Z</time></trkpt><trkpt lat="40.9152883" lon="9.2772333"><ele>368.3333333333333</ele><time>2026-05-01T10:34:42.661Z</time></trkpt><trkpt lat="40.9153367" lon="9.27715"><ele>367.1666666666667</ele><time>2026-05-01T10:34:49.661Z</time></trkpt><trkpt lat="40.9153033" lon="9.2770633"><ele>366.0</ele><time>2026-05-01T10:34:51.661Z</time></trkpt><trkpt lat="40.9152283" lon="9.2769433"><ele>366.0</ele><time>2026-05-01T10:34:53.661Z</time></trkpt><trkpt lat="40.9151433" lon="9.2768617"><ele>366.0</ele><time>2026-05-01T10:34:54.661Z</time></trkpt><trkpt lat="40.91506" lon="9.2767783"><ele>366.0</ele><time>2026-05-01T10:34:55.661Z</time></trkpt><trkpt lat="40.91496" lon="9.276685"><ele>366.0</ele><time>2026-05-01T10:34:56.661Z</time></trkpt><trkpt lat="40.9148633" lon="9.2765717"><ele>366.20000000000005</ele><time>2026-05-01T10:34:57.661Z</time></trkpt><trkpt lat="40.9147567" lon="9.276465"><ele>366.40000000000003</ele><time>2026-05-01T10:34:58.661Z</time></trkpt><trkpt lat="40.9146667" lon="9.2763517"><ele>366.6</ele><time>2026-05-01T10:34:59.661Z</time></trkpt><trkpt lat="40.9145917" lon="9.2762833"><ele>366.8</ele><time>2026-05-01T10:35:00.661Z</time></trkpt><trkpt lat="40.9145583" lon="9.2762083"><ele>367.0</ele><time>2026-05-01T10:35:01.661Z</time></trkpt><trkpt lat="40.91449" lon="9.2761267"><ele>367.16666666666663</ele><time>2026-05-01T10:35:02.662Z</time></trkpt><trkpt lat="40.9144383" lon="9.27607"><ele>367.3333333333333</ele><time>2026-05-01T10:35:03.661Z</time></trkpt><trkpt lat="40.9143733" lon="9.2759683"><ele>367.5</ele><time>2026-05-01T10:35:05.661Z</time></trkpt><trkpt lat="40.9143083" lon="9.2759133"><ele>367.6666666666667</ele><time>2026-05-01T10:35:06.661Z</time></trkpt><trkpt lat="40.91426" lon="9.275855"><ele>367.83333333333337</ele><time>2026-05-01T10:35:07.661Z</time></trkpt><trkpt lat="40.91421" lon="9.275775"><ele>368.0</ele><time>2026-05-01T10:35:08.661Z</time></trkpt><trkpt lat="40.9141667" lon="9.2756917"><ele>369.0</ele><time>2026-05-01T10:35:09.661Z</time></trkpt><trkpt lat="40.91412" lon="9.2755983"><ele>370.0</ele><time>2026-05-01T10:35:10.662Z</time></trkpt><trkpt lat="40.9140717" lon="9.275505"><ele>371.0</ele><time>2026-05-01T10:35:11.661Z</time></trkpt><trkpt lat="40.914025" lon="9.2754033"><ele>372.0</ele><time>2026-05-01T10:35:12.661Z</time></trkpt><trkpt lat="40.9139733" lon="9.27531"><ele>373.0</ele><time>2026-05-01T10:35:13.661Z</time></trkpt><trkpt lat="40.913915" lon="9.2752067"><ele>374.0</ele><time>2026-05-01T10:35:14.661Z</time></trkpt><trkpt lat="40.913855" lon="9.275095"><ele>374.0</ele><time>2026-05-01T10:35:15.661Z</time></trkpt><trkpt lat="40.9137933" lon="9.2749833"><ele>374.0</ele><time>2026-05-01T10:35:16.661Z</time></trkpt><trkpt lat="40.9137483" lon="9.2748833"><ele>374.0</ele><time>2026-05-01T10:35:17.661Z</time></trkpt><trkpt lat="40.9137033" lon="9.2747867"><ele>374.0</ele><time>2026-05-01T10:35:18.661Z</time></trkpt><trkpt lat="40.913665" lon="9.2746867"><ele>374.0</ele><time>2026-05-01T10:35:19.661Z</time></trkpt><trkpt lat="40.91363" lon="9.274575"><ele>374.6</ele><time>2026-05-01T10:35:20.661Z</time></trkpt><trkpt lat="40.913585" lon="9.2744817"><ele>375.2</ele><time>2026-05-01T10:35:21.661Z</time></trkpt><trkpt lat="40.9135417" lon="9.274375"><ele>375.8</ele><time>2026-05-01T10:35:22.661Z</time></trkpt><trkpt lat="40.9134633" lon="9.2742683"><ele>376.40000000000003</ele><time>2026-05-01T10:35:23.661Z</time></trkpt><trkpt lat="40.913395" lon="9.274155"><ele>377.0</ele><time>2026-05-01T10:35:24.662Z</time></trkpt><trkpt lat="40.91331" lon="9.274045"><ele>380.75</ele><time>2026-05-01T10:35:25.661Z</time></trkpt><trkpt lat="40.9132267" lon="9.2739383"><ele>384.5</ele><time>2026-05-01T10:35:26.661Z</time></trkpt><trkpt lat="40.9131517" lon="9.2738183"><ele>388.25</ele><time>2026-05-01T10:35:27.661Z</time></trkpt><trkpt lat="40.9130783" lon="9.2736933"><ele>392.0</ele><time>2026-05-01T10:35:28.661Z</time></trkpt><trkpt lat="40.9130083" lon="9.273565"><ele>392.0</ele><time>2026-05-01T10:35:29.661Z</time></trkpt><trkpt lat="40.9129267" lon="9.2734367"><ele>392.0</ele><time>2026-05-01T10:35:30.661Z</time></trkpt><trkpt lat="40.9128317" lon="9.2733067"><ele>392.0</ele><time>2026-05-01T10:35:31.661Z</time></trkpt><trkpt lat="40.912745" lon="9.2731783"><ele>392.0</ele><time>2026-05-01T10:35:32.662Z</time></trkpt><trkpt lat="40.9126533" lon="9.27305"><ele>398.5</ele><time>2026-05-01T10:35:33.661Z</time></trkpt><trkpt lat="40.9125633" lon="9.27292"><ele>405.0</ele><time>2026-05-01T10:35:34.661Z</time></trkpt><trkpt lat="40.9124917" lon="9.27279"><ele>411.5</ele><time>2026-05-01T10:35:35.661Z</time></trkpt><trkpt lat="40.9124283" lon="9.2726767"><ele>418.0</ele><time>2026-05-01T10:35:36.661Z</time></trkpt><trkpt lat="40.9123617" lon="9.272565"><ele>418.0</ele><time>2026-05-01T10:35:37.661Z</time></trkpt><trkpt lat="40.912295" lon="9.272435"><ele>418.0</ele><time>2026-05-01T10:35:38.661Z</time></trkpt><trkpt lat="40.9122217" lon="9.272305"><ele>418.0</ele><time>2026-05-01T10:35:39.662Z</time></trkpt><trkpt lat="40.91214" lon="9.272165"><ele>418.0</ele><time>2026-05-01T10:35:40.661Z</time></trkpt><trkpt lat="40.91209" lon="9.272035"><ele>419.2</ele><time>2026-05-01T10:35:41.661Z</time></trkpt><trkpt lat="40.9120167" lon="9.2719133"><ele>420.4</ele><time>2026-05-01T10:35:42.661Z</time></trkpt><trkpt lat="40.91193" lon="9.2717883"><ele>421.59999999999997</ele><time>2026-05-01T10:35:43.661Z</time></trkpt><trkpt lat="40.911855" lon="9.27169"><ele>422.79999999999995</ele><time>2026-05-01T10:35:44.661Z</time></trkpt><trkpt lat="40.9117883" lon="9.2716067"><ele>424.0</ele><time>2026-05-01T10:35:45.661Z</time></trkpt><trkpt lat="40.9117383" lon="9.27153"><ele>426.00000000000006</ele><time>2026-05-01T10:35:46.661Z</time></trkpt><trkpt lat="40.91171" lon="9.2714533"><ele>428.0</ele><time>2026-05-01T10:35:47.661Z</time></trkpt><trkpt lat="40.9116883" lon="9.2713683"><ele>430.0</ele><time>2026-05-01T10:35:48.661Z</time></trkpt><trkpt lat="40.9116717" lon="9.2712717"><ele>432.0</ele><time>2026-05-01T10:35:49.661Z</time></trkpt><trkpt lat="40.9116783" lon="9.2711467"><ele>434.00000000000006</ele><time>2026-05-01T10:35:50.661Z</time></trkpt><trkpt lat="40.9116817" lon="9.2710083"><ele>436.0</ele><time>2026-05-01T10:35:51.661Z</time></trkpt><trkpt lat="40.9116967" lon="9.2708633"><ele>436.6</ele><time>2026-05-01T10:35:52.661Z</time></trkpt><trkpt lat="40.91171" lon="9.27071"><ele>437.20000000000005</ele><time>2026-05-01T10:35:53.661Z</time></trkpt><trkpt lat="40.9117217" lon="9.2705683"><ele>437.79999999999995</ele><time>2026-05-01T10:35:54.661Z</time></trkpt><trkpt lat="40.9117283" lon="9.2704317"><ele>438.4</ele><time>2026-05-01T10:35:55.661Z</time></trkpt><trkpt lat="40.9117533" lon="9.2702883"><ele>439.0</ele><time>2026-05-01T10:35:56.661Z</time></trkpt><trkpt lat="40.9117733" lon="9.2701367"><ele>439.0</ele><time>2026-05-01T10:35:57.661Z</time></trkpt><trkpt lat="40.9117917" lon="9.2699833"><ele>439.0</ele><time>2026-05-01T10:35:58.661Z</time></trkpt><trkpt lat="40.911815" lon="9.26983"><ele>439.0</ele><time>2026-05-01T10:35:59.661Z</time></trkpt><trkpt lat="40.9118317" lon="9.2696783"><ele>439.0</ele><time>2026-05-01T10:36:00.661Z</time></trkpt><trkpt lat="40.91187" lon="9.2695283"><ele>441.5</ele><time>2026-05-01T10:36:01.661Z</time></trkpt><trkpt lat="40.9119167" lon="9.2693683"><ele>444.0</ele><time>2026-05-01T10:36:02.661Z</time></trkpt><trkpt lat="40.91195" lon="9.2692117"><ele>446.5</ele><time>2026-05-01T10:36:03.661Z</time></trkpt><trkpt lat="40.91197" lon="9.26907"><ele>449.0</ele><time>2026-05-01T10:36:04.661Z</time></trkpt><trkpt lat="40.91199" lon="9.26893"><ele>453.75</ele><time>2026-05-01T10:36:05.661Z</time></trkpt><trkpt lat="40.9119967" lon="9.2687867"><ele>458.5</ele><time>2026-05-01T10:36:06.661Z</time></trkpt><trkpt lat="40.9120167" lon="9.268635"><ele>463.25</ele><time>2026-05-01T10:36:07.661Z</time></trkpt><trkpt lat="40.9120383" lon="9.2684833"><ele>468.0</ele><time>2026-05-01T10:36:08.661Z</time></trkpt><trkpt lat="40.9120633" lon="9.2683333"><ele>468.0</ele><time>2026-05-01T10:36:09.661Z</time></trkpt><trkpt lat="40.9120833" lon="9.268185"><ele>468.0</ele><time>2026-05-01T10:36:10.661Z</time></trkpt><trkpt lat="40.912105" lon="9.2680317"><ele>468.0</ele><time>2026-05-01T10:36:11.662Z</time></trkpt><trkpt lat="40.912155" lon="9.2678867"><ele>468.0</ele><time>2026-05-01T10:36:12.661Z</time></trkpt><trkpt lat="40.91218" lon="9.2677517"><ele>472.4</ele><time>2026-05-01T10:36:13.661Z</time></trkpt><trkpt lat="40.91223" lon="9.2676267"><ele>476.79999999999995</ele><time>2026-05-01T10:36:14.661Z</time></trkpt><trkpt lat="40.9122767" lon="9.2675133"><ele>481.2</ele><time>2026-05-01T10:36:15.661Z</time></trkpt><trkpt lat="40.9123383" lon="9.2673883"><ele>485.6</ele><time>2026-05-01T10:36:16.661Z</time></trkpt><trkpt lat="40.9124033" lon="9.2672633"><ele>490.0</ele><time>2026-05-01T10:36:17.661Z</time></trkpt><trkpt lat="40.9124567" lon="9.2671283"><ele>490.0</ele><time>2026-05-01T10:36:18.661Z</time></trkpt><trkpt lat="40.9125117" lon="9.2670017"><ele>490.0</ele><time>2026-05-01T10:36:19.661Z</time></trkpt><trkpt lat="40.9125833" lon="9.266895"><ele>490.0</ele><time>2026-05-01T10:36:20.661Z</time></trkpt><trkpt lat="40.91266" lon="9.2667983"><ele>490.0</ele><time>2026-05-01T10:36:21.661Z</time></trkpt><trkpt lat="40.912745" lon="9.266715"><ele>490.0</ele><time>2026-05-01T10:36:22.661Z</time></trkpt><trkpt lat="40.9128067" lon="9.26661"><ele>490.0</ele><time>2026-05-01T10:36:23.661Z</time></trkpt><trkpt lat="40.912835" lon="9.2665017"><ele>490.0</ele><time>2026-05-01T10:36:24.661Z</time></trkpt><trkpt lat="40.9128567" lon="9.2663883"><ele>490.0</ele><time>2026-05-01T10:36:25.661Z</time></trkpt><trkpt lat="40.912865" lon="9.2662767"><ele>490.0</ele><time>2026-05-01T10:36:26.661Z</time></trkpt><trkpt lat="40.9128567" lon="9.2661467"><ele>490.0</ele><time>2026-05-01T10:36:27.661Z</time></trkpt><trkpt lat="40.91284" lon="9.266015"><ele>490.6666666666667</ele><time>2026-05-01T10:36:28.661Z</time></trkpt><trkpt lat="40.9128117" lon="9.2659017"><ele>491.33333333333337</ele><time>2026-05-01T10:36:29.661Z</time></trkpt><trkpt lat="40.9127983" lon="9.2657833"><ele>492.0</ele><time>2026-05-01T10:36:30.661Z</time></trkpt><trkpt lat="40.9127767" lon="9.2656717"><ele>492.66666666666663</ele><time>2026-05-01T10:36:31.661Z</time></trkpt><trkpt lat="40.9127467" lon="9.2655733"><ele>493.3333333333333</ele><time>2026-05-01T10:36:32.661Z</time></trkpt><trkpt lat="40.9127117" lon="9.265485"><ele>494.0</ele><time>2026-05-01T10:36:33.661Z</time></trkpt><trkpt lat="40.9126633" lon="9.26541"><ele>495.0</ele><time>2026-05-01T10:36:34.661Z</time></trkpt><trkpt lat="40.912615" lon="9.2653283"><ele>496.0</ele><time>2026-05-01T10:36:35.662Z</time></trkpt><trkpt lat="40.9125267" lon="9.265255"><ele>497.0</ele><time>2026-05-01T10:36:36.661Z</time></trkpt><trkpt lat="40.9124417" lon="9.265175"><ele>498.0</ele><time>2026-05-01T10:36:37.661Z</time></trkpt><trkpt lat="40.9123483" lon="9.2650933"><ele>499.0</ele><time>2026-05-01T10:36:38.661Z</time></trkpt><trkpt lat="40.912265" lon="9.2650067"><ele>500.79999999999995</ele><time>2026-05-01T10:36:39.661Z</time></trkpt><trkpt lat="40.9121867" lon="9.26493"><ele>502.59999999999997</ele><time>2026-05-01T10:36:40.661Z</time></trkpt><trkpt lat="40.912105" lon="9.2648483"><ele>504.4</ele><time>2026-05-01T10:36:41.661Z</time></trkpt><trkpt lat="40.9120217" lon="9.26476"><ele>506.2</ele><time>2026-05-01T10:36:42.661Z</time></trkpt><trkpt lat="40.9119367" lon="9.264655"><ele>508.0</ele><time>2026-05-01T10:36:43.661Z</time></trkpt><trkpt lat="40.9118517" lon="9.2645617"><ele>508.0</ele><time>2026-05-01T10:36:44.661Z</time></trkpt><trkpt lat="40.9117667" lon="9.264485"><ele>507.99999999999994</ele><time>2026-05-01T10:36:45.661Z</time></trkpt><trkpt lat="40.91168" lon="9.2644083"><ele>507.99999999999994</ele><time>2026-05-01T10:36:46.661Z</time></trkpt><trkpt lat="40.91159" lon="9.2643267"><ele>508.0</ele><time>2026-05-01T10:36:47.661Z</time></trkpt><trkpt lat="40.911505" lon="9.2642417"><ele>508.0</ele><time>2026-05-01T10:36:48.661Z</time></trkpt><trkpt lat="40.9114217" lon="9.264155"><ele>509.79999999999995</ele><time>2026-05-01T10:36:49.661Z</time></trkpt><trkpt lat="40.911335" lon="9.2640633"><ele>511.59999999999997</ele><time>2026-05-01T10:36:50.662Z</time></trkpt><trkpt lat="40.9112467" lon="9.2639833"><ele>513.4000000000001</ele><time>2026-05-01T10:36:51.661Z</time></trkpt><trkpt lat="40.9111583" lon="9.26392"><ele>515.2</ele><time>2026-05-01T10:36:52.661Z</time></trkpt><trkpt lat="40.91107" lon="9.2638667"><ele>517.0</ele><time>2026-05-01T10:36:53.661Z</time></trkpt><trkpt lat="40.910975" lon="9.263815"><ele>520.2</ele><time>2026-05-01T10:36:54.661Z</time></trkpt><trkpt lat="40.9108767" lon="9.2637783"><ele>523.4000000000001</ele><time>2026-05-01T10:36:55.661Z</time></trkpt><trkpt lat="40.91078" lon="9.2637317"><ele>526.5999999999999</ele><time>2026-05-01T10:36:56.661Z</time></trkpt><trkpt lat="40.9106933" lon="9.2636733"><ele>529.8</ele><time>2026-05-01T10:36:57.661Z</time></trkpt><trkpt lat="40.9106083" lon="9.2636067"><ele>533.0</ele><time>2026-05-01T10:36:58.661Z</time></trkpt><trkpt lat="40.9105283" lon="9.2635267"><ele>533.0</ele><time>2026-05-01T10:36:59.661Z</time></trkpt><trkpt lat="40.9104417" lon="9.2634483"><ele>533.0</ele><time>2026-05-01T10:37:00.661Z</time></trkpt><trkpt lat="40.9103433" lon="9.2633633"><ele>533.0</ele><time>2026-05-01T10:37:01.661Z</time></trkpt><trkpt lat="40.9102583" lon="9.26328"><ele>533.0</ele><time>2026-05-01T10:37:02.661Z</time></trkpt><trkpt lat="40.9101783" lon="9.2631883"><ele>533.0</ele><time>2026-05-01T10:37:03.661Z</time></trkpt><trkpt lat="40.9101033" lon="9.2631133"><ele>538.1666666666666</ele><time>2026-05-01T10:37:04.661Z</time></trkpt><trkpt lat="40.910025" lon="9.2630533"><ele>543.3333333333333</ele><time>2026-05-01T10:37:05.661Z</time></trkpt><trkpt lat="40.9099383" lon="9.26301"><ele>548.5</ele><time>2026-05-01T10:37:06.661Z</time></trkpt><trkpt lat="40.9098517" lon="9.2629933"><ele>553.6666666666666</ele><time>2026-05-01T10:37:07.661Z</time></trkpt><trkpt lat="40.909775" lon="9.2629967"><ele>558.8333333333334</ele><time>2026-05-01T10:37:08.661Z</time></trkpt><trkpt lat="40.909705" lon="9.2630017"><ele>564.0</ele><time>2026-05-01T10:37:09.661Z</time></trkpt><trkpt lat="40.90964" lon="9.2629917"><ele>564.0</ele><time>2026-05-01T10:37:10.661Z</time></trkpt><trkpt lat="40.909555" lon="9.2629167"><ele>564.0</ele><time>2026-05-01T10:37:12.661Z</time></trkpt><trkpt lat="40.9095333" lon="9.2627833"><ele>564.0</ele><time>2026-05-01T10:37:14.661Z</time></trkpt><trkpt lat="40.90955" lon="9.262695"><ele>564.0</ele><time>2026-05-01T10:37:15.661Z</time></trkpt><trkpt lat="40.9095317" lon="9.2625833"><ele>564.0</ele><time>2026-05-01T10:37:17.661Z</time></trkpt><trkpt lat="40.9094417" lon="9.2625667"><ele>564.0</ele><time>2026-05-01T10:37:20.661Z</time></trkpt><trkpt lat="40.90938" lon="9.2626033"><ele>564.0</ele><time>2026-05-01T10:37:21.661Z</time></trkpt><trkpt lat="40.9093117" lon="9.2626183"><ele>564.0</ele><time>2026-05-01T10:37:23.661Z</time></trkpt><trkpt lat="40.9093033" lon="9.26248"><ele>564.0</ele><time>2026-05-01T10:37:27.661Z</time></trkpt><trkpt lat="40.9093233" lon="9.2623483"><ele>564.0</ele><time>2026-05-01T10:37:29.661Z</time></trkpt><trkpt lat="40.9093567" lon="9.262195"><ele>567.8</ele><time>2026-05-01T10:37:30.661Z</time></trkpt><trkpt lat="40.9094333" lon="9.2620767"><ele>571.5999999999999</ele><time>2026-05-01T10:37:31.661Z</time></trkpt><trkpt lat="40.9095183" lon="9.2619733"><ele>575.4</ele><time>2026-05-01T10:37:32.661Z</time></trkpt><trkpt lat="40.909595" lon="9.2618667"><ele>579.1999999999999</ele><time>2026-05-01T10:37:33.661Z</time></trkpt><trkpt lat="40.909655" lon="9.2617833"><ele>583.0</ele><time>2026-05-01T10:37:34.661Z</time></trkpt><trkpt lat="40.909705" lon="9.2617067"><ele>583.0</ele><time>2026-05-01T10:37:35.661Z</time></trkpt><trkpt lat="40.9097217" lon="9.2615867"><ele>583.0</ele><time>2026-05-01T10:37:37.661Z</time></trkpt><trkpt lat="40.9096567" lon="9.2616283"><ele>583.0</ele><time>2026-05-01T10:37:39.661Z</time></trkpt><trkpt lat="40.9095833" lon="9.2616733"><ele>583.0</ele><time>2026-05-01T10:37:40.661Z</time></trkpt><trkpt lat="40.9095217" lon="9.261705"><ele>583.0</ele><time>2026-05-01T10:37:41.661Z</time></trkpt><trkpt lat="40.9094317" lon="9.2617317"><ele>583.0</ele><time>2026-05-01T10:37:42.662Z</time></trkpt><trkpt lat="40.909335" lon="9.2617467"><ele>588.4</ele><time>2026-05-01T10:37:43.661Z</time></trkpt><trkpt lat="40.9092317" lon="9.2617783"><ele>593.8</ele><time>2026-05-01T10:37:44.661Z</time></trkpt><trkpt lat="40.9091217" lon="9.2617967"><ele>599.2</ele><time>2026-05-01T10:37:45.661Z</time></trkpt><trkpt lat="40.9089933" lon="9.2618183"><ele>604.6</ele><time>2026-05-01T10:37:46.661Z</time></trkpt><trkpt lat="40.9088967" lon="9.261845"><ele>610.0</ele><time>2026-05-01T10:37:47.661Z</time></trkpt><trkpt lat="40.9088" lon="9.2619017"><ele>610.0</ele><time>2026-05-01T10:37:48.661Z</time></trkpt><trkpt lat="40.9087233" lon="9.26193"><ele>610.0</ele><time>2026-05-01T10:37:49.661Z</time></trkpt><trkpt lat="40.908635" lon="9.2619267"><ele>610.0</ele><time>2026-05-01T10:37:51.661Z</time></trkpt><trkpt lat="40.9086817" lon="9.26183"><ele>610.0</ele><time>2026-05-01T10:37:54.661Z</time></trkpt><trkpt lat="40.9087767" lon="9.2617033"><ele>610.0</ele><time>2026-05-01T10:37:56.661Z</time></trkpt><trkpt lat="40.9088633" lon="9.2616"><ele>610.0</ele><time>2026-05-01T10:37:57.661Z</time></trkpt><trkpt lat="40.9089333" lon="9.2615117"><ele>610.0</ele><time>2026-05-01T10:37:58.661Z</time></trkpt><trkpt lat="40.9089833" lon="9.261425"><ele>610.0</ele><time>2026-05-01T10:37:59.661Z</time></trkpt><trkpt lat="40.909" lon="9.26131"><ele>610.0</ele><time>2026-05-01T10:38:01.661Z</time></trkpt><trkpt lat="40.9088817" lon="9.2613"><ele>610.0</ele><time>2026-05-01T10:38:05.661Z</time></trkpt><trkpt lat="40.9088083" lon="9.2612983"><ele>615.4</ele><time>2026-05-01T10:38:07.661Z</time></trkpt><trkpt lat="40.9087867" lon="9.2612033"><ele>620.8</ele><time>2026-05-01T10:38:10.661Z</time></trkpt><trkpt lat="40.9088583" lon="9.2611467"><ele>626.2</ele><time>2026-05-01T10:38:12.661Z</time></trkpt><trkpt lat="40.908945" lon="9.261045"><ele>631.6</ele><time>2026-05-01T10:38:14.661Z</time></trkpt><trkpt lat="40.909015" lon="9.26094"><ele>637.0</ele><time>2026-05-01T10:38:16.661Z</time></trkpt><trkpt lat="40.9090267" lon="9.260845"><ele>637.0</ele><time>2026-05-01T10:38:18.661Z</time></trkpt><trkpt lat="40.9089633" lon="9.2607733"><ele>637.0</ele><time>2026-05-01T10:38:20.661Z</time></trkpt><trkpt lat="40.908815" lon="9.2607417"><ele>637.0</ele><time>2026-05-01T10:38:22.661Z</time></trkpt><trkpt lat="40.90874" lon="9.2606767"><ele>637.0</ele><time>2026-05-01T10:38:24.661Z</time></trkpt><trkpt lat="40.90872" lon="9.2605967"><ele>637.0</ele><time>2026-05-01T10:38:26.661Z</time></trkpt><trkpt lat="40.9087183" lon="9.2604717"><ele>639.8333333333334</ele><time>2026-05-01T10:38:28.661Z</time></trkpt><trkpt lat="40.9087283" lon="9.2603883"><ele>642.6666666666667</ele><time>2026-05-01T10:38:29.661Z</time></trkpt><trkpt lat="40.9087383" lon="9.2602817"><ele>645.5</ele><time>2026-05-01T10:38:30.661Z</time></trkpt><trkpt lat="40.908735" lon="9.2601883"><ele>648.3333333333334</ele><time>2026-05-01T10:38:31.661Z</time></trkpt><trkpt lat="40.9087233" lon="9.2600867"><ele>651.1666666666666</ele><time>2026-05-01T10:38:32.661Z</time></trkpt><trkpt lat="40.908705" lon="9.2599633"><ele>654.0</ele><time>2026-05-01T10:38:33.661Z</time></trkpt><trkpt lat="40.9086917" lon="9.2598483"><ele>657.0</ele><time>2026-05-01T10:38:34.661Z</time></trkpt><trkpt lat="40.9086783" lon="9.2597483"><ele>660.0</ele><time>2026-05-01T10:38:35.661Z</time></trkpt><trkpt lat="40.9086767" lon="9.259645"><ele>663.0</ele><time>2026-05-01T10:38:36.661Z</time></trkpt><trkpt lat="40.9086883" lon="9.2595417"><ele>666.0</ele><time>2026-05-01T10:38:37.661Z</time></trkpt><trkpt lat="40.90871" lon="9.2594267"><ele>669.0</ele><time>2026-05-01T10:38:38.661Z</time></trkpt><trkpt lat="40.90872" lon="9.259315"><ele>672.0</ele><time>2026-05-01T10:38:39.661Z</time></trkpt><trkpt lat="40.9087183" lon="9.2592017"><ele>672.0</ele><time>2026-05-01T10:38:40.661Z</time></trkpt><trkpt lat="40.908735" lon="9.2590783"><ele>672.0</ele><time>2026-05-01T10:38:41.661Z</time></trkpt><trkpt lat="40.90876" lon="9.258955"><ele>672.0</ele><time>2026-05-01T10:38:42.661Z</time></trkpt><trkpt lat="40.90879" lon="9.2588433"><ele>672.0</ele><time>2026-05-01T10:38:43.661Z</time></trkpt><trkpt lat="40.90882" lon="9.2587383"><ele>672.0</ele><time>2026-05-01T10:38:44.661Z</time></trkpt><trkpt lat="40.9088483" lon="9.2586133"><ele>676.25</ele><time>2026-05-01T10:38:45.661Z</time></trkpt><trkpt lat="40.9088983" lon="9.2584817"><ele>680.5</ele><time>2026-05-01T10:38:46.661Z</time></trkpt><trkpt lat="40.9089633" lon="9.2583483"><ele>684.75</ele><time>2026-05-01T10:38:47.662Z</time></trkpt><trkpt lat="40.9090433" lon="9.2581983"><ele>689.0</ele><time>2026-05-01T10:38:48.661Z</time></trkpt><trkpt lat="40.9091017" lon="9.2580583"><ele>690.6666666666666</ele><time>2026-05-01T10:38:49.661Z</time></trkpt><trkpt lat="40.9091217" lon="9.2579233"><ele>692.3333333333333</ele><time>2026-05-01T10:38:50.661Z</time></trkpt><trkpt lat="40.909155" lon="9.2578267"><ele>694.0</ele><time>2026-05-01T10:38:51.661Z</time></trkpt><trkpt lat="40.909145" lon="9.2577183"><ele>695.6666666666666</ele><time>2026-05-01T10:38:52.661Z</time></trkpt><trkpt lat="40.9091533" lon="9.257615"><ele>697.3333333333334</ele><time>2026-05-01T10:38:53.661Z</time></trkpt><trkpt lat="40.9091833" lon="9.2575217"><ele>699.0</ele><time>2026-05-01T10:38:54.661Z</time></trkpt><trkpt lat="40.9092033" lon="9.25744"><ele>699.0</ele><time>2026-05-01T10:38:55.661Z</time></trkpt><trkpt lat="40.9092283" lon="9.2573067"><ele>699.0</ele><time>2026-05-01T10:38:57.661Z</time></trkpt><trkpt lat="40.9092883" lon="9.2571783"><ele>699.0</ele><time>2026-05-01T10:38:59.661Z</time></trkpt><trkpt lat="40.90933" lon="9.2571067"><ele>699.0</ele><time>2026-05-01T10:39:01.661Z</time></trkpt><trkpt lat="40.9093783" lon="9.2570217"><ele>699.0</ele><time>2026-05-01T10:39:04.661Z</time></trkpt><trkpt lat="40.9094417" lon="9.2569967"><ele>699.0</ele><time>2026-05-01T10:39:17.66Z</time></trkpt><trkpt lat="40.9094667" lon="9.2569183"><ele>698.2</ele><time>2026-05-01T10:39:18.66Z</time></trkpt><trkpt lat="40.9095017" lon="9.2568283"><ele>697.4000000000001</ele><time>2026-05-01T10:39:19.66Z</time></trkpt><trkpt lat="40.9095167" lon="9.2567367"><ele>696.6</ele><time>2026-05-01T10:39:20.66Z</time></trkpt><trkpt lat="40.9095433" lon="9.2565633"><ele>695.8</ele><time>2026-05-01T10:39:21.66Z</time></trkpt><trkpt lat="40.90954" lon="9.2563967"><ele>695.0</ele><time>2026-05-01T10:39:22.66Z</time></trkpt><trkpt lat="40.90953" lon="9.2562317"><ele>695.0</ele><time>2026-05-01T10:39:23.66Z</time></trkpt><trkpt lat="40.9095167" lon="9.2560517"><ele>695.0</ele><time>2026-05-01T10:39:24.66Z</time></trkpt><trkpt lat="40.9095183" lon="9.2558933"><ele>695.0</ele><time>2026-05-01T10:39:25.66Z</time></trkpt><trkpt lat="40.9095217" lon="9.25573"><ele>695.0</ele><time>2026-05-01T10:39:26.66Z</time></trkpt><trkpt lat="40.9095317" lon="9.255565"><ele>699.0</ele><time>2026-05-01T10:39:27.66Z</time></trkpt><trkpt lat="40.9095417" lon="9.255405"><ele>703.0</ele><time>2026-05-01T10:39:28.66Z</time></trkpt><trkpt lat="40.9095533" lon="9.2552333"><ele>707.0</ele><time>2026-05-01T10:39:29.66Z</time></trkpt><trkpt lat="40.9095683" lon="9.2550767"><ele>711.0</ele><time>2026-05-01T10:39:30.66Z</time></trkpt><trkpt lat="40.9095783" lon="9.2549033"><ele>712.75</ele><time>2026-05-01T10:39:31.66Z</time></trkpt><trkpt lat="40.9095867" lon="9.2547367"><ele>714.5</ele><time>2026-05-01T10:39:32.66Z</time></trkpt><trkpt lat="40.9095883" lon="9.254585"><ele>716.25</ele><time>2026-05-01T10:39:33.66Z</time></trkpt><trkpt lat="40.9095767" lon="9.2544333"><ele>718.0</ele><time>2026-05-01T10:39:34.66Z</time></trkpt><trkpt lat="40.90956" lon="9.25427"><ele>718.0</ele><time>2026-05-01T10:39:35.66Z</time></trkpt><trkpt lat="40.909525" lon="9.2541033"><ele>718.0</ele><time>2026-05-01T10:39:36.66Z</time></trkpt><trkpt lat="40.9094733" lon="9.2539317"><ele>718.0</ele><time>2026-05-01T10:39:37.66Z</time></trkpt><trkpt lat="40.909425" lon="9.2537517"><ele>718.0</ele><time>2026-05-01T10:39:38.66Z</time></trkpt><trkpt lat="40.9093683" lon="9.2535633"><ele>719.3333333333334</ele><time>2026-05-01T10:39:39.66Z</time></trkpt><trkpt lat="40.90931" lon="9.2533533"><ele>720.6666666666666</ele><time>2026-05-01T10:39:40.66Z</time></trkpt><trkpt lat="40.9092533" lon="9.2531567"><ele>722.0</ele><time>2026-05-01T10:39:41.66Z</time></trkpt><trkpt lat="40.9092033" lon="9.2529517"><ele>722.0</ele><time>2026-05-01T10:39:42.66Z</time></trkpt><trkpt lat="40.9091517" lon="9.2527517"><ele>722.0</ele><time>2026-05-01T10:39:43.66Z</time></trkpt><trkpt lat="40.9091033" lon="9.2525517"><ele>722.0</ele><time>2026-05-01T10:39:44.66Z</time></trkpt><trkpt lat="40.9090433" lon="9.2523567"><ele>721.0</ele><time>2026-05-01T10:39:45.66Z</time></trkpt><trkpt lat="40.908985" lon="9.252165"><ele>720.0</ele><time>2026-05-01T10:39:46.66Z</time></trkpt><trkpt lat="40.90893" lon="9.25198"><ele>719.0</ele><time>2026-05-01T10:39:47.66Z</time></trkpt><trkpt lat="40.9088717" lon="9.2518"><ele>719.0</ele><time>2026-05-01T10:39:48.66Z</time></trkpt><trkpt lat="40.908825" lon="9.2516167"><ele>719.0</ele><time>2026-05-01T10:39:49.66Z</time></trkpt><trkpt lat="40.9087933" lon="9.251435"><ele>719.0</ele><time>2026-05-01T10:39:50.66Z</time></trkpt><trkpt lat="40.9087767" lon="9.251255"><ele>719.0</ele><time>2026-05-01T10:39:51.66Z</time></trkpt><trkpt lat="40.9087733" lon="9.2510767"><ele>718.25</ele><time>2026-05-01T10:39:52.66Z</time></trkpt><trkpt lat="40.9087683" lon="9.25091"><ele>717.5</ele><time>2026-05-01T10:39:53.66Z</time></trkpt><trkpt lat="40.9087567" lon="9.2507383"><ele>716.75</ele><time>2026-05-01T10:39:54.66Z</time></trkpt><trkpt lat="40.90874" lon="9.2505567"><ele>716.0</ele><time>2026-05-01T10:39:55.66Z</time></trkpt><trkpt lat="40.9087233" lon="9.2503683"><ele>715.75</ele><time>2026-05-01T10:39:56.66Z</time></trkpt><trkpt lat="40.9087" lon="9.2501733"><ele>715.5</ele><time>2026-05-01T10:39:57.66Z</time></trkpt><trkpt lat="40.9086717" lon="9.2499783"><ele>715.25</ele><time>2026-05-01T10:39:58.661Z</time></trkpt><trkpt lat="40.9086467" lon="9.249785"><ele>715.0</ele><time>2026-05-01T10:39:59.66Z</time></trkpt><trkpt lat="40.908615" lon="9.2495933"><ele>714.0</ele><time>2026-05-01T10:40:00.66Z</time></trkpt><trkpt lat="40.9085717" lon="9.249405"><ele>713.0</ele><time>2026-05-01T10:40:01.66Z</time></trkpt><trkpt lat="40.9085383" lon="9.24923"><ele>712.0</ele><time>2026-05-01T10:40:02.66Z</time></trkpt><trkpt lat="40.9085067" lon="9.2490617"><ele>711.0</ele><time>2026-05-01T10:40:03.66Z</time></trkpt><trkpt lat="40.9084617" lon="9.2488967"><ele>711.5</ele><time>2026-05-01T10:40:04.66Z</time></trkpt><trkpt lat="40.9084133" lon="9.2487267"><ele>712.0</ele><time>2026-05-01T10:40:05.66Z</time></trkpt><trkpt lat="40.9083617" lon="9.2485717"><ele>712.5</ele><time>2026-05-01T10:40:06.661Z</time></trkpt><trkpt lat="40.9083083" lon="9.2484033"><ele>713.0</ele><time>2026-05-01T10:40:07.66Z</time></trkpt><trkpt lat="40.9082467" lon="9.248255"><ele>713.25</ele><time>2026-05-01T10:40:08.66Z</time></trkpt><trkpt lat="40.9081883" lon="9.2480983"><ele>713.5</ele><time>2026-05-01T10:40:09.66Z</time></trkpt><trkpt lat="40.9081517" lon="9.2479467"><ele>713.75</ele><time>2026-05-01T10:40:10.66Z</time></trkpt><trkpt lat="40.9081083" lon="9.247795"><ele>714.0</ele><time>2026-05-01T10:40:11.66Z</time></trkpt><trkpt lat="40.9080833" lon="9.2476267"><ele>714.0</ele><time>2026-05-01T10:40:12.66Z</time></trkpt><trkpt lat="40.9080933" lon="9.247435"><ele>714.0</ele><time>2026-05-01T10:40:13.66Z</time></trkpt><trkpt lat="40.9081017" lon="9.247255"><ele>714.0</ele><time>2026-05-01T10:40:14.66Z</time></trkpt><trkpt lat="40.90811" lon="9.24706"><ele>714.0</ele><time>2026-05-01T10:40:15.66Z</time></trkpt><trkpt lat="40.9081267" lon="9.2468583"><ele>714.0</ele><time>2026-05-01T10:40:16.66Z</time></trkpt><trkpt lat="40.908145" lon="9.24669"><ele>714.0</ele><time>2026-05-01T10:40:17.66Z</time></trkpt><trkpt lat="40.9081817" lon="9.246525"><ele>714.0</ele><time>2026-05-01T10:40:18.66Z</time></trkpt><trkpt lat="40.90823" lon="9.2463667"><ele>714.0</ele><time>2026-05-01T10:40:19.66Z</time></trkpt><trkpt lat="40.9082967" lon="9.2462117"><ele>714.0</ele><time>2026-05-01T10:40:20.66Z</time></trkpt><trkpt lat="40.908355" lon="9.2460517"><ele>714.0</ele><time>2026-05-01T10:40:21.66Z</time></trkpt><trkpt lat="40.9084033" lon="9.2459033"><ele>714.0</ele><time>2026-05-01T10:40:22.66Z</time></trkpt><trkpt lat="40.9084467" lon="9.2457533"><ele>714.0</ele><time>2026-05-01T10:40:23.66Z</time></trkpt><trkpt lat="40.9084733" lon="9.2455783"><ele>711.6666666666666</ele><time>2026-05-01T10:40:24.66Z</time></trkpt><trkpt lat="40.9084917" lon="9.2453783"><ele>709.3333333333333</ele><time>2026-05-01T10:40:25.66Z</time></trkpt><trkpt lat="40.9085133" lon="9.2451617"><ele>707.0</ele><time>2026-05-01T10:40:26.66Z</time></trkpt><trkpt lat="40.90853" lon="9.2449783"><ele>707.0</ele><time>2026-05-01T10:40:27.66Z</time></trkpt><trkpt lat="40.908545" lon="9.2448067"><ele>707.0</ele><time>2026-05-01T10:40:28.66Z</time></trkpt><trkpt lat="40.9085633" lon="9.2446433"><ele>707.0</ele><time>2026-05-01T10:40:29.66Z</time></trkpt><trkpt lat="40.9085767" lon="9.2444767"><ele>707.0</ele><time>2026-05-01T10:40:30.66Z</time></trkpt><trkpt lat="40.9085817" lon="9.2443"><ele>707.25</ele><time>2026-05-01T10:40:31.66Z</time></trkpt><trkpt lat="40.908595" lon="9.2441167"><ele>707.5</ele><time>2026-05-01T10:40:32.66Z</time></trkpt><trkpt lat="40.9086133" lon="9.2439333"><ele>707.75</ele><time>2026-05-01T10:40:33.66Z</time></trkpt><trkpt lat="40.9086333" lon="9.2437483"><ele>708.0</ele><time>2026-05-01T10:40:34.66Z</time></trkpt><trkpt lat="40.9086583" lon="9.2435667"><ele>709.0</ele><time>2026-05-01T10:40:35.66Z</time></trkpt><trkpt lat="40.9086967" lon="9.243385"><ele>710.0</ele><time>2026-05-01T10:40:36.66Z</time></trkpt><trkpt lat="40.9087433" lon="9.24318"><ele>711.0</ele><time>2026-05-01T10:40:37.66Z</time></trkpt><trkpt lat="40.9087833" lon="9.24297"><ele>712.0</ele><time>2026-05-01T10:40:38.66Z</time></trkpt><trkpt lat="40.9088133" lon="9.2427633"><ele>713.0</ele><time>2026-05-01T10:40:39.66Z</time></trkpt><trkpt lat="40.90883" lon="9.2425667"><ele>714.0</ele><time>2026-05-01T10:40:40.66Z</time></trkpt><trkpt lat="40.9088617" lon="9.2423567"><ele>714.75</ele><time>2026-05-01T10:40:41.66Z</time></trkpt><trkpt lat="40.908895" lon="9.2421483"><ele>715.5</ele><time>2026-05-01T10:40:42.66Z</time></trkpt><trkpt lat="40.9089283" lon="9.241955"><ele>716.25</ele><time>2026-05-01T10:40:43.66Z</time></trkpt><trkpt lat="40.9089633" lon="9.2417783"><ele>717.0</ele><time>2026-05-01T10:40:44.66Z</time></trkpt><trkpt lat="40.908995" lon="9.2415967"><ele>718.25</ele><time>2026-05-01T10:40:45.66Z</time></trkpt><trkpt lat="40.9090267" lon="9.2414317"><ele>719.5</ele><time>2026-05-01T10:40:46.66Z</time></trkpt><trkpt lat="40.909065" lon="9.241265"><ele>720.75</ele><time>2026-05-01T10:40:47.66Z</time></trkpt><trkpt lat="40.9090917" lon="9.2410883"><ele>722.0</ele><time>2026-05-01T10:40:48.66Z</time></trkpt><trkpt lat="40.909115" lon="9.2409033"><ele>722.0</ele><time>2026-05-01T10:40:49.66Z</time></trkpt><trkpt lat="40.909135" lon="9.2407183"><ele>722.0</ele><time>2026-05-01T10:40:50.66Z</time></trkpt><trkpt lat="40.9091517" lon="9.2405433"><ele>722.0</ele><time>2026-05-01T10:40:51.66Z</time></trkpt><trkpt lat="40.9091783" lon="9.2403683"><ele>722.0</ele><time>2026-05-01T10:40:52.66Z</time></trkpt><trkpt lat="40.9092067" lon="9.2401867"><ele>721.0</ele><time>2026-05-01T10:40:53.66Z</time></trkpt><trkpt lat="40.9092433" lon="9.24001"><ele>720.0</ele><time>2026-05-01T10:40:54.66Z</time></trkpt><trkpt lat="40.90928" lon="9.2398267"><ele>719.0</ele><time>2026-05-01T10:40:55.66Z</time></trkpt><trkpt lat="40.9093167" lon="9.2396367"><ele>718.0</ele><time>2026-05-01T10:40:56.66Z</time></trkpt><trkpt lat="40.9093483" lon="9.2394617"><ele>718.0</ele><time>2026-05-01T10:40:57.66Z</time></trkpt><trkpt lat="40.909365" lon="9.2393083"><ele>718.0</ele><time>2026-05-01T10:40:58.661Z</time></trkpt><trkpt lat="40.9094033" lon="9.2391283"><ele>718.0</ele><time>2026-05-01T10:40:59.66Z</time></trkpt><trkpt lat="40.909425" lon="9.23896"><ele>718.0</ele><time>2026-05-01T10:41:00.66Z</time></trkpt><trkpt lat="40.9094633" lon="9.2387933"><ele>718.25</ele><time>2026-05-01T10:41:01.66Z</time></trkpt><trkpt lat="40.9095017" lon="9.2386233"><ele>718.5</ele><time>2026-05-01T10:41:02.66Z</time></trkpt><trkpt lat="40.9095317" lon="9.2384533"><ele>718.75</ele><time>2026-05-01T10:41:03.66Z</time></trkpt><trkpt lat="40.9095583" lon="9.238275"><ele>719.0</ele><time>2026-05-01T10:41:04.66Z</time></trkpt><trkpt lat="40.9095633" lon="9.2380917"><ele>719.0</ele><time>2026-05-01T10:41:05.66Z</time></trkpt><trkpt lat="40.909595" lon="9.23791"><ele>719.0</ele><time>2026-05-01T10:41:06.661Z</time></trkpt><trkpt lat="40.9096217" lon="9.23773"><ele>719.0</ele><time>2026-05-01T10:41:07.66Z</time></trkpt><trkpt lat="40.9096533" lon="9.2375533"><ele>719.0</ele><time>2026-05-01T10:41:08.66Z</time></trkpt><trkpt lat="40.90969" lon="9.2373983"><ele>719.2</ele><time>2026-05-01T10:41:09.66Z</time></trkpt><trkpt lat="40.9097367" lon="9.237255"><ele>719.4000000000001</ele><time>2026-05-01T10:41:10.66Z</time></trkpt><trkpt lat="40.90978" lon="9.2371383"><ele>719.6</ele><time>2026-05-01T10:41:11.66Z</time></trkpt><trkpt lat="40.90984" lon="9.2370367"><ele>719.8</ele><time>2026-05-01T10:41:12.66Z</time></trkpt><trkpt lat="40.9099083" lon="9.2369417"><ele>720.0</ele><time>2026-05-01T10:41:13.66Z</time></trkpt><trkpt lat="40.9099883" lon="9.2368617"><ele>719.5</ele><time>2026-05-01T10:41:14.66Z</time></trkpt><trkpt lat="40.9100817" lon="9.2367667"><ele>719.0</ele><time>2026-05-01T10:41:15.66Z</time></trkpt><trkpt lat="40.9101767" lon="9.236675"><ele>718.5</ele><time>2026-05-01T10:41:16.66Z</time></trkpt><trkpt lat="40.9102683" lon="9.2365717"><ele>718.0</ele><time>2026-05-01T10:41:17.66Z</time></trkpt><trkpt lat="40.910365" lon="9.2364567"><ele>718.0</ele><time>2026-05-01T10:41:18.66Z</time></trkpt><trkpt lat="40.9104733" lon="9.23634"><ele>718.0</ele><time>2026-05-01T10:41:19.66Z</time></trkpt><trkpt lat="40.9105833" lon="9.23622"><ele>718.0</ele><time>2026-05-01T10:41:20.66Z</time></trkpt><trkpt lat="40.9106983" lon="9.2361067"><ele>718.0</ele><time>2026-05-01T10:41:21.66Z</time></trkpt><trkpt lat="40.9108217" lon="9.2359883"><ele>718.0</ele><time>2026-05-01T10:41:22.66Z</time></trkpt><trkpt lat="40.9109433" lon="9.2358867"><ele>718.0</ele><time>2026-05-01T10:41:23.66Z</time></trkpt><trkpt lat="40.9110433" lon="9.235775"><ele>718.0</ele><time>2026-05-01T10:41:24.66Z</time></trkpt><trkpt lat="40.911155" lon="9.23568"><ele>718.0</ele><time>2026-05-01T10:41:25.66Z</time></trkpt><trkpt lat="40.9112567" lon="9.2355717"><ele>718.0</ele><time>2026-05-01T10:41:26.66Z</time></trkpt><trkpt lat="40.9113617" lon="9.2354633"><ele>718.0</ele><time>2026-05-01T10:41:27.66Z</time></trkpt><trkpt lat="40.9114733" lon="9.2353567"><ele>718.0</ele><time>2026-05-01T10:41:28.66Z</time></trkpt><trkpt lat="40.9115733" lon="9.2352467"><ele>718.0</ele><time>2026-05-01T10:41:29.66Z</time></trkpt><trkpt lat="40.91167" lon="9.2351483"><ele>718.0</ele><time>2026-05-01T10:41:30.66Z</time></trkpt><trkpt lat="40.9117833" lon="9.2350683"><ele>718.0</ele><time>2026-05-01T10:41:31.66Z</time></trkpt><trkpt lat="40.911905" lon="9.234975"><ele>718.0</ele><time>2026-05-01T10:41:32.66Z</time></trkpt><trkpt lat="40.9120283" lon="9.23488"><ele>718.0</ele><time>2026-05-01T10:41:33.661Z</time></trkpt><trkpt lat="40.9121367" lon="9.2347683"><ele>717.0</ele><time>2026-05-01T10:41:34.66Z</time></trkpt><trkpt lat="40.912235" lon="9.23465"><ele>716.0</ele><time>2026-05-01T10:41:35.66Z</time></trkpt><trkpt lat="40.912335" lon="9.23451"><ele>715.0</ele><time>2026-05-01T10:41:36.66Z</time></trkpt><trkpt lat="40.91245" lon="9.2344"><ele>714.0</ele><time>2026-05-01T10:41:37.66Z</time></trkpt><trkpt lat="40.9125633" lon="9.2342783"><ele>714.75</ele><time>2026-05-01T10:41:38.66Z</time></trkpt><trkpt lat="40.9126667" lon="9.2341817"><ele>715.5</ele><time>2026-05-01T10:41:39.66Z</time></trkpt><trkpt lat="40.9127683" lon="9.2340883"><ele>716.25</ele><time>2026-05-01T10:41:40.66Z</time></trkpt><trkpt lat="40.91286" lon="9.2339833"><ele>717.0</ele><time>2026-05-01T10:41:41.66Z</time></trkpt><trkpt lat="40.912965" lon="9.233875"><ele>717.0</ele><time>2026-05-01T10:41:42.66Z</time></trkpt><trkpt lat="40.9130667" lon="9.2337683"><ele>717.0</ele><time>2026-05-01T10:41:43.66Z</time></trkpt><trkpt lat="40.9131717" lon="9.23367"><ele>717.0</ele><time>2026-05-01T10:41:44.66Z</time></trkpt><trkpt lat="40.91327" lon="9.2335733"><ele>717.0</ele><time>2026-05-01T10:41:45.66Z</time></trkpt><trkpt lat="40.9133733" lon="9.23347"><ele>717.5</ele><time>2026-05-01T10:41:46.66Z</time></trkpt><trkpt lat="40.91347" lon="9.2333367"><ele>718.0</ele><time>2026-05-01T10:41:47.66Z</time></trkpt><trkpt lat="40.9135533" lon="9.23319"><ele>718.5</ele><time>2026-05-01T10:41:48.66Z</time></trkpt><trkpt lat="40.91361" lon="9.233045"><ele>719.0</ele><time>2026-05-01T10:41:49.66Z</time></trkpt><trkpt lat="40.913685" lon="9.2328833"><ele>719.0</ele><time>2026-05-01T10:41:50.66Z</time></trkpt><trkpt lat="40.91375" lon="9.232735"><ele>719.0</ele><time>2026-05-01T10:41:51.66Z</time></trkpt><trkpt lat="40.9138083" lon="9.2325983"><ele>719.0</ele><time>2026-05-01T10:41:52.66Z</time></trkpt><trkpt lat="40.9138633" lon="9.2324583"><ele>719.0</ele><time>2026-05-01T10:41:53.661Z</time></trkpt><trkpt lat="40.91392" lon="9.2323267"><ele>718.0</ele><time>2026-05-01T10:41:54.66Z</time></trkpt><trkpt lat="40.913985" lon="9.232195"><ele>717.0</ele><time>2026-05-01T10:41:55.66Z</time></trkpt><trkpt lat="40.9140483" lon="9.232065"><ele>716.0</ele><time>2026-05-01T10:41:56.66Z</time></trkpt><trkpt lat="40.9141083" lon="9.2319233"><ele>715.0</ele><time>2026-05-01T10:41:57.66Z</time></trkpt><trkpt lat="40.91417" lon="9.2317817"><ele>715.0</ele><time>2026-05-01T10:41:58.66Z</time></trkpt><trkpt lat="40.914225" lon="9.23164"><ele>715.0</ele><time>2026-05-01T10:41:59.66Z</time></trkpt><trkpt lat="40.9142783" lon="9.23149"><ele>715.0</ele><time>2026-05-01T10:42:00.66Z</time></trkpt><trkpt lat="40.91435" lon="9.23135"><ele>715.0</ele><time>2026-05-01T10:42:01.66Z</time></trkpt><trkpt lat="40.9144083" lon="9.2312"><ele>714.0</ele><time>2026-05-01T10:42:02.66Z</time></trkpt><trkpt lat="40.9144683" lon="9.2310533"><ele>713.0</ele><time>2026-05-01T10:42:03.661Z</time></trkpt><trkpt lat="40.9145333" lon="9.2308983"><ele>712.0</ele><time>2026-05-01T10:42:04.661Z</time></trkpt><trkpt lat="40.9145833" lon="9.23074"><ele>711.0</ele><time>2026-05-01T10:42:05.66Z</time></trkpt><trkpt lat="40.9146233" lon="9.2305733"><ele>710.0</ele><time>2026-05-01T10:42:06.66Z</time></trkpt><trkpt lat="40.91466" lon="9.2304133"><ele>709.0</ele><time>2026-05-01T10:42:07.66Z</time></trkpt><trkpt lat="40.914695" lon="9.2302517"><ele>708.0</ele><time>2026-05-01T10:42:08.661Z</time></trkpt><trkpt lat="40.91473" lon="9.230105"><ele>707.0</ele><time>2026-05-01T10:42:09.66Z</time></trkpt><trkpt lat="40.9147667" lon="9.229945"><ele>704.25</ele><time>2026-05-01T10:42:10.661Z</time></trkpt><trkpt lat="40.9148183" lon="9.229775"><ele>701.5</ele><time>2026-05-01T10:42:11.661Z</time></trkpt><trkpt lat="40.9148783" lon="9.2296183"><ele>698.75</ele><time>2026-05-01T10:42:12.66Z</time></trkpt><trkpt lat="40.9149233" lon="9.2294617"><ele>696.0</ele><time>2026-05-01T10:42:13.66Z</time></trkpt><trkpt lat="40.9149667" lon="9.2293217"><ele>696.0</ele><time>2026-05-01T10:42:14.66Z</time></trkpt><trkpt lat="40.915005" lon="9.2291583"><ele>696.0</ele><time>2026-05-01T10:42:15.66Z</time></trkpt><trkpt lat="40.915045" lon="9.228995"><ele>696.0</ele><time>2026-05-01T10:42:16.66Z</time></trkpt><trkpt lat="40.915075" lon="9.22883"><ele>696.0</ele><time>2026-05-01T10:42:17.66Z</time></trkpt><trkpt lat="40.915095" lon="9.2286633"><ele>692.25</ele><time>2026-05-01T10:42:18.66Z</time></trkpt><trkpt lat="40.9151117" lon="9.22849"><ele>688.5</ele><time>2026-05-01T10:42:19.66Z</time></trkpt><trkpt lat="40.9151283" lon="9.2283133"><ele>684.75</ele><time>2026-05-01T10:42:20.66Z</time></trkpt><trkpt lat="40.91515" lon="9.228145"><ele>681.0</ele><time>2026-05-01T10:42:21.66Z</time></trkpt><trkpt lat="40.915165" lon="9.2279683"><ele>679.75</ele><time>2026-05-01T10:42:22.66Z</time></trkpt><trkpt lat="40.9151817" lon="9.2277983"><ele>678.5</ele><time>2026-05-01T10:42:23.66Z</time></trkpt><trkpt lat="40.9152083" lon="9.2276217"><ele>677.25</ele><time>2026-05-01T10:42:24.66Z</time></trkpt><trkpt lat="40.9152233" lon="9.2274483"><ele>676.0</ele><time>2026-05-01T10:42:25.66Z</time></trkpt><trkpt lat="40.9152417" lon="9.2272667"><ele>674.5</ele><time>2026-05-01T10:42:26.66Z</time></trkpt><trkpt lat="40.9152717" lon="9.2270833"><ele>673.0</ele><time>2026-05-01T10:42:27.66Z</time></trkpt><trkpt lat="40.91529" lon="9.2268983"><ele>671.5</ele><time>2026-05-01T10:42:28.66Z</time></trkpt><trkpt lat="40.915295" lon="9.22671"><ele>670.0</ele><time>2026-05-01T10:42:29.66Z</time></trkpt><trkpt lat="40.9152933" lon="9.22653"><ele>668.75</ele><time>2026-05-01T10:42:30.66Z</time></trkpt><trkpt lat="40.91528" lon="9.2263633"><ele>667.5</ele><time>2026-05-01T10:42:31.66Z</time></trkpt><trkpt lat="40.91525" lon="9.2262083"><ele>666.25</ele><time>2026-05-01T10:42:32.66Z</time></trkpt><trkpt lat="40.91523" lon="9.2260683"><ele>665.0</ele><time>2026-05-01T10:42:33.66Z</time></trkpt><trkpt lat="40.915215" lon="9.2259433"><ele>665.0</ele><time>2026-05-01T10:42:34.66Z</time></trkpt><trkpt lat="40.915215" lon="9.225835"><ele>665.0</ele><time>2026-05-01T10:42:35.66Z</time></trkpt><trkpt lat="40.9152333" lon="9.225725"><ele>665.0</ele><time>2026-05-01T10:42:36.66Z</time></trkpt><trkpt lat="40.9152617" lon="9.225625"><ele>665.0</ele><time>2026-05-01T10:42:37.66Z</time></trkpt><trkpt lat="40.915325" lon="9.2255267"><ele>665.0</ele><time>2026-05-01T10:42:38.66Z</time></trkpt><trkpt lat="40.915415" lon="9.2254167"><ele>663.6666666666666</ele><time>2026-05-01T10:42:39.66Z</time></trkpt><trkpt lat="40.9155517" lon="9.2252867"><ele>662.3333333333334</ele><time>2026-05-01T10:42:40.66Z</time></trkpt><trkpt lat="40.91569" lon="9.2251633"><ele>661.0</ele><time>2026-05-01T10:42:41.66Z</time></trkpt><trkpt lat="40.91581" lon="9.225055"><ele>661.25</ele><time>2026-05-01T10:42:42.661Z</time></trkpt><trkpt lat="40.9159067" lon="9.224955"><ele>661.5</ele><time>2026-05-01T10:42:43.66Z</time></trkpt><trkpt lat="40.9159967" lon="9.22486"><ele>661.75</ele><time>2026-05-01T10:42:44.66Z</time></trkpt><trkpt lat="40.91608" lon="9.2247617"><ele>662.0</ele><time>2026-05-01T10:42:45.661Z</time></trkpt><trkpt lat="40.9161483" lon="9.2246583"><ele>662.0</ele><time>2026-05-01T10:42:46.66Z</time></trkpt><trkpt lat="40.9162083" lon="9.2245517"><ele>662.0</ele><time>2026-05-01T10:42:47.66Z</time></trkpt><trkpt lat="40.916215" lon="9.2244167"><ele>662.0</ele><time>2026-05-01T10:42:48.66Z</time></trkpt><trkpt lat="40.91623" lon="9.2242533"><ele>662.0</ele><time>2026-05-01T10:42:49.66Z</time></trkpt><trkpt lat="40.916225" lon="9.224065"><ele>663.5</ele><time>2026-05-01T10:42:50.66Z</time></trkpt><trkpt lat="40.9162283" lon="9.2238783"><ele>665.0</ele><time>2026-05-01T10:42:51.66Z</time></trkpt><trkpt lat="40.9162217" lon="9.2236917"><ele>666.5</ele><time>2026-05-01T10:42:52.66Z</time></trkpt><trkpt lat="40.916225" lon="9.2234967"><ele>668.0</ele><time>2026-05-01T10:42:53.66Z</time></trkpt><trkpt lat="40.9162217" lon="9.223315"><ele>668.25</ele><time>2026-05-01T10:42:54.66Z</time></trkpt><trkpt lat="40.916205" lon="9.2231367"><ele>668.5</ele><time>2026-05-01T10:42:55.661Z</time></trkpt><trkpt lat="40.91617" lon="9.2229467"><ele>668.75</ele><time>2026-05-01T10:42:56.66Z</time></trkpt><trkpt lat="40.9161233" lon="9.22276"><ele>669.0</ele><time>2026-05-01T10:42:57.66Z</time></trkpt><trkpt lat="40.916065" lon="9.222575"><ele>669.0</ele><time>2026-05-01T10:42:58.66Z</time></trkpt><trkpt lat="40.9160133" lon="9.2223833"><ele>669.0</ele><time>2026-05-01T10:42:59.66Z</time></trkpt><trkpt lat="40.9159583" lon="9.2222"><ele>669.0</ele><time>2026-05-01T10:43:00.66Z</time></trkpt><trkpt lat="40.915895" lon="9.22202"><ele>667.75</ele><time>2026-05-01T10:43:01.66Z</time></trkpt><trkpt lat="40.9158333" lon="9.2218383"><ele>666.5</ele><time>2026-05-01T10:43:02.66Z</time></trkpt><trkpt lat="40.91577" lon="9.2216667"><ele>665.25</ele><time>2026-05-01T10:43:03.66Z</time></trkpt><trkpt lat="40.915715" lon="9.22148"><ele>664.0</ele><time>2026-05-01T10:43:04.66Z</time></trkpt><trkpt lat="40.9156667" lon="9.2213017"><ele>664.0</ele><time>2026-05-01T10:43:05.66Z</time></trkpt><trkpt lat="40.9156167" lon="9.221135"><ele>664.0</ele><time>2026-05-01T10:43:06.66Z</time></trkpt><trkpt lat="40.915555" lon="9.2209617"><ele>664.0</ele><time>2026-05-01T10:43:07.66Z</time></trkpt><trkpt lat="40.91551" lon="9.2207567"><ele>664.0</ele><time>2026-05-01T10:43:08.66Z</time></trkpt><trkpt lat="40.9154617" lon="9.22058"><ele>663.0</ele><time>2026-05-01T10:43:09.66Z</time></trkpt><trkpt lat="40.9154017" lon="9.2204017"><ele>662.0</ele><time>2026-05-01T10:43:10.66Z</time></trkpt><trkpt lat="40.9153433" lon="9.2202267"><ele>661.0</ele><time>2026-05-01T10:43:11.66Z</time></trkpt><trkpt lat="40.9152917" lon="9.2200567"><ele>660.0</ele><time>2026-05-01T10:43:12.66Z</time></trkpt><trkpt lat="40.915245" lon="9.2198883"><ele>658.6666666666666</ele><time>2026-05-01T10:43:13.66Z</time></trkpt><trkpt lat="40.9151917" lon="9.2197217"><ele>657.3333333333333</ele><time>2026-05-01T10:43:14.66Z</time></trkpt><trkpt lat="40.9151533" lon="9.2195467"><ele>656.0</ele><time>2026-05-01T10:43:15.66Z</time></trkpt><trkpt lat="40.91515" lon="9.21923"><ele>656.0</ele><time>2026-05-01T10:43:16.66Z</time></trkpt><trkpt lat="40.915115" lon="9.2190567"><ele>656.0</ele><time>2026-05-01T10:43:17.66Z</time></trkpt><trkpt lat="40.91509" lon="9.2188817"><ele>656.0</ele><time>2026-05-01T10:43:18.66Z</time></trkpt><trkpt lat="40.915075" lon="9.218695"><ele>656.0</ele><time>2026-05-01T10:43:19.66Z</time></trkpt><trkpt lat="40.9150783" lon="9.2185133"><ele>654.5</ele><time>2026-05-01T10:43:20.66Z</time></trkpt><trkpt lat="40.9150783" lon="9.2183333"><ele>653.0</ele><time>2026-05-01T10:43:21.66Z</time></trkpt><trkpt lat="40.9150767" lon="9.218155"><ele>651.5</ele><time>2026-05-01T10:43:22.66Z</time></trkpt><trkpt lat="40.91507" lon="9.21799"><ele>650.0</ele><time>2026-05-01T10:43:23.66Z</time></trkpt><trkpt lat="40.9150733" lon="9.217825"><ele>650.0</ele><time>2026-05-01T10:43:24.66Z</time></trkpt><trkpt lat="40.9150717" lon="9.21766"><ele>650.0</ele><time>2026-05-01T10:43:25.66Z</time></trkpt><trkpt lat="40.9150767" lon="9.217495"><ele>650.0</ele><time>2026-05-01T10:43:26.66Z</time></trkpt><trkpt lat="40.9150967" lon="9.2173033"><ele>650.0</ele><time>2026-05-01T10:43:27.66Z</time></trkpt><trkpt lat="40.91509" lon="9.2171383"><ele>649.75</ele><time>2026-05-01T10:43:28.66Z</time></trkpt><trkpt lat="40.915075" lon="9.216975"><ele>649.5</ele><time>2026-05-01T10:43:29.66Z</time></trkpt><trkpt lat="40.9150417" lon="9.2168217"><ele>649.25</ele><time>2026-05-01T10:43:30.66Z</time></trkpt><trkpt lat="40.9149967" lon="9.216655"><ele>649.0</ele><time>2026-05-01T10:43:31.66Z</time></trkpt><trkpt lat="40.9149583" lon="9.2164983"><ele>646.0</ele><time>2026-05-01T10:43:32.66Z</time></trkpt><trkpt lat="40.914915" lon="9.2163383"><ele>643.0</ele><time>2026-05-01T10:43:33.66Z</time></trkpt><trkpt lat="40.9148733" lon="9.2161683"><ele>640.0</ele><time>2026-05-01T10:43:34.66Z</time></trkpt><trkpt lat="40.9148333" lon="9.2159917"><ele>637.0</ele><time>2026-05-01T10:43:35.66Z</time></trkpt><trkpt lat="40.9148" lon="9.2158233"><ele>637.0</ele><time>2026-05-01T10:43:36.66Z</time></trkpt><trkpt lat="40.914775" lon="9.2156617"><ele>637.0</ele><time>2026-05-01T10:43:37.66Z</time></trkpt><trkpt lat="40.91479" lon="9.21548"><ele>637.0</ele><time>2026-05-01T10:43:38.66Z</time></trkpt><trkpt lat="40.9148133" lon="9.2152967"><ele>637.0</ele><time>2026-05-01T10:43:39.66Z</time></trkpt><trkpt lat="40.914855" lon="9.2151233"><ele>637.0</ele><time>2026-05-01T10:43:40.66Z</time></trkpt><trkpt lat="40.9149133" lon="9.2149717"><ele>637.0</ele><time>2026-05-01T10:43:41.66Z</time></trkpt><trkpt lat="40.9149883" lon="9.2148433"><ele>637.0</ele><time>2026-05-01T10:43:42.66Z</time></trkpt><trkpt lat="40.915075" lon="9.2147217"><ele>637.0</ele><time>2026-05-01T10:43:43.66Z</time></trkpt><trkpt lat="40.9151667" lon="9.21461"><ele>635.0</ele><time>2026-05-01T10:43:44.66Z</time></trkpt><trkpt lat="40.91526" lon="9.21449"><ele>633.0</ele><time>2026-05-01T10:43:45.66Z</time></trkpt><trkpt lat="40.9153467" lon="9.2143867"><ele>631.0</ele><time>2026-05-01T10:43:46.66Z</time></trkpt><trkpt lat="40.9154367" lon="9.2142917"><ele>629.0</ele><time>2026-05-01T10:43:47.66Z</time></trkpt><trkpt lat="40.9155583" lon="9.2142283"><ele>629.0</ele><time>2026-05-01T10:43:48.66Z</time></trkpt><trkpt lat="40.91565" lon="9.21416"><ele>629.0</ele><time>2026-05-01T10:43:49.66Z</time></trkpt><trkpt lat="40.915765" lon="9.2140933"><ele>629.0</ele><time>2026-05-01T10:43:50.66Z</time></trkpt><trkpt lat="40.9158917" lon="9.2140233"><ele>629.0</ele><time>2026-05-01T10:43:51.66Z</time></trkpt><trkpt lat="40.91601" lon="9.2139517"><ele>626.75</ele><time>2026-05-01T10:43:52.66Z</time></trkpt><trkpt lat="40.916135" lon="9.21387"><ele>624.5</ele><time>2026-05-01T10:43:53.66Z</time></trkpt><trkpt lat="40.91625" lon="9.2137733"><ele>622.25</ele><time>2026-05-01T10:43:54.66Z</time></trkpt><trkpt lat="40.9163633" lon="9.2136667"><ele>620.0</ele><time>2026-05-01T10:43:55.66Z</time></trkpt><trkpt lat="40.91648" lon="9.2135317"><ele>620.0</ele><time>2026-05-01T10:43:56.66Z</time></trkpt><trkpt lat="40.9165833" lon="9.213375"><ele>620.0</ele><time>2026-05-01T10:43:57.66Z</time></trkpt><trkpt lat="40.9166867" lon="9.2132283"><ele>620.0</ele><time>2026-05-01T10:43:58.66Z</time></trkpt><trkpt lat="40.9167917" lon="9.213075"><ele>617.25</ele><time>2026-05-01T10:43:59.66Z</time></trkpt><trkpt lat="40.9168917" lon="9.2129267"><ele>614.5</ele><time>2026-05-01T10:44:00.66Z</time></trkpt><trkpt lat="40.9169867" lon="9.2127967"><ele>611.75</ele><time>2026-05-01T10:44:01.66Z</time></trkpt><trkpt lat="40.9170767" lon="9.2126617"><ele>609.0</ele><time>2026-05-01T10:44:02.66Z</time></trkpt><trkpt lat="40.9171767" lon="9.2125317"><ele>609.0</ele><time>2026-05-01T10:44:03.66Z</time></trkpt><trkpt lat="40.9172833" lon="9.2124067"><ele>609.0</ele><time>2026-05-01T10:44:04.66Z</time></trkpt><trkpt lat="40.9173767" lon="9.2122633"><ele>609.0</ele><time>2026-05-01T10:44:05.66Z</time></trkpt><trkpt lat="40.9174683" lon="9.2121117"><ele>609.0</ele><time>2026-05-01T10:44:06.66Z</time></trkpt><trkpt lat="40.9175583" lon="9.21195"><ele>604.3333333333334</ele><time>2026-05-01T10:44:07.66Z</time></trkpt><trkpt lat="40.9176433" lon="9.2117733"><ele>599.6666666666667</ele><time>2026-05-01T10:44:08.66Z</time></trkpt><trkpt lat="40.917715" lon="9.211595"><ele>595.0</ele><time>2026-05-01T10:44:09.66Z</time></trkpt><trkpt lat="40.9177783" lon="9.2114167"><ele>595.0</ele><time>2026-05-01T10:44:10.66Z</time></trkpt><trkpt lat="40.9178433" lon="9.2112483"><ele>595.0</ele><time>2026-05-01T10:44:11.66Z</time></trkpt><trkpt lat="40.9179" lon="9.2110817"><ele>595.0</ele><time>2026-05-01T10:44:12.66Z</time></trkpt><trkpt lat="40.9179567" lon="9.2109217"><ele>595.0</ele><time>2026-05-01T10:44:13.66Z</time></trkpt><trkpt lat="40.9179933" lon="9.2107583"><ele>594.5</ele><time>2026-05-01T10:44:14.66Z</time></trkpt><trkpt lat="40.918035" lon="9.210595"><ele>594.0</ele><time>2026-05-01T10:44:15.66Z</time></trkpt><trkpt lat="40.9180667" lon="9.2104333"><ele>593.5</ele><time>2026-05-01T10:44:16.66Z</time></trkpt><trkpt lat="40.9181217" lon="9.2102767"><ele>593.0</ele><time>2026-05-01T10:44:17.66Z</time></trkpt><trkpt lat="40.918155" lon="9.210125"><ele>593.0</ele><time>2026-05-01T10:44:18.66Z</time></trkpt><trkpt lat="40.918245" lon="9.2099767"><ele>593.0</ele><time>2026-05-01T10:44:19.66Z</time></trkpt><trkpt lat="40.918335" lon="9.209825"><ele>593.0</ele><time>2026-05-01T10:44:20.66Z</time></trkpt><trkpt lat="40.9184317" lon="9.2096733"><ele>593.0</ele><time>2026-05-01T10:44:21.661Z</time></trkpt><trkpt lat="40.9185233" lon="9.2095383"><ele>592.25</ele><time>2026-05-01T10:44:22.66Z</time></trkpt><trkpt lat="40.9186317" lon="9.20941"><ele>591.5</ele><time>2026-05-01T10:44:23.66Z</time></trkpt><trkpt lat="40.9187467" lon="9.2092717"><ele>590.75</ele><time>2026-05-01T10:44:24.66Z</time></trkpt><trkpt lat="40.9188483" lon="9.209165"><ele>590.0</ele><time>2026-05-01T10:44:25.66Z</time></trkpt><trkpt lat="40.91896" lon="9.2090383"><ele>590.25</ele><time>2026-05-01T10:44:26.66Z</time></trkpt><trkpt lat="40.9190817" lon="9.208915"><ele>590.5</ele><time>2026-05-01T10:44:27.66Z</time></trkpt><trkpt lat="40.9191883" lon="9.208815"><ele>590.75</ele><time>2026-05-01T10:44:28.66Z</time></trkpt><trkpt lat="40.9193217" lon="9.2087217"><ele>591.0</ele><time>2026-05-01T10:44:29.66Z</time></trkpt><trkpt lat="40.919425" lon="9.2086867"><ele>591.0</ele><time>2026-05-01T10:44:30.66Z</time></trkpt><trkpt lat="40.9195783" lon="9.2085967"><ele>591.0</ele><time>2026-05-01T10:44:31.66Z</time></trkpt><trkpt lat="40.9197333" lon="9.2085433"><ele>591.0</ele><time>2026-05-01T10:44:32.66Z</time></trkpt><trkpt lat="40.919875" lon="9.2084683"><ele>591.0</ele><time>2026-05-01T10:44:33.66Z</time></trkpt><trkpt lat="40.9200283" lon="9.2083917"><ele>591.0</ele><time>2026-05-01T10:44:34.66Z</time></trkpt><trkpt lat="40.9201617" lon="9.2083067"><ele>591.0</ele><time>2026-05-01T10:44:35.661Z</time></trkpt><trkpt lat="40.92029" lon="9.2082267"><ele>592.4</ele><time>2026-05-01T10:44:36.66Z</time></trkpt><trkpt lat="40.9204117" lon="9.2081433"><ele>593.8</ele><time>2026-05-01T10:44:37.661Z</time></trkpt><trkpt lat="40.9205" lon="9.208045"><ele>595.1999999999999</ele><time>2026-05-01T10:44:38.66Z</time></trkpt><trkpt lat="40.920545" lon="9.207955"><ele>596.6</ele><time>2026-05-01T10:44:39.66Z</time></trkpt><trkpt lat="40.920605" lon="9.207865"><ele>598.0</ele><time>2026-05-01T10:44:40.66Z</time></trkpt><trkpt lat="40.9206967" lon="9.2077817"><ele>598.0</ele><time>2026-05-01T10:44:41.66Z</time></trkpt><trkpt lat="40.920805" lon="9.2077067"><ele>598.0</ele><time>2026-05-01T10:44:42.66Z</time></trkpt><trkpt lat="40.9209383" lon="9.207655"><ele>598.0</ele><time>2026-05-01T10:44:43.66Z</time></trkpt><trkpt lat="40.92109" lon="9.2076083"><ele>598.0</ele><time>2026-05-01T10:44:44.66Z</time></trkpt><trkpt lat="40.9212233" lon="9.2075667"><ele>595.25</ele><time>2026-05-01T10:44:45.66Z</time></trkpt><trkpt lat="40.9213533" lon="9.20753"><ele>592.5</ele><time>2026-05-01T10:44:46.66Z</time></trkpt><trkpt lat="40.9214733" lon="9.207485"><ele>589.75</ele><time>2026-05-01T10:44:47.66Z</time></trkpt><trkpt lat="40.92159" lon="9.2074317"><ele>587.0</ele><time>2026-05-01T10:44:48.66Z</time></trkpt><trkpt lat="40.9216983" lon="9.20738"><ele>582.75</ele><time>2026-05-01T10:44:49.66Z</time></trkpt><trkpt lat="40.921805" lon="9.20733"><ele>578.5</ele><time>2026-05-01T10:44:50.66Z</time></trkpt><trkpt lat="40.9219117" lon="9.2072767"><ele>574.25</ele><time>2026-05-01T10:44:51.66Z</time></trkpt><trkpt lat="40.922015" lon="9.20721"><ele>570.0</ele><time>2026-05-01T10:44:52.66Z</time></trkpt><trkpt lat="40.92211" lon="9.2071217"><ele>570.0</ele><time>2026-05-01T10:44:53.66Z</time></trkpt><trkpt lat="40.9222017" lon="9.2070133"><ele>570.0</ele><time>2026-05-01T10:44:54.66Z</time></trkpt><trkpt lat="40.922295" lon="9.2069083"><ele>570.0</ele><time>2026-05-01T10:44:55.66Z</time></trkpt><trkpt lat="40.9223833" lon="9.2068"><ele>570.0</ele><time>2026-05-01T10:44:56.66Z</time></trkpt><trkpt lat="40.922445" lon="9.2066667"><ele>570.0</ele><time>2026-05-01T10:44:57.66Z</time></trkpt><trkpt lat="40.92249" lon="9.2065283"><ele>570.0</ele><time>2026-05-01T10:44:58.66Z</time></trkpt><trkpt lat="40.9225333" lon="9.206355"><ele>570.0</ele><time>2026-05-01T10:44:59.66Z</time></trkpt><trkpt lat="40.9225417" lon="9.206165"><ele>570.0</ele><time>2026-05-01T10:45:00.66Z</time></trkpt><trkpt lat="40.9225467" lon="9.2059783"><ele>570.0</ele><time>2026-05-01T10:45:01.66Z</time></trkpt><trkpt lat="40.922555" lon="9.2057767"><ele>570.0</ele><time>2026-05-01T10:45:02.661Z</time></trkpt><trkpt lat="40.922575" lon="9.205595"><ele>570.0</ele><time>2026-05-01T10:45:03.66Z</time></trkpt><trkpt lat="40.92258" lon="9.2053983"><ele>570.0</ele><time>2026-05-01T10:45:04.66Z</time></trkpt><trkpt lat="40.9225883" lon="9.2052067"><ele>563.0</ele><time>2026-05-01T10:45:05.66Z</time></trkpt><trkpt lat="40.9226117" lon="9.2050233"><ele>556.0</ele><time>2026-05-01T10:45:06.66Z</time></trkpt><trkpt lat="40.9226483" lon="9.20485"><ele>549.0</ele><time>2026-05-01T10:45:07.66Z</time></trkpt><trkpt lat="40.9226817" lon="9.2046833"><ele>542.0</ele><time>2026-05-01T10:45:08.66Z</time></trkpt><trkpt lat="40.9227183" lon="9.204505"><ele>541.75</ele><time>2026-05-01T10:45:09.66Z</time></trkpt><trkpt lat="40.9227483" lon="9.2043217"><ele>541.5</ele><time>2026-05-01T10:45:10.66Z</time></trkpt><trkpt lat="40.9227517" lon="9.20414"><ele>541.25</ele><time>2026-05-01T10:45:11.66Z</time></trkpt><trkpt lat="40.9227833" lon="9.2039767"><ele>541.0</ele><time>2026-05-01T10:45:12.66Z</time></trkpt><trkpt lat="40.9228083" lon="9.2038017"><ele>540.75</ele><time>2026-05-01T10:45:13.66Z</time></trkpt><trkpt lat="40.92282" lon="9.20363"><ele>540.5</ele><time>2026-05-01T10:45:14.66Z</time></trkpt><trkpt lat="40.9228267" lon="9.2034333"><ele>540.25</ele><time>2026-05-01T10:45:15.66Z</time></trkpt><trkpt lat="40.9228483" lon="9.2032683"><ele>540.0</ele><time>2026-05-01T10:45:16.66Z</time></trkpt><trkpt lat="40.9228767" lon="9.203115"><ele>539.75</ele><time>2026-05-01T10:45:17.66Z</time></trkpt><trkpt lat="40.922895" lon="9.20294"><ele>539.5</ele><time>2026-05-01T10:45:18.66Z</time></trkpt><trkpt lat="40.9229" lon="9.20275"><ele>539.25</ele><time>2026-05-01T10:45:19.66Z</time></trkpt><trkpt lat="40.9229033" lon="9.2025667"><ele>539.0</ele><time>2026-05-01T10:45:20.66Z</time></trkpt><trkpt lat="40.9229" lon="9.2023683"><ele>538.25</ele><time>2026-05-01T10:45:21.66Z</time></trkpt><trkpt lat="40.922895" lon="9.202185"><ele>537.5</ele><time>2026-05-01T10:45:22.66Z</time></trkpt><trkpt lat="40.9228767" lon="9.20201"><ele>536.75</ele><time>2026-05-01T10:45:23.66Z</time></trkpt><trkpt lat="40.9228533" lon="9.2018417"><ele>536.0</ele><time>2026-05-01T10:45:24.66Z</time></trkpt><trkpt lat="40.9228483" lon="9.20168"><ele>536.0</ele><time>2026-05-01T10:45:25.66Z</time></trkpt><trkpt lat="40.922855" lon="9.2014967"><ele>536.0</ele><time>2026-05-01T10:45:26.66Z</time></trkpt><trkpt lat="40.92287" lon="9.2013117"><ele>536.0</ele><time>2026-05-01T10:45:27.66Z</time></trkpt><trkpt lat="40.92289" lon="9.2011283"><ele>536.0</ele><time>2026-05-01T10:45:28.66Z</time></trkpt><trkpt lat="40.9229033" lon="9.200945"><ele>536.0</ele><time>2026-05-01T10:45:29.66Z</time></trkpt><trkpt lat="40.9229167" lon="9.20077"><ele>536.0</ele><time>2026-05-01T10:45:30.66Z</time></trkpt><trkpt lat="40.92294" lon="9.2005917"><ele>536.0</ele><time>2026-05-01T10:45:31.66Z</time></trkpt><trkpt lat="40.9229933" lon="9.200405"><ele>536.0</ele><time>2026-05-01T10:45:32.66Z</time></trkpt><trkpt lat="40.9230467" lon="9.2002383"><ele>536.0</ele><time>2026-05-01T10:45:33.66Z</time></trkpt><trkpt lat="40.9231033" lon="9.2000967"><ele>536.0</ele><time>2026-05-01T10:45:34.66Z</time></trkpt><trkpt lat="40.9231217" lon="9.19999"><ele>536.0</ele><time>2026-05-01T10:45:35.66Z</time></trkpt><trkpt lat="40.9231367" lon="9.1998967"><ele>536.0</ele><time>2026-05-01T10:45:36.661Z</time></trkpt><trkpt lat="40.9231233" lon="9.1998117"><ele>536.0</ele><time>2026-05-01T10:45:37.66Z</time></trkpt><trkpt lat="40.923085" lon="9.1997433"><ele>536.0</ele><time>2026-05-01T10:45:38.66Z</time></trkpt><trkpt lat="40.9230517" lon="9.1996683"><ele>534.4</ele><time>2026-05-01T10:45:39.66Z</time></trkpt><trkpt lat="40.922985" lon="9.199605"><ele>532.8</ele><time>2026-05-01T10:45:40.66Z</time></trkpt><trkpt lat="40.922905" lon="9.199555"><ele>531.1999999999999</ele><time>2026-05-01T10:45:41.66Z</time></trkpt><trkpt lat="40.92281" lon="9.19948"><ele>529.6</ele><time>2026-05-01T10:45:42.66Z</time></trkpt><trkpt lat="40.922745" lon="9.1993867"><ele>528.0</ele><time>2026-05-01T10:45:43.66Z</time></trkpt><trkpt lat="40.9226767" lon="9.1992833"><ele>528.0</ele><time>2026-05-01T10:45:44.66Z</time></trkpt><trkpt lat="40.9226233" lon="9.19919"><ele>528.0</ele><time>2026-05-01T10:45:45.66Z</time></trkpt><trkpt lat="40.9225967" lon="9.1990783"><ele>528.0</ele><time>2026-05-01T10:45:46.66Z</time></trkpt><trkpt lat="40.9225733" lon="9.1989617"><ele>528.0</ele><time>2026-05-01T10:45:47.66Z</time></trkpt><trkpt lat="40.922555" lon="9.1988417"><ele>528.0</ele><time>2026-05-01T10:45:48.66Z</time></trkpt><trkpt lat="40.9225167" lon="9.1987317"><ele>531.0</ele><time>2026-05-01T10:45:49.66Z</time></trkpt><trkpt lat="40.9224983" lon="9.19862"><ele>534.0</ele><time>2026-05-01T10:45:50.66Z</time></trkpt><trkpt lat="40.9224917" lon="9.1985167"><ele>537.0</ele><time>2026-05-01T10:45:51.66Z</time></trkpt><trkpt lat="40.9224867" lon="9.1984117"><ele>540.0</ele><time>2026-05-01T10:45:52.66Z</time></trkpt><trkpt lat="40.9224967" lon="9.19831"><ele>543.0</ele><time>2026-05-01T10:45:53.66Z</time></trkpt><trkpt lat="40.9225167" lon="9.1982133"><ele>546.0</ele><time>2026-05-01T10:45:54.66Z</time></trkpt><trkpt lat="40.92254" lon="9.1981283"><ele>543.6666666666666</ele><time>2026-05-01T10:45:55.66Z</time></trkpt><trkpt lat="40.9225767" lon="9.19805"><ele>541.3333333333334</ele><time>2026-05-01T10:45:56.66Z</time></trkpt><trkpt lat="40.9226417" lon="9.1979317"><ele>539.0</ele><time>2026-05-01T10:45:58.66Z</time></trkpt><trkpt lat="40.9227" lon="9.1978617"><ele>536.6666666666667</ele><time>2026-05-01T10:46:00.66Z</time></trkpt><trkpt lat="40.9227683" lon="9.1978333"><ele>534.3333333333334</ele><time>2026-05-01T10:46:03.66Z</time></trkpt><trkpt lat="40.9228017" lon="9.197945"><ele>532.0</ele><time>2026-05-01T10:46:06.661Z</time></trkpt><trkpt lat="40.9228367" lon="9.1981067"><ele>532.0</ele><time>2026-05-01T10:46:08.66Z</time></trkpt><trkpt lat="40.9228817" lon="9.1982217"><ele>532.0</ele><time>2026-05-01T10:46:09.66Z</time></trkpt><trkpt lat="40.9229183" lon="9.1983217"><ele>532.0</ele><time>2026-05-01T10:46:10.66Z</time></trkpt><trkpt lat="40.92295" lon="9.1984083"><ele>532.0</ele><time>2026-05-01T10:46:11.66Z</time></trkpt><trkpt lat="40.9229867" lon="9.1984767"><ele>532.0</ele><time>2026-05-01T10:46:12.66Z</time></trkpt><trkpt lat="40.9230633" lon="9.198595"><ele>532.0</ele><time>2026-05-01T10:46:14.66Z</time></trkpt><trkpt lat="40.92318" lon="9.198635"><ele>532.0</ele><time>2026-05-01T10:46:16.66Z</time></trkpt><trkpt lat="40.9232633" lon="9.1986117"><ele>532.0</ele><time>2026-05-01T10:46:17.66Z</time></trkpt><trkpt lat="40.9233533" lon="9.198565"><ele>532.0</ele><time>2026-05-01T10:46:18.66Z</time></trkpt><trkpt lat="40.9234367" lon="9.198535"><ele>532.0</ele><time>2026-05-01T10:46:19.66Z</time></trkpt><trkpt lat="40.923515" lon="9.1984967"><ele>532.0</ele><time>2026-05-01T10:46:20.66Z</time></trkpt><trkpt lat="40.9235733" lon="9.1984267"><ele>532.0</ele><time>2026-05-01T10:46:21.66Z</time></trkpt><trkpt lat="40.9236433" lon="9.1983633"><ele>526.2</ele><time>2026-05-01T10:46:22.66Z</time></trkpt><trkpt lat="40.92373" lon="9.1982483"><ele>520.4000000000001</ele><time>2026-05-01T10:46:23.66Z</time></trkpt><trkpt lat="40.9237883" lon="9.1981917"><ele>514.5999999999999</ele><time>2026-05-01T10:46:24.66Z</time></trkpt><trkpt lat="40.92383" lon="9.19812"><ele>508.79999999999995</ele><time>2026-05-01T10:46:25.66Z</time></trkpt><trkpt lat="40.9238833" lon="9.1979183"><ele>503.0</ele><time>2026-05-01T10:46:27.66Z</time></trkpt><trkpt lat="40.923905" lon="9.1977583"><ele>503.0</ele><time>2026-05-01T10:46:28.66Z</time></trkpt><trkpt lat="40.9239233" lon="9.1976233"><ele>502.99999999999994</ele><time>2026-05-01T10:46:29.66Z</time></trkpt><trkpt lat="40.923965" lon="9.1974917"><ele>502.99999999999994</ele><time>2026-05-01T10:46:30.66Z</time></trkpt><trkpt lat="40.924005" lon="9.1973767"><ele>503.0</ele><time>2026-05-01T10:46:31.66Z</time></trkpt><trkpt lat="40.924055" lon="9.1972567"><ele>503.0</ele><time>2026-05-01T10:46:32.66Z</time></trkpt><trkpt lat="40.9240833" lon="9.1971433"><ele>504.2</ele><time>2026-05-01T10:46:33.66Z</time></trkpt><trkpt lat="40.924075" lon="9.1970233"><ele>505.4</ele><time>2026-05-01T10:46:34.66Z</time></trkpt><trkpt lat="40.9241033" lon="9.1969167"><ele>506.59999999999997</ele><time>2026-05-01T10:46:35.66Z</time></trkpt><trkpt lat="40.924155" lon="9.1968083"><ele>507.79999999999995</ele><time>2026-05-01T10:46:36.66Z</time></trkpt><trkpt lat="40.9240867" lon="9.1966667"><ele>509.0</ele><time>2026-05-01T10:46:37.66Z</time></trkpt><trkpt lat="40.9240017" lon="9.19657"><ele>510.3333333333333</ele><time>2026-05-01T10:46:38.661Z</time></trkpt><trkpt lat="40.9238817" lon="9.1965017"><ele>511.66666666666663</ele><time>2026-05-01T10:46:39.66Z</time></trkpt><trkpt lat="40.9236767" lon="9.1964883"><ele>513.0</ele><time>2026-05-01T10:46:40.66Z</time></trkpt><trkpt lat="40.92355" lon="9.1964583"><ele>513.0</ele><time>2026-05-01T10:46:41.66Z</time></trkpt><trkpt lat="40.9234533" lon="9.1964233"><ele>513.0</ele><time>2026-05-01T10:46:42.66Z</time></trkpt><trkpt lat="40.9233617" lon="9.19637"><ele>513.0</ele><time>2026-05-01T10:46:43.66Z</time></trkpt><trkpt lat="40.9232917" lon="9.196325"><ele>513.0</ele><time>2026-05-01T10:46:45.66Z</time></trkpt><trkpt lat="40.9232217" lon="9.1963783"><ele>513.0</ele><time>2026-05-01T10:46:50.66Z</time></trkpt><trkpt lat="40.9231333" lon="9.1963917"><ele>513.0</ele><time>2026-05-01T10:46:53.66Z</time></trkpt><trkpt lat="40.923055" lon="9.1963817"><ele>516.1999999999999</ele><time>2026-05-01T10:46:55.661Z</time></trkpt><trkpt lat="40.92298" lon="9.1963167"><ele>519.4</ele><time>2026-05-01T10:46:57.66Z</time></trkpt><trkpt lat="40.9228967" lon="9.1962833"><ele>522.5999999999999</ele><time>2026-05-01T10:46:59.66Z</time></trkpt><trkpt lat="40.9228117" lon="9.1962483"><ele>525.8</ele><time>2026-05-01T10:47:01.661Z</time></trkpt><trkpt lat="40.9227033" lon="9.1962283"><ele>529.0</ele><time>2026-05-01T10:47:03.66Z</time></trkpt><trkpt lat="40.9226117" lon="9.1962567"><ele>529.0</ele><time>2026-05-01T10:47:05.66Z</time></trkpt><trkpt lat="40.9224917" lon="9.1962867"><ele>529.0</ele><time>2026-05-01T10:47:07.66Z</time></trkpt><trkpt lat="40.9224217" lon="9.1962617"><ele>529.0</ele><time>2026-05-01T10:47:09.66Z</time></trkpt><trkpt lat="40.9224" lon="9.19616"><ele>529.0</ele><time>2026-05-01T10:47:11.66Z</time></trkpt><trkpt lat="40.922395" lon="9.1960433"><ele>529.0</ele><time>2026-05-01T10:47:12.66Z</time></trkpt><trkpt lat="40.9223667" lon="9.195965"><ele>529.0</ele><time>2026-05-01T10:47:13.66Z</time></trkpt><trkpt lat="40.9223617" lon="9.19583"><ele>529.0</ele><time>2026-05-01T10:47:15.66Z</time></trkpt><trkpt lat="40.922385" lon="9.1957517"><ele>529.0</ele><time>2026-05-01T10:47:17.66Z</time></trkpt><trkpt lat="40.92245" lon="9.1956967"><ele>529.0</ele><time>2026-05-01T10:47:19.66Z</time></trkpt><trkpt lat="40.922515" lon="9.1956567"><ele>529.0</ele><time>2026-05-01T10:47:21.66Z</time></trkpt><trkpt lat="40.9224917" lon="9.1955583"><ele>529.0</ele><time>2026-05-01T10:47:30.66Z</time></trkpt><trkpt lat="40.92252" lon="9.1954667"><ele>529.0</ele><time>2026-05-01T10:47:32.66Z</time></trkpt><trkpt lat="40.9226017" lon="9.195335"><ele>528.1666666666667</ele><time>2026-05-01T10:47:34.66Z</time></trkpt><trkpt lat="40.922655" lon="9.195265"><ele>527.3333333333334</ele><time>2026-05-01T10:47:35.66Z</time></trkpt><trkpt lat="40.9227017" lon="9.19519"><ele>526.5</ele><time>2026-05-01T10:47:36.66Z</time></trkpt><trkpt lat="40.922745" lon="9.1951067"><ele>525.6666666666666</ele><time>2026-05-01T10:47:37.66Z</time></trkpt><trkpt lat="40.9227917" lon="9.195025"><ele>524.8333333333333</ele><time>2026-05-01T10:47:38.66Z</time></trkpt><trkpt lat="40.9228283" lon="9.19495"><ele>524.0</ele><time>2026-05-01T10:47:39.66Z</time></trkpt><trkpt lat="40.922865" lon="9.1948267"><ele>523.4</ele><time>2026-05-01T10:47:41.66Z</time></trkpt><trkpt lat="40.9228517" lon="9.1946833"><ele>522.8</ele><time>2026-05-01T10:47:43.66Z</time></trkpt><trkpt lat="40.922865" lon="9.1945367"><ele>522.2</ele><time>2026-05-01T10:47:45.66Z</time></trkpt><trkpt lat="40.9228667" lon="9.1944517"><ele>521.6</ele><time>2026-05-01T10:47:46.661Z</time></trkpt><trkpt lat="40.9228917" lon="9.1943267"><ele>521.0</ele><time>2026-05-01T10:47:48.66Z</time></trkpt><trkpt lat="40.922925" lon="9.1942417"><ele>521.0</ele><time>2026-05-01T10:47:49.66Z</time></trkpt><trkpt lat="40.9229183" lon="9.194145"><ele>521.0</ele><time>2026-05-01T10:47:50.66Z</time></trkpt><trkpt lat="40.9229233" lon="9.1940517"><ele>521.0</ele><time>2026-05-01T10:47:51.66Z</time></trkpt><trkpt lat="40.9229283" lon="9.19391"><ele>521.0</ele><time>2026-05-01T10:47:53.66Z</time></trkpt><trkpt lat="40.922945" lon="9.193825"><ele>521.0</ele><time>2026-05-01T10:47:55.66Z</time></trkpt><trkpt lat="40.9228733" lon="9.1938067"><ele>521.0</ele><time>2026-05-01T10:48:02.66Z</time></trkpt><trkpt lat="40.92282" lon="9.1939283"><ele>521.0</ele><time>2026-05-01T10:48:20.66Z</time></trkpt><trkpt lat="40.9227667" lon="9.1940367"><ele>521.0</ele><time>2026-05-01T10:48:23.66Z</time></trkpt><trkpt lat="40.9227033" lon="9.19413"><ele>521.0</ele><time>2026-05-01T10:48:25.66Z</time></trkpt><trkpt lat="40.9226467" lon="9.1942217"><ele>521.0</ele><time>2026-05-01T10:48:27.66Z</time></trkpt><trkpt lat="40.9226183" lon="9.1943483"><ele>521.0</ele><time>2026-05-01T10:48:29.66Z</time></trkpt><trkpt lat="40.9226417" lon="9.1944283"><ele>521.0</ele><time>2026-05-01T10:48:32.66Z</time></trkpt><trkpt lat="40.9227167" lon="9.19448"><ele>521.0</ele><time>2026-05-01T10:48:34.66Z</time></trkpt><trkpt lat="40.9228" lon="9.1945167"><ele>521.0</ele><time>2026-05-01T10:48:36.66Z</time></trkpt><trkpt lat="40.9228783" lon="9.1945233"><ele>521.0</ele><time>2026-05-01T10:48:39.66Z</time></trkpt><trkpt lat="40.9228417" lon="9.19445"><ele>521.0</ele><time>2026-05-01T10:48:41.66Z</time></trkpt><trkpt lat="40.9227983" lon="9.1943433"><ele>521.0</ele><time>2026-05-01T10:48:43.66Z</time></trkpt><trkpt lat="40.9226983" lon="9.1942067"><ele>521.0</ele><time>2026-05-01T10:48:44.66Z</time></trkpt><trkpt lat="40.922695" lon="9.194085"><ele>521.0</ele><time>2026-05-01T10:48:46.66Z</time></trkpt><trkpt lat="40.9227067" lon="9.1939633"><ele>521.0</ele><time>2026-05-01T10:48:48.66Z</time></trkpt><trkpt lat="40.9227033" lon="9.1938617"><ele>521.0</ele><time>2026-05-01T10:48:50.66Z</time></trkpt><trkpt lat="40.9226383" lon="9.1938317"><ele>521.0</ele><time>2026-05-01T10:48:55.66Z</time></trkpt><trkpt lat="40.9226533" lon="9.1937467"><ele>521.0</ele><time>2026-05-01T10:49:18.66Z</time></trkpt><trkpt lat="40.9225917" lon="9.1937833"><ele>520.1666666666666</ele><time>2026-05-01T10:49:25.659Z</time></trkpt><trkpt lat="40.922515" lon="9.19381"><ele>519.3333333333333</ele><time>2026-05-01T10:49:28.659Z</time></trkpt><trkpt lat="40.9224583" lon="9.19377"><ele>518.5</ele><time>2026-05-01T10:49:31.659Z</time></trkpt><trkpt lat="40.9224517" lon="9.1936483"><ele>517.6666666666666</ele><time>2026-05-01T10:49:33.659Z</time></trkpt><trkpt lat="40.9224167" lon="9.193545"><ele>516.8333333333334</ele><time>2026-05-01T10:49:35.659Z</time></trkpt><trkpt lat="40.9223733" lon="9.193405"><ele>516.0</ele><time>2026-05-01T10:49:37.659Z</time></trkpt><trkpt lat="40.9223783" lon="9.1932867"><ele>516.0</ele><time>2026-05-01T10:49:40.659Z</time></trkpt><trkpt lat="40.9223617" lon="9.1931817"><ele>516.0</ele><time>2026-05-01T10:49:43.659Z</time></trkpt><trkpt lat="40.9223367" lon="9.1930683"><ele>516.0</ele><time>2026-05-01T10:49:46.659Z</time></trkpt><trkpt lat="40.92228" lon="9.1929967"><ele>516.0</ele><time>2026-05-01T10:49:49.659Z</time></trkpt><trkpt lat="40.9222567" lon="9.1929117"><ele>516.0</ele><time>2026-05-01T10:49:52.659Z</time></trkpt><trkpt lat="40.92223" lon="9.1928117"><ele>516.0</ele><time>2026-05-01T10:49:55.659Z</time></trkpt><trkpt lat="40.9221967" lon="9.19271"><ele>515.1666666666666</ele><time>2026-05-01T10:49:58.659Z</time></trkpt><trkpt lat="40.9221283" lon="9.1926817"><ele>514.3333333333334</ele><time>2026-05-01T10:50:02.659Z</time></trkpt><trkpt lat="40.9222383" lon="9.19255"><ele>513.5</ele><time>2026-05-01T10:51:29.659Z</time></trkpt><trkpt lat="40.92222" lon="9.192445"><ele>512.6666666666667</ele><time>2026-05-01T10:53:58.659Z</time></trkpt><trkpt lat="40.92229" lon="9.19242"><ele>511.83333333333337</ele><time>2026-05-01T10:55:06.659Z</time></trkpt><trkpt lat="40.92235" lon="9.1923717"><ele>511.0</ele><time>2026-05-01T10:55:11.659Z</time></trkpt><trkpt lat="40.922251" lon="9.1922637"><ele>511.0</ele><time>2026-05-01T10:55:22.467Z</time></trkpt><trkpt lat="40.9225067" lon="9.1927017"><ele>511.0</ele><time>2026-05-01T10:57:03.68Z</time></trkpt><trkpt lat="40.92242" lon="9.19278"><ele>511.0</ele><time>2026-05-01T10:57:10.68Z</time></trkpt><trkpt lat="40.9223117" lon="9.1927183"><ele>511.0</ele><time>2026-05-01T10:57:14.68Z</time></trkpt><trkpt lat="40.92223" lon="9.1925867"><ele>511.0</ele><time>2026-05-01T10:57:33.68Z</time></trkpt><trkpt lat="40.9222367" lon="9.1926717"><ele>511.0</ele><time>2026-05-01T10:57:37.68Z</time></trkpt><trkpt lat="40.9222067" lon="9.19254"><ele>511.0</ele><time>2026-05-01T10:57:58.68Z</time></trkpt><trkpt lat="40.9222161" lon="9.1923472"><ele>511.0</ele><time>2026-05-01T10:58:39.676Z</time></trkpt><trkpt lat="40.9223065" lon="9.1923584"><ele>511.0</ele><time>2026-05-01T11:00:44.694Z</time></trkpt><trkpt lat="40.9224214" lon="9.192389"><ele>511.0</ele><time>2026-05-01T11:00:45.694Z</time></trkpt><trkpt lat="40.9223836" lon="9.1924786"><ele>511.0</ele><time>2026-05-01T11:00:48.694Z</time></trkpt><trkpt lat="40.9224692" lon="9.1924477"><ele>511.0</ele><time>2026-05-01T11:00:51.694Z</time></trkpt><trkpt lat="40.9225516" lon="9.1923866"><ele>510.6666666666667</ele><time>2026-05-01T11:00:53.694Z</time></trkpt><trkpt lat="40.9226286" lon="9.1923554"><ele>510.33333333333337</ele><time>2026-05-01T11:00:55.694Z</time></trkpt><trkpt lat="40.9227036" lon="9.1923107"><ele>510.0</ele><time>2026-05-01T11:00:57.694Z</time></trkpt><trkpt lat="40.9227092" lon="9.1922062"><ele>509.66666666666663</ele><time>2026-05-01T11:01:01.694Z</time></trkpt><trkpt lat="40.9226863" lon="9.1920924"><ele>509.3333333333333</ele><time>2026-05-01T11:01:03.694Z</time></trkpt><trkpt lat="40.9226427" lon="9.1920318"><ele>509.0</ele><time>2026-05-01T11:01:08.694Z</time></trkpt><trkpt lat="40.9225553" lon="9.1920922"><ele>508.79999999999995</ele><time>2026-05-01T11:01:10.694Z</time></trkpt><trkpt lat="40.9224627" lon="9.1921381"><ele>508.59999999999997</ele><time>2026-05-01T11:01:12.694Z</time></trkpt><trkpt lat="40.922347" lon="9.1922139"><ele>508.4</ele><time>2026-05-01T11:01:30.694Z</time></trkpt><trkpt lat="40.9222587" lon="9.1922874"><ele>508.2</ele><time>2026-05-01T11:01:34.692Z</time></trkpt><trkpt lat="40.9222205" lon="9.1923703"><ele>508.0</ele><time>2026-05-01T11:01:44.692Z</time></trkpt><trkpt lat="40.9221566" lon="9.1924355"><ele>508.75</ele><time>2026-05-01T11:01:47.692Z</time></trkpt><trkpt lat="40.9219808" lon="9.1926624"><ele>509.5</ele><time>2026-05-01T11:02:04.691Z</time></trkpt><trkpt lat="40.9219088" lon="9.1927225"><ele>510.25</ele><time>2026-05-01T11:02:05.691Z</time></trkpt><trkpt lat="40.9218151" lon="9.1926967"><ele>511.0</ele><time>2026-05-01T11:02:08.691Z</time></trkpt><trkpt lat="40.9219559" lon="9.1925436"><ele>511.0</ele><time>2026-05-01T11:02:10.691Z</time></trkpt><trkpt lat="40.9220131" lon="9.1924855"><ele>511.0</ele><time>2026-05-01T11:02:13.691Z</time></trkpt><trkpt lat="40.9221025" lon="9.1924091"><ele>511.0</ele><time>2026-05-01T11:02:16.691Z</time></trkpt><trkpt lat="40.9217268" lon="9.1926596"><ele>511.0</ele><time>2026-05-01T11:02:33.695Z</time></trkpt><trkpt lat="40.921929" lon="9.1925211"><ele>511.0</ele><time>2026-05-01T11:02:37.695Z</time></trkpt><trkpt lat="40.9217397" lon="9.1926311"><ele>511.0</ele><time>2026-05-01T11:02:38.695Z</time></trkpt><trkpt lat="40.9219167" lon="9.1925369"><ele>511.0</ele><time>2026-05-01T11:02:40.695Z</time></trkpt><trkpt lat="40.9220458" lon="9.1924564"><ele>511.0</ele><time>2026-05-01T11:02:41.695Z</time></trkpt><trkpt lat="40.9217462" lon="9.1926309"><ele>511.0</ele><time>2026-05-01T11:02:42.695Z</time></trkpt><trkpt lat="40.9216897" lon="9.1926717"><ele>511.0</ele><time>2026-05-01T11:02:43.695Z</time></trkpt><trkpt lat="40.9217866" lon="9.1926238"><ele>511.0</ele><time>2026-05-01T11:02:59.695Z</time></trkpt><trkpt lat="40.9219875" lon="9.1924701"><ele>511.0</ele><time>2026-05-01T11:03:03.695Z</time></trkpt><trkpt lat="40.9221208" lon="9.1923956"><ele>511.00000000000006</ele><time>2026-05-01T11:03:07.695Z</time></trkpt><trkpt lat="40.9222317" lon="9.1923417"><ele>511.0</ele><time>2026-05-01T11:07:39.599Z</time></trkpt><trkpt lat="40.9222663" lon="9.1924404"><ele>511.0</ele><time>2026-05-01T11:07:42.599Z</time></trkpt><trkpt lat="40.9222502" lon="9.1925361"><ele>511.0</ele><time>2026-05-01T11:07:49.599Z</time></trkpt><trkpt lat="40.9221862" lon="9.1925082"><ele>511.00000000000006</ele><time>2026-05-01T11:08:01.692Z</time></trkpt><trkpt lat="40.92219" lon="9.1923968"><ele>511.0</ele><time>2026-05-01T11:08:29.679Z</time></trkpt><trkpt lat="40.9221994" lon="9.1924892"><ele>511.0</ele><time>2026-05-01T11:08:46.684Z</time></trkpt><trkpt lat="40.9221167" lon="9.1925047"><ele>511.0</ele><time>2026-05-01T11:08:52.684Z</time></trkpt><trkpt lat="40.9221349" lon="9.1924093"><ele>511.0</ele><time>2026-05-01T11:09:03.684Z</time></trkpt><trkpt lat="40.9222259" lon="9.1923298"><ele>511.0</ele><time>2026-05-01T11:09:50.684Z</time></trkpt><trkpt lat="40.9223237" lon="9.1922687"><ele>511.0</ele><time>2026-05-01T11:10:20.684Z</time></trkpt><trkpt lat="40.9222387" lon="9.19231"><ele>511.00000000000006</ele><time>2026-05-01T11:10:49.28Z</time></trkpt><trkpt lat="40.9222464" lon="9.1923947"><ele>511.0</ele><time>2026-05-01T11:14:27.68Z</time></trkpt><trkpt lat="40.922244" lon="9.1924784"><ele>511.0</ele><time>2026-05-01T11:14:29.68Z</time></trkpt><trkpt lat="40.9222411" lon="9.192562"><ele>511.0</ele><time>2026-05-01T11:14:33.681Z</time></trkpt><trkpt lat="40.922176" lon="9.1925728"><ele>511.00000000000006</ele><time>2026-05-01T11:15:23.679Z</time></trkpt><trkpt lat="40.9222417" lon="9.1926333"><ele>511.0</ele><time>2026-05-01T11:17:53.679Z</time></trkpt><trkpt lat="40.9222983" lon="9.1927733"><ele>511.0</ele><time>2026-05-01T11:17:56.679Z</time></trkpt><trkpt lat="40.922305" lon="9.192905"><ele>511.0</ele><time>2026-05-01T11:17:58.679Z</time></trkpt><trkpt lat="40.92226" lon="9.1930567"><ele>511.0</ele><time>2026-05-01T11:18:00.679Z</time></trkpt><trkpt lat="40.9222383" lon="9.1931383"><ele>511.0</ele><time>2026-05-01T11:18:02.679Z</time></trkpt><trkpt lat="40.92217" lon="9.1931983"><ele>511.0</ele><time>2026-05-01T11:18:04.679Z</time></trkpt><trkpt lat="40.9220633" lon="9.193265"><ele>510.8</ele><time>2026-05-01T11:18:06.679Z</time></trkpt><trkpt lat="40.9219417" lon="9.1932683"><ele>510.6</ele><time>2026-05-01T11:18:07.679Z</time></trkpt><trkpt lat="40.9218317" lon="9.193285"><ele>510.4</ele><time>2026-05-01T11:18:09.679Z</time></trkpt><trkpt lat="40.92173" lon="9.19332"><ele>510.2</ele><time>2026-05-01T11:18:11.679Z</time></trkpt><trkpt lat="40.921625" lon="9.1933267"><ele>510.0</ele><time>2026-05-01T11:18:13.679Z</time></trkpt><trkpt lat="40.9215183" lon="9.1933133"><ele>510.0</ele><time>2026-05-01T11:18:15.679Z</time></trkpt><trkpt lat="40.9214383" lon="9.19334"><ele>510.0</ele><time>2026-05-01T11:18:17.679Z</time></trkpt><trkpt lat="40.9213417" lon="9.19334"><ele>510.0</ele><time>2026-05-01T11:18:19.679Z</time></trkpt><trkpt lat="40.92131" lon="9.19345"><ele>510.0</ele><time>2026-05-01T11:18:20.68Z</time></trkpt><trkpt lat="40.92124" lon="9.19342"><ele>510.0</ele><time>2026-05-01T11:18:22.679Z</time></trkpt><trkpt lat="40.9211533" lon="9.19339"><ele>510.0</ele><time>2026-05-01T11:18:24.68Z</time></trkpt><trkpt lat="40.921115" lon="9.19332"><ele>510.0</ele><time>2026-05-01T11:18:32.679Z</time></trkpt><trkpt lat="40.9211317" lon="9.1932233"><ele>510.0</ele><time>2026-05-01T11:18:37.679Z</time></trkpt><trkpt lat="40.921035" lon="9.19333"><ele>510.0</ele><time>2026-05-01T11:18:39.679Z</time></trkpt><trkpt lat="40.9209933" lon="9.1933983"><ele>510.0</ele><time>2026-05-01T11:18:40.679Z</time></trkpt><trkpt lat="40.9209483" lon="9.1934783"><ele>510.0</ele><time>2026-05-01T11:18:41.679Z</time></trkpt><trkpt lat="40.92092" lon="9.1935933"><ele>510.0</ele><time>2026-05-01T11:18:42.679Z</time></trkpt><trkpt lat="40.92088" lon="9.193695"><ele>510.5</ele><time>2026-05-01T11:18:43.679Z</time></trkpt><trkpt lat="40.920835" lon="9.1937883"><ele>511.0</ele><time>2026-05-01T11:18:44.679Z</time></trkpt><trkpt lat="40.9207767" lon="9.1938867"><ele>511.5</ele><time>2026-05-01T11:18:45.679Z</time></trkpt><trkpt lat="40.9207183" lon="9.1939833"><ele>512.0</ele><time>2026-05-01T11:18:46.679Z</time></trkpt><trkpt lat="40.9206667" lon="9.1940817"><ele>512.5</ele><time>2026-05-01T11:18:47.679Z</time></trkpt><trkpt lat="40.920615" lon="9.1941667"><ele>513.0</ele><time>2026-05-01T11:18:48.679Z</time></trkpt><trkpt lat="40.9205617" lon="9.1942517"><ele>513.0</ele><time>2026-05-01T11:18:49.679Z</time></trkpt><trkpt lat="40.9205133" lon="9.194345"><ele>513.0</ele><time>2026-05-01T11:18:50.679Z</time></trkpt><trkpt lat="40.920475" lon="9.1944333"><ele>513.0</ele><time>2026-05-01T11:18:51.679Z</time></trkpt><trkpt lat="40.9204517" lon="9.1945117"><ele>513.0</ele><time>2026-05-01T11:18:52.679Z</time></trkpt><trkpt lat="40.9204583" lon="9.1945967"><ele>513.0</ele><time>2026-05-01T11:18:53.679Z</time></trkpt><trkpt lat="40.9204517" lon="9.1946933"><ele>513.0</ele><time>2026-05-01T11:18:55.679Z</time></trkpt><trkpt lat="40.92036" lon="9.1946733"><ele>513.0</ele><time>2026-05-01T11:18:58.679Z</time></trkpt><trkpt lat="40.9202983" lon="9.1945967"><ele>513.0</ele><time>2026-05-01T11:18:59.679Z</time></trkpt><trkpt lat="40.9202467" lon="9.1945133"><ele>513.0</ele><time>2026-05-01T11:19:00.679Z</time></trkpt><trkpt lat="40.9201833" lon="9.194435"><ele>513.0</ele><time>2026-05-01T11:19:01.679Z</time></trkpt><trkpt lat="40.9201633" lon="9.1943467"><ele>513.0</ele><time>2026-05-01T11:19:02.679Z</time></trkpt><trkpt lat="40.9201483" lon="9.1942467"><ele>513.0</ele><time>2026-05-01T11:19:03.679Z</time></trkpt><trkpt lat="40.9201333" lon="9.1941383"><ele>513.0</ele><time>2026-05-01T11:19:04.679Z</time></trkpt><trkpt lat="40.9200967" lon="9.1940533"><ele>513.0</ele><time>2026-05-01T11:19:05.679Z</time></trkpt><trkpt lat="40.920045" lon="9.1939633"><ele>513.0</ele><time>2026-05-01T11:19:06.679Z</time></trkpt><trkpt lat="40.9199767" lon="9.1938683"><ele>513.0</ele><time>2026-05-01T11:19:07.679Z</time></trkpt><trkpt lat="40.9198783" lon="9.19377"><ele>513.0</ele><time>2026-05-01T11:19:08.679Z</time></trkpt><trkpt lat="40.919815" lon="9.1937033"><ele>510.6666666666667</ele><time>2026-05-01T11:19:09.679Z</time></trkpt><trkpt lat="40.919745" lon="9.193645"><ele>508.33333333333337</ele><time>2026-05-01T11:19:10.679Z</time></trkpt><trkpt lat="40.9196633" lon="9.1935833"><ele>506.0</ele><time>2026-05-01T11:19:11.679Z</time></trkpt><trkpt lat="40.91959" lon="9.1935117"><ele>503.6666666666667</ele><time>2026-05-01T11:19:12.679Z</time></trkpt><trkpt lat="40.91952" lon="9.193465"><ele>501.33333333333337</ele><time>2026-05-01T11:19:13.679Z</time></trkpt><trkpt lat="40.9194433" lon="9.1934133"><ele>499.0</ele><time>2026-05-01T11:19:14.679Z</time></trkpt><trkpt lat="40.9193567" lon="9.1933683"><ele>499.00000000000006</ele><time>2026-05-01T11:19:15.679Z</time></trkpt><trkpt lat="40.91926" lon="9.1933433"><ele>499.0</ele><time>2026-05-01T11:19:16.68Z</time></trkpt><trkpt lat="40.9191783" lon="9.1933"><ele>499.0</ele><time>2026-05-01T11:19:17.679Z</time></trkpt><trkpt lat="40.9190967" lon="9.193255"><ele>499.0</ele><time>2026-05-01T11:19:18.679Z</time></trkpt><trkpt lat="40.9190333" lon="9.193195"><ele>499.00000000000006</ele><time>2026-05-01T11:19:19.679Z</time></trkpt><trkpt lat="40.91897" lon="9.1931383"><ele>499.0</ele><time>2026-05-01T11:19:20.679Z</time></trkpt><trkpt lat="40.9188967" lon="9.1930717"><ele>500.2</ele><time>2026-05-01T11:19:21.679Z</time></trkpt><trkpt lat="40.9188217" lon="9.1930033"><ele>501.4</ele><time>2026-05-01T11:19:22.679Z</time></trkpt><trkpt lat="40.918755" lon="9.1929017"><ele>502.6</ele><time>2026-05-01T11:19:23.679Z</time></trkpt><trkpt lat="40.9186867" lon="9.1927983"><ele>503.8</ele><time>2026-05-01T11:19:24.679Z</time></trkpt><trkpt lat="40.9186017" lon="9.1926933"><ele>505.0</ele><time>2026-05-01T11:19:25.679Z</time></trkpt><trkpt lat="40.9185067" lon="9.1925883"><ele>505.0</ele><time>2026-05-01T11:19:26.679Z</time></trkpt><trkpt lat="40.9184133" lon="9.192495"><ele>505.0</ele><time>2026-05-01T11:19:27.679Z</time></trkpt><trkpt lat="40.9183167" lon="9.192385"><ele>505.0</ele><time>2026-05-01T11:19:28.679Z</time></trkpt><trkpt lat="40.9182217" lon="9.1922867"><ele>505.0</ele><time>2026-05-01T11:19:29.679Z</time></trkpt><trkpt lat="40.9181" lon="9.1921817"><ele>506.75</ele><time>2026-05-01T11:19:30.679Z</time></trkpt><trkpt lat="40.9180033" lon="9.192065"><ele>508.5</ele><time>2026-05-01T11:19:31.679Z</time></trkpt><trkpt lat="40.9179117" lon="9.1919383"><ele>510.25</ele><time>2026-05-01T11:19:32.679Z</time></trkpt><trkpt lat="40.9178267" lon="9.19182"><ele>512.0</ele><time>2026-05-01T11:19:33.679Z</time></trkpt><trkpt lat="40.9177483" lon="9.1917117"><ele>511.99999999999994</ele><time>2026-05-01T11:19:34.679Z</time></trkpt><trkpt lat="40.9176767" lon="9.1916083"><ele>512.0</ele><time>2026-05-01T11:19:35.679Z</time></trkpt><trkpt lat="40.9176333" lon="9.191515"><ele>512.0</ele><time>2026-05-01T11:19:36.68Z</time></trkpt><trkpt lat="40.9175767" lon="9.1914317"><ele>512.0</ele><time>2026-05-01T11:19:37.679Z</time></trkpt><trkpt lat="40.9175367" lon="9.191345"><ele>511.99999999999994</ele><time>2026-05-01T11:19:38.679Z</time></trkpt><trkpt lat="40.9175" lon="9.1912383"><ele>512.0</ele><time>2026-05-01T11:19:39.679Z</time></trkpt><trkpt lat="40.917475" lon="9.19113"><ele>515.3333333333333</ele><time>2026-05-01T11:19:40.679Z</time></trkpt><trkpt lat="40.917445" lon="9.19102"><ele>518.6666666666666</ele><time>2026-05-01T11:19:41.679Z</time></trkpt><trkpt lat="40.91743" lon="9.190905"><ele>522.0</ele><time>2026-05-01T11:19:42.679Z</time></trkpt><trkpt lat="40.9174383" lon="9.1907967"><ele>525.3333333333334</ele><time>2026-05-01T11:19:43.679Z</time></trkpt><trkpt lat="40.91746" lon="9.1907"><ele>528.6666666666667</ele><time>2026-05-01T11:19:44.679Z</time></trkpt><trkpt lat="40.9174867" lon="9.1906033"><ele>532.0</ele><time>2026-05-01T11:19:45.679Z</time></trkpt><trkpt lat="40.9174817" lon="9.1904467"><ele>532.4</ele><time>2026-05-01T11:19:47.679Z</time></trkpt><trkpt lat="40.9174417" lon="9.1902833"><ele>532.8000000000001</ele><time>2026-05-01T11:19:49.679Z</time></trkpt><trkpt lat="40.9174117" lon="9.1901867"><ele>533.2</ele><time>2026-05-01T11:19:50.679Z</time></trkpt><trkpt lat="40.9174067" lon="9.1900617"><ele>533.6</ele><time>2026-05-01T11:19:51.679Z</time></trkpt><trkpt lat="40.9173983" lon="9.1899317"><ele>534.0</ele><time>2026-05-01T11:19:52.679Z</time></trkpt><trkpt lat="40.9173833" lon="9.1897983"><ele>534.2</ele><time>2026-05-01T11:19:53.679Z</time></trkpt><trkpt lat="40.9173717" lon="9.1896783"><ele>534.4</ele><time>2026-05-01T11:19:54.679Z</time></trkpt><trkpt lat="40.9173633" lon="9.189565"><ele>534.6</ele><time>2026-05-01T11:19:55.679Z</time></trkpt><trkpt lat="40.91737" lon="9.1894333"><ele>534.8</ele><time>2026-05-01T11:19:56.679Z</time></trkpt><trkpt lat="40.9173717" lon="9.1893"><ele>535.0</ele><time>2026-05-01T11:19:57.679Z</time></trkpt><trkpt lat="40.9173683" lon="9.1891517"><ele>535.0</ele><time>2026-05-01T11:19:58.679Z</time></trkpt><trkpt lat="40.9173617" lon="9.189015"><ele>535.0</ele><time>2026-05-01T11:19:59.679Z</time></trkpt><trkpt lat="40.9173633" lon="9.1888717"><ele>535.0</ele><time>2026-05-01T11:20:00.679Z</time></trkpt><trkpt lat="40.9173633" lon="9.188725"><ele>535.0</ele><time>2026-05-01T11:20:01.679Z</time></trkpt><trkpt lat="40.91737" lon="9.188575"><ele>535.0</ele><time>2026-05-01T11:20:02.679Z</time></trkpt><trkpt lat="40.917385" lon="9.18843"><ele>535.1666666666667</ele><time>2026-05-01T11:20:03.679Z</time></trkpt><trkpt lat="40.917395" lon="9.1883067"><ele>535.3333333333334</ele><time>2026-05-01T11:20:04.68Z</time></trkpt><trkpt lat="40.9174033" lon="9.1881983"><ele>535.5</ele><time>2026-05-01T11:20:05.679Z</time></trkpt><trkpt lat="40.9174" lon="9.1881"><ele>535.6666666666666</ele><time>2026-05-01T11:20:06.679Z</time></trkpt><trkpt lat="40.9173967" lon="9.188005"><ele>535.8333333333333</ele><time>2026-05-01T11:20:07.679Z</time></trkpt><trkpt lat="40.91739" lon="9.1879067"><ele>536.0</ele><time>2026-05-01T11:20:08.679Z</time></trkpt><trkpt lat="40.917365" lon="9.187805"><ele>534.8</ele><time>2026-05-01T11:20:09.679Z</time></trkpt><trkpt lat="40.9173333" lon="9.187685"><ele>533.6</ele><time>2026-05-01T11:20:10.679Z</time></trkpt><trkpt lat="40.91729" lon="9.1875633"><ele>532.4</ele><time>2026-05-01T11:20:11.679Z</time></trkpt><trkpt lat="40.9172317" lon="9.1874483"><ele>531.2</ele><time>2026-05-01T11:20:12.679Z</time></trkpt><trkpt lat="40.9171817" lon="9.18734"><ele>530.0</ele><time>2026-05-01T11:20:13.679Z</time></trkpt><trkpt lat="40.91713" lon="9.1872433"><ele>529.5</ele><time>2026-05-01T11:20:14.679Z</time></trkpt><trkpt lat="40.9170917" lon="9.1871517"><ele>529.0</ele><time>2026-05-01T11:20:15.679Z</time></trkpt><trkpt lat="40.9170683" lon="9.1870633"><ele>528.5</ele><time>2026-05-01T11:20:16.679Z</time></trkpt><trkpt lat="40.9170383" lon="9.186965"><ele>528.0</ele><time>2026-05-01T11:20:17.679Z</time></trkpt><trkpt lat="40.9170083" lon="9.1868667"><ele>527.5</ele><time>2026-05-01T11:20:18.679Z</time></trkpt><trkpt lat="40.9169833" lon="9.18677"><ele>527.0</ele><time>2026-05-01T11:20:19.679Z</time></trkpt><trkpt lat="40.916955" lon="9.18668"><ele>527.0</ele><time>2026-05-01T11:20:20.679Z</time></trkpt><trkpt lat="40.91696" lon="9.1865867"><ele>527.0</ele><time>2026-05-01T11:20:21.679Z</time></trkpt><trkpt lat="40.9169617" lon="9.1865033"><ele>527.0</ele><time>2026-05-01T11:20:22.679Z</time></trkpt><trkpt lat="40.9169767" lon="9.186415"><ele>527.0</ele><time>2026-05-01T11:20:23.679Z</time></trkpt><trkpt lat="40.9169983" lon="9.18633"><ele>527.0</ele><time>2026-05-01T11:20:24.679Z</time></trkpt><trkpt lat="40.9170467" lon="9.1862133"><ele>527.0</ele><time>2026-05-01T11:20:26.679Z</time></trkpt><trkpt lat="40.917135" lon="9.1861017"><ele>527.4</ele><time>2026-05-01T11:20:28.679Z</time></trkpt><trkpt lat="40.91722" lon="9.185975"><ele>527.8000000000001</ele><time>2026-05-01T11:20:30.68Z</time></trkpt><trkpt lat="40.9172867" lon="9.185825"><ele>528.2</ele><time>2026-05-01T11:20:32.679Z</time></trkpt><trkpt lat="40.9173383" lon="9.1857333"><ele>528.6</ele><time>2026-05-01T11:20:33.679Z</time></trkpt><trkpt lat="40.917395" lon="9.1856717"><ele>529.0</ele><time>2026-05-01T11:20:34.679Z</time></trkpt><trkpt lat="40.917455" lon="9.18563"><ele>529.4</ele><time>2026-05-01T11:20:35.679Z</time></trkpt><trkpt lat="40.917555" lon="9.1855433"><ele>529.8</ele><time>2026-05-01T11:20:37.679Z</time></trkpt><trkpt lat="40.917625" lon="9.1854167"><ele>530.2</ele><time>2026-05-01T11:20:39.679Z</time></trkpt><trkpt lat="40.91766" lon="9.1853233"><ele>530.6</ele><time>2026-05-01T11:20:40.679Z</time></trkpt><trkpt lat="40.917695" lon="9.1852433"><ele>531.0</ele><time>2026-05-01T11:20:41.679Z</time></trkpt><trkpt lat="40.9177233" lon="9.1851317"><ele>526.8333333333334</ele><time>2026-05-01T11:20:42.679Z</time></trkpt><trkpt lat="40.9177533" lon="9.1850117"><ele>522.6666666666666</ele><time>2026-05-01T11:20:43.679Z</time></trkpt><trkpt lat="40.91778" lon="9.184905"><ele>518.5</ele><time>2026-05-01T11:20:44.679Z</time></trkpt><trkpt lat="40.917805" lon="9.184805"><ele>514.3333333333333</ele><time>2026-05-01T11:20:45.679Z</time></trkpt><trkpt lat="40.9178283" lon="9.1847117"><ele>510.16666666666663</ele><time>2026-05-01T11:20:46.679Z</time></trkpt><trkpt lat="40.917875" lon="9.1846033"><ele>506.0</ele><time>2026-05-01T11:20:47.679Z</time></trkpt><trkpt lat="40.9179117" lon="9.1845033"><ele>505.8333333333333</ele><time>2026-05-01T11:20:48.679Z</time></trkpt><trkpt lat="40.9179467" lon="9.184405"><ele>505.66666666666663</ele><time>2026-05-01T11:20:49.679Z</time></trkpt><trkpt lat="40.9179833" lon="9.1843283"><ele>505.5</ele><time>2026-05-01T11:20:50.679Z</time></trkpt><trkpt lat="40.9180333" lon="9.1842567"><ele>505.33333333333337</ele><time>2026-05-01T11:20:51.679Z</time></trkpt><trkpt lat="40.9181183" lon="9.1841517"><ele>505.1666666666667</ele><time>2026-05-01T11:20:53.679Z</time></trkpt><trkpt lat="40.918165" lon="9.1840317"><ele>505.0</ele><time>2026-05-01T11:20:55.679Z</time></trkpt><trkpt lat="40.9181917" lon="9.18388"><ele>504.6666666666667</ele><time>2026-05-01T11:20:57.679Z</time></trkpt><trkpt lat="40.9182" lon="9.18379"><ele>504.33333333333337</ele><time>2026-05-01T11:20:58.679Z</time></trkpt><trkpt lat="40.9181983" lon="9.1836933"><ele>504.0</ele><time>2026-05-01T11:20:59.679Z</time></trkpt><trkpt lat="40.9182017" lon="9.183585"><ele>503.66666666666663</ele><time>2026-05-01T11:21:00.678Z</time></trkpt><trkpt lat="40.9181967" lon="9.1834667"><ele>503.3333333333333</ele><time>2026-05-01T11:21:01.678Z</time></trkpt><trkpt lat="40.9181567" lon="9.18335"><ele>503.0</ele><time>2026-05-01T11:21:02.678Z</time></trkpt><trkpt lat="40.9181317" lon="9.1832333"><ele>503.4</ele><time>2026-05-01T11:21:03.678Z</time></trkpt><trkpt lat="40.9181" lon="9.183105"><ele>503.79999999999995</ele><time>2026-05-01T11:21:04.678Z</time></trkpt><trkpt lat="40.91806" lon="9.1829783"><ele>504.2</ele><time>2026-05-01T11:21:05.678Z</time></trkpt><trkpt lat="40.91799" lon="9.182865"><ele>504.6</ele><time>2026-05-01T11:21:06.678Z</time></trkpt><trkpt lat="40.9179217" lon="9.1827567"><ele>505.0</ele><time>2026-05-01T11:21:07.678Z</time></trkpt><trkpt lat="40.9178483" lon="9.1826667"><ele>505.0</ele><time>2026-05-01T11:21:08.678Z</time></trkpt><trkpt lat="40.917805" lon="9.18257"><ele>504.99999999999994</ele><time>2026-05-01T11:21:09.678Z</time></trkpt><trkpt lat="40.917765" lon="9.182485"><ele>505.0</ele><time>2026-05-01T11:21:10.678Z</time></trkpt><trkpt lat="40.917755" lon="9.18239"><ele>505.0</ele><time>2026-05-01T11:21:11.678Z</time></trkpt><trkpt lat="40.9177283" lon="9.1823117"><ele>504.99999999999994</ele><time>2026-05-01T11:21:12.678Z</time></trkpt><trkpt lat="40.9177767" lon="9.182235"><ele>505.0</ele><time>2026-05-01T11:21:15.678Z</time></trkpt><trkpt lat="40.9177267" lon="9.18217"><ele>505.0</ele><time>2026-05-01T11:21:22.678Z</time></trkpt><trkpt lat="40.9176617" lon="9.1821517"><ele>504.33333333333337</ele><time>2026-05-01T11:21:24.678Z</time></trkpt><trkpt lat="40.9175633" lon="9.1821317"><ele>503.6666666666667</ele><time>2026-05-01T11:21:26.678Z</time></trkpt><trkpt lat="40.9174567" lon="9.1821083"><ele>503.0</ele><time>2026-05-01T11:21:28.678Z</time></trkpt><trkpt lat="40.9173883" lon="9.1820867"><ele>502.33333333333337</ele><time>2026-05-01T11:21:29.678Z</time></trkpt><trkpt lat="40.917315" lon="9.1820567"><ele>501.6666666666667</ele><time>2026-05-01T11:21:30.678Z</time></trkpt><trkpt lat="40.9172383" lon="9.1820217"><ele>501.0</ele><time>2026-05-01T11:21:31.678Z</time></trkpt><trkpt lat="40.91717" lon="9.18197"><ele>501.0</ele><time>2026-05-01T11:21:32.678Z</time></trkpt><trkpt lat="40.9171033" lon="9.18191"><ele>501.0</ele><time>2026-05-01T11:21:33.678Z</time></trkpt><trkpt lat="40.9170433" lon="9.18186"><ele>501.0</ele><time>2026-05-01T11:21:34.678Z</time></trkpt><trkpt lat="40.916985" lon="9.1818217"><ele>501.0</ele><time>2026-05-01T11:21:35.678Z</time></trkpt><trkpt lat="40.9169167" lon="9.181765"><ele>501.0</ele><time>2026-05-01T11:21:36.678Z</time></trkpt><trkpt lat="40.9168467" lon="9.1817133"><ele>501.0</ele><time>2026-05-01T11:21:37.678Z</time></trkpt><trkpt lat="40.9167783" lon="9.1816533"><ele>500.4</ele><time>2026-05-01T11:21:38.678Z</time></trkpt><trkpt lat="40.91671" lon="9.1815367"><ele>499.8</ele><time>2026-05-01T11:21:40.679Z</time></trkpt><trkpt lat="40.9166983" lon="9.1813917"><ele>499.19999999999993</ele><time>2026-05-01T11:21:42.678Z</time></trkpt><trkpt lat="40.9166667" lon="9.18125"><ele>498.59999999999997</ele><time>2026-05-01T11:21:44.678Z</time></trkpt><trkpt lat="40.916635" lon="9.1811717"><ele>498.0</ele><time>2026-05-01T11:21:45.678Z</time></trkpt><trkpt lat="40.91659" lon="9.1811017"><ele>496.5</ele><time>2026-05-01T11:21:46.678Z</time></trkpt><trkpt lat="40.91652" lon="9.1810433"><ele>495.0</ele><time>2026-05-01T11:21:47.679Z</time></trkpt><trkpt lat="40.91645" lon="9.18098"><ele>493.5</ele><time>2026-05-01T11:21:48.678Z</time></trkpt><trkpt lat="40.916375" lon="9.1809167"><ele>492.0</ele><time>2026-05-01T11:21:49.678Z</time></trkpt><trkpt lat="40.916295" lon="9.1808583"><ele>490.5</ele><time>2026-05-01T11:21:50.678Z</time></trkpt><trkpt lat="40.9162233" lon="9.1808217"><ele>489.0</ele><time>2026-05-01T11:21:51.678Z</time></trkpt><trkpt lat="40.9161417" lon="9.1807833"><ele>489.0</ele><time>2026-05-01T11:21:52.678Z</time></trkpt><trkpt lat="40.91606" lon="9.1807467"><ele>489.0</ele><time>2026-05-01T11:21:53.678Z</time></trkpt><trkpt lat="40.9159817" lon="9.1806983"><ele>489.0</ele><time>2026-05-01T11:21:54.678Z</time></trkpt><trkpt lat="40.9158967" lon="9.1806483"><ele>489.0</ele><time>2026-05-01T11:21:55.678Z</time></trkpt><trkpt lat="40.9158083" lon="9.1806033"><ele>489.0</ele><time>2026-05-01T11:21:56.678Z</time></trkpt><trkpt lat="40.915715" lon="9.180555"><ele>487.2</ele><time>2026-05-01T11:21:57.678Z</time></trkpt><trkpt lat="40.9156167" lon="9.1805017"><ele>485.4</ele><time>2026-05-01T11:21:58.678Z</time></trkpt><trkpt lat="40.9155267" lon="9.1804417"><ele>483.6</ele><time>2026-05-01T11:21:59.678Z</time></trkpt><trkpt lat="40.91544" lon="9.180375"><ele>481.8</ele><time>2026-05-01T11:22:00.678Z</time></trkpt><trkpt lat="40.9153633" lon="9.1802983"><ele>480.0</ele><time>2026-05-01T11:22:01.678Z</time></trkpt><trkpt lat="40.91529" lon="9.1802133"><ele>480.0</ele><time>2026-05-01T11:22:02.678Z</time></trkpt><trkpt lat="40.91521" lon="9.1801367"><ele>480.0</ele><time>2026-05-01T11:22:03.678Z</time></trkpt><trkpt lat="40.91513" lon="9.1800633"><ele>480.0</ele><time>2026-05-01T11:22:04.678Z</time></trkpt><trkpt lat="40.915045" lon="9.17999"><ele>480.0</ele><time>2026-05-01T11:22:05.678Z</time></trkpt><trkpt lat="40.9149633" lon="9.17992"><ele>480.0</ele><time>2026-05-01T11:22:06.679Z</time></trkpt><trkpt lat="40.9148767" lon="9.1798533"><ele>483.4</ele><time>2026-05-01T11:22:07.678Z</time></trkpt><trkpt lat="40.9147983" lon="9.1797883"><ele>486.8</ele><time>2026-05-01T11:22:08.678Z</time></trkpt><trkpt lat="40.91471" lon="9.1797183"><ele>490.20000000000005</ele><time>2026-05-01T11:22:09.679Z</time></trkpt><trkpt lat="40.9146367" lon="9.1796467"><ele>493.6</ele><time>2026-05-01T11:22:10.678Z</time></trkpt><trkpt lat="40.9145383" lon="9.1795933"><ele>497.0</ele><time>2026-05-01T11:22:11.678Z</time></trkpt><trkpt lat="40.9144517" lon="9.179525"><ele>497.0</ele><time>2026-05-01T11:22:12.678Z</time></trkpt><trkpt lat="40.9143517" lon="9.1794483"><ele>497.00000000000006</ele><time>2026-05-01T11:22:13.678Z</time></trkpt><trkpt lat="40.914255" lon="9.1793583"><ele>497.00000000000006</ele><time>2026-05-01T11:22:14.678Z</time></trkpt><trkpt lat="40.914175" lon="9.1792833"><ele>497.0</ele><time>2026-05-01T11:22:15.678Z</time></trkpt><trkpt lat="40.91411" lon="9.1791617"><ele>497.0</ele><time>2026-05-01T11:22:16.678Z</time></trkpt><trkpt lat="40.914045" lon="9.1790867"><ele>497.49999999999994</ele><time>2026-05-01T11:22:17.678Z</time></trkpt><trkpt lat="40.913985" lon="9.179005"><ele>498.0</ele><time>2026-05-01T11:22:18.678Z</time></trkpt><trkpt lat="40.9139367" lon="9.17892"><ele>498.5</ele><time>2026-05-01T11:22:19.678Z</time></trkpt><trkpt lat="40.913895" lon="9.1788183"><ele>499.0</ele><time>2026-05-01T11:22:20.678Z</time></trkpt><trkpt lat="40.913865" lon="9.1787417"><ele>499.49999999999994</ele><time>2026-05-01T11:22:21.678Z</time></trkpt><trkpt lat="40.91385" lon="9.1786583"><ele>500.0</ele><time>2026-05-01T11:22:22.678Z</time></trkpt><trkpt lat="40.9138283" lon="9.17857"><ele>499.99999999999994</ele><time>2026-05-01T11:22:23.678Z</time></trkpt><trkpt lat="40.9138017" lon="9.1784867"><ele>500.0</ele><time>2026-05-01T11:22:24.679Z</time></trkpt><trkpt lat="40.9137833" lon="9.1783783"><ele>500.0</ele><time>2026-05-01T11:22:25.678Z</time></trkpt><trkpt lat="40.9137883" lon="9.1782617"><ele>500.0</ele><time>2026-05-01T11:22:26.678Z</time></trkpt><trkpt lat="40.9137867" lon="9.17815"><ele>499.99999999999994</ele><time>2026-05-01T11:22:27.678Z</time></trkpt><trkpt lat="40.9137767" lon="9.1780133"><ele>500.0</ele><time>2026-05-01T11:22:28.678Z</time></trkpt><trkpt lat="40.9137633" lon="9.1778783"><ele>499.85714285714283</ele><time>2026-05-01T11:22:29.678Z</time></trkpt><trkpt lat="40.91376" lon="9.1777783"><ele>499.7142857142858</ele><time>2026-05-01T11:22:30.678Z</time></trkpt><trkpt lat="40.9137567" lon="9.177675"><ele>499.5714285714286</ele><time>2026-05-01T11:22:31.678Z</time></trkpt><trkpt lat="40.9137533" lon="9.177585"><ele>499.42857142857144</ele><time>2026-05-01T11:22:32.678Z</time></trkpt><trkpt lat="40.913755" lon="9.1774917"><ele>499.28571428571433</ele><time>2026-05-01T11:22:33.678Z</time></trkpt><trkpt lat="40.913775" lon="9.1774083"><ele>499.1428571428572</ele><time>2026-05-01T11:22:34.678Z</time></trkpt><trkpt lat="40.9138217" lon="9.1773317"><ele>499.00000000000006</ele><time>2026-05-01T11:22:35.678Z</time></trkpt><trkpt lat="40.9138517" lon="9.1772583"><ele>497.83333333333337</ele><time>2026-05-01T11:22:36.678Z</time></trkpt><trkpt lat="40.9138967" lon="9.1771817"><ele>496.6666666666667</ele><time>2026-05-01T11:22:37.678Z</time></trkpt><trkpt lat="40.9139517" lon="9.1770517"><ele>495.5</ele><time>2026-05-01T11:22:39.678Z</time></trkpt><trkpt lat="40.913965" lon="9.1769683"><ele>494.33333333333337</ele><time>2026-05-01T11:22:40.678Z</time></trkpt><trkpt lat="40.913985" lon="9.1768783"><ele>493.1666666666667</ele><time>2026-05-01T11:22:41.678Z</time></trkpt><trkpt lat="40.913975" lon="9.17673"><ele>492.0</ele><time>2026-05-01T11:22:43.678Z</time></trkpt><trkpt lat="40.9139383" lon="9.1766483"><ele>492.0</ele><time>2026-05-01T11:22:44.678Z</time></trkpt><trkpt lat="40.9138783" lon="9.1765433"><ele>492.00000000000006</ele><time>2026-05-01T11:22:45.678Z</time></trkpt><trkpt lat="40.9138317" lon="9.1764283"><ele>492.00000000000006</ele><time>2026-05-01T11:22:46.678Z</time></trkpt><trkpt lat="40.9137983" lon="9.1763017"><ele>492.0</ele><time>2026-05-01T11:22:47.678Z</time></trkpt><trkpt lat="40.9137583" lon="9.1761733"><ele>492.0</ele><time>2026-05-01T11:22:48.678Z</time></trkpt><trkpt lat="40.9137133" lon="9.1760333"><ele>490.75</ele><time>2026-05-01T11:22:49.679Z</time></trkpt><trkpt lat="40.9136717" lon="9.1758867"><ele>489.5</ele><time>2026-05-01T11:22:50.678Z</time></trkpt><trkpt lat="40.9136317" lon="9.17575"><ele>488.25</ele><time>2026-05-01T11:22:51.678Z</time></trkpt><trkpt lat="40.9136033" lon="9.175615"><ele>487.0</ele><time>2026-05-01T11:22:52.678Z</time></trkpt><trkpt lat="40.9135483" lon="9.17548"><ele>486.8</ele><time>2026-05-01T11:22:53.678Z</time></trkpt><trkpt lat="40.9134867" lon="9.1753617"><ele>486.6</ele><time>2026-05-01T11:22:54.678Z</time></trkpt><trkpt lat="40.9134267" lon="9.1752483"><ele>486.40000000000003</ele><time>2026-05-01T11:22:55.678Z</time></trkpt><trkpt lat="40.9133733" lon="9.175135"><ele>486.20000000000005</ele><time>2026-05-01T11:22:56.678Z</time></trkpt><trkpt lat="40.9133167" lon="9.1750367"><ele>486.0</ele><time>2026-05-01T11:22:57.678Z</time></trkpt><trkpt lat="40.9132583" lon="9.1749517"><ele>485.5</ele><time>2026-05-01T11:22:58.678Z</time></trkpt><trkpt lat="40.9131967" lon="9.1748867"><ele>485.0</ele><time>2026-05-01T11:22:59.678Z</time></trkpt><trkpt lat="40.9131333" lon="9.174835"><ele>484.5</ele><time>2026-05-01T11:23:00.678Z</time></trkpt><trkpt lat="40.91306" lon="9.1748017"><ele>484.0</ele><time>2026-05-01T11:23:01.678Z</time></trkpt><trkpt lat="40.91297" lon="9.174765"><ele>483.5</ele><time>2026-05-01T11:23:02.679Z</time></trkpt><trkpt lat="40.9128817" lon="9.174715"><ele>483.0</ele><time>2026-05-01T11:23:03.678Z</time></trkpt><trkpt lat="40.9127983" lon="9.17466"><ele>482.2</ele><time>2026-05-01T11:23:04.678Z</time></trkpt><trkpt lat="40.9127083" lon="9.174595"><ele>481.4</ele><time>2026-05-01T11:23:05.678Z</time></trkpt><trkpt lat="40.912605" lon="9.1745433"><ele>480.59999999999997</ele><time>2026-05-01T11:23:06.678Z</time></trkpt><trkpt lat="40.9125083" lon="9.1744933"><ele>479.79999999999995</ele><time>2026-05-01T11:23:07.678Z</time></trkpt><trkpt lat="40.9124167" lon="9.1744417"><ele>479.0</ele><time>2026-05-01T11:23:08.678Z</time></trkpt><trkpt lat="40.9123383" lon="9.17437"><ele>479.0</ele><time>2026-05-01T11:23:09.678Z</time></trkpt><trkpt lat="40.9122717" lon="9.174285"><ele>479.0</ele><time>2026-05-01T11:23:10.678Z</time></trkpt><trkpt lat="40.9122117" lon="9.17419"><ele>479.0</ele><time>2026-05-01T11:23:11.678Z</time></trkpt><trkpt lat="40.912155" lon="9.1740867"><ele>479.0</ele><time>2026-05-01T11:23:12.678Z</time></trkpt><trkpt lat="40.9121" lon="9.1739867"><ele>479.0</ele><time>2026-05-01T11:23:13.678Z</time></trkpt><trkpt lat="40.91205" lon="9.1738883"><ele>478.99999999999994</ele><time>2026-05-01T11:23:14.678Z</time></trkpt><trkpt lat="40.912005" lon="9.1737983"><ele>479.0</ele><time>2026-05-01T11:23:15.678Z</time></trkpt><trkpt lat="40.91196" lon="9.1737117"><ele>479.0</ele><time>2026-05-01T11:23:16.678Z</time></trkpt><trkpt lat="40.9119133" lon="9.1736333"><ele>479.0</ele><time>2026-05-01T11:23:17.678Z</time></trkpt><trkpt lat="40.911865" lon="9.1735733"><ele>478.99999999999994</ele><time>2026-05-01T11:23:18.678Z</time></trkpt><trkpt lat="40.9117467" lon="9.17347"><ele>479.0</ele><time>2026-05-01T11:23:20.678Z</time></trkpt><trkpt lat="40.9116783" lon="9.1734167"><ele>476.79999999999995</ele><time>2026-05-01T11:23:21.678Z</time></trkpt><trkpt lat="40.9116017" lon="9.1733767"><ele>474.59999999999997</ele><time>2026-05-01T11:23:22.678Z</time></trkpt><trkpt lat="40.9115417" lon="9.17332"><ele>472.4</ele><time>2026-05-01T11:23:23.678Z</time></trkpt><trkpt lat="40.9114733" lon="9.1732483"><ele>470.2</ele><time>2026-05-01T11:23:24.678Z</time></trkpt><trkpt lat="40.911405" lon="9.1731367"><ele>468.0</ele><time>2026-05-01T11:23:25.678Z</time></trkpt><trkpt lat="40.9113467" lon="9.1730267"><ele>467.59999999999997</ele><time>2026-05-01T11:23:26.678Z</time></trkpt><trkpt lat="40.9112833" lon="9.17291"><ele>467.19999999999993</ele><time>2026-05-01T11:23:27.678Z</time></trkpt><trkpt lat="40.91123" lon="9.1727833"><ele>466.8</ele><time>2026-05-01T11:23:28.678Z</time></trkpt><trkpt lat="40.9111783" lon="9.172665"><ele>466.4</ele><time>2026-05-01T11:23:29.678Z</time></trkpt><trkpt lat="40.9111167" lon="9.1725533"><ele>466.0</ele><time>2026-05-01T11:23:30.678Z</time></trkpt><trkpt lat="40.91105" lon="9.1724483"><ele>464.4</ele><time>2026-05-01T11:23:31.678Z</time></trkpt><trkpt lat="40.9109867" lon="9.1723417"><ele>462.8</ele><time>2026-05-01T11:23:32.678Z</time></trkpt><trkpt lat="40.91093" lon="9.1722367"><ele>461.19999999999993</ele><time>2026-05-01T11:23:33.678Z</time></trkpt><trkpt lat="40.9108933" lon="9.1721267"><ele>459.59999999999997</ele><time>2026-05-01T11:23:34.678Z</time></trkpt><trkpt lat="40.9108767" lon="9.1720183"><ele>458.0</ele><time>2026-05-01T11:23:35.678Z</time></trkpt><trkpt lat="40.9108667" lon="9.1719133"><ele>457.0</ele><time>2026-05-01T11:23:36.678Z</time></trkpt><trkpt lat="40.9108533" lon="9.1718217"><ele>456.0</ele><time>2026-05-01T11:23:37.678Z</time></trkpt><trkpt lat="40.9108333" lon="9.1717333"><ele>455.0</ele><time>2026-05-01T11:23:38.678Z</time></trkpt><trkpt lat="40.910805" lon="9.1716467"><ele>454.0</ele><time>2026-05-01T11:23:39.678Z</time></trkpt><trkpt lat="40.91077" lon="9.1715633"><ele>453.0</ele><time>2026-05-01T11:23:40.678Z</time></trkpt><trkpt lat="40.9107133" lon="9.1714933"><ele>452.0</ele><time>2026-05-01T11:23:41.678Z</time></trkpt><trkpt lat="40.910655" lon="9.1714317"><ele>451.0</ele><time>2026-05-01T11:23:42.678Z</time></trkpt><trkpt lat="40.9106" lon="9.1713617"><ele>449.8</ele><time>2026-05-01T11:23:43.678Z</time></trkpt><trkpt lat="40.9105433" lon="9.1712683"><ele>448.6</ele><time>2026-05-01T11:23:44.678Z</time></trkpt><trkpt lat="40.9104833" lon="9.1711633"><ele>447.4</ele><time>2026-05-01T11:23:45.678Z</time></trkpt><trkpt lat="40.9103917" lon="9.1710667"><ele>446.2</ele><time>2026-05-01T11:23:46.678Z</time></trkpt><trkpt lat="40.9103217" lon="9.1709867"><ele>445.0</ele><time>2026-05-01T11:23:47.678Z</time></trkpt><trkpt lat="40.9102533" lon="9.1709067"><ele>445.00000000000006</ele><time>2026-05-01T11:23:48.679Z</time></trkpt><trkpt lat="40.9101917" lon="9.1708233"><ele>445.0</ele><time>2026-05-01T11:23:49.678Z</time></trkpt><trkpt lat="40.9101267" lon="9.170735"><ele>445.0</ele><time>2026-05-01T11:23:50.678Z</time></trkpt><trkpt lat="40.9100917" lon="9.17064"><ele>445.0</ele><time>2026-05-01T11:23:51.678Z</time></trkpt><trkpt lat="40.9100667" lon="9.1705567"><ele>445.00000000000006</ele><time>2026-05-01T11:23:52.678Z</time></trkpt><trkpt lat="40.91004" lon="9.1704783"><ele>445.0</ele><time>2026-05-01T11:23:53.678Z</time></trkpt><trkpt lat="40.90998" lon="9.1703383"><ele>443.6666666666667</ele><time>2026-05-01T11:23:55.678Z</time></trkpt><trkpt lat="40.909935" lon="9.1702633"><ele>442.33333333333337</ele><time>2026-05-01T11:23:56.678Z</time></trkpt><trkpt lat="40.9098817" lon="9.1701833"><ele>441.0</ele><time>2026-05-01T11:23:57.678Z</time></trkpt><trkpt lat="40.9098233" lon="9.170095"><ele>439.66666666666663</ele><time>2026-05-01T11:23:58.678Z</time></trkpt><trkpt lat="40.9097533" lon="9.1700117"><ele>438.3333333333333</ele><time>2026-05-01T11:23:59.678Z</time></trkpt><trkpt lat="40.9096817" lon="9.169925"><ele>437.0</ele><time>2026-05-01T11:24:00.678Z</time></trkpt><trkpt lat="40.9095917" lon="9.1698367"><ele>436.75</ele><time>2026-05-01T11:24:01.678Z</time></trkpt><trkpt lat="40.9094983" lon="9.169735"><ele>436.5</ele><time>2026-05-01T11:24:02.678Z</time></trkpt><trkpt lat="40.9094017" lon="9.1696333"><ele>436.25</ele><time>2026-05-01T11:24:03.678Z</time></trkpt><trkpt lat="40.90932" lon="9.1695283"><ele>436.0</ele><time>2026-05-01T11:24:04.678Z</time></trkpt><trkpt lat="40.9092367" lon="9.1694167"><ele>436.0</ele><time>2026-05-01T11:24:05.678Z</time></trkpt><trkpt lat="40.909165" lon="9.1692983"><ele>436.0</ele><time>2026-05-01T11:24:06.678Z</time></trkpt><trkpt lat="40.9090883" lon="9.1691733"><ele>436.0</ele><time>2026-05-01T11:24:07.678Z</time></trkpt><trkpt lat="40.909025" lon="9.1690567"><ele>436.0</ele><time>2026-05-01T11:24:08.678Z</time></trkpt><trkpt lat="40.90897" lon="9.1689617"><ele>436.0</ele><time>2026-05-01T11:24:09.678Z</time></trkpt><trkpt lat="40.9089217" lon="9.1688583"><ele>436.00000000000006</ele><time>2026-05-01T11:24:10.678Z</time></trkpt><trkpt lat="40.9088767" lon="9.1687817"><ele>436.0</ele><time>2026-05-01T11:24:11.678Z</time></trkpt><trkpt lat="40.9088183" lon="9.1687167"><ele>436.0</ele><time>2026-05-01T11:24:12.679Z</time></trkpt><trkpt lat="40.9087583" lon="9.16867"><ele>436.0</ele><time>2026-05-01T11:24:13.678Z</time></trkpt><trkpt lat="40.908685" lon="9.16865"><ele>436.00000000000006</ele><time>2026-05-01T11:24:14.678Z</time></trkpt><trkpt lat="40.90861" lon="9.1686533"><ele>436.0</ele><time>2026-05-01T11:24:15.679Z</time></trkpt><trkpt lat="40.9085183" lon="9.1686733"><ele>436.00000000000006</ele><time>2026-05-01T11:24:16.678Z</time></trkpt><trkpt lat="40.908435" lon="9.1686983"><ele>436.0</ele><time>2026-05-01T11:24:17.678Z</time></trkpt><trkpt lat="40.9083667" lon="9.1686983"><ele>436.0</ele><time>2026-05-01T11:24:18.678Z</time></trkpt><trkpt lat="40.908295" lon="9.1687033"><ele>436.0</ele><time>2026-05-01T11:24:19.678Z</time></trkpt><trkpt lat="40.90823" lon="9.168695"><ele>436.00000000000006</ele><time>2026-05-01T11:24:20.678Z</time></trkpt><trkpt lat="40.908125" lon="9.1686283"><ele>436.0</ele><time>2026-05-01T11:24:22.678Z</time></trkpt><trkpt lat="40.90806" lon="9.168515"><ele>436.33333333333337</ele><time>2026-05-01T11:24:24.678Z</time></trkpt><trkpt lat="40.9080233" lon="9.1683917"><ele>436.6666666666667</ele><time>2026-05-01T11:24:26.678Z</time></trkpt><trkpt lat="40.907995" lon="9.1683033"><ele>437.0</ele><time>2026-05-01T11:24:28.678Z</time></trkpt><trkpt lat="40.908065" lon="9.1682583"><ele>437.33333333333337</ele><time>2026-05-01T11:24:35.678Z</time></trkpt><trkpt lat="40.9081467" lon="9.1683133"><ele>437.6666666666667</ele><time>2026-05-01T11:24:42.678Z</time></trkpt><trkpt lat="40.9082317" lon="9.1682633"><ele>438.0</ele><time>2026-05-01T11:24:51.678Z</time></trkpt><trkpt lat="40.9082733" lon="9.1681617"><ele>438.0</ele><time>2026-05-01T11:24:52.678Z</time></trkpt><trkpt lat="40.9083333" lon="9.1680367"><ele>438.0</ele><time>2026-05-01T11:24:53.678Z</time></trkpt><trkpt lat="40.9083967" lon="9.1679"><ele>438.0</ele><time>2026-05-01T11:24:54.678Z</time></trkpt><trkpt lat="40.9084583" lon="9.1677717"><ele>438.0</ele><time>2026-05-01T11:24:55.678Z</time></trkpt><trkpt lat="40.90855" lon="9.1676133"><ele>437.5</ele><time>2026-05-01T11:24:56.678Z</time></trkpt><trkpt lat="40.9086183" lon="9.167465"><ele>437.0</ele><time>2026-05-01T11:24:57.679Z</time></trkpt><trkpt lat="40.9087083" lon="9.167295"><ele>436.5</ele><time>2026-05-01T11:24:58.678Z</time></trkpt><trkpt lat="40.908775" lon="9.1671217"><ele>436.0</ele><time>2026-05-01T11:24:59.678Z</time></trkpt><trkpt lat="40.9088133" lon="9.16697"><ele>436.00000000000006</ele><time>2026-05-01T11:25:00.678Z</time></trkpt><trkpt lat="40.9088667" lon="9.1668317"><ele>436.0</ele><time>2026-05-01T11:25:01.678Z</time></trkpt><trkpt lat="40.9088983" lon="9.1667167"><ele>436.0</ele><time>2026-05-01T11:25:02.678Z</time></trkpt><trkpt lat="40.90891" lon="9.1666067"><ele>436.0</ele><time>2026-05-01T11:25:03.678Z</time></trkpt><trkpt lat="40.9089183" lon="9.1665183"><ele>436.00000000000006</ele><time>2026-05-01T11:25:04.678Z</time></trkpt><trkpt lat="40.90892" lon="9.1664317"><ele>436.0</ele><time>2026-05-01T11:25:05.678Z</time></trkpt><trkpt lat="40.9089233" lon="9.1663467"><ele>436.0</ele><time>2026-05-01T11:25:06.678Z</time></trkpt><trkpt lat="40.9088933" lon="9.166195"><ele>436.0</ele><time>2026-05-01T11:25:08.678Z</time></trkpt><trkpt lat="40.90886" lon="9.1661017"><ele>436.0</ele><time>2026-05-01T11:25:09.678Z</time></trkpt><trkpt lat="40.908825" lon="9.1660017"><ele>436.0</ele><time>2026-05-01T11:25:10.678Z</time></trkpt><trkpt lat="40.908775" lon="9.1658983"><ele>436.0</ele><time>2026-05-01T11:25:11.678Z</time></trkpt><trkpt lat="40.90871" lon="9.16581"><ele>436.0</ele><time>2026-05-01T11:25:12.678Z</time></trkpt><trkpt lat="40.9086417" lon="9.1657317"><ele>436.0</ele><time>2026-05-01T11:25:13.678Z</time></trkpt><trkpt lat="40.9085533" lon="9.1656517"><ele>436.0</ele><time>2026-05-01T11:25:14.678Z</time></trkpt><trkpt lat="40.9084283" lon="9.16557"><ele>436.0</ele><time>2026-05-01T11:25:15.678Z</time></trkpt><trkpt lat="40.9083183" lon="9.165485"><ele>437.0</ele><time>2026-05-01T11:25:16.678Z</time></trkpt><trkpt lat="40.90823" lon="9.1653833"><ele>438.0</ele><time>2026-05-01T11:25:17.678Z</time></trkpt><trkpt lat="40.9081433" lon="9.16527"><ele>439.0</ele><time>2026-05-01T11:25:18.678Z</time></trkpt><trkpt lat="40.9080033" lon="9.16519"><ele>440.0</ele><time>2026-05-01T11:25:19.678Z</time></trkpt><trkpt lat="40.907935" lon="9.16506"><ele>440.0</ele><time>2026-05-01T11:25:20.678Z</time></trkpt><trkpt lat="40.907875" lon="9.1649267"><ele>440.0</ele><time>2026-05-01T11:25:21.678Z</time></trkpt><trkpt lat="40.9078233" lon="9.1647767"><ele>440.0</ele><time>2026-05-01T11:25:22.678Z</time></trkpt><trkpt lat="40.90778" lon="9.1646117"><ele>440.0</ele><time>2026-05-01T11:25:23.678Z</time></trkpt><trkpt lat="40.9077333" lon="9.1644433"><ele>440.75</ele><time>2026-05-01T11:25:24.678Z</time></trkpt><trkpt lat="40.9076883" lon="9.16428"><ele>441.5</ele><time>2026-05-01T11:25:25.678Z</time></trkpt><trkpt lat="40.9076383" lon="9.164115"><ele>442.25</ele><time>2026-05-01T11:25:26.678Z</time></trkpt><trkpt lat="40.9075883" lon="9.1639517"><ele>443.0</ele><time>2026-05-01T11:25:27.678Z</time></trkpt><trkpt lat="40.9075467" lon="9.163795"><ele>443.25</ele><time>2026-05-01T11:25:28.678Z</time></trkpt><trkpt lat="40.90749" lon="9.1636267"><ele>443.5</ele><time>2026-05-01T11:25:29.678Z</time></trkpt><trkpt lat="40.9074417" lon="9.1634633"><ele>443.75</ele><time>2026-05-01T11:25:30.678Z</time></trkpt><trkpt lat="40.9074" lon="9.16331"><ele>444.0</ele><time>2026-05-01T11:25:31.678Z</time></trkpt><trkpt lat="40.90736" lon="9.1631667"><ele>446.25</ele><time>2026-05-01T11:25:32.678Z</time></trkpt><trkpt lat="40.90733" lon="9.1630217"><ele>448.5</ele><time>2026-05-01T11:25:33.678Z</time></trkpt><trkpt lat="40.907305" lon="9.1628633"><ele>450.75</ele><time>2026-05-01T11:25:34.678Z</time></trkpt><trkpt lat="40.907275" lon="9.1627117"><ele>453.0</ele><time>2026-05-01T11:25:35.678Z</time></trkpt><trkpt lat="40.9072467" lon="9.1625433"><ele>453.0</ele><time>2026-05-01T11:25:36.678Z</time></trkpt><trkpt lat="40.90721" lon="9.1624233"><ele>453.0</ele><time>2026-05-01T11:25:37.678Z</time></trkpt><trkpt lat="40.9071767" lon="9.1623183"><ele>453.0</ele><time>2026-05-01T11:25:38.678Z</time></trkpt><trkpt lat="40.9071467" lon="9.1622233"><ele>453.0</ele><time>2026-05-01T11:25:39.678Z</time></trkpt><trkpt lat="40.9071117" lon="9.16212"><ele>453.0</ele><time>2026-05-01T11:25:40.678Z</time></trkpt><trkpt lat="40.9070917" lon="9.16202"><ele>453.0</ele><time>2026-05-01T11:25:41.678Z</time></trkpt><trkpt lat="40.907085" lon="9.1619267"><ele>453.8333333333333</ele><time>2026-05-01T11:25:42.678Z</time></trkpt><trkpt lat="40.9070767" lon="9.1618233"><ele>454.66666666666663</ele><time>2026-05-01T11:25:43.678Z</time></trkpt><trkpt lat="40.9070633" lon="9.1617183"><ele>455.5</ele><time>2026-05-01T11:25:44.678Z</time></trkpt><trkpt lat="40.9070433" lon="9.1616167"><ele>456.3333333333333</ele><time>2026-05-01T11:25:45.678Z</time></trkpt><trkpt lat="40.90702" lon="9.1615017"><ele>457.16666666666663</ele><time>2026-05-01T11:25:46.678Z</time></trkpt><trkpt lat="40.907" lon="9.1613833"><ele>458.0</ele><time>2026-05-01T11:25:47.678Z</time></trkpt><trkpt lat="40.9069867" lon="9.1612683"><ele>458.0</ele><time>2026-05-01T11:25:48.678Z</time></trkpt><trkpt lat="40.9069733" lon="9.1611517"><ele>457.99999999999994</ele><time>2026-05-01T11:25:49.678Z</time></trkpt><trkpt lat="40.9069533" lon="9.1610267"><ele>457.99999999999994</ele><time>2026-05-01T11:25:50.678Z</time></trkpt><trkpt lat="40.9069267" lon="9.1609033"><ele>458.0</ele><time>2026-05-01T11:25:51.678Z</time></trkpt><trkpt lat="40.9069033" lon="9.160785"><ele>458.0</ele><time>2026-05-01T11:25:52.678Z</time></trkpt><trkpt lat="40.9068783" lon="9.1606733"><ele>457.59999999999997</ele><time>2026-05-01T11:25:53.678Z</time></trkpt><trkpt lat="40.9068567" lon="9.16056"><ele>457.19999999999993</ele><time>2026-05-01T11:25:54.678Z</time></trkpt><trkpt lat="40.90684" lon="9.16044"><ele>456.8</ele><time>2026-05-01T11:25:55.678Z</time></trkpt><trkpt lat="40.9068217" lon="9.1603183"><ele>456.4</ele><time>2026-05-01T11:25:56.678Z</time></trkpt><trkpt lat="40.9067967" lon="9.1602033"><ele>456.0</ele><time>2026-05-01T11:25:57.679Z</time></trkpt><trkpt lat="40.9067717" lon="9.1600883"><ele>456.0</ele><time>2026-05-01T11:25:58.678Z</time></trkpt><trkpt lat="40.9067517" lon="9.1599717"><ele>456.0</ele><time>2026-05-01T11:25:59.678Z</time></trkpt><trkpt lat="40.9067333" lon="9.1598683"><ele>456.0</ele><time>2026-05-01T11:26:00.678Z</time></trkpt><trkpt lat="40.9067133" lon="9.15977"><ele>456.0</ele><time>2026-05-01T11:26:01.678Z</time></trkpt><trkpt lat="40.90669" lon="9.15968"><ele>456.0</ele><time>2026-05-01T11:26:02.678Z</time></trkpt><trkpt lat="40.9066617" lon="9.1595967"><ele>456.0</ele><time>2026-05-01T11:26:03.678Z</time></trkpt><trkpt lat="40.906625" lon="9.1595083"><ele>457.20000000000005</ele><time>2026-05-01T11:26:04.678Z</time></trkpt><trkpt lat="40.9065833" lon="9.15942"><ele>458.40000000000003</ele><time>2026-05-01T11:26:05.678Z</time></trkpt><trkpt lat="40.9065383" lon="9.15933"><ele>459.6</ele><time>2026-05-01T11:26:06.678Z</time></trkpt><trkpt lat="40.9064967" lon="9.15923"><ele>460.8</ele><time>2026-05-01T11:26:07.678Z</time></trkpt><trkpt lat="40.9064567" lon="9.15913"><ele>462.0</ele><time>2026-05-01T11:26:08.678Z</time></trkpt><trkpt lat="40.906405" lon="9.15899"><ele>462.5</ele><time>2026-05-01T11:26:10.678Z</time></trkpt><trkpt lat="40.906375" lon="9.1588867"><ele>463.0</ele><time>2026-05-01T11:26:11.678Z</time></trkpt><trkpt lat="40.9063583" lon="9.1588017"><ele>463.5</ele><time>2026-05-01T11:26:12.678Z</time></trkpt><trkpt lat="40.9063333" lon="9.1587067"><ele>464.0</ele><time>2026-05-01T11:26:13.678Z</time></trkpt><trkpt lat="40.90631" lon="9.158605"><ele>464.5</ele><time>2026-05-01T11:26:14.678Z</time></trkpt><trkpt lat="40.9062933" lon="9.1584933"><ele>465.0</ele><time>2026-05-01T11:26:15.678Z</time></trkpt><trkpt lat="40.9062783" lon="9.15838"><ele>465.0</ele><time>2026-05-01T11:26:16.678Z</time></trkpt><trkpt lat="40.9062583" lon="9.1582567"><ele>465.0</ele><time>2026-05-01T11:26:17.678Z</time></trkpt><trkpt lat="40.9062283" lon="9.158145"><ele>465.0</ele><time>2026-05-01T11:26:18.678Z</time></trkpt><trkpt lat="40.9062" lon="9.158025"><ele>465.0</ele><time>2026-05-01T11:26:19.678Z</time></trkpt><trkpt lat="40.9061683" lon="9.15791"><ele>465.0</ele><time>2026-05-01T11:26:20.678Z</time></trkpt><trkpt lat="40.9061333" lon="9.1577717"><ele>465.0</ele><time>2026-05-01T11:26:21.678Z</time></trkpt><trkpt lat="40.9060983" lon="9.1576567"><ele>465.0</ele><time>2026-05-01T11:26:22.678Z</time></trkpt><trkpt lat="40.9060683" lon="9.1575283"><ele>465.0</ele><time>2026-05-01T11:26:23.678Z</time></trkpt><trkpt lat="40.9060433" lon="9.1574"><ele>465.0</ele><time>2026-05-01T11:26:24.678Z</time></trkpt><trkpt lat="40.9060167" lon="9.1572667"><ele>465.0</ele><time>2026-05-01T11:26:25.678Z</time></trkpt><trkpt lat="40.9059767" lon="9.1571417"><ele>465.0</ele><time>2026-05-01T11:26:26.678Z</time></trkpt><trkpt lat="40.90594" lon="9.1570183"><ele>465.0</ele><time>2026-05-01T11:26:27.678Z</time></trkpt><trkpt lat="40.9059" lon="9.1568833"><ele>465.0</ele><time>2026-05-01T11:26:28.678Z</time></trkpt><trkpt lat="40.905865" lon="9.1567467"><ele>465.0</ele><time>2026-05-01T11:26:29.678Z</time></trkpt><trkpt lat="40.9058183" lon="9.1565933"><ele>465.0</ele><time>2026-05-01T11:26:30.678Z</time></trkpt><trkpt lat="40.9057533" lon="9.1564217"><ele>466.5</ele><time>2026-05-01T11:26:31.678Z</time></trkpt><trkpt lat="40.905705" lon="9.1562983"><ele>468.0</ele><time>2026-05-01T11:26:32.678Z</time></trkpt><trkpt lat="40.90565" lon="9.1561717"><ele>469.5</ele><time>2026-05-01T11:26:33.678Z</time></trkpt><trkpt lat="40.9055867" lon="9.15604"><ele>471.0</ele><time>2026-05-01T11:26:34.678Z</time></trkpt><trkpt lat="40.9055167" lon="9.1558333"><ele>471.25</ele><time>2026-05-01T11:26:35.678Z</time></trkpt><trkpt lat="40.9054617" lon="9.1556733"><ele>471.5</ele><time>2026-05-01T11:26:36.678Z</time></trkpt><trkpt lat="40.90541" lon="9.15553"><ele>471.75</ele><time>2026-05-01T11:26:37.678Z</time></trkpt><trkpt lat="40.9053633" lon="9.1553667"><ele>472.0</ele><time>2026-05-01T11:26:38.678Z</time></trkpt><trkpt lat="40.9053317" lon="9.1552267"><ele>472.0</ele><time>2026-05-01T11:26:39.678Z</time></trkpt><trkpt lat="40.9052967" lon="9.155105"><ele>472.00000000000006</ele><time>2026-05-01T11:26:40.678Z</time></trkpt><trkpt lat="40.905265" lon="9.1549583"><ele>472.00000000000006</ele><time>2026-05-01T11:26:41.678Z</time></trkpt><trkpt lat="40.905235" lon="9.1548283"><ele>472.0</ele><time>2026-05-01T11:26:42.678Z</time></trkpt><trkpt lat="40.9052267" lon="9.1547117"><ele>472.0</ele><time>2026-05-01T11:26:43.678Z</time></trkpt><trkpt lat="40.9052317" lon="9.1545917"><ele>471.8</ele><time>2026-05-01T11:26:44.678Z</time></trkpt><trkpt lat="40.90524" lon="9.1544633"><ele>471.6</ele><time>2026-05-01T11:26:45.678Z</time></trkpt><trkpt lat="40.905235" lon="9.154315"><ele>471.40000000000003</ele><time>2026-05-01T11:26:46.678Z</time></trkpt><trkpt lat="40.9052333" lon="9.1541567"><ele>471.20000000000005</ele><time>2026-05-01T11:26:47.678Z</time></trkpt><trkpt lat="40.905225" lon="9.1540033"><ele>471.0</ele><time>2026-05-01T11:26:48.678Z</time></trkpt><trkpt lat="40.9052083" lon="9.1538483"><ele>471.0</ele><time>2026-05-01T11:26:49.678Z</time></trkpt><trkpt lat="40.9051767" lon="9.1536967"><ele>471.0</ele><time>2026-05-01T11:26:50.678Z</time></trkpt><trkpt lat="40.9051517" lon="9.1535383"><ele>471.0</ele><time>2026-05-01T11:26:51.678Z</time></trkpt><trkpt lat="40.9051233" lon="9.1534"><ele>471.0</ele><time>2026-05-01T11:26:52.678Z</time></trkpt><trkpt lat="40.9051" lon="9.1532717"><ele>471.0</ele><time>2026-05-01T11:26:53.678Z</time></trkpt><trkpt lat="40.9050783" lon="9.15315"><ele>469.25</ele><time>2026-05-01T11:26:54.678Z</time></trkpt><trkpt lat="40.90505" lon="9.15301"><ele>467.5</ele><time>2026-05-01T11:26:55.678Z</time></trkpt><trkpt lat="40.90502" lon="9.152855"><ele>465.75</ele><time>2026-05-01T11:26:56.678Z</time></trkpt><trkpt lat="40.9049867" lon="9.1526983"><ele>464.0</ele><time>2026-05-01T11:26:57.678Z</time></trkpt><trkpt lat="40.9049417" lon="9.1525217"><ele>464.4</ele><time>2026-05-01T11:26:58.678Z</time></trkpt><trkpt lat="40.9048983" lon="9.1523483"><ele>464.79999999999995</ele><time>2026-05-01T11:26:59.678Z</time></trkpt><trkpt lat="40.9048567" lon="9.1522067"><ele>465.20000000000005</ele><time>2026-05-01T11:27:00.679Z</time></trkpt><trkpt lat="40.904835" lon="9.152085"><ele>465.6</ele><time>2026-05-01T11:27:01.678Z</time></trkpt><trkpt lat="40.904815" lon="9.1519833"><ele>466.0</ele><time>2026-05-01T11:27:02.678Z</time></trkpt><trkpt lat="40.9047917" lon="9.151885"><ele>466.00000000000006</ele><time>2026-05-01T11:27:03.678Z</time></trkpt><trkpt lat="40.9047717" lon="9.151785"><ele>466.0</ele><time>2026-05-01T11:27:04.678Z</time></trkpt><trkpt lat="40.9047533" lon="9.1516733"><ele>466.0</ele><time>2026-05-01T11:27:05.679Z</time></trkpt><trkpt lat="40.9047367" lon="9.1515717"><ele>466.0</ele><time>2026-05-01T11:27:06.678Z</time></trkpt><trkpt lat="40.904725" lon="9.15147"><ele>466.00000000000006</ele><time>2026-05-01T11:27:07.678Z</time></trkpt><trkpt lat="40.90469" lon="9.1513817"><ele>466.0</ele><time>2026-05-01T11:27:08.678Z</time></trkpt><trkpt lat="40.9046433" lon="9.1513"><ele>465.50000000000006</ele><time>2026-05-01T11:27:09.678Z</time></trkpt><trkpt lat="40.9045883" lon="9.1512217"><ele>465.0</ele><time>2026-05-01T11:27:10.678Z</time></trkpt><trkpt lat="40.9045217" lon="9.1511633"><ele>464.5</ele><time>2026-05-01T11:27:11.678Z</time></trkpt><trkpt lat="40.9044483" lon="9.15113"><ele>464.0</ele><time>2026-05-01T11:27:12.679Z</time></trkpt><trkpt lat="40.9043667" lon="9.151125"><ele>463.50000000000006</ele><time>2026-05-01T11:27:13.678Z</time></trkpt><trkpt lat="40.9042667" lon="9.1511533"><ele>463.0</ele><time>2026-05-01T11:27:14.678Z</time></trkpt><trkpt lat="40.9041467" lon="9.1511983"><ele>460.6666666666667</ele><time>2026-05-01T11:27:15.679Z</time></trkpt><trkpt lat="40.9040017" lon="9.15128"><ele>458.33333333333337</ele><time>2026-05-01T11:27:16.678Z</time></trkpt><trkpt lat="40.9038583" lon="9.1513517"><ele>456.0</ele><time>2026-05-01T11:27:17.678Z</time></trkpt><trkpt lat="40.9037167" lon="9.1514233"><ele>456.0</ele><time>2026-05-01T11:27:18.678Z</time></trkpt><trkpt lat="40.9035767" lon="9.151495"><ele>456.0</ele><time>2026-05-01T11:27:19.678Z</time></trkpt><trkpt lat="40.90345" lon="9.1515633"><ele>456.0</ele><time>2026-05-01T11:27:20.678Z</time></trkpt><trkpt lat="40.90332" lon="9.15163"><ele>456.0</ele><time>2026-05-01T11:27:21.678Z</time></trkpt><trkpt lat="40.9032083" lon="9.151675"><ele>455.8</ele><time>2026-05-01T11:27:22.678Z</time></trkpt><trkpt lat="40.9031017" lon="9.1517217"><ele>455.6</ele><time>2026-05-01T11:27:23.679Z</time></trkpt><trkpt lat="40.903005" lon="9.1517683"><ele>455.4</ele><time>2026-05-01T11:27:24.678Z</time></trkpt><trkpt lat="40.9029067" lon="9.1518117"><ele>455.2</ele><time>2026-05-01T11:27:25.678Z</time></trkpt><trkpt lat="40.9028117" lon="9.1518383"><ele>455.0</ele><time>2026-05-01T11:27:26.678Z</time></trkpt><trkpt lat="40.9027167" lon="9.15185"><ele>455.0</ele><time>2026-05-01T11:27:27.678Z</time></trkpt><trkpt lat="40.9026333" lon="9.151835"><ele>455.0</ele><time>2026-05-01T11:27:28.678Z</time></trkpt><trkpt lat="40.9025517" lon="9.1518033"><ele>455.0</ele><time>2026-05-01T11:27:29.678Z</time></trkpt><trkpt lat="40.90248" lon="9.15173"><ele>455.0</ele><time>2026-05-01T11:27:30.678Z</time></trkpt><trkpt lat="40.9024267" lon="9.1516167"><ele>455.0</ele><time>2026-05-01T11:27:31.678Z</time></trkpt><trkpt lat="40.9023967" lon="9.1514533"><ele>453.3333333333333</ele><time>2026-05-01T11:27:32.678Z</time></trkpt><trkpt lat="40.902365" lon="9.1512767"><ele>451.66666666666663</ele><time>2026-05-01T11:27:33.678Z</time></trkpt><trkpt lat="40.9023517" lon="9.1510633"><ele>450.0</ele><time>2026-05-01T11:27:34.678Z</time></trkpt><trkpt lat="40.9023417" lon="9.1508133"><ele>449.66666666666663</ele><time>2026-05-01T11:27:35.678Z</time></trkpt><trkpt lat="40.902315" lon="9.150575"><ele>449.3333333333333</ele><time>2026-05-01T11:27:36.679Z</time></trkpt><trkpt lat="40.9022883" lon="9.150345"><ele>449.0</ele><time>2026-05-01T11:27:37.678Z</time></trkpt><trkpt lat="40.9022567" lon="9.1501267"><ele>449.0</ele><time>2026-05-01T11:27:38.678Z</time></trkpt><trkpt lat="40.90222" lon="9.1498983"><ele>449.0</ele><time>2026-05-01T11:27:39.678Z</time></trkpt><trkpt lat="40.9021933" lon="9.149695"><ele>449.0</ele><time>2026-05-01T11:27:40.678Z</time></trkpt><trkpt lat="40.90216" lon="9.1494983"><ele>449.25</ele><time>2026-05-01T11:27:41.678Z</time></trkpt><trkpt lat="40.9021267" lon="9.1493083"><ele>449.5</ele><time>2026-05-01T11:27:42.678Z</time></trkpt><trkpt lat="40.9020867" lon="9.1491183"><ele>449.75</ele><time>2026-05-01T11:27:43.678Z</time></trkpt><trkpt lat="40.9020533" lon="9.1489367"><ele>450.0</ele><time>2026-05-01T11:27:44.678Z</time></trkpt><trkpt lat="40.9020233" lon="9.148775"><ele>451.2</ele><time>2026-05-01T11:27:45.678Z</time></trkpt><trkpt lat="40.901995" lon="9.1486433"><ele>452.4</ele><time>2026-05-01T11:27:46.678Z</time></trkpt><trkpt lat="40.90197" lon="9.1485367"><ele>453.6</ele><time>2026-05-01T11:27:47.678Z</time></trkpt><trkpt lat="40.9019433" lon="9.148455"><ele>454.8</ele><time>2026-05-01T11:27:48.678Z</time></trkpt><trkpt lat="40.9019067" lon="9.14837"><ele>456.0</ele><time>2026-05-01T11:27:49.678Z</time></trkpt><trkpt lat="40.901795" lon="9.1482983"><ele>456.0</ele><time>2026-05-01T11:27:51.678Z</time></trkpt><trkpt lat="40.9017267" lon="9.1482717"><ele>456.0</ele><time>2026-05-01T11:27:52.678Z</time></trkpt><trkpt lat="40.901625" lon="9.1482983"><ele>456.0</ele><time>2026-05-01T11:27:53.678Z</time></trkpt><trkpt lat="40.9014933" lon="9.148365"><ele>456.0</ele><time>2026-05-01T11:27:54.678Z</time></trkpt><trkpt lat="40.90133" lon="9.1484533"><ele>456.0</ele><time>2026-05-01T11:27:55.678Z</time></trkpt><trkpt lat="40.90119" lon="9.1484967"><ele>456.0</ele><time>2026-05-01T11:27:56.678Z</time></trkpt><trkpt lat="40.9010267" lon="9.1485833"><ele>456.0</ele><time>2026-05-01T11:27:57.678Z</time></trkpt><trkpt lat="40.9008667" lon="9.148625"><ele>456.33333333333337</ele><time>2026-05-01T11:27:58.678Z</time></trkpt><trkpt lat="40.9006933" lon="9.1486717"><ele>456.6666666666667</ele><time>2026-05-01T11:27:59.678Z</time></trkpt><trkpt lat="40.9005317" lon="9.1486617"><ele>457.0</ele><time>2026-05-01T11:28:00.678Z</time></trkpt><trkpt lat="40.9003717" lon="9.1486167"><ele>457.0</ele><time>2026-05-01T11:28:01.678Z</time></trkpt><trkpt lat="40.9002017" lon="9.1485433"><ele>457.0</ele><time>2026-05-01T11:28:02.678Z</time></trkpt><trkpt lat="40.90005" lon="9.1484583"><ele>457.0</ele><time>2026-05-01T11:28:03.678Z</time></trkpt><trkpt lat="40.8998983" lon="9.14837"><ele>458.33333333333337</ele><time>2026-05-01T11:28:04.678Z</time></trkpt><trkpt lat="40.89975" lon="9.1482683"><ele>459.66666666666663</ele><time>2026-05-01T11:28:05.678Z</time></trkpt><trkpt lat="40.899575" lon="9.1482"><ele>461.0</ele><time>2026-05-01T11:28:06.678Z</time></trkpt><trkpt lat="40.89944" lon="9.14809"><ele>462.66666666666663</ele><time>2026-05-01T11:28:07.678Z</time></trkpt><trkpt lat="40.899295" lon="9.1479817"><ele>464.33333333333337</ele><time>2026-05-01T11:28:08.678Z</time></trkpt><trkpt lat="40.8991533" lon="9.147875"><ele>466.0</ele><time>2026-05-01T11:28:09.678Z</time></trkpt><trkpt lat="40.8990117" lon="9.147755"><ele>466.0</ele><time>2026-05-01T11:28:10.678Z</time></trkpt><trkpt lat="40.8988633" lon="9.1476333"><ele>466.0</ele><time>2026-05-01T11:28:11.678Z</time></trkpt><trkpt lat="40.898715" lon="9.1474983"><ele>466.0</ele><time>2026-05-01T11:28:12.678Z</time></trkpt><trkpt lat="40.8985733" lon="9.1473817"><ele>466.6666666666667</ele><time>2026-05-01T11:28:13.678Z</time></trkpt><trkpt lat="40.8984317" lon="9.14727"><ele>467.33333333333337</ele><time>2026-05-01T11:28:14.679Z</time></trkpt><trkpt lat="40.8982983" lon="9.147155"><ele>468.0</ele><time>2026-05-01T11:28:15.678Z</time></trkpt><trkpt lat="40.89817" lon="9.14704"><ele>466.0</ele><time>2026-05-01T11:28:16.678Z</time></trkpt><trkpt lat="40.8980483" lon="9.1469133"><ele>464.0</ele><time>2026-05-01T11:28:17.678Z</time></trkpt><trkpt lat="40.8979183" lon="9.146795"><ele>462.0</ele><time>2026-05-01T11:28:18.678Z</time></trkpt><trkpt lat="40.8977817" lon="9.1466617"><ele>461.66666666666663</ele><time>2026-05-01T11:28:19.678Z</time></trkpt><trkpt lat="40.8976367" lon="9.146535"><ele>461.3333333333333</ele><time>2026-05-01T11:28:20.678Z</time></trkpt><trkpt lat="40.897495" lon="9.146415"><ele>461.0</ele><time>2026-05-01T11:28:21.678Z</time></trkpt><trkpt lat="40.8973567" lon="9.146295"><ele>459.0</ele><time>2026-05-01T11:28:22.678Z</time></trkpt><trkpt lat="40.8972117" lon="9.1461867"><ele>457.0</ele><time>2026-05-01T11:28:23.678Z</time></trkpt><trkpt lat="40.8970667" lon="9.146075"><ele>455.0</ele><time>2026-05-01T11:28:24.678Z</time></trkpt><trkpt lat="40.8969217" lon="9.145955"><ele>455.0</ele><time>2026-05-01T11:28:25.678Z</time></trkpt><trkpt lat="40.8967833" lon="9.145835"><ele>455.0</ele><time>2026-05-01T11:28:26.678Z</time></trkpt><trkpt lat="40.8966433" lon="9.1457067"><ele>455.0</ele><time>2026-05-01T11:28:27.678Z</time></trkpt><trkpt lat="40.896505" lon="9.14558"><ele>454.66666666666663</ele><time>2026-05-01T11:28:28.678Z</time></trkpt><trkpt lat="40.896355" lon="9.1454617"><ele>454.33333333333337</ele><time>2026-05-01T11:28:29.678Z</time></trkpt><trkpt lat="40.8962233" lon="9.1453333"><ele>454.0</ele><time>2026-05-01T11:28:30.678Z</time></trkpt><trkpt lat="40.8960867" lon="9.1452233"><ele>454.0</ele><time>2026-05-01T11:28:31.678Z</time></trkpt><trkpt lat="40.8959483" lon="9.1451333"><ele>454.0</ele><time>2026-05-01T11:28:32.678Z</time></trkpt><trkpt lat="40.8958" lon="9.1450333"><ele>454.0</ele><time>2026-05-01T11:28:33.678Z</time></trkpt><trkpt lat="40.8956617" lon="9.144935"><ele>455.6666666666667</ele><time>2026-05-01T11:28:34.678Z</time></trkpt><trkpt lat="40.895525" lon="9.1448183"><ele>457.33333333333337</ele><time>2026-05-01T11:28:35.678Z</time></trkpt><trkpt lat="40.8953783" lon="9.144705"><ele>459.0</ele><time>2026-05-01T11:28:36.678Z</time></trkpt><trkpt lat="40.895245" lon="9.1445733"><ele>459.0</ele><time>2026-05-01T11:28:37.678Z</time></trkpt><trkpt lat="40.8950883" lon="9.1444467"><ele>459.0</ele><time>2026-05-01T11:28:38.678Z</time></trkpt><trkpt lat="40.8949383" lon="9.1443167"><ele>459.0</ele><time>2026-05-01T11:28:39.678Z</time></trkpt><trkpt lat="40.8947883" lon="9.1441833"><ele>460.33333333333337</ele><time>2026-05-01T11:28:40.678Z</time></trkpt><trkpt lat="40.89464" lon="9.1440433"><ele>461.6666666666667</ele><time>2026-05-01T11:28:41.678Z</time></trkpt><trkpt lat="40.8944933" lon="9.1439"><ele>463.0</ele><time>2026-05-01T11:28:42.678Z</time></trkpt><trkpt lat="40.8943433" lon="9.143765"><ele>465.0</ele><time>2026-05-01T11:28:43.678Z</time></trkpt><trkpt lat="40.8942017" lon="9.1436267"><ele>467.0</ele><time>2026-05-01T11:28:44.678Z</time></trkpt><trkpt lat="40.8940533" lon="9.1435"><ele>469.0</ele><time>2026-05-01T11:28:45.679Z</time></trkpt><trkpt lat="40.89389" lon="9.1433767"><ele>469.0</ele><time>2026-05-01T11:28:46.678Z</time></trkpt><trkpt lat="40.8937383" lon="9.1432617"><ele>469.0</ele><time>2026-05-01T11:28:47.678Z</time></trkpt><trkpt lat="40.893595" lon="9.1431483"><ele>469.0</ele><time>2026-05-01T11:28:48.678Z</time></trkpt><trkpt lat="40.893455" lon="9.143025"><ele>469.0</ele><time>2026-05-01T11:28:49.678Z</time></trkpt><trkpt lat="40.893325" lon="9.142925"><ele>469.0</ele><time>2026-05-01T11:28:50.679Z</time></trkpt><trkpt lat="40.8932017" lon="9.142825"><ele>469.0</ele><time>2026-05-01T11:28:51.678Z</time></trkpt><trkpt lat="40.8930733" lon="9.14273"><ele>469.0</ele><time>2026-05-01T11:28:52.678Z</time></trkpt><trkpt lat="40.8929433" lon="9.142645"><ele>469.0</ele><time>2026-05-01T11:28:53.678Z</time></trkpt><trkpt lat="40.8928117" lon="9.1425633"><ele>469.0</ele><time>2026-05-01T11:28:54.678Z</time></trkpt><trkpt lat="40.8926917" lon="9.1424683"><ele>469.0</ele><time>2026-05-01T11:28:55.678Z</time></trkpt><trkpt lat="40.8925683" lon="9.1423783"><ele>469.0</ele><time>2026-05-01T11:28:56.678Z</time></trkpt><trkpt lat="40.892455" lon="9.14225"><ele>469.6666666666667</ele><time>2026-05-01T11:28:57.678Z</time></trkpt><trkpt lat="40.8923267" lon="9.1421233"><ele>470.33333333333337</ele><time>2026-05-01T11:28:58.678Z</time></trkpt><trkpt lat="40.8921917" lon="9.1419883"><ele>471.0</ele><time>2026-05-01T11:28:59.678Z</time></trkpt><trkpt lat="40.8920583" lon="9.1418583"><ele>471.0</ele><time>2026-05-01T11:29:00.678Z</time></trkpt><trkpt lat="40.89192" lon="9.1417217"><ele>471.0</ele><time>2026-05-01T11:29:01.678Z</time></trkpt><trkpt lat="40.8917883" lon="9.14159"><ele>471.0</ele><time>2026-05-01T11:29:02.678Z</time></trkpt><trkpt lat="40.8916583" lon="9.1414517"><ele>471.33333333333337</ele><time>2026-05-01T11:29:03.678Z</time></trkpt><trkpt lat="40.8915133" lon="9.1413267"><ele>471.6666666666667</ele><time>2026-05-01T11:29:04.678Z</time></trkpt><trkpt lat="40.891375" lon="9.1412033"><ele>472.0</ele><time>2026-05-01T11:29:05.678Z</time></trkpt><trkpt lat="40.89124" lon="9.141075"><ele>472.0</ele><time>2026-05-01T11:29:06.678Z</time></trkpt><trkpt lat="40.8911067" lon="9.1409267"><ele>472.0</ele><time>2026-05-01T11:29:07.678Z</time></trkpt><trkpt lat="40.89098" lon="9.1407767"><ele>472.0</ele><time>2026-05-01T11:29:08.678Z</time></trkpt><trkpt lat="40.890855" lon="9.140625"><ele>474.6666666666667</ele><time>2026-05-01T11:29:09.678Z</time></trkpt><trkpt lat="40.8907233" lon="9.1404817"><ele>477.33333333333337</ele><time>2026-05-01T11:29:10.678Z</time></trkpt><trkpt lat="40.8905767" lon="9.14037"><ele>480.0</ele><time>2026-05-01T11:29:11.678Z</time></trkpt><trkpt lat="40.89044" lon="9.14026"><ele>480.0</ele><time>2026-05-01T11:29:12.678Z</time></trkpt><trkpt lat="40.890305" lon="9.14014"><ele>480.0</ele><time>2026-05-01T11:29:13.678Z</time></trkpt><trkpt lat="40.8901733" lon="9.1400067"><ele>480.0</ele><time>2026-05-01T11:29:14.678Z</time></trkpt><trkpt lat="40.89005" lon="9.1398617"><ele>480.66666666666663</ele><time>2026-05-01T11:29:15.678Z</time></trkpt><trkpt lat="40.8899333" lon="9.1397033"><ele>481.3333333333333</ele><time>2026-05-01T11:29:16.678Z</time></trkpt><trkpt lat="40.8898333" lon="9.1395317"><ele>482.0</ele><time>2026-05-01T11:29:17.678Z</time></trkpt><trkpt lat="40.8897433" lon="9.1393583"><ele>482.0</ele><time>2026-05-01T11:29:18.678Z</time></trkpt><trkpt lat="40.8896433" lon="9.1391717"><ele>482.0</ele><time>2026-05-01T11:29:19.678Z</time></trkpt><trkpt lat="40.8895367" lon="9.1389733"><ele>482.0</ele><time>2026-05-01T11:29:20.678Z</time></trkpt><trkpt lat="40.889445" lon="9.138765"><ele>481.66666666666663</ele><time>2026-05-01T11:29:21.678Z</time></trkpt><trkpt lat="40.8893483" lon="9.1385833"><ele>481.33333333333337</ele><time>2026-05-01T11:29:22.678Z</time></trkpt><trkpt lat="40.8892667" lon="9.1384"><ele>481.0</ele><time>2026-05-01T11:29:23.678Z</time></trkpt><trkpt lat="40.88917" lon="9.13822"><ele>483.0</ele><time>2026-05-01T11:29:24.678Z</time></trkpt><trkpt lat="40.8890767" lon="9.1380383"><ele>485.0</ele><time>2026-05-01T11:29:25.678Z</time></trkpt><trkpt lat="40.8889683" lon="9.1378667"><ele>487.0</ele><time>2026-05-01T11:29:26.678Z</time></trkpt><trkpt lat="40.8888633" lon="9.1376983"><ele>487.0</ele><time>2026-05-01T11:29:27.678Z</time></trkpt><trkpt lat="40.8887617" lon="9.1375283"><ele>487.0</ele><time>2026-05-01T11:29:28.678Z</time></trkpt><trkpt lat="40.8886533" lon="9.1373617"><ele>487.0</ele><time>2026-05-01T11:29:29.678Z</time></trkpt><trkpt lat="40.8885217" lon="9.1372117"><ele>490.33333333333337</ele><time>2026-05-01T11:29:30.678Z</time></trkpt><trkpt lat="40.8883833" lon="9.1370717"><ele>493.66666666666663</ele><time>2026-05-01T11:29:31.678Z</time></trkpt><trkpt lat="40.8882183" lon="9.13697"><ele>497.0</ele><time>2026-05-01T11:29:32.678Z</time></trkpt><trkpt lat="40.8880617" lon="9.1368733"><ele>497.0</ele><time>2026-05-01T11:29:33.678Z</time></trkpt><trkpt lat="40.88791" lon="9.13681"><ele>497.0</ele><time>2026-05-01T11:29:34.678Z</time></trkpt><trkpt lat="40.8877617" lon="9.1367117"><ele>497.0</ele><time>2026-05-01T11:29:35.678Z</time></trkpt><trkpt lat="40.887615" lon="9.1366083"><ele>497.66666666666663</ele><time>2026-05-01T11:29:36.678Z</time></trkpt><trkpt lat="40.8874683" lon="9.1365033"><ele>498.33333333333337</ele><time>2026-05-01T11:29:37.678Z</time></trkpt><trkpt lat="40.887305" lon="9.1363967"><ele>499.0</ele><time>2026-05-01T11:29:38.678Z</time></trkpt><trkpt lat="40.88713" lon="9.1363083"><ele>499.0</ele><time>2026-05-01T11:29:39.678Z</time></trkpt><trkpt lat="40.8869817" lon="9.1362033"><ele>499.0</ele><time>2026-05-01T11:29:40.678Z</time></trkpt><trkpt lat="40.8868283" lon="9.1360933"><ele>499.0</ele><time>2026-05-01T11:29:41.678Z</time></trkpt><trkpt lat="40.88668" lon="9.1359917"><ele>499.0</ele><time>2026-05-01T11:29:42.678Z</time></trkpt><trkpt lat="40.8865117" lon="9.1358817"><ele>499.0</ele><time>2026-05-01T11:29:43.678Z</time></trkpt><trkpt lat="40.8863583" lon="9.1357783"><ele>499.0</ele><time>2026-05-01T11:29:44.678Z</time></trkpt><trkpt lat="40.8862183" lon="9.1356533"><ele>499.6666666666667</ele><time>2026-05-01T11:29:45.678Z</time></trkpt><trkpt lat="40.88607" lon="9.13554"><ele>500.33333333333337</ele><time>2026-05-01T11:29:46.678Z</time></trkpt><trkpt lat="40.8859317" lon="9.135415"><ele>501.0</ele><time>2026-05-01T11:29:47.678Z</time></trkpt><trkpt lat="40.8857817" lon="9.1353083"><ele>501.0</ele><time>2026-05-01T11:29:48.678Z</time></trkpt><trkpt lat="40.8856433" lon="9.1352"><ele>501.0</ele><time>2026-05-01T11:29:49.678Z</time></trkpt><trkpt lat="40.8855133" lon="9.1350733"><ele>501.0</ele><time>2026-05-01T11:29:50.678Z</time></trkpt><trkpt lat="40.8853917" lon="9.1349433"><ele>502.33333333333337</ele><time>2026-05-01T11:29:51.678Z</time></trkpt><trkpt lat="40.8852283" lon="9.134845"><ele>503.6666666666667</ele><time>2026-05-01T11:29:52.678Z</time></trkpt><trkpt lat="40.8850833" lon="9.1347217"><ele>505.0</ele><time>2026-05-01T11:29:53.678Z</time></trkpt><trkpt lat="40.8849417" lon="9.1345917"><ele>505.0</ele><time>2026-05-01T11:29:54.678Z</time></trkpt><trkpt lat="40.884815" lon="9.1344683"><ele>505.0</ele><time>2026-05-01T11:29:55.678Z</time></trkpt><trkpt lat="40.8846817" lon="9.1343283"><ele>505.0</ele><time>2026-05-01T11:29:56.678Z</time></trkpt><trkpt lat="40.8845517" lon="9.1341933"><ele>505.0</ele><time>2026-05-01T11:29:57.678Z</time></trkpt><trkpt lat="40.8844033" lon="9.1340617"><ele>505.0</ele><time>2026-05-01T11:29:58.678Z</time></trkpt><trkpt lat="40.8842983" lon="9.1338983"><ele>505.0</ele><time>2026-05-01T11:29:59.678Z</time></trkpt><trkpt lat="40.8841683" lon="9.133745"><ele>504.6666666666667</ele><time>2026-05-01T11:30:00.678Z</time></trkpt><trkpt lat="40.8840417" lon="9.1335967"><ele>504.33333333333337</ele><time>2026-05-01T11:30:01.678Z</time></trkpt><trkpt lat="40.88391" lon="9.1334767"><ele>504.0</ele><time>2026-05-01T11:30:02.678Z</time></trkpt><trkpt lat="40.883785" lon="9.1333317"><ele>504.66666666666663</ele><time>2026-05-01T11:30:03.678Z</time></trkpt><trkpt lat="40.8836583" lon="9.1332017"><ele>505.3333333333333</ele><time>2026-05-01T11:30:04.677Z</time></trkpt><trkpt lat="40.8835183" lon="9.1330717"><ele>506.0</ele><time>2026-05-01T11:30:05.677Z</time></trkpt><trkpt lat="40.8833617" lon="9.1329317"><ele>506.0</ele><time>2026-05-01T11:30:06.677Z</time></trkpt><trkpt lat="40.88322" lon="9.1327867"><ele>506.0</ele><time>2026-05-01T11:30:07.677Z</time></trkpt><trkpt lat="40.8830883" lon="9.1326283"><ele>506.0</ele><time>2026-05-01T11:30:08.677Z</time></trkpt><trkpt lat="40.8829517" lon="9.1324867"><ele>508.0</ele><time>2026-05-01T11:30:09.677Z</time></trkpt><trkpt lat="40.8828167" lon="9.1323567"><ele>510.0</ele><time>2026-05-01T11:30:10.677Z</time></trkpt><trkpt lat="40.8826917" lon="9.1322267"><ele>512.0</ele><time>2026-05-01T11:30:11.677Z</time></trkpt><trkpt lat="40.8825617" lon="9.1320983"><ele>512.0</ele><time>2026-05-01T11:30:12.677Z</time></trkpt><trkpt lat="40.8824417" lon="9.1319517"><ele>512.0</ele><time>2026-05-01T11:30:13.677Z</time></trkpt><trkpt lat="40.882315" lon="9.131815"><ele>512.0</ele><time>2026-05-01T11:30:14.677Z</time></trkpt><trkpt lat="40.882195" lon="9.1316833"><ele>511.66666666666663</ele><time>2026-05-01T11:30:15.677Z</time></trkpt><trkpt lat="40.882065" lon="9.13155"><ele>511.33333333333337</ele><time>2026-05-01T11:30:16.677Z</time></trkpt><trkpt lat="40.881925" lon="9.131435"><ele>511.0</ele><time>2026-05-01T11:30:17.677Z</time></trkpt><trkpt lat="40.8817933" lon="9.1313"><ele>512.0</ele><time>2026-05-01T11:30:18.677Z</time></trkpt><trkpt lat="40.8816667" lon="9.1311717"><ele>513.0</ele><time>2026-05-01T11:30:19.677Z</time></trkpt><trkpt lat="40.8815567" lon="9.1310617"><ele>514.0</ele><time>2026-05-01T11:30:20.677Z</time></trkpt><trkpt lat="40.8814467" lon="9.13096"><ele>515.0</ele><time>2026-05-01T11:30:21.677Z</time></trkpt><trkpt lat="40.8813317" lon="9.1308517"><ele>515.0</ele><time>2026-05-01T11:30:22.677Z</time></trkpt><trkpt lat="40.8812133" lon="9.13074"><ele>515.0</ele><time>2026-05-01T11:30:23.677Z</time></trkpt><trkpt lat="40.881085" lon="9.1306333"><ele>515.0</ele><time>2026-05-01T11:30:24.677Z</time></trkpt><trkpt lat="40.8809733" lon="9.1305567"><ele>515.0</ele><time>2026-05-01T11:30:25.677Z</time></trkpt><trkpt lat="40.8808917" lon="9.1304817"><ele>515.4</ele><time>2026-05-01T11:30:26.677Z</time></trkpt><trkpt lat="40.8807967" lon="9.1304283"><ele>515.8</ele><time>2026-05-01T11:30:27.677Z</time></trkpt><trkpt lat="40.8807017" lon="9.13039"><ele>516.2</ele><time>2026-05-01T11:30:28.677Z</time></trkpt><trkpt lat="40.8806133" lon="9.1303417"><ele>516.6</ele><time>2026-05-01T11:30:29.677Z</time></trkpt><trkpt lat="40.8805517" lon="9.13029"><ele>517.0</ele><time>2026-05-01T11:30:30.677Z</time></trkpt><trkpt lat="40.88046" lon="9.1302667"><ele>517.0</ele><time>2026-05-01T11:30:31.677Z</time></trkpt><trkpt lat="40.8803767" lon="9.1302283"><ele>517.0</ele><time>2026-05-01T11:30:32.677Z</time></trkpt><trkpt lat="40.8802783" lon="9.130205"><ele>517.0</ele><time>2026-05-01T11:30:33.677Z</time></trkpt><trkpt lat="40.88018" lon="9.1301783"><ele>517.0</ele><time>2026-05-01T11:30:34.677Z</time></trkpt><trkpt lat="40.880075" lon="9.130155"><ele>517.0</ele><time>2026-05-01T11:30:35.677Z</time></trkpt><trkpt lat="40.879965" lon="9.1301217"><ele>516.8000000000001</ele><time>2026-05-01T11:30:36.677Z</time></trkpt><trkpt lat="40.8798817" lon="9.130085"><ele>516.6</ele><time>2026-05-01T11:30:37.677Z</time></trkpt><trkpt lat="40.8797767" lon="9.130045"><ele>516.4000000000001</ele><time>2026-05-01T11:30:38.677Z</time></trkpt><trkpt lat="40.87967" lon="9.1299917"><ele>516.2</ele><time>2026-05-01T11:30:39.677Z</time></trkpt><trkpt lat="40.87956" lon="9.1299467"><ele>516.0</ele><time>2026-05-01T11:30:40.678Z</time></trkpt><trkpt lat="40.8794567" lon="9.1298933"><ele>516.0</ele><time>2026-05-01T11:30:41.677Z</time></trkpt><trkpt lat="40.8793433" lon="9.1298383"><ele>516.0</ele><time>2026-05-01T11:30:42.677Z</time></trkpt><trkpt lat="40.8792133" lon="9.129795"><ele>516.0</ele><time>2026-05-01T11:30:43.677Z</time></trkpt><trkpt lat="40.8790983" lon="9.12978"><ele>516.0</ele><time>2026-05-01T11:30:44.677Z</time></trkpt><trkpt lat="40.8789867" lon="9.1297683"><ele>516.0</ele><time>2026-05-01T11:30:45.677Z</time></trkpt><trkpt lat="40.8788733" lon="9.129765"><ele>516.0</ele><time>2026-05-01T11:30:46.677Z</time></trkpt><trkpt lat="40.87878" lon="9.1297617"><ele>516.0</ele><time>2026-05-01T11:30:47.677Z</time></trkpt><trkpt lat="40.8786883" lon="9.12975"><ele>516.0</ele><time>2026-05-01T11:30:48.677Z</time></trkpt><trkpt lat="40.87859" lon="9.1297233"><ele>516.0</ele><time>2026-05-01T11:30:49.677Z</time></trkpt><trkpt lat="40.8784983" lon="9.1296783"><ele>515.8</ele><time>2026-05-01T11:30:50.677Z</time></trkpt><trkpt lat="40.8784117" lon="9.12961"><ele>515.6</ele><time>2026-05-01T11:30:51.677Z</time></trkpt><trkpt lat="40.8783217" lon="9.1295333"><ele>515.4</ele><time>2026-05-01T11:30:52.677Z</time></trkpt><trkpt lat="40.87823" lon="9.1294533"><ele>515.2</ele><time>2026-05-01T11:30:53.677Z</time></trkpt><trkpt lat="40.8781567" lon="9.1293517"><ele>515.0</ele><time>2026-05-01T11:30:54.677Z</time></trkpt><trkpt lat="40.8780833" lon="9.129235"><ele>515.0</ele><time>2026-05-01T11:30:55.677Z</time></trkpt><trkpt lat="40.8780117" lon="9.1291367"><ele>515.0</ele><time>2026-05-01T11:30:56.677Z</time></trkpt><trkpt lat="40.8779333" lon="9.129035"><ele>515.0</ele><time>2026-05-01T11:30:57.677Z</time></trkpt><trkpt lat="40.8779017" lon="9.128925"><ele>515.0</ele><time>2026-05-01T11:30:58.677Z</time></trkpt><trkpt lat="40.877895" lon="9.128785"><ele>515.0</ele><time>2026-05-01T11:30:59.677Z</time></trkpt><trkpt lat="40.8778617" lon="9.128685"><ele>515.1666666666666</ele><time>2026-05-01T11:31:00.677Z</time></trkpt><trkpt lat="40.8778367" lon="9.1286083"><ele>515.3333333333333</ele><time>2026-05-01T11:31:01.677Z</time></trkpt><trkpt lat="40.8777817" lon="9.128495"><ele>515.5</ele><time>2026-05-01T11:31:03.677Z</time></trkpt><trkpt lat="40.8777317" lon="9.1283917"><ele>515.6666666666666</ele><time>2026-05-01T11:31:05.677Z</time></trkpt><trkpt lat="40.8776367" lon="9.1283267"><ele>515.8333333333334</ele><time>2026-05-01T11:31:07.677Z</time></trkpt><trkpt lat="40.8775533" lon="9.1283117"><ele>516.0</ele><time>2026-05-01T11:31:08.677Z</time></trkpt><trkpt lat="40.87745" lon="9.128315"><ele>516.0</ele><time>2026-05-01T11:31:09.677Z</time></trkpt><trkpt lat="40.8773083" lon="9.1283517"><ele>516.0</ele><time>2026-05-01T11:31:10.677Z</time></trkpt><trkpt lat="40.877165" lon="9.12838"><ele>516.0</ele><time>2026-05-01T11:31:11.677Z</time></trkpt><trkpt lat="40.8770433" lon="9.12839"><ele>516.0</ele><time>2026-05-01T11:31:12.677Z</time></trkpt><trkpt lat="40.876925" lon="9.1283917"><ele>516.0</ele><time>2026-05-01T11:31:13.677Z</time></trkpt><trkpt lat="40.876815" lon="9.12839"><ele>516.0</ele><time>2026-05-01T11:31:14.677Z</time></trkpt><trkpt lat="40.876725" lon="9.1283967"><ele>516.0</ele><time>2026-05-01T11:31:15.677Z</time></trkpt><trkpt lat="40.8766567" lon="9.1283983"><ele>516.0</ele><time>2026-05-01T11:31:16.677Z</time></trkpt><trkpt lat="40.876555" lon="9.1283917"><ele>516.0</ele><time>2026-05-01T11:31:18.677Z</time></trkpt><trkpt lat="40.876505" lon="9.1283367"><ele>516.0</ele><time>2026-05-01T11:31:22.677Z</time></trkpt><trkpt lat="40.8764517" lon="9.12825"><ele>515.6</ele><time>2026-05-01T11:31:24.677Z</time></trkpt><trkpt lat="40.8763883" lon="9.1281467"><ele>515.2</ele><time>2026-05-01T11:31:26.677Z</time></trkpt><trkpt lat="40.8763267" lon="9.128085"><ele>514.8</ele><time>2026-05-01T11:31:28.677Z</time></trkpt><trkpt lat="40.87624" lon="9.128095"><ele>514.4</ele><time>2026-05-01T11:31:30.677Z</time></trkpt><trkpt lat="40.87614" lon="9.1281533"><ele>514.0</ele><time>2026-05-01T11:31:32.677Z</time></trkpt><trkpt lat="40.8760617" lon="9.1281933"><ele>514.0</ele><time>2026-05-01T11:31:34.677Z</time></trkpt><trkpt lat="40.875965" lon="9.1281933"><ele>514.0</ele><time>2026-05-01T11:31:36.677Z</time></trkpt><trkpt lat="40.8758667" lon="9.1281633"><ele>514.0</ele><time>2026-05-01T11:31:38.678Z</time></trkpt><trkpt lat="40.87576" lon="9.128095"><ele>514.0</ele><time>2026-05-01T11:31:40.677Z</time></trkpt><trkpt lat="40.8756333" lon="9.1280283"><ele>515.1428571428571</ele><time>2026-05-01T11:31:42.677Z</time></trkpt><trkpt lat="40.8755583" lon="9.1279917"><ele>516.2857142857143</ele><time>2026-05-01T11:31:43.677Z</time></trkpt><trkpt lat="40.8754883" lon="9.1279333"><ele>517.4285714285714</ele><time>2026-05-01T11:31:44.678Z</time></trkpt><trkpt lat="40.8754217" lon="9.127895"><ele>518.5714285714286</ele><time>2026-05-01T11:31:45.677Z</time></trkpt><trkpt lat="40.8753583" lon="9.12786"><ele>519.7142857142857</ele><time>2026-05-01T11:31:46.677Z</time></trkpt><trkpt lat="40.8753033" lon="9.1278133"><ele>520.8571428571429</ele><time>2026-05-01T11:31:47.677Z</time></trkpt><trkpt lat="40.87526" lon="9.127745"><ele>522.0</ele><time>2026-05-01T11:31:48.677Z</time></trkpt><trkpt lat="40.87516" lon="9.1276833"><ele>522.0</ele><time>2026-05-01T11:31:50.677Z</time></trkpt><trkpt lat="40.8751067" lon="9.127605"><ele>522.0</ele><time>2026-05-01T11:31:52.677Z</time></trkpt><trkpt lat="40.87505" lon="9.1275033"><ele>522.0</ele><time>2026-05-01T11:31:54.677Z</time></trkpt><trkpt lat="40.8749667" lon="9.1274133"><ele>522.0</ele><time>2026-05-01T11:31:56.677Z</time></trkpt><trkpt lat="40.874855" lon="9.12734"><ele>522.0</ele><time>2026-05-01T11:31:58.677Z</time></trkpt><trkpt lat="40.874815" lon="9.1272467"><ele>523.4</ele><time>2026-05-01T11:31:59.677Z</time></trkpt><trkpt lat="40.8746917" lon="9.1272133"><ele>524.8000000000001</ele><time>2026-05-01T11:32:01.677Z</time></trkpt><trkpt lat="40.874615" lon="9.1272133"><ele>526.2</ele><time>2026-05-01T11:32:02.677Z</time></trkpt><trkpt lat="40.8745433" lon="9.127215"><ele>527.6</ele><time>2026-05-01T11:32:03.677Z</time></trkpt><trkpt lat="40.8744667" lon="9.12722"><ele>529.0</ele><time>2026-05-01T11:32:04.677Z</time></trkpt><trkpt lat="40.8743633" lon="9.1272317"><ele>529.0</ele><time>2026-05-01T11:32:06.677Z</time></trkpt><trkpt lat="40.874265" lon="9.1272583"><ele>529.0</ele><time>2026-05-01T11:32:08.677Z</time></trkpt><trkpt lat="40.8742083" lon="9.127295"><ele>529.0</ele><time>2026-05-01T11:32:09.677Z</time></trkpt><trkpt lat="40.87414" lon="9.127325"><ele>529.0</ele><time>2026-05-01T11:32:10.677Z</time></trkpt><trkpt lat="40.8740633" lon="9.1273667"><ele>529.0</ele><time>2026-05-01T11:32:12.678Z</time></trkpt><trkpt lat="40.8740017" lon="9.12743"><ele>529.0</ele><time>2026-05-01T11:32:13.677Z</time></trkpt><trkpt lat="40.8739267" lon="9.1275667"><ele>528.2</ele><time>2026-05-01T11:32:15.677Z</time></trkpt><trkpt lat="40.8738833" lon="9.12768"><ele>527.4</ele><time>2026-05-01T11:32:16.677Z</time></trkpt><trkpt lat="40.8738483" lon="9.1277883"><ele>526.6</ele><time>2026-05-01T11:32:17.677Z</time></trkpt><trkpt lat="40.8738233" lon="9.1278983"><ele>525.8</ele><time>2026-05-01T11:32:18.677Z</time></trkpt><trkpt lat="40.873795" lon="9.1280033"><ele>525.0</ele><time>2026-05-01T11:32:19.677Z</time></trkpt><trkpt lat="40.8737567" lon="9.1281217"><ele>525.0</ele><time>2026-05-01T11:32:20.677Z</time></trkpt><trkpt lat="40.87373" lon="9.1282083"><ele>525.0</ele><time>2026-05-01T11:32:21.677Z</time></trkpt><trkpt lat="40.8737033" lon="9.128305"><ele>525.0</ele><time>2026-05-01T11:32:22.677Z</time></trkpt><trkpt lat="40.8736733" lon="9.1283933"><ele>525.0</ele><time>2026-05-01T11:32:23.677Z</time></trkpt><trkpt lat="40.8736333" lon="9.1284717"><ele>525.0</ele><time>2026-05-01T11:32:24.677Z</time></trkpt><trkpt lat="40.8735633" lon="9.1286067"><ele>525.0</ele><time>2026-05-01T11:32:25.677Z</time></trkpt><trkpt lat="40.8735067" lon="9.1287067"><ele>524.5</ele><time>2026-05-01T11:32:26.677Z</time></trkpt><trkpt lat="40.8734517" lon="9.1287867"><ele>524.0</ele><time>2026-05-01T11:32:27.677Z</time></trkpt><trkpt lat="40.87341" lon="9.1288683"><ele>523.5</ele><time>2026-05-01T11:32:28.677Z</time></trkpt><trkpt lat="40.8733283" lon="9.1289233"><ele>523.0</ele><time>2026-05-01T11:32:29.677Z</time></trkpt><trkpt lat="40.873265" lon="9.1289967"><ele>522.5</ele><time>2026-05-01T11:32:30.677Z</time></trkpt><trkpt lat="40.8731967" lon="9.1290667"><ele>522.0</ele><time>2026-05-01T11:32:31.677Z</time></trkpt><trkpt lat="40.8731233" lon="9.12913"><ele>523.4285714285714</ele><time>2026-05-01T11:32:32.677Z</time></trkpt><trkpt lat="40.8730483" lon="9.1291533"><ele>524.8571428571429</ele><time>2026-05-01T11:32:33.677Z</time></trkpt><trkpt lat="40.8729767" lon="9.129165"><ele>526.2857142857142</ele><time>2026-05-01T11:32:34.677Z</time></trkpt><trkpt lat="40.8728933" lon="9.1291783"><ele>527.7142857142858</ele><time>2026-05-01T11:32:35.677Z</time></trkpt><trkpt lat="40.87282" lon="9.1291817"><ele>529.1428571428571</ele><time>2026-05-01T11:32:36.677Z</time></trkpt><trkpt lat="40.8727533" lon="9.12918"><ele>530.5714285714286</ele><time>2026-05-01T11:32:37.677Z</time></trkpt><trkpt lat="40.8726833" lon="9.1291817"><ele>532.0</ele><time>2026-05-01T11:32:38.677Z</time></trkpt><trkpt lat="40.8725317" lon="9.1291583"><ele>533.1666666666667</ele><time>2026-05-01T11:32:40.677Z</time></trkpt><trkpt lat="40.872425" lon="9.129125"><ele>534.3333333333334</ele><time>2026-05-01T11:32:42.677Z</time></trkpt><trkpt lat="40.8723483" lon="9.1290883"><ele>535.5</ele><time>2026-05-01T11:32:43.677Z</time></trkpt><trkpt lat="40.8722783" lon="9.129055"><ele>536.6666666666666</ele><time>2026-05-01T11:32:44.677Z</time></trkpt><trkpt lat="40.8722283" lon="9.1289683"><ele>537.8333333333333</ele><time>2026-05-01T11:32:45.677Z</time></trkpt><trkpt lat="40.872165" lon="9.12889"><ele>539.0</ele><time>2026-05-01T11:32:46.677Z</time></trkpt><trkpt lat="40.8721117" lon="9.1288033"><ele>541.3333333333333</ele><time>2026-05-01T11:32:47.677Z</time></trkpt><trkpt lat="40.8720633" lon="9.1287233"><ele>543.6666666666666</ele><time>2026-05-01T11:32:48.677Z</time></trkpt><trkpt lat="40.872005" lon="9.1286483"><ele>546.0</ele><time>2026-05-01T11:32:49.677Z</time></trkpt><trkpt lat="40.8719283" lon="9.1285583"><ele>548.3333333333334</ele><time>2026-05-01T11:32:50.677Z</time></trkpt><trkpt lat="40.8718683" lon="9.12849"><ele>550.6666666666667</ele><time>2026-05-01T11:32:51.677Z</time></trkpt><trkpt lat="40.8718133" lon="9.128435"><ele>553.0</ele><time>2026-05-01T11:32:52.677Z</time></trkpt><trkpt lat="40.8717533" lon="9.128375"><ele>553.0</ele><time>2026-05-01T11:32:53.677Z</time></trkpt><trkpt lat="40.871685" lon="9.1283167"><ele>553.0</ele><time>2026-05-01T11:32:54.677Z</time></trkpt><trkpt lat="40.8716217" lon="9.128275"><ele>553.0</ele><time>2026-05-01T11:32:55.678Z</time></trkpt><trkpt lat="40.8715467" lon="9.1282633"><ele>553.0</ele><time>2026-05-01T11:32:56.677Z</time></trkpt><trkpt lat="40.8714767" lon="9.1282367"><ele>553.0</ele><time>2026-05-01T11:32:57.677Z</time></trkpt><trkpt lat="40.8714133" lon="9.1282017"><ele>553.0</ele><time>2026-05-01T11:32:58.677Z</time></trkpt><trkpt lat="40.871345" lon="9.1282317"><ele>553.0</ele><time>2026-05-01T11:32:59.677Z</time></trkpt><trkpt lat="40.8712817" lon="9.12825"><ele>553.0</ele><time>2026-05-01T11:33:00.677Z</time></trkpt><trkpt lat="40.871205" lon="9.1282833"><ele>553.0</ele><time>2026-05-01T11:33:01.677Z</time></trkpt><trkpt lat="40.871115" lon="9.1283"><ele>553.0</ele><time>2026-05-01T11:33:02.677Z</time></trkpt><trkpt lat="40.871025" lon="9.1283083"><ele>553.0</ele><time>2026-05-01T11:33:03.677Z</time></trkpt><trkpt lat="40.870935" lon="9.1283083"><ele>553.0</ele><time>2026-05-01T11:33:04.677Z</time></trkpt><trkpt lat="40.8708467" lon="9.1282883"><ele>553.0</ele><time>2026-05-01T11:33:05.677Z</time></trkpt><trkpt lat="40.8707567" lon="9.1282833"><ele>554.0</ele><time>2026-05-01T11:33:06.677Z</time></trkpt><trkpt lat="40.870675" lon="9.1282833"><ele>555.0</ele><time>2026-05-01T11:33:07.677Z</time></trkpt><trkpt lat="40.870605" lon="9.1283"><ele>556.0</ele><time>2026-05-01T11:33:08.677Z</time></trkpt><trkpt lat="40.8705467" lon="9.1283317"><ele>557.0</ele><time>2026-05-01T11:33:09.677Z</time></trkpt><trkpt lat="40.8704767" lon="9.1283833"><ele>558.0</ele><time>2026-05-01T11:33:10.677Z</time></trkpt><trkpt lat="40.8703633" lon="9.1284283"><ele>559.0</ele><time>2026-05-01T11:33:12.677Z</time></trkpt><trkpt lat="40.8702917" lon="9.1284433"><ele>559.0</ele><time>2026-05-01T11:33:13.677Z</time></trkpt><trkpt lat="40.87022" lon="9.1284533"><ele>559.0</ele><time>2026-05-01T11:33:14.677Z</time></trkpt><trkpt lat="40.870155" lon="9.1284617"><ele>559.0</ele><time>2026-05-01T11:33:15.677Z</time></trkpt><trkpt lat="40.8700483" lon="9.128505"><ele>559.0</ele><time>2026-05-01T11:33:17.677Z</time></trkpt><trkpt lat="40.8699833" lon="9.128525"><ele>559.0</ele><time>2026-05-01T11:33:20.677Z</time></trkpt><trkpt lat="40.8699117" lon="9.128545"><ele>559.0</ele><time>2026-05-01T11:33:37.677Z</time></trkpt><trkpt lat="40.8698483" lon="9.1285033"><ele>559.7142857142858</ele><time>2026-05-01T11:33:41.677Z</time></trkpt><trkpt lat="40.8697833" lon="9.1284467"><ele>560.4285714285714</ele><time>2026-05-01T11:33:45.677Z</time></trkpt><trkpt lat="40.8697233" lon="9.1284083"><ele>561.1428571428571</ele><time>2026-05-01T11:33:48.677Z</time></trkpt><trkpt lat="40.86964" lon="9.1283633"><ele>561.8571428571429</ele><time>2026-05-01T11:33:50.677Z</time></trkpt><trkpt lat="40.8695767" lon="9.1283283"><ele>562.5714285714286</ele><time>2026-05-01T11:33:51.677Z</time></trkpt><trkpt lat="40.86951" lon="9.1283017"><ele>563.2857142857143</ele><time>2026-05-01T11:33:52.677Z</time></trkpt><trkpt lat="40.8694367" lon="9.1282733"><ele>564.0</ele><time>2026-05-01T11:33:53.677Z</time></trkpt><trkpt lat="40.8693717" lon="9.1282817"><ele>564.0</ele><time>2026-05-01T11:33:54.677Z</time></trkpt><trkpt lat="40.8693017" lon="9.1283033"><ele>564.0</ele><time>2026-05-01T11:33:55.677Z</time></trkpt><trkpt lat="40.8692267" lon="9.1283283"><ele>564.0</ele><time>2026-05-01T11:33:56.677Z</time></trkpt><trkpt lat="40.86915" lon="9.1283483"><ele>564.0</ele><time>2026-05-01T11:33:57.677Z</time></trkpt><trkpt lat="40.8690683" lon="9.128365"><ele>564.0</ele><time>2026-05-01T11:33:58.677Z</time></trkpt><trkpt lat="40.8689833" lon="9.1283933"><ele>564.0</ele><time>2026-05-01T11:33:59.677Z</time></trkpt><trkpt lat="40.8689" lon="9.128415"><ele>564.8333333333334</ele><time>2026-05-01T11:34:00.677Z</time></trkpt><trkpt lat="40.8688283" lon="9.12844"><ele>565.6666666666666</ele><time>2026-05-01T11:34:01.677Z</time></trkpt><trkpt lat="40.8687567" lon="9.128465"><ele>566.5</ele><time>2026-05-01T11:34:02.677Z</time></trkpt><trkpt lat="40.868685" lon="9.1284733"><ele>567.3333333333333</ele><time>2026-05-01T11:34:03.677Z</time></trkpt><trkpt lat="40.8685883" lon="9.1284667"><ele>568.1666666666666</ele><time>2026-05-01T11:34:05.677Z</time></trkpt><trkpt lat="40.8685217" lon="9.1284417"><ele>569.0</ele><time>2026-05-01T11:34:07.677Z</time></trkpt><trkpt lat="40.8684433" lon="9.1283833"><ele>569.2</ele><time>2026-05-01T11:34:09.677Z</time></trkpt><trkpt lat="40.8683533" lon="9.128335"><ele>569.4</ele><time>2026-05-01T11:34:11.677Z</time></trkpt><trkpt lat="40.8682483" lon="9.1283017"><ele>569.6</ele><time>2026-05-01T11:34:13.677Z</time></trkpt><trkpt lat="40.8681317" lon="9.1282867"><ele>569.8</ele><time>2026-05-01T11:34:15.677Z</time></trkpt><trkpt lat="40.8680167" lon="9.1282717"><ele>570.0</ele><time>2026-05-01T11:34:17.677Z</time></trkpt><trkpt lat="40.8679033" lon="9.1283167"><ele>570.0</ele><time>2026-05-01T11:34:51.677Z</time></trkpt><trkpt lat="40.8678383" lon="9.1282917"><ele>570.0</ele><time>2026-05-01T11:34:53.677Z</time></trkpt><trkpt lat="40.867765" lon="9.1282783"><ele>570.0</ele><time>2026-05-01T11:40:17.677Z</time></trkpt><trkpt lat="40.8676733" lon="9.1282967"><ele>570.0</ele><time>2026-05-01T11:40:19.677Z</time></trkpt><trkpt lat="40.8675317" lon="9.12833"><ele>570.0</ele><time>2026-05-01T11:40:21.677Z</time></trkpt><trkpt lat="40.8674233" lon="9.1283367"><ele>570.4</ele><time>2026-05-01T11:40:22.677Z</time></trkpt><trkpt lat="40.8673183" lon="9.1283383"><ele>570.8</ele><time>2026-05-01T11:40:23.677Z</time></trkpt><trkpt lat="40.8671983" lon="9.1283417"><ele>571.2</ele><time>2026-05-01T11:40:24.677Z</time></trkpt><trkpt lat="40.8671217" lon="9.1283633"><ele>571.6</ele><time>2026-05-01T11:40:25.677Z</time></trkpt><trkpt lat="40.8670317" lon="9.128365"><ele>572.0</ele><time>2026-05-01T11:40:26.677Z</time></trkpt><trkpt lat="40.8669367" lon="9.1283667"><ele>572.0</ele><time>2026-05-01T11:40:27.677Z</time></trkpt><trkpt lat="40.8668517" lon="9.128355"><ele>572.0</ele><time>2026-05-01T11:40:28.677Z</time></trkpt><trkpt lat="40.8667667" lon="9.1283417"><ele>572.0</ele><time>2026-05-01T11:40:29.677Z</time></trkpt><trkpt lat="40.8666783" lon="9.12832"><ele>572.0</ele><time>2026-05-01T11:40:30.677Z</time></trkpt><trkpt lat="40.8665983" lon="9.1282917"><ele>572.0</ele><time>2026-05-01T11:40:31.678Z</time></trkpt><trkpt lat="40.866515" lon="9.1282567"><ele>572.0</ele><time>2026-05-01T11:40:32.677Z</time></trkpt><trkpt lat="40.8664417" lon="9.128225"><ele>574.5714285714286</ele><time>2026-05-01T11:40:33.677Z</time></trkpt><trkpt lat="40.8663733" lon="9.1281883"><ele>577.1428571428571</ele><time>2026-05-01T11:40:34.677Z</time></trkpt><trkpt lat="40.866305" lon="9.1281567"><ele>579.7142857142858</ele><time>2026-05-01T11:40:35.677Z</time></trkpt><trkpt lat="40.866235" lon="9.1281183"><ele>582.2857142857142</ele><time>2026-05-01T11:40:36.677Z</time></trkpt><trkpt lat="40.8661733" lon="9.12809"><ele>584.8571428571429</ele><time>2026-05-01T11:40:37.677Z</time></trkpt><trkpt lat="40.86611" lon="9.1280667"><ele>587.4285714285714</ele><time>2026-05-01T11:40:38.677Z</time></trkpt><trkpt lat="40.8660467" lon="9.1280667"><ele>590.0</ele><time>2026-05-01T11:40:39.677Z</time></trkpt><trkpt lat="40.86594" lon="9.1280633"><ele>590.0</ele><time>2026-05-01T11:40:41.678Z</time></trkpt><trkpt lat="40.86583" lon="9.128085"><ele>590.0</ele><time>2026-05-01T11:40:43.677Z</time></trkpt><trkpt lat="40.8657083" lon="9.1280683"><ele>590.0</ele><time>2026-05-01T11:40:45.677Z</time></trkpt><trkpt lat="40.865635" lon="9.1280567"><ele>590.0</ele><time>2026-05-01T11:40:46.677Z</time></trkpt><trkpt lat="40.8655717" lon="9.1280483"><ele>590.0</ele><time>2026-05-01T11:40:47.677Z</time></trkpt><trkpt lat="40.8654967" lon="9.12801"><ele>590.0000000000001</ele><time>2026-05-01T11:40:48.677Z</time></trkpt><trkpt lat="40.8654233" lon="9.1279767"><ele>590.0</ele><time>2026-05-01T11:40:49.677Z</time></trkpt><trkpt lat="40.8653467" lon="9.127945"><ele>590.0</ele><time>2026-05-01T11:40:50.677Z</time></trkpt><trkpt lat="40.8652817" lon="9.1279183"><ele>590.0</ele><time>2026-05-01T11:40:51.677Z</time></trkpt><trkpt lat="40.8652167" lon="9.1278917"><ele>590.0</ele><time>2026-05-01T11:40:52.677Z</time></trkpt><trkpt lat="40.8651517" lon="9.1278467"><ele>590.0000000000001</ele><time>2026-05-01T11:40:53.677Z</time></trkpt><trkpt lat="40.8650933" lon="9.1277917"><ele>590.0</ele><time>2026-05-01T11:40:54.677Z</time></trkpt><trkpt lat="40.865045" lon="9.1277367"><ele>589.3333333333333</ele><time>2026-05-01T11:40:55.678Z</time></trkpt><trkpt lat="40.8649983" lon="9.1276517"><ele>588.6666666666666</ele><time>2026-05-01T11:40:57.677Z</time></trkpt><trkpt lat="40.864915" lon="9.127645"><ele>588.0</ele><time>2026-05-01T11:41:44.677Z</time></trkpt><trkpt lat="40.8648767" lon="9.12755"><ele>587.3333333333334</ele><time>2026-05-01T11:41:46.677Z</time></trkpt><trkpt lat="40.86485" lon="9.12743"><ele>586.6666666666667</ele><time>2026-05-01T11:41:48.677Z</time></trkpt><trkpt lat="40.8648333" lon="9.127345"><ele>586.0</ele><time>2026-05-01T11:41:49.677Z</time></trkpt><trkpt lat="40.8647933" lon="9.1271933"><ele>586.0</ele><time>2026-05-01T11:41:51.677Z</time></trkpt><trkpt lat="40.8647783" lon="9.1271067"><ele>586.0</ele><time>2026-05-01T11:41:52.677Z</time></trkpt><trkpt lat="40.8647433" lon="9.1269517"><ele>586.0</ele><time>2026-05-01T11:41:54.677Z</time></trkpt><trkpt lat="40.864725" lon="9.12687"><ele>586.0</ele><time>2026-05-01T11:41:55.677Z</time></trkpt><trkpt lat="40.86467" lon="9.1267717"><ele>586.0</ele><time>2026-05-01T11:41:56.677Z</time></trkpt><trkpt lat="40.86463" lon="9.126655"><ele>586.0</ele><time>2026-05-01T11:41:57.677Z</time></trkpt><trkpt lat="40.8645783" lon="9.126525"><ele>587.1666666666667</ele><time>2026-05-01T11:41:58.677Z</time></trkpt><trkpt lat="40.8645533" lon="9.126435"><ele>588.3333333333334</ele><time>2026-05-01T11:41:59.677Z</time></trkpt><trkpt lat="40.8645283" lon="9.12635"><ele>589.5</ele><time>2026-05-01T11:42:00.677Z</time></trkpt><trkpt lat="40.8645267" lon="9.1262533"><ele>590.6666666666666</ele><time>2026-05-01T11:42:01.677Z</time></trkpt><trkpt lat="40.8644967" lon="9.1261317"><ele>591.8333333333333</ele><time>2026-05-01T11:42:02.677Z</time></trkpt><trkpt lat="40.86447" lon="9.1260333"><ele>593.0</ele><time>2026-05-01T11:42:03.677Z</time></trkpt><trkpt lat="40.8644717" lon="9.1258933"><ele>595.0</ele><time>2026-05-01T11:42:04.677Z</time></trkpt><trkpt lat="40.86453" lon="9.1255667"><ele>597.0</ele><time>2026-05-01T11:42:05.677Z</time></trkpt><trkpt lat="40.8645267" lon="9.1253617"><ele>599.0</ele><time>2026-05-01T11:42:06.677Z</time></trkpt><trkpt lat="40.8645633" lon="9.1252467"><ele>599.0</ele><time>2026-05-01T11:42:07.677Z</time></trkpt><trkpt lat="40.864625" lon="9.1251517"><ele>599.0</ele><time>2026-05-01T11:42:09.677Z</time></trkpt><trkpt lat="40.8647083" lon="9.1251733"><ele>599.0</ele><time>2026-05-01T11:42:12.677Z</time></trkpt><trkpt lat="40.864675" lon="9.12527"><ele>599.0</ele><time>2026-05-01T11:42:29.677Z</time></trkpt><trkpt lat="40.86469" lon="9.125385"><ele>599.0</ele><time>2026-05-01T11:42:31.677Z</time></trkpt><trkpt lat="40.864715" lon="9.1254817"><ele>599.0</ele><time>2026-05-01T11:42:33.677Z</time></trkpt><trkpt lat="40.86476" lon="9.125595"><ele>599.0</ele><time>2026-05-01T11:42:35.677Z</time></trkpt><trkpt lat="40.8648117" lon="9.1257167"><ele>599.0</ele><time>2026-05-01T11:42:37.677Z</time></trkpt><trkpt lat="40.8648367" lon="9.1258"><ele>599.0</ele><time>2026-05-01T11:42:38.677Z</time></trkpt><trkpt lat="40.8648717" lon="9.1258767"><ele>599.0</ele><time>2026-05-01T11:42:39.678Z</time></trkpt><trkpt lat="40.8649133" lon="9.12594"><ele>599.0</ele><time>2026-05-01T11:42:40.677Z</time></trkpt><trkpt lat="40.8649483" lon="9.12601"><ele>599.0</ele><time>2026-05-01T11:42:41.677Z</time></trkpt><trkpt lat="40.8649917" lon="9.1260967"><ele>599.0</ele><time>2026-05-01T11:42:42.677Z</time></trkpt><trkpt lat="40.865035" lon="9.1261717"><ele>598.0</ele><time>2026-05-01T11:42:43.677Z</time></trkpt><trkpt lat="40.8650783" lon="9.12625"><ele>597.0</ele><time>2026-05-01T11:42:44.677Z</time></trkpt><trkpt lat="40.8651017" lon="9.1263417"><ele>596.0</ele><time>2026-05-01T11:42:45.677Z</time></trkpt><trkpt lat="40.86512" lon="9.12644"><ele>595.0</ele><time>2026-05-01T11:42:46.677Z</time></trkpt><trkpt lat="40.8651117" lon="9.126535"><ele>594.0</ele><time>2026-05-01T11:42:47.677Z</time></trkpt><trkpt lat="40.865105" lon="9.1266317"><ele>593.0</ele><time>2026-05-01T11:42:48.677Z</time></trkpt><trkpt lat="40.865105" lon="9.1267417"><ele>591.8333333333333</ele><time>2026-05-01T11:42:49.677Z</time></trkpt><trkpt lat="40.865105" lon="9.126855"><ele>590.6666666666666</ele><time>2026-05-01T11:42:50.677Z</time></trkpt><trkpt lat="40.86508" lon="9.1269483"><ele>589.5</ele><time>2026-05-01T11:42:51.677Z</time></trkpt><trkpt lat="40.865075" lon="9.1270633"><ele>588.3333333333334</ele><time>2026-05-01T11:42:52.677Z</time></trkpt><trkpt lat="40.8650783" lon="9.12717"><ele>587.1666666666667</ele><time>2026-05-01T11:42:53.677Z</time></trkpt><trkpt lat="40.8650233" lon="9.1272733"><ele>586.0</ele><time>2026-05-01T11:42:54.677Z</time></trkpt><trkpt lat="40.8649983" lon="9.1274533"><ele>584.5</ele><time>2026-05-01T11:42:56.677Z</time></trkpt><trkpt lat="40.86499" lon="9.1275417"><ele>583.0</ele><time>2026-05-01T11:42:57.677Z</time></trkpt><trkpt lat="40.8649717" lon="9.127635"><ele>581.5</ele><time>2026-05-01T11:42:58.677Z</time></trkpt><trkpt lat="40.864975" lon="9.1277833"><ele>580.0</ele><time>2026-05-01T11:43:00.677Z</time></trkpt><trkpt lat="40.864975" lon="9.1278717"><ele>578.5</ele><time>2026-05-01T11:43:02.677Z</time></trkpt><trkpt lat="40.8649033" lon="9.127965"><ele>577.0</ele><time>2026-05-01T11:43:06.677Z</time></trkpt><trkpt lat="40.864815" lon="9.12787"><ele>577.0</ele><time>2026-05-01T11:43:24.676Z</time></trkpt><trkpt lat="40.8647717" lon="9.1277333"><ele>577.0</ele><time>2026-05-01T11:43:26.676Z</time></trkpt><trkpt lat="40.864715" lon="9.1275667"><ele>577.0</ele><time>2026-05-01T11:43:28.676Z</time></trkpt><trkpt lat="40.8646917" lon="9.1274617"><ele>577.0</ele><time>2026-05-01T11:43:29.676Z</time></trkpt><trkpt lat="40.86464" lon="9.1273733"><ele>577.0</ele><time>2026-05-01T11:43:30.676Z</time></trkpt><trkpt lat="40.8645767" lon="9.12729"><ele>578.5</ele><time>2026-05-01T11:43:31.676Z</time></trkpt><trkpt lat="40.864515" lon="9.1271883"><ele>580.0</ele><time>2026-05-01T11:43:32.676Z</time></trkpt><trkpt lat="40.8644617" lon="9.1271017"><ele>581.5</ele><time>2026-05-01T11:43:33.676Z</time></trkpt><trkpt lat="40.8644" lon="9.12702"><ele>583.0</ele><time>2026-05-01T11:43:34.676Z</time></trkpt><trkpt lat="40.86435" lon="9.1269417"><ele>584.5</ele><time>2026-05-01T11:43:35.676Z</time></trkpt><trkpt lat="40.8643133" lon="9.1268733"><ele>586.0</ele><time>2026-05-01T11:43:36.676Z</time></trkpt><trkpt lat="40.86427" lon="9.1268"><ele>581.2</ele><time>2026-05-01T11:43:37.676Z</time></trkpt><trkpt lat="40.864215" lon="9.126655"><ele>576.4000000000001</ele><time>2026-05-01T11:43:39.676Z</time></trkpt><trkpt lat="40.864135" lon="9.1265233"><ele>571.6</ele><time>2026-05-01T11:43:41.676Z</time></trkpt><trkpt lat="40.8640883" lon="9.126465"><ele>566.8000000000001</ele><time>2026-05-01T11:43:42.676Z</time></trkpt><trkpt lat="40.8640183" lon="9.1263717"><ele>562.0</ele><time>2026-05-01T11:43:44.676Z</time></trkpt><trkpt lat="40.8639367" lon="9.126325"><ele>562.0</ele><time>2026-05-01T11:43:46.676Z</time></trkpt><trkpt lat="40.8638717" lon="9.126295"><ele>562.0</ele><time>2026-05-01T11:43:48.676Z</time></trkpt><trkpt lat="40.8638" lon="9.1262367"><ele>562.0</ele><time>2026-05-01T11:43:50.676Z</time></trkpt><trkpt lat="40.8637367" lon="9.1261667"><ele>562.0</ele><time>2026-05-01T11:43:52.676Z</time></trkpt><trkpt lat="40.8636833" lon="9.1261"><ele>562.0</ele><time>2026-05-01T11:43:54.676Z</time></trkpt><trkpt lat="40.8636" lon="9.1260217"><ele>562.0</ele><time>2026-05-01T11:43:56.676Z</time></trkpt><trkpt lat="40.86351" lon="9.12593"><ele>559.1666666666667</ele><time>2026-05-01T11:43:58.676Z</time></trkpt><trkpt lat="40.863445" lon="9.12588"><ele>556.3333333333334</ele><time>2026-05-01T11:43:59.676Z</time></trkpt><trkpt lat="40.8633917" lon="9.125835"><ele>553.5</ele><time>2026-05-01T11:44:00.676Z</time></trkpt><trkpt lat="40.8633467" lon="9.1257583"><ele>550.6666666666666</ele><time>2026-05-01T11:44:01.676Z</time></trkpt><trkpt lat="40.8633317" lon="9.1256517"><ele>547.8333333333333</ele><time>2026-05-01T11:44:03.676Z</time></trkpt><trkpt lat="40.8633817" lon="9.1255483"><ele>545.0</ele><time>2026-05-01T11:44:08.676Z</time></trkpt><trkpt lat="40.8633867" lon="9.125445"><ele>544.3333333333333</ele><time>2026-05-01T11:44:10.676Z</time></trkpt><trkpt lat="40.8633533" lon="9.1253267"><ele>543.6666666666666</ele><time>2026-05-01T11:44:12.676Z</time></trkpt><trkpt lat="40.86331" lon="9.1252633"><ele>543.0</ele><time>2026-05-01T11:44:13.676Z</time></trkpt><trkpt lat="40.8632433" lon="9.1252083"><ele>542.3333333333334</ele><time>2026-05-01T11:44:14.676Z</time></trkpt><trkpt lat="40.8631817" lon="9.1251467"><ele>541.6666666666667</ele><time>2026-05-01T11:44:15.676Z</time></trkpt><trkpt lat="40.8631133" lon="9.1250933"><ele>541.0</ele><time>2026-05-01T11:44:16.676Z</time></trkpt><trkpt lat="40.86306" lon="9.1250183"><ele>541.0</ele><time>2026-05-01T11:44:17.676Z</time></trkpt><trkpt lat="40.86301" lon="9.12494"><ele>541.0</ele><time>2026-05-01T11:44:18.676Z</time></trkpt><trkpt lat="40.8629533" lon="9.1248583"><ele>541.0</ele><time>2026-05-01T11:44:19.676Z</time></trkpt><trkpt lat="40.8629033" lon="9.1247683"><ele>541.0</ele><time>2026-05-01T11:44:20.676Z</time></trkpt><trkpt lat="40.8628617" lon="9.124685"><ele>541.0</ele><time>2026-05-01T11:44:21.676Z</time></trkpt><trkpt lat="40.8628167" lon="9.1246017"><ele>541.0</ele><time>2026-05-01T11:44:22.676Z</time></trkpt><trkpt lat="40.862775" lon="9.12451"><ele>540.8333333333334</ele><time>2026-05-01T11:44:23.676Z</time></trkpt><trkpt lat="40.8627317" lon="9.1244233"><ele>540.6666666666667</ele><time>2026-05-01T11:44:24.676Z</time></trkpt><trkpt lat="40.862685" lon="9.1243333"><ele>540.5</ele><time>2026-05-01T11:44:25.676Z</time></trkpt><trkpt lat="40.862635" lon="9.1242483"><ele>540.3333333333334</ele><time>2026-05-01T11:44:26.676Z</time></trkpt><trkpt lat="40.8625733" lon="9.1241867"><ele>540.1666666666666</ele><time>2026-05-01T11:44:27.676Z</time></trkpt><trkpt lat="40.8625217" lon="9.124125"><ele>540.0</ele><time>2026-05-01T11:44:28.676Z</time></trkpt><trkpt lat="40.8624783" lon="9.1240583"><ele>540.0</ele><time>2026-05-01T11:44:29.676Z</time></trkpt><trkpt lat="40.86243" lon="9.1240017"><ele>540.0</ele><time>2026-05-01T11:44:30.676Z</time></trkpt><trkpt lat="40.862345" lon="9.1239083"><ele>540.0</ele><time>2026-05-01T11:44:32.676Z</time></trkpt><trkpt lat="40.8622783" lon="9.1238417"><ele>540.0</ele><time>2026-05-01T11:44:34.676Z</time></trkpt><trkpt lat="40.8621967" lon="9.1238033"><ele>540.0</ele><time>2026-05-01T11:44:36.676Z</time></trkpt><trkpt lat="40.862095" lon="9.123805"><ele>540.0</ele><time>2026-05-01T11:44:38.676Z</time></trkpt><trkpt lat="40.8619983" lon="9.123735"><ele>540.0</ele><time>2026-05-01T11:44:40.676Z</time></trkpt><trkpt lat="40.8619417" lon="9.1236667"><ele>540.0</ele><time>2026-05-01T11:44:41.676Z</time></trkpt><trkpt lat="40.8618967" lon="9.123595"><ele>540.0</ele><time>2026-05-01T11:44:42.677Z</time></trkpt><trkpt lat="40.8618617" lon="9.1235167"><ele>540.0</ele><time>2026-05-01T11:44:43.676Z</time></trkpt><trkpt lat="40.8618183" lon="9.1234283"><ele>540.0</ele><time>2026-05-01T11:44:44.676Z</time></trkpt><trkpt lat="40.8617883" lon="9.1233333"><ele>540.0</ele><time>2026-05-01T11:44:45.676Z</time></trkpt><trkpt lat="40.8617417" lon="9.12323"><ele>536.3333333333334</ele><time>2026-05-01T11:44:46.676Z</time></trkpt><trkpt lat="40.8617017" lon="9.1231333"><ele>532.6666666666666</ele><time>2026-05-01T11:44:47.676Z</time></trkpt><trkpt lat="40.8616433" lon="9.12304"><ele>529.0</ele><time>2026-05-01T11:44:48.676Z</time></trkpt><trkpt lat="40.8615767" lon="9.1229483"><ele>525.3333333333333</ele><time>2026-05-01T11:44:49.676Z</time></trkpt><trkpt lat="40.861515" lon="9.1228683"><ele>521.6666666666666</ele><time>2026-05-01T11:44:50.676Z</time></trkpt><trkpt lat="40.86148" lon="9.1227833"><ele>518.0</ele><time>2026-05-01T11:44:51.676Z</time></trkpt><trkpt lat="40.8614333" lon="9.1227067"><ele>518.0</ele><time>2026-05-01T11:44:52.676Z</time></trkpt><trkpt lat="40.8613667" lon="9.1226517"><ele>518.0</ele><time>2026-05-01T11:44:53.676Z</time></trkpt><trkpt lat="40.8613183" lon="9.1225817"><ele>518.0</ele><time>2026-05-01T11:44:54.676Z</time></trkpt><trkpt lat="40.8612733" lon="9.1225067"><ele>518.0</ele><time>2026-05-01T11:44:55.676Z</time></trkpt><trkpt lat="40.8612317" lon="9.12242"><ele>518.0</ele><time>2026-05-01T11:44:56.676Z</time></trkpt><trkpt lat="40.8611983" lon="9.122315"><ele>518.0</ele><time>2026-05-01T11:44:57.676Z</time></trkpt><trkpt lat="40.8611717" lon="9.1222167"><ele>516.8</ele><time>2026-05-01T11:44:58.676Z</time></trkpt><trkpt lat="40.8611467" lon="9.122105"><ele>515.5999999999999</ele><time>2026-05-01T11:44:59.676Z</time></trkpt><trkpt lat="40.8611217" lon="9.1219883"><ele>514.4000000000001</ele><time>2026-05-01T11:45:00.676Z</time></trkpt><trkpt lat="40.8610933" lon="9.1218633"><ele>513.2</ele><time>2026-05-01T11:45:01.676Z</time></trkpt><trkpt lat="40.8610533" lon="9.121735"><ele>512.0</ele><time>2026-05-01T11:45:02.676Z</time></trkpt><trkpt lat="40.861025" lon="9.1216183"><ele>512.3333333333333</ele><time>2026-05-01T11:45:03.676Z</time></trkpt><trkpt lat="40.8609933" lon="9.1215067"><ele>512.6666666666666</ele><time>2026-05-01T11:45:04.676Z</time></trkpt><trkpt lat="40.8609567" lon="9.1213883"><ele>513.0</ele><time>2026-05-01T11:45:05.676Z</time></trkpt><trkpt lat="40.860925" lon="9.1212767"><ele>513.3333333333334</ele><time>2026-05-01T11:45:06.676Z</time></trkpt><trkpt lat="40.8609" lon="9.1211783"><ele>513.6666666666667</ele><time>2026-05-01T11:45:07.676Z</time></trkpt><trkpt lat="40.8608683" lon="9.1210817"><ele>514.0</ele><time>2026-05-01T11:45:08.676Z</time></trkpt><trkpt lat="40.8608117" lon="9.1209683"><ele>513.2</ele><time>2026-05-01T11:45:09.676Z</time></trkpt><trkpt lat="40.8607667" lon="9.120845"><ele>512.4</ele><time>2026-05-01T11:45:10.676Z</time></trkpt><trkpt lat="40.8607017" lon="9.1207083"><ele>511.6</ele><time>2026-05-01T11:45:11.676Z</time></trkpt><trkpt lat="40.86066" lon="9.1205933"><ele>510.8</ele><time>2026-05-01T11:45:12.676Z</time></trkpt><trkpt lat="40.8606283" lon="9.1204833"><ele>510.0</ele><time>2026-05-01T11:45:13.677Z</time></trkpt><trkpt lat="40.860575" lon="9.1203667"><ele>509.0</ele><time>2026-05-01T11:45:14.676Z</time></trkpt><trkpt lat="40.8605067" lon="9.12025"><ele>508.0</ele><time>2026-05-01T11:45:15.676Z</time></trkpt><trkpt lat="40.8604567" lon="9.120155"><ele>507.0</ele><time>2026-05-01T11:45:16.676Z</time></trkpt><trkpt lat="40.860385" lon="9.120025"><ele>506.0</ele><time>2026-05-01T11:45:17.676Z</time></trkpt><trkpt lat="40.860355" lon="9.1198983"><ele>505.0</ele><time>2026-05-01T11:45:18.676Z</time></trkpt><trkpt lat="40.86035" lon="9.119785"><ele>504.6</ele><time>2026-05-01T11:45:19.677Z</time></trkpt><trkpt lat="40.8603133" lon="9.11967"><ele>504.2</ele><time>2026-05-01T11:45:20.676Z</time></trkpt><trkpt lat="40.8602617" lon="9.1195533"><ele>503.79999999999995</ele><time>2026-05-01T11:45:21.676Z</time></trkpt><trkpt lat="40.8602633" lon="9.1194467"><ele>503.4</ele><time>2026-05-01T11:45:22.676Z</time></trkpt><trkpt lat="40.860225" lon="9.1192933"><ele>503.0</ele><time>2026-05-01T11:45:23.676Z</time></trkpt><trkpt lat="40.8601233" lon="9.119105"><ele>502.79999999999995</ele><time>2026-05-01T11:45:24.676Z</time></trkpt><trkpt lat="40.8600533" lon="9.1189633"><ele>502.59999999999997</ele><time>2026-05-01T11:45:25.676Z</time></trkpt><trkpt lat="40.86" lon="9.1188267"><ele>502.40000000000003</ele><time>2026-05-01T11:45:26.676Z</time></trkpt><trkpt lat="40.8599517" lon="9.118705"><ele>502.20000000000005</ele><time>2026-05-01T11:45:27.676Z</time></trkpt><trkpt lat="40.85993" lon="9.1186"><ele>502.0</ele><time>2026-05-01T11:45:28.676Z</time></trkpt><trkpt lat="40.8598667" lon="9.1184567"><ele>502.0</ele><time>2026-05-01T11:45:29.676Z</time></trkpt><trkpt lat="40.8598967" lon="9.1183467"><ele>502.00000000000006</ele><time>2026-05-01T11:45:30.676Z</time></trkpt><trkpt lat="40.86002" lon="9.1182883"><ele>502.00000000000006</ele><time>2026-05-01T11:45:31.676Z</time></trkpt><trkpt lat="40.8600383" lon="9.11816"><ele>502.0</ele><time>2026-05-01T11:45:33.676Z</time></trkpt><trkpt lat="40.8600717" lon="9.1180583"><ele>502.0</ele><time>2026-05-01T11:45:35.676Z</time></trkpt><trkpt lat="40.860105" lon="9.1179833"><ele>503.1666666666667</ele><time>2026-05-01T11:45:36.676Z</time></trkpt><trkpt lat="40.8601383" lon="9.1178267"><ele>504.33333333333337</ele><time>2026-05-01T11:45:38.676Z</time></trkpt><trkpt lat="40.8601317" lon="9.117735"><ele>505.5</ele><time>2026-05-01T11:45:39.676Z</time></trkpt><trkpt lat="40.8601217" lon="9.1176467"><ele>506.66666666666663</ele><time>2026-05-01T11:45:40.676Z</time></trkpt><trkpt lat="40.86012" lon="9.1175467"><ele>507.8333333333333</ele><time>2026-05-01T11:45:41.676Z</time></trkpt><trkpt lat="40.8601183" lon="9.1174317"><ele>509.0</ele><time>2026-05-01T11:45:42.676Z</time></trkpt><trkpt lat="40.860125" lon="9.1173267"><ele>509.66666666666663</ele><time>2026-05-01T11:45:43.676Z</time></trkpt><trkpt lat="40.860135" lon="9.117225"><ele>510.3333333333333</ele><time>2026-05-01T11:45:44.676Z</time></trkpt><trkpt lat="40.8601517" lon="9.1171367"><ele>511.0</ele><time>2026-05-01T11:45:45.676Z</time></trkpt><trkpt lat="40.8601633" lon="9.11704"><ele>511.66666666666663</ele><time>2026-05-01T11:45:46.676Z</time></trkpt><trkpt lat="40.8601667" lon="9.1169383"><ele>512.3333333333334</ele><time>2026-05-01T11:45:47.676Z</time></trkpt><trkpt lat="40.8601617" lon="9.11683"><ele>513.0</ele><time>2026-05-01T11:45:48.676Z</time></trkpt><trkpt lat="40.86016" lon="9.1167233"><ele>513.0</ele><time>2026-05-01T11:45:49.676Z</time></trkpt><trkpt lat="40.8601517" lon="9.1166267"><ele>513.0</ele><time>2026-05-01T11:45:50.676Z</time></trkpt><trkpt lat="40.8601333" lon="9.1165217"><ele>513.0</ele><time>2026-05-01T11:45:51.676Z</time></trkpt><trkpt lat="40.8601217" lon="9.116435"><ele>513.0</ele><time>2026-05-01T11:45:52.676Z</time></trkpt><trkpt lat="40.8601017" lon="9.116345"><ele>513.0</ele><time>2026-05-01T11:45:53.676Z</time></trkpt><trkpt lat="40.8600233" lon="9.1162433"><ele>513.0</ele><time>2026-05-01T11:45:55.676Z</time></trkpt><trkpt lat="40.8598983" lon="9.1161583"><ele>508.4</ele><time>2026-05-01T11:45:57.676Z</time></trkpt><trkpt lat="40.8597933" lon="9.1160417"><ele>503.79999999999995</ele><time>2026-05-01T11:45:59.676Z</time></trkpt><trkpt lat="40.8597183" lon="9.116015"><ele>499.2</ele><time>2026-05-01T11:46:00.676Z</time></trkpt><trkpt lat="40.8596367" lon="9.11601"><ele>494.6</ele><time>2026-05-01T11:46:01.676Z</time></trkpt><trkpt lat="40.85955" lon="9.1160033"><ele>490.0</ele><time>2026-05-01T11:46:02.676Z</time></trkpt><trkpt lat="40.859445" lon="9.116"><ele>490.0</ele><time>2026-05-01T11:46:03.676Z</time></trkpt><trkpt lat="40.859345" lon="9.1159933"><ele>490.0</ele><time>2026-05-01T11:46:04.676Z</time></trkpt><trkpt lat="40.8592417" lon="9.1159967"><ele>490.0</ele><time>2026-05-01T11:46:05.676Z</time></trkpt><trkpt lat="40.859145" lon="9.1160067"><ele>490.0</ele><time>2026-05-01T11:46:06.676Z</time></trkpt><trkpt lat="40.85905" lon="9.1160267"><ele>490.0</ele><time>2026-05-01T11:46:07.676Z</time></trkpt><trkpt lat="40.8589617" lon="9.11606"><ele>488.83333333333337</ele><time>2026-05-01T11:46:08.676Z</time></trkpt><trkpt lat="40.8588783" lon="9.1160783"><ele>487.6666666666667</ele><time>2026-05-01T11:46:09.676Z</time></trkpt><trkpt lat="40.8588067" lon="9.11608"><ele>486.5</ele><time>2026-05-01T11:46:10.676Z</time></trkpt><trkpt lat="40.8587267" lon="9.1160183"><ele>485.33333333333337</ele><time>2026-05-01T11:46:12.676Z</time></trkpt><trkpt lat="40.8586783" lon="9.1159383"><ele>484.1666666666667</ele><time>2026-05-01T11:46:14.676Z</time></trkpt><trkpt lat="40.8586617" lon="9.1158233"><ele>483.0</ele><time>2026-05-01T11:46:16.676Z</time></trkpt><trkpt lat="40.8586217" lon="9.1156783"><ele>483.0</ele><time>2026-05-01T11:46:18.676Z</time></trkpt><trkpt lat="40.8585867" lon="9.1155867"><ele>482.99999999999994</ele><time>2026-05-01T11:46:19.676Z</time></trkpt><trkpt lat="40.8585367" lon="9.1154833"><ele>482.99999999999994</ele><time>2026-05-01T11:46:20.676Z</time></trkpt><trkpt lat="40.85847" lon="9.1153767"><ele>483.0</ele><time>2026-05-01T11:46:21.676Z</time></trkpt><trkpt lat="40.8583983" lon="9.1152717"><ele>483.0</ele><time>2026-05-01T11:46:22.676Z</time></trkpt><trkpt lat="40.858315" lon="9.1151783"><ele>481.75</ele><time>2026-05-01T11:46:23.676Z</time></trkpt><trkpt lat="40.8582217" lon="9.115095"><ele>480.5</ele><time>2026-05-01T11:46:24.676Z</time></trkpt><trkpt lat="40.8581283" lon="9.11502"><ele>479.25</ele><time>2026-05-01T11:46:25.676Z</time></trkpt><trkpt lat="40.858035" lon="9.1149367"><ele>478.0</ele><time>2026-05-01T11:46:26.676Z</time></trkpt><trkpt lat="40.85794" lon="9.114845"><ele>477.75</ele><time>2026-05-01T11:46:27.676Z</time></trkpt><trkpt lat="40.8578517" lon="9.1147283"><ele>477.5</ele><time>2026-05-01T11:46:28.676Z</time></trkpt><trkpt lat="40.8577683" lon="9.1146067"><ele>477.25</ele><time>2026-05-01T11:46:29.676Z</time></trkpt><trkpt lat="40.8577" lon="9.1144617"><ele>477.0</ele><time>2026-05-01T11:46:30.677Z</time></trkpt><trkpt lat="40.8576317" lon="9.114325"><ele>476.20000000000005</ele><time>2026-05-01T11:46:31.676Z</time></trkpt><trkpt lat="40.85757" lon="9.1141967"><ele>475.40000000000003</ele><time>2026-05-01T11:46:32.676Z</time></trkpt><trkpt lat="40.8575117" lon="9.1140817"><ele>474.59999999999997</ele><time>2026-05-01T11:46:33.676Z</time></trkpt><trkpt lat="40.8574583" lon="9.11399"><ele>473.79999999999995</ele><time>2026-05-01T11:46:34.676Z</time></trkpt><trkpt lat="40.85739" lon="9.113925"><ele>473.0</ele><time>2026-05-01T11:46:35.676Z</time></trkpt><trkpt lat="40.85732" lon="9.1138633"><ele>472.49999999999994</ele><time>2026-05-01T11:46:36.676Z</time></trkpt><trkpt lat="40.8572567" lon="9.1137833"><ele>472.0</ele><time>2026-05-01T11:46:37.676Z</time></trkpt><trkpt lat="40.8572117" lon="9.1136883"><ele>471.5</ele><time>2026-05-01T11:46:38.676Z</time></trkpt><trkpt lat="40.8571683" lon="9.11359"><ele>471.0</ele><time>2026-05-01T11:46:39.676Z</time></trkpt><trkpt lat="40.8571133" lon="9.1134967"><ele>470.49999999999994</ele><time>2026-05-01T11:46:40.676Z</time></trkpt><trkpt lat="40.8570517" lon="9.113415"><ele>470.0</ele><time>2026-05-01T11:46:41.676Z</time></trkpt><trkpt lat="40.85699" lon="9.1133267"><ele>469.4</ele><time>2026-05-01T11:46:42.676Z</time></trkpt><trkpt lat="40.85692" lon="9.1132333"><ele>468.8</ele><time>2026-05-01T11:46:43.676Z</time></trkpt><trkpt lat="40.8568433" lon="9.1131517"><ele>468.20000000000005</ele><time>2026-05-01T11:46:44.676Z</time></trkpt><trkpt lat="40.8567633" lon="9.1131017"><ele>467.6</ele><time>2026-05-01T11:46:45.676Z</time></trkpt><trkpt lat="40.8566833" lon="9.11304"><ele>467.0</ele><time>2026-05-01T11:46:46.676Z</time></trkpt><trkpt lat="40.8566017" lon="9.1129867"><ele>467.0</ele><time>2026-05-01T11:46:47.676Z</time></trkpt><trkpt lat="40.8565217" lon="9.112925"><ele>467.0</ele><time>2026-05-01T11:46:48.676Z</time></trkpt><trkpt lat="40.8564317" lon="9.1128517"><ele>467.0</ele><time>2026-05-01T11:46:49.676Z</time></trkpt><trkpt lat="40.85632" lon="9.112765"><ele>467.0</ele><time>2026-05-01T11:46:50.676Z</time></trkpt><trkpt lat="40.8562083" lon="9.1126833"><ele>467.0</ele><time>2026-05-01T11:46:51.676Z</time></trkpt><trkpt lat="40.8561" lon="9.1126317"><ele>467.00000000000006</ele><time>2026-05-01T11:46:52.676Z</time></trkpt><trkpt lat="40.856" lon="9.112575"><ele>467.00000000000006</ele><time>2026-05-01T11:46:53.676Z</time></trkpt><trkpt lat="40.8558967" lon="9.1125267"><ele>467.0</ele><time>2026-05-01T11:46:54.676Z</time></trkpt><trkpt lat="40.8557967" lon="9.1124767"><ele>467.0</ele><time>2026-05-01T11:46:55.676Z</time></trkpt><trkpt lat="40.8556533" lon="9.1124017"><ele>467.25</ele><time>2026-05-01T11:46:56.676Z</time></trkpt><trkpt lat="40.855545" lon="9.11233"><ele>467.5</ele><time>2026-05-01T11:46:57.676Z</time></trkpt><trkpt lat="40.8554383" lon="9.1122567"><ele>467.75</ele><time>2026-05-01T11:46:58.676Z</time></trkpt><trkpt lat="40.8553217" lon="9.112185"><ele>468.0</ele><time>2026-05-01T11:46:59.677Z</time></trkpt><trkpt lat="40.8552033" lon="9.11211"><ele>470.25</ele><time>2026-05-01T11:47:00.676Z</time></trkpt><trkpt lat="40.855085" lon="9.11203"><ele>472.5</ele><time>2026-05-01T11:47:01.676Z</time></trkpt><trkpt lat="40.8549783" lon="9.11195"><ele>474.75</ele><time>2026-05-01T11:47:02.676Z</time></trkpt><trkpt lat="40.85487" lon="9.1118717"><ele>477.0</ele><time>2026-05-01T11:47:03.676Z</time></trkpt><trkpt lat="40.8547667" lon="9.1117967"><ele>477.0</ele><time>2026-05-01T11:47:04.676Z</time></trkpt><trkpt lat="40.8546667" lon="9.111735"><ele>477.00000000000006</ele><time>2026-05-01T11:47:05.676Z</time></trkpt><trkpt lat="40.8545667" lon="9.1116867"><ele>477.00000000000006</ele><time>2026-05-01T11:47:06.676Z</time></trkpt><trkpt lat="40.85448" lon="9.1116433"><ele>477.0</ele><time>2026-05-01T11:47:07.676Z</time></trkpt><trkpt lat="40.8544033" lon="9.1116067"><ele>477.0</ele><time>2026-05-01T11:47:08.676Z</time></trkpt><trkpt lat="40.8543017" lon="9.111545"><ele>478.20000000000005</ele><time>2026-05-01T11:47:10.676Z</time></trkpt><trkpt lat="40.8542483" lon="9.1114283"><ele>479.40000000000003</ele><time>2026-05-01T11:47:12.676Z</time></trkpt><trkpt lat="40.85422" lon="9.1113283"><ele>480.59999999999997</ele><time>2026-05-01T11:47:14.676Z</time></trkpt><trkpt lat="40.8542433" lon="9.1112033"><ele>481.79999999999995</ele><time>2026-05-01T11:47:16.676Z</time></trkpt><trkpt lat="40.854275" lon="9.1111283"><ele>483.0</ele><time>2026-05-01T11:47:17.676Z</time></trkpt><trkpt lat="40.8543533" lon="9.1110017"><ele>483.0</ele><time>2026-05-01T11:47:19.676Z</time></trkpt><trkpt lat="40.85443" lon="9.1109433"><ele>483.0</ele><time>2026-05-01T11:47:21.676Z</time></trkpt><trkpt lat="40.8544917" lon="9.1109733"><ele>483.0</ele><time>2026-05-01T11:47:22.676Z</time></trkpt><trkpt lat="40.8545733" lon="9.1109583"><ele>483.0</ele><time>2026-05-01T11:47:24.676Z</time></trkpt><trkpt lat="40.8545883" lon="9.1108717"><ele>483.0</ele><time>2026-05-01T11:47:27.676Z</time></trkpt><trkpt lat="40.8545417" lon="9.11076"><ele>483.0</ele><time>2026-05-01T11:47:29.676Z</time></trkpt><trkpt lat="40.854465" lon="9.1106517"><ele>487.79999999999995</ele><time>2026-05-01T11:47:31.676Z</time></trkpt><trkpt lat="40.85442" lon="9.1105867"><ele>492.59999999999997</ele><time>2026-05-01T11:47:32.676Z</time></trkpt><trkpt lat="40.854345" lon="9.1104733"><ele>497.40000000000003</ele><time>2026-05-01T11:47:34.676Z</time></trkpt><trkpt lat="40.8542683" lon="9.110365"><ele>502.20000000000005</ele><time>2026-05-01T11:47:36.677Z</time></trkpt><trkpt lat="40.8541717" lon="9.110285"><ele>507.0</ele><time>2026-05-01T11:47:38.676Z</time></trkpt><trkpt lat="40.85406" lon="9.11018"><ele>507.0</ele><time>2026-05-01T11:47:40.676Z</time></trkpt><trkpt lat="40.8539967" lon="9.1101183"><ele>507.0</ele><time>2026-05-01T11:47:41.676Z</time></trkpt><trkpt lat="40.8539333" lon="9.1100533"><ele>507.0</ele><time>2026-05-01T11:47:42.676Z</time></trkpt><trkpt lat="40.8538667" lon="9.1100083"><ele>507.0</ele><time>2026-05-01T11:47:43.676Z</time></trkpt><trkpt lat="40.8538117" lon="9.10996"><ele>507.0</ele><time>2026-05-01T11:47:44.676Z</time></trkpt><trkpt lat="40.85372" lon="9.109865"><ele>507.0</ele><time>2026-05-01T11:47:46.676Z</time></trkpt><trkpt lat="40.8536533" lon="9.1097567"><ele>509.8</ele><time>2026-05-01T11:47:48.676Z</time></trkpt><trkpt lat="40.8535633" lon="9.1096617"><ele>512.6</ele><time>2026-05-01T11:47:50.676Z</time></trkpt><trkpt lat="40.8535167" lon="9.1096033"><ele>515.4000000000001</ele><time>2026-05-01T11:47:51.676Z</time></trkpt><trkpt lat="40.85343" lon="9.109545"><ele>518.2</ele><time>2026-05-01T11:47:53.676Z</time></trkpt><trkpt lat="40.853355" lon="9.10948"><ele>521.0</ele><time>2026-05-01T11:47:55.676Z</time></trkpt><trkpt lat="40.8534367" lon="9.1094567"><ele>523.4</ele><time>2026-05-01T11:47:59.676Z</time></trkpt><trkpt lat="40.8535417" lon="9.1094817"><ele>525.8</ele><time>2026-05-01T11:48:01.676Z</time></trkpt><trkpt lat="40.8536567" lon="9.109495"><ele>528.1999999999999</ele><time>2026-05-01T11:48:03.676Z</time></trkpt><trkpt lat="40.85373" lon="9.1095067"><ele>530.6</ele><time>2026-05-01T11:48:04.676Z</time></trkpt><trkpt lat="40.8538" lon="9.1095033"><ele>533.0</ele><time>2026-05-01T11:48:05.676Z</time></trkpt><trkpt lat="40.853885" lon="9.1094917"><ele>533.0</ele><time>2026-05-01T11:48:06.676Z</time></trkpt><trkpt lat="40.853975" lon="9.1094783"><ele>533.0</ele><time>2026-05-01T11:48:07.676Z</time></trkpt><trkpt lat="40.8540467" lon="9.1094783"><ele>533.0</ele><time>2026-05-01T11:48:08.676Z</time></trkpt><trkpt lat="40.85412" lon="9.1094667"><ele>533.0</ele><time>2026-05-01T11:48:09.676Z</time></trkpt><trkpt lat="40.8541783" lon="9.1094283"><ele>533.0</ele><time>2026-05-01T11:48:10.676Z</time></trkpt><trkpt lat="40.85425" lon="9.1094033"><ele>533.0</ele><time>2026-05-01T11:48:11.676Z</time></trkpt><trkpt lat="40.8543433" lon="9.1093817"><ele>533.0</ele><time>2026-05-01T11:48:12.676Z</time></trkpt><trkpt lat="40.8544233" lon="9.109375"><ele>533.0</ele><time>2026-05-01T11:48:13.676Z</time></trkpt><trkpt lat="40.8544917" lon="9.1093433"><ele>533.0</ele><time>2026-05-01T11:48:14.677Z</time></trkpt><trkpt lat="40.8545617" lon="9.10932"><ele>533.0</ele><time>2026-05-01T11:48:15.676Z</time></trkpt><trkpt lat="40.8546367" lon="9.10932"><ele>533.0</ele><time>2026-05-01T11:48:16.676Z</time></trkpt><trkpt lat="40.8547233" lon="9.1093067"><ele>533.0</ele><time>2026-05-01T11:48:17.676Z</time></trkpt><trkpt lat="40.8547883" lon="9.1092833"><ele>533.0</ele><time>2026-05-01T11:48:18.676Z</time></trkpt><trkpt lat="40.854915" lon="9.1092867"><ele>533.0</ele><time>2026-05-01T11:48:19.676Z</time></trkpt><trkpt lat="40.8550233" lon="9.1092983"><ele>533.0</ele><time>2026-05-01T11:48:20.676Z</time></trkpt><trkpt lat="40.855095" lon="9.1093"><ele>533.0</ele><time>2026-05-01T11:48:21.676Z</time></trkpt><trkpt lat="40.85518" lon="9.1092917"><ele>533.0</ele><time>2026-05-01T11:48:22.676Z</time></trkpt><trkpt lat="40.8552517" lon="9.1092867"><ele>529.0</ele><time>2026-05-01T11:48:23.676Z</time></trkpt><trkpt lat="40.855375" lon="9.1092633"><ele>525.0</ele><time>2026-05-01T11:48:25.676Z</time></trkpt><trkpt lat="40.855465" lon="9.1092517"><ele>521.0</ele><time>2026-05-01T11:48:26.676Z</time></trkpt><trkpt lat="40.8555467" lon="9.10914"><ele>517.0</ele><time>2026-05-01T11:48:28.676Z</time></trkpt><trkpt lat="40.855545" lon="9.109045"><ele>513.0</ele><time>2026-05-01T11:48:29.676Z</time></trkpt><trkpt lat="40.85555" lon="9.108895"><ele>513.0</ele><time>2026-05-01T11:48:31.676Z</time></trkpt><trkpt lat="40.8556133" lon="9.1087817"><ele>513.0</ele><time>2026-05-01T11:48:33.676Z</time></trkpt><trkpt lat="40.85564" lon="9.1086733"><ele>513.0</ele><time>2026-05-01T11:48:35.676Z</time></trkpt><trkpt lat="40.8556417" lon="9.1085467"><ele>513.0</ele><time>2026-05-01T11:48:37.676Z</time></trkpt><trkpt lat="40.8556733" lon="9.1084433"><ele>513.0</ele><time>2026-05-01T11:48:39.676Z</time></trkpt><trkpt lat="40.8557283" lon="9.108355"><ele>513.0</ele><time>2026-05-01T11:48:42.676Z</time></trkpt><trkpt lat="40.8556167" lon="9.1085783"><ele>513.0</ele><time>2026-05-01T11:48:43.676Z</time></trkpt><trkpt lat="40.85553" lon="9.1086067"><ele>513.0</ele><time>2026-05-01T11:48:44.676Z</time></trkpt><trkpt lat="40.855385" lon="9.1086133"><ele>513.0</ele><time>2026-05-01T11:48:45.676Z</time></trkpt><trkpt lat="40.8552617" lon="9.1085633"><ele>513.0</ele><time>2026-05-01T11:48:47.677Z</time></trkpt><trkpt lat="40.8552033" lon="9.108525"><ele>513.0</ele><time>2026-05-01T11:48:48.676Z</time></trkpt><trkpt lat="40.8551" lon="9.10847"><ele>513.0</ele><time>2026-05-01T11:48:49.676Z</time></trkpt><trkpt lat="40.85495" lon="9.1084967"><ele>513.0</ele><time>2026-05-01T11:48:50.676Z</time></trkpt><trkpt lat="40.8547767" lon="9.1084533"><ele>518.1999999999999</ele><time>2026-05-01T11:48:51.676Z</time></trkpt><trkpt lat="40.8546817" lon="9.108415"><ele>523.4</ele><time>2026-05-01T11:48:52.676Z</time></trkpt><trkpt lat="40.8545817" lon="9.1083683"><ele>528.5999999999999</ele><time>2026-05-01T11:48:53.676Z</time></trkpt><trkpt lat="40.85449" lon="9.108315"><ele>533.8</ele><time>2026-05-01T11:48:54.676Z</time></trkpt><trkpt lat="40.854415" lon="9.10825"><ele>539.0</ele><time>2026-05-01T11:48:55.676Z</time></trkpt><trkpt lat="40.8542883" lon="9.108185"><ele>544.6</ele><time>2026-05-01T11:48:56.676Z</time></trkpt><trkpt lat="40.8541683" lon="9.1081233"><ele>550.2</ele><time>2026-05-01T11:48:57.676Z</time></trkpt><trkpt lat="40.8540967" lon="9.1080583"><ele>555.8000000000001</ele><time>2026-05-01T11:48:58.676Z</time></trkpt><trkpt lat="40.85404" lon="9.108"><ele>561.4</ele><time>2026-05-01T11:48:59.677Z</time></trkpt><trkpt lat="40.85397" lon="9.1078883"><ele>567.0</ele><time>2026-05-01T11:49:01.676Z</time></trkpt><trkpt lat="40.8539567" lon="9.1077983"><ele>567.0</ele><time>2026-05-01T11:49:02.676Z</time></trkpt><trkpt lat="40.8539233" lon="9.107725"><ele>567.0</ele><time>2026-05-01T11:49:03.676Z</time></trkpt><trkpt lat="40.8538983" lon="9.107635"><ele>567.0</ele><time>2026-05-01T11:49:04.676Z</time></trkpt><trkpt lat="40.8538867" lon="9.10754"><ele>567.0</ele><time>2026-05-01T11:49:05.676Z</time></trkpt><trkpt lat="40.853885" lon="9.107455"><ele>567.0</ele><time>2026-05-01T11:49:06.676Z</time></trkpt><trkpt lat="40.8538617" lon="9.1073"><ele>567.0</ele><time>2026-05-01T11:49:08.676Z</time></trkpt><trkpt lat="40.85382" lon="9.1072067"><ele>570.8000000000001</ele><time>2026-05-01T11:49:09.676Z</time></trkpt><trkpt lat="40.8537983" lon="9.1071167"><ele>574.6</ele><time>2026-05-01T11:49:10.676Z</time></trkpt><trkpt lat="40.8537767" lon="9.1070317"><ele>578.4000000000001</ele><time>2026-05-01T11:49:11.676Z</time></trkpt><trkpt lat="40.8537467" lon="9.106895"><ele>582.2</ele><time>2026-05-01T11:49:13.676Z</time></trkpt><trkpt lat="40.8537217" lon="9.106795"><ele>586.0</ele><time>2026-05-01T11:49:15.676Z</time></trkpt><trkpt lat="40.8537783" lon="9.1066317"><ele>591.0</ele><time>2026-05-01T11:49:18.676Z</time></trkpt><trkpt lat="40.853835" lon="9.1065417"><ele>596.0</ele><time>2026-05-01T11:49:19.676Z</time></trkpt><trkpt lat="40.85391" lon="9.1064817"><ele>601.0</ele><time>2026-05-01T11:49:20.676Z</time></trkpt><trkpt lat="40.8539683" lon="9.10641"><ele>606.0</ele><time>2026-05-01T11:49:21.676Z</time></trkpt><trkpt lat="40.85405" lon="9.106345"><ele>611.0</ele><time>2026-05-01T11:49:22.676Z</time></trkpt><trkpt lat="40.85396" lon="9.1062983"><ele>616.0</ele><time>2026-05-01T11:49:27.676Z</time></trkpt><trkpt lat="40.8538983" lon="9.1063667"><ele>616.0</ele><time>2026-05-01T11:49:33.676Z</time></trkpt><trkpt lat="40.85378" lon="9.106405"><ele>616.0</ele><time>2026-05-01T11:49:35.676Z</time></trkpt><trkpt lat="40.8537083" lon="9.10641"><ele>616.0</ele><time>2026-05-01T11:49:36.676Z</time></trkpt><trkpt lat="40.8536117" lon="9.10637"><ele>616.0</ele><time>2026-05-01T11:49:37.676Z</time></trkpt><trkpt lat="40.8535317" lon="9.1063367"><ele>616.0</ele><time>2026-05-01T11:49:38.676Z</time></trkpt><trkpt lat="40.8534633" lon="9.1062967"><ele>617.2</ele><time>2026-05-01T11:49:39.676Z</time></trkpt><trkpt lat="40.8533767" lon="9.1062233"><ele>618.4000000000001</ele><time>2026-05-01T11:49:40.676Z</time></trkpt><trkpt lat="40.85328" lon="9.1061417"><ele>619.6</ele><time>2026-05-01T11:49:41.676Z</time></trkpt><trkpt lat="40.8531967" lon="9.10608"><ele>620.8000000000001</ele><time>2026-05-01T11:49:42.676Z</time></trkpt><trkpt lat="40.853105" lon="9.1060033"><ele>622.0</ele><time>2026-05-01T11:49:43.676Z</time></trkpt><trkpt lat="40.85302" lon="9.105925"><ele>622.0</ele><time>2026-05-01T11:49:44.676Z</time></trkpt><trkpt lat="40.85292" lon="9.10583"><ele>622.0</ele><time>2026-05-01T11:49:45.676Z</time></trkpt><trkpt lat="40.8528333" lon="9.1057367"><ele>622.0</ele><time>2026-05-01T11:49:46.677Z</time></trkpt><trkpt lat="40.8527617" lon="9.10563"><ele>622.0</ele><time>2026-05-01T11:49:47.676Z</time></trkpt><trkpt lat="40.8526933" lon="9.1055233"><ele>622.0</ele><time>2026-05-01T11:49:48.676Z</time></trkpt><trkpt lat="40.8526317" lon="9.1054183"><ele>622.6</ele><time>2026-05-01T11:49:49.676Z</time></trkpt><trkpt lat="40.8525733" lon="9.105305"><ele>623.2</ele><time>2026-05-01T11:49:50.676Z</time></trkpt><trkpt lat="40.8525267" lon="9.105185"><ele>623.8</ele><time>2026-05-01T11:49:51.676Z</time></trkpt><trkpt lat="40.85249" lon="9.1050617"><ele>624.4</ele><time>2026-05-01T11:49:52.676Z</time></trkpt><trkpt lat="40.852445" lon="9.1049367"><ele>625.0</ele><time>2026-05-01T11:49:53.676Z</time></trkpt><trkpt lat="40.8524117" lon="9.1048367"><ele>628.1666666666667</ele><time>2026-05-01T11:49:54.676Z</time></trkpt><trkpt lat="40.8523933" lon="9.1047167"><ele>631.3333333333334</ele><time>2026-05-01T11:49:55.676Z</time></trkpt><trkpt lat="40.8523817" lon="9.1046083"><ele>634.5</ele><time>2026-05-01T11:49:56.676Z</time></trkpt><trkpt lat="40.85239" lon="9.104505"><ele>637.6666666666666</ele><time>2026-05-01T11:49:57.676Z</time></trkpt><trkpt lat="40.852405" lon="9.1044117"><ele>640.8333333333333</ele><time>2026-05-01T11:49:58.676Z</time></trkpt><trkpt lat="40.85241" lon="9.1043233"><ele>644.0</ele><time>2026-05-01T11:49:59.676Z</time></trkpt><trkpt lat="40.8524017" lon="9.1042367"><ele>644.0</ele><time>2026-05-01T11:50:00.676Z</time></trkpt><trkpt lat="40.852385" lon="9.104145"><ele>644.0</ele><time>2026-05-01T11:50:01.676Z</time></trkpt><trkpt lat="40.852355" lon="9.1040667"><ele>644.0</ele><time>2026-05-01T11:50:02.676Z</time></trkpt><trkpt lat="40.8522783" lon="9.103965"><ele>644.0</ele><time>2026-05-01T11:50:04.676Z</time></trkpt><trkpt lat="40.85219" lon="9.1038467"><ele>644.0</ele><time>2026-05-01T11:50:06.676Z</time></trkpt><trkpt lat="40.8521217" lon="9.1037567"><ele>649.8000000000001</ele><time>2026-05-01T11:50:08.676Z</time></trkpt><trkpt lat="40.8520583" lon="9.1037117"><ele>655.6</ele><time>2026-05-01T11:50:10.676Z</time></trkpt><trkpt lat="40.852" lon="9.10367"><ele>661.4</ele><time>2026-05-01T11:50:12.676Z</time></trkpt><trkpt lat="40.85193" lon="9.1035917"><ele>667.2</ele><time>2026-05-01T11:50:15.676Z</time></trkpt><trkpt lat="40.85187" lon="9.1034733"><ele>673.0</ele><time>2026-05-01T11:50:17.676Z</time></trkpt><trkpt lat="40.8518" lon="9.1033433"><ele>674.4</ele><time>2026-05-01T11:50:19.676Z</time></trkpt><trkpt lat="40.8516983" lon="9.10326"><ele>675.8</ele><time>2026-05-01T11:50:21.676Z</time></trkpt><trkpt lat="40.851645" lon="9.10321"><ele>677.2</ele><time>2026-05-01T11:50:22.676Z</time></trkpt><trkpt lat="40.8515933" lon="9.1031617"><ele>678.6</ele><time>2026-05-01T11:50:23.676Z</time></trkpt><trkpt lat="40.8515017" lon="9.1030483"><ele>680.0</ele><time>2026-05-01T11:50:25.677Z</time></trkpt><trkpt lat="40.8514383" lon="9.1029567"><ele>680.0</ele><time>2026-05-01T11:50:27.676Z</time></trkpt><trkpt lat="40.851385" lon="9.1028883"><ele>680.0</ele><time>2026-05-01T11:50:28.676Z</time></trkpt><trkpt lat="40.8513183" lon="9.1027883"><ele>680.0</ele><time>2026-05-01T11:50:30.676Z</time></trkpt><trkpt lat="40.85127" lon="9.1027333"><ele>680.0</ele><time>2026-05-01T11:50:31.676Z</time></trkpt><trkpt lat="40.8512083" lon="9.1026367"><ele>680.0</ele><time>2026-05-01T11:50:33.676Z</time></trkpt><trkpt lat="40.8511467" lon="9.1025383"><ele>680.0</ele><time>2026-05-01T11:50:35.676Z</time></trkpt><trkpt lat="40.8511033" lon="9.1024317"><ele>679.3333333333333</ele><time>2026-05-01T11:50:37.676Z</time></trkpt><trkpt lat="40.85104" lon="9.1023183"><ele>678.6666666666666</ele><time>2026-05-01T11:50:39.676Z</time></trkpt><trkpt lat="40.850975" lon="9.1022017"><ele>678.0</ele><time>2026-05-01T11:50:41.676Z</time></trkpt><trkpt lat="40.8509383" lon="9.1021317"><ele>677.3333333333334</ele><time>2026-05-01T11:50:42.676Z</time></trkpt><trkpt lat="40.850895" lon="9.10206"><ele>676.6666666666667</ele><time>2026-05-01T11:50:43.676Z</time></trkpt><trkpt lat="40.8508417" lon="9.1019917"><ele>676.0</ele><time>2026-05-01T11:50:44.676Z</time></trkpt><trkpt lat="40.8507467" lon="9.1019267"><ele>676.0</ele><time>2026-05-01T11:50:46.676Z</time></trkpt><trkpt lat="40.8506567" lon="9.1019033"><ele>676.0</ele><time>2026-05-01T11:50:48.677Z</time></trkpt><trkpt lat="40.85056" lon="9.10191"><ele>676.0</ele><time>2026-05-01T11:50:50.676Z</time></trkpt><trkpt lat="40.8504717" lon="9.1019583"><ele>676.0</ele><time>2026-05-01T11:50:52.676Z</time></trkpt><trkpt lat="40.8504" lon="9.1020317"><ele>676.0</ele><time>2026-05-01T11:50:54.677Z</time></trkpt><trkpt lat="40.8503317" lon="9.102105"><ele>676.0</ele><time>2026-05-01T11:50:56.676Z</time></trkpt><trkpt lat="40.8502733" lon="9.1022"><ele>676.0</ele><time>2026-05-01T11:50:58.676Z</time></trkpt><trkpt lat="40.850245" lon="9.1023"><ele>676.0</ele><time>2026-05-01T11:51:00.676Z</time></trkpt><trkpt lat="40.8502117" lon="9.1023933"><ele>676.0</ele><time>2026-05-01T11:51:02.676Z</time></trkpt><trkpt lat="40.8501667" lon="9.102485"><ele>676.0</ele><time>2026-05-01T11:51:04.676Z</time></trkpt><trkpt lat="40.8501117" lon="9.1025967"><ele>676.0</ele><time>2026-05-01T11:51:06.676Z</time></trkpt><trkpt lat="40.8500433" lon="9.102735"><ele>675.0</ele><time>2026-05-01T11:51:08.676Z</time></trkpt><trkpt lat="40.8499983" lon="9.1028067"><ele>674.0</ele><time>2026-05-01T11:51:09.677Z</time></trkpt><trkpt lat="40.849955" lon="9.1028767"><ele>673.0</ele><time>2026-05-01T11:51:10.676Z</time></trkpt><trkpt lat="40.84992" lon="9.1029483"><ele>672.0</ele><time>2026-05-01T11:51:11.676Z</time></trkpt><trkpt lat="40.8498583" lon="9.1030783"><ele>671.0</ele><time>2026-05-01T11:51:13.676Z</time></trkpt><trkpt lat="40.849815" lon="9.10322"><ele>670.0</ele><time>2026-05-01T11:51:15.676Z</time></trkpt><trkpt lat="40.8497383" lon="9.1033167"><ele>670.0</ele><time>2026-05-01T11:51:17.676Z</time></trkpt><trkpt lat="40.8496367" lon="9.103345"><ele>670.0</ele><time>2026-05-01T11:51:19.676Z</time></trkpt><trkpt lat="40.8495633" lon="9.1033333"><ele>670.0</ele><time>2026-05-01T11:51:20.676Z</time></trkpt><trkpt lat="40.8494567" lon="9.1033217"><ele>670.0</ele><time>2026-05-01T11:51:22.676Z</time></trkpt><trkpt lat="40.8493483" lon="9.1033117"><ele>670.0</ele><time>2026-05-01T11:51:24.676Z</time></trkpt><trkpt lat="40.8492833" lon="9.103285"><ele>670.0</ele><time>2026-05-01T11:51:26.676Z</time></trkpt><trkpt lat="40.8492117" lon="9.1032483"><ele>670.0</ele><time>2026-05-01T11:52:59.676Z</time></trkpt><trkpt lat="40.8491133" lon="9.103225"><ele>670.0</ele><time>2026-05-01T11:53:01.676Z</time></trkpt><trkpt lat="40.8490083" lon="9.1031717"><ele>670.0</ele><time>2026-05-01T11:53:03.676Z</time></trkpt><trkpt lat="40.8489567" lon="9.1031217"><ele>670.0</ele><time>2026-05-01T11:53:04.676Z</time></trkpt><trkpt lat="40.848905" lon="9.10305"><ele>670.0</ele><time>2026-05-01T11:53:05.676Z</time></trkpt><trkpt lat="40.84884" lon="9.1029733"><ele>673.8333333333334</ele><time>2026-05-01T11:53:06.677Z</time></trkpt><trkpt lat="40.8487667" lon="9.1029033"><ele>677.6666666666667</ele><time>2026-05-01T11:53:07.676Z</time></trkpt><trkpt lat="40.8487033" lon="9.1028433"><ele>681.5</ele><time>2026-05-01T11:53:08.676Z</time></trkpt><trkpt lat="40.8486367" lon="9.1027683"><ele>685.3333333333334</ele><time>2026-05-01T11:53:09.676Z</time></trkpt><trkpt lat="40.84857" lon="9.1026933"><ele>689.1666666666666</ele><time>2026-05-01T11:53:10.676Z</time></trkpt><trkpt lat="40.8484933" lon="9.1026067"><ele>693.0</ele><time>2026-05-01T11:53:11.676Z</time></trkpt><trkpt lat="40.8484133" lon="9.1025483"><ele>693.75</ele><time>2026-05-01T11:53:12.676Z</time></trkpt><trkpt lat="40.8483017" lon="9.1024833"><ele>694.5</ele><time>2026-05-01T11:53:13.676Z</time></trkpt><trkpt lat="40.84819" lon="9.102425"><ele>695.25</ele><time>2026-05-01T11:53:14.676Z</time></trkpt><trkpt lat="40.8480833" lon="9.10237"><ele>696.0</ele><time>2026-05-01T11:53:15.676Z</time></trkpt><trkpt lat="40.8479833" lon="9.1023167"><ele>702.1999999999999</ele><time>2026-05-01T11:53:16.676Z</time></trkpt><trkpt lat="40.8478617" lon="9.1022533"><ele>708.4</ele><time>2026-05-01T11:53:17.676Z</time></trkpt><trkpt lat="40.8477517" lon="9.1022083"><ele>714.6</ele><time>2026-05-01T11:53:18.676Z</time></trkpt><trkpt lat="40.8476533" lon="9.1021733"><ele>720.8</ele><time>2026-05-01T11:53:19.676Z</time></trkpt><trkpt lat="40.8475667" lon="9.1021433"><ele>727.0</ele><time>2026-05-01T11:53:20.676Z</time></trkpt><trkpt lat="40.847495" lon="9.1021267"><ele>727.0</ele><time>2026-05-01T11:53:21.676Z</time></trkpt><trkpt lat="40.847375" lon="9.1021133"><ele>727.0</ele><time>2026-05-01T11:53:23.676Z</time></trkpt><trkpt lat="40.8473067" lon="9.1020867"><ele>727.0</ele><time>2026-05-01T11:53:24.676Z</time></trkpt><trkpt lat="40.8472417" lon="9.1020617"><ele>727.0</ele><time>2026-05-01T11:53:25.676Z</time></trkpt><trkpt lat="40.8471233" lon="9.1020633"><ele>727.0</ele><time>2026-05-01T11:53:27.676Z</time></trkpt><trkpt lat="40.847055" lon="9.1020767"><ele>727.0</ele><time>2026-05-01T11:53:28.676Z</time></trkpt><trkpt lat="40.8469783" lon="9.10211"><ele>727.0</ele><time>2026-05-01T11:53:29.676Z</time></trkpt><trkpt lat="40.8468967" lon="9.102155"><ele>727.0</ele><time>2026-05-01T11:53:30.676Z</time></trkpt><trkpt lat="40.8468133" lon="9.1022133"><ele>727.0</ele><time>2026-05-01T11:53:31.676Z</time></trkpt><trkpt lat="40.846735" lon="9.1022633"><ele>727.0</ele><time>2026-05-01T11:53:32.676Z</time></trkpt><trkpt lat="40.8466617" lon="9.1023083"><ele>727.0</ele><time>2026-05-01T11:53:33.676Z</time></trkpt><trkpt lat="40.84658" lon="9.1023417"><ele>727.0</ele><time>2026-05-01T11:53:34.676Z</time></trkpt><trkpt lat="40.8465" lon="9.1023767"><ele>727.6666666666667</ele><time>2026-05-01T11:53:35.676Z</time></trkpt><trkpt lat="40.8464217" lon="9.102405"><ele>728.3333333333334</ele><time>2026-05-01T11:53:36.676Z</time></trkpt><trkpt lat="40.8463467" lon="9.10241"><ele>729.0</ele><time>2026-05-01T11:53:37.676Z</time></trkpt><trkpt lat="40.8462683" lon="9.1024117"><ele>729.6666666666666</ele><time>2026-05-01T11:53:38.676Z</time></trkpt><trkpt lat="40.8461733" lon="9.1024017"><ele>730.3333333333333</ele><time>2026-05-01T11:53:39.676Z</time></trkpt><trkpt lat="40.846075" lon="9.102375"><ele>731.0</ele><time>2026-05-01T11:53:40.676Z</time></trkpt><trkpt lat="40.8459783" lon="9.102315"><ele>730.3333333333333</ele><time>2026-05-01T11:53:41.676Z</time></trkpt><trkpt lat="40.8459" lon="9.1022583"><ele>729.6666666666666</ele><time>2026-05-01T11:53:42.676Z</time></trkpt><trkpt lat="40.8458283" lon="9.1022"><ele>729.0</ele><time>2026-05-01T11:53:43.676Z</time></trkpt><trkpt lat="40.8457683" lon="9.1021383"><ele>728.3333333333334</ele><time>2026-05-01T11:53:44.676Z</time></trkpt><trkpt lat="40.8457117" lon="9.1020683"><ele>727.6666666666667</ele><time>2026-05-01T11:53:45.676Z</time></trkpt><trkpt lat="40.8456467" lon="9.10201"><ele>727.0</ele><time>2026-05-01T11:53:46.676Z</time></trkpt><trkpt lat="40.8455783" lon="9.101965"><ele>727.0</ele><time>2026-05-01T11:53:47.676Z</time></trkpt><trkpt lat="40.845505" lon="9.1019183"><ele>727.0</ele><time>2026-05-01T11:53:48.676Z</time></trkpt><trkpt lat="40.845435" lon="9.1019117"><ele>727.0</ele><time>2026-05-01T11:53:49.676Z</time></trkpt><trkpt lat="40.8453667" lon="9.101915"><ele>727.0</ele><time>2026-05-01T11:53:50.676Z</time></trkpt><trkpt lat="40.8452917" lon="9.1019333"><ele>727.0</ele><time>2026-05-01T11:53:51.676Z</time></trkpt><trkpt lat="40.845215" lon="9.1019383"><ele>727.0</ele><time>2026-05-01T11:53:52.676Z</time></trkpt><trkpt lat="40.8451217" lon="9.1019633"><ele>726.8</ele><time>2026-05-01T11:53:53.676Z</time></trkpt><trkpt lat="40.8450217" lon="9.1019833"><ele>726.6</ele><time>2026-05-01T11:53:54.676Z</time></trkpt><trkpt lat="40.8449133" lon="9.1019967"><ele>726.4</ele><time>2026-05-01T11:53:55.676Z</time></trkpt><trkpt lat="40.844805" lon="9.1019983"><ele>726.1999999999999</ele><time>2026-05-01T11:53:56.676Z</time></trkpt><trkpt lat="40.8447083" lon="9.101985"><ele>726.0</ele><time>2026-05-01T11:53:57.676Z</time></trkpt><trkpt lat="40.844615" lon="9.1019683"><ele>726.0</ele><time>2026-05-01T11:53:58.676Z</time></trkpt><trkpt lat="40.84452" lon="9.1019583"><ele>726.0</ele><time>2026-05-01T11:53:59.676Z</time></trkpt><trkpt lat="40.8444433" lon="9.1019533"><ele>726.0</ele><time>2026-05-01T11:54:00.676Z</time></trkpt><trkpt lat="40.84433" lon="9.1019683"><ele>726.0</ele><time>2026-05-01T11:54:02.676Z</time></trkpt><trkpt lat="40.8442667" lon="9.1019633"><ele>726.0</ele><time>2026-05-01T11:54:03.676Z</time></trkpt><trkpt lat="40.8441933" lon="9.1019783"><ele>726.0</ele><time>2026-05-01T11:54:04.677Z</time></trkpt><trkpt lat="40.8441283" lon="9.1019917"><ele>725.8333333333334</ele><time>2026-05-01T11:54:05.676Z</time></trkpt><trkpt lat="40.8440633" lon="9.1020167"><ele>725.6666666666666</ele><time>2026-05-01T11:54:06.676Z</time></trkpt><trkpt lat="40.8439933" lon="9.1020367"><ele>725.5</ele><time>2026-05-01T11:54:07.676Z</time></trkpt><trkpt lat="40.84393" lon="9.1020617"><ele>725.3333333333333</ele><time>2026-05-01T11:54:08.676Z</time></trkpt><trkpt lat="40.8438683" lon="9.1020883"><ele>725.1666666666666</ele><time>2026-05-01T11:54:09.676Z</time></trkpt><trkpt lat="40.84376" lon="9.102145"><ele>725.0</ele><time>2026-05-01T11:54:11.677Z</time></trkpt><trkpt lat="40.843655" lon="9.10216"><ele>725.0</ele><time>2026-05-01T11:54:13.676Z</time></trkpt><trkpt lat="40.843545" lon="9.1021667"><ele>725.0</ele><time>2026-05-01T11:54:15.676Z</time></trkpt><trkpt lat="40.8434733" lon="9.1021133"><ele>725.0</ele><time>2026-05-01T11:54:17.677Z</time></trkpt><trkpt lat="40.84336" lon="9.1020533"><ele>725.0</ele><time>2026-05-01T11:54:19.676Z</time></trkpt><trkpt lat="40.8432667" lon="9.10209"><ele>725.0</ele><time>2026-05-01T11:54:21.676Z</time></trkpt><trkpt lat="40.84315" lon="9.1020533"><ele>726.1428571428571</ele><time>2026-05-01T11:54:23.676Z</time></trkpt><trkpt lat="40.8430833" lon="9.10201"><ele>727.2857142857143</ele><time>2026-05-01T11:54:24.676Z</time></trkpt><trkpt lat="40.8430183" lon="9.101955"><ele>728.4285714285713</ele><time>2026-05-01T11:54:25.676Z</time></trkpt><trkpt lat="40.8429667" lon="9.101895"><ele>729.5714285714286</ele><time>2026-05-01T11:54:26.676Z</time></trkpt><trkpt lat="40.8429217" lon="9.1018217"><ele>730.7142857142857</ele><time>2026-05-01T11:54:27.676Z</time></trkpt><trkpt lat="40.84289" lon="9.1017333"><ele>731.8571428571428</ele><time>2026-05-01T11:54:28.676Z</time></trkpt><trkpt lat="40.84287" lon="9.1016533"><ele>733.0</ele><time>2026-05-01T11:54:29.676Z</time></trkpt><trkpt lat="40.8428433" lon="9.1015333"><ele>733.0</ele><time>2026-05-01T11:54:30.676Z</time></trkpt><trkpt lat="40.84283" lon="9.10141"><ele>733.0</ele><time>2026-05-01T11:54:31.676Z</time></trkpt><trkpt lat="40.8428333" lon="9.1012883"><ele>733.0</ele><time>2026-05-01T11:54:32.676Z</time></trkpt><trkpt lat="40.84284" lon="9.1011717"><ele>733.0</ele><time>2026-05-01T11:54:33.676Z</time></trkpt><trkpt lat="40.8428417" lon="9.1010633"><ele>733.0</ele><time>2026-05-01T11:54:34.676Z</time></trkpt><trkpt lat="40.84284" lon="9.10098"><ele>733.0</ele><time>2026-05-01T11:54:35.676Z</time></trkpt><trkpt lat="40.8428483" lon="9.10087"><ele>733.0</ele><time>2026-05-01T11:54:37.676Z</time></trkpt><trkpt lat="40.8428283" lon="9.1009617"><ele>733.0</ele><time>2026-05-01T11:54:47.676Z</time></trkpt><trkpt lat="40.8428317" lon="9.1011733"><ele>733.0</ele><time>2026-05-01T11:54:49.676Z</time></trkpt><trkpt lat="40.842855" lon="9.101355"><ele>733.0</ele><time>2026-05-01T11:54:50.676Z</time></trkpt><trkpt lat="40.842875" lon="9.1015"><ele>729.5999999999999</ele><time>2026-05-01T11:54:51.676Z</time></trkpt><trkpt lat="40.8429233" lon="9.10164"><ele>726.1999999999999</ele><time>2026-05-01T11:54:52.676Z</time></trkpt><trkpt lat="40.8429633" lon="9.1017583"><ele>722.8</ele><time>2026-05-01T11:54:53.676Z</time></trkpt><trkpt lat="40.8430333" lon="9.101885"><ele>719.4</ele><time>2026-05-01T11:54:54.677Z</time></trkpt><trkpt lat="40.8431" lon="9.1019917"><ele>716.0</ele><time>2026-05-01T11:54:55.676Z</time></trkpt><trkpt lat="40.84318" lon="9.1020867"><ele>716.0</ele><time>2026-05-01T11:54:56.677Z</time></trkpt><trkpt lat="40.8432517" lon="9.10216"><ele>716.0</ele><time>2026-05-01T11:54:57.676Z</time></trkpt><trkpt lat="40.8434" lon="9.1022217"><ele>716.0</ele><time>2026-05-01T11:54:59.676Z</time></trkpt><trkpt lat="40.843485" lon="9.1022667"><ele>716.0</ele><time>2026-05-01T11:55:00.676Z</time></trkpt><trkpt lat="40.8435467" lon="9.1023217"><ele>716.0</ele><time>2026-05-01T11:55:01.676Z</time></trkpt><trkpt lat="40.8435933" lon="9.1024367"><ele>710.5999999999999</ele><time>2026-05-01T11:55:03.676Z</time></trkpt><trkpt lat="40.843615" lon="9.1025717"><ele>705.2</ele><time>2026-05-01T11:55:05.676Z</time></trkpt><trkpt lat="40.8435367" lon="9.10266"><ele>699.8</ele><time>2026-05-01T11:55:07.676Z</time></trkpt><trkpt lat="40.8434667" lon="9.10266"><ele>694.4000000000001</ele><time>2026-05-01T11:55:08.676Z</time></trkpt><trkpt lat="40.84337" lon="9.1026283"><ele>689.0</ele><time>2026-05-01T11:55:09.676Z</time></trkpt><trkpt lat="40.8432417" lon="9.10256"><ele>689.0</ele><time>2026-05-01T11:55:10.676Z</time></trkpt><trkpt lat="40.8430883" lon="9.1024567"><ele>689.0</ele><time>2026-05-01T11:55:11.676Z</time></trkpt><trkpt lat="40.8429367" lon="9.1023733"><ele>689.0</ele><time>2026-05-01T11:55:12.676Z</time></trkpt><trkpt lat="40.8428067" lon="9.10229"><ele>689.0</ele><time>2026-05-01T11:55:13.677Z</time></trkpt><trkpt lat="40.8426867" lon="9.1022467"><ele>689.0</ele><time>2026-05-01T11:55:14.675Z</time></trkpt><trkpt lat="40.842595" lon="9.1022283"><ele>689.0</ele><time>2026-05-01T11:55:15.675Z</time></trkpt><trkpt lat="40.842475" lon="9.1022533"><ele>689.0</ele><time>2026-05-01T11:55:17.675Z</time></trkpt><trkpt lat="40.842415" lon="9.1023183"><ele>689.0</ele><time>2026-05-01T11:55:19.675Z</time></trkpt><trkpt lat="40.8424167" lon="9.1025067"><ele>687.0</ele><time>2026-05-01T11:55:21.675Z</time></trkpt><trkpt lat="40.8424433" lon="9.1026533"><ele>685.0</ele><time>2026-05-01T11:55:22.675Z</time></trkpt><trkpt lat="40.8424617" lon="9.1027467"><ele>683.0</ele><time>2026-05-01T11:55:23.675Z</time></trkpt><trkpt lat="40.8424883" lon="9.102835"><ele>681.0</ele><time>2026-05-01T11:55:24.675Z</time></trkpt><trkpt lat="40.8425117" lon="9.1029217"><ele>679.0</ele><time>2026-05-01T11:55:25.675Z</time></trkpt><trkpt lat="40.8425583" lon="9.10299"><ele>677.0</ele><time>2026-05-01T11:55:26.675Z</time></trkpt><trkpt lat="40.8425967" lon="9.103065"><ele>677.0</ele><time>2026-05-01T11:55:28.675Z</time></trkpt><trkpt lat="40.8426433" lon="9.1031433"><ele>677.0</ele><time>2026-05-01T11:55:32.675Z</time></trkpt><trkpt lat="40.8426933" lon="9.1032417"><ele>677.0</ele><time>2026-05-01T11:55:35.675Z</time></trkpt><trkpt lat="40.842705" lon="9.10333"><ele>677.0</ele><time>2026-05-01T11:56:21.675Z</time></trkpt><trkpt lat="40.84264" lon="9.103375"><ele>677.0</ele><time>2026-05-01T11:56:22.675Z</time></trkpt><trkpt lat="40.8425467" lon="9.103445"><ele>677.0</ele><time>2026-05-01T11:56:26.675Z</time></trkpt><trkpt lat="40.8424567" lon="9.1035"><ele>677.0</ele><time>2026-05-01T11:56:28.675Z</time></trkpt><trkpt lat="40.842385" lon="9.1035333"><ele>677.0</ele><time>2026-05-01T11:56:29.675Z</time></trkpt><trkpt lat="40.8422817" lon="9.1035717"><ele>677.0</ele><time>2026-05-01T11:56:30.675Z</time></trkpt><trkpt lat="40.8421817" lon="9.1036083"><ele>677.0</ele><time>2026-05-01T11:56:31.675Z</time></trkpt><trkpt lat="40.842065" lon="9.1036533"><ele>677.0</ele><time>2026-05-01T11:56:32.676Z</time></trkpt><trkpt lat="40.84195" lon="9.1037267"><ele>677.0</ele><time>2026-05-01T11:56:33.675Z</time></trkpt><trkpt lat="40.8418367" lon="9.103815"><ele>677.0</ele><time>2026-05-01T11:56:34.675Z</time></trkpt><trkpt lat="40.8417" lon="9.1038717"><ele>677.0</ele><time>2026-05-01T11:56:35.675Z</time></trkpt><trkpt lat="40.8415733" lon="9.1039267"><ele>677.0</ele><time>2026-05-01T11:56:36.675Z</time></trkpt><trkpt lat="40.8414583" lon="9.1039867"><ele>676.0</ele><time>2026-05-01T11:56:37.675Z</time></trkpt><trkpt lat="40.8413417" lon="9.1040533"><ele>675.0</ele><time>2026-05-01T11:56:38.675Z</time></trkpt><trkpt lat="40.84114" lon="9.1041633"><ele>674.0</ele><time>2026-05-01T11:56:40.675Z</time></trkpt><trkpt lat="40.8410467" lon="9.1041883"><ele>673.0</ele><time>2026-05-01T11:56:41.675Z</time></trkpt><trkpt lat="40.8409617" lon="9.1042017"><ele>676.8333333333334</ele><time>2026-05-01T11:56:42.675Z</time></trkpt><trkpt lat="40.8408867" lon="9.1042217"><ele>680.6666666666667</ele><time>2026-05-01T11:56:43.675Z</time></trkpt><trkpt lat="40.8408217" lon="9.1042283"><ele>684.5</ele><time>2026-05-01T11:56:44.675Z</time></trkpt><trkpt lat="40.8407" lon="9.1041817"><ele>688.3333333333334</ele><time>2026-05-01T11:56:46.675Z</time></trkpt><trkpt lat="40.8406333" lon="9.104165"><ele>692.1666666666666</ele><time>2026-05-01T11:56:47.675Z</time></trkpt><trkpt lat="40.8405667" lon="9.1041533"><ele>696.0</ele><time>2026-05-01T11:56:48.675Z</time></trkpt><trkpt lat="40.840445" lon="9.1041667"><ele>696.0</ele><time>2026-05-01T11:56:50.675Z</time></trkpt><trkpt lat="40.8404233" lon="9.1042583"><ele>696.0</ele><time>2026-05-01T11:56:54.675Z</time></trkpt><trkpt lat="40.84054" lon="9.1044083"><ele>696.0</ele><time>2026-05-01T11:56:56.675Z</time></trkpt><trkpt lat="40.840625" lon="9.1045133"><ele>696.0</ele><time>2026-05-01T11:56:57.675Z</time></trkpt><trkpt lat="40.8407617" lon="9.1046567"><ele>696.0</ele><time>2026-05-01T11:56:58.675Z</time></trkpt><trkpt lat="40.8408317" lon="9.1047483"><ele>696.0</ele><time>2026-05-01T11:56:59.675Z</time></trkpt><trkpt lat="40.8409083" lon="9.10483"><ele>696.0</ele><time>2026-05-01T11:57:00.676Z</time></trkpt><trkpt lat="40.8409583" lon="9.1049033"><ele>696.0</ele><time>2026-05-01T11:57:01.675Z</time></trkpt><trkpt lat="40.8409867" lon="9.10498"><ele>696.0</ele><time>2026-05-01T11:57:03.675Z</time></trkpt><trkpt lat="40.8408667" lon="9.10494"><ele>696.0</ele><time>2026-05-01T11:57:08.675Z</time></trkpt><trkpt lat="40.8407383" lon="9.1048533"><ele>696.0</ele><time>2026-05-01T11:57:09.675Z</time></trkpt><trkpt lat="40.8406767" lon="9.1047983"><ele>696.0</ele><time>2026-05-01T11:57:10.675Z</time></trkpt><trkpt lat="40.840555" lon="9.10479"><ele>696.0</ele><time>2026-05-01T11:57:12.675Z</time></trkpt><trkpt lat="40.84043" lon="9.104795"><ele>696.0</ele><time>2026-05-01T11:57:14.675Z</time></trkpt><trkpt lat="40.84036" lon="9.1048083"><ele>696.0</ele><time>2026-05-01T11:57:15.675Z</time></trkpt><trkpt lat="40.8402983" lon="9.1048383"><ele>696.0</ele><time>2026-05-01T11:57:16.675Z</time></trkpt><trkpt lat="40.84032" lon="9.1049483"><ele>696.0</ele><time>2026-05-01T11:57:18.675Z</time></trkpt><trkpt lat="40.8403433" lon="9.1050267"><ele>696.0</ele><time>2026-05-01T11:57:19.675Z</time></trkpt><trkpt lat="40.8403933" lon="9.1051133"><ele>696.0</ele><time>2026-05-01T11:57:20.675Z</time></trkpt><trkpt lat="40.8404633" lon="9.1052083"><ele>701.0</ele><time>2026-05-01T11:57:21.675Z</time></trkpt><trkpt lat="40.840545" lon="9.105305"><ele>706.0</ele><time>2026-05-01T11:57:22.675Z</time></trkpt><trkpt lat="40.84067" lon="9.1054283"><ele>711.0</ele><time>2026-05-01T11:57:23.675Z</time></trkpt><trkpt lat="40.8407633" lon="9.1055483"><ele>716.0</ele><time>2026-05-01T11:57:24.675Z</time></trkpt><trkpt lat="40.84085" lon="9.105665"><ele>716.75</ele><time>2026-05-01T11:57:25.675Z</time></trkpt><trkpt lat="40.8409467" lon="9.1057883"><ele>717.5</ele><time>2026-05-01T11:57:26.675Z</time></trkpt><trkpt lat="40.8410283" lon="9.1059017"><ele>718.25</ele><time>2026-05-01T11:57:27.676Z</time></trkpt><trkpt lat="40.8411683" lon="9.10602"><ele>719.0</ele><time>2026-05-01T11:57:28.675Z</time></trkpt><trkpt lat="40.84129" lon="9.1061267"><ele>719.0</ele><time>2026-05-01T11:57:29.675Z</time></trkpt><trkpt lat="40.8413833" lon="9.1062383"><ele>719.0</ele><time>2026-05-01T11:57:30.675Z</time></trkpt><trkpt lat="40.84145" lon="9.1063267"><ele>719.0</ele><time>2026-05-01T11:57:31.675Z</time></trkpt><trkpt lat="40.841495" lon="9.1064333"><ele>719.0</ele><time>2026-05-01T11:57:33.675Z</time></trkpt><trkpt lat="40.8414267" lon="9.1063983"><ele>719.0</ele><time>2026-05-01T11:57:36.675Z</time></trkpt><trkpt lat="40.8412983" lon="9.1063517"><ele>719.0</ele><time>2026-05-01T11:57:39.675Z</time></trkpt><trkpt lat="40.84122" lon="9.1063567"><ele>719.0</ele><time>2026-05-01T11:57:40.675Z</time></trkpt><trkpt lat="40.8411333" lon="9.1063567"><ele>719.0</ele><time>2026-05-01T11:57:41.675Z</time></trkpt><trkpt lat="40.84102" lon="9.1063517"><ele>719.0</ele><time>2026-05-01T11:57:43.675Z</time></trkpt><trkpt lat="40.840915" lon="9.1063117"><ele>719.0</ele><time>2026-05-01T11:57:44.676Z</time></trkpt><trkpt lat="40.840765" lon="9.1062517"><ele>723.0</ele><time>2026-05-01T11:57:45.675Z</time></trkpt><trkpt lat="40.8406483" lon="9.1061917"><ele>727.0</ele><time>2026-05-01T11:57:46.675Z</time></trkpt><trkpt lat="40.840555" lon="9.1061167"><ele>731.0</ele><time>2026-05-01T11:57:47.675Z</time></trkpt><trkpt lat="40.8404617" lon="9.1060267"><ele>735.0</ele><time>2026-05-01T11:57:48.675Z</time></trkpt><trkpt lat="40.8403883" lon="9.1060033"><ele>739.0</ele><time>2026-05-01T11:57:49.675Z</time></trkpt><trkpt lat="40.8403217" lon="9.1060067"><ele>739.0</ele><time>2026-05-01T11:57:50.675Z</time></trkpt><trkpt lat="40.84036" lon="9.1061717"><ele>739.0</ele><time>2026-05-01T11:57:53.675Z</time></trkpt><trkpt lat="40.840405" lon="9.106275"><ele>739.0</ele><time>2026-05-01T11:57:54.675Z</time></trkpt><trkpt lat="40.8404867" lon="9.106405"><ele>739.0</ele><time>2026-05-01T11:57:55.675Z</time></trkpt><trkpt lat="40.8405817" lon="9.1065417"><ele>743.25</ele><time>2026-05-01T11:57:56.675Z</time></trkpt><trkpt lat="40.8406983" lon="9.1066967"><ele>747.5</ele><time>2026-05-01T11:57:57.675Z</time></trkpt><trkpt lat="40.8407667" lon="9.1068383"><ele>751.75</ele><time>2026-05-01T11:57:58.675Z</time></trkpt><trkpt lat="40.840815" lon="9.10696"><ele>756.0</ele><time>2026-05-01T11:57:59.675Z</time></trkpt><trkpt lat="40.8408567" lon="9.1070617"><ele>756.0</ele><time>2026-05-01T11:58:00.675Z</time></trkpt><trkpt lat="40.8409017" lon="9.1071467"><ele>756.0</ele><time>2026-05-01T11:58:01.675Z</time></trkpt><trkpt lat="40.8409217" lon="9.107275"><ele>756.0</ele><time>2026-05-01T11:58:03.675Z</time></trkpt><trkpt lat="40.8408717" lon="9.1073333"><ele>756.0</ele><time>2026-05-01T11:58:05.675Z</time></trkpt><trkpt lat="40.8407867" lon="9.10735"><ele>756.0</ele><time>2026-05-01T11:58:07.675Z</time></trkpt><trkpt lat="40.8406933" lon="9.1073767"><ele>756.0</ele><time>2026-05-01T11:58:09.675Z</time></trkpt><trkpt lat="40.8405717" lon="9.10728"><ele>756.0</ele><time>2026-05-01T11:58:10.675Z</time></trkpt><trkpt lat="40.840475" lon="9.1072383"><ele>756.0</ele><time>2026-05-01T11:58:11.675Z</time></trkpt><trkpt lat="40.8403817" lon="9.1072033"><ele>756.0</ele><time>2026-05-01T11:58:12.676Z</time></trkpt><trkpt lat="40.8402933" lon="9.10718"><ele>756.0</ele><time>2026-05-01T11:58:13.675Z</time></trkpt><trkpt lat="40.8402183" lon="9.10723"><ele>756.0</ele><time>2026-05-01T11:58:15.675Z</time></trkpt><trkpt lat="40.84017" lon="9.1073233"><ele>756.0</ele><time>2026-05-01T11:58:17.675Z</time></trkpt><trkpt lat="40.840155" lon="9.107405"><ele>756.0</ele><time>2026-05-01T11:58:18.675Z</time></trkpt><trkpt lat="40.8400883" lon="9.107495"><ele>756.0</ele><time>2026-05-01T11:58:20.675Z</time></trkpt><trkpt lat="40.8400917" lon="9.1076917"><ele>756.0</ele><time>2026-05-01T11:58:21.675Z</time></trkpt><trkpt lat="40.8400867" lon="9.1078717"><ele>756.0</ele><time>2026-05-01T11:58:22.675Z</time></trkpt><trkpt lat="40.8400633" lon="9.1079833"><ele>762.4</ele><time>2026-05-01T11:58:23.675Z</time></trkpt><trkpt lat="40.84003" lon="9.10809"><ele>768.8</ele><time>2026-05-01T11:58:24.675Z</time></trkpt><trkpt lat="40.8400033" lon="9.1081967"><ele>775.1999999999999</ele><time>2026-05-01T11:58:25.675Z</time></trkpt><trkpt lat="40.8399983" lon="9.1083133"><ele>781.5999999999999</ele><time>2026-05-01T11:58:26.675Z</time></trkpt><trkpt lat="40.8400083" lon="9.10842"><ele>788.0</ele><time>2026-05-01T11:58:27.675Z</time></trkpt><trkpt lat="40.8400667" lon="9.10855"><ele>789.25</ele><time>2026-05-01T11:58:28.675Z</time></trkpt><trkpt lat="40.8401833" lon="9.10869"><ele>790.5</ele><time>2026-05-01T11:58:29.675Z</time></trkpt><trkpt lat="40.840295" lon="9.1088083"><ele>791.75</ele><time>2026-05-01T11:58:30.675Z</time></trkpt><trkpt lat="40.840345" lon="9.108915"><ele>793.0</ele><time>2026-05-01T11:58:32.675Z</time></trkpt><trkpt lat="40.840415" lon="9.1089717"><ele>793.0</ele><time>2026-05-01T11:58:34.675Z</time></trkpt><trkpt lat="40.84047" lon="9.109015"><ele>793.0</ele><time>2026-05-01T11:58:36.675Z</time></trkpt><trkpt lat="40.8405617" lon="9.1091133"><ele>793.0</ele><time>2026-05-01T11:58:38.675Z</time></trkpt><trkpt lat="40.84065" lon="9.1092033"><ele>793.0</ele><time>2026-05-01T11:58:40.675Z</time></trkpt><trkpt lat="40.840375" lon="9.1089"><ele>793.0</ele><time>2026-05-01T11:58:42.675Z</time></trkpt><trkpt lat="40.84031" lon="9.1089267"><ele>793.0</ele><time>2026-05-01T11:58:43.675Z</time></trkpt><trkpt lat="40.84028" lon="9.108735"><ele>793.0</ele><time>2026-05-01T11:58:44.675Z</time></trkpt><trkpt lat="40.83991" lon="9.1082783"><ele>791.75</ele><time>2026-05-01T11:58:45.675Z</time></trkpt><trkpt lat="40.8397533" lon="9.1081183"><ele>790.5</ele><time>2026-05-01T11:58:46.675Z</time></trkpt><trkpt lat="40.839655" lon="9.10802"><ele>789.25</ele><time>2026-05-01T11:58:47.675Z</time></trkpt><trkpt lat="40.8395333" lon="9.1079883"><ele>788.0</ele><time>2026-05-01T11:58:48.675Z</time></trkpt><trkpt lat="40.8393633" lon="9.1080667"><ele>788.0</ele><time>2026-05-01T11:58:49.675Z</time></trkpt><trkpt lat="40.8393333" lon="9.108225"><ele>788.0</ele><time>2026-05-01T11:58:51.675Z</time></trkpt><trkpt lat="40.8392983" lon="9.1082967"><ele>788.0</ele><time>2026-05-01T11:58:52.675Z</time></trkpt><trkpt lat="40.8392867" lon="9.1084683"><ele>788.0</ele><time>2026-05-01T11:58:54.675Z</time></trkpt><trkpt lat="40.8393233" lon="9.1085833"><ele>788.0</ele><time>2026-05-01T11:58:55.675Z</time></trkpt><trkpt lat="40.839365" lon="9.10866"><ele>791.2</ele><time>2026-05-01T11:58:56.675Z</time></trkpt><trkpt lat="40.83945" lon="9.10878"><ele>794.4</ele><time>2026-05-01T11:58:57.675Z</time></trkpt><trkpt lat="40.839505" lon="9.10888"><ele>797.6</ele><time>2026-05-01T11:58:58.675Z</time></trkpt><trkpt lat="40.8395333" lon="9.1089983"><ele>800.8000000000001</ele><time>2026-05-01T11:58:59.675Z</time></trkpt><trkpt lat="40.8395267" lon="9.1091167"><ele>804.0</ele><time>2026-05-01T11:59:00.675Z</time></trkpt><trkpt lat="40.8395967" lon="9.1093433"><ele>807.6</ele><time>2026-05-01T11:59:02.675Z</time></trkpt><trkpt lat="40.8396383" lon="9.1094517"><ele>811.2</ele><time>2026-05-01T11:59:03.675Z</time></trkpt><trkpt lat="40.8396767" lon="9.109565"><ele>814.8000000000001</ele><time>2026-05-01T11:59:04.675Z</time></trkpt><trkpt lat="40.8397467" lon="9.1096817"><ele>818.4000000000001</ele><time>2026-05-01T11:59:05.675Z</time></trkpt><trkpt lat="40.8398333" lon="9.109795"><ele>822.0</ele><time>2026-05-01T11:59:06.675Z</time></trkpt><trkpt lat="40.8399" lon="9.1098867"><ele>822.8</ele><time>2026-05-01T11:59:07.675Z</time></trkpt><trkpt lat="40.8399617" lon="9.10999"><ele>823.6</ele><time>2026-05-01T11:59:08.675Z</time></trkpt><trkpt lat="40.8400283" lon="9.1100917"><ele>824.4</ele><time>2026-05-01T11:59:09.675Z</time></trkpt><trkpt lat="40.84012" lon="9.11018"><ele>825.1999999999999</ele><time>2026-05-01T11:59:10.675Z</time></trkpt><trkpt lat="40.840195" lon="9.1102883"><ele>826.0</ele><time>2026-05-01T11:59:11.675Z</time></trkpt><trkpt lat="40.8402917" lon="9.1103983"><ele>826.0</ele><time>2026-05-01T11:59:12.675Z</time></trkpt><trkpt lat="40.84035" lon="9.1104967"><ele>826.0</ele><time>2026-05-01T11:59:13.675Z</time></trkpt><trkpt lat="40.8404583" lon="9.1106"><ele>826.0</ele><time>2026-05-01T11:59:14.675Z</time></trkpt><trkpt lat="40.8405733" lon="9.1107167"><ele>826.0</ele><time>2026-05-01T11:59:15.675Z</time></trkpt><trkpt lat="40.8406533" lon="9.1108133"><ele>831.0</ele><time>2026-05-01T11:59:16.675Z</time></trkpt><trkpt lat="40.840725" lon="9.1109467"><ele>836.0</ele><time>2026-05-01T11:59:17.675Z</time></trkpt><trkpt lat="40.840795" lon="9.1110817"><ele>841.0</ele><time>2026-05-01T11:59:18.675Z</time></trkpt><trkpt lat="40.84086" lon="9.11121"><ele>846.0</ele><time>2026-05-01T11:59:19.675Z</time></trkpt><trkpt lat="40.8409333" lon="9.1113567"><ele>848.0</ele><time>2026-05-01T11:59:20.675Z</time></trkpt><trkpt lat="40.841" lon="9.111495"><ele>850.0</ele><time>2026-05-01T11:59:21.675Z</time></trkpt><trkpt lat="40.8410617" lon="9.1116433"><ele>852.0</ele><time>2026-05-01T11:59:22.675Z</time></trkpt><trkpt lat="40.8411233" lon="9.11182"><ele>854.0</ele><time>2026-05-01T11:59:23.675Z</time></trkpt><trkpt lat="40.8411817" lon="9.111985"><ele>854.0</ele><time>2026-05-01T11:59:24.675Z</time></trkpt><trkpt lat="40.841195" lon="9.1121717"><ele>854.0</ele><time>2026-05-01T11:59:25.676Z</time></trkpt><trkpt lat="40.8412083" lon="9.112355"><ele>854.0</ele><time>2026-05-01T11:59:26.675Z</time></trkpt><trkpt lat="40.841235" lon="9.1125117"><ele>854.0</ele><time>2026-05-01T11:59:27.675Z</time></trkpt><trkpt lat="40.8412517" lon="9.11267"><ele>858.0</ele><time>2026-05-01T11:59:28.675Z</time></trkpt><trkpt lat="40.8412633" lon="9.112845"><ele>862.0</ele><time>2026-05-01T11:59:29.675Z</time></trkpt><trkpt lat="40.8412817" lon="9.1130083"><ele>866.0</ele><time>2026-05-01T11:59:30.675Z</time></trkpt><trkpt lat="40.8413333" lon="9.1131667"><ele>870.0</ele><time>2026-05-01T11:59:31.675Z</time></trkpt><trkpt lat="40.8413883" lon="9.1133167"><ele>871.6</ele><time>2026-05-01T11:59:32.676Z</time></trkpt><trkpt lat="40.841435" lon="9.11346"><ele>873.2</ele><time>2026-05-01T11:59:33.675Z</time></trkpt><trkpt lat="40.84147" lon="9.11359"><ele>874.8</ele><time>2026-05-01T11:59:34.675Z</time></trkpt><trkpt lat="40.8415133" lon="9.11374"><ele>876.4</ele><time>2026-05-01T11:59:35.675Z</time></trkpt><trkpt lat="40.8415567" lon="9.11385"><ele>878.0</ele><time>2026-05-01T11:59:36.675Z</time></trkpt><trkpt lat="40.841625" lon="9.1139033"><ele>878.0</ele><time>2026-05-01T11:59:37.675Z</time></trkpt><trkpt lat="40.8417533" lon="9.1138633"><ele>878.0</ele><time>2026-05-01T11:59:39.675Z</time></trkpt><trkpt lat="40.8417017" lon="9.1137983"><ele>878.0</ele><time>2026-05-01T11:59:43.675Z</time></trkpt><trkpt lat="40.841635" lon="9.1137683"><ele>878.0</ele><time>2026-05-01T11:59:45.675Z</time></trkpt><trkpt lat="40.8415633" lon="9.1136983"><ele>878.0</ele><time>2026-05-01T11:59:51.675Z</time></trkpt><trkpt lat="40.8414683" lon="9.1135533"><ele>878.0000000000001</ele><time>2026-05-01T12:00:37.675Z</time></trkpt><trkpt lat="40.8413417" lon="9.11355"><ele>878.0</ele><time>2026-05-01T12:00:45.675Z</time></trkpt><trkpt lat="40.8412667" lon="9.113565"><ele>878.0</ele><time>2026-05-01T12:00:46.675Z</time></trkpt><trkpt lat="40.8413233" lon="9.113615"><ele>878.0</ele><time>2026-05-01T12:01:11.675Z</time></trkpt><trkpt lat="40.841395" lon="9.113605"><ele>878.0000000000001</ele><time>2026-05-01T12:01:35.675Z</time></trkpt><trkpt lat="40.8414633" lon="9.1135717"><ele>878.0</ele><time>2026-05-01T12:01:39.675Z</time></trkpt><trkpt lat="40.841515" lon="9.113515"><ele>878.0</ele><time>2026-05-01T12:01:46.675Z</time></trkpt><trkpt lat="40.8415017" lon="9.113425"><ele>878.0</ele><time>2026-05-01T12:01:47.675Z</time></trkpt><trkpt lat="40.8414733" lon="9.1132817"><ele>878.0</ele><time>2026-05-01T12:01:49.675Z</time></trkpt><trkpt lat="40.8414667" lon="9.113115"><ele>878.0</ele><time>2026-05-01T12:01:51.675Z</time></trkpt><trkpt lat="40.8414517" lon="9.1130133"><ele>878.0</ele><time>2026-05-01T12:01:52.675Z</time></trkpt><trkpt lat="40.841465" lon="9.1129183"><ele>876.6666666666667</ele><time>2026-05-01T12:01:53.675Z</time></trkpt><trkpt lat="40.8414767" lon="9.1128133"><ele>875.3333333333334</ele><time>2026-05-01T12:01:54.675Z</time></trkpt><trkpt lat="40.8414717" lon="9.1127133"><ele>874.0</ele><time>2026-05-01T12:01:55.675Z</time></trkpt><trkpt lat="40.8414633" lon="9.1126017"><ele>872.6666666666667</ele><time>2026-05-01T12:01:56.675Z</time></trkpt><trkpt lat="40.8414467" lon="9.1124833"><ele>871.3333333333334</ele><time>2026-05-01T12:01:57.675Z</time></trkpt><trkpt lat="40.841425" lon="9.1123633"><ele>870.0</ele><time>2026-05-01T12:01:58.675Z</time></trkpt><trkpt lat="40.8414117" lon="9.1122367"><ele>866.8</ele><time>2026-05-01T12:01:59.675Z</time></trkpt><trkpt lat="40.8413967" lon="9.1121033"><ele>863.6</ele><time>2026-05-01T12:02:00.675Z</time></trkpt><trkpt lat="40.8413783" lon="9.1119533"><ele>860.4000000000001</ele><time>2026-05-01T12:02:01.675Z</time></trkpt><trkpt lat="40.8413567" lon="9.111825"><ele>857.2</ele><time>2026-05-01T12:02:02.675Z</time></trkpt><trkpt lat="40.8413317" lon="9.1117067"><ele>854.0</ele><time>2026-05-01T12:02:03.675Z</time></trkpt><trkpt lat="40.8413033" lon="9.111585"><ele>850.0</ele><time>2026-05-01T12:02:04.675Z</time></trkpt><trkpt lat="40.8412567" lon="9.1114617"><ele>846.0000000000001</ele><time>2026-05-01T12:02:05.675Z</time></trkpt><trkpt lat="40.84122" lon="9.1113417"><ele>842.0</ele><time>2026-05-01T12:02:06.675Z</time></trkpt><trkpt lat="40.8411533" lon="9.1111883"><ele>838.0</ele><time>2026-05-01T12:02:07.675Z</time></trkpt><trkpt lat="40.8411167" lon="9.1110667"><ele>834.0</ele><time>2026-05-01T12:02:08.675Z</time></trkpt><trkpt lat="40.8410733" lon="9.1109567"><ele>834.0</ele><time>2026-05-01T12:02:09.675Z</time></trkpt><trkpt lat="40.84102" lon="9.1108533"><ele>834.0</ele><time>2026-05-01T12:02:10.675Z</time></trkpt><trkpt lat="40.8409533" lon="9.1107617"><ele>834.0</ele><time>2026-05-01T12:02:11.675Z</time></trkpt><trkpt lat="40.840895" lon="9.1106633"><ele>834.0</ele><time>2026-05-01T12:02:12.675Z</time></trkpt><trkpt lat="40.84081" lon="9.1106167"><ele>834.0</ele><time>2026-05-01T12:02:13.675Z</time></trkpt><trkpt lat="40.8407217" lon="9.1105433"><ele>832.0</ele><time>2026-05-01T12:02:14.675Z</time></trkpt><trkpt lat="40.840615" lon="9.110475"><ele>830.0</ele><time>2026-05-01T12:02:15.675Z</time></trkpt><trkpt lat="40.8405067" lon="9.1104067"><ele>828.0</ele><time>2026-05-01T12:02:16.675Z</time></trkpt><trkpt lat="40.8404033" lon="9.110325"><ele>826.0</ele><time>2026-05-01T12:02:17.675Z</time></trkpt><trkpt lat="40.8403333" lon="9.1102233"><ele>826.0</ele><time>2026-05-01T12:02:18.675Z</time></trkpt><trkpt lat="40.8402767" lon="9.11008"><ele>826.0</ele><time>2026-05-01T12:02:20.675Z</time></trkpt><trkpt lat="40.84022" lon="9.1100033"><ele>826.0</ele><time>2026-05-01T12:02:21.675Z</time></trkpt><trkpt lat="40.8401467" lon="9.1099283"><ele>826.0</ele><time>2026-05-01T12:02:22.676Z</time></trkpt><trkpt lat="40.8400667" lon="9.1098583"><ele>826.0</ele><time>2026-05-01T12:02:23.675Z</time></trkpt><trkpt lat="40.8399733" lon="9.1097917"><ele>825.1999999999999</ele><time>2026-05-01T12:02:24.675Z</time></trkpt><trkpt lat="40.8398767" lon="9.1097383"><ele>824.4</ele><time>2026-05-01T12:02:25.675Z</time></trkpt><trkpt lat="40.8397933" lon="9.109665"><ele>823.6</ele><time>2026-05-01T12:02:26.675Z</time></trkpt><trkpt lat="40.8397267" lon="9.109595"><ele>822.8</ele><time>2026-05-01T12:02:27.675Z</time></trkpt><trkpt lat="40.8396567" lon="9.109465"><ele>822.0</ele><time>2026-05-01T12:02:28.675Z</time></trkpt><trkpt lat="40.8396033" lon="9.1093667"><ele>822.0</ele><time>2026-05-01T12:02:29.675Z</time></trkpt><trkpt lat="40.8395733" lon="9.1092583"><ele>822.0</ele><time>2026-05-01T12:02:30.675Z</time></trkpt><trkpt lat="40.839565" lon="9.1091367"><ele>822.0</ele><time>2026-05-01T12:02:31.675Z</time></trkpt><trkpt lat="40.8395383" lon="9.1090117"><ele>822.0</ele><time>2026-05-01T12:02:32.675Z</time></trkpt><trkpt lat="40.8395" lon="9.108895"><ele>822.0</ele><time>2026-05-01T12:02:33.675Z</time></trkpt><trkpt lat="40.8394417" lon="9.1087717"><ele>821.0</ele><time>2026-05-01T12:02:34.675Z</time></trkpt><trkpt lat="40.8393867" lon="9.1086417"><ele>820.0</ele><time>2026-05-01T12:02:35.675Z</time></trkpt><trkpt lat="40.83933" lon="9.1085117"><ele>819.0</ele><time>2026-05-01T12:02:36.675Z</time></trkpt><trkpt lat="40.8392833" lon="9.1083833"><ele>818.0</ele><time>2026-05-01T12:02:37.675Z</time></trkpt><trkpt lat="40.8392333" lon="9.1082783"><ele>817.0</ele><time>2026-05-01T12:02:38.675Z</time></trkpt><trkpt lat="40.8391967" lon="9.1081417"><ele>816.9999999999999</ele><time>2026-05-01T12:02:39.675Z</time></trkpt><trkpt lat="40.839185" lon="9.108045"><ele>817.0</ele><time>2026-05-01T12:02:40.675Z</time></trkpt><trkpt lat="40.8391483" lon="9.1079117"><ele>817.0</ele><time>2026-05-01T12:02:41.675Z</time></trkpt><trkpt lat="40.8391" lon="9.1077967"><ele>817.0</ele><time>2026-05-01T12:02:42.675Z</time></trkpt><trkpt lat="40.8390417" lon="9.107695"><ele>816.9999999999999</ele><time>2026-05-01T12:02:43.675Z</time></trkpt><trkpt lat="40.8390183" lon="9.1076117"><ele>817.0</ele><time>2026-05-01T12:02:44.675Z</time></trkpt><trkpt lat="40.839015" lon="9.1074767"><ele>817.0</ele><time>2026-05-01T12:02:46.675Z</time></trkpt><trkpt lat="40.8390717" lon="9.10742"><ele>817.0</ele><time>2026-05-01T12:02:47.675Z</time></trkpt><trkpt lat="40.8391417" lon="9.1073667"><ele>817.0</ele><time>2026-05-01T12:02:49.675Z</time></trkpt><trkpt lat="40.8392617" lon="9.1074367"><ele>817.0</ele><time>2026-05-01T12:02:51.675Z</time></trkpt><trkpt lat="40.839335" lon="9.1075217"><ele>817.0</ele><time>2026-05-01T12:02:52.675Z</time></trkpt><trkpt lat="40.8394183" lon="9.1076433"><ele>813.75</ele><time>2026-05-01T12:02:53.675Z</time></trkpt><trkpt lat="40.8395133" lon="9.1077783"><ele>810.5</ele><time>2026-05-01T12:02:54.675Z</time></trkpt><trkpt lat="40.839625" lon="9.1079233"><ele>807.25</ele><time>2026-05-01T12:02:55.675Z</time></trkpt><trkpt lat="40.83972" lon="9.1080567"><ele>804.0</ele><time>2026-05-01T12:02:56.675Z</time></trkpt><trkpt lat="40.8399083" lon="9.108255"><ele>804.0</ele><time>2026-05-01T12:02:57.675Z</time></trkpt><trkpt lat="40.8399967" lon="9.108325"><ele>804.0</ele><time>2026-05-01T12:02:58.675Z</time></trkpt><trkpt lat="40.8400883" lon="9.108445"><ele>804.0</ele><time>2026-05-01T12:02:59.675Z</time></trkpt><trkpt lat="40.8401667" lon="9.1085417"><ele>804.0</ele><time>2026-05-01T12:03:00.675Z</time></trkpt><trkpt lat="40.84023" lon="9.1086083"><ele>804.0</ele><time>2026-05-01T12:03:01.675Z</time></trkpt><trkpt lat="40.8403133" lon="9.1086367"><ele>801.8000000000001</ele><time>2026-05-01T12:03:02.675Z</time></trkpt><trkpt lat="40.840435" lon="9.1086683"><ele>799.6</ele><time>2026-05-01T12:03:04.675Z</time></trkpt><trkpt lat="40.8404983" lon="9.1086767"><ele>797.4</ele><time>2026-05-01T12:03:05.675Z</time></trkpt><trkpt lat="40.8406017" lon="9.10871"><ele>795.2</ele><time>2026-05-01T12:03:07.675Z</time></trkpt><trkpt lat="40.8405983" lon="9.1086217"><ele>793.0</ele><time>2026-05-01T12:03:11.675Z</time></trkpt><trkpt lat="40.8405383" lon="9.1084517"><ele>793.0</ele><time>2026-05-01T12:03:13.676Z</time></trkpt><trkpt lat="40.840515" lon="9.1083467"><ele>793.0</ele><time>2026-05-01T12:03:14.675Z</time></trkpt><trkpt lat="40.8405083" lon="9.1082483"><ele>793.0</ele><time>2026-05-01T12:03:15.675Z</time></trkpt><trkpt lat="40.8404217" lon="9.1080383"><ele>793.0</ele><time>2026-05-01T12:03:16.675Z</time></trkpt><trkpt lat="40.8403667" lon="9.1078783"><ele>786.6666666666666</ele><time>2026-05-01T12:03:17.675Z</time></trkpt><trkpt lat="40.8402433" lon="9.107635"><ele>780.3333333333333</ele><time>2026-05-01T12:03:18.675Z</time></trkpt><trkpt lat="40.8401617" lon="9.107445"><ele>774.0</ele><time>2026-05-01T12:03:19.675Z</time></trkpt><trkpt lat="40.8400633" lon="9.1072283"><ele>774.0</ele><time>2026-05-01T12:03:20.675Z</time></trkpt><trkpt lat="40.83998" lon="9.10703"><ele>774.0</ele><time>2026-05-01T12:03:21.675Z</time></trkpt><trkpt lat="40.83993" lon="9.1068733"><ele>774.0</ele><time>2026-05-01T12:03:22.675Z</time></trkpt><trkpt lat="40.8399117" lon="9.106765"><ele>774.0</ele><time>2026-05-01T12:03:23.675Z</time></trkpt><trkpt lat="40.839915" lon="9.106675"><ele>770.5</ele><time>2026-05-01T12:03:24.675Z</time></trkpt><trkpt lat="40.8399617" lon="9.1065617"><ele>767.0</ele><time>2026-05-01T12:03:26.675Z</time></trkpt><trkpt lat="40.8400717" lon="9.106535"><ele>763.5</ele><time>2026-05-01T12:03:28.676Z</time></trkpt><trkpt lat="40.8402217" lon="9.106605"><ele>760.0</ele><time>2026-05-01T12:03:30.675Z</time></trkpt><trkpt lat="40.8403383" lon="9.1066833"><ele>759.2</ele><time>2026-05-01T12:03:31.675Z</time></trkpt><trkpt lat="40.8404717" lon="9.106755"><ele>758.4</ele><time>2026-05-01T12:03:32.675Z</time></trkpt><trkpt lat="40.8405567" lon="9.1067833"><ele>757.5999999999999</ele><time>2026-05-01T12:03:33.675Z</time></trkpt><trkpt lat="40.8406383" lon="9.1067967"><ele>756.8</ele><time>2026-05-01T12:03:34.675Z</time></trkpt><trkpt lat="40.8407117" lon="9.1067667"><ele>756.0</ele><time>2026-05-01T12:03:35.675Z</time></trkpt><trkpt lat="40.84077" lon="9.1067183"><ele>756.0</ele><time>2026-05-01T12:03:36.675Z</time></trkpt><trkpt lat="40.8408217" lon="9.1066283"><ele>756.0</ele><time>2026-05-01T12:03:38.675Z</time></trkpt><trkpt lat="40.8407983" lon="9.1065183"><ele>756.0</ele><time>2026-05-01T12:03:40.675Z</time></trkpt><trkpt lat="40.84071" lon="9.1063867"><ele>756.0</ele><time>2026-05-01T12:03:42.675Z</time></trkpt><trkpt lat="40.8406467" lon="9.1062967"><ele>756.0</ele><time>2026-05-01T12:03:43.675Z</time></trkpt><trkpt lat="40.84058" lon="9.1061783"><ele>752.5999999999999</ele><time>2026-05-01T12:03:44.675Z</time></trkpt><trkpt lat="40.840505" lon="9.106045"><ele>749.2</ele><time>2026-05-01T12:03:45.675Z</time></trkpt><trkpt lat="40.84041" lon="9.1059383"><ele>745.8</ele><time>2026-05-01T12:03:46.675Z</time></trkpt><trkpt lat="40.8403367" lon="9.1058433"><ele>742.4000000000001</ele><time>2026-05-01T12:03:47.675Z</time></trkpt><trkpt lat="40.84029" lon="9.1057667"><ele>739.0</ele><time>2026-05-01T12:03:48.675Z</time></trkpt><trkpt lat="40.8402667" lon="9.1056633"><ele>739.0</ele><time>2026-05-01T12:03:50.675Z</time></trkpt><trkpt lat="40.84034" lon="9.1057483"><ele>739.0</ele><time>2026-05-01T12:03:54.675Z</time></trkpt><trkpt lat="40.8404867" lon="9.1058417"><ele>739.0</ele><time>2026-05-01T12:03:56.675Z</time></trkpt><trkpt lat="40.8405933" lon="9.1059033"><ele>739.0</ele><time>2026-05-01T12:03:57.675Z</time></trkpt><trkpt lat="40.8407167" lon="9.1059667"><ele>739.0</ele><time>2026-05-01T12:03:58.675Z</time></trkpt><trkpt lat="40.840805" lon="9.1060067"><ele>739.0</ele><time>2026-05-01T12:03:59.675Z</time></trkpt><trkpt lat="40.84094" lon="9.1060467"><ele>739.0</ele><time>2026-05-01T12:04:00.675Z</time></trkpt><trkpt lat="40.8410683" lon="9.1060733"><ele>739.0</ele><time>2026-05-01T12:04:01.675Z</time></trkpt><trkpt lat="40.8411783" lon="9.1060883"><ele>735.6666666666667</ele><time>2026-05-01T12:04:02.675Z</time></trkpt><trkpt lat="40.84127" lon="9.1061033"><ele>732.3333333333334</ele><time>2026-05-01T12:04:03.675Z</time></trkpt><trkpt lat="40.8413433" lon="9.1061117"><ele>729.0</ele><time>2026-05-01T12:04:04.675Z</time></trkpt><trkpt lat="40.8414317" lon="9.1060683"><ele>725.6666666666666</ele><time>2026-05-01T12:04:06.675Z</time></trkpt><trkpt lat="40.8415017" lon="9.105995"><ele>722.3333333333333</ele><time>2026-05-01T12:04:08.675Z</time></trkpt><trkpt lat="40.841525" lon="9.1059"><ele>719.0</ele><time>2026-05-01T12:04:10.675Z</time></trkpt><trkpt lat="40.84146" lon="9.10576"><ele>716.8000000000001</ele><time>2026-05-01T12:04:12.675Z</time></trkpt><trkpt lat="40.841405" lon="9.1056767"><ele>714.6</ele><time>2026-05-01T12:04:13.675Z</time></trkpt><trkpt lat="40.84133" lon="9.1055783"><ele>712.4</ele><time>2026-05-01T12:04:14.675Z</time></trkpt><trkpt lat="40.841235" lon="9.1054833"><ele>710.2</ele><time>2026-05-01T12:04:15.675Z</time></trkpt><trkpt lat="40.8411533" lon="9.105395"><ele>708.0</ele><time>2026-05-01T12:04:16.675Z</time></trkpt><trkpt lat="40.8410767" lon="9.1053117"><ele>708.0</ele><time>2026-05-01T12:04:17.675Z</time></trkpt><trkpt lat="40.84099" lon="9.1052367"><ele>708.0</ele><time>2026-05-01T12:04:18.676Z</time></trkpt><trkpt lat="40.84088" lon="9.10517"><ele>708.0</ele><time>2026-05-01T12:04:19.675Z</time></trkpt><trkpt lat="40.8407783" lon="9.1050933"><ele>708.0</ele><time>2026-05-01T12:04:20.676Z</time></trkpt><trkpt lat="40.8406817" lon="9.1050083"><ele>709.3333333333334</ele><time>2026-05-01T12:04:21.675Z</time></trkpt><trkpt lat="40.8405817" lon="9.1049417"><ele>710.6666666666666</ele><time>2026-05-01T12:04:22.675Z</time></trkpt><trkpt lat="40.8405033" lon="9.1048667"><ele>712.0</ele><time>2026-05-01T12:04:23.675Z</time></trkpt><trkpt lat="40.8404383" lon="9.1047933"><ele>713.3333333333333</ele><time>2026-05-01T12:04:24.675Z</time></trkpt><trkpt lat="40.8403867" lon="9.1047283"><ele>714.6666666666666</ele><time>2026-05-01T12:04:25.675Z</time></trkpt><trkpt lat="40.8403433" lon="9.10466"><ele>716.0</ele><time>2026-05-01T12:04:26.675Z</time></trkpt><trkpt lat="40.8402983" lon="9.1045883"><ele>712.0</ele><time>2026-05-01T12:04:27.675Z</time></trkpt><trkpt lat="40.8403783" lon="9.10456"><ele>708.0</ele><time>2026-05-01T12:04:30.675Z</time></trkpt><trkpt lat="40.8404433" lon="9.104605"><ele>704.0</ele><time>2026-05-01T12:04:32.675Z</time></trkpt><trkpt lat="40.8405083" lon="9.1046467"><ele>700.0</ele><time>2026-05-01T12:04:33.675Z</time></trkpt><trkpt lat="40.8405983" lon="9.1047117"><ele>696.0</ele><time>2026-05-01T12:04:34.675Z</time></trkpt><trkpt lat="40.840705" lon="9.104785"><ele>696.0</ele><time>2026-05-01T12:04:35.675Z</time></trkpt><trkpt lat="40.8407967" lon="9.1048483"><ele>696.0</ele><time>2026-05-01T12:04:36.675Z</time></trkpt><trkpt lat="40.840875" lon="9.1048917"><ele>696.0</ele><time>2026-05-01T12:04:37.675Z</time></trkpt><trkpt lat="40.84095" lon="9.104915"><ele>696.0</ele><time>2026-05-01T12:04:38.675Z</time></trkpt><trkpt lat="40.8410183" lon="9.104935"><ele>696.0</ele><time>2026-05-01T12:04:39.675Z</time></trkpt><trkpt lat="40.8410983" lon="9.1049183"><ele>696.0</ele><time>2026-05-01T12:04:41.675Z</time></trkpt><trkpt lat="40.84111" lon="9.1048167"><ele>696.0</ele><time>2026-05-01T12:04:45.675Z</time></trkpt><trkpt lat="40.84105" lon="9.1047083"><ele>696.0</ele><time>2026-05-01T12:04:46.675Z</time></trkpt><trkpt lat="40.8410133" lon="9.10464"><ele>696.0</ele><time>2026-05-01T12:04:47.675Z</time></trkpt><trkpt lat="40.84095" lon="9.10456"><ele>696.0</ele><time>2026-05-01T12:04:48.675Z</time></trkpt><trkpt lat="40.840785" lon="9.1043983"><ele>696.0</ele><time>2026-05-01T12:04:49.676Z</time></trkpt><trkpt lat="40.8407283" lon="9.1043033"><ele>696.0</ele><time>2026-05-01T12:04:50.675Z</time></trkpt><trkpt lat="40.8406783" lon="9.104205"><ele>696.0</ele><time>2026-05-01T12:04:51.675Z</time></trkpt><trkpt lat="40.8406233" lon="9.1041467"><ele>696.0</ele><time>2026-05-01T12:04:52.675Z</time></trkpt><trkpt lat="40.8405633" lon="9.1040883"><ele>696.0</ele><time>2026-05-01T12:04:53.675Z</time></trkpt><trkpt lat="40.8405133" lon="9.1039833"><ele>696.0</ele><time>2026-05-01T12:04:55.675Z</time></trkpt><trkpt lat="40.8405783" lon="9.1039117"><ele>692.6666666666666</ele><time>2026-05-01T12:04:58.675Z</time></trkpt><trkpt lat="40.8406717" lon="9.1039433"><ele>689.3333333333334</ele><time>2026-05-01T12:05:00.674Z</time></trkpt><trkpt lat="40.8407433" lon="9.1039883"><ele>686.0</ele><time>2026-05-01T12:05:01.674Z</time></trkpt><trkpt lat="40.8408517" lon="9.103995"><ele>682.6666666666667</ele><time>2026-05-01T12:05:03.675Z</time></trkpt><trkpt lat="40.8409217" lon="9.1039833"><ele>679.3333333333334</ele><time>2026-05-01T12:05:04.674Z</time></trkpt><trkpt lat="40.8410067" lon="9.103965"><ele>676.0</ele><time>2026-05-01T12:05:05.674Z</time></trkpt><trkpt lat="40.841115" lon="9.1039383"><ele>675.25</ele><time>2026-05-01T12:05:06.674Z</time></trkpt><trkpt lat="40.8412433" lon="9.10391"><ele>674.5</ele><time>2026-05-01T12:05:07.674Z</time></trkpt><trkpt lat="40.8413517" lon="9.103865"><ele>673.75</ele><time>2026-05-01T12:05:08.674Z</time></trkpt><trkpt lat="40.8414533" lon="9.10381"><ele>673.0</ele><time>2026-05-01T12:05:09.674Z</time></trkpt><trkpt lat="40.8415483" lon="9.10376"><ele>673.0</ele><time>2026-05-01T12:05:10.675Z</time></trkpt><trkpt lat="40.84164" lon="9.103715"><ele>673.0</ele><time>2026-05-01T12:05:11.674Z</time></trkpt><trkpt lat="40.841735" lon="9.1036817"><ele>673.0</ele><time>2026-05-01T12:05:12.674Z</time></trkpt><trkpt lat="40.8418333" lon="9.10365"><ele>673.0</ele><time>2026-05-01T12:05:13.674Z</time></trkpt><trkpt lat="40.8419283" lon="9.1036117"><ele>673.0</ele><time>2026-05-01T12:05:14.674Z</time></trkpt><trkpt lat="40.8419983" lon="9.103565"><ele>673.6666666666667</ele><time>2026-05-01T12:05:15.674Z</time></trkpt><trkpt lat="40.8420817" lon="9.1035283"><ele>674.3333333333334</ele><time>2026-05-01T12:05:16.674Z</time></trkpt><trkpt lat="40.8421633" lon="9.1034833"><ele>675.0</ele><time>2026-05-01T12:05:17.674Z</time></trkpt><trkpt lat="40.842235" lon="9.103445"><ele>675.6666666666666</ele><time>2026-05-01T12:05:18.674Z</time></trkpt><trkpt lat="40.8423183" lon="9.1034083"><ele>676.3333333333333</ele><time>2026-05-01T12:05:19.674Z</time></trkpt><trkpt lat="40.8423883" lon="9.1033417"><ele>677.0</ele><time>2026-05-01T12:05:20.674Z</time></trkpt><trkpt lat="40.8424417" lon="9.103255"><ele>676.9999999999999</ele><time>2026-05-01T12:05:21.674Z</time></trkpt><trkpt lat="40.8424833" lon="9.1031833"><ele>677.0</ele><time>2026-05-01T12:05:22.674Z</time></trkpt><trkpt lat="40.84253" lon="9.1031233"><ele>677.0</ele><time>2026-05-01T12:05:23.674Z</time></trkpt><trkpt lat="40.8425933" lon="9.10304"><ele>677.0</ele><time>2026-05-01T12:05:25.674Z</time></trkpt><trkpt lat="40.8426583" lon="9.102985"><ele>677.0</ele><time>2026-05-01T12:05:27.674Z</time></trkpt><trkpt lat="40.8427083" lon="9.103055"><ele>676.9999999999999</ele><time>2026-05-01T12:05:38.674Z</time></trkpt><trkpt lat="40.84267" lon="9.1029883"><ele>677.0</ele><time>2026-05-01T12:05:40.674Z</time></trkpt><trkpt lat="40.84262" lon="9.10285"><ele>677.0</ele><time>2026-05-01T12:05:42.674Z</time></trkpt><trkpt lat="40.8425983" lon="9.10275"><ele>677.0</ele><time>2026-05-01T12:05:43.674Z</time></trkpt><trkpt lat="40.84257" lon="9.1026383"><ele>677.0</ele><time>2026-05-01T12:05:44.674Z</time></trkpt><trkpt lat="40.8425233" lon="9.10255"><ele>677.0</ele><time>2026-05-01T12:05:45.674Z</time></trkpt><trkpt lat="40.8424717" lon="9.1024617"><ele>677.0</ele><time>2026-05-01T12:05:46.674Z</time></trkpt><trkpt lat="40.8424367" lon="9.10236"><ele>677.0</ele><time>2026-05-01T12:05:47.674Z</time></trkpt><trkpt lat="40.842405" lon="9.1022733"><ele>679.4000000000001</ele><time>2026-05-01T12:05:48.674Z</time></trkpt><trkpt lat="40.8424033" lon="9.1021883"><ele>681.8000000000001</ele><time>2026-05-01T12:05:49.674Z</time></trkpt><trkpt lat="40.84246" lon="9.1020883"><ele>684.2</ele><time>2026-05-01T12:05:51.674Z</time></trkpt><trkpt lat="40.8425917" lon="9.10216"><ele>686.6</ele><time>2026-05-01T12:05:53.674Z</time></trkpt><trkpt lat="40.8426817" lon="9.1022483"><ele>689.0</ele><time>2026-05-01T12:05:54.674Z</time></trkpt><trkpt lat="40.8427717" lon="9.10233"><ele>689.0</ele><time>2026-05-01T12:05:55.674Z</time></trkpt><trkpt lat="40.8428567" lon="9.1023817"><ele>689.0</ele><time>2026-05-01T12:05:56.674Z</time></trkpt><trkpt lat="40.8429533" lon="9.10241"><ele>689.0</ele><time>2026-05-01T12:05:57.674Z</time></trkpt><trkpt lat="40.8430667" lon="9.10245"><ele>689.0</ele><time>2026-05-01T12:05:58.674Z</time></trkpt><trkpt lat="40.8432" lon="9.10251"><ele>689.0</ele><time>2026-05-01T12:05:59.674Z</time></trkpt><trkpt lat="40.8433317" lon="9.1025667"><ele>689.0</ele><time>2026-05-01T12:06:00.674Z</time></trkpt><trkpt lat="40.8434217" lon="9.1026033"><ele>689.0</ele><time>2026-05-01T12:06:01.674Z</time></trkpt><trkpt lat="40.8435183" lon="9.1026433"><ele>689.0</ele><time>2026-05-01T12:06:02.674Z</time></trkpt><trkpt lat="40.84361" lon="9.1026867"><ele>689.0</ele><time>2026-05-01T12:06:03.674Z</time></trkpt><trkpt lat="40.8437133" lon="9.102595"><ele>688.6</ele><time>2026-05-01T12:06:04.674Z</time></trkpt><trkpt lat="40.84379" lon="9.1025217"><ele>688.2</ele><time>2026-05-01T12:06:05.674Z</time></trkpt><trkpt lat="40.8438533" lon="9.1024617"><ele>687.8000000000001</ele><time>2026-05-01T12:06:06.674Z</time></trkpt><trkpt lat="40.8438017" lon="9.1022617"><ele>687.4000000000001</ele><time>2026-05-01T12:06:08.674Z</time></trkpt><trkpt lat="40.8437067" lon="9.1022067"><ele>687.0</ele><time>2026-05-01T12:06:09.674Z</time></trkpt><trkpt lat="40.8435683" lon="9.102115"><ele>696.6666666666666</ele><time>2026-05-01T12:06:10.674Z</time></trkpt><trkpt lat="40.8434283" lon="9.1019967"><ele>706.3333333333333</ele><time>2026-05-01T12:06:11.674Z</time></trkpt><trkpt lat="40.84324" lon="9.1018683"><ele>716.0</ele><time>2026-05-01T12:06:12.674Z</time></trkpt><trkpt lat="40.8430483" lon="9.101715"><ele>721.6666666666666</ele><time>2026-05-01T12:06:13.674Z</time></trkpt><trkpt lat="40.8429383" lon="9.101545"><ele>727.3333333333334</ele><time>2026-05-01T12:06:14.674Z</time></trkpt><trkpt lat="40.8428633" lon="9.1013533"><ele>733.0</ele><time>2026-05-01T12:06:15.674Z</time></trkpt><trkpt lat="40.8428367" lon="9.1011833"><ele>733.0</ele><time>2026-05-01T12:06:16.674Z</time></trkpt><trkpt lat="40.8428167" lon="9.10101"><ele>733.0</ele><time>2026-05-01T12:06:17.674Z</time></trkpt><trkpt lat="40.842815" lon="9.1008533"><ele>733.0</ele><time>2026-05-01T12:06:18.674Z</time></trkpt><trkpt lat="40.84285" lon="9.1006367"><ele>733.0</ele><time>2026-05-01T12:06:19.674Z</time></trkpt><trkpt lat="40.8428767" lon="9.100415"><ele>735.25</ele><time>2026-05-01T12:06:20.674Z</time></trkpt><trkpt lat="40.8429217" lon="9.1002233"><ele>737.5</ele><time>2026-05-01T12:06:21.674Z</time></trkpt><trkpt lat="40.84296" lon="9.1000317"><ele>739.75</ele><time>2026-05-01T12:06:22.674Z</time></trkpt><trkpt lat="40.843" lon="9.099845"><ele>742.0</ele><time>2026-05-01T12:06:23.674Z</time></trkpt><trkpt lat="40.843005" lon="9.0996917"><ele>744.0</ele><time>2026-05-01T12:06:24.674Z</time></trkpt><trkpt lat="40.8429917" lon="9.09953"><ele>746.0</ele><time>2026-05-01T12:06:25.674Z</time></trkpt><trkpt lat="40.8429717" lon="9.0993617"><ele>748.0</ele><time>2026-05-01T12:06:26.674Z</time></trkpt><trkpt lat="40.84294" lon="9.0991683"><ele>750.0</ele><time>2026-05-01T12:06:27.674Z</time></trkpt><trkpt lat="40.84292" lon="9.0989883"><ele>753.25</ele><time>2026-05-01T12:06:28.674Z</time></trkpt><trkpt lat="40.8429033" lon="9.098815"><ele>756.5</ele><time>2026-05-01T12:06:29.674Z</time></trkpt><trkpt lat="40.8428817" lon="9.098645"><ele>759.75</ele><time>2026-05-01T12:06:30.674Z</time></trkpt><trkpt lat="40.84286" lon="9.098475"><ele>763.0</ele><time>2026-05-01T12:06:31.674Z</time></trkpt><trkpt lat="40.84283" lon="9.0983117"><ele>765.25</ele><time>2026-05-01T12:06:32.674Z</time></trkpt><trkpt lat="40.8427883" lon="9.0981483"><ele>767.5</ele><time>2026-05-01T12:06:33.674Z</time></trkpt><trkpt lat="40.84272" lon="9.0979933"><ele>769.75</ele><time>2026-05-01T12:06:34.674Z</time></trkpt><trkpt lat="40.8426783" lon="9.0978267"><ele>772.0</ele><time>2026-05-01T12:06:35.674Z</time></trkpt><trkpt lat="40.8426717" lon="9.097675"><ele>771.9999999999999</ele><time>2026-05-01T12:06:36.674Z</time></trkpt><trkpt lat="40.8426683" lon="9.0975233"><ele>772.0</ele><time>2026-05-01T12:06:37.674Z</time></trkpt><trkpt lat="40.8426683" lon="9.097405"><ele>772.0</ele><time>2026-05-01T12:06:38.674Z</time></trkpt><trkpt lat="40.8426617" lon="9.0973133"><ele>772.0</ele><time>2026-05-01T12:06:39.674Z</time></trkpt><trkpt lat="40.8426417" lon="9.097205"><ele>771.9999999999999</ele><time>2026-05-01T12:06:41.674Z</time></trkpt><trkpt lat="40.8426333" lon="9.09712"><ele>772.0</ele><time>2026-05-01T12:06:53.675Z</time></trkpt><trkpt lat="40.8425783" lon="9.0969567"><ele>769.5</ele><time>2026-05-01T12:06:55.674Z</time></trkpt><trkpt lat="40.8425217" lon="9.0968217"><ele>767.0</ele><time>2026-05-01T12:06:56.674Z</time></trkpt><trkpt lat="40.8424617" lon="9.0966967"><ele>764.5</ele><time>2026-05-01T12:06:57.674Z</time></trkpt><trkpt lat="40.8423867" lon="9.0965567"><ele>762.0</ele><time>2026-05-01T12:06:58.674Z</time></trkpt><trkpt lat="40.842305" lon="9.0964267"><ele>762.0</ele><time>2026-05-01T12:06:59.674Z</time></trkpt><trkpt lat="40.84222" lon="9.0962633"><ele>762.0</ele><time>2026-05-01T12:07:00.674Z</time></trkpt><trkpt lat="40.842135" lon="9.0960883"><ele>762.0</ele><time>2026-05-01T12:07:01.674Z</time></trkpt><trkpt lat="40.842055" lon="9.09592"><ele>766.6666666666667</ele><time>2026-05-01T12:07:02.674Z</time></trkpt><trkpt lat="40.8419717" lon="9.0957233"><ele>771.3333333333334</ele><time>2026-05-01T12:07:03.674Z</time></trkpt><trkpt lat="40.8418983" lon="9.0955583"><ele>776.0</ele><time>2026-05-01T12:07:04.674Z</time></trkpt><trkpt lat="40.8418183" lon="9.0954"><ele>773.25</ele><time>2026-05-01T12:07:05.674Z</time></trkpt><trkpt lat="40.8417417" lon="9.0952383"><ele>770.5</ele><time>2026-05-01T12:07:06.674Z</time></trkpt><trkpt lat="40.84167" lon="9.0950767"><ele>767.75</ele><time>2026-05-01T12:07:07.674Z</time></trkpt><trkpt lat="40.8416133" lon="9.0949183"><ele>765.0</ele><time>2026-05-01T12:07:08.674Z</time></trkpt><trkpt lat="40.84157" lon="9.0947533"><ele>765.0</ele><time>2026-05-01T12:07:09.674Z</time></trkpt><trkpt lat="40.84153" lon="9.0945917"><ele>765.0</ele><time>2026-05-01T12:07:10.674Z</time></trkpt><trkpt lat="40.8414833" lon="9.094425"><ele>765.0</ele><time>2026-05-01T12:07:11.674Z</time></trkpt><trkpt lat="40.8414283" lon="9.0942433"><ele>765.0</ele><time>2026-05-01T12:07:12.674Z</time></trkpt><trkpt lat="40.841345" lon="9.0940733"><ele>767.3333333333333</ele><time>2026-05-01T12:07:13.674Z</time></trkpt><trkpt lat="40.8412217" lon="9.0939167"><ele>769.6666666666666</ele><time>2026-05-01T12:07:14.674Z</time></trkpt><trkpt lat="40.841125" lon="9.0937483"><ele>772.0</ele><time>2026-05-01T12:07:15.674Z</time></trkpt><trkpt lat="40.8410533" lon="9.0935867"><ele>772.0</ele><time>2026-05-01T12:07:16.674Z</time></trkpt><trkpt lat="40.8409983" lon="9.0934317"><ele>772.0</ele><time>2026-05-01T12:07:17.674Z</time></trkpt><trkpt lat="40.8409617" lon="9.093275"><ele>772.0</ele><time>2026-05-01T12:07:18.674Z</time></trkpt><trkpt lat="40.8409417" lon="9.0931083"><ele>772.0</ele><time>2026-05-01T12:07:19.674Z</time></trkpt><trkpt lat="40.8409167" lon="9.09293"><ele>773.5</ele><time>2026-05-01T12:07:20.674Z</time></trkpt><trkpt lat="40.8408833" lon="9.092755"><ele>775.0</ele><time>2026-05-01T12:07:21.674Z</time></trkpt><trkpt lat="40.8408083" lon="9.092575"><ele>776.5</ele><time>2026-05-01T12:07:22.674Z</time></trkpt><trkpt lat="40.840735" lon="9.0923967"><ele>778.0</ele><time>2026-05-01T12:07:23.674Z</time></trkpt><trkpt lat="40.8406517" lon="9.09221"><ele>778.0</ele><time>2026-05-01T12:07:24.674Z</time></trkpt><trkpt lat="40.8405667" lon="9.0920067"><ele>778.0</ele><time>2026-05-01T12:07:25.674Z</time></trkpt><trkpt lat="40.8404767" lon="9.0918383"><ele>778.0</ele><time>2026-05-01T12:07:26.674Z</time></trkpt><trkpt lat="40.8403717" lon="9.09168"><ele>778.0</ele><time>2026-05-01T12:07:27.674Z</time></trkpt><trkpt lat="40.8402667" lon="9.091535"><ele>778.0</ele><time>2026-05-01T12:07:28.674Z</time></trkpt><trkpt lat="40.8401317" lon="9.0913967"><ele>778.0</ele><time>2026-05-01T12:07:29.674Z</time></trkpt><trkpt lat="40.8400383" lon="9.091245"><ele>778.0</ele><time>2026-05-01T12:07:30.674Z</time></trkpt><trkpt lat="40.8399533" lon="9.0910767"><ele>778.0</ele><time>2026-05-01T12:07:31.674Z</time></trkpt><trkpt lat="40.8398783" lon="9.09091"><ele>778.0</ele><time>2026-05-01T12:07:32.674Z</time></trkpt><trkpt lat="40.8398067" lon="9.0907567"><ele>778.0</ele><time>2026-05-01T12:07:33.674Z</time></trkpt><trkpt lat="40.8397267" lon="9.0906333"><ele>778.5</ele><time>2026-05-01T12:07:34.674Z</time></trkpt><trkpt lat="40.8396567" lon="9.0904717"><ele>779.0</ele><time>2026-05-01T12:07:35.674Z</time></trkpt><trkpt lat="40.8396" lon="9.0903117"><ele>779.5</ele><time>2026-05-01T12:07:36.674Z</time></trkpt><trkpt lat="40.8395533" lon="9.0901417"><ele>780.0</ele><time>2026-05-01T12:07:37.674Z</time></trkpt><trkpt lat="40.8394917" lon="9.08996"><ele>779.3333333333333</ele><time>2026-05-01T12:07:38.674Z</time></trkpt><trkpt lat="40.8394467" lon="9.0897717"><ele>778.6666666666666</ele><time>2026-05-01T12:07:39.674Z</time></trkpt><trkpt lat="40.8393917" lon="9.0895733"><ele>778.0</ele><time>2026-05-01T12:07:40.674Z</time></trkpt><trkpt lat="40.8393283" lon="9.089375"><ele>777.75</ele><time>2026-05-01T12:07:41.674Z</time></trkpt><trkpt lat="40.83926" lon="9.089195"><ele>777.5</ele><time>2026-05-01T12:07:42.674Z</time></trkpt><trkpt lat="40.83919" lon="9.0890433"><ele>777.25</ele><time>2026-05-01T12:07:43.674Z</time></trkpt><trkpt lat="40.8391233" lon="9.0889033"><ele>777.0</ele><time>2026-05-01T12:07:44.674Z</time></trkpt><trkpt lat="40.8390367" lon="9.088795"><ele>777.0</ele><time>2026-05-01T12:07:45.674Z</time></trkpt><trkpt lat="40.8389433" lon="9.0887"><ele>777.0</ele><time>2026-05-01T12:07:46.674Z</time></trkpt><trkpt lat="40.8388583" lon="9.0885917"><ele>777.0</ele><time>2026-05-01T12:07:47.674Z</time></trkpt><trkpt lat="40.8387833" lon="9.0884617"><ele>777.0</ele><time>2026-05-01T12:07:48.674Z</time></trkpt><trkpt lat="40.8387033" lon="9.0883167"><ele>776.75</ele><time>2026-05-01T12:07:49.674Z</time></trkpt><trkpt lat="40.8386067" lon="9.0881817"><ele>776.5</ele><time>2026-05-01T12:07:50.674Z</time></trkpt><trkpt lat="40.8385" lon="9.0880483"><ele>776.25</ele><time>2026-05-01T12:07:51.674Z</time></trkpt><trkpt lat="40.8383883" lon="9.0879317"><ele>776.0</ele><time>2026-05-01T12:07:52.674Z</time></trkpt><trkpt lat="40.838265" lon="9.08786"><ele>775.3333333333334</ele><time>2026-05-01T12:07:53.674Z</time></trkpt><trkpt lat="40.8381183" lon="9.0878433"><ele>774.6666666666667</ele><time>2026-05-01T12:07:54.674Z</time></trkpt><trkpt lat="40.8379483" lon="9.08786"><ele>774.0</ele><time>2026-05-01T12:07:55.674Z</time></trkpt><trkpt lat="40.8377867" lon="9.0878333"><ele>770.6666666666666</ele><time>2026-05-01T12:07:56.674Z</time></trkpt><trkpt lat="40.8376083" lon="9.0877933"><ele>767.3333333333333</ele><time>2026-05-01T12:07:57.674Z</time></trkpt><trkpt lat="40.83744" lon="9.0877433"><ele>764.0</ele><time>2026-05-01T12:07:58.674Z</time></trkpt><trkpt lat="40.837295" lon="9.08765"><ele>764.0</ele><time>2026-05-01T12:07:59.674Z</time></trkpt><trkpt lat="40.837165" lon="9.0875583"><ele>764.0</ele><time>2026-05-01T12:08:00.675Z</time></trkpt><trkpt lat="40.83704" lon="9.0874433"><ele>764.0</ele><time>2026-05-01T12:08:01.674Z</time></trkpt><trkpt lat="40.8369217" lon="9.0872983"><ele>760.6666666666666</ele><time>2026-05-01T12:08:02.674Z</time></trkpt><trkpt lat="40.8368017" lon="9.08715"><ele>757.3333333333334</ele><time>2026-05-01T12:08:03.674Z</time></trkpt><trkpt lat="40.8366533" lon="9.087005"><ele>754.0</ele><time>2026-05-01T12:08:04.674Z</time></trkpt><trkpt lat="40.8365533" lon="9.0868867"><ele>754.0</ele><time>2026-05-01T12:08:05.674Z</time></trkpt><trkpt lat="40.83646" lon="9.08676"><ele>754.0</ele><time>2026-05-01T12:08:06.674Z</time></trkpt><trkpt lat="40.8363633" lon="9.08657"><ele>754.0</ele><time>2026-05-01T12:08:07.674Z</time></trkpt><trkpt lat="40.836285" lon="9.086445"><ele>754.0</ele><time>2026-05-01T12:08:08.674Z</time></trkpt><trkpt lat="40.8362183" lon="9.086315"><ele>753.0</ele><time>2026-05-01T12:08:09.674Z</time></trkpt><trkpt lat="40.836135" lon="9.08624"><ele>752.0</ele><time>2026-05-01T12:08:10.674Z</time></trkpt><trkpt lat="40.836025" lon="9.0861967"><ele>751.0</ele><time>2026-05-01T12:08:11.673Z</time></trkpt><trkpt lat="40.835925" lon="9.086155"><ele>750.0</ele><time>2026-05-01T12:08:12.674Z</time></trkpt><trkpt lat="40.8358133" lon="9.0860583"><ele>748.3333333333334</ele><time>2026-05-01T12:08:13.674Z</time></trkpt><trkpt lat="40.83573" lon="9.085915"><ele>746.6666666666667</ele><time>2026-05-01T12:08:14.674Z</time></trkpt><trkpt lat="40.8356317" lon="9.0857633"><ele>745.0</ele><time>2026-05-01T12:08:15.674Z</time></trkpt><trkpt lat="40.8355567" lon="9.0855683"><ele>744.0</ele><time>2026-05-01T12:08:16.674Z</time></trkpt><trkpt lat="40.8355117" lon="9.0853683"><ele>743.0</ele><time>2026-05-01T12:08:17.674Z</time></trkpt><trkpt lat="40.835485" lon="9.0851733"><ele>742.0</ele><time>2026-05-01T12:08:18.674Z</time></trkpt><trkpt lat="40.8354783" lon="9.08499"><ele>741.0</ele><time>2026-05-01T12:08:19.674Z</time></trkpt><trkpt lat="40.8354983" lon="9.0848017"><ele>740.5</ele><time>2026-05-01T12:08:20.674Z</time></trkpt><trkpt lat="40.835535" lon="9.084615"><ele>740.0</ele><time>2026-05-01T12:08:21.674Z</time></trkpt><trkpt lat="40.8355767" lon="9.08444"><ele>739.5</ele><time>2026-05-01T12:08:22.674Z</time></trkpt><trkpt lat="40.8356067" lon="9.0842833"><ele>739.0</ele><time>2026-05-01T12:08:23.674Z</time></trkpt><trkpt lat="40.8356267" lon="9.08414"><ele>738.75</ele><time>2026-05-01T12:08:24.674Z</time></trkpt><trkpt lat="40.8355917" lon="9.0839983"><ele>738.5</ele><time>2026-05-01T12:08:25.674Z</time></trkpt><trkpt lat="40.83553" lon="9.0838533"><ele>738.25</ele><time>2026-05-01T12:08:26.674Z</time></trkpt><trkpt lat="40.8354433" lon="9.0837133"><ele>738.0</ele><time>2026-05-01T12:08:27.674Z</time></trkpt><trkpt lat="40.8353333" lon="9.083575"><ele>738.0</ele><time>2026-05-01T12:08:28.674Z</time></trkpt><trkpt lat="40.8352533" lon="9.083425"><ele>738.0</ele><time>2026-05-01T12:08:29.674Z</time></trkpt><trkpt lat="40.83518" lon="9.0832783"><ele>738.0</ele><time>2026-05-01T12:08:30.674Z</time></trkpt><trkpt lat="40.83513" lon="9.0831267"><ele>738.0</ele><time>2026-05-01T12:08:31.674Z</time></trkpt><trkpt lat="40.8350833" lon="9.082975"><ele>743.0</ele><time>2026-05-01T12:08:32.674Z</time></trkpt><trkpt lat="40.8349967" lon="9.0828283"><ele>748.0</ele><time>2026-05-01T12:08:33.674Z</time></trkpt><trkpt lat="40.8348933" lon="9.082685"><ele>753.0</ele><time>2026-05-01T12:08:34.675Z</time></trkpt><trkpt lat="40.834775" lon="9.08254"><ele>752.25</ele><time>2026-05-01T12:08:35.674Z</time></trkpt><trkpt lat="40.8347067" lon="9.082405"><ele>751.5</ele><time>2026-05-01T12:08:36.674Z</time></trkpt><trkpt lat="40.83463" lon="9.0822717"><ele>750.75</ele><time>2026-05-01T12:08:37.674Z</time></trkpt><trkpt lat="40.8345717" lon="9.0821333"><ele>750.0</ele><time>2026-05-01T12:08:38.674Z</time></trkpt><trkpt lat="40.8345133" lon="9.082015"><ele>750.0</ele><time>2026-05-01T12:08:39.674Z</time></trkpt><trkpt lat="40.8344433" lon="9.0819117"><ele>750.0</ele><time>2026-05-01T12:08:40.674Z</time></trkpt><trkpt lat="40.8343583" lon="9.08182"><ele>750.0</ele><time>2026-05-01T12:08:41.674Z</time></trkpt><trkpt lat="40.8342717" lon="9.08177"><ele>750.0</ele><time>2026-05-01T12:08:42.674Z</time></trkpt><trkpt lat="40.8341733" lon="9.0817383"><ele>750.0</ele><time>2026-05-01T12:08:43.674Z</time></trkpt><trkpt lat="40.834075" lon="9.081685"><ele>752.8</ele><time>2026-05-01T12:08:44.674Z</time></trkpt><trkpt lat="40.83398" lon="9.0816067"><ele>755.6</ele><time>2026-05-01T12:08:45.674Z</time></trkpt><trkpt lat="40.8338917" lon="9.0815117"><ele>758.4000000000001</ele><time>2026-05-01T12:08:46.674Z</time></trkpt><trkpt lat="40.833815" lon="9.0814017"><ele>761.2</ele><time>2026-05-01T12:08:47.674Z</time></trkpt><trkpt lat="40.8337517" lon="9.0812833"><ele>764.0</ele><time>2026-05-01T12:08:48.674Z</time></trkpt><trkpt lat="40.8337517" lon="9.08113"><ele>765.0</ele><time>2026-05-01T12:08:49.674Z</time></trkpt><trkpt lat="40.8337633" lon="9.08099"><ele>766.0</ele><time>2026-05-01T12:08:50.674Z</time></trkpt><trkpt lat="40.8337817" lon="9.0808367"><ele>767.0</ele><time>2026-05-01T12:08:51.674Z</time></trkpt><trkpt lat="40.833805" lon="9.08067"><ele>768.0</ele><time>2026-05-01T12:08:52.674Z</time></trkpt><trkpt lat="40.8338333" lon="9.0805083"><ele>768.5</ele><time>2026-05-01T12:08:53.674Z</time></trkpt><trkpt lat="40.8338367" lon="9.0803633"><ele>769.0</ele><time>2026-05-01T12:08:54.674Z</time></trkpt><trkpt lat="40.8338267" lon="9.0802183"><ele>769.5</ele><time>2026-05-01T12:08:55.674Z</time></trkpt><trkpt lat="40.83379" lon="9.0800683"><ele>770.0</ele><time>2026-05-01T12:08:56.675Z</time></trkpt><trkpt lat="40.833745" lon="9.0799167"><ele>770.0</ele><time>2026-05-01T12:08:57.674Z</time></trkpt><trkpt lat="40.833685" lon="9.0797533"><ele>770.0</ele><time>2026-05-01T12:08:58.674Z</time></trkpt><trkpt lat="40.8336217" lon="9.0795767"><ele>770.0</ele><time>2026-05-01T12:08:59.674Z</time></trkpt><trkpt lat="40.83357" lon="9.079405"><ele>770.0</ele><time>2026-05-01T12:09:00.674Z</time></trkpt><trkpt lat="40.8335217" lon="9.07922"><ele>770.0</ele><time>2026-05-01T12:09:01.674Z</time></trkpt><trkpt lat="40.83348" lon="9.0790483"><ele>770.0</ele><time>2026-05-01T12:09:02.674Z</time></trkpt><trkpt lat="40.83344" lon="9.0788617"><ele>770.0</ele><time>2026-05-01T12:09:03.674Z</time></trkpt><trkpt lat="40.8334033" lon="9.078675"><ele>770.0</ele><time>2026-05-01T12:09:04.674Z</time></trkpt><trkpt lat="40.83338" lon="9.0784867"><ele>770.0</ele><time>2026-05-01T12:09:05.674Z</time></trkpt><trkpt lat="40.8333583" lon="9.0783217"><ele>770.0</ele><time>2026-05-01T12:09:06.674Z</time></trkpt><trkpt lat="40.8333333" lon="9.0781717"><ele>770.0</ele><time>2026-05-01T12:09:07.674Z</time></trkpt><trkpt lat="40.8333183" lon="9.0780317"><ele>770.0</ele><time>2026-05-01T12:09:08.674Z</time></trkpt><trkpt lat="40.8333033" lon="9.0778883"><ele>770.0</ele><time>2026-05-01T12:09:09.674Z</time></trkpt><trkpt lat="40.83329" lon="9.0777467"><ele>770.0</ele><time>2026-05-01T12:09:10.674Z</time></trkpt><trkpt lat="40.8332717" lon="9.077595"><ele>770.0</ele><time>2026-05-01T12:09:11.674Z</time></trkpt><trkpt lat="40.833245" lon="9.0774417"><ele>770.0</ele><time>2026-05-01T12:09:12.674Z</time></trkpt><trkpt lat="40.83322" lon="9.0772717"><ele>770.0</ele><time>2026-05-01T12:09:13.674Z</time></trkpt><trkpt lat="40.8331867" lon="9.0770867"><ele>770.0</ele><time>2026-05-01T12:09:14.674Z</time></trkpt><trkpt lat="40.8331717" lon="9.076895"><ele>770.0</ele><time>2026-05-01T12:09:15.674Z</time></trkpt><trkpt lat="40.83315" lon="9.0766983"><ele>770.0</ele><time>2026-05-01T12:09:16.674Z</time></trkpt><trkpt lat="40.83313" lon="9.076515"><ele>769.25</ele><time>2026-05-01T12:09:17.675Z</time></trkpt><trkpt lat="40.833125" lon="9.0763367"><ele>768.5</ele><time>2026-05-01T12:09:18.674Z</time></trkpt><trkpt lat="40.83312" lon="9.0761783"><ele>767.75</ele><time>2026-05-01T12:09:19.674Z</time></trkpt><trkpt lat="40.83309" lon="9.0760233"><ele>767.0</ele><time>2026-05-01T12:09:20.674Z</time></trkpt><trkpt lat="40.8330517" lon="9.0758917"><ele>767.0</ele><time>2026-05-01T12:09:21.674Z</time></trkpt><trkpt lat="40.833005" lon="9.075785"><ele>767.0</ele><time>2026-05-01T12:09:22.674Z</time></trkpt><trkpt lat="40.83294" lon="9.075695"><ele>767.0</ele><time>2026-05-01T12:09:23.674Z</time></trkpt><trkpt lat="40.8328817" lon="9.07561"><ele>767.0</ele><time>2026-05-01T12:09:24.674Z</time></trkpt><trkpt lat="40.8328017" lon="9.0755483"><ele>767.0</ele><time>2026-05-01T12:09:25.674Z</time></trkpt><trkpt lat="40.832705" lon="9.07552"><ele>768.2</ele><time>2026-05-01T12:09:26.674Z</time></trkpt><trkpt lat="40.8326067" lon="9.075485"><ele>769.4000000000001</ele><time>2026-05-01T12:09:27.674Z</time></trkpt><trkpt lat="40.832515" lon="9.075435"><ele>770.5999999999999</ele><time>2026-05-01T12:09:28.674Z</time></trkpt><trkpt lat="40.832415" lon="9.0754017"><ele>771.8</ele><time>2026-05-01T12:09:29.674Z</time></trkpt><trkpt lat="40.832315" lon="9.0753767"><ele>773.0</ele><time>2026-05-01T12:09:30.674Z</time></trkpt><trkpt lat="40.832205" lon="9.0753483"><ele>773.0</ele><time>2026-05-01T12:09:31.674Z</time></trkpt><trkpt lat="40.8320867" lon="9.0753017"><ele>773.0</ele><time>2026-05-01T12:09:32.674Z</time></trkpt><trkpt lat="40.831945" lon="9.0752683"><ele>773.0</ele><time>2026-05-01T12:09:33.674Z</time></trkpt><trkpt lat="40.8317983" lon="9.0752317"><ele>773.0</ele><time>2026-05-01T12:09:34.674Z</time></trkpt><trkpt lat="40.8316483" lon="9.07519"><ele>775.0</ele><time>2026-05-01T12:09:35.674Z</time></trkpt><trkpt lat="40.8315033" lon="9.0751467"><ele>777.0</ele><time>2026-05-01T12:09:36.674Z</time></trkpt><trkpt lat="40.8313633" lon="9.0750933"><ele>779.0</ele><time>2026-05-01T12:09:37.674Z</time></trkpt><trkpt lat="40.8312133" lon="9.0750317"><ele>779.0</ele><time>2026-05-01T12:09:38.674Z</time></trkpt><trkpt lat="40.8310717" lon="9.0749617"><ele>779.0</ele><time>2026-05-01T12:09:39.674Z</time></trkpt><trkpt lat="40.83094" lon="9.0749017"><ele>779.0</ele><time>2026-05-01T12:09:40.674Z</time></trkpt><trkpt lat="40.83081" lon="9.0748333"><ele>779.0</ele><time>2026-05-01T12:09:41.674Z</time></trkpt><trkpt lat="40.8306867" lon="9.074765"><ele>781.25</ele><time>2026-05-01T12:09:42.674Z</time></trkpt><trkpt lat="40.8305633" lon="9.0746833"><ele>783.5</ele><time>2026-05-01T12:09:43.675Z</time></trkpt><trkpt lat="40.83045" lon="9.0746083"><ele>785.75</ele><time>2026-05-01T12:09:44.674Z</time></trkpt><trkpt lat="40.8303633" lon="9.07453"><ele>788.0</ele><time>2026-05-01T12:09:45.674Z</time></trkpt><trkpt lat="40.8303017" lon="9.0744333"><ele>788.0</ele><time>2026-05-01T12:09:46.674Z</time></trkpt><trkpt lat="40.8302617" lon="9.07433"><ele>788.0</ele><time>2026-05-01T12:09:47.674Z</time></trkpt><trkpt lat="40.83022" lon="9.07421"><ele>788.0</ele><time>2026-05-01T12:09:48.674Z</time></trkpt><trkpt lat="40.8302117" lon="9.0740583"><ele>788.0</ele><time>2026-05-01T12:09:49.674Z</time></trkpt><trkpt lat="40.8302183" lon="9.0739117"><ele>788.0</ele><time>2026-05-01T12:09:50.675Z</time></trkpt><trkpt lat="40.8302283" lon="9.0737783"><ele>788.3333333333334</ele><time>2026-05-01T12:09:51.674Z</time></trkpt><trkpt lat="40.8302267" lon="9.0736533"><ele>788.6666666666667</ele><time>2026-05-01T12:09:52.674Z</time></trkpt><trkpt lat="40.83022" lon="9.073525"><ele>789.0</ele><time>2026-05-01T12:09:53.674Z</time></trkpt><trkpt lat="40.8301833" lon="9.073445"><ele>789.3333333333333</ele><time>2026-05-01T12:09:54.674Z</time></trkpt><trkpt lat="40.83014" lon="9.073365"><ele>789.6666666666666</ele><time>2026-05-01T12:09:55.674Z</time></trkpt><trkpt lat="40.83007" lon="9.0733083"><ele>790.0</ele><time>2026-05-01T12:09:56.674Z</time></trkpt><trkpt lat="40.829975" lon="9.0732633"><ele>791.0</ele><time>2026-05-01T12:09:57.674Z</time></trkpt><trkpt lat="40.82988" lon="9.07321"><ele>792.0</ele><time>2026-05-01T12:09:58.674Z</time></trkpt><trkpt lat="40.8297567" lon="9.073155"><ele>793.0</ele><time>2026-05-01T12:09:59.674Z</time></trkpt><trkpt lat="40.8296367" lon="9.0731"><ele>794.0</ele><time>2026-05-01T12:10:00.674Z</time></trkpt><trkpt lat="40.8295167" lon="9.0730433"><ele>794.0</ele><time>2026-05-01T12:10:01.674Z</time></trkpt><trkpt lat="40.829395" lon="9.0729883"><ele>794.0</ele><time>2026-05-01T12:10:02.674Z</time></trkpt><trkpt lat="40.8292717" lon="9.0729567"><ele>794.0</ele><time>2026-05-01T12:10:03.674Z</time></trkpt><trkpt lat="40.8291467" lon="9.0729083"><ele>794.0</ele><time>2026-05-01T12:10:04.674Z</time></trkpt><trkpt lat="40.8290183" lon="9.0728467"><ele>795.0</ele><time>2026-05-01T12:10:05.674Z</time></trkpt><trkpt lat="40.8289083" lon="9.0727617"><ele>796.0</ele><time>2026-05-01T12:10:06.674Z</time></trkpt><trkpt lat="40.8287783" lon="9.0726783"><ele>797.0</ele><time>2026-05-01T12:10:07.674Z</time></trkpt><trkpt lat="40.828665" lon="9.0725983"><ele>798.0</ele><time>2026-05-01T12:10:08.674Z</time></trkpt><trkpt lat="40.828545" lon="9.07252"><ele>794.0</ele><time>2026-05-01T12:10:09.674Z</time></trkpt><trkpt lat="40.8284183" lon="9.072435"><ele>790.0</ele><time>2026-05-01T12:10:10.674Z</time></trkpt><trkpt lat="40.8282633" lon="9.0723467"><ele>786.0</ele><time>2026-05-01T12:10:11.674Z</time></trkpt><trkpt lat="40.8281" lon="9.0722667"><ele>786.0</ele><time>2026-05-01T12:10:12.674Z</time></trkpt><trkpt lat="40.827955" lon="9.072185"><ele>786.0</ele><time>2026-05-01T12:10:13.674Z</time></trkpt><trkpt lat="40.8278267" lon="9.0721033"><ele>786.0</ele><time>2026-05-01T12:10:14.674Z</time></trkpt><trkpt lat="40.8277017" lon="9.072015"><ele>786.0</ele><time>2026-05-01T12:10:15.674Z</time></trkpt><trkpt lat="40.8275917" lon="9.0719167"><ele>785.75</ele><time>2026-05-01T12:10:16.674Z</time></trkpt><trkpt lat="40.8274867" lon="9.0718067"><ele>785.5</ele><time>2026-05-01T12:10:17.674Z</time></trkpt><trkpt lat="40.8273867" lon="9.0716883"><ele>785.25</ele><time>2026-05-01T12:10:18.674Z</time></trkpt><trkpt lat="40.827305" lon="9.0715583"><ele>785.0</ele><time>2026-05-01T12:10:19.674Z</time></trkpt><trkpt lat="40.82723" lon="9.07143"><ele>785.0</ele><time>2026-05-01T12:10:20.674Z</time></trkpt><trkpt lat="40.82716" lon="9.0713183"><ele>785.0</ele><time>2026-05-01T12:10:21.674Z</time></trkpt><trkpt lat="40.8270867" lon="9.0712333"><ele>785.0</ele><time>2026-05-01T12:10:22.674Z</time></trkpt><trkpt lat="40.8270067" lon="9.0711617"><ele>785.0</ele><time>2026-05-01T12:10:23.674Z</time></trkpt><trkpt lat="40.8269167" lon="9.07112"><ele>785.0</ele><time>2026-05-01T12:10:24.674Z</time></trkpt><trkpt lat="40.826825" lon="9.0710933"><ele>786.0000000000001</ele><time>2026-05-01T12:10:25.674Z</time></trkpt><trkpt lat="40.82675" lon="9.07107"><ele>787.0</ele><time>2026-05-01T12:10:26.674Z</time></trkpt><trkpt lat="40.826685" lon="9.0710533"><ele>788.0</ele><time>2026-05-01T12:10:27.674Z</time></trkpt><trkpt lat="40.8265817" lon="9.0710417"><ele>789.0</ele><time>2026-05-01T12:10:29.674Z</time></trkpt><trkpt lat="40.82649" lon="9.0710267"><ele>790.0000000000001</ele><time>2026-05-01T12:10:31.674Z</time></trkpt><trkpt lat="40.8263933" lon="9.07101"><ele>791.0</ele><time>2026-05-01T12:10:33.674Z</time></trkpt><trkpt lat="40.8262933" lon="9.0709983"><ele>791.0000000000001</ele><time>2026-05-01T12:10:35.674Z</time></trkpt><trkpt lat="40.8261633" lon="9.07097"><ele>791.0</ele><time>2026-05-01T12:10:37.674Z</time></trkpt><trkpt lat="40.8260817" lon="9.0709517"><ele>791.0</ele><time>2026-05-01T12:10:38.674Z</time></trkpt><trkpt lat="40.8260067" lon="9.0709317"><ele>791.0</ele><time>2026-05-01T12:10:39.674Z</time></trkpt><trkpt lat="40.8259317" lon="9.07091"><ele>791.0000000000001</ele><time>2026-05-01T12:10:40.674Z</time></trkpt><trkpt lat="40.8258533" lon="9.0708833"><ele>791.0</ele><time>2026-05-01T12:10:41.674Z</time></trkpt><trkpt lat="40.825775" lon="9.070865"><ele>790.5000000000001</ele><time>2026-05-01T12:10:42.674Z</time></trkpt><trkpt lat="40.8256983" lon="9.0708383"><ele>790.0</ele><time>2026-05-01T12:10:43.674Z</time></trkpt><trkpt lat="40.82562" lon="9.0708233"><ele>789.5</ele><time>2026-05-01T12:10:44.674Z</time></trkpt><trkpt lat="40.8255433" lon="9.0708067"><ele>789.0</ele><time>2026-05-01T12:10:45.675Z</time></trkpt><trkpt lat="40.8254717" lon="9.0707917"><ele>788.5000000000001</ele><time>2026-05-01T12:10:46.675Z</time></trkpt><trkpt lat="40.8253983" lon="9.07077"><ele>788.0</ele><time>2026-05-01T12:10:47.674Z</time></trkpt><trkpt lat="40.8253183" lon="9.070745"><ele>785.8333333333334</ele><time>2026-05-01T12:10:48.674Z</time></trkpt><trkpt lat="40.825235" lon="9.07072"><ele>783.6666666666667</ele><time>2026-05-01T12:10:49.674Z</time></trkpt><trkpt lat="40.825155" lon="9.0706967"><ele>781.5</ele><time>2026-05-01T12:10:50.674Z</time></trkpt><trkpt lat="40.8250783" lon="9.0706683"><ele>779.3333333333333</ele><time>2026-05-01T12:10:51.674Z</time></trkpt><trkpt lat="40.825005" lon="9.07064"><ele>777.1666666666666</ele><time>2026-05-01T12:10:52.674Z</time></trkpt><trkpt lat="40.824935" lon="9.07061"><ele>775.0</ele><time>2026-05-01T12:10:53.674Z</time></trkpt><trkpt lat="40.824865" lon="9.0705733"><ele>774.3333333333333</ele><time>2026-05-01T12:10:54.674Z</time></trkpt><trkpt lat="40.8247967" lon="9.0705333"><ele>773.6666666666666</ele><time>2026-05-01T12:10:55.674Z</time></trkpt><trkpt lat="40.82473" lon="9.070475"><ele>773.0</ele><time>2026-05-01T12:10:56.674Z</time></trkpt><trkpt lat="40.8246467" lon="9.0704117"><ele>772.3333333333333</ele><time>2026-05-01T12:10:57.674Z</time></trkpt><trkpt lat="40.824565" lon="9.0703433"><ele>771.6666666666666</ele><time>2026-05-01T12:10:58.674Z</time></trkpt><trkpt lat="40.824485" lon="9.0702967"><ele>771.0</ele><time>2026-05-01T12:10:59.674Z</time></trkpt><trkpt lat="40.8244033" lon="9.07028"><ele>771.0</ele><time>2026-05-01T12:11:00.674Z</time></trkpt><trkpt lat="40.824325" lon="9.0702917"><ele>771.0</ele><time>2026-05-01T12:11:01.674Z</time></trkpt><trkpt lat="40.824255" lon="9.0703333"><ele>771.0</ele><time>2026-05-01T12:11:02.674Z</time></trkpt><trkpt lat="40.8241817" lon="9.0703667"><ele>771.0</ele><time>2026-05-01T12:11:03.674Z</time></trkpt><trkpt lat="40.8241083" lon="9.070385"><ele>771.0</ele><time>2026-05-01T12:11:04.674Z</time></trkpt><trkpt lat="40.8240433" lon="9.0703767"><ele>771.0</ele><time>2026-05-01T12:11:05.674Z</time></trkpt><trkpt lat="40.8239583" lon="9.070285"><ele>770.0</ele><time>2026-05-01T12:11:07.674Z</time></trkpt><trkpt lat="40.8239433" lon="9.070105"><ele>769.0</ele><time>2026-05-01T12:11:09.674Z</time></trkpt><trkpt lat="40.8239283" lon="9.0699817"><ele>768.0</ele><time>2026-05-01T12:11:10.674Z</time></trkpt><trkpt lat="40.8239033" lon="9.0698317"><ele>767.0</ele><time>2026-05-01T12:11:11.674Z</time></trkpt><trkpt lat="40.8238517" lon="9.0696817"><ele>764.75</ele><time>2026-05-01T12:11:12.674Z</time></trkpt><trkpt lat="40.8237883" lon="9.0695283"><ele>762.5</ele><time>2026-05-01T12:11:13.674Z</time></trkpt><trkpt lat="40.8237133" lon="9.0693883"><ele>760.25</ele><time>2026-05-01T12:11:14.674Z</time></trkpt><trkpt lat="40.8236467" lon="9.06924"><ele>758.0</ele><time>2026-05-01T12:11:15.674Z</time></trkpt><trkpt lat="40.8235617" lon="9.0691017"><ele>756.0</ele><time>2026-05-01T12:11:16.674Z</time></trkpt><trkpt lat="40.8234617" lon="9.0689633"><ele>754.0</ele><time>2026-05-01T12:11:17.674Z</time></trkpt><trkpt lat="40.82336" lon="9.0688267"><ele>752.0</ele><time>2026-05-01T12:11:18.674Z</time></trkpt><trkpt lat="40.8232583" lon="9.0687033"><ele>750.0</ele><time>2026-05-01T12:11:19.674Z</time></trkpt><trkpt lat="40.823155" lon="9.0685933"><ele>750.0</ele><time>2026-05-01T12:11:20.675Z</time></trkpt><trkpt lat="40.8230733" lon="9.0685083"><ele>750.0</ele><time>2026-05-01T12:11:21.674Z</time></trkpt><trkpt lat="40.82297" lon="9.0684017"><ele>750.0</ele><time>2026-05-01T12:11:22.674Z</time></trkpt><trkpt lat="40.82287" lon="9.06832"><ele>750.0</ele><time>2026-05-01T12:11:23.674Z</time></trkpt><trkpt lat="40.8227683" lon="9.068225"><ele>750.0</ele><time>2026-05-01T12:11:24.674Z</time></trkpt><trkpt lat="40.822665" lon="9.0681283"><ele>750.0</ele><time>2026-05-01T12:11:25.674Z</time></trkpt><trkpt lat="40.8225583" lon="9.0680217"><ele>750.0</ele><time>2026-05-01T12:11:26.674Z</time></trkpt><trkpt lat="40.8224733" lon="9.067905"><ele>750.0</ele><time>2026-05-01T12:11:27.674Z</time></trkpt><trkpt lat="40.822385" lon="9.0677967"><ele>750.0</ele><time>2026-05-01T12:11:28.674Z</time></trkpt><trkpt lat="40.8222883" lon="9.0676983"><ele>750.0</ele><time>2026-05-01T12:11:29.674Z</time></trkpt><trkpt lat="40.8221867" lon="9.0676017"><ele>750.0</ele><time>2026-05-01T12:11:30.674Z</time></trkpt><trkpt lat="40.82209" lon="9.0675033"><ele>750.0</ele><time>2026-05-01T12:11:31.674Z</time></trkpt><trkpt lat="40.8219917" lon="9.0673967"><ele>748.75</ele><time>2026-05-01T12:11:32.674Z</time></trkpt><trkpt lat="40.8218967" lon="9.0672933"><ele>747.5</ele><time>2026-05-01T12:11:33.674Z</time></trkpt><trkpt lat="40.8217983" lon="9.0671717"><ele>746.25</ele><time>2026-05-01T12:11:34.674Z</time></trkpt><trkpt lat="40.8217" lon="9.067035"><ele>745.0</ele><time>2026-05-01T12:11:35.674Z</time></trkpt><trkpt lat="40.821605" lon="9.0668983"><ele>743.6666666666667</ele><time>2026-05-01T12:11:36.674Z</time></trkpt><trkpt lat="40.8215033" lon="9.0667583"><ele>742.3333333333334</ele><time>2026-05-01T12:11:37.674Z</time></trkpt><trkpt lat="40.8213933" lon="9.0666167"><ele>741.0</ele><time>2026-05-01T12:11:38.674Z</time></trkpt><trkpt lat="40.8212933" lon="9.0664467"><ele>739.6666666666666</ele><time>2026-05-01T12:11:39.674Z</time></trkpt><trkpt lat="40.8211783" lon="9.0663"><ele>738.3333333333333</ele><time>2026-05-01T12:11:40.674Z</time></trkpt><trkpt lat="40.8210733" lon="9.0661617"><ele>737.0</ele><time>2026-05-01T12:11:41.674Z</time></trkpt><trkpt lat="40.820965" lon="9.06603"><ele>736.3333333333333</ele><time>2026-05-01T12:11:42.674Z</time></trkpt><trkpt lat="40.820855" lon="9.065885"><ele>735.6666666666666</ele><time>2026-05-01T12:11:43.674Z</time></trkpt><trkpt lat="40.8207417" lon="9.06574"><ele>735.0</ele><time>2026-05-01T12:11:44.674Z</time></trkpt><trkpt lat="40.820635" lon="9.0655917"><ele>733.75</ele><time>2026-05-01T12:11:45.674Z</time></trkpt><trkpt lat="40.820525" lon="9.0654717"><ele>732.5</ele><time>2026-05-01T12:11:46.674Z</time></trkpt><trkpt lat="40.8204183" lon="9.06533"><ele>731.25</ele><time>2026-05-01T12:11:47.674Z</time></trkpt><trkpt lat="40.8203217" lon="9.065205"><ele>730.0</ele><time>2026-05-01T12:11:48.674Z</time></trkpt><trkpt lat="40.8202283" lon="9.0651017"><ele>730.0</ele><time>2026-05-01T12:11:49.674Z</time></trkpt><trkpt lat="40.8201617" lon="9.0649967"><ele>730.0</ele><time>2026-05-01T12:11:50.674Z</time></trkpt><trkpt lat="40.8201167" lon="9.0648917"><ele>730.0</ele><time>2026-05-01T12:11:51.674Z</time></trkpt><trkpt lat="40.8200967" lon="9.0647883"><ele>730.0</ele><time>2026-05-01T12:11:52.675Z</time></trkpt><trkpt lat="40.82009" lon="9.0646817"><ele>730.0</ele><time>2026-05-01T12:11:53.674Z</time></trkpt><trkpt lat="40.820095" lon="9.064575"><ele>730.0</ele><time>2026-05-01T12:11:54.674Z</time></trkpt><trkpt lat="40.8201217" lon="9.0644833"><ele>729.0</ele><time>2026-05-01T12:11:55.674Z</time></trkpt><trkpt lat="40.8201717" lon="9.0643917"><ele>728.0</ele><time>2026-05-01T12:11:56.674Z</time></trkpt><trkpt lat="40.8202533" lon="9.0643133"><ele>727.0</ele><time>2026-05-01T12:11:57.674Z</time></trkpt><trkpt lat="40.8203367" lon="9.0642583"><ele>726.0</ele><time>2026-05-01T12:11:58.674Z</time></trkpt><trkpt lat="40.8204533" lon="9.0642317"><ele>725.0</ele><time>2026-05-01T12:11:59.674Z</time></trkpt><trkpt lat="40.82055" lon="9.0641867"><ele>725.0</ele><time>2026-05-01T12:12:00.674Z</time></trkpt><trkpt lat="40.820635" lon="9.0641383"><ele>725.0</ele><time>2026-05-01T12:12:01.674Z</time></trkpt><trkpt lat="40.8207083" lon="9.064065"><ele>725.0</ele><time>2026-05-01T12:12:02.674Z</time></trkpt><trkpt lat="40.820775" lon="9.06397"><ele>725.0</ele><time>2026-05-01T12:12:03.674Z</time></trkpt><trkpt lat="40.8208183" lon="9.06386"><ele>725.0</ele><time>2026-05-01T12:12:04.674Z</time></trkpt><trkpt lat="40.8208383" lon="9.06373"><ele>724.75</ele><time>2026-05-01T12:12:05.674Z</time></trkpt><trkpt lat="40.82084" lon="9.06357"><ele>724.5</ele><time>2026-05-01T12:12:06.674Z</time></trkpt><trkpt lat="40.82079" lon="9.0633833"><ele>724.25</ele><time>2026-05-01T12:12:07.674Z</time></trkpt><trkpt lat="40.82074" lon="9.06321"><ele>724.0</ele><time>2026-05-01T12:12:08.674Z</time></trkpt><trkpt lat="40.8206717" lon="9.0630333"><ele>724.0</ele><time>2026-05-01T12:12:09.674Z</time></trkpt><trkpt lat="40.820625" lon="9.062875"><ele>724.0</ele><time>2026-05-01T12:12:10.674Z</time></trkpt><trkpt lat="40.8206" lon="9.0626983"><ele>724.0</ele><time>2026-05-01T12:12:11.674Z</time></trkpt><trkpt lat="40.8206117" lon="9.0625717"><ele>724.0</ele><time>2026-05-01T12:12:12.674Z</time></trkpt><trkpt lat="40.8206367" lon="9.062445"><ele>723.5</ele><time>2026-05-01T12:12:13.674Z</time></trkpt><trkpt lat="40.82068" lon="9.062315"><ele>723.0</ele><time>2026-05-01T12:12:14.674Z</time></trkpt><trkpt lat="40.8207367" lon="9.0621667"><ele>722.5</ele><time>2026-05-01T12:12:15.674Z</time></trkpt><trkpt lat="40.8207917" lon="9.0620133"><ele>722.0</ele><time>2026-05-01T12:12:16.674Z</time></trkpt><trkpt lat="40.82085" lon="9.0618617"><ele>722.0</ele><time>2026-05-01T12:12:17.674Z</time></trkpt><trkpt lat="40.8209083" lon="9.0617167"><ele>722.0</ele><time>2026-05-01T12:12:18.674Z</time></trkpt><trkpt lat="40.8209733" lon="9.0615667"><ele>722.0</ele><time>2026-05-01T12:12:19.674Z</time></trkpt><trkpt lat="40.8210283" lon="9.061415"><ele>722.0</ele><time>2026-05-01T12:12:20.674Z</time></trkpt><trkpt lat="40.82107" lon="9.06125"><ele>720.25</ele><time>2026-05-01T12:12:21.674Z</time></trkpt><trkpt lat="40.8210917" lon="9.0610867"><ele>718.5</ele><time>2026-05-01T12:12:22.674Z</time></trkpt><trkpt lat="40.8211" lon="9.0609267"><ele>716.75</ele><time>2026-05-01T12:12:23.674Z</time></trkpt><trkpt lat="40.821105" lon="9.0607817"><ele>715.0</ele><time>2026-05-01T12:12:24.674Z</time></trkpt><trkpt lat="40.8211033" lon="9.0606417"><ele>713.4</ele><time>2026-05-01T12:12:25.674Z</time></trkpt><trkpt lat="40.82111" lon="9.0605017"><ele>711.8</ele><time>2026-05-01T12:12:26.674Z</time></trkpt><trkpt lat="40.8211233" lon="9.0603617"><ele>710.2</ele><time>2026-05-01T12:12:27.674Z</time></trkpt><trkpt lat="40.821145" lon="9.0602183"><ele>708.6</ele><time>2026-05-01T12:12:28.674Z</time></trkpt><trkpt lat="40.8211717" lon="9.060075"><ele>707.0</ele><time>2026-05-01T12:12:29.674Z</time></trkpt><trkpt lat="40.82121" lon="9.059925"><ele>705.75</ele><time>2026-05-01T12:12:30.674Z</time></trkpt><trkpt lat="40.8212583" lon="9.0597717"><ele>704.5</ele><time>2026-05-01T12:12:31.674Z</time></trkpt><trkpt lat="40.8213" lon="9.0596217"><ele>703.25</ele><time>2026-05-01T12:12:32.674Z</time></trkpt><trkpt lat="40.8213417" lon="9.0594767"><ele>702.0</ele><time>2026-05-01T12:12:33.674Z</time></trkpt><trkpt lat="40.8213733" lon="9.059335"><ele>702.0</ele><time>2026-05-01T12:12:34.674Z</time></trkpt><trkpt lat="40.8214" lon="9.0591933"><ele>702.0</ele><time>2026-05-01T12:12:35.674Z</time></trkpt><trkpt lat="40.8214133" lon="9.0590567"><ele>702.0</ele><time>2026-05-01T12:12:36.674Z</time></trkpt><trkpt lat="40.8214133" lon="9.0589183"><ele>702.0</ele><time>2026-05-01T12:12:37.674Z</time></trkpt><trkpt lat="40.821405" lon="9.0587717"><ele>702.0</ele><time>2026-05-01T12:12:38.674Z</time></trkpt><trkpt lat="40.821365" lon="9.0586283"><ele>700.1666666666666</ele><time>2026-05-01T12:12:39.674Z</time></trkpt><trkpt lat="40.821325" lon="9.0585233"><ele>698.3333333333334</ele><time>2026-05-01T12:12:40.674Z</time></trkpt><trkpt lat="40.8212817" lon="9.0584283"><ele>696.5</ele><time>2026-05-01T12:12:41.674Z</time></trkpt><trkpt lat="40.8212533" lon="9.058345"><ele>694.6666666666667</ele><time>2026-05-01T12:12:42.674Z</time></trkpt><trkpt lat="40.8211833" lon="9.0582617"><ele>692.8333333333334</ele><time>2026-05-01T12:12:44.674Z</time></trkpt><trkpt lat="40.82113" lon="9.0582017"><ele>691.0</ele><time>2026-05-01T12:12:47.674Z</time></trkpt><trkpt lat="40.8210767" lon="9.0580867"><ele>690.1999999999999</ele><time>2026-05-01T12:12:49.674Z</time></trkpt><trkpt lat="40.8210583" lon="9.0580017"><ele>689.4</ele><time>2026-05-01T12:12:50.674Z</time></trkpt><trkpt lat="40.8210283" lon="9.05782"><ele>688.6</ele><time>2026-05-01T12:12:52.674Z</time></trkpt><trkpt lat="40.8210033" lon="9.0577117"><ele>687.8</ele><time>2026-05-01T12:12:53.674Z</time></trkpt><trkpt lat="40.8209733" lon="9.0576133"><ele>687.0</ele><time>2026-05-01T12:12:54.674Z</time></trkpt><trkpt lat="40.8209317" lon="9.0575167"><ele>689.1666666666666</ele><time>2026-05-01T12:12:55.674Z</time></trkpt><trkpt lat="40.8208917" lon="9.0574017"><ele>691.3333333333334</ele><time>2026-05-01T12:12:56.674Z</time></trkpt><trkpt lat="40.8208533" lon="9.0572883"><ele>693.5</ele><time>2026-05-01T12:12:57.674Z</time></trkpt><trkpt lat="40.8208133" lon="9.0571767"><ele>695.6666666666667</ele><time>2026-05-01T12:12:58.674Z</time></trkpt><trkpt lat="40.8207717" lon="9.057075"><ele>697.8333333333334</ele><time>2026-05-01T12:12:59.674Z</time></trkpt><trkpt lat="40.8207267" lon="9.0569933"><ele>700.0</ele><time>2026-05-01T12:13:00.674Z</time></trkpt><trkpt lat="40.820685" lon="9.0569217"><ele>700.0</ele><time>2026-05-01T12:13:01.674Z</time></trkpt><trkpt lat="40.8206417" lon="9.0568467"><ele>700.0</ele><time>2026-05-01T12:13:02.674Z</time></trkpt><trkpt lat="40.8205883" lon="9.0567567"><ele>700.0</ele><time>2026-05-01T12:13:03.674Z</time></trkpt><trkpt lat="40.8205367" lon="9.05667"><ele>700.0</ele><time>2026-05-01T12:13:04.674Z</time></trkpt><trkpt lat="40.8204867" lon="9.05659"><ele>700.0</ele><time>2026-05-01T12:13:05.674Z</time></trkpt><trkpt lat="40.8204467" lon="9.0565233"><ele>700.0</ele><time>2026-05-01T12:13:06.675Z</time></trkpt><trkpt lat="40.82037" lon="9.056435"><ele>699.4</ele><time>2026-05-01T12:13:08.674Z</time></trkpt><trkpt lat="40.8202967" lon="9.056405"><ele>698.8</ele><time>2026-05-01T12:13:10.674Z</time></trkpt><trkpt lat="40.8202033" lon="9.0564"><ele>698.2</ele><time>2026-05-01T12:13:12.674Z</time></trkpt><trkpt lat="40.8200883" lon="9.0563783"><ele>697.6</ele><time>2026-05-01T12:13:14.674Z</time></trkpt><trkpt lat="40.8199783" lon="9.0563417"><ele>697.0</ele><time>2026-05-01T12:13:16.674Z</time></trkpt><trkpt lat="40.81989" lon="9.0562333"><ele>696.8333333333334</ele><time>2026-05-01T12:13:18.674Z</time></trkpt><trkpt lat="40.8198233" lon="9.0561483"><ele>696.6666666666667</ele><time>2026-05-01T12:13:19.674Z</time></trkpt><trkpt lat="40.8197883" lon="9.0560683"><ele>696.5</ele><time>2026-05-01T12:13:20.674Z</time></trkpt><trkpt lat="40.81974" lon="9.0559767"><ele>696.3333333333334</ele><time>2026-05-01T12:13:21.674Z</time></trkpt><trkpt lat="40.8196833" lon="9.0558917"><ele>696.1666666666666</ele><time>2026-05-01T12:13:22.674Z</time></trkpt><trkpt lat="40.8196283" lon="9.0558033"><ele>696.0</ele><time>2026-05-01T12:13:23.674Z</time></trkpt><trkpt lat="40.819555" lon="9.0557383"><ele>696.0</ele><time>2026-05-01T12:13:24.674Z</time></trkpt><trkpt lat="40.81949" lon="9.0556967"><ele>696.0</ele><time>2026-05-01T12:13:25.674Z</time></trkpt><trkpt lat="40.8194067" lon="9.055675"><ele>696.0</ele><time>2026-05-01T12:13:26.674Z</time></trkpt><trkpt lat="40.8193217" lon="9.0556417"><ele>696.0</ele><time>2026-05-01T12:13:27.674Z</time></trkpt><trkpt lat="40.8192483" lon="9.0556"><ele>696.0</ele><time>2026-05-01T12:13:28.674Z</time></trkpt><trkpt lat="40.81916" lon="9.055555"><ele>696.0</ele><time>2026-05-01T12:13:29.674Z</time></trkpt><trkpt lat="40.81909" lon="9.0554983"><ele>698.5999999999999</ele><time>2026-05-01T12:13:30.674Z</time></trkpt><trkpt lat="40.8190117" lon="9.0554267"><ele>701.2</ele><time>2026-05-01T12:13:31.674Z</time></trkpt><trkpt lat="40.818935" lon="9.055345"><ele>703.8</ele><time>2026-05-01T12:13:32.674Z</time></trkpt><trkpt lat="40.8188633" lon="9.0552367"><ele>706.4000000000001</ele><time>2026-05-01T12:13:33.674Z</time></trkpt><trkpt lat="40.8188" lon="9.0551333"><ele>709.0</ele><time>2026-05-01T12:13:34.674Z</time></trkpt><trkpt lat="40.8187417" lon="9.055025"><ele>709.2</ele><time>2026-05-01T12:13:35.674Z</time></trkpt><trkpt lat="40.8186817" lon="9.054935"><ele>709.4000000000001</ele><time>2026-05-01T12:13:36.675Z</time></trkpt><trkpt lat="40.8186367" lon="9.0548317"><ele>709.6</ele><time>2026-05-01T12:13:37.674Z</time></trkpt><trkpt lat="40.81859" lon="9.0547183"><ele>709.8</ele><time>2026-05-01T12:13:38.674Z</time></trkpt><trkpt lat="40.8185383" lon="9.054615"><ele>710.0</ele><time>2026-05-01T12:13:39.674Z</time></trkpt><trkpt lat="40.81848" lon="9.054545"><ele>713.2</ele><time>2026-05-01T12:13:40.674Z</time></trkpt><trkpt lat="40.8184233" lon="9.0544417"><ele>716.4</ele><time>2026-05-01T12:13:41.674Z</time></trkpt><trkpt lat="40.8183483" lon="9.0543667"><ele>719.5999999999999</ele><time>2026-05-01T12:13:42.674Z</time></trkpt><trkpt lat="40.8182683" lon="9.054305"><ele>722.8</ele><time>2026-05-01T12:13:43.674Z</time></trkpt><trkpt lat="40.8181817" lon="9.05425"><ele>726.0</ele><time>2026-05-01T12:13:44.675Z</time></trkpt><trkpt lat="40.8180783" lon="9.0542067"><ele>726.0</ele><time>2026-05-01T12:13:45.674Z</time></trkpt><trkpt lat="40.8179667" lon="9.0541717"><ele>726.0</ele><time>2026-05-01T12:13:46.674Z</time></trkpt><trkpt lat="40.8178517" lon="9.0541433"><ele>726.0</ele><time>2026-05-01T12:13:47.674Z</time></trkpt><trkpt lat="40.8177033" lon="9.0541017"><ele>726.0</ele><time>2026-05-01T12:13:48.674Z</time></trkpt><trkpt lat="40.8175767" lon="9.054045"><ele>731.0</ele><time>2026-05-01T12:13:49.674Z</time></trkpt><trkpt lat="40.817455" lon="9.054"><ele>736.0</ele><time>2026-05-01T12:13:50.674Z</time></trkpt><trkpt lat="40.8173483" lon="9.05395"><ele>741.0</ele><time>2026-05-01T12:13:51.674Z</time></trkpt><trkpt lat="40.8172467" lon="9.0539033"><ele>746.0</ele><time>2026-05-01T12:13:52.674Z</time></trkpt><trkpt lat="40.817155" lon="9.053865"><ele>751.0</ele><time>2026-05-01T12:13:53.674Z</time></trkpt><trkpt lat="40.8170817" lon="9.053805"><ele>751.0</ele><time>2026-05-01T12:13:54.674Z</time></trkpt><trkpt lat="40.817015" lon="9.0537267"><ele>751.0</ele><time>2026-05-01T12:13:55.674Z</time></trkpt><trkpt lat="40.81696" lon="9.0536433"><ele>751.0</ele><time>2026-05-01T12:13:56.674Z</time></trkpt><trkpt lat="40.81691" lon="9.053555"><ele>751.0</ele><time>2026-05-01T12:13:57.674Z</time></trkpt><trkpt lat="40.8168633" lon="9.0534617"><ele>751.0</ele><time>2026-05-01T12:13:58.674Z</time></trkpt><trkpt lat="40.81681" lon="9.0533617"><ele>751.0</ele><time>2026-05-01T12:13:59.674Z</time></trkpt><trkpt lat="40.8167567" lon="9.0532733"><ele>752.4</ele><time>2026-05-01T12:14:00.674Z</time></trkpt><trkpt lat="40.8167183" lon="9.053165"><ele>753.8</ele><time>2026-05-01T12:14:01.674Z</time></trkpt><trkpt lat="40.8167017" lon="9.053045"><ele>755.1999999999999</ele><time>2026-05-01T12:14:02.674Z</time></trkpt><trkpt lat="40.81667" lon="9.05293"><ele>756.5999999999999</ele><time>2026-05-01T12:14:03.674Z</time></trkpt><trkpt lat="40.816645" lon="9.0528117"><ele>758.0</ele><time>2026-05-01T12:14:04.674Z</time></trkpt><trkpt lat="40.8166167" lon="9.052705"><ele>758.0</ele><time>2026-05-01T12:14:05.674Z</time></trkpt><trkpt lat="40.8165767" lon="9.0525817"><ele>758.0</ele><time>2026-05-01T12:14:06.674Z</time></trkpt><trkpt lat="40.816535" lon="9.05246"><ele>758.0</ele><time>2026-05-01T12:14:07.674Z</time></trkpt><trkpt lat="40.8164733" lon="9.0523283"><ele>758.0</ele><time>2026-05-01T12:14:08.674Z</time></trkpt><trkpt lat="40.8164017" lon="9.0521583"><ele>755.75</ele><time>2026-05-01T12:14:09.674Z</time></trkpt><trkpt lat="40.816305" lon="9.0520267"><ele>753.5</ele><time>2026-05-01T12:14:10.674Z</time></trkpt><trkpt lat="40.8162017" lon="9.0518967"><ele>751.25</ele><time>2026-05-01T12:14:11.674Z</time></trkpt><trkpt lat="40.8161067" lon="9.0517533"><ele>749.0</ele><time>2026-05-01T12:14:12.674Z</time></trkpt><trkpt lat="40.816025" lon="9.0516017"><ele>748.75</ele><time>2026-05-01T12:14:13.674Z</time></trkpt><trkpt lat="40.8159483" lon="9.05146"><ele>748.5</ele><time>2026-05-01T12:14:14.674Z</time></trkpt><trkpt lat="40.8158783" lon="9.051325"><ele>748.25</ele><time>2026-05-01T12:14:15.674Z</time></trkpt><trkpt lat="40.8158133" lon="9.051205"><ele>748.0</ele><time>2026-05-01T12:14:16.674Z</time></trkpt><trkpt lat="40.8157617" lon="9.0510933"><ele>748.0</ele><time>2026-05-01T12:14:17.674Z</time></trkpt><trkpt lat="40.815715" lon="9.050985"><ele>748.0</ele><time>2026-05-01T12:14:18.674Z</time></trkpt><trkpt lat="40.8156683" lon="9.0508833"><ele>748.0</ele><time>2026-05-01T12:14:19.674Z</time></trkpt><trkpt lat="40.8156233" lon="9.0507717"><ele>748.0</ele><time>2026-05-01T12:14:20.674Z</time></trkpt><trkpt lat="40.8155833" lon="9.0506467"><ele>748.0</ele><time>2026-05-01T12:14:21.674Z</time></trkpt><trkpt lat="40.8155517" lon="9.0505167"><ele>745.2</ele><time>2026-05-01T12:14:22.674Z</time></trkpt><trkpt lat="40.8155217" lon="9.0503767"><ele>742.4</ele><time>2026-05-01T12:14:23.674Z</time></trkpt><trkpt lat="40.815485" lon="9.0502483"><ele>739.6</ele><time>2026-05-01T12:14:24.674Z</time></trkpt><trkpt lat="40.8154283" lon="9.0501583"><ele>736.8000000000001</ele><time>2026-05-01T12:14:25.674Z</time></trkpt><trkpt lat="40.8153567" lon="9.0500883"><ele>734.0</ele><time>2026-05-01T12:14:26.674Z</time></trkpt><trkpt lat="40.815295" lon="9.05001"><ele>733.6666666666666</ele><time>2026-05-01T12:14:27.674Z</time></trkpt><trkpt lat="40.815225" lon="9.0499467"><ele>733.3333333333333</ele><time>2026-05-01T12:14:28.674Z</time></trkpt><trkpt lat="40.8151517" lon="9.0499033"><ele>733.0</ele><time>2026-05-01T12:14:29.674Z</time></trkpt><trkpt lat="40.8150783" lon="9.0498733"><ele>732.6666666666666</ele><time>2026-05-01T12:14:30.674Z</time></trkpt><trkpt lat="40.8149867" lon="9.049845"><ele>732.3333333333334</ele><time>2026-05-01T12:14:31.674Z</time></trkpt><trkpt lat="40.8149" lon="9.0498067"><ele>732.0</ele><time>2026-05-01T12:14:32.674Z</time></trkpt><trkpt lat="40.8148133" lon="9.049755"><ele>732.0</ele><time>2026-05-01T12:14:33.675Z</time></trkpt><trkpt lat="40.814715" lon="9.0496933"><ele>732.0</ele><time>2026-05-01T12:14:34.674Z</time></trkpt><trkpt lat="40.8146033" lon="9.049625"><ele>732.0</ele><time>2026-05-01T12:14:35.674Z</time></trkpt><trkpt lat="40.81449" lon="9.04955"><ele>732.0</ele><time>2026-05-01T12:14:36.674Z</time></trkpt><trkpt lat="40.8143867" lon="9.0494717"><ele>735.5</ele><time>2026-05-01T12:14:37.674Z</time></trkpt><trkpt lat="40.8142933" lon="9.049395"><ele>739.0</ele><time>2026-05-01T12:14:38.674Z</time></trkpt><trkpt lat="40.814205" lon="9.0493117"><ele>742.5</ele><time>2026-05-01T12:14:39.674Z</time></trkpt><trkpt lat="40.8141067" lon="9.04923"><ele>746.0</ele><time>2026-05-01T12:14:40.674Z</time></trkpt><trkpt lat="40.8140083" lon="9.04915"><ele>744.5999999999999</ele><time>2026-05-01T12:14:41.674Z</time></trkpt><trkpt lat="40.8139183" lon="9.0490767"><ele>743.2</ele><time>2026-05-01T12:14:42.674Z</time></trkpt><trkpt lat="40.8138433" lon="9.0490117"><ele>741.8</ele><time>2026-05-01T12:14:43.674Z</time></trkpt><trkpt lat="40.81377" lon="9.0489617"><ele>740.4000000000001</ele><time>2026-05-01T12:14:44.674Z</time></trkpt><trkpt lat="40.8137" lon="9.04891"><ele>739.0</ele><time>2026-05-01T12:14:46.674Z</time></trkpt><trkpt lat="40.81378" lon="9.0490267"><ele>740.1666666666667</ele><time>2026-05-01T12:15:20.674Z</time></trkpt><trkpt lat="40.8138467" lon="9.0491483"><ele>741.3333333333334</ele><time>2026-05-01T12:15:23.674Z</time></trkpt><trkpt lat="40.8138817" lon="9.0492367"><ele>742.5</ele><time>2026-05-01T12:15:24.674Z</time></trkpt><trkpt lat="40.8139117" lon="9.0493217"><ele>743.6666666666666</ele><time>2026-05-01T12:15:25.674Z</time></trkpt><trkpt lat="40.8139583" lon="9.0494233"><ele>744.8333333333333</ele><time>2026-05-01T12:15:26.674Z</time></trkpt><trkpt lat="40.8139933" lon="9.049525"><ele>746.0</ele><time>2026-05-01T12:15:27.674Z</time></trkpt><trkpt lat="40.81402" lon="9.04962"><ele>746.0</ele><time>2026-05-01T12:15:28.674Z</time></trkpt><trkpt lat="40.8140467" lon="9.0497033"><ele>746.0</ele><time>2026-05-01T12:15:29.674Z</time></trkpt><trkpt lat="40.8140767" lon="9.0498617"><ele>746.0</ele><time>2026-05-01T12:15:31.674Z</time></trkpt><trkpt lat="40.81404" lon="9.05001"><ele>746.0</ele><time>2026-05-01T12:15:33.674Z</time></trkpt><trkpt lat="40.8139717" lon="9.0501517"><ele>746.0</ele><time>2026-05-01T12:15:35.674Z</time></trkpt><trkpt lat="40.8138933" lon="9.05026"><ele>748.0</ele><time>2026-05-01T12:15:37.674Z</time></trkpt><trkpt lat="40.8138467" lon="9.05032"><ele>750.0</ele><time>2026-05-01T12:15:38.674Z</time></trkpt><trkpt lat="40.813755" lon="9.0504317"><ele>752.0</ele><time>2026-05-01T12:15:40.674Z</time></trkpt><trkpt lat="40.8136833" lon="9.0505367"><ele>754.0</ele><time>2026-05-01T12:15:42.674Z</time></trkpt><trkpt lat="40.813655" lon="9.0506117"><ele>756.0</ele><time>2026-05-01T12:15:43.674Z</time></trkpt><trkpt lat="40.8136117" lon="9.0507533"><ele>755.0</ele><time>2026-05-01T12:15:45.674Z</time></trkpt><trkpt lat="40.8135683" lon="9.050875"><ele>754.0</ele><time>2026-05-01T12:15:47.675Z</time></trkpt><trkpt lat="40.8135267" lon="9.0510267"><ele>753.0</ele><time>2026-05-01T12:15:50.674Z</time></trkpt><trkpt lat="40.8135067" lon="9.0511067"><ele>752.0</ele><time>2026-05-01T12:15:52.674Z</time></trkpt><trkpt lat="40.8134867" lon="9.0512183"><ele>751.0</ele><time>2026-05-01T12:15:54.674Z</time></trkpt><trkpt lat="40.8134783" lon="9.0513333"><ele>752.0</ele><time>2026-05-01T12:15:56.674Z</time></trkpt><trkpt lat="40.8134933" lon="9.0512167"><ele>753.0</ele><time>2026-05-01T12:18:35.673Z</time></trkpt><trkpt lat="40.81352" lon="9.0511117"><ele>754.0</ele><time>2026-05-01T12:18:37.673Z</time></trkpt><trkpt lat="40.8135433" lon="9.0509633"><ele>755.0</ele><time>2026-05-01T12:18:39.673Z</time></trkpt><trkpt lat="40.8135833" lon="9.0508133"><ele>756.0</ele><time>2026-05-01T12:18:41.673Z</time></trkpt><trkpt lat="40.8136083" lon="9.050735"><ele>756.0</ele><time>2026-05-01T12:18:42.673Z</time></trkpt><trkpt lat="40.813655" lon="9.0505833"><ele>756.0</ele><time>2026-05-01T12:18:44.673Z</time></trkpt><trkpt lat="40.8136867" lon="9.0505083"><ele>756.0</ele><time>2026-05-01T12:18:45.673Z</time></trkpt><trkpt lat="40.81376" lon="9.0503967"><ele>756.0</ele><time>2026-05-01T12:18:47.673Z</time></trkpt><trkpt lat="40.8138467" lon="9.0502933"><ele>756.0</ele><time>2026-05-01T12:18:49.673Z</time></trkpt><trkpt lat="40.8138883" lon="9.0502283"><ele>756.0</ele><time>2026-05-01T12:18:50.674Z</time></trkpt><trkpt lat="40.8139283" lon="9.0501517"><ele>756.0</ele><time>2026-05-01T12:18:51.673Z</time></trkpt><trkpt lat="40.8139683" lon="9.0500717"><ele>756.0</ele><time>2026-05-01T12:18:52.673Z</time></trkpt><trkpt lat="40.8140067" lon="9.049985"><ele>756.0</ele><time>2026-05-01T12:18:53.673Z</time></trkpt><trkpt lat="40.8140417" lon="9.0499"><ele>756.0</ele><time>2026-05-01T12:18:54.673Z</time></trkpt><trkpt lat="40.8140817" lon="9.0497467"><ele>756.0</ele><time>2026-05-01T12:18:56.673Z</time></trkpt><trkpt lat="40.8140833" lon="9.0496633"><ele>754.5714285714286</ele><time>2026-05-01T12:18:57.673Z</time></trkpt><trkpt lat="40.8140717" lon="9.0495783"><ele>753.1428571428571</ele><time>2026-05-01T12:18:58.673Z</time></trkpt><trkpt lat="40.8140483" lon="9.0494983"><ele>751.7142857142858</ele><time>2026-05-01T12:18:59.673Z</time></trkpt><trkpt lat="40.8140117" lon="9.0494217"><ele>750.2857142857142</ele><time>2026-05-01T12:19:00.673Z</time></trkpt><trkpt lat="40.8139817" lon="9.0493367"><ele>748.8571428571429</ele><time>2026-05-01T12:19:01.673Z</time></trkpt><trkpt lat="40.8139483" lon="9.049255"><ele>747.4285714285714</ele><time>2026-05-01T12:19:02.673Z</time></trkpt><trkpt lat="40.8139083" lon="9.0491767"><ele>746.0</ele><time>2026-05-01T12:19:03.673Z</time></trkpt><trkpt lat="40.81387" lon="9.0491067"><ele>744.5999999999999</ele><time>2026-05-01T12:19:04.673Z</time></trkpt><trkpt lat="40.8138" lon="9.049"><ele>743.2</ele><time>2026-05-01T12:19:06.673Z</time></trkpt><trkpt lat="40.81374" lon="9.04895"><ele>741.8</ele><time>2026-05-01T12:19:08.673Z</time></trkpt><trkpt lat="40.81378" lon="9.0490417"><ele>740.4000000000001</ele><time>2026-05-01T12:20:15.673Z</time></trkpt><trkpt lat="40.8137067" lon="9.0488733"><ele>739.0</ele><time>2026-05-01T12:21:55.673Z</time></trkpt><trkpt lat="40.8136633" lon="9.04876"><ele>739.0</ele><time>2026-05-01T12:21:57.673Z</time></trkpt><trkpt lat="40.8136283" lon="9.048675"><ele>739.0</ele><time>2026-05-01T12:21:58.673Z</time></trkpt><trkpt lat="40.813575" lon="9.048575"><ele>739.0</ele><time>2026-05-01T12:21:59.673Z</time></trkpt><trkpt lat="40.8135333" lon="9.0484733"><ele>739.0</ele><time>2026-05-01T12:22:00.673Z</time></trkpt><trkpt lat="40.81349" lon="9.04838"><ele>739.0</ele><time>2026-05-01T12:22:01.673Z</time></trkpt><trkpt lat="40.8134467" lon="9.0483017"><ele>739.0</ele><time>2026-05-01T12:22:02.673Z</time></trkpt><trkpt lat="40.8133833" lon="9.0482367"><ele>740.1666666666667</ele><time>2026-05-01T12:22:03.673Z</time></trkpt><trkpt lat="40.8133133" lon="9.0481783"><ele>741.3333333333334</ele><time>2026-05-01T12:22:04.673Z</time></trkpt><trkpt lat="40.8132433" lon="9.0481367"><ele>742.5</ele><time>2026-05-01T12:22:05.673Z</time></trkpt><trkpt lat="40.81316" lon="9.0481033"><ele>743.6666666666666</ele><time>2026-05-01T12:22:06.673Z</time></trkpt><trkpt lat="40.8130867" lon="9.048065"><ele>744.8333333333333</ele><time>2026-05-01T12:22:07.673Z</time></trkpt><trkpt lat="40.8130217" lon="9.0480117"><ele>746.0</ele><time>2026-05-01T12:22:08.673Z</time></trkpt><trkpt lat="40.812955" lon="9.0479417"><ele>746.0</ele><time>2026-05-01T12:22:09.673Z</time></trkpt><trkpt lat="40.8129067" lon="9.0478617"><ele>746.0</ele><time>2026-05-01T12:22:10.673Z</time></trkpt><trkpt lat="40.8128583" lon="9.0477833"><ele>746.0</ele><time>2026-05-01T12:22:11.673Z</time></trkpt><trkpt lat="40.8128233" lon="9.0476333"><ele>746.0</ele><time>2026-05-01T12:22:13.673Z</time></trkpt><trkpt lat="40.8128583" lon="9.0474683"><ele>746.0</ele><time>2026-05-01T12:22:15.673Z</time></trkpt><trkpt lat="40.8128833" lon="9.0473817"><ele>747.1428571428571</ele><time>2026-05-01T12:22:16.673Z</time></trkpt><trkpt lat="40.8129067" lon="9.047275"><ele>748.2857142857143</ele><time>2026-05-01T12:22:17.673Z</time></trkpt><trkpt lat="40.8129183" lon="9.04717"><ele>749.4285714285713</ele><time>2026-05-01T12:22:18.673Z</time></trkpt><trkpt lat="40.81292" lon="9.0470683"><ele>750.5714285714286</ele><time>2026-05-01T12:22:19.673Z</time></trkpt><trkpt lat="40.81292" lon="9.0469767"><ele>751.7142857142857</ele><time>2026-05-01T12:22:20.673Z</time></trkpt><trkpt lat="40.81291" lon="9.0468867"><ele>752.8571428571428</ele><time>2026-05-01T12:22:21.673Z</time></trkpt><trkpt lat="40.8128933" lon="9.0468017"><ele>754.0</ele><time>2026-05-01T12:22:22.673Z</time></trkpt><trkpt lat="40.8128783" lon="9.0466367"><ele>757.6</ele><time>2026-05-01T12:22:24.673Z</time></trkpt><trkpt lat="40.8129067" lon="9.0465017"><ele>761.2</ele><time>2026-05-01T12:22:26.673Z</time></trkpt><trkpt lat="40.8129833" lon="9.04638"><ele>764.8000000000001</ele><time>2026-05-01T12:22:28.673Z</time></trkpt><trkpt lat="40.8130333" lon="9.0462567"><ele>768.4000000000001</ele><time>2026-05-01T12:22:30.673Z</time></trkpt><trkpt lat="40.8130183" lon="9.0461417"><ele>772.0</ele><time>2026-05-01T12:22:32.673Z</time></trkpt><trkpt lat="40.8129967" lon="9.0460583"><ele>772.0</ele><time>2026-05-01T12:23:21.673Z</time></trkpt><trkpt lat="40.8129117" lon="9.0459533"><ele>772.0</ele><time>2026-05-01T12:23:52.673Z</time></trkpt><trkpt lat="40.8128383" lon="9.0458183"><ele>772.0</ele><time>2026-05-01T12:23:54.673Z</time></trkpt><trkpt lat="40.81279" lon="9.045715"><ele>772.0</ele><time>2026-05-01T12:23:55.673Z</time></trkpt><trkpt lat="40.8127333" lon="9.045605"><ele>772.0</ele><time>2026-05-01T12:23:56.673Z</time></trkpt><trkpt lat="40.8126717" lon="9.045505"><ele>770.2</ele><time>2026-05-01T12:23:57.674Z</time></trkpt><trkpt lat="40.81261" lon="9.0454017"><ele>768.4000000000001</ele><time>2026-05-01T12:23:58.673Z</time></trkpt><trkpt lat="40.8125417" lon="9.0452933"><ele>766.5999999999999</ele><time>2026-05-01T12:23:59.673Z</time></trkpt><trkpt lat="40.8124633" lon="9.0451967"><ele>764.8</ele><time>2026-05-01T12:24:00.673Z</time></trkpt><trkpt lat="40.8123833" lon="9.0451067"><ele>763.0</ele><time>2026-05-01T12:24:01.673Z</time></trkpt><trkpt lat="40.812305" lon="9.0450183"><ele>758.8</ele><time>2026-05-01T12:24:02.673Z</time></trkpt><trkpt lat="40.812225" lon="9.044935"><ele>754.5999999999999</ele><time>2026-05-01T12:24:03.673Z</time></trkpt><trkpt lat="40.8121583" lon="9.0448533"><ele>750.4000000000001</ele><time>2026-05-01T12:24:04.673Z</time></trkpt><trkpt lat="40.8121167" lon="9.044775"><ele>746.2</ele><time>2026-05-01T12:24:05.673Z</time></trkpt><trkpt lat="40.8120967" lon="9.0446317"><ele>742.0</ele><time>2026-05-01T12:24:07.673Z</time></trkpt><trkpt lat="40.8121683" lon="9.0445033"><ele>742.0</ele><time>2026-05-01T12:24:09.673Z</time></trkpt><trkpt lat="40.8122233" lon="9.0443583"><ele>742.0</ele><time>2026-05-01T12:24:11.673Z</time></trkpt><trkpt lat="40.8121867" lon="9.0442083"><ele>742.0</ele><time>2026-05-01T12:24:13.673Z</time></trkpt><trkpt lat="40.8121233" lon="9.0441283"><ele>742.0</ele><time>2026-05-01T12:24:14.673Z</time></trkpt><trkpt lat="40.8120467" lon="9.0440617"><ele>742.0</ele><time>2026-05-01T12:24:15.673Z</time></trkpt><trkpt lat="40.8119817" lon="9.0439867"><ele>740.0</ele><time>2026-05-01T12:24:16.673Z</time></trkpt><trkpt lat="40.8119133" lon="9.0439217"><ele>738.0</ele><time>2026-05-01T12:24:17.674Z</time></trkpt><trkpt lat="40.81185" lon="9.0438517"><ele>736.0</ele><time>2026-05-01T12:24:18.673Z</time></trkpt><trkpt lat="40.8117867" lon="9.043785"><ele>734.0</ele><time>2026-05-01T12:24:19.673Z</time></trkpt><trkpt lat="40.8117283" lon="9.04372"><ele>732.0</ele><time>2026-05-01T12:24:20.673Z</time></trkpt><trkpt lat="40.8116817" lon="9.0436467"><ele>730.0</ele><time>2026-05-01T12:24:21.673Z</time></trkpt><trkpt lat="40.8116433" lon="9.0435633"><ele>730.0</ele><time>2026-05-01T12:24:22.673Z</time></trkpt><trkpt lat="40.811615" lon="9.043485"><ele>730.0</ele><time>2026-05-01T12:24:23.673Z</time></trkpt><trkpt lat="40.8115917" lon="9.0434067"><ele>730.0</ele><time>2026-05-01T12:24:24.673Z</time></trkpt><trkpt lat="40.8115833" lon="9.0432633"><ele>730.0</ele><time>2026-05-01T12:24:26.673Z</time></trkpt><trkpt lat="40.811625" lon="9.0431417"><ele>730.0</ele><time>2026-05-01T12:24:28.673Z</time></trkpt><trkpt lat="40.8117483" lon="9.0431083"><ele>725.6</ele><time>2026-05-01T12:24:30.673Z</time></trkpt><trkpt lat="40.8118533" lon="9.043125"><ele>721.2</ele><time>2026-05-01T12:24:31.673Z</time></trkpt><trkpt lat="40.81196" lon="9.043145"><ele>716.8</ele><time>2026-05-01T12:24:32.673Z</time></trkpt><trkpt lat="40.8120733" lon="9.043175"><ele>712.4</ele><time>2026-05-01T12:24:33.673Z</time></trkpt><trkpt lat="40.812175" lon="9.0432033"><ele>708.0</ele><time>2026-05-01T12:24:34.673Z</time></trkpt><trkpt lat="40.8122733" lon="9.04323"><ele>708.0</ele><time>2026-05-01T12:24:35.673Z</time></trkpt><trkpt lat="40.81237" lon="9.04325"><ele>708.0</ele><time>2026-05-01T12:24:36.673Z</time></trkpt><trkpt lat="40.81247" lon="9.0432667"><ele>708.0</ele><time>2026-05-01T12:24:37.673Z</time></trkpt><trkpt lat="40.8125717" lon="9.0432717"><ele>708.0</ele><time>2026-05-01T12:24:38.673Z</time></trkpt><trkpt lat="40.81267" lon="9.0432667"><ele>708.0</ele><time>2026-05-01T12:24:39.673Z</time></trkpt><trkpt lat="40.8127633" lon="9.0432567"><ele>706.5</ele><time>2026-05-01T12:24:40.673Z</time></trkpt><trkpt lat="40.8128467" lon="9.04324"><ele>705.0</ele><time>2026-05-01T12:24:41.673Z</time></trkpt><trkpt lat="40.8129117" lon="9.04323"><ele>703.5</ele><time>2026-05-01T12:24:42.673Z</time></trkpt><trkpt lat="40.813015" lon="9.0431983"><ele>702.0</ele><time>2026-05-01T12:24:44.673Z</time></trkpt><trkpt lat="40.8130883" lon="9.04311"><ele>700.5</ele><time>2026-05-01T12:24:46.673Z</time></trkpt><trkpt lat="40.8130833" lon="9.0430117"><ele>699.0</ele><time>2026-05-01T12:24:48.673Z</time></trkpt><trkpt lat="40.8130083" lon="9.0429167"><ele>699.0</ele><time>2026-05-01T12:24:50.673Z</time></trkpt><trkpt lat="40.8129417" lon="9.0428333"><ele>699.0</ele><time>2026-05-01T12:24:52.673Z</time></trkpt><trkpt lat="40.8128867" lon="9.0427383"><ele>699.0</ele><time>2026-05-01T12:24:54.673Z</time></trkpt><trkpt lat="40.8128283" lon="9.0426483"><ele>699.0</ele><time>2026-05-01T12:24:56.673Z</time></trkpt><trkpt lat="40.8127467" lon="9.0425417"><ele>699.0</ele><time>2026-05-01T12:25:09.673Z</time></trkpt><trkpt lat="40.8126767" lon="9.0424833"><ele>697.8333333333334</ele><time>2026-05-01T12:25:11.673Z</time></trkpt><trkpt lat="40.812575" lon="9.0424017"><ele>696.6666666666666</ele><time>2026-05-01T12:25:13.673Z</time></trkpt><trkpt lat="40.812515" lon="9.0423583"><ele>695.5</ele><time>2026-05-01T12:25:14.673Z</time></trkpt><trkpt lat="40.8124567" lon="9.0423017"><ele>694.3333333333333</ele><time>2026-05-01T12:25:15.673Z</time></trkpt><trkpt lat="40.8123967" lon="9.0422417"><ele>693.1666666666666</ele><time>2026-05-01T12:25:16.673Z</time></trkpt><trkpt lat="40.81235" lon="9.0421833"><ele>692.0</ele><time>2026-05-01T12:25:17.673Z</time></trkpt><trkpt lat="40.8123" lon="9.0421233"><ele>692.0</ele><time>2026-05-01T12:25:18.673Z</time></trkpt><trkpt lat="40.8122467" lon="9.0420683"><ele>692.0</ele><time>2026-05-01T12:25:19.673Z</time></trkpt><trkpt lat="40.8121683" lon="9.04196"><ele>692.0</ele><time>2026-05-01T12:25:21.673Z</time></trkpt><trkpt lat="40.8121033" lon="9.0418467"><ele>692.0</ele><time>2026-05-01T12:25:23.673Z</time></trkpt><trkpt lat="40.81206" lon="9.0417833"><ele>692.0</ele><time>2026-05-01T12:25:24.673Z</time></trkpt><trkpt lat="40.8119917" lon="9.0416617"><ele>689.6666666666666</ele><time>2026-05-01T12:25:26.673Z</time></trkpt><trkpt lat="40.811975" lon="9.0415617"><ele>687.3333333333333</ele><time>2026-05-01T12:25:28.673Z</time></trkpt><trkpt lat="40.8119767" lon="9.041465"><ele>685.0</ele><time>2026-05-01T12:25:30.673Z</time></trkpt><trkpt lat="40.8120133" lon="9.0413683"><ele>682.6666666666666</ele><time>2026-05-01T12:25:32.673Z</time></trkpt><trkpt lat="40.812075" lon="9.0413133"><ele>680.3333333333334</ele><time>2026-05-01T12:25:34.673Z</time></trkpt><trkpt lat="40.812175" lon="9.041255"><ele>678.0</ele><time>2026-05-01T12:25:36.673Z</time></trkpt><trkpt lat="40.8122717" lon="9.0412017"><ele>678.0</ele><time>2026-05-01T12:25:38.673Z</time></trkpt><trkpt lat="40.8123333" lon="9.041175"><ele>678.0</ele><time>2026-05-01T12:25:39.673Z</time></trkpt><trkpt lat="40.8123967" lon="9.0411467"><ele>678.0</ele><time>2026-05-01T12:25:40.673Z</time></trkpt><trkpt lat="40.8124617" lon="9.0411167"><ele>678.0</ele><time>2026-05-01T12:25:41.673Z</time></trkpt><trkpt lat="40.8125217" lon="9.041085"><ele>678.0</ele><time>2026-05-01T12:25:42.673Z</time></trkpt><trkpt lat="40.81258" lon="9.0410483"><ele>678.0</ele><time>2026-05-01T12:25:43.673Z</time></trkpt><trkpt lat="40.8126833" lon="9.040995"><ele>678.0</ele><time>2026-05-01T12:25:45.673Z</time></trkpt><trkpt lat="40.8127967" lon="9.040935"><ele>675.0</ele><time>2026-05-01T12:25:47.673Z</time></trkpt><trkpt lat="40.8129" lon="9.0408567"><ele>672.0</ele><time>2026-05-01T12:25:49.673Z</time></trkpt><trkpt lat="40.8129917" lon="9.0407633"><ele>669.0</ele><time>2026-05-01T12:25:51.673Z</time></trkpt><trkpt lat="40.8130867" lon="9.040665"><ele>666.0</ele><time>2026-05-01T12:25:53.673Z</time></trkpt><trkpt lat="40.8131683" lon="9.0405583"><ele>664.1666666666666</ele><time>2026-05-01T12:25:55.673Z</time></trkpt><trkpt lat="40.8131983" lon="9.04045"><ele>662.3333333333334</ele><time>2026-05-01T12:25:57.673Z</time></trkpt><trkpt lat="40.8132017" lon="9.0403283"><ele>660.5</ele><time>2026-05-01T12:25:59.672Z</time></trkpt><trkpt lat="40.8131817" lon="9.0402433"><ele>658.6666666666667</ele><time>2026-05-01T12:26:01.672Z</time></trkpt><trkpt lat="40.813125" lon="9.0401717"><ele>656.8333333333334</ele><time>2026-05-01T12:26:03.672Z</time></trkpt><trkpt lat="40.8130733" lon="9.0400933"><ele>655.0</ele><time>2026-05-01T12:26:05.672Z</time></trkpt><trkpt lat="40.8130033" lon="9.0400067"><ele>652.2</ele><time>2026-05-01T12:26:07.672Z</time></trkpt><trkpt lat="40.812915" lon="9.039915"><ele>649.4</ele><time>2026-05-01T12:26:09.672Z</time></trkpt><trkpt lat="40.812855" lon="9.0398767"><ele>646.5999999999999</ele><time>2026-05-01T12:26:10.672Z</time></trkpt><trkpt lat="40.8127533" lon="9.0398117"><ele>643.8</ele><time>2026-05-01T12:26:12.672Z</time></trkpt><trkpt lat="40.8126567" lon="9.039765"><ele>641.0</ele><time>2026-05-01T12:26:14.672Z</time></trkpt><trkpt lat="40.8125717" lon="9.0397033"><ele>641.0</ele><time>2026-05-01T12:26:16.672Z</time></trkpt><trkpt lat="40.8125133" lon="9.039605"><ele>641.0</ele><time>2026-05-01T12:26:18.672Z</time></trkpt><trkpt lat="40.812485" lon="9.0395133"><ele>641.0</ele><time>2026-05-01T12:26:20.672Z</time></trkpt><trkpt lat="40.8125167" lon="9.039425"><ele>641.0</ele><time>2026-05-01T12:26:23.672Z</time></trkpt><trkpt lat="40.8126183" lon="9.0394417"><ele>641.0</ele><time>2026-05-01T12:26:26.672Z</time></trkpt><trkpt lat="40.8127167" lon="9.0394383"><ele>641.0</ele><time>2026-05-01T12:26:28.672Z</time></trkpt><trkpt lat="40.8127333" lon="9.0393383"><ele>641.0</ele><time>2026-05-01T12:26:32.672Z</time></trkpt><trkpt lat="40.8126767" lon="9.0392817"><ele>641.0</ele><time>2026-05-01T12:26:34.672Z</time></trkpt><trkpt lat="40.81257" lon="9.039235"><ele>641.0</ele><time>2026-05-01T12:26:36.672Z</time></trkpt><trkpt lat="40.812475" lon="9.0391733"><ele>641.0</ele><time>2026-05-01T12:26:38.672Z</time></trkpt><trkpt lat="40.8123883" lon="9.03909"><ele>641.0</ele><time>2026-05-01T12:26:40.672Z</time></trkpt><trkpt lat="40.8123133" lon="9.0389833"><ele>638.4</ele><time>2026-05-01T12:26:42.672Z</time></trkpt><trkpt lat="40.812285" lon="9.0389"><ele>635.8</ele><time>2026-05-01T12:26:43.672Z</time></trkpt><trkpt lat="40.81226" lon="9.0387767"><ele>633.1999999999999</ele><time>2026-05-01T12:26:45.672Z</time></trkpt><trkpt lat="40.8122417" lon="9.0386367"><ele>630.5999999999999</ele><time>2026-05-01T12:26:47.673Z</time></trkpt><trkpt lat="40.812245" lon="9.0385117"><ele>628.0</ele><time>2026-05-01T12:26:49.672Z</time></trkpt><trkpt lat="40.8123983" lon="9.0384367"><ele>628.0</ele><time>2026-05-01T12:27:02.672Z</time></trkpt><trkpt lat="40.8125067" lon="9.0383917"><ele>628.0</ele><time>2026-05-01T12:27:05.672Z</time></trkpt><trkpt lat="40.812605" lon="9.0383283"><ele>628.0</ele><time>2026-05-01T12:27:07.672Z</time></trkpt><trkpt lat="40.8127117" lon="9.0382533"><ele>628.0</ele><time>2026-05-01T12:27:09.672Z</time></trkpt><trkpt lat="40.8128133" lon="9.0381817"><ele>624.3333333333334</ele><time>2026-05-01T12:27:11.672Z</time></trkpt><trkpt lat="40.812895" lon="9.0380883"><ele>620.6666666666667</ele><time>2026-05-01T12:27:13.672Z</time></trkpt><trkpt lat="40.8129567" lon="9.037975"><ele>617.0</ele><time>2026-05-01T12:27:15.672Z</time></trkpt><trkpt lat="40.812995" lon="9.0379"><ele>613.3333333333334</ele><time>2026-05-01T12:27:16.672Z</time></trkpt><trkpt lat="40.81303" lon="9.0378167"><ele>609.6666666666666</ele><time>2026-05-01T12:27:17.672Z</time></trkpt><trkpt lat="40.8130483" lon="9.0377283"><ele>606.0</ele><time>2026-05-01T12:27:18.672Z</time></trkpt><trkpt lat="40.8130567" lon="9.03757"><ele>605.0</ele><time>2026-05-01T12:27:20.672Z</time></trkpt><trkpt lat="40.813045" lon="9.0374017"><ele>604.0</ele><time>2026-05-01T12:27:22.672Z</time></trkpt><trkpt lat="40.8130433" lon="9.0373067"><ele>603.0</ele><time>2026-05-01T12:27:23.672Z</time></trkpt><trkpt lat="40.813045" lon="9.0372183"><ele>602.0</ele><time>2026-05-01T12:27:24.672Z</time></trkpt><trkpt lat="40.8130567" lon="9.037125"><ele>601.0</ele><time>2026-05-01T12:27:25.672Z</time></trkpt><trkpt lat="40.813065" lon="9.03703"><ele>600.0</ele><time>2026-05-01T12:27:26.672Z</time></trkpt><trkpt lat="40.8130667" lon="9.0369283"><ele>599.9999999999999</ele><time>2026-05-01T12:27:27.672Z</time></trkpt><trkpt lat="40.81307" lon="9.0368333"><ele>600.0</ele><time>2026-05-01T12:27:28.672Z</time></trkpt><trkpt lat="40.8130633" lon="9.0367433"><ele>600.0</ele><time>2026-05-01T12:27:29.672Z</time></trkpt><trkpt lat="40.813055" lon="9.0366433"><ele>600.0</ele><time>2026-05-01T12:27:30.672Z</time></trkpt><trkpt lat="40.8130467" lon="9.036545"><ele>600.0</ele><time>2026-05-01T12:27:31.672Z</time></trkpt><trkpt lat="40.8130333" lon="9.036445"><ele>599.9999999999999</ele><time>2026-05-01T12:27:32.672Z</time></trkpt><trkpt lat="40.8130067" lon="9.0363517"><ele>600.0</ele><time>2026-05-01T12:27:33.672Z</time></trkpt><trkpt lat="40.8129867" lon="9.0362517"><ele>598.5714285714286</ele><time>2026-05-01T12:27:34.672Z</time></trkpt><trkpt lat="40.81296" lon="9.03617"><ele>597.1428571428571</ele><time>2026-05-01T12:27:35.672Z</time></trkpt><trkpt lat="40.812935" lon="9.036085"><ele>595.7142857142858</ele><time>2026-05-01T12:27:36.672Z</time></trkpt><trkpt lat="40.8129083" lon="9.0359983"><ele>594.2857142857142</ele><time>2026-05-01T12:27:37.672Z</time></trkpt><trkpt lat="40.812875" lon="9.035905"><ele>592.8571428571429</ele><time>2026-05-01T12:27:38.672Z</time></trkpt><trkpt lat="40.8128367" lon="9.0358117"><ele>591.4285714285714</ele><time>2026-05-01T12:27:39.672Z</time></trkpt><trkpt lat="40.8128183" lon="9.0357283"><ele>590.0</ele><time>2026-05-01T12:27:40.672Z</time></trkpt><trkpt lat="40.81278" lon="9.0356517"><ele>590.0</ele><time>2026-05-01T12:27:41.672Z</time></trkpt><trkpt lat="40.8127333" lon="9.03558"><ele>590.0</ele><time>2026-05-01T12:27:42.672Z</time></trkpt><trkpt lat="40.812685" lon="9.0355233"><ele>590.0</ele><time>2026-05-01T12:27:43.672Z</time></trkpt><trkpt lat="40.8126067" lon="9.03544"><ele>590.0</ele><time>2026-05-01T12:27:45.672Z</time></trkpt><trkpt lat="40.8125033" lon="9.0354217"><ele>590.0</ele><time>2026-05-01T12:27:47.672Z</time></trkpt><trkpt lat="40.8123933" lon="9.03539"><ele>589.2857142857143</ele><time>2026-05-01T12:27:49.672Z</time></trkpt><trkpt lat="40.81233" lon="9.0353767"><ele>588.5714285714286</ele><time>2026-05-01T12:27:50.672Z</time></trkpt><trkpt lat="40.8122583" lon="9.0353617"><ele>587.8571428571429</ele><time>2026-05-01T12:27:51.672Z</time></trkpt><trkpt lat="40.812185" lon="9.0353533"><ele>587.1428571428571</ele><time>2026-05-01T12:27:52.672Z</time></trkpt><trkpt lat="40.81211" lon="9.0353467"><ele>586.4285714285714</ele><time>2026-05-01T12:27:53.673Z</time></trkpt><trkpt lat="40.81204" lon="9.0353367"><ele>585.7142857142858</ele><time>2026-05-01T12:27:54.672Z</time></trkpt><trkpt lat="40.8119667" lon="9.0353317"><ele>585.0</ele><time>2026-05-01T12:27:55.672Z</time></trkpt><trkpt lat="40.8119" lon="9.035335"><ele>585.0</ele><time>2026-05-01T12:27:56.672Z</time></trkpt><trkpt lat="40.8118367" lon="9.0353467"><ele>585.0</ele><time>2026-05-01T12:27:57.672Z</time></trkpt><trkpt lat="40.8117117" lon="9.0353667"><ele>585.0</ele><time>2026-05-01T12:27:59.672Z</time></trkpt><trkpt lat="40.8116483" lon="9.0353817"><ele>585.0</ele><time>2026-05-01T12:28:00.672Z</time></trkpt><trkpt lat="40.8115783" lon="9.0353967"><ele>585.0</ele><time>2026-05-01T12:28:01.672Z</time></trkpt><trkpt lat="40.811515" lon="9.03541"><ele>585.0</ele><time>2026-05-01T12:28:02.672Z</time></trkpt><trkpt lat="40.8114117" lon="9.0354583"><ele>582.8</ele><time>2026-05-01T12:28:04.672Z</time></trkpt><trkpt lat="40.81133" lon="9.035525"><ele>580.6</ele><time>2026-05-01T12:28:06.672Z</time></trkpt><trkpt lat="40.811255" lon="9.0355983"><ele>578.4</ele><time>2026-05-01T12:28:08.672Z</time></trkpt><trkpt lat="40.8111717" lon="9.0356433"><ele>576.2</ele><time>2026-05-01T12:28:10.672Z</time></trkpt><trkpt lat="40.8110867" lon="9.0356883"><ele>574.0</ele><time>2026-05-01T12:28:12.672Z</time></trkpt><trkpt lat="40.8109933" lon="9.03575"><ele>574.8</ele><time>2026-05-01T12:28:14.672Z</time></trkpt><trkpt lat="40.81091" lon="9.035805"><ele>575.5999999999999</ele><time>2026-05-01T12:28:16.672Z</time></trkpt><trkpt lat="40.81081" lon="9.0358533"><ele>576.4</ele><time>2026-05-01T12:28:18.672Z</time></trkpt><trkpt lat="40.8106933" lon="9.03589"><ele>577.1999999999999</ele><time>2026-05-01T12:28:20.672Z</time></trkpt><trkpt lat="40.8105733" lon="9.0359083"><ele>578.0</ele><time>2026-05-01T12:28:22.672Z</time></trkpt><trkpt lat="40.8104833" lon="9.0359233"><ele>578.0</ele><time>2026-05-01T12:28:24.672Z</time></trkpt><trkpt lat="40.810395" lon="9.0359633"><ele>578.0</ele><time>2026-05-01T12:28:26.672Z</time></trkpt><trkpt lat="40.8103117" lon="9.0359767"><ele>578.0</ele><time>2026-05-01T12:28:28.672Z</time></trkpt><trkpt lat="40.8102433" lon="9.0359717"><ele>578.0</ele><time>2026-05-01T12:28:30.672Z</time></trkpt><trkpt lat="40.810175" lon="9.035965"><ele>578.0</ele><time>2026-05-01T12:28:33.672Z</time></trkpt><trkpt lat="40.8101033" lon="9.0359567"><ele>578.0</ele><time>2026-05-01T12:29:36.672Z</time></trkpt><trkpt lat="40.8100483" lon="9.0360433"><ele>575.0</ele><time>2026-05-01T12:29:39.672Z</time></trkpt><trkpt lat="40.81001" lon="9.0361367"><ele>572.0</ele><time>2026-05-01T12:29:42.672Z</time></trkpt><trkpt lat="40.8099983" lon="9.036275"><ele>569.0</ele><time>2026-05-01T12:30:48.672Z</time></trkpt><trkpt lat="40.8100083" lon="9.0363767"><ele>566.0</ele><time>2026-05-01T12:30:49.672Z</time></trkpt><trkpt lat="40.8100167" lon="9.0365133"><ele>563.0</ele><time>2026-05-01T12:30:50.672Z</time></trkpt><trkpt lat="40.81003" lon="9.03666"><ele>563.0</ele><time>2026-05-01T12:30:51.672Z</time></trkpt><trkpt lat="40.8100583" lon="9.0368133"><ele>563.0</ele><time>2026-05-01T12:30:52.672Z</time></trkpt><trkpt lat="40.81009" lon="9.036945"><ele>563.0</ele><time>2026-05-01T12:30:53.672Z</time></trkpt><trkpt lat="40.810115" lon="9.0370717"><ele>563.0</ele><time>2026-05-01T12:30:54.672Z</time></trkpt><trkpt lat="40.8101383" lon="9.0372017"><ele>563.0</ele><time>2026-05-01T12:30:55.672Z</time></trkpt><trkpt lat="40.8101617" lon="9.0373133"><ele>567.8333333333333</ele><time>2026-05-01T12:30:56.672Z</time></trkpt><trkpt lat="40.8101833" lon="9.0374133"><ele>572.6666666666666</ele><time>2026-05-01T12:30:57.672Z</time></trkpt><trkpt lat="40.8102017" lon="9.0375033"><ele>577.5</ele><time>2026-05-01T12:30:58.672Z</time></trkpt><trkpt lat="40.8102233" lon="9.0375983"><ele>582.3333333333334</ele><time>2026-05-01T12:30:59.672Z</time></trkpt><trkpt lat="40.810285" lon="9.03774"><ele>587.1666666666667</ele><time>2026-05-01T12:31:01.672Z</time></trkpt><trkpt lat="40.81032" lon="9.0378167"><ele>592.0</ele><time>2026-05-01T12:31:02.672Z</time></trkpt><trkpt lat="40.810355" lon="9.0378867"><ele>592.0</ele><time>2026-05-01T12:31:03.672Z</time></trkpt><trkpt lat="40.8103917" lon="9.0380217"><ele>592.0</ele><time>2026-05-01T12:31:05.672Z</time></trkpt><trkpt lat="40.810435" lon="9.0381567"><ele>592.0</ele><time>2026-05-01T12:31:07.672Z</time></trkpt><trkpt lat="40.810495" lon="9.0382983"><ele>592.0</ele><time>2026-05-01T12:31:09.672Z</time></trkpt><trkpt lat="40.810555" lon="9.0384517"><ele>589.8000000000001</ele><time>2026-05-01T12:31:11.672Z</time></trkpt><trkpt lat="40.8105817" lon="9.0386117"><ele>587.6</ele><time>2026-05-01T12:31:13.672Z</time></trkpt><trkpt lat="40.810595" lon="9.0387583"><ele>585.4000000000001</ele><time>2026-05-01T12:31:15.672Z</time></trkpt><trkpt lat="40.8105733" lon="9.0388867"><ele>583.2</ele><time>2026-05-01T12:31:17.672Z</time></trkpt><trkpt lat="40.8105217" lon="9.039005"><ele>581.0</ele><time>2026-05-01T12:31:19.672Z</time></trkpt><trkpt lat="40.8104267" lon="9.0390967"><ele>581.0</ele><time>2026-05-01T12:31:21.672Z</time></trkpt><trkpt lat="40.8103633" lon="9.03913"><ele>581.0</ele><time>2026-05-01T12:31:22.672Z</time></trkpt><trkpt lat="40.810275" lon="9.0391533"><ele>581.0</ele><time>2026-05-01T12:31:23.672Z</time></trkpt><trkpt lat="40.8102" lon="9.039175"><ele>581.0</ele><time>2026-05-01T12:31:24.672Z</time></trkpt><trkpt lat="40.81007" lon="9.0392283"><ele>581.0</ele><time>2026-05-01T12:31:26.672Z</time></trkpt><trkpt lat="40.8100133" lon="9.03927"><ele>581.0</ele><time>2026-05-01T12:31:27.672Z</time></trkpt><trkpt lat="40.809955" lon="9.0393117"><ele>575.8333333333333</ele><time>2026-05-01T12:31:28.672Z</time></trkpt><trkpt lat="40.8099" lon="9.0393667"><ele>570.6666666666666</ele><time>2026-05-01T12:31:29.672Z</time></trkpt><trkpt lat="40.8098467" lon="9.039425"><ele>565.5</ele><time>2026-05-01T12:31:30.672Z</time></trkpt><trkpt lat="40.8097983" lon="9.039495"><ele>560.3333333333334</ele><time>2026-05-01T12:31:31.672Z</time></trkpt><trkpt lat="40.809755" lon="9.0395767"><ele>555.1666666666667</ele><time>2026-05-01T12:31:32.672Z</time></trkpt><trkpt lat="40.80971" lon="9.039645"><ele>550.0</ele><time>2026-05-01T12:31:33.672Z</time></trkpt><trkpt lat="40.809635" lon="9.0397683"><ele>550.0</ele><time>2026-05-01T12:31:35.672Z</time></trkpt><trkpt lat="40.8095983" lon="9.0398367"><ele>550.0</ele><time>2026-05-01T12:31:36.672Z</time></trkpt><trkpt lat="40.8095517" lon="9.0399017"><ele>550.0</ele><time>2026-05-01T12:31:37.672Z</time></trkpt><trkpt lat="40.8095017" lon="9.0399533"><ele>550.0</ele><time>2026-05-01T12:31:38.672Z</time></trkpt><trkpt lat="40.8094383" lon="9.0399883"><ele>550.0</ele><time>2026-05-01T12:31:39.672Z</time></trkpt><trkpt lat="40.8093783" lon="9.0400183"><ele>550.0</ele><time>2026-05-01T12:31:40.673Z</time></trkpt><trkpt lat="40.8093133" lon="9.0400483"><ele>550.0</ele><time>2026-05-01T12:31:41.672Z</time></trkpt><trkpt lat="40.8092433" lon="9.040085"><ele>550.0</ele><time>2026-05-01T12:31:42.672Z</time></trkpt><trkpt lat="40.8091817" lon="9.04012"><ele>550.0</ele><time>2026-05-01T12:31:43.672Z</time></trkpt><trkpt lat="40.8091217" lon="9.0401617"><ele>550.0</ele><time>2026-05-01T12:31:44.672Z</time></trkpt><trkpt lat="40.809065" lon="9.0402017"><ele>550.0</ele><time>2026-05-01T12:31:45.672Z</time></trkpt><trkpt lat="40.8090117" lon="9.0402517"><ele>550.0</ele><time>2026-05-01T12:31:46.672Z</time></trkpt><trkpt lat="40.80892" lon="9.0403"><ele>550.0</ele><time>2026-05-01T12:31:48.672Z</time></trkpt><trkpt lat="40.808835" lon="9.040365"><ele>550.0</ele><time>2026-05-01T12:31:50.672Z</time></trkpt><trkpt lat="40.8087883" lon="9.0404283"><ele>550.0</ele><time>2026-05-01T12:31:51.672Z</time></trkpt><trkpt lat="40.80872" lon="9.04055"><ele>550.0</ele><time>2026-05-01T12:31:53.672Z</time></trkpt><trkpt lat="40.808685" lon="9.0406217"><ele>550.0</ele><time>2026-05-01T12:31:54.672Z</time></trkpt><trkpt lat="40.80866" lon="9.040705"><ele>550.0</ele><time>2026-05-01T12:31:55.672Z</time></trkpt><trkpt lat="40.8086183" lon="9.04085"><ele>550.0</ele><time>2026-05-01T12:31:57.672Z</time></trkpt><trkpt lat="40.808595" lon="9.0409867"><ele>548.8333333333334</ele><time>2026-05-01T12:31:59.672Z</time></trkpt><trkpt lat="40.8085367" lon="9.0411"><ele>547.6666666666667</ele><time>2026-05-01T12:32:01.672Z</time></trkpt><trkpt lat="40.8084817" lon="9.0411983"><ele>546.5</ele><time>2026-05-01T12:32:03.672Z</time></trkpt><trkpt lat="40.8084217" lon="9.0412817"><ele>545.3333333333334</ele><time>2026-05-01T12:32:05.672Z</time></trkpt><trkpt lat="40.8083417" lon="9.041305"><ele>544.1666666666666</ele><time>2026-05-01T12:32:07.672Z</time></trkpt><trkpt lat="40.8082667" lon="9.041315"><ele>543.0</ele><time>2026-05-01T12:32:09.672Z</time></trkpt><trkpt lat="40.8081817" lon="9.0413433"><ele>543.0</ele><time>2026-05-01T12:32:11.672Z</time></trkpt><trkpt lat="40.8080833" lon="9.0413817"><ele>543.0</ele><time>2026-05-01T12:32:13.672Z</time></trkpt><trkpt lat="40.8079817" lon="9.0414017"><ele>543.0</ele><time>2026-05-01T12:32:15.672Z</time></trkpt><trkpt lat="40.8078683" lon="9.0413967"><ele>543.0</ele><time>2026-05-01T12:32:17.672Z</time></trkpt><trkpt lat="40.80776" lon="9.0413483"><ele>543.0</ele><time>2026-05-01T12:32:19.672Z</time></trkpt><trkpt lat="40.807645" lon="9.041275"><ele>541.1666666666666</ele><time>2026-05-01T12:32:21.672Z</time></trkpt><trkpt lat="40.8075817" lon="9.04123"><ele>539.3333333333334</ele><time>2026-05-01T12:32:22.672Z</time></trkpt><trkpt lat="40.8075117" lon="9.0411767"><ele>537.5</ele><time>2026-05-01T12:32:23.672Z</time></trkpt><trkpt lat="40.8074467" lon="9.0411167"><ele>535.6666666666667</ele><time>2026-05-01T12:32:24.672Z</time></trkpt><trkpt lat="40.80738" lon="9.041065"><ele>533.8333333333334</ele><time>2026-05-01T12:32:25.672Z</time></trkpt><trkpt lat="40.8073217" lon="9.04103"><ele>532.0</ele><time>2026-05-01T12:32:26.672Z</time></trkpt><trkpt lat="40.8072433" lon="9.0409867"><ele>532.0</ele><time>2026-05-01T12:32:27.672Z</time></trkpt><trkpt lat="40.8071683" lon="9.04094"><ele>532.0</ele><time>2026-05-01T12:32:28.672Z</time></trkpt><trkpt lat="40.8070733" lon="9.04088"><ele>532.0</ele><time>2026-05-01T12:32:29.672Z</time></trkpt><trkpt lat="40.80701" lon="9.0408217"><ele>532.0</ele><time>2026-05-01T12:32:30.672Z</time></trkpt><trkpt lat="40.80694" lon="9.04076"><ele>532.0</ele><time>2026-05-01T12:32:31.672Z</time></trkpt><trkpt lat="40.8068733" lon="9.0407067"><ele>532.0</ele><time>2026-05-01T12:32:32.672Z</time></trkpt><trkpt lat="40.8068017" lon="9.0406533"><ele>526.1666666666667</ele><time>2026-05-01T12:32:33.672Z</time></trkpt><trkpt lat="40.80673" lon="9.0406133"><ele>520.3333333333334</ele><time>2026-05-01T12:32:34.672Z</time></trkpt><trkpt lat="40.8066567" lon="9.0405817"><ele>514.5</ele><time>2026-05-01T12:32:35.672Z</time></trkpt><trkpt lat="40.8065833" lon="9.0405483"><ele>508.66666666666663</ele><time>2026-05-01T12:32:36.672Z</time></trkpt><trkpt lat="40.8065083" lon="9.0405233"><ele>502.8333333333333</ele><time>2026-05-01T12:32:37.672Z</time></trkpt><trkpt lat="40.8063783" lon="9.04049"><ele>497.0</ele><time>2026-05-01T12:32:39.672Z</time></trkpt><trkpt lat="40.8062567" lon="9.040445"><ele>497.0</ele><time>2026-05-01T12:32:41.672Z</time></trkpt><trkpt lat="40.8061233" lon="9.040415"><ele>497.00000000000006</ele><time>2026-05-01T12:32:43.672Z</time></trkpt><trkpt lat="40.8060567" lon="9.0403867"><ele>497.00000000000006</ele><time>2026-05-01T12:32:44.672Z</time></trkpt><trkpt lat="40.80593" lon="9.04034"><ele>497.0</ele><time>2026-05-01T12:32:46.672Z</time></trkpt><trkpt lat="40.8058583" lon="9.0403183"><ele>497.0</ele><time>2026-05-01T12:32:47.672Z</time></trkpt><trkpt lat="40.8057467" lon="9.0403017"><ele>497.3333333333333</ele><time>2026-05-01T12:32:49.672Z</time></trkpt><trkpt lat="40.8056567" lon="9.040325"><ele>497.66666666666663</ele><time>2026-05-01T12:32:51.672Z</time></trkpt><trkpt lat="40.8056283" lon="9.04042"><ele>498.0</ele><time>2026-05-01T12:32:53.672Z</time></trkpt><trkpt lat="40.8056583" lon="9.0405867"><ele>498.33333333333337</ele><time>2026-05-01T12:32:55.672Z</time></trkpt><trkpt lat="40.8056683" lon="9.0406833"><ele>498.6666666666667</ele><time>2026-05-01T12:32:56.672Z</time></trkpt><trkpt lat="40.8056867" lon="9.040775"><ele>499.0</ele><time>2026-05-01T12:32:57.672Z</time></trkpt><trkpt lat="40.8057067" lon="9.04086"><ele>502.4285714285715</ele><time>2026-05-01T12:32:58.672Z</time></trkpt><trkpt lat="40.805725" lon="9.040945"><ele>505.8571428571429</ele><time>2026-05-01T12:32:59.672Z</time></trkpt><trkpt lat="40.80574" lon="9.04103"><ele>509.2857142857143</ele><time>2026-05-01T12:33:00.672Z</time></trkpt><trkpt lat="40.80575" lon="9.0411217"><ele>512.7142857142858</ele><time>2026-05-01T12:33:01.672Z</time></trkpt><trkpt lat="40.80575" lon="9.0412217"><ele>516.1428571428571</ele><time>2026-05-01T12:33:02.672Z</time></trkpt><trkpt lat="40.8057417" lon="9.0413167"><ele>519.5714285714286</ele><time>2026-05-01T12:33:03.672Z</time></trkpt><trkpt lat="40.8057433" lon="9.041405"><ele>523.0</ele><time>2026-05-01T12:33:04.672Z</time></trkpt><trkpt lat="40.8057467" lon="9.0415633"><ele>522.1999999999999</ele><time>2026-05-01T12:33:06.672Z</time></trkpt><trkpt lat="40.80574" lon="9.0416467"><ele>521.4</ele><time>2026-05-01T12:33:07.672Z</time></trkpt><trkpt lat="40.8057433" lon="9.041805"><ele>520.5999999999999</ele><time>2026-05-01T12:33:09.672Z</time></trkpt><trkpt lat="40.8057617" lon="9.0419567"><ele>519.8</ele><time>2026-05-01T12:33:11.672Z</time></trkpt><trkpt lat="40.8057867" lon="9.0421017"><ele>519.0</ele><time>2026-05-01T12:33:13.672Z</time></trkpt><trkpt lat="40.80579" lon="9.0421867"><ele>519.0</ele><time>2026-05-01T12:33:14.672Z</time></trkpt><trkpt lat="40.8057817" lon="9.0422767"><ele>519.0</ele><time>2026-05-01T12:33:15.672Z</time></trkpt><trkpt lat="40.8057733" lon="9.0423633"><ele>519.0</ele><time>2026-05-01T12:33:16.672Z</time></trkpt><trkpt lat="40.80575" lon="9.0425233"><ele>519.0</ele><time>2026-05-01T12:33:18.672Z</time></trkpt><trkpt lat="40.8057433" lon="9.0426083"><ele>519.0</ele><time>2026-05-01T12:33:19.672Z</time></trkpt><trkpt lat="40.8057067" lon="9.0427533"><ele>519.0</ele><time>2026-05-01T12:33:21.672Z</time></trkpt><trkpt lat="40.8056533" lon="9.042845"><ele>519.5</ele><time>2026-05-01T12:33:23.671Z</time></trkpt><trkpt lat="40.8055667" lon="9.0428533"><ele>520.0</ele><time>2026-05-01T12:33:25.671Z</time></trkpt><trkpt lat="40.8054983" lon="9.0428383"><ele>520.5</ele><time>2026-05-01T12:33:26.671Z</time></trkpt><trkpt lat="40.80542" lon="9.0428067"><ele>521.0</ele><time>2026-05-01T12:33:27.671Z</time></trkpt><trkpt lat="40.8053417" lon="9.0427883"><ele>521.5</ele><time>2026-05-01T12:33:28.671Z</time></trkpt><trkpt lat="40.8052667" lon="9.04276"><ele>522.0</ele><time>2026-05-01T12:33:29.671Z</time></trkpt><trkpt lat="40.8052033" lon="9.0427267"><ele>513.8000000000001</ele><time>2026-05-01T12:33:30.671Z</time></trkpt><trkpt lat="40.8051183" lon="9.04266"><ele>505.6</ele><time>2026-05-01T12:33:32.671Z</time></trkpt><trkpt lat="40.805015" lon="9.0426683"><ele>497.40000000000003</ele><time>2026-05-01T12:33:34.671Z</time></trkpt><trkpt lat="40.8049217" lon="9.042715"><ele>489.20000000000005</ele><time>2026-05-01T12:33:36.671Z</time></trkpt><trkpt lat="40.8048217" lon="9.0427667"><ele>481.0</ele><time>2026-05-01T12:33:38.672Z</time></trkpt><trkpt lat="40.8047317" lon="9.042755"><ele>481.00000000000006</ele><time>2026-05-01T12:33:40.671Z</time></trkpt><trkpt lat="40.804625" lon="9.0427183"><ele>481.0</ele><time>2026-05-01T12:33:42.671Z</time></trkpt><trkpt lat="40.8045617" lon="9.0427017"><ele>481.0</ele><time>2026-05-01T12:33:43.671Z</time></trkpt><trkpt lat="40.8044917" lon="9.04269"><ele>481.0</ele><time>2026-05-01T12:33:44.671Z</time></trkpt><trkpt lat="40.804425" lon="9.0426767"><ele>481.00000000000006</ele><time>2026-05-01T12:33:45.671Z</time></trkpt><trkpt lat="40.8043167" lon="9.0426833"><ele>481.0</ele><time>2026-05-01T12:33:47.671Z</time></trkpt><trkpt lat="40.804215" lon="9.04273"><ele>478.5</ele><time>2026-05-01T12:33:49.671Z</time></trkpt><trkpt lat="40.8041033" lon="9.0427667"><ele>476.0</ele><time>2026-05-01T12:33:51.671Z</time></trkpt><trkpt lat="40.8039783" lon="9.042765"><ele>473.5</ele><time>2026-05-01T12:33:53.671Z</time></trkpt><trkpt lat="40.80387" lon="9.0427383"><ele>471.0</ele><time>2026-05-01T12:33:55.671Z</time></trkpt><trkpt lat="40.8037683" lon="9.0427067"><ele>471.0</ele><time>2026-05-01T12:33:57.671Z</time></trkpt><trkpt lat="40.8036783" lon="9.04266"><ele>471.0</ele><time>2026-05-01T12:33:59.671Z</time></trkpt><trkpt lat="40.8036017" lon="9.0425483"><ele>471.0</ele><time>2026-05-01T12:34:01.671Z</time></trkpt><trkpt lat="40.80355" lon="9.04245"><ele>471.0</ele><time>2026-05-01T12:34:03.671Z</time></trkpt><trkpt lat="40.8034867" lon="9.0423333"><ele>471.0</ele><time>2026-05-01T12:34:05.671Z</time></trkpt><trkpt lat="40.8033933" lon="9.0422783"><ele>463.5</ele><time>2026-05-01T12:34:07.671Z</time></trkpt><trkpt lat="40.8033183" lon="9.0422383"><ele>456.0</ele><time>2026-05-01T12:34:08.671Z</time></trkpt><trkpt lat="40.8032567" lon="9.042215"><ele>448.5</ele><time>2026-05-01T12:34:09.671Z</time></trkpt><trkpt lat="40.803185" lon="9.0421833"><ele>441.0</ele><time>2026-05-01T12:34:10.671Z</time></trkpt><trkpt lat="40.80312" lon="9.04217"><ele>433.5</ele><time>2026-05-01T12:34:11.671Z</time></trkpt><trkpt lat="40.8029817" lon="9.0421367"><ele>426.0</ele><time>2026-05-01T12:34:13.671Z</time></trkpt><trkpt lat="40.8028817" lon="9.0420833"><ele>426.0</ele><time>2026-05-01T12:34:14.671Z</time></trkpt><trkpt lat="40.8027933" lon="9.042045"><ele>426.0</ele><time>2026-05-01T12:34:16.671Z</time></trkpt><trkpt lat="40.8027067" lon="9.0419617"><ele>426.0</ele><time>2026-05-01T12:34:18.671Z</time></trkpt><trkpt lat="40.8026383" lon="9.0418383"><ele>426.0</ele><time>2026-05-01T12:34:20.671Z</time></trkpt><trkpt lat="40.8025817" lon="9.0417083"><ele>426.0</ele><time>2026-05-01T12:34:22.671Z</time></trkpt><trkpt lat="40.8025017" lon="9.0416083"><ele>422.20000000000005</ele><time>2026-05-01T12:34:24.671Z</time></trkpt><trkpt lat="40.8024017" lon="9.0415467"><ele>418.40000000000003</ele><time>2026-05-01T12:34:26.671Z</time></trkpt><trkpt lat="40.802325" lon="9.0414683"><ele>414.6</ele><time>2026-05-01T12:34:28.671Z</time></trkpt><trkpt lat="40.8022483" lon="9.04135"><ele>410.8</ele><time>2026-05-01T12:34:30.671Z</time></trkpt><trkpt lat="40.8021667" lon="9.0412317"><ele>407.0</ele><time>2026-05-01T12:34:32.671Z</time></trkpt><trkpt lat="40.8020583" lon="9.04115"><ele>407.0</ele><time>2026-05-01T12:34:34.671Z</time></trkpt><trkpt lat="40.8019583" lon="9.0411183"><ele>407.0</ele><time>2026-05-01T12:34:36.671Z</time></trkpt><trkpt lat="40.8018483" lon="9.04114"><ele>407.0</ele><time>2026-05-01T12:34:38.671Z</time></trkpt><trkpt lat="40.8017417" lon="9.0412283"><ele>407.0</ele><time>2026-05-01T12:34:40.671Z</time></trkpt><trkpt lat="40.801685" lon="9.0412967"><ele>407.0</ele><time>2026-05-01T12:34:41.671Z</time></trkpt><trkpt lat="40.801605" lon="9.0413567"><ele>408.49999999999994</ele><time>2026-05-01T12:34:42.671Z</time></trkpt><trkpt lat="40.8015167" lon="9.0414133"><ele>410.0</ele><time>2026-05-01T12:34:43.671Z</time></trkpt><trkpt lat="40.801435" lon="9.0414733"><ele>411.5</ele><time>2026-05-01T12:34:44.671Z</time></trkpt><trkpt lat="40.80136" lon="9.0415683"><ele>413.0</ele><time>2026-05-01T12:34:45.671Z</time></trkpt><trkpt lat="40.8013017" lon="9.0416333"><ele>414.49999999999994</ele><time>2026-05-01T12:34:46.671Z</time></trkpt><trkpt lat="40.8012567" lon="9.0416967"><ele>416.0</ele><time>2026-05-01T12:34:47.671Z</time></trkpt><trkpt lat="40.8012067" lon="9.0417617"><ele>420.8333333333333</ele><time>2026-05-01T12:34:48.671Z</time></trkpt><trkpt lat="40.8011683" lon="9.0418333"><ele>425.66666666666663</ele><time>2026-05-01T12:34:49.671Z</time></trkpt><trkpt lat="40.8011333" lon="9.0419767"><ele>430.5</ele><time>2026-05-01T12:34:51.671Z</time></trkpt><trkpt lat="40.80113" lon="9.04206"><ele>435.33333333333337</ele><time>2026-05-01T12:34:52.672Z</time></trkpt><trkpt lat="40.8011033" lon="9.0421833"><ele>440.1666666666667</ele><time>2026-05-01T12:34:54.671Z</time></trkpt><trkpt lat="40.80108" lon="9.042305"><ele>445.0</ele><time>2026-05-01T12:34:56.671Z</time></trkpt><trkpt lat="40.8010733" lon="9.0424467"><ele>443.00000000000006</ele><time>2026-05-01T12:34:59.671Z</time></trkpt><trkpt lat="40.801025" lon="9.0425583"><ele>441.0</ele><time>2026-05-01T12:35:01.671Z</time></trkpt><trkpt lat="40.8009917" lon="9.0426517"><ele>439.0</ele><time>2026-05-01T12:35:03.671Z</time></trkpt><trkpt lat="40.80095" lon="9.0427383"><ele>437.0</ele><time>2026-05-01T12:35:05.671Z</time></trkpt><trkpt lat="40.8008833" lon="9.0427833"><ele>435.00000000000006</ele><time>2026-05-01T12:35:07.671Z</time></trkpt><trkpt lat="40.800805" lon="9.0428117"><ele>433.0</ele><time>2026-05-01T12:35:09.671Z</time></trkpt><trkpt lat="40.8007117" lon="9.042825"><ele>433.0</ele><time>2026-05-01T12:35:11.671Z</time></trkpt><trkpt lat="40.8005917" lon="9.0428"><ele>432.99999999999994</ele><time>2026-05-01T12:35:13.671Z</time></trkpt><trkpt lat="40.8004633" lon="9.0427817"><ele>432.99999999999994</ele><time>2026-05-01T12:35:15.671Z</time></trkpt><trkpt lat="40.8003983" lon="9.042775"><ele>433.0</ele><time>2026-05-01T12:35:16.671Z</time></trkpt><trkpt lat="40.8003267" lon="9.0427733"><ele>433.0</ele><time>2026-05-01T12:35:17.671Z</time></trkpt><trkpt lat="40.8002533" lon="9.0427683"><ele>433.00000000000006</ele><time>2026-05-01T12:35:18.671Z</time></trkpt><trkpt lat="40.800175" lon="9.0427667"><ele>433.0</ele><time>2026-05-01T12:35:19.671Z</time></trkpt><trkpt lat="40.800095" lon="9.0427583"><ele>433.0</ele><time>2026-05-01T12:35:20.671Z</time></trkpt><trkpt lat="40.8000183" lon="9.0427383"><ele>433.0</ele><time>2026-05-01T12:35:21.671Z</time></trkpt><trkpt lat="40.7999417" lon="9.0427133"><ele>433.00000000000006</ele><time>2026-05-01T12:35:22.671Z</time></trkpt><trkpt lat="40.7998783" lon="9.0426933"><ele>433.0</ele><time>2026-05-01T12:35:23.671Z</time></trkpt><trkpt lat="40.799805" lon="9.0426733"><ele>431.6666666666667</ele><time>2026-05-01T12:35:24.671Z</time></trkpt><trkpt lat="40.7997233" lon="9.04266"><ele>430.33333333333337</ele><time>2026-05-01T12:35:25.672Z</time></trkpt><trkpt lat="40.79964" lon="9.0426567"><ele>429.0</ele><time>2026-05-01T12:35:26.671Z</time></trkpt><trkpt lat="40.799575" lon="9.0426833"><ele>427.66666666666663</ele><time>2026-05-01T12:35:27.671Z</time></trkpt><trkpt lat="40.7994917" lon="9.04268"><ele>426.3333333333333</ele><time>2026-05-01T12:35:28.671Z</time></trkpt><trkpt lat="40.79942" lon="9.0426683"><ele>425.0</ele><time>2026-05-01T12:35:29.672Z</time></trkpt><trkpt lat="40.79935" lon="9.0426467"><ele>423.66666666666663</ele><time>2026-05-01T12:35:30.671Z</time></trkpt><trkpt lat="40.7992867" lon="9.0426"><ele>422.3333333333333</ele><time>2026-05-01T12:35:31.671Z</time></trkpt><trkpt lat="40.7992317" lon="9.0425517"><ele>421.0</ele><time>2026-05-01T12:35:32.671Z</time></trkpt><trkpt lat="40.7991833" lon="9.0424783"><ele>419.66666666666663</ele><time>2026-05-01T12:35:33.671Z</time></trkpt><trkpt lat="40.799135" lon="9.0423683"><ele>418.3333333333333</ele><time>2026-05-01T12:35:34.671Z</time></trkpt><trkpt lat="40.7990933" lon="9.0422417"><ele>417.0</ele><time>2026-05-01T12:35:35.671Z</time></trkpt><trkpt lat="40.7990533" lon="9.0421183"><ele>417.0</ele><time>2026-05-01T12:35:36.671Z</time></trkpt><trkpt lat="40.79901" lon="9.0419883"><ele>417.0</ele><time>2026-05-01T12:35:37.671Z</time></trkpt><trkpt lat="40.7989567" lon="9.041895"><ele>417.0</ele><time>2026-05-01T12:35:38.671Z</time></trkpt><trkpt lat="40.7988983" lon="9.04182"><ele>417.0</ele><time>2026-05-01T12:35:39.671Z</time></trkpt><trkpt lat="40.7988233" lon="9.0417483"><ele>417.0</ele><time>2026-05-01T12:35:40.671Z</time></trkpt><trkpt lat="40.79874" lon="9.0416867"><ele>419.8</ele><time>2026-05-01T12:35:41.671Z</time></trkpt><trkpt lat="40.7986483" lon="9.0416317"><ele>422.6</ele><time>2026-05-01T12:35:42.671Z</time></trkpt><trkpt lat="40.798555" lon="9.0415883"><ele>425.40000000000003</ele><time>2026-05-01T12:35:43.671Z</time></trkpt><trkpt lat="40.79848" lon="9.041525"><ele>428.20000000000005</ele><time>2026-05-01T12:35:44.671Z</time></trkpt><trkpt lat="40.7984" lon="9.0414533"><ele>431.0</ele><time>2026-05-01T12:35:45.671Z</time></trkpt><trkpt lat="40.798335" lon="9.04137"><ele>431.0</ele><time>2026-05-01T12:35:46.671Z</time></trkpt><trkpt lat="40.7982683" lon="9.041275"><ele>431.0</ele><time>2026-05-01T12:35:47.671Z</time></trkpt><trkpt lat="40.798205" lon="9.041165"><ele>431.0</ele><time>2026-05-01T12:35:48.671Z</time></trkpt><trkpt lat="40.7981533" lon="9.0410533"><ele>431.0</ele><time>2026-05-01T12:35:49.671Z</time></trkpt><trkpt lat="40.7981067" lon="9.0409567"><ele>431.0</ele><time>2026-05-01T12:35:50.671Z</time></trkpt><trkpt lat="40.79807" lon="9.0408683"><ele>430.66666666666663</ele><time>2026-05-01T12:35:51.671Z</time></trkpt><trkpt lat="40.79799" lon="9.04079"><ele>430.3333333333333</ele><time>2026-05-01T12:35:53.671Z</time></trkpt><trkpt lat="40.79792" lon="9.0407517"><ele>430.0</ele><time>2026-05-01T12:35:54.671Z</time></trkpt><trkpt lat="40.7978433" lon="9.0407267"><ele>429.66666666666663</ele><time>2026-05-01T12:35:55.671Z</time></trkpt><trkpt lat="40.79776" lon="9.040695"><ele>429.3333333333333</ele><time>2026-05-01T12:35:56.671Z</time></trkpt><trkpt lat="40.797685" lon="9.0406533"><ele>429.0</ele><time>2026-05-01T12:35:57.671Z</time></trkpt><trkpt lat="40.7975917" lon="9.04062"><ele>429.0</ele><time>2026-05-01T12:35:58.671Z</time></trkpt><trkpt lat="40.7975067" lon="9.0406033"><ele>429.0</ele><time>2026-05-01T12:35:59.671Z</time></trkpt><trkpt lat="40.79742" lon="9.0405883"><ele>429.0</ele><time>2026-05-01T12:36:00.671Z</time></trkpt><trkpt lat="40.7973383" lon="9.0405733"><ele>429.0</ele><time>2026-05-01T12:36:01.671Z</time></trkpt><trkpt lat="40.7972483" lon="9.0405583"><ele>429.0</ele><time>2026-05-01T12:36:02.671Z</time></trkpt><trkpt lat="40.7971617" lon="9.0405433"><ele>429.0</ele><time>2026-05-01T12:36:03.671Z</time></trkpt><trkpt lat="40.7970883" lon="9.040525"><ele>429.0</ele><time>2026-05-01T12:36:04.671Z</time></trkpt><trkpt lat="40.7970133" lon="9.04049"><ele>429.0</ele><time>2026-05-01T12:36:05.671Z</time></trkpt><trkpt lat="40.7969467" lon="9.040435"><ele>429.0</ele><time>2026-05-01T12:36:06.672Z</time></trkpt><trkpt lat="40.7968883" lon="9.0403467"><ele>429.0</ele><time>2026-05-01T12:36:07.671Z</time></trkpt><trkpt lat="40.796845" lon="9.0402483"><ele>429.0</ele><time>2026-05-01T12:36:08.671Z</time></trkpt><trkpt lat="40.796825" lon="9.04011"><ele>429.0</ele><time>2026-05-01T12:36:09.671Z</time></trkpt><trkpt lat="40.7967983" lon="9.0399883"><ele>432.0</ele><time>2026-05-01T12:36:10.671Z</time></trkpt><trkpt lat="40.79678" lon="9.03985"><ele>435.0</ele><time>2026-05-01T12:36:11.671Z</time></trkpt><trkpt lat="40.7967517" lon="9.039725"><ele>438.0</ele><time>2026-05-01T12:36:12.671Z</time></trkpt><trkpt lat="40.7967233" lon="9.03962"><ele>441.0</ele><time>2026-05-01T12:36:13.671Z</time></trkpt><trkpt lat="40.79669" lon="9.0395233"><ele>444.0</ele><time>2026-05-01T12:36:14.671Z</time></trkpt><trkpt lat="40.79666" lon="9.0394367"><ele>447.0</ele><time>2026-05-01T12:36:15.671Z</time></trkpt><trkpt lat="40.796625" lon="9.039345"><ele>447.0</ele><time>2026-05-01T12:36:16.671Z</time></trkpt><trkpt lat="40.796585" lon="9.0392583"><ele>447.0</ele><time>2026-05-01T12:36:17.671Z</time></trkpt><trkpt lat="40.7965217" lon="9.0391867"><ele>447.0</ele><time>2026-05-01T12:36:18.671Z</time></trkpt><trkpt lat="40.79645" lon="9.03913"><ele>447.0</ele><time>2026-05-01T12:36:19.671Z</time></trkpt><trkpt lat="40.7963883" lon="9.0390767"><ele>447.0</ele><time>2026-05-01T12:36:20.671Z</time></trkpt><trkpt lat="40.7963233" lon="9.039015"><ele>447.0</ele><time>2026-05-01T12:36:21.671Z</time></trkpt><trkpt lat="40.7962683" lon="9.038965"><ele>445.5</ele><time>2026-05-01T12:36:22.672Z</time></trkpt><trkpt lat="40.7961683" lon="9.0388817"><ele>444.0</ele><time>2026-05-01T12:36:24.671Z</time></trkpt><trkpt lat="40.796045" lon="9.038865"><ele>442.5</ele><time>2026-05-01T12:36:26.671Z</time></trkpt><trkpt lat="40.7959783" lon="9.0388667"><ele>441.0</ele><time>2026-05-01T12:36:27.671Z</time></trkpt><trkpt lat="40.79591" lon="9.0388917"><ele>439.5</ele><time>2026-05-01T12:36:28.671Z</time></trkpt><trkpt lat="40.7958433" lon="9.0389167"><ele>438.0</ele><time>2026-05-01T12:36:29.671Z</time></trkpt><trkpt lat="40.7957633" lon="9.0389317"><ele>438.0</ele><time>2026-05-01T12:36:30.671Z</time></trkpt><trkpt lat="40.7956983" lon="9.0389533"><ele>438.0</ele><time>2026-05-01T12:36:31.671Z</time></trkpt><trkpt lat="40.795635" lon="9.0389833"><ele>438.0</ele><time>2026-05-01T12:36:32.671Z</time></trkpt><trkpt lat="40.7955717" lon="9.0390217"><ele>438.0</ele><time>2026-05-01T12:36:33.671Z</time></trkpt><trkpt lat="40.7954983" lon="9.0390767"><ele>438.0</ele><time>2026-05-01T12:36:34.671Z</time></trkpt><trkpt lat="40.79542" lon="9.0391333"><ele>438.0</ele><time>2026-05-01T12:36:35.671Z</time></trkpt><trkpt lat="40.7953433" lon="9.03919"><ele>441.8333333333333</ele><time>2026-05-01T12:36:36.671Z</time></trkpt><trkpt lat="40.79527" lon="9.03924"><ele>445.66666666666663</ele><time>2026-05-01T12:36:37.671Z</time></trkpt><trkpt lat="40.7952083" lon="9.03928"><ele>449.5</ele><time>2026-05-01T12:36:38.671Z</time></trkpt><trkpt lat="40.795125" lon="9.0393067"><ele>453.3333333333333</ele><time>2026-05-01T12:36:40.671Z</time></trkpt><trkpt lat="40.7950417" lon="9.0393367"><ele>457.16666666666663</ele><time>2026-05-01T12:36:43.671Z</time></trkpt><trkpt lat="40.795015" lon="9.0394433"><ele>461.0</ele><time>2026-05-01T12:37:07.671Z</time></trkpt><trkpt lat="40.7949983" lon="9.0395317"><ele>461.0</ele><time>2026-05-01T12:37:09.671Z</time></trkpt><trkpt lat="40.7949917" lon="9.0396783"><ele>461.0</ele><time>2026-05-01T12:37:11.671Z</time></trkpt><trkpt lat="40.7949517" lon="9.0398317"><ele>461.0</ele><time>2026-05-01T12:37:13.671Z</time></trkpt><trkpt lat="40.7949017" lon="9.0399717"><ele>461.0</ele><time>2026-05-01T12:37:15.671Z</time></trkpt><trkpt lat="40.7948633" lon="9.04012"><ele>462.3333333333333</ele><time>2026-05-01T12:37:17.671Z</time></trkpt><trkpt lat="40.79479" lon="9.0402433"><ele>463.66666666666663</ele><time>2026-05-01T12:37:19.671Z</time></trkpt><trkpt lat="40.7947467" lon="9.0403083"><ele>465.0</ele><time>2026-05-01T12:37:20.671Z</time></trkpt><trkpt lat="40.7946617" lon="9.0404133"><ele>466.33333333333337</ele><time>2026-05-01T12:37:22.671Z</time></trkpt><trkpt lat="40.7946117" lon="9.04047"><ele>467.6666666666667</ele><time>2026-05-01T12:37:23.671Z</time></trkpt><trkpt lat="40.7945667" lon="9.0405283"><ele>469.0</ele><time>2026-05-01T12:37:24.671Z</time></trkpt><trkpt lat="40.7945167" lon="9.040595"><ele>469.0</ele><time>2026-05-01T12:37:25.671Z</time></trkpt><trkpt lat="40.794475" lon="9.0406583"><ele>469.0</ele><time>2026-05-01T12:37:26.671Z</time></trkpt><trkpt lat="40.79441" lon="9.0407517"><ele>469.0</ele><time>2026-05-01T12:37:28.671Z</time></trkpt><trkpt lat="40.794325" lon="9.0408333"><ele>469.0</ele><time>2026-05-01T12:37:30.671Z</time></trkpt><trkpt lat="40.794235" lon="9.040895"><ele>469.0</ele><time>2026-05-01T12:37:32.671Z</time></trkpt><trkpt lat="40.7941517" lon="9.04091"><ele>465.1666666666667</ele><time>2026-05-01T12:37:34.671Z</time></trkpt><trkpt lat="40.7940483" lon="9.04089"><ele>461.33333333333337</ele><time>2026-05-01T12:37:36.671Z</time></trkpt><trkpt lat="40.7939517" lon="9.04089"><ele>457.5</ele><time>2026-05-01T12:37:38.671Z</time></trkpt><trkpt lat="40.7938633" lon="9.0409083"><ele>453.66666666666663</ele><time>2026-05-01T12:37:40.671Z</time></trkpt><trkpt lat="40.79379" lon="9.040945"><ele>449.8333333333333</ele><time>2026-05-01T12:37:42.671Z</time></trkpt><trkpt lat="40.7937317" lon="9.0410117"><ele>446.0</ele><time>2026-05-01T12:37:45.672Z</time></trkpt><trkpt lat="40.793785" lon="9.0411117"><ele>445.99999999999994</ele><time>2026-05-01T12:37:48.671Z</time></trkpt><trkpt lat="40.79387" lon="9.04125"><ele>446.0</ele><time>2026-05-01T12:37:50.671Z</time></trkpt><trkpt lat="40.793905" lon="9.0413317"><ele>446.0</ele><time>2026-05-01T12:37:51.671Z</time></trkpt><trkpt lat="40.7939433" lon="9.0414183"><ele>446.0</ele><time>2026-05-01T12:37:52.671Z</time></trkpt><trkpt lat="40.793975" lon="9.0414983"><ele>445.99999999999994</ele><time>2026-05-01T12:37:53.671Z</time></trkpt><trkpt lat="40.7940033" lon="9.0415783"><ele>446.0</ele><time>2026-05-01T12:37:54.671Z</time></trkpt><trkpt lat="40.7940233" lon="9.041675"><ele>445.3333333333333</ele><time>2026-05-01T12:37:55.671Z</time></trkpt><trkpt lat="40.7940483" lon="9.0417533"><ele>444.66666666666663</ele><time>2026-05-01T12:37:56.671Z</time></trkpt><trkpt lat="40.7940583" lon="9.0418467"><ele>444.0</ele><time>2026-05-01T12:37:57.671Z</time></trkpt><trkpt lat="40.79407" lon="9.0419467"><ele>443.33333333333337</ele><time>2026-05-01T12:37:58.671Z</time></trkpt><trkpt lat="40.7940817" lon="9.0420417"><ele>442.6666666666667</ele><time>2026-05-01T12:37:59.671Z</time></trkpt><trkpt lat="40.7940967" lon="9.0421267"><ele>442.0</ele><time>2026-05-01T12:38:00.671Z</time></trkpt><trkpt lat="40.79411" lon="9.04228"><ele>442.0</ele><time>2026-05-01T12:38:02.671Z</time></trkpt><trkpt lat="40.7941017" lon="9.04244"><ele>442.00000000000006</ele><time>2026-05-01T12:38:04.671Z</time></trkpt><trkpt lat="40.79408" lon="9.04259"><ele>442.00000000000006</ele><time>2026-05-01T12:38:06.671Z</time></trkpt><trkpt lat="40.794055" lon="9.0426767"><ele>442.0</ele><time>2026-05-01T12:38:08.671Z</time></trkpt><trkpt lat="40.79397" lon="9.0427367"><ele>442.0</ele><time>2026-05-01T12:38:10.671Z</time></trkpt><trkpt lat="40.7938983" lon="9.0427883"><ele>439.83333333333337</ele><time>2026-05-01T12:38:12.671Z</time></trkpt><trkpt lat="40.7938483" lon="9.0428433"><ele>437.6666666666667</ele><time>2026-05-01T12:38:14.671Z</time></trkpt><trkpt lat="40.7937683" lon="9.042935"><ele>435.5</ele><time>2026-05-01T12:38:16.671Z</time></trkpt><trkpt lat="40.79372" lon="9.0430517"><ele>433.33333333333337</ele><time>2026-05-01T12:38:18.671Z</time></trkpt><trkpt lat="40.79372" lon="9.0431767"><ele>431.1666666666667</ele><time>2026-05-01T12:38:20.671Z</time></trkpt><trkpt lat="40.793715" lon="9.043285"><ele>429.0</ele><time>2026-05-01T12:38:22.671Z</time></trkpt><trkpt lat="40.7936333" lon="9.0432783"><ele>429.0</ele><time>2026-05-01T12:38:25.671Z</time></trkpt><trkpt lat="40.79354" lon="9.0432133"><ele>429.0</ele><time>2026-05-01T12:38:27.671Z</time></trkpt><trkpt lat="40.7934533" lon="9.0431217"><ele>429.0</ele><time>2026-05-01T12:38:29.671Z</time></trkpt><trkpt lat="40.7934067" lon="9.043065"><ele>429.0</ele><time>2026-05-01T12:38:30.671Z</time></trkpt><trkpt lat="40.793345" lon="9.0429417"><ele>429.0</ele><time>2026-05-01T12:38:32.671Z</time></trkpt><trkpt lat="40.7932983" lon="9.0428367"><ele>422.3333333333333</ele><time>2026-05-01T12:38:34.671Z</time></trkpt><trkpt lat="40.79325" lon="9.0427567"><ele>415.66666666666663</ele><time>2026-05-01T12:38:37.671Z</time></trkpt><trkpt lat="40.7931833" lon="9.0428333"><ele>409.0</ele><time>2026-05-01T12:38:40.671Z</time></trkpt><trkpt lat="40.7931617" lon="9.0429333"><ele>402.3333333333333</ele><time>2026-05-01T12:38:42.671Z</time></trkpt><trkpt lat="40.793165" lon="9.043055"><ele>395.66666666666663</ele><time>2026-05-01T12:38:44.671Z</time></trkpt><trkpt lat="40.79321" lon="9.0431667"><ele>389.0</ele><time>2026-05-01T12:38:46.671Z</time></trkpt><trkpt lat="40.7932417" lon="9.0432633"><ele>389.0</ele><time>2026-05-01T12:38:48.671Z</time></trkpt><trkpt lat="40.7932317" lon="9.0433483"><ele>389.0</ele><time>2026-05-01T12:38:51.672Z</time></trkpt><trkpt lat="40.7931617" lon="9.0432367"><ele>389.0</ele><time>2026-05-01T12:38:53.671Z</time></trkpt><trkpt lat="40.7931" lon="9.0430983"><ele>389.0</ele><time>2026-05-01T12:38:55.671Z</time></trkpt><trkpt lat="40.7930517" lon="9.0430067"><ele>389.0</ele><time>2026-05-01T12:38:56.671Z</time></trkpt><trkpt lat="40.7930033" lon="9.0429417"><ele>388.99999999999994</ele><time>2026-05-01T12:38:57.671Z</time></trkpt><trkpt lat="40.792965" lon="9.0428667"><ele>389.0</ele><time>2026-05-01T12:38:58.671Z</time></trkpt><trkpt lat="40.7928833" lon="9.0427933"><ele>389.0</ele><time>2026-05-01T12:39:00.671Z</time></trkpt><trkpt lat="40.7927983" lon="9.0427767"><ele>389.0</ele><time>2026-05-01T12:39:02.671Z</time></trkpt><trkpt lat="40.7927483" lon="9.0428383"><ele>388.99999999999994</ele><time>2026-05-01T12:39:04.671Z</time></trkpt><trkpt lat="40.7927617" lon="9.0429517"><ele>389.0</ele><time>2026-05-01T12:39:06.671Z</time></trkpt><trkpt lat="40.792795" lon="9.0430683"><ele>389.0</ele><time>2026-05-01T12:39:08.671Z</time></trkpt><trkpt lat="40.7928167" lon="9.043205"><ele>389.0</ele><time>2026-05-01T12:39:10.671Z</time></trkpt><trkpt lat="40.79283" lon="9.0433533"><ele>389.0</ele><time>2026-05-01T12:39:12.671Z</time></trkpt><trkpt lat="40.7928217" lon="9.0435033"><ele>389.0</ele><time>2026-05-01T12:39:14.671Z</time></trkpt><trkpt lat="40.7927883" lon="9.0435883"><ele>389.0</ele><time>2026-05-01T12:39:16.671Z</time></trkpt><trkpt lat="40.7927167" lon="9.0435717"><ele>382.66666666666663</ele><time>2026-05-01T12:39:19.671Z</time></trkpt><trkpt lat="40.7926617" lon="9.0435033"><ele>376.3333333333333</ele><time>2026-05-01T12:39:21.671Z</time></trkpt><trkpt lat="40.7925767" lon="9.0434783"><ele>370.0</ele><time>2026-05-01T12:39:24.671Z</time></trkpt><trkpt lat="40.7925317" lon="9.0435467"><ele>363.66666666666663</ele><time>2026-05-01T12:39:27.671Z</time></trkpt><trkpt lat="40.7925217" lon="9.04363"><ele>357.3333333333333</ele><time>2026-05-01T12:39:29.67Z</time></trkpt><trkpt lat="40.7925167" lon="9.0437567"><ele>351.0</ele><time>2026-05-01T12:39:31.67Z</time></trkpt><trkpt lat="40.7925167" lon="9.0438867"><ele>351.0</ele><time>2026-05-01T12:39:33.67Z</time></trkpt><trkpt lat="40.7924783" lon="9.0440117"><ele>351.0</ele><time>2026-05-01T12:39:35.67Z</time></trkpt><trkpt lat="40.79244" lon="9.04412"><ele>351.0</ele><time>2026-05-01T12:39:37.67Z</time></trkpt><trkpt lat="40.7924333" lon="9.04423"><ele>351.0</ele><time>2026-05-01T12:39:39.67Z</time></trkpt><trkpt lat="40.7924717" lon="9.0443217"><ele>351.0</ele><time>2026-05-01T12:39:41.67Z</time></trkpt><trkpt lat="40.7924983" lon="9.0444433"><ele>349.8</ele><time>2026-05-01T12:39:43.67Z</time></trkpt><trkpt lat="40.79257" lon="9.0445433"><ele>348.6</ele><time>2026-05-01T12:39:45.67Z</time></trkpt><trkpt lat="40.7926483" lon="9.04464"><ele>347.4</ele><time>2026-05-01T12:39:47.67Z</time></trkpt><trkpt lat="40.79272" lon="9.0447483"><ele>346.2</ele><time>2026-05-01T12:39:49.67Z</time></trkpt><trkpt lat="40.7927867" lon="9.04486"><ele>345.0</ele><time>2026-05-01T12:39:51.67Z</time></trkpt><trkpt lat="40.792835" lon="9.045"><ele>345.0</ele><time>2026-05-01T12:39:53.67Z</time></trkpt><trkpt lat="40.7928933" lon="9.04515"><ele>345.0</ele><time>2026-05-01T12:39:55.67Z</time></trkpt><trkpt lat="40.7929317" lon="9.04523"><ele>345.0</ele><time>2026-05-01T12:39:56.67Z</time></trkpt><trkpt lat="40.7929717" lon="9.0453083"><ele>345.0</ele><time>2026-05-01T12:39:57.67Z</time></trkpt><trkpt lat="40.7930017" lon="9.0453817"><ele>345.0</ele><time>2026-05-01T12:39:58.67Z</time></trkpt><trkpt lat="40.7930267" lon="9.04552"><ele>345.0</ele><time>2026-05-01T12:40:00.67Z</time></trkpt><trkpt lat="40.7930467" lon="9.04564"><ele>345.0</ele><time>2026-05-01T12:40:02.67Z</time></trkpt><trkpt lat="40.793005" lon="9.04577"><ele>345.0</ele><time>2026-05-01T12:40:04.67Z</time></trkpt><trkpt lat="40.7929567" lon="9.045895"><ele>345.0</ele><time>2026-05-01T12:40:06.67Z</time></trkpt><trkpt lat="40.7929583" lon="9.0460333"><ele>345.0</ele><time>2026-05-01T12:40:08.67Z</time></trkpt><trkpt lat="40.7929867" lon="9.0461617"><ele>345.0</ele><time>2026-05-01T12:40:10.67Z</time></trkpt><trkpt lat="40.7930433" lon="9.0462567"><ele>340.75</ele><time>2026-05-01T12:40:12.67Z</time></trkpt><trkpt lat="40.793125" lon="9.046365"><ele>336.5</ele><time>2026-05-01T12:40:14.671Z</time></trkpt><trkpt lat="40.7931817" lon="9.04649"><ele>332.25</ele><time>2026-05-01T12:40:16.67Z</time></trkpt><trkpt lat="40.7932033" lon="9.04663"><ele>328.0</ele><time>2026-05-01T12:40:18.67Z</time></trkpt><trkpt lat="40.7931983" lon="9.0467833"><ele>325.3333333333333</ele><time>2026-05-01T12:40:20.67Z</time></trkpt><trkpt lat="40.7931783" lon="9.0468633"><ele>322.66666666666663</ele><time>2026-05-01T12:40:21.67Z</time></trkpt><trkpt lat="40.7931483" lon="9.0469533"><ele>320.0</ele><time>2026-05-01T12:40:22.67Z</time></trkpt><trkpt lat="40.7931117" lon="9.0470367"><ele>317.3333333333333</ele><time>2026-05-01T12:40:23.67Z</time></trkpt><trkpt lat="40.79307" lon="9.047105"><ele>314.6666666666667</ele><time>2026-05-01T12:40:24.67Z</time></trkpt><trkpt lat="40.793005" lon="9.0472367"><ele>312.0</ele><time>2026-05-01T12:40:26.67Z</time></trkpt><trkpt lat="40.7929783" lon="9.0473917"><ele>308.8</ele><time>2026-05-01T12:40:28.67Z</time></trkpt><trkpt lat="40.7929667" lon="9.0475417"><ele>305.6</ele><time>2026-05-01T12:40:30.67Z</time></trkpt><trkpt lat="40.7929367" lon="9.0476683"><ele>302.40000000000003</ele><time>2026-05-01T12:40:32.67Z</time></trkpt><trkpt lat="40.7929133" lon="9.04779"><ele>299.2</ele><time>2026-05-01T12:40:34.67Z</time></trkpt><trkpt lat="40.7929333" lon="9.0478967"><ele>296.0</ele><time>2026-05-01T12:40:36.67Z</time></trkpt><trkpt lat="40.7929917" lon="9.04799"><ele>296.0</ele><time>2026-05-01T12:40:38.67Z</time></trkpt><trkpt lat="40.7931" lon="9.04808"><ele>296.0</ele><time>2026-05-01T12:40:40.67Z</time></trkpt><trkpt lat="40.79319" lon="9.04817"><ele>296.0</ele><time>2026-05-01T12:40:42.67Z</time></trkpt><trkpt lat="40.793255" lon="9.0482717"><ele>296.0</ele><time>2026-05-01T12:40:44.67Z</time></trkpt><trkpt lat="40.793325" lon="9.0483283"><ele>296.0</ele><time>2026-05-01T12:40:46.67Z</time></trkpt><trkpt lat="40.7934117" lon="9.0483767"><ele>296.40000000000003</ele><time>2026-05-01T12:40:48.67Z</time></trkpt><trkpt lat="40.7935417" lon="9.0483917"><ele>296.8</ele><time>2026-05-01T12:40:50.67Z</time></trkpt><trkpt lat="40.7936133" lon="9.048395"><ele>297.20000000000005</ele><time>2026-05-01T12:40:51.67Z</time></trkpt><trkpt lat="40.793685" lon="9.0484067"><ele>297.6</ele><time>2026-05-01T12:40:52.67Z</time></trkpt><trkpt lat="40.7937933" lon="9.0484433"><ele>298.0</ele><time>2026-05-01T12:40:54.67Z</time></trkpt><trkpt lat="40.7939333" lon="9.0484533"><ele>298.0</ele><time>2026-05-01T12:40:56.67Z</time></trkpt><trkpt lat="40.794035" lon="9.0484933"><ele>298.0</ele><time>2026-05-01T12:40:58.67Z</time></trkpt><trkpt lat="40.7940883" lon="9.0485433"><ele>298.0</ele><time>2026-05-01T12:40:59.671Z</time></trkpt><trkpt lat="40.7941367" lon="9.0486017"><ele>298.0</ele><time>2026-05-01T12:41:00.67Z</time></trkpt><trkpt lat="40.7941867" lon="9.0486617"><ele>298.0</ele><time>2026-05-01T12:41:01.67Z</time></trkpt><trkpt lat="40.794275" lon="9.0487517"><ele>298.0</ele><time>2026-05-01T12:41:02.67Z</time></trkpt><trkpt lat="40.7943633" lon="9.0488417"><ele>299.5</ele><time>2026-05-01T12:41:03.671Z</time></trkpt><trkpt lat="40.7944267" lon="9.0489017"><ele>301.0</ele><time>2026-05-01T12:41:04.67Z</time></trkpt><trkpt lat="40.7944833" lon="9.0489517"><ele>302.5</ele><time>2026-05-01T12:41:05.67Z</time></trkpt><trkpt lat="40.7945467" lon="9.0490383"><ele>304.0</ele><time>2026-05-01T12:41:06.67Z</time></trkpt><trkpt lat="40.794605" lon="9.0491033"><ele>305.5</ele><time>2026-05-01T12:41:07.67Z</time></trkpt><trkpt lat="40.7946317" lon="9.049205"><ele>307.0</ele><time>2026-05-01T12:41:09.67Z</time></trkpt><trkpt lat="40.794655" lon="9.04933"><ele>307.0</ele><time>2026-05-01T12:41:11.67Z</time></trkpt><trkpt lat="40.7947" lon="9.0494933"><ele>307.0</ele><time>2026-05-01T12:41:13.67Z</time></trkpt><trkpt lat="40.7947217" lon="9.0495833"><ele>307.0</ele><time>2026-05-01T12:41:14.67Z</time></trkpt><trkpt lat="40.7947467" lon="9.0496617"><ele>307.0</ele><time>2026-05-01T12:41:15.67Z</time></trkpt><trkpt lat="40.794775" lon="9.0497433"><ele>307.0</ele><time>2026-05-01T12:41:16.67Z</time></trkpt><trkpt lat="40.7948033" lon="9.0498483"><ele>307.0</ele><time>2026-05-01T12:41:17.67Z</time></trkpt><trkpt lat="40.7948233" lon="9.0499433"><ele>305.0</ele><time>2026-05-01T12:41:18.67Z</time></trkpt><trkpt lat="40.7948433" lon="9.050035"><ele>303.0</ele><time>2026-05-01T12:41:19.67Z</time></trkpt><trkpt lat="40.7948583" lon="9.0501167"><ele>301.0</ele><time>2026-05-01T12:41:20.67Z</time></trkpt><trkpt lat="40.7948683" lon="9.05026"><ele>299.0</ele><time>2026-05-01T12:41:22.67Z</time></trkpt><trkpt lat="40.7948517" lon="9.0503883"><ele>297.0</ele><time>2026-05-01T12:41:24.67Z</time></trkpt><trkpt lat="40.7948183" lon="9.0505167"><ele>295.0</ele><time>2026-05-01T12:41:26.67Z</time></trkpt><trkpt lat="40.7948" lon="9.0505967"><ele>295.0</ele><time>2026-05-01T12:41:27.67Z</time></trkpt><trkpt lat="40.7947483" lon="9.0507283"><ele>295.0</ele><time>2026-05-01T12:41:29.67Z</time></trkpt><trkpt lat="40.7946783" lon="9.0508417"><ele>295.0</ele><time>2026-05-01T12:41:31.67Z</time></trkpt><trkpt lat="40.7945633" lon="9.0508467"><ele>295.0</ele><time>2026-05-01T12:41:33.67Z</time></trkpt><trkpt lat="40.794485" lon="9.0508233"><ele>295.0</ele><time>2026-05-01T12:41:35.67Z</time></trkpt><trkpt lat="40.79442" lon="9.0507767"><ele>290.25</ele><time>2026-05-01T12:41:38.67Z</time></trkpt><trkpt lat="40.7943367" lon="9.0507367"><ele>285.5</ele><time>2026-05-01T12:41:40.67Z</time></trkpt><trkpt lat="40.7942333" lon="9.0507117"><ele>280.75</ele><time>2026-05-01T12:41:42.67Z</time></trkpt><trkpt lat="40.7941" lon="9.0506917"><ele>276.0</ele><time>2026-05-01T12:41:44.67Z</time></trkpt><trkpt lat="40.7939583" lon="9.050655"><ele>276.0</ele><time>2026-05-01T12:41:46.67Z</time></trkpt><trkpt lat="40.7938767" lon="9.0506267"><ele>276.0</ele><time>2026-05-01T12:41:47.671Z</time></trkpt><trkpt lat="40.7937983" lon="9.0505967"><ele>276.0</ele><time>2026-05-01T12:41:48.67Z</time></trkpt><trkpt lat="40.793695" lon="9.050545"><ele>276.0</ele><time>2026-05-01T12:41:50.67Z</time></trkpt><trkpt lat="40.7935933" lon="9.0504567"><ele>276.0</ele><time>2026-05-01T12:41:52.67Z</time></trkpt><trkpt lat="40.7935183" lon="9.0503717"><ele>276.2</ele><time>2026-05-01T12:41:54.67Z</time></trkpt><trkpt lat="40.79346" lon="9.0503033"><ele>276.40000000000003</ele><time>2026-05-01T12:41:56.67Z</time></trkpt><trkpt lat="40.793375" lon="9.0502133"><ele>276.6</ele><time>2026-05-01T12:41:58.67Z</time></trkpt><trkpt lat="40.7933117" lon="9.0501383"><ele>276.8</ele><time>2026-05-01T12:42:00.67Z</time></trkpt><trkpt lat="40.79324" lon="9.0500383"><ele>277.0</ele><time>2026-05-01T12:42:02.67Z</time></trkpt><trkpt lat="40.7931733" lon="9.0499517"><ele>276.4</ele><time>2026-05-01T12:42:04.67Z</time></trkpt><trkpt lat="40.7930833" lon="9.0499233"><ele>275.79999999999995</ele><time>2026-05-01T12:42:06.67Z</time></trkpt><trkpt lat="40.79295" lon="9.049905"><ele>275.2</ele><time>2026-05-01T12:42:08.67Z</time></trkpt><trkpt lat="40.7928333" lon="9.049905"><ele>274.59999999999997</ele><time>2026-05-01T12:42:10.67Z</time></trkpt><trkpt lat="40.7927667" lon="9.0498983"><ele>274.0</ele><time>2026-05-01T12:42:11.67Z</time></trkpt><trkpt lat="40.7927033" lon="9.0498867"><ele>273.3333333333333</ele><time>2026-05-01T12:42:12.67Z</time></trkpt><trkpt lat="40.7926333" lon="9.0498667"><ele>272.66666666666663</ele><time>2026-05-01T12:42:13.67Z</time></trkpt><trkpt lat="40.7925683" lon="9.04982"><ele>272.0</ele><time>2026-05-01T12:42:14.67Z</time></trkpt><trkpt lat="40.7925033" lon="9.0497717"><ele>271.3333333333333</ele><time>2026-05-01T12:42:15.67Z</time></trkpt><trkpt lat="40.79245" lon="9.0497117"><ele>270.6666666666667</ele><time>2026-05-01T12:42:16.67Z</time></trkpt><trkpt lat="40.79238" lon="9.0496333"><ele>270.0</ele><time>2026-05-01T12:42:17.67Z</time></trkpt><trkpt lat="40.7923133" lon="9.0495483"><ele>270.0</ele><time>2026-05-01T12:42:18.67Z</time></trkpt><trkpt lat="40.7922383" lon="9.0494633"><ele>270.0</ele><time>2026-05-01T12:42:19.67Z</time></trkpt><trkpt lat="40.792165" lon="9.04938"><ele>270.0</ele><time>2026-05-01T12:42:20.67Z</time></trkpt><trkpt lat="40.792105" lon="9.0493167"><ele>270.0</ele><time>2026-05-01T12:42:21.67Z</time></trkpt><trkpt lat="40.79203" lon="9.0492583"><ele>270.0</ele><time>2026-05-01T12:42:22.67Z</time></trkpt><trkpt lat="40.7919467" lon="9.049215"><ele>270.0</ele><time>2026-05-01T12:42:23.67Z</time></trkpt><trkpt lat="40.7918633" lon="9.0491817"><ele>270.5</ele><time>2026-05-01T12:42:24.67Z</time></trkpt><trkpt lat="40.7917917" lon="9.04914"><ele>271.0</ele><time>2026-05-01T12:42:25.67Z</time></trkpt><trkpt lat="40.7917167" lon="9.0490767"><ele>271.5</ele><time>2026-05-01T12:42:26.67Z</time></trkpt><trkpt lat="40.79165" lon="9.0490433"><ele>272.0</ele><time>2026-05-01T12:42:27.67Z</time></trkpt><trkpt lat="40.7915717" lon="9.049005"><ele>272.5</ele><time>2026-05-01T12:42:28.67Z</time></trkpt><trkpt lat="40.79149" lon="9.0489783"><ele>273.0</ele><time>2026-05-01T12:42:29.67Z</time></trkpt><trkpt lat="40.7914133" lon="9.0489433"><ele>271.8333333333333</ele><time>2026-05-01T12:42:30.67Z</time></trkpt><trkpt lat="40.7913383" lon="9.048905"><ele>270.6666666666667</ele><time>2026-05-01T12:42:31.67Z</time></trkpt><trkpt lat="40.791265" lon="9.048865"><ele>269.5</ele><time>2026-05-01T12:42:32.67Z</time></trkpt><trkpt lat="40.7912" lon="9.0488117"><ele>268.33333333333337</ele><time>2026-05-01T12:42:33.67Z</time></trkpt><trkpt lat="40.7911333" lon="9.04876"><ele>267.1666666666667</ele><time>2026-05-01T12:42:34.67Z</time></trkpt><trkpt lat="40.79107" lon="9.04871"><ele>266.0</ele><time>2026-05-01T12:42:35.67Z</time></trkpt><trkpt lat="40.7910033" lon="9.0486483"><ele>266.0</ele><time>2026-05-01T12:42:36.67Z</time></trkpt><trkpt lat="40.7909217" lon="9.04859"><ele>266.0</ele><time>2026-05-01T12:42:37.67Z</time></trkpt><trkpt lat="40.7908467" lon="9.0485267"><ele>266.0</ele><time>2026-05-01T12:42:38.67Z</time></trkpt><trkpt lat="40.79078" lon="9.0484667"><ele>266.0</ele><time>2026-05-01T12:42:39.67Z</time></trkpt><trkpt lat="40.7907217" lon="9.0484167"><ele>266.0</ele><time>2026-05-01T12:42:40.67Z</time></trkpt><trkpt lat="40.79063" lon="9.048345"><ele>266.0</ele><time>2026-05-01T12:42:42.67Z</time></trkpt><trkpt lat="40.7905167" lon="9.0482683"><ele>266.2857142857143</ele><time>2026-05-01T12:42:44.67Z</time></trkpt><trkpt lat="40.7904533" lon="9.04822"><ele>266.57142857142856</ele><time>2026-05-01T12:42:45.67Z</time></trkpt><trkpt lat="40.7903883" lon="9.04817"><ele>266.8571428571429</ele><time>2026-05-01T12:42:46.67Z</time></trkpt><trkpt lat="40.7903283" lon="9.04812"><ele>267.1428571428571</ele><time>2026-05-01T12:42:47.67Z</time></trkpt><trkpt lat="40.7902633" lon="9.0480683"><ele>267.42857142857144</ele><time>2026-05-01T12:42:48.67Z</time></trkpt><trkpt lat="40.7902033" lon="9.048015"><ele>267.7142857142857</ele><time>2026-05-01T12:42:49.67Z</time></trkpt><trkpt lat="40.7901517" lon="9.0479633"><ele>268.0</ele><time>2026-05-01T12:42:50.67Z</time></trkpt><trkpt lat="40.790075" lon="9.047905"><ele>266.4</ele><time>2026-05-01T12:42:51.67Z</time></trkpt><trkpt lat="40.7899933" lon="9.0478233"><ele>264.8</ele><time>2026-05-01T12:42:52.67Z</time></trkpt><trkpt lat="40.789915" lon="9.0477717"><ele>263.2</ele><time>2026-05-01T12:42:53.67Z</time></trkpt><trkpt lat="40.7898283" lon="9.0477167"><ele>261.6</ele><time>2026-05-01T12:42:54.67Z</time></trkpt><trkpt lat="40.7897433" lon="9.04765"><ele>260.0</ele><time>2026-05-01T12:42:55.67Z</time></trkpt><trkpt lat="40.7896717" lon="9.0475917"><ele>260.0</ele><time>2026-05-01T12:42:56.67Z</time></trkpt><trkpt lat="40.7896033" lon="9.0475367"><ele>260.0</ele><time>2026-05-01T12:42:57.67Z</time></trkpt><trkpt lat="40.7895417" lon="9.04748"><ele>260.0</ele><time>2026-05-01T12:42:58.67Z</time></trkpt><trkpt lat="40.7894767" lon="9.047445"><ele>260.0</ele><time>2026-05-01T12:42:59.67Z</time></trkpt><trkpt lat="40.789415" lon="9.0474033"><ele>260.0</ele><time>2026-05-01T12:43:00.67Z</time></trkpt><trkpt lat="40.7893133" lon="9.0473183"><ele>260.0</ele><time>2026-05-01T12:43:02.67Z</time></trkpt><trkpt lat="40.7892283" lon="9.0472433"><ele>259.6</ele><time>2026-05-01T12:43:04.67Z</time></trkpt><trkpt lat="40.7891583" lon="9.04717"><ele>259.2</ele><time>2026-05-01T12:43:06.67Z</time></trkpt><trkpt lat="40.7890717" lon="9.0470817"><ele>258.8</ele><time>2026-05-01T12:43:08.67Z</time></trkpt><trkpt lat="40.7889617" lon="9.04699"><ele>258.4</ele><time>2026-05-01T12:43:10.67Z</time></trkpt><trkpt lat="40.7889" lon="9.04693"><ele>258.0</ele><time>2026-05-01T12:43:11.67Z</time></trkpt><trkpt lat="40.7888233" lon="9.0468633"><ele>258.0</ele><time>2026-05-01T12:43:12.67Z</time></trkpt><trkpt lat="40.7887417" lon="9.0468067"><ele>258.0</ele><time>2026-05-01T12:43:13.67Z</time></trkpt><trkpt lat="40.7886517" lon="9.04674"><ele>258.0</ele><time>2026-05-01T12:43:14.67Z</time></trkpt><trkpt lat="40.7885717" lon="9.0466617"><ele>258.0</ele><time>2026-05-01T12:43:15.67Z</time></trkpt><trkpt lat="40.7884917" lon="9.04659"><ele>258.0</ele><time>2026-05-01T12:43:16.67Z</time></trkpt><trkpt lat="40.7884233" lon="9.0465267"><ele>258.6666666666667</ele><time>2026-05-01T12:43:17.67Z</time></trkpt><trkpt lat="40.78835" lon="9.0464733"><ele>259.3333333333333</ele><time>2026-05-01T12:43:18.67Z</time></trkpt><trkpt lat="40.7882733" lon="9.04642"><ele>260.0</ele><time>2026-05-01T12:43:19.67Z</time></trkpt><trkpt lat="40.7881933" lon="9.04638"><ele>260.66666666666663</ele><time>2026-05-01T12:43:20.67Z</time></trkpt><trkpt lat="40.7881167" lon="9.0463533"><ele>261.3333333333333</ele><time>2026-05-01T12:43:21.67Z</time></trkpt><trkpt lat="40.7880433" lon="9.046335"><ele>262.0</ele><time>2026-05-01T12:43:22.67Z</time></trkpt><trkpt lat="40.7879617" lon="9.0463267"><ele>262.0</ele><time>2026-05-01T12:43:23.67Z</time></trkpt><trkpt lat="40.787885" lon="9.0463417"><ele>262.0</ele><time>2026-05-01T12:43:24.67Z</time></trkpt><trkpt lat="40.787815" lon="9.046345"><ele>262.0</ele><time>2026-05-01T12:43:25.67Z</time></trkpt><trkpt lat="40.7877433" lon="9.0463483"><ele>262.0</ele><time>2026-05-01T12:43:26.67Z</time></trkpt><trkpt lat="40.7876733" lon="9.04637"><ele>262.0</ele><time>2026-05-01T12:43:27.67Z</time></trkpt><trkpt lat="40.7875917" lon="9.0464017"><ele>262.0</ele><time>2026-05-01T12:43:28.67Z</time></trkpt><trkpt lat="40.7875067" lon="9.0464367"><ele>260.6</ele><time>2026-05-01T12:43:29.67Z</time></trkpt><trkpt lat="40.7874267" lon="9.0464817"><ele>259.2</ele><time>2026-05-01T12:43:30.67Z</time></trkpt><trkpt lat="40.7873433" lon="9.046515"><ele>257.8</ele><time>2026-05-01T12:43:31.671Z</time></trkpt><trkpt lat="40.7872617" lon="9.0465367"><ele>256.4</ele><time>2026-05-01T12:43:32.67Z</time></trkpt><trkpt lat="40.7871633" lon="9.046555"><ele>255.0</ele><time>2026-05-01T12:43:33.67Z</time></trkpt><trkpt lat="40.7870667" lon="9.0465733"><ele>255.0</ele><time>2026-05-01T12:43:34.67Z</time></trkpt><trkpt lat="40.7869633" lon="9.0465917"><ele>255.0</ele><time>2026-05-01T12:43:35.67Z</time></trkpt><trkpt lat="40.7868583" lon="9.046595"><ele>255.0</ele><time>2026-05-01T12:43:36.67Z</time></trkpt><trkpt lat="40.786755" lon="9.0466"><ele>255.0</ele><time>2026-05-01T12:43:37.67Z</time></trkpt><trkpt lat="40.7866583" lon="9.0466067"><ele>255.0</ele><time>2026-05-01T12:43:38.67Z</time></trkpt><trkpt lat="40.7865683" lon="9.0466117"><ele>254.5</ele><time>2026-05-01T12:43:39.67Z</time></trkpt><trkpt lat="40.78648" lon="9.0465867"><ele>254.0</ele><time>2026-05-01T12:43:40.67Z</time></trkpt><trkpt lat="40.7863967" lon="9.046555"><ele>253.5</ele><time>2026-05-01T12:43:41.67Z</time></trkpt><trkpt lat="40.7863233" lon="9.0465183"><ele>253.0</ele><time>2026-05-01T12:43:42.67Z</time></trkpt><trkpt lat="40.7862433" lon="9.0464683"><ele>252.5</ele><time>2026-05-01T12:43:43.67Z</time></trkpt><trkpt lat="40.78615" lon="9.0464117"><ele>252.0</ele><time>2026-05-01T12:43:44.67Z</time></trkpt><trkpt lat="40.7860433" lon="9.0463317"><ele>255.25</ele><time>2026-05-01T12:43:45.67Z</time></trkpt><trkpt lat="40.7859283" lon="9.0462433"><ele>258.5</ele><time>2026-05-01T12:43:46.67Z</time></trkpt><trkpt lat="40.7858317" lon="9.0461367"><ele>261.75</ele><time>2026-05-01T12:43:47.67Z</time></trkpt><trkpt lat="40.7857467" lon="9.0460383"><ele>265.0</ele><time>2026-05-01T12:43:48.671Z</time></trkpt><trkpt lat="40.7856617" lon="9.0459283"><ele>265.0</ele><time>2026-05-01T12:43:49.67Z</time></trkpt><trkpt lat="40.785575" lon="9.045805"><ele>265.0</ele><time>2026-05-01T12:43:50.67Z</time></trkpt><trkpt lat="40.785505" lon="9.045685"><ele>265.0</ele><time>2026-05-01T12:43:51.671Z</time></trkpt><trkpt lat="40.7854467" lon="9.04557"><ele>265.0</ele><time>2026-05-01T12:43:52.67Z</time></trkpt><trkpt lat="40.78538" lon="9.0454633"><ele>265.0</ele><time>2026-05-01T12:43:53.67Z</time></trkpt><trkpt lat="40.78532" lon="9.0453833"><ele>265.0</ele><time>2026-05-01T12:43:54.67Z</time></trkpt><trkpt lat="40.7852567" lon="9.0452933"><ele>265.0</ele><time>2026-05-01T12:43:55.671Z</time></trkpt><trkpt lat="40.7851667" lon="9.0452233"><ele>265.0</ele><time>2026-05-01T12:43:56.67Z</time></trkpt><trkpt lat="40.78506" lon="9.0451583"><ele>265.0</ele><time>2026-05-01T12:43:57.67Z</time></trkpt><trkpt lat="40.7849517" lon="9.0451083"><ele>265.0</ele><time>2026-05-01T12:43:58.67Z</time></trkpt><trkpt lat="40.7848467" lon="9.04508"><ele>265.0</ele><time>2026-05-01T12:43:59.67Z</time></trkpt><trkpt lat="40.7847383" lon="9.0450283"><ele>265.0</ele><time>2026-05-01T12:44:00.671Z</time></trkpt><trkpt lat="40.7846617" lon="9.04499"><ele>265.0</ele><time>2026-05-01T12:44:01.67Z</time></trkpt><trkpt lat="40.7845833" lon="9.0449983"><ele>265.0</ele><time>2026-05-01T12:44:02.67Z</time></trkpt><trkpt lat="40.7845133" lon="9.04502"><ele>265.0</ele><time>2026-05-01T12:44:03.67Z</time></trkpt><trkpt lat="40.784395" lon="9.0451017"><ele>265.0</ele><time>2026-05-01T12:44:05.67Z</time></trkpt><trkpt lat="40.7842967" lon="9.045225"><ele>265.0</ele><time>2026-05-01T12:44:06.67Z</time></trkpt><trkpt lat="40.784195" lon="9.0453617"><ele>265.0</ele><time>2026-05-01T12:44:07.67Z</time></trkpt><trkpt lat="40.78412" lon="9.045475"><ele>263.2</ele><time>2026-05-01T12:44:08.67Z</time></trkpt><trkpt lat="40.78405" lon="9.04557"><ele>261.4</ele><time>2026-05-01T12:44:09.67Z</time></trkpt><trkpt lat="40.7839817" lon="9.045665"><ele>259.6</ele><time>2026-05-01T12:44:10.67Z</time></trkpt><trkpt lat="40.7839233" lon="9.0457733"><ele>257.8</ele><time>2026-05-01T12:44:11.67Z</time></trkpt><trkpt lat="40.783865" lon="9.0458783"><ele>256.0</ele><time>2026-05-01T12:44:12.67Z</time></trkpt><trkpt lat="40.7838417" lon="9.0460083"><ele>259.8</ele><time>2026-05-01T12:44:13.67Z</time></trkpt><trkpt lat="40.7838" lon="9.0461333"><ele>263.6</ele><time>2026-05-01T12:44:14.67Z</time></trkpt><trkpt lat="40.7837483" lon="9.0462467"><ele>267.4</ele><time>2026-05-01T12:44:15.67Z</time></trkpt><trkpt lat="40.7837017" lon="9.0463567"><ele>271.2</ele><time>2026-05-01T12:44:16.67Z</time></trkpt><trkpt lat="40.783655" lon="9.0464583"><ele>275.0</ele><time>2026-05-01T12:44:17.67Z</time></trkpt><trkpt lat="40.7836183" lon="9.0465483"><ele>273.1666666666667</ele><time>2026-05-01T12:44:18.67Z</time></trkpt><trkpt lat="40.7836167" lon="9.0466333"><ele>271.33333333333337</ele><time>2026-05-01T12:44:19.67Z</time></trkpt><trkpt lat="40.78362" lon="9.0467217"><ele>269.5</ele><time>2026-05-01T12:44:21.67Z</time></trkpt><trkpt lat="40.783505" lon="9.046595"><ele>267.6666666666667</ele><time>2026-05-01T12:44:24.67Z</time></trkpt><trkpt lat="40.78345" lon="9.0465133"><ele>265.8333333333333</ele><time>2026-05-01T12:44:25.67Z</time></trkpt><trkpt lat="40.7834017" lon="9.0464217"><ele>264.0</ele><time>2026-05-01T12:44:26.67Z</time></trkpt><trkpt lat="40.78335" lon="9.0463633"><ele>264.0</ele><time>2026-05-01T12:44:27.67Z</time></trkpt><trkpt lat="40.783295" lon="9.0463183"><ele>264.0</ele><time>2026-05-01T12:44:28.67Z</time></trkpt><trkpt lat="40.7831783" lon="9.04612"><ele>264.0</ele><time>2026-05-01T12:44:29.67Z</time></trkpt><trkpt lat="40.7830333" lon="9.0460033"><ele>264.0</ele><time>2026-05-01T12:44:30.67Z</time></trkpt><trkpt lat="40.782925" lon="9.0459067"><ele>264.0</ele><time>2026-05-01T12:44:31.67Z</time></trkpt><trkpt lat="40.7828383" lon="9.0458317"><ele>264.0</ele><time>2026-05-01T12:44:32.67Z</time></trkpt><trkpt lat="40.7827683" lon="9.045775"><ele>264.0</ele><time>2026-05-01T12:44:33.67Z</time></trkpt><trkpt lat="40.7827117" lon="9.0457367"><ele>264.0</ele><time>2026-05-01T12:44:34.67Z</time></trkpt><trkpt lat="40.78265" lon="9.0456783"><ele>264.0</ele><time>2026-05-01T12:44:36.67Z</time></trkpt><trkpt lat="40.782635" lon="9.045595"><ele>264.0</ele><time>2026-05-01T12:44:38.67Z</time></trkpt><trkpt lat="40.7826083" lon="9.0454467"><ele>265.3333333333333</ele><time>2026-05-01T12:44:40.67Z</time></trkpt><trkpt lat="40.7825783" lon="9.045295"><ele>266.6666666666667</ele><time>2026-05-01T12:44:42.67Z</time></trkpt><trkpt lat="40.7825683" lon="9.0452083"><ele>268.0</ele><time>2026-05-01T12:44:43.67Z</time></trkpt><trkpt lat="40.7825367" lon="9.0451217"><ele>269.33333333333337</ele><time>2026-05-01T12:44:44.67Z</time></trkpt><trkpt lat="40.7825017" lon="9.045025"><ele>270.6666666666667</ele><time>2026-05-01T12:44:45.67Z</time></trkpt><trkpt lat="40.7824583" lon="9.0449283"><ele>272.0</ele><time>2026-05-01T12:44:46.67Z</time></trkpt><trkpt lat="40.7824" lon="9.0448517"><ele>267.83333333333337</ele><time>2026-05-01T12:44:47.67Z</time></trkpt><trkpt lat="40.7823517" lon="9.04478"><ele>263.6666666666667</ele><time>2026-05-01T12:44:48.67Z</time></trkpt><trkpt lat="40.7822867" lon="9.0447267"><ele>259.5</ele><time>2026-05-01T12:44:49.67Z</time></trkpt><trkpt lat="40.78222" lon="9.0446883"><ele>255.33333333333331</ele><time>2026-05-01T12:44:50.67Z</time></trkpt><trkpt lat="40.7821367" lon="9.04467"><ele>251.16666666666666</ele><time>2026-05-01T12:44:51.67Z</time></trkpt><trkpt lat="40.782015" lon="9.0447017"><ele>247.0</ele><time>2026-05-01T12:44:52.67Z</time></trkpt><trkpt lat="40.7819033" lon="9.04474"><ele>245.25</ele><time>2026-05-01T12:44:53.67Z</time></trkpt><trkpt lat="40.7818233" lon="9.0447233"><ele>243.5</ele><time>2026-05-01T12:44:54.67Z</time></trkpt><trkpt lat="40.78167" lon="9.0447783"><ele>241.75</ele><time>2026-05-01T12:44:55.67Z</time></trkpt><trkpt lat="40.7815433" lon="9.0448183"><ele>240.0</ele><time>2026-05-01T12:44:56.67Z</time></trkpt><trkpt lat="40.781435" lon="9.0448383"><ele>240.0</ele><time>2026-05-01T12:44:57.671Z</time></trkpt><trkpt lat="40.78133" lon="9.0448417"><ele>240.0</ele><time>2026-05-01T12:44:58.67Z</time></trkpt><trkpt lat="40.7812183" lon="9.0448367"><ele>240.0</ele><time>2026-05-01T12:44:59.67Z</time></trkpt><trkpt lat="40.7810933" lon="9.04479"><ele>240.0</ele><time>2026-05-01T12:45:00.67Z</time></trkpt><trkpt lat="40.7809833" lon="9.0447617"><ele>241.0</ele><time>2026-05-01T12:45:01.67Z</time></trkpt><trkpt lat="40.7808883" lon="9.044735"><ele>242.0</ele><time>2026-05-01T12:45:02.67Z</time></trkpt><trkpt lat="40.7808067" lon="9.0447133"><ele>243.0</ele><time>2026-05-01T12:45:03.67Z</time></trkpt><trkpt lat="40.7807067" lon="9.0446983"><ele>244.0</ele><time>2026-05-01T12:45:04.67Z</time></trkpt><trkpt lat="40.7806233" lon="9.0447233"><ele>245.0</ele><time>2026-05-01T12:45:05.67Z</time></trkpt><trkpt lat="40.780545" lon="9.04474"><ele>246.0</ele><time>2026-05-01T12:45:06.67Z</time></trkpt><trkpt lat="40.7804683" lon="9.04478"><ele>246.0</ele><time>2026-05-01T12:45:07.67Z</time></trkpt><trkpt lat="40.7804133" lon="9.044875"><ele>246.0</ele><time>2026-05-01T12:45:08.67Z</time></trkpt><trkpt lat="40.7803617" lon="9.0449583"><ele>246.0</ele><time>2026-05-01T12:45:09.67Z</time></trkpt><trkpt lat="40.7802933" lon="9.0449933"><ele>246.0</ele><time>2026-05-01T12:45:10.67Z</time></trkpt><trkpt lat="40.7802183" lon="9.045025"><ele>246.0</ele><time>2026-05-01T12:45:11.67Z</time></trkpt><trkpt lat="40.7801433" lon="9.045045"><ele>246.0</ele><time>2026-05-01T12:45:12.67Z</time></trkpt><trkpt lat="40.7800733" lon="9.0450567"><ele>248.60000000000002</ele><time>2026-05-01T12:45:13.67Z</time></trkpt><trkpt lat="40.779985" lon="9.0450583"><ele>251.20000000000002</ele><time>2026-05-01T12:45:14.67Z</time></trkpt><trkpt lat="40.779885" lon="9.04508"><ele>253.79999999999998</ele><time>2026-05-01T12:45:15.67Z</time></trkpt><trkpt lat="40.7797917" lon="9.045105"><ele>256.4</ele><time>2026-05-01T12:45:16.67Z</time></trkpt><trkpt lat="40.7797033" lon="9.0451533"><ele>259.0</ele><time>2026-05-01T12:45:17.67Z</time></trkpt><trkpt lat="40.7796183" lon="9.0452083"><ele>259.0</ele><time>2026-05-01T12:45:18.67Z</time></trkpt><trkpt lat="40.779545" lon="9.0452317"><ele>259.0</ele><time>2026-05-01T12:45:19.67Z</time></trkpt><trkpt lat="40.7794767" lon="9.045265"><ele>259.0</ele><time>2026-05-01T12:45:20.67Z</time></trkpt><trkpt lat="40.7794083" lon="9.0452917"><ele>259.0</ele><time>2026-05-01T12:45:21.67Z</time></trkpt><trkpt lat="40.77931" lon="9.0453317"><ele>259.0</ele><time>2026-05-01T12:45:23.67Z</time></trkpt><trkpt lat="40.7792233" lon="9.0452983"><ele>259.0</ele><time>2026-05-01T12:45:26.67Z</time></trkpt><trkpt lat="40.77918" lon="9.0452083"><ele>259.8333333333333</ele><time>2026-05-01T12:45:27.67Z</time></trkpt><trkpt lat="40.7791133" lon="9.04514"><ele>260.66666666666663</ele><time>2026-05-01T12:45:28.67Z</time></trkpt><trkpt lat="40.779035" lon="9.0450633"><ele>261.5</ele><time>2026-05-01T12:45:29.67Z</time></trkpt><trkpt lat="40.77897" lon="9.0450217"><ele>262.3333333333333</ele><time>2026-05-01T12:45:30.67Z</time></trkpt><trkpt lat="40.778895" lon="9.0449717"><ele>263.1666666666667</ele><time>2026-05-01T12:45:31.67Z</time></trkpt><trkpt lat="40.7788267" lon="9.0449267"><ele>264.0</ele><time>2026-05-01T12:45:32.67Z</time></trkpt><trkpt lat="40.7787183" lon="9.0448683"><ele>261.8333333333333</ele><time>2026-05-01T12:45:34.67Z</time></trkpt><trkpt lat="40.7786433" lon="9.0448217"><ele>259.6666666666667</ele><time>2026-05-01T12:45:35.67Z</time></trkpt><trkpt lat="40.7785667" lon="9.0447983"><ele>257.5</ele><time>2026-05-01T12:45:36.67Z</time></trkpt><trkpt lat="40.7784683" lon="9.0447967"><ele>255.33333333333334</ele><time>2026-05-01T12:45:37.67Z</time></trkpt><trkpt lat="40.778385" lon="9.0447883"><ele>253.16666666666669</ele><time>2026-05-01T12:45:38.67Z</time></trkpt><trkpt lat="40.7783" lon="9.0447833"><ele>251.0</ele><time>2026-05-01T12:45:39.669Z</time></trkpt><trkpt lat="40.7782067" lon="9.0447267"><ele>251.00000000000003</ele><time>2026-05-01T12:45:40.669Z</time></trkpt><trkpt lat="40.7781217" lon="9.0447033"><ele>251.0</ele><time>2026-05-01T12:45:41.669Z</time></trkpt><trkpt lat="40.778005" lon="9.04466"><ele>251.0</ele><time>2026-05-01T12:45:42.669Z</time></trkpt><trkpt lat="40.7779217" lon="9.0446483"><ele>251.0</ele><time>2026-05-01T12:45:43.669Z</time></trkpt><trkpt lat="40.7778483" lon="9.0446333"><ele>251.00000000000003</ele><time>2026-05-01T12:45:44.67Z</time></trkpt><trkpt lat="40.77778" lon="9.0446583"><ele>251.0</ele><time>2026-05-01T12:45:45.669Z</time></trkpt><trkpt lat="40.7777133" lon="9.0446867"><ele>251.66666666666669</ele><time>2026-05-01T12:45:46.669Z</time></trkpt><trkpt lat="40.77764" lon="9.0447617"><ele>252.33333333333334</ele><time>2026-05-01T12:45:47.669Z</time></trkpt><trkpt lat="40.7775767" lon="9.04486"><ele>253.0</ele><time>2026-05-01T12:45:48.669Z</time></trkpt><trkpt lat="40.7775083" lon="9.0449017"><ele>253.66666666666669</ele><time>2026-05-01T12:45:49.669Z</time></trkpt><trkpt lat="40.7774517" lon="9.0449567"><ele>254.33333333333334</ele><time>2026-05-01T12:45:50.669Z</time></trkpt><trkpt lat="40.7773733" lon="9.045055"><ele>255.0</ele><time>2026-05-01T12:45:51.669Z</time></trkpt><trkpt lat="40.777315" lon="9.04518"><ele>258.0</ele><time>2026-05-01T12:45:52.669Z</time></trkpt><trkpt lat="40.7772767" lon="9.045305"><ele>261.0</ele><time>2026-05-01T12:45:53.669Z</time></trkpt><trkpt lat="40.7772383" lon="9.045415"><ele>264.0</ele><time>2026-05-01T12:45:54.669Z</time></trkpt><trkpt lat="40.7771983" lon="9.0455217"><ele>267.0</ele><time>2026-05-01T12:45:55.669Z</time></trkpt><trkpt lat="40.7771333" lon="9.045625"><ele>270.0</ele><time>2026-05-01T12:45:56.669Z</time></trkpt><trkpt lat="40.7771033" lon="9.0457417"><ele>273.2</ele><time>2026-05-01T12:45:57.669Z</time></trkpt><trkpt lat="40.7770483" lon="9.04586"><ele>276.4</ele><time>2026-05-01T12:45:58.669Z</time></trkpt><trkpt lat="40.7770033" lon="9.0459883"><ele>279.6</ele><time>2026-05-01T12:45:59.669Z</time></trkpt><trkpt lat="40.7770083" lon="9.0461317"><ele>282.8</ele><time>2026-05-01T12:46:00.669Z</time></trkpt><trkpt lat="40.7769967" lon="9.046265"><ele>286.0</ele><time>2026-05-01T12:46:01.669Z</time></trkpt><trkpt lat="40.776965" lon="9.0463717"><ele>285.99999999999994</ele><time>2026-05-01T12:46:02.669Z</time></trkpt><trkpt lat="40.776975" lon="9.0464883"><ele>286.0</ele><time>2026-05-01T12:46:03.669Z</time></trkpt><trkpt lat="40.776945" lon="9.0465833"><ele>286.0</ele><time>2026-05-01T12:46:04.669Z</time></trkpt><trkpt lat="40.7769183" lon="9.0466633"><ele>286.0</ele><time>2026-05-01T12:46:05.669Z</time></trkpt><trkpt lat="40.776885" lon="9.0467367"><ele>286.0</ele><time>2026-05-01T12:46:06.669Z</time></trkpt><trkpt lat="40.77684" lon="9.0468117"><ele>285.99999999999994</ele><time>2026-05-01T12:46:07.669Z</time></trkpt><trkpt lat="40.7767833" lon="9.0468783"><ele>286.0</ele><time>2026-05-01T12:46:08.669Z</time></trkpt><trkpt lat="40.7767267" lon="9.0469517"><ele>285.66666666666663</ele><time>2026-05-01T12:46:09.669Z</time></trkpt><trkpt lat="40.776665" lon="9.0470433"><ele>285.3333333333333</ele><time>2026-05-01T12:46:11.669Z</time></trkpt><trkpt lat="40.77673" lon="9.0471117"><ele>285.0</ele><time>2026-05-01T12:46:20.669Z</time></trkpt><trkpt lat="40.7768083" lon="9.0471333"><ele>284.6666666666667</ele><time>2026-05-01T12:46:22.669Z</time></trkpt><trkpt lat="40.7768967" lon="9.0471183"><ele>284.33333333333337</ele><time>2026-05-01T12:46:24.669Z</time></trkpt><trkpt lat="40.7769867" lon="9.0470883"><ele>284.0</ele><time>2026-05-01T12:46:26.669Z</time></trkpt><trkpt lat="40.7771083" lon="9.0471"><ele>284.1666666666667</ele><time>2026-05-01T12:46:28.669Z</time></trkpt><trkpt lat="40.7771733" lon="9.047125"><ele>284.33333333333337</ele><time>2026-05-01T12:46:29.669Z</time></trkpt><trkpt lat="40.7772483" lon="9.0471733"><ele>284.5</ele><time>2026-05-01T12:46:30.669Z</time></trkpt><trkpt lat="40.7773167" lon="9.04723"><ele>284.6666666666667</ele><time>2026-05-01T12:46:31.669Z</time></trkpt><trkpt lat="40.7773833" lon="9.04731"><ele>284.8333333333333</ele><time>2026-05-01T12:46:32.669Z</time></trkpt><trkpt lat="40.77744" lon="9.0473883"><ele>285.0</ele><time>2026-05-01T12:46:33.669Z</time></trkpt><trkpt lat="40.7774833" lon="9.04749"><ele>285.0</ele><time>2026-05-01T12:46:34.669Z</time></trkpt><trkpt lat="40.7774883" lon="9.0476067"><ele>285.0</ele><time>2026-05-01T12:46:35.669Z</time></trkpt><trkpt lat="40.777485" lon="9.047735"><ele>285.0</ele><time>2026-05-01T12:46:36.669Z</time></trkpt><trkpt lat="40.7774583" lon="9.04786"><ele>285.0</ele><time>2026-05-01T12:46:37.669Z</time></trkpt><trkpt lat="40.7774333" lon="9.0479817"><ele>285.0</ele><time>2026-05-01T12:46:38.669Z</time></trkpt><trkpt lat="40.77744" lon="9.0481233"><ele>285.0</ele><time>2026-05-01T12:46:39.669Z</time></trkpt><trkpt lat="40.7774617" lon="9.048235"><ele>285.0</ele><time>2026-05-01T12:46:40.669Z</time></trkpt><trkpt lat="40.7774783" lon="9.0483433"><ele>285.0</ele><time>2026-05-01T12:46:41.669Z</time></trkpt><trkpt lat="40.7775117" lon="9.0484433"><ele>285.0</ele><time>2026-05-01T12:46:42.669Z</time></trkpt><trkpt lat="40.7775417" lon="9.0485433"><ele>285.0</ele><time>2026-05-01T12:46:43.669Z</time></trkpt><trkpt lat="40.7775483" lon="9.0486517"><ele>285.0</ele><time>2026-05-01T12:46:44.669Z</time></trkpt><trkpt lat="40.777555" lon="9.04877"><ele>284.2</ele><time>2026-05-01T12:46:45.669Z</time></trkpt><trkpt lat="40.7775517" lon="9.0488867"><ele>283.4</ele><time>2026-05-01T12:46:46.669Z</time></trkpt><trkpt lat="40.777515" lon="9.04901"><ele>282.6</ele><time>2026-05-01T12:46:47.669Z</time></trkpt><trkpt lat="40.7774683" lon="9.0491267"><ele>281.8</ele><time>2026-05-01T12:46:48.669Z</time></trkpt><trkpt lat="40.777425" lon="9.0492217"><ele>281.0</ele><time>2026-05-01T12:46:49.669Z</time></trkpt><trkpt lat="40.777395" lon="9.0493167"><ele>280.5</ele><time>2026-05-01T12:46:50.669Z</time></trkpt><trkpt lat="40.7773833" lon="9.0494083"><ele>280.0</ele><time>2026-05-01T12:46:51.669Z</time></trkpt><trkpt lat="40.7773933" lon="9.0494967"><ele>279.5</ele><time>2026-05-01T12:46:52.669Z</time></trkpt><trkpt lat="40.7774333" lon="9.0495767"><ele>279.0</ele><time>2026-05-01T12:46:53.669Z</time></trkpt><trkpt lat="40.7774833" lon="9.04966"><ele>278.5</ele><time>2026-05-01T12:46:54.669Z</time></trkpt><trkpt lat="40.77757" lon="9.0497317"><ele>278.0</ele><time>2026-05-01T12:46:55.669Z</time></trkpt><trkpt lat="40.7776367" lon="9.049815"><ele>278.25</ele><time>2026-05-01T12:46:56.669Z</time></trkpt><trkpt lat="40.7777167" lon="9.0498983"><ele>278.5</ele><time>2026-05-01T12:46:57.669Z</time></trkpt><trkpt lat="40.7778467" lon="9.049965"><ele>278.75</ele><time>2026-05-01T12:46:58.669Z</time></trkpt><trkpt lat="40.7779733" lon="9.0500367"><ele>279.0</ele><time>2026-05-01T12:46:59.669Z</time></trkpt><trkpt lat="40.7780917" lon="9.0501267"><ele>279.0</ele><time>2026-05-01T12:47:00.669Z</time></trkpt><trkpt lat="40.7782117" lon="9.050195"><ele>279.0</ele><time>2026-05-01T12:47:01.669Z</time></trkpt><trkpt lat="40.778405" lon="9.0502"><ele>279.0</ele><time>2026-05-01T12:47:02.669Z</time></trkpt><trkpt lat="40.7785483" lon="9.0502233"><ele>282.0</ele><time>2026-05-01T12:47:03.669Z</time></trkpt><trkpt lat="40.7786917" lon="9.0502317"><ele>285.0</ele><time>2026-05-01T12:47:04.669Z</time></trkpt><trkpt lat="40.7788583" lon="9.0501983"><ele>288.0</ele><time>2026-05-01T12:47:05.669Z</time></trkpt><trkpt lat="40.779005" lon="9.0501783"><ele>288.0</ele><time>2026-05-01T12:47:06.669Z</time></trkpt><trkpt lat="40.7791183" lon="9.0501967"><ele>288.0</ele><time>2026-05-01T12:47:07.669Z</time></trkpt><trkpt lat="40.7792083" lon="9.050225"><ele>288.0</ele><time>2026-05-01T12:47:08.669Z</time></trkpt><trkpt lat="40.7793067" lon="9.0502283"><ele>288.0</ele><time>2026-05-01T12:47:09.669Z</time></trkpt><trkpt lat="40.7793633" lon="9.0502867"><ele>288.0</ele><time>2026-05-01T12:47:10.669Z</time></trkpt><trkpt lat="40.7793883" lon="9.050385"><ele>288.0</ele><time>2026-05-01T12:47:11.669Z</time></trkpt><trkpt lat="40.7793733" lon="9.0505083"><ele>288.0</ele><time>2026-05-01T12:47:12.669Z</time></trkpt><trkpt lat="40.7793167" lon="9.0506733"><ele>288.0</ele><time>2026-05-01T12:47:13.669Z</time></trkpt><trkpt lat="40.7792533" lon="9.0508317"><ele>288.0</ele><time>2026-05-01T12:47:14.669Z</time></trkpt><trkpt lat="40.779135" lon="9.0509717"><ele>286.25</ele><time>2026-05-01T12:47:15.669Z</time></trkpt><trkpt lat="40.77903" lon="9.0510883"><ele>284.5</ele><time>2026-05-01T12:47:16.669Z</time></trkpt><trkpt lat="40.77891" lon="9.0511667"><ele>282.75</ele><time>2026-05-01T12:47:17.669Z</time></trkpt><trkpt lat="40.778775" lon="9.05122"><ele>281.0</ele><time>2026-05-01T12:47:18.669Z</time></trkpt><trkpt lat="40.7786417" lon="9.0512633"><ele>278.25</ele><time>2026-05-01T12:47:19.669Z</time></trkpt><trkpt lat="40.7785017" lon="9.051315"><ele>275.5</ele><time>2026-05-01T12:47:20.669Z</time></trkpt><trkpt lat="40.77837" lon="9.0513917"><ele>272.75</ele><time>2026-05-01T12:47:21.669Z</time></trkpt><trkpt lat="40.778235" lon="9.0514833"><ele>270.0</ele><time>2026-05-01T12:47:22.669Z</time></trkpt><trkpt lat="40.7781017" lon="9.0515867"><ele>270.75</ele><time>2026-05-01T12:47:23.669Z</time></trkpt><trkpt lat="40.77798" lon="9.05169"><ele>271.5</ele><time>2026-05-01T12:47:24.669Z</time></trkpt><trkpt lat="40.7778567" lon="9.051775"><ele>272.25</ele><time>2026-05-01T12:47:25.669Z</time></trkpt><trkpt lat="40.7777533" lon="9.05183"><ele>273.0</ele><time>2026-05-01T12:47:26.669Z</time></trkpt><trkpt lat="40.7776633" lon="9.0518783"><ele>273.0</ele><time>2026-05-01T12:47:27.669Z</time></trkpt><trkpt lat="40.7775833" lon="9.0519333"><ele>273.0</ele><time>2026-05-01T12:47:28.669Z</time></trkpt><trkpt lat="40.777515" lon="9.0519967"><ele>273.0</ele><time>2026-05-01T12:47:29.669Z</time></trkpt><trkpt lat="40.7774733" lon="9.05209"><ele>273.0</ele><time>2026-05-01T12:47:30.669Z</time></trkpt><trkpt lat="40.77745" lon="9.0521933"><ele>273.0</ele><time>2026-05-01T12:47:31.669Z</time></trkpt><trkpt lat="40.77744" lon="9.05229"><ele>273.0</ele><time>2026-05-01T12:47:32.669Z</time></trkpt><trkpt lat="40.777445" lon="9.0523817"><ele>273.5</ele><time>2026-05-01T12:47:33.669Z</time></trkpt><trkpt lat="40.7774933" lon="9.0524883"><ele>274.0</ele><time>2026-05-01T12:47:34.669Z</time></trkpt><trkpt lat="40.777605" lon="9.0526167"><ele>274.5</ele><time>2026-05-01T12:47:35.669Z</time></trkpt><trkpt lat="40.7777" lon="9.05274"><ele>275.0</ele><time>2026-05-01T12:47:36.669Z</time></trkpt><trkpt lat="40.7778117" lon="9.052855"><ele>278.4</ele><time>2026-05-01T12:47:37.669Z</time></trkpt><trkpt lat="40.7778783" lon="9.052995"><ele>281.8</ele><time>2026-05-01T12:47:38.669Z</time></trkpt><trkpt lat="40.77794" lon="9.0531217"><ele>285.2</ele><time>2026-05-01T12:47:39.669Z</time></trkpt><trkpt lat="40.7779833" lon="9.05324"><ele>288.6</ele><time>2026-05-01T12:47:40.669Z</time></trkpt><trkpt lat="40.778" lon="9.0533483"><ele>292.0</ele><time>2026-05-01T12:47:41.669Z</time></trkpt><trkpt lat="40.7779967" lon="9.0534517"><ele>292.0</ele><time>2026-05-01T12:47:42.669Z</time></trkpt><trkpt lat="40.77799" lon="9.053535"><ele>292.0</ele><time>2026-05-01T12:47:43.669Z</time></trkpt><trkpt lat="40.777985" lon="9.0536767"><ele>292.0</ele><time>2026-05-01T12:47:45.669Z</time></trkpt><trkpt lat="40.7778833" lon="9.0537433"><ele>292.0</ele><time>2026-05-01T12:47:47.669Z</time></trkpt><trkpt lat="40.7777583" lon="9.0537367"><ele>292.0</ele><time>2026-05-01T12:47:48.669Z</time></trkpt><trkpt lat="40.7776467" lon="9.053765"><ele>290.6</ele><time>2026-05-01T12:47:49.669Z</time></trkpt><trkpt lat="40.7775767" lon="9.0538417"><ele>289.2</ele><time>2026-05-01T12:47:50.669Z</time></trkpt><trkpt lat="40.7775017" lon="9.05393"><ele>287.8</ele><time>2026-05-01T12:47:51.669Z</time></trkpt><trkpt lat="40.777455" lon="9.0540433"><ele>286.4</ele><time>2026-05-01T12:47:52.669Z</time></trkpt><trkpt lat="40.7774267" lon="9.0541583"><ele>285.0</ele><time>2026-05-01T12:47:53.669Z</time></trkpt><trkpt lat="40.77742" lon="9.0542783"><ele>285.0</ele><time>2026-05-01T12:47:54.669Z</time></trkpt><trkpt lat="40.7774317" lon="9.0544017"><ele>285.0</ele><time>2026-05-01T12:47:55.669Z</time></trkpt><trkpt lat="40.7774433" lon="9.054515"><ele>285.0</ele><time>2026-05-01T12:47:56.669Z</time></trkpt><trkpt lat="40.7774467" lon="9.054615"><ele>285.0</ele><time>2026-05-01T12:47:57.669Z</time></trkpt><trkpt lat="40.77745" lon="9.0547133"><ele>285.0</ele><time>2026-05-01T12:47:58.669Z</time></trkpt><trkpt lat="40.777465" lon="9.054795"><ele>285.0</ele><time>2026-05-01T12:47:59.669Z</time></trkpt><trkpt lat="40.7774983" lon="9.054895"><ele>285.25</ele><time>2026-05-01T12:48:01.669Z</time></trkpt><trkpt lat="40.7774933" lon="9.05506"><ele>285.5</ele><time>2026-05-01T12:48:38.669Z</time></trkpt><trkpt lat="40.7774783" lon="9.055185"><ele>285.75</ele><time>2026-05-01T12:48:39.669Z</time></trkpt><trkpt lat="40.7774617" lon="9.0553517"><ele>286.0</ele><time>2026-05-01T12:48:40.669Z</time></trkpt><trkpt lat="40.77745" lon="9.0555233"><ele>286.0</ele><time>2026-05-01T12:48:41.669Z</time></trkpt><trkpt lat="40.7774483" lon="9.0557167"><ele>286.0</ele><time>2026-05-01T12:48:42.669Z</time></trkpt><trkpt lat="40.7774633" lon="9.0558983"><ele>286.0</ele><time>2026-05-01T12:48:43.669Z</time></trkpt><trkpt lat="40.7774917" lon="9.0560983"><ele>286.0</ele><time>2026-05-01T12:48:44.669Z</time></trkpt><trkpt lat="40.77754" lon="9.0562567"><ele>285.25</ele><time>2026-05-01T12:48:45.67Z</time></trkpt><trkpt lat="40.7775883" lon="9.0563967"><ele>284.5</ele><time>2026-05-01T12:48:46.669Z</time></trkpt><trkpt lat="40.77763" lon="9.05654"><ele>283.75</ele><time>2026-05-01T12:48:47.669Z</time></trkpt><trkpt lat="40.7776667" lon="9.0566883"><ele>283.0</ele><time>2026-05-01T12:48:48.669Z</time></trkpt><trkpt lat="40.7776967" lon="9.056835"><ele>286.4</ele><time>2026-05-01T12:48:49.669Z</time></trkpt><trkpt lat="40.7777117" lon="9.0569667"><ele>289.8</ele><time>2026-05-01T12:48:50.669Z</time></trkpt><trkpt lat="40.777725" lon="9.0571"><ele>293.2</ele><time>2026-05-01T12:48:51.669Z</time></trkpt><trkpt lat="40.7777567" lon="9.0572283"><ele>296.6</ele><time>2026-05-01T12:48:52.669Z</time></trkpt><trkpt lat="40.77779" lon="9.0573417"><ele>300.0</ele><time>2026-05-01T12:48:53.669Z</time></trkpt><trkpt lat="40.7778317" lon="9.057455"><ele>300.0</ele><time>2026-05-01T12:48:54.669Z</time></trkpt><trkpt lat="40.7778517" lon="9.0575767"><ele>300.0</ele><time>2026-05-01T12:48:55.669Z</time></trkpt><trkpt lat="40.7778583" lon="9.0577"><ele>300.0</ele><time>2026-05-01T12:48:56.669Z</time></trkpt><trkpt lat="40.777845" lon="9.0578333"><ele>300.0</ele><time>2026-05-01T12:48:57.669Z</time></trkpt><trkpt lat="40.777815" lon="9.0579617"><ele>300.0</ele><time>2026-05-01T12:48:58.669Z</time></trkpt><trkpt lat="40.7777533" lon="9.05809"><ele>292.0</ele><time>2026-05-01T12:48:59.669Z</time></trkpt><trkpt lat="40.7776767" lon="9.0582167"><ele>284.0</ele><time>2026-05-01T12:49:00.669Z</time></trkpt><trkpt lat="40.7775917" lon="9.05835"><ele>276.0</ele><time>2026-05-01T12:49:01.669Z</time></trkpt><trkpt lat="40.777515" lon="9.0584817"><ele>268.0</ele><time>2026-05-01T12:49:02.669Z</time></trkpt><trkpt lat="40.7774433" lon="9.05862"><ele>268.0</ele><time>2026-05-01T12:49:03.669Z</time></trkpt><trkpt lat="40.7773767" lon="9.0587767"><ele>268.0</ele><time>2026-05-01T12:49:04.669Z</time></trkpt><trkpt lat="40.7773383" lon="9.0589283"><ele>268.0</ele><time>2026-05-01T12:49:05.67Z</time></trkpt><trkpt lat="40.7773317" lon="9.05908"><ele>268.0</ele><time>2026-05-01T12:49:06.669Z</time></trkpt><trkpt lat="40.7773317" lon="9.0592167"><ele>269.0</ele><time>2026-05-01T12:49:07.669Z</time></trkpt><trkpt lat="40.7774067" lon="9.0593433"><ele>270.0</ele><time>2026-05-01T12:49:08.669Z</time></trkpt><trkpt lat="40.7774583" lon="9.0594367"><ele>271.0</ele><time>2026-05-01T12:49:09.669Z</time></trkpt><trkpt lat="40.7775133" lon="9.0595417"><ele>272.0</ele><time>2026-05-01T12:49:10.669Z</time></trkpt><trkpt lat="40.7775583" lon="9.0596483"><ele>273.0</ele><time>2026-05-01T12:49:11.669Z</time></trkpt><trkpt lat="40.7775983" lon="9.0597533"><ele>273.0</ele><time>2026-05-01T12:49:12.669Z</time></trkpt><trkpt lat="40.777625" lon="9.0598617"><ele>273.0</ele><time>2026-05-01T12:49:13.669Z</time></trkpt><trkpt lat="40.7776417" lon="9.0599517"><ele>273.0</ele><time>2026-05-01T12:49:14.669Z</time></trkpt><trkpt lat="40.7776417" lon="9.06004"><ele>273.0</ele><time>2026-05-01T12:49:15.669Z</time></trkpt><trkpt lat="40.7775417" lon="9.0600967"><ele>273.0</ele><time>2026-05-01T12:49:17.669Z</time></trkpt><trkpt lat="40.777415" lon="9.0600633"><ele>272.2</ele><time>2026-05-01T12:49:18.669Z</time></trkpt><trkpt lat="40.7773517" lon="9.0600983"><ele>271.4</ele><time>2026-05-01T12:49:19.669Z</time></trkpt><trkpt lat="40.77723" lon="9.0601017"><ele>270.59999999999997</ele><time>2026-05-01T12:49:20.669Z</time></trkpt><trkpt lat="40.7771133" lon="9.06015"><ele>269.8</ele><time>2026-05-01T12:49:21.669Z</time></trkpt><trkpt lat="40.777" lon="9.0602117"><ele>269.0</ele><time>2026-05-01T12:49:22.669Z</time></trkpt><trkpt lat="40.77689" lon="9.06031"><ele>266.25</ele><time>2026-05-01T12:49:23.669Z</time></trkpt><trkpt lat="40.7767933" lon="9.0604533"><ele>263.5</ele><time>2026-05-01T12:49:24.669Z</time></trkpt><trkpt lat="40.7767233" lon="9.0605983"><ele>260.75</ele><time>2026-05-01T12:49:25.669Z</time></trkpt><trkpt lat="40.7766617" lon="9.0607383"><ele>258.0</ele><time>2026-05-01T12:49:26.67Z</time></trkpt><trkpt lat="40.7765983" lon="9.0608483"><ele>258.0</ele><time>2026-05-01T12:49:27.669Z</time></trkpt><trkpt lat="40.7765267" lon="9.060935"><ele>258.0</ele><time>2026-05-01T12:49:28.669Z</time></trkpt><trkpt lat="40.776435" lon="9.060995"><ele>258.0</ele><time>2026-05-01T12:49:29.669Z</time></trkpt><trkpt lat="40.77634" lon="9.06104"><ele>258.0</ele><time>2026-05-01T12:49:30.669Z</time></trkpt><trkpt lat="40.7762333" lon="9.0610667"><ele>258.0</ele><time>2026-05-01T12:49:31.669Z</time></trkpt><trkpt lat="40.7761583" lon="9.0611117"><ele>258.0</ele><time>2026-05-01T12:49:32.669Z</time></trkpt><trkpt lat="40.776075" lon="9.0611833"><ele>258.0</ele><time>2026-05-01T12:49:33.669Z</time></trkpt><trkpt lat="40.776005" lon="9.0612767"><ele>258.0</ele><time>2026-05-01T12:49:34.669Z</time></trkpt><trkpt lat="40.7759667" lon="9.0614033"><ele>258.0</ele><time>2026-05-01T12:49:35.669Z</time></trkpt><trkpt lat="40.7759433" lon="9.0615617"><ele>258.0</ele><time>2026-05-01T12:49:36.669Z</time></trkpt><trkpt lat="40.7759367" lon="9.0617333"><ele>253.66666666666669</ele><time>2026-05-01T12:49:37.669Z</time></trkpt><trkpt lat="40.7759383" lon="9.0619383"><ele>249.33333333333334</ele><time>2026-05-01T12:49:38.669Z</time></trkpt><trkpt lat="40.7759517" lon="9.06216"><ele>245.0</ele><time>2026-05-01T12:49:39.669Z</time></trkpt><trkpt lat="40.7759583" lon="9.0624067"><ele>245.0</ele><time>2026-05-01T12:49:40.669Z</time></trkpt><trkpt lat="40.775935" lon="9.0626317"><ele>245.0</ele><time>2026-05-01T12:49:41.67Z</time></trkpt><trkpt lat="40.775905" lon="9.0628583"><ele>245.0</ele><time>2026-05-01T12:49:42.669Z</time></trkpt><trkpt lat="40.7758733" lon="9.0630783"><ele>244.66666666666669</ele><time>2026-05-01T12:49:43.669Z</time></trkpt><trkpt lat="40.775845" lon="9.0632883"><ele>244.33333333333331</ele><time>2026-05-01T12:49:44.669Z</time></trkpt><trkpt lat="40.7758117" lon="9.0634917"><ele>244.0</ele><time>2026-05-01T12:49:45.669Z</time></trkpt><trkpt lat="40.775775" lon="9.0636867"><ele>244.0</ele><time>2026-05-01T12:49:46.669Z</time></trkpt><trkpt lat="40.77573" lon="9.0638717"><ele>244.0</ele><time>2026-05-01T12:49:47.669Z</time></trkpt><trkpt lat="40.775705" lon="9.0640683"><ele>244.0</ele><time>2026-05-01T12:49:48.669Z</time></trkpt><trkpt lat="40.7757083" lon="9.0642583"><ele>244.0</ele><time>2026-05-01T12:49:49.669Z</time></trkpt><trkpt lat="40.77574" lon="9.064445"><ele>243.75</ele><time>2026-05-01T12:49:50.669Z</time></trkpt><trkpt lat="40.7757917" lon="9.0646283"><ele>243.5</ele><time>2026-05-01T12:49:51.669Z</time></trkpt><trkpt lat="40.7758517" lon="9.0648017"><ele>243.25</ele><time>2026-05-01T12:49:52.669Z</time></trkpt><trkpt lat="40.7758967" lon="9.0649733"><ele>243.0</ele><time>2026-05-01T12:49:53.669Z</time></trkpt><trkpt lat="40.7759283" lon="9.0651417"><ele>241.5</ele><time>2026-05-01T12:49:54.669Z</time></trkpt><trkpt lat="40.77595" lon="9.0653133"><ele>240.0</ele><time>2026-05-01T12:49:55.669Z</time></trkpt><trkpt lat="40.7759733" lon="9.0654717"><ele>238.5</ele><time>2026-05-01T12:49:56.669Z</time></trkpt><trkpt lat="40.7759883" lon="9.0656333"><ele>237.0</ele><time>2026-05-01T12:49:57.669Z</time></trkpt><trkpt lat="40.77599" lon="9.06578"><ele>240.0</ele><time>2026-05-01T12:49:58.669Z</time></trkpt><trkpt lat="40.7760267" lon="9.0659383"><ele>243.0</ele><time>2026-05-01T12:49:59.669Z</time></trkpt><trkpt lat="40.7760533" lon="9.0660833"><ele>246.0</ele><time>2026-05-01T12:50:00.669Z</time></trkpt><trkpt lat="40.7761033" lon="9.066225"><ele>249.0</ele><time>2026-05-01T12:50:01.669Z</time></trkpt><trkpt lat="40.7761233" lon="9.0663317"><ele>252.0</ele><time>2026-05-01T12:50:02.669Z</time></trkpt><trkpt lat="40.7761867" lon="9.066465"><ele>252.0</ele><time>2026-05-01T12:50:03.669Z</time></trkpt><trkpt lat="40.7762633" lon="9.0665683"><ele>252.0</ele><time>2026-05-01T12:50:04.669Z</time></trkpt><trkpt lat="40.7763317" lon="9.066665"><ele>252.0</ele><time>2026-05-01T12:50:05.669Z</time></trkpt><trkpt lat="40.77639" lon="9.06675"><ele>252.0</ele><time>2026-05-01T12:50:06.669Z</time></trkpt><trkpt lat="40.7764417" lon="9.0668283"><ele>252.0</ele><time>2026-05-01T12:50:07.669Z</time></trkpt><trkpt lat="40.7764817" lon="9.0669083"><ele>252.0</ele><time>2026-05-01T12:50:08.669Z</time></trkpt><trkpt lat="40.77651" lon="9.0669833"><ele>249.25</ele><time>2026-05-01T12:50:09.669Z</time></trkpt><trkpt lat="40.7764933" lon="9.0671"><ele>246.5</ele><time>2026-05-01T12:50:11.669Z</time></trkpt><trkpt lat="40.7763817" lon="9.0670833"><ele>243.75</ele><time>2026-05-01T12:50:13.669Z</time></trkpt><trkpt lat="40.7762383" lon="9.0670167"><ele>241.0</ele><time>2026-05-01T12:50:15.669Z</time></trkpt><trkpt lat="40.7760933" lon="9.0669467"><ele>237.0</ele><time>2026-05-01T12:50:16.669Z</time></trkpt><trkpt lat="40.7759233" lon="9.0668867"><ele>233.0</ele><time>2026-05-01T12:50:17.669Z</time></trkpt><trkpt lat="40.77577" lon="9.066865"><ele>229.0</ele><time>2026-05-01T12:50:18.669Z</time></trkpt><trkpt lat="40.7755917" lon="9.0668217"><ele>229.0</ele><time>2026-05-01T12:50:19.669Z</time></trkpt><trkpt lat="40.77547" lon="9.066785"><ele>229.0</ele><time>2026-05-01T12:50:20.669Z</time></trkpt><trkpt lat="40.77532" lon="9.06671"><ele>229.0</ele><time>2026-05-01T12:50:21.669Z</time></trkpt><trkpt lat="40.775195" lon="9.0666383"><ele>229.0</ele><time>2026-05-01T12:50:22.669Z</time></trkpt><trkpt lat="40.77505" lon="9.0665633"><ele>228.0</ele><time>2026-05-01T12:50:23.669Z</time></trkpt><trkpt lat="40.7749" lon="9.066505"><ele>227.0</ele><time>2026-05-01T12:50:24.669Z</time></trkpt><trkpt lat="40.7747767" lon="9.0664983"><ele>226.0</ele><time>2026-05-01T12:50:25.669Z</time></trkpt><trkpt lat="40.7746567" lon="9.06651"><ele>225.0</ele><time>2026-05-01T12:50:26.669Z</time></trkpt><trkpt lat="40.7745233" lon="9.066555"><ele>224.5</ele><time>2026-05-01T12:50:27.669Z</time></trkpt><trkpt lat="40.7743967" lon="9.066625"><ele>224.0</ele><time>2026-05-01T12:50:28.669Z</time></trkpt><trkpt lat="40.77427" lon="9.066705"><ele>223.5</ele><time>2026-05-01T12:50:29.669Z</time></trkpt><trkpt lat="40.7741233" lon="9.066785"><ele>223.0</ele><time>2026-05-01T12:50:30.669Z</time></trkpt><trkpt lat="40.7739667" lon="9.0668333"><ele>221.75</ele><time>2026-05-01T12:50:31.669Z</time></trkpt><trkpt lat="40.7738183" lon="9.0668617"><ele>220.5</ele><time>2026-05-01T12:50:32.669Z</time></trkpt><trkpt lat="40.773685" lon="9.0668883"><ele>219.25</ele><time>2026-05-01T12:50:33.669Z</time></trkpt><trkpt lat="40.7735433" lon="9.066915"><ele>218.0</ele><time>2026-05-01T12:50:34.669Z</time></trkpt><trkpt lat="40.7734133" lon="9.066925"><ele>217.25</ele><time>2026-05-01T12:50:35.669Z</time></trkpt><trkpt lat="40.7732767" lon="9.0669333"><ele>216.5</ele><time>2026-05-01T12:50:36.669Z</time></trkpt><trkpt lat="40.7731067" lon="9.0669117"><ele>215.75</ele><time>2026-05-01T12:50:37.669Z</time></trkpt><trkpt lat="40.77297" lon="9.066925"><ele>215.0</ele><time>2026-05-01T12:50:38.669Z</time></trkpt><trkpt lat="40.7728267" lon="9.0669367"><ele>213.5</ele><time>2026-05-01T12:50:39.669Z</time></trkpt><trkpt lat="40.7726883" lon="9.0669517"><ele>212.0</ele><time>2026-05-01T12:50:40.669Z</time></trkpt><trkpt lat="40.7725517" lon="9.066965"><ele>210.5</ele><time>2026-05-01T12:50:41.669Z</time></trkpt><trkpt lat="40.7724183" lon="9.06697"><ele>209.0</ele><time>2026-05-01T12:50:42.669Z</time></trkpt><trkpt lat="40.77229" lon="9.0669833"><ele>209.0</ele><time>2026-05-01T12:50:43.669Z</time></trkpt><trkpt lat="40.7721733" lon="9.06702"><ele>209.0</ele><time>2026-05-01T12:50:44.669Z</time></trkpt><trkpt lat="40.7720567" lon="9.06708"><ele>209.0</ele><time>2026-05-01T12:50:45.669Z</time></trkpt><trkpt lat="40.7719383" lon="9.06717"><ele>209.0</ele><time>2026-05-01T12:50:46.669Z</time></trkpt><trkpt lat="40.7718017" lon="9.0672483"><ele>207.25</ele><time>2026-05-01T12:50:47.669Z</time></trkpt><trkpt lat="40.7716617" lon="9.0672967"><ele>205.5</ele><time>2026-05-01T12:50:48.669Z</time></trkpt><trkpt lat="40.7715217" lon="9.06734"><ele>203.75</ele><time>2026-05-01T12:50:49.669Z</time></trkpt><trkpt lat="40.7713717" lon="9.06732"><ele>202.0</ele><time>2026-05-01T12:50:50.669Z</time></trkpt><trkpt lat="40.7712217" lon="9.06729"><ele>202.0</ele><time>2026-05-01T12:50:51.669Z</time></trkpt><trkpt lat="40.7710733" lon="9.06727"><ele>202.0</ele><time>2026-05-01T12:50:52.669Z</time></trkpt><trkpt lat="40.77093" lon="9.0672567"><ele>202.0</ele><time>2026-05-01T12:50:53.669Z</time></trkpt><trkpt lat="40.7707767" lon="9.067245"><ele>202.0</ele><time>2026-05-01T12:50:54.669Z</time></trkpt><trkpt lat="40.7706217" lon="9.0672317"><ele>202.0</ele><time>2026-05-01T12:50:55.67Z</time></trkpt><trkpt lat="40.7704667" lon="9.0672133"><ele>202.0</ele><time>2026-05-01T12:50:56.669Z</time></trkpt><trkpt lat="40.770315" lon="9.0671933"><ele>202.0</ele><time>2026-05-01T12:50:57.669Z</time></trkpt><trkpt lat="40.7701633" lon="9.0671683"><ele>202.0</ele><time>2026-05-01T12:50:58.669Z</time></trkpt><trkpt lat="40.7700217" lon="9.0671317"><ele>202.0</ele><time>2026-05-01T12:50:59.669Z</time></trkpt><trkpt lat="40.76988" lon="9.0670883"><ele>202.0</ele><time>2026-05-01T12:51:00.669Z</time></trkpt><trkpt lat="40.769725" lon="9.0670383"><ele>202.0</ele><time>2026-05-01T12:51:01.669Z</time></trkpt><trkpt lat="40.7695733" lon="9.06701"><ele>202.0</ele><time>2026-05-01T12:51:02.669Z</time></trkpt><trkpt lat="40.7694033" lon="9.0669867"><ele>202.0</ele><time>2026-05-01T12:51:03.669Z</time></trkpt><trkpt lat="40.7692467" lon="9.0669483"><ele>202.0</ele><time>2026-05-01T12:51:04.669Z</time></trkpt><trkpt lat="40.7690817" lon="9.0669317"><ele>200.0</ele><time>2026-05-01T12:51:05.669Z</time></trkpt><trkpt lat="40.76893" lon="9.0669117"><ele>198.0</ele><time>2026-05-01T12:51:06.67Z</time></trkpt><trkpt lat="40.7687783" lon="9.06691"><ele>196.0</ele><time>2026-05-01T12:51:07.669Z</time></trkpt><trkpt lat="40.7686217" lon="9.066905"><ele>194.0</ele><time>2026-05-01T12:51:08.669Z</time></trkpt><trkpt lat="40.7684617" lon="9.0668833"><ele>192.0</ele><time>2026-05-01T12:51:09.669Z</time></trkpt><trkpt lat="40.7682967" lon="9.0668633"><ele>190.0</ele><time>2026-05-01T12:51:10.669Z</time></trkpt><trkpt lat="40.76813" lon="9.0668467"><ele>190.0</ele><time>2026-05-01T12:51:11.669Z</time></trkpt><trkpt lat="40.7679667" lon="9.0668383"><ele>190.0</ele><time>2026-05-01T12:51:12.669Z</time></trkpt><trkpt lat="40.7678" lon="9.0668367"><ele>190.0</ele><time>2026-05-01T12:51:13.669Z</time></trkpt><trkpt lat="40.7676333" lon="9.0668583"><ele>190.0</ele><time>2026-05-01T12:51:14.669Z</time></trkpt><trkpt lat="40.7674683" lon="9.0668783"><ele>190.0</ele><time>2026-05-01T12:51:15.669Z</time></trkpt><trkpt lat="40.767315" lon="9.0669067"><ele>190.0</ele><time>2026-05-01T12:51:16.669Z</time></trkpt><trkpt lat="40.7671583" lon="9.06694"><ele>190.0</ele><time>2026-05-01T12:51:17.669Z</time></trkpt><trkpt lat="40.76702" lon="9.0669983"><ele>190.0</ele><time>2026-05-01T12:51:18.669Z</time></trkpt><trkpt lat="40.76685" lon="9.0670467"><ele>190.0</ele><time>2026-05-01T12:51:19.669Z</time></trkpt><trkpt lat="40.7666867" lon="9.0671017"><ele>189.0</ele><time>2026-05-01T12:51:20.669Z</time></trkpt><trkpt lat="40.766535" lon="9.067155"><ele>188.0</ele><time>2026-05-01T12:51:21.669Z</time></trkpt><trkpt lat="40.7663967" lon="9.067205"><ele>187.0</ele><time>2026-05-01T12:51:22.669Z</time></trkpt><trkpt lat="40.766255" lon="9.0672783"><ele>187.0</ele><time>2026-05-01T12:51:23.669Z</time></trkpt><trkpt lat="40.76611" lon="9.0673717"><ele>187.0</ele><time>2026-05-01T12:51:24.669Z</time></trkpt><trkpt lat="40.7659833" lon="9.0674633"><ele>187.0</ele><time>2026-05-01T12:51:25.669Z</time></trkpt><trkpt lat="40.7658517" lon="9.0675517"><ele>185.25</ele><time>2026-05-01T12:51:26.669Z</time></trkpt><trkpt lat="40.7657233" lon="9.0676483"><ele>183.5</ele><time>2026-05-01T12:51:27.669Z</time></trkpt><trkpt lat="40.765595" lon="9.0677383"><ele>181.75</ele><time>2026-05-01T12:51:28.669Z</time></trkpt><trkpt lat="40.7654783" lon="9.0678233"><ele>180.0</ele><time>2026-05-01T12:51:29.669Z</time></trkpt><trkpt lat="40.76536" lon="9.0679"><ele>180.0</ele><time>2026-05-01T12:51:30.669Z</time></trkpt><trkpt lat="40.7652467" lon="9.0679667"><ele>180.0</ele><time>2026-05-01T12:51:31.669Z</time></trkpt><trkpt lat="40.765165" lon="9.06801"><ele>180.0</ele><time>2026-05-01T12:51:32.669Z</time></trkpt><trkpt lat="40.765065" lon="9.0680733"><ele>180.0</ele><time>2026-05-01T12:51:33.669Z</time></trkpt><trkpt lat="40.764965" lon="9.0681333"><ele>180.0</ele><time>2026-05-01T12:51:34.669Z</time></trkpt><trkpt lat="40.76486" lon="9.0681583"><ele>179.8</ele><time>2026-05-01T12:51:35.67Z</time></trkpt><trkpt lat="40.7647933" lon="9.0681833"><ele>179.6</ele><time>2026-05-01T12:51:36.669Z</time></trkpt><trkpt lat="40.7647167" lon="9.0682217"><ele>179.39999999999998</ele><time>2026-05-01T12:51:38.669Z</time></trkpt><trkpt lat="40.7648433" lon="9.0683083"><ele>179.2</ele><time>2026-05-01T12:52:24.668Z</time></trkpt><trkpt lat="40.7648717" lon="9.0684317"><ele>179.0</ele><time>2026-05-01T12:52:39.668Z</time></trkpt><trkpt lat="40.7649183" lon="9.0685333"><ele>179.2</ele><time>2026-05-01T12:52:40.668Z</time></trkpt><trkpt lat="40.7649767" lon="9.0686433"><ele>179.39999999999998</ele><time>2026-05-01T12:52:41.668Z</time></trkpt><trkpt lat="40.7650283" lon="9.06875"><ele>179.6</ele><time>2026-05-01T12:52:42.668Z</time></trkpt><trkpt lat="40.765105" lon="9.0688767"><ele>179.8</ele><time>2026-05-01T12:52:43.669Z</time></trkpt><trkpt lat="40.765185" lon="9.0689967"><ele>180.0</ele><time>2026-05-01T12:52:44.668Z</time></trkpt><trkpt lat="40.7652567" lon="9.0691167"><ele>180.0</ele><time>2026-05-01T12:52:45.668Z</time></trkpt><trkpt lat="40.765335" lon="9.0692333"><ele>180.0</ele><time>2026-05-01T12:52:46.668Z</time></trkpt><trkpt lat="40.76541" lon="9.0693483"><ele>180.0</ele><time>2026-05-01T12:52:47.668Z</time></trkpt><trkpt lat="40.7654917" lon="9.06946"><ele>180.0</ele><time>2026-05-01T12:52:48.668Z</time></trkpt><trkpt lat="40.7655867" lon="9.06957"><ele>180.0</ele><time>2026-05-01T12:52:49.668Z</time></trkpt><trkpt lat="40.7656917" lon="9.0696833"><ele>180.0</ele><time>2026-05-01T12:52:50.668Z</time></trkpt><trkpt lat="40.7658017" lon="9.069795"><ele>180.0</ele><time>2026-05-01T12:52:51.668Z</time></trkpt><trkpt lat="40.7659033" lon="9.0698983"><ele>180.0</ele><time>2026-05-01T12:52:52.668Z</time></trkpt><trkpt lat="40.76601" lon="9.0700117"><ele>180.5</ele><time>2026-05-01T12:52:53.668Z</time></trkpt><trkpt lat="40.766125" lon="9.070115"><ele>181.0</ele><time>2026-05-01T12:52:54.668Z</time></trkpt><trkpt lat="40.766235" lon="9.0702083"><ele>181.5</ele><time>2026-05-01T12:52:55.668Z</time></trkpt><trkpt lat="40.7663533" lon="9.07031"><ele>182.0</ele><time>2026-05-01T12:52:56.668Z</time></trkpt><trkpt lat="40.76648" lon="9.0704217"><ele>182.0</ele><time>2026-05-01T12:52:57.668Z</time></trkpt><trkpt lat="40.766595" lon="9.0705217"><ele>182.0</ele><time>2026-05-01T12:52:58.668Z</time></trkpt><trkpt lat="40.7667017" lon="9.0706183"><ele>182.0</ele><time>2026-05-01T12:52:59.668Z</time></trkpt><trkpt lat="40.76681" lon="9.0707217"><ele>182.0</ele><time>2026-05-01T12:53:00.668Z</time></trkpt><trkpt lat="40.7668967" lon="9.07084"><ele>184.25</ele><time>2026-05-01T12:53:01.668Z</time></trkpt><trkpt lat="40.7669683" lon="9.070965"><ele>186.5</ele><time>2026-05-01T12:53:02.668Z</time></trkpt><trkpt lat="40.767055" lon="9.07111"><ele>188.75</ele><time>2026-05-01T12:53:03.668Z</time></trkpt><trkpt lat="40.7671383" lon="9.071265"><ele>191.0</ele><time>2026-05-01T12:53:04.668Z</time></trkpt><trkpt lat="40.767215" lon="9.0714167"><ele>191.0</ele><time>2026-05-01T12:53:05.668Z</time></trkpt><trkpt lat="40.7672917" lon="9.0715583"><ele>191.0</ele><time>2026-05-01T12:53:06.668Z</time></trkpt><trkpt lat="40.7673733" lon="9.0716933"><ele>191.0</ele><time>2026-05-01T12:53:07.668Z</time></trkpt><trkpt lat="40.7674517" lon="9.0718167"><ele>191.0</ele><time>2026-05-01T12:53:08.668Z</time></trkpt><trkpt lat="40.767545" lon="9.0719567"><ele>192.25</ele><time>2026-05-01T12:53:09.668Z</time></trkpt><trkpt lat="40.7676317" lon="9.0720967"><ele>193.5</ele><time>2026-05-01T12:53:10.668Z</time></trkpt><trkpt lat="40.76774" lon="9.072215"><ele>194.75</ele><time>2026-05-01T12:53:11.668Z</time></trkpt><trkpt lat="40.767855" lon="9.07233"><ele>196.0</ele><time>2026-05-01T12:53:12.668Z</time></trkpt><trkpt lat="40.7679733" lon="9.0724383"><ele>193.75</ele><time>2026-05-01T12:53:13.668Z</time></trkpt><trkpt lat="40.7680867" lon="9.0725217"><ele>191.5</ele><time>2026-05-01T12:53:14.668Z</time></trkpt><trkpt lat="40.7681983" lon="9.0726"><ele>189.25</ele><time>2026-05-01T12:53:15.668Z</time></trkpt><trkpt lat="40.7683133" lon="9.0726433"><ele>187.0</ele><time>2026-05-01T12:53:16.668Z</time></trkpt><trkpt lat="40.7684417" lon="9.0726717"><ele>188.5</ele><time>2026-05-01T12:53:17.668Z</time></trkpt><trkpt lat="40.7685717" lon="9.0727"><ele>190.0</ele><time>2026-05-01T12:53:18.668Z</time></trkpt><trkpt lat="40.7687183" lon="9.0727233"><ele>191.5</ele><time>2026-05-01T12:53:19.668Z</time></trkpt><trkpt lat="40.7688333" lon="9.0727617"><ele>193.0</ele><time>2026-05-01T12:53:20.668Z</time></trkpt><trkpt lat="40.768935" lon="9.072755"><ele>193.0</ele><time>2026-05-01T12:53:21.668Z</time></trkpt><trkpt lat="40.76904" lon="9.0727183"><ele>193.0</ele><time>2026-05-01T12:53:22.668Z</time></trkpt><trkpt lat="40.76914" lon="9.07266"><ele>193.0</ele><time>2026-05-01T12:53:23.668Z</time></trkpt><trkpt lat="40.7692467" lon="9.07263"><ele>193.0</ele><time>2026-05-01T12:53:24.668Z</time></trkpt><trkpt lat="40.7693533" lon="9.0726333"><ele>193.0</ele><time>2026-05-01T12:53:25.668Z</time></trkpt><trkpt lat="40.769465" lon="9.0726517"><ele>193.2</ele><time>2026-05-01T12:53:26.668Z</time></trkpt><trkpt lat="40.7695783" lon="9.0726883"><ele>193.4</ele><time>2026-05-01T12:53:27.668Z</time></trkpt><trkpt lat="40.7696767" lon="9.0727317"><ele>193.6</ele><time>2026-05-01T12:53:28.668Z</time></trkpt><trkpt lat="40.76977" lon="9.07278"><ele>193.79999999999998</ele><time>2026-05-01T12:53:29.668Z</time></trkpt><trkpt lat="40.769865" lon="9.0728467"><ele>194.0</ele><time>2026-05-01T12:53:30.668Z</time></trkpt><trkpt lat="40.7699567" lon="9.07292"><ele>194.0</ele><time>2026-05-01T12:53:31.668Z</time></trkpt><trkpt lat="40.7700683" lon="9.0730233"><ele>194.0</ele><time>2026-05-01T12:53:32.668Z</time></trkpt><trkpt lat="40.7701717" lon="9.0731233"><ele>194.0</ele><time>2026-05-01T12:53:33.668Z</time></trkpt><trkpt lat="40.77027" lon="9.0732233"><ele>194.0</ele><time>2026-05-01T12:53:34.668Z</time></trkpt><trkpt lat="40.7703733" lon="9.0733333"><ele>195.5</ele><time>2026-05-01T12:53:35.668Z</time></trkpt><trkpt lat="40.770475" lon="9.0734467"><ele>197.0</ele><time>2026-05-01T12:53:36.668Z</time></trkpt><trkpt lat="40.7705667" lon="9.07356"><ele>198.5</ele><time>2026-05-01T12:53:37.668Z</time></trkpt><trkpt lat="40.77064" lon="9.0736817"><ele>200.0</ele><time>2026-05-01T12:53:38.668Z</time></trkpt><trkpt lat="40.7707033" lon="9.0738183"><ele>200.0</ele><time>2026-05-01T12:53:39.668Z</time></trkpt><trkpt lat="40.7707433" lon="9.0739633"><ele>200.0</ele><time>2026-05-01T12:53:40.668Z</time></trkpt><trkpt lat="40.7707883" lon="9.0741067"><ele>200.0</ele><time>2026-05-01T12:53:41.668Z</time></trkpt><trkpt lat="40.7708217" lon="9.0742417"><ele>200.0</ele><time>2026-05-01T12:53:42.668Z</time></trkpt><trkpt lat="40.7708667" lon="9.07437"><ele>200.0</ele><time>2026-05-01T12:53:43.668Z</time></trkpt><trkpt lat="40.7709117" lon="9.07449"><ele>201.2</ele><time>2026-05-01T12:53:44.668Z</time></trkpt><trkpt lat="40.77096" lon="9.0745883"><ele>202.4</ele><time>2026-05-01T12:53:45.668Z</time></trkpt><trkpt lat="40.7710133" lon="9.0746717"><ele>203.60000000000002</ele><time>2026-05-01T12:53:46.668Z</time></trkpt><trkpt lat="40.7710883" lon="9.074735"><ele>204.8</ele><time>2026-05-01T12:53:47.668Z</time></trkpt><trkpt lat="40.771185" lon="9.0747883"><ele>206.0</ele><time>2026-05-01T12:53:48.668Z</time></trkpt><trkpt lat="40.7712867" lon="9.0748433"><ele>206.20000000000002</ele><time>2026-05-01T12:53:49.669Z</time></trkpt><trkpt lat="40.771395" lon="9.0748833"><ele>206.4</ele><time>2026-05-01T12:53:50.668Z</time></trkpt><trkpt lat="40.7714933" lon="9.0749117"><ele>206.6</ele><time>2026-05-01T12:53:51.668Z</time></trkpt><trkpt lat="40.7715767" lon="9.07494"><ele>206.8</ele><time>2026-05-01T12:53:52.668Z</time></trkpt><trkpt lat="40.7716533" lon="9.0749717"><ele>207.0</ele><time>2026-05-01T12:53:53.668Z</time></trkpt><trkpt lat="40.7717267" lon="9.0750017"><ele>207.0</ele><time>2026-05-01T12:53:54.668Z</time></trkpt><trkpt lat="40.7718017" lon="9.0750417"><ele>207.0</ele><time>2026-05-01T12:53:55.668Z</time></trkpt><trkpt lat="40.77186" lon="9.075085"><ele>207.0</ele><time>2026-05-01T12:53:56.668Z</time></trkpt><trkpt lat="40.7719" lon="9.0751567"><ele>207.0</ele><time>2026-05-01T12:53:57.668Z</time></trkpt><trkpt lat="40.7719183" lon="9.07525"><ele>207.0</ele><time>2026-05-01T12:53:58.668Z</time></trkpt><trkpt lat="40.7719133" lon="9.075375"><ele>207.0</ele><time>2026-05-01T12:53:59.668Z</time></trkpt><trkpt lat="40.77189" lon="9.0755133"><ele>207.75</ele><time>2026-05-01T12:54:00.668Z</time></trkpt><trkpt lat="40.77185" lon="9.0756733"><ele>208.5</ele><time>2026-05-01T12:54:01.668Z</time></trkpt><trkpt lat="40.77178" lon="9.0758533"><ele>209.25</ele><time>2026-05-01T12:54:02.668Z</time></trkpt><trkpt lat="40.771735" lon="9.076005"><ele>210.0</ele><time>2026-05-01T12:54:03.668Z</time></trkpt><trkpt lat="40.7716833" lon="9.07617"><ele>210.5</ele><time>2026-05-01T12:54:04.668Z</time></trkpt><trkpt lat="40.7716333" lon="9.0763433"><ele>211.0</ele><time>2026-05-01T12:54:05.668Z</time></trkpt><trkpt lat="40.7715867" lon="9.0765167"><ele>211.5</ele><time>2026-05-01T12:54:06.668Z</time></trkpt><trkpt lat="40.7715383" lon="9.07669"><ele>212.0</ele><time>2026-05-01T12:54:07.668Z</time></trkpt><trkpt lat="40.7715017" lon="9.0768767"><ele>213.0</ele><time>2026-05-01T12:54:08.668Z</time></trkpt><trkpt lat="40.771465" lon="9.0770517"><ele>214.0</ele><time>2026-05-01T12:54:09.668Z</time></trkpt><trkpt lat="40.7714467" lon="9.0772133"><ele>215.0</ele><time>2026-05-01T12:54:10.668Z</time></trkpt><trkpt lat="40.7714417" lon="9.07737"><ele>216.0</ele><time>2026-05-01T12:54:11.668Z</time></trkpt><trkpt lat="40.7714283" lon="9.077505"><ele>216.4</ele><time>2026-05-01T12:54:12.668Z</time></trkpt><trkpt lat="40.77141" lon="9.0776383"><ele>216.8</ele><time>2026-05-01T12:54:13.668Z</time></trkpt><trkpt lat="40.7713883" lon="9.07777"><ele>217.20000000000002</ele><time>2026-05-01T12:54:14.668Z</time></trkpt><trkpt lat="40.7713633" lon="9.0779167"><ele>217.60000000000002</ele><time>2026-05-01T12:54:15.668Z</time></trkpt><trkpt lat="40.7713483" lon="9.0780583"><ele>218.0</ele><time>2026-05-01T12:54:16.668Z</time></trkpt><trkpt lat="40.77134" lon="9.0782133"><ele>218.25</ele><time>2026-05-01T12:54:17.669Z</time></trkpt><trkpt lat="40.7713417" lon="9.0783683"><ele>218.5</ele><time>2026-05-01T12:54:18.668Z</time></trkpt><trkpt lat="40.7713517" lon="9.0785333"><ele>218.75</ele><time>2026-05-01T12:54:19.668Z</time></trkpt><trkpt lat="40.7713683" lon="9.0786833"><ele>219.0</ele><time>2026-05-01T12:54:20.668Z</time></trkpt><trkpt lat="40.7713967" lon="9.078825"><ele>219.0</ele><time>2026-05-01T12:54:21.668Z</time></trkpt><trkpt lat="40.7714267" lon="9.078955"><ele>218.99999999999997</ele><time>2026-05-01T12:54:22.668Z</time></trkpt><trkpt lat="40.7714417" lon="9.0790767"><ele>218.99999999999997</ele><time>2026-05-01T12:54:23.668Z</time></trkpt><trkpt lat="40.77145" lon="9.0792067"><ele>219.0</ele><time>2026-05-01T12:54:24.668Z</time></trkpt><trkpt lat="40.7714617" lon="9.0793517"><ele>219.0</ele><time>2026-05-01T12:54:25.668Z</time></trkpt><trkpt lat="40.771465" lon="9.0795017"><ele>219.5</ele><time>2026-05-01T12:54:26.668Z</time></trkpt><trkpt lat="40.7714783" lon="9.07966"><ele>220.0</ele><time>2026-05-01T12:54:27.668Z</time></trkpt><trkpt lat="40.77152" lon="9.0798067"><ele>220.5</ele><time>2026-05-01T12:54:28.669Z</time></trkpt><trkpt lat="40.7715283" lon="9.079985"><ele>221.0</ele><time>2026-05-01T12:54:29.668Z</time></trkpt><trkpt lat="40.7715417" lon="9.080145"><ele>221.75</ele><time>2026-05-01T12:54:30.668Z</time></trkpt><trkpt lat="40.771555" lon="9.0803033"><ele>222.5</ele><time>2026-05-01T12:54:31.669Z</time></trkpt><trkpt lat="40.7715583" lon="9.08046"><ele>223.25</ele><time>2026-05-01T12:54:32.668Z</time></trkpt><trkpt lat="40.7715833" lon="9.0806067"><ele>224.0</ele><time>2026-05-01T12:54:33.668Z</time></trkpt><trkpt lat="40.7716067" lon="9.0807567"><ele>225.0</ele><time>2026-05-01T12:54:34.668Z</time></trkpt><trkpt lat="40.771635" lon="9.0809133"><ele>226.0</ele><time>2026-05-01T12:54:35.668Z</time></trkpt><trkpt lat="40.771665" lon="9.0810717"><ele>227.0</ele><time>2026-05-01T12:54:36.668Z</time></trkpt><trkpt lat="40.7717" lon="9.081235"><ele>228.0</ele><time>2026-05-01T12:54:37.668Z</time></trkpt><trkpt lat="40.7717417" lon="9.0813767"><ele>228.0</ele><time>2026-05-01T12:54:38.668Z</time></trkpt><trkpt lat="40.7717917" lon="9.081515"><ele>228.0</ele><time>2026-05-01T12:54:39.668Z</time></trkpt><trkpt lat="40.7718583" lon="9.0816633"><ele>228.0</ele><time>2026-05-01T12:54:40.668Z</time></trkpt><trkpt lat="40.77192" lon="9.081825"><ele>228.0</ele><time>2026-05-01T12:54:41.668Z</time></trkpt><trkpt lat="40.7719817" lon="9.0819867"><ele>229.5</ele><time>2026-05-01T12:54:42.668Z</time></trkpt><trkpt lat="40.7720533" lon="9.082145"><ele>231.0</ele><time>2026-05-01T12:54:43.668Z</time></trkpt><trkpt lat="40.772125" lon="9.0822867"><ele>232.5</ele><time>2026-05-01T12:54:44.668Z</time></trkpt><trkpt lat="40.77218" lon="9.0824217"><ele>234.0</ele><time>2026-05-01T12:54:45.668Z</time></trkpt><trkpt lat="40.772225" lon="9.082545"><ele>234.0</ele><time>2026-05-01T12:54:46.668Z</time></trkpt><trkpt lat="40.7722567" lon="9.0826533"><ele>233.99999999999997</ele><time>2026-05-01T12:54:47.668Z</time></trkpt><trkpt lat="40.77229" lon="9.0827483"><ele>233.99999999999997</ele><time>2026-05-01T12:54:48.668Z</time></trkpt><trkpt lat="40.7723517" lon="9.08289"><ele>234.0</ele><time>2026-05-01T12:54:50.668Z</time></trkpt><trkpt lat="40.7724283" lon="9.0829883"><ele>234.0</ele><time>2026-05-01T12:54:52.668Z</time></trkpt><trkpt lat="40.7724933" lon="9.0830117"><ele>234.0</ele><time>2026-05-01T12:54:54.668Z</time></trkpt><trkpt lat="40.77256" lon="9.0830117"><ele>234.0</ele><time>2026-05-01T12:54:55.668Z</time></trkpt><trkpt lat="40.7726333" lon="9.0829983"><ele>234.0</ele><time>2026-05-01T12:54:56.668Z</time></trkpt><trkpt lat="40.7727133" lon="9.0829633"><ele>234.0</ele><time>2026-05-01T12:54:57.668Z</time></trkpt><trkpt lat="40.772805" lon="9.0829267"><ele>234.0</ele><time>2026-05-01T12:54:58.669Z</time></trkpt><trkpt lat="40.772905" lon="9.08289"><ele>234.0</ele><time>2026-05-01T12:54:59.668Z</time></trkpt><trkpt lat="40.773015" lon="9.0828583"><ele>235.0</ele><time>2026-05-01T12:55:00.668Z</time></trkpt><trkpt lat="40.7731333" lon="9.0828267"><ele>236.0</ele><time>2026-05-01T12:55:01.668Z</time></trkpt><trkpt lat="40.77325" lon="9.0828083"><ele>237.0</ele><time>2026-05-01T12:55:02.668Z</time></trkpt><trkpt lat="40.773375" lon="9.0827917"><ele>238.0</ele><time>2026-05-01T12:55:03.668Z</time></trkpt><trkpt lat="40.7734917" lon="9.082785"><ele>239.75</ele><time>2026-05-01T12:55:04.668Z</time></trkpt><trkpt lat="40.77362" lon="9.0827833"><ele>241.5</ele><time>2026-05-01T12:55:05.668Z</time></trkpt><trkpt lat="40.7737483" lon="9.0827833"><ele>243.25</ele><time>2026-05-01T12:55:06.668Z</time></trkpt><trkpt lat="40.7738783" lon="9.082775"><ele>245.0</ele><time>2026-05-01T12:55:07.668Z</time></trkpt><trkpt lat="40.7740167" lon="9.0828"><ele>245.0</ele><time>2026-05-01T12:55:08.668Z</time></trkpt><trkpt lat="40.7741517" lon="9.0828317"><ele>245.0</ele><time>2026-05-01T12:55:09.668Z</time></trkpt><trkpt lat="40.7742867" lon="9.082885"><ele>245.0</ele><time>2026-05-01T12:55:10.668Z</time></trkpt><trkpt lat="40.77441" lon="9.0829367"><ele>245.0</ele><time>2026-05-01T12:55:11.668Z</time></trkpt><trkpt lat="40.7745367" lon="9.0829983"><ele>246.75</ele><time>2026-05-01T12:55:12.668Z</time></trkpt><trkpt lat="40.7746633" lon="9.08305"><ele>248.5</ele><time>2026-05-01T12:55:13.668Z</time></trkpt><trkpt lat="40.7747933" lon="9.0830967"><ele>250.25</ele><time>2026-05-01T12:55:14.668Z</time></trkpt><trkpt lat="40.7749183" lon="9.0831567"><ele>252.0</ele><time>2026-05-01T12:55:15.668Z</time></trkpt><trkpt lat="40.7750433" lon="9.0832317"><ele>252.5</ele><time>2026-05-01T12:55:16.668Z</time></trkpt><trkpt lat="40.7751733" lon="9.0833283"><ele>253.0</ele><time>2026-05-01T12:55:17.668Z</time></trkpt><trkpt lat="40.7752817" lon="9.0834333"><ele>253.5</ele><time>2026-05-01T12:55:18.668Z</time></trkpt><trkpt lat="40.7753867" lon="9.0835383"><ele>254.0</ele><time>2026-05-01T12:55:19.668Z</time></trkpt><trkpt lat="40.7754833" lon="9.08364"><ele>254.0</ele><time>2026-05-01T12:55:20.668Z</time></trkpt><trkpt lat="40.7755767" lon="9.0837267"><ele>254.0</ele><time>2026-05-01T12:55:21.668Z</time></trkpt><trkpt lat="40.7756733" lon="9.0838117"><ele>254.0</ele><time>2026-05-01T12:55:22.668Z</time></trkpt><trkpt lat="40.7757583" lon="9.0839217"><ele>254.0</ele><time>2026-05-01T12:55:23.668Z</time></trkpt><trkpt lat="40.775855" lon="9.0840183"><ele>254.0</ele><time>2026-05-01T12:55:24.668Z</time></trkpt><trkpt lat="40.7759267" lon="9.08409"><ele>253.99999999999997</ele><time>2026-05-01T12:55:25.668Z</time></trkpt><trkpt lat="40.7760183" lon="9.08416"><ele>253.99999999999997</ele><time>2026-05-01T12:55:27.668Z</time></trkpt><trkpt lat="40.7761367" lon="9.0841833"><ele>254.0</ele><time>2026-05-01T12:55:29.668Z</time></trkpt><trkpt lat="40.7762033" lon="9.0841933"><ele>254.0</ele><time>2026-05-01T12:55:30.668Z</time></trkpt><trkpt lat="40.7762733" lon="9.084175"><ele>254.2</ele><time>2026-05-01T12:55:31.668Z</time></trkpt><trkpt lat="40.7763383" lon="9.08413"><ele>254.39999999999998</ele><time>2026-05-01T12:55:32.668Z</time></trkpt><trkpt lat="40.7764167" lon="9.084105"><ele>254.6</ele><time>2026-05-01T12:55:33.668Z</time></trkpt><trkpt lat="40.776505" lon="9.0840733"><ele>254.8</ele><time>2026-05-01T12:55:34.668Z</time></trkpt><trkpt lat="40.776595" lon="9.0840183"><ele>255.0</ele><time>2026-05-01T12:55:35.668Z</time></trkpt><trkpt lat="40.7766917" lon="9.0839617"><ele>255.0</ele><time>2026-05-01T12:55:36.668Z</time></trkpt><trkpt lat="40.7767783" lon="9.0839133"><ele>255.0</ele><time>2026-05-01T12:55:37.668Z</time></trkpt><trkpt lat="40.77688" lon="9.0838867"><ele>255.0</ele><time>2026-05-01T12:55:38.668Z</time></trkpt><trkpt lat="40.77698" lon="9.0838433"><ele>255.0</ele><time>2026-05-01T12:55:39.668Z</time></trkpt><trkpt lat="40.77707" lon="9.0837683"><ele>255.0</ele><time>2026-05-01T12:55:40.668Z</time></trkpt><trkpt lat="40.7771717" lon="9.0836983"><ele>254.0</ele><time>2026-05-01T12:55:41.668Z</time></trkpt><trkpt lat="40.77725" lon="9.0836233"><ele>253.0</ele><time>2026-05-01T12:55:42.668Z</time></trkpt><trkpt lat="40.7773333" lon="9.0835683"><ele>252.0</ele><time>2026-05-01T12:55:43.668Z</time></trkpt><trkpt lat="40.7774033" lon="9.0835083"><ele>251.0</ele><time>2026-05-01T12:55:44.668Z</time></trkpt><trkpt lat="40.777455" lon="9.0834283"><ele>250.0</ele><time>2026-05-01T12:55:45.668Z</time></trkpt><trkpt lat="40.7775133" lon="9.0833717"><ele>249.0</ele><time>2026-05-01T12:55:46.668Z</time></trkpt><trkpt lat="40.777515" lon="9.0832783"><ele>250.16666666666666</ele><time>2026-05-01T12:55:47.668Z</time></trkpt><trkpt lat="40.777615" lon="9.08325"><ele>251.33333333333331</ele><time>2026-05-01T12:55:49.668Z</time></trkpt><trkpt lat="40.7776817" lon="9.08326"><ele>252.5</ele><time>2026-05-01T12:55:50.668Z</time></trkpt><trkpt lat="40.777745" lon="9.08328"><ele>253.66666666666666</ele><time>2026-05-01T12:55:51.668Z</time></trkpt><trkpt lat="40.7778033" lon="9.083335"><ele>254.83333333333331</ele><time>2026-05-01T12:55:52.669Z</time></trkpt><trkpt lat="40.7778583" lon="9.0834217"><ele>256.0</ele><time>2026-05-01T12:55:54.668Z</time></trkpt><trkpt lat="40.777945" lon="9.0835333"><ele>256.0</ele><time>2026-05-01T12:55:56.668Z</time></trkpt><trkpt lat="40.7779717" lon="9.0836467"><ele>256.0</ele><time>2026-05-01T12:55:57.668Z</time></trkpt><trkpt lat="40.7780083" lon="9.083755"><ele>256.0</ele><time>2026-05-01T12:55:58.668Z</time></trkpt><trkpt lat="40.7780567" lon="9.0839217"><ele>256.0</ele><time>2026-05-01T12:55:59.668Z</time></trkpt><trkpt lat="40.7780867" lon="9.0840367"><ele>256.0</ele><time>2026-05-01T12:56:00.668Z</time></trkpt><trkpt lat="40.7781" lon="9.08417"><ele>256.0</ele><time>2026-05-01T12:56:01.668Z</time></trkpt><trkpt lat="40.7781317" lon="9.0842733"><ele>256.0</ele><time>2026-05-01T12:56:02.668Z</time></trkpt><trkpt lat="40.7781767" lon="9.08437"><ele>256.0</ele><time>2026-05-01T12:56:03.668Z</time></trkpt><trkpt lat="40.7782367" lon="9.0844733"><ele>256.0</ele><time>2026-05-01T12:56:04.668Z</time></trkpt><trkpt lat="40.77831" lon="9.08458"><ele>256.0</ele><time>2026-05-01T12:56:05.668Z</time></trkpt><trkpt lat="40.7783583" lon="9.0846817"><ele>255.99999999999997</ele><time>2026-05-01T12:56:06.668Z</time></trkpt><trkpt lat="40.7784167" lon="9.0848"><ele>256.0</ele><time>2026-05-01T12:56:07.668Z</time></trkpt><trkpt lat="40.778465" lon="9.084895"><ele>256.0</ele><time>2026-05-01T12:56:08.669Z</time></trkpt><trkpt lat="40.77852" lon="9.084995"><ele>256.0</ele><time>2026-05-01T12:56:09.668Z</time></trkpt><trkpt lat="40.7785683" lon="9.0850967"><ele>255.99999999999997</ele><time>2026-05-01T12:56:10.668Z</time></trkpt><trkpt lat="40.7786233" lon="9.0851567"><ele>256.0</ele><time>2026-05-01T12:56:11.668Z</time></trkpt><trkpt lat="40.7786767" lon="9.085225"><ele>256.40000000000003</ele><time>2026-05-01T12:56:12.668Z</time></trkpt><trkpt lat="40.778755" lon="9.0853217"><ele>256.8</ele><time>2026-05-01T12:56:13.668Z</time></trkpt><trkpt lat="40.778825" lon="9.08542"><ele>257.20000000000005</ele><time>2026-05-01T12:56:14.668Z</time></trkpt><trkpt lat="40.7789083" lon="9.0855217"><ele>257.6</ele><time>2026-05-01T12:56:15.668Z</time></trkpt><trkpt lat="40.7789933" lon="9.0856333"><ele>258.0</ele><time>2026-05-01T12:56:16.668Z</time></trkpt><trkpt lat="40.7790783" lon="9.0857467"><ele>257.4</ele><time>2026-05-01T12:56:17.668Z</time></trkpt><trkpt lat="40.7791767" lon="9.0858517"><ele>256.8</ele><time>2026-05-01T12:56:18.669Z</time></trkpt><trkpt lat="40.77926" lon="9.085925"><ele>256.2</ele><time>2026-05-01T12:56:19.668Z</time></trkpt><trkpt lat="40.779335" lon="9.086015"><ele>255.6</ele><time>2026-05-01T12:56:20.668Z</time></trkpt><trkpt lat="40.7793867" lon="9.0861233"><ele>255.0</ele><time>2026-05-01T12:56:21.668Z</time></trkpt><trkpt lat="40.7794367" lon="9.086205"><ele>256.3333333333333</ele><time>2026-05-01T12:56:22.668Z</time></trkpt><trkpt lat="40.779485" lon="9.08627"><ele>257.6666666666667</ele><time>2026-05-01T12:56:23.668Z</time></trkpt><trkpt lat="40.7795367" lon="9.0863217"><ele>259.0</ele><time>2026-05-01T12:56:24.668Z</time></trkpt><trkpt lat="40.779605" lon="9.0863967"><ele>260.33333333333337</ele><time>2026-05-01T12:56:26.668Z</time></trkpt><trkpt lat="40.7796767" lon="9.08645"><ele>261.6666666666667</ele><time>2026-05-01T12:56:29.668Z</time></trkpt><trkpt lat="40.77976" lon="9.0864533"><ele>263.0</ele><time>2026-05-01T12:56:31.668Z</time></trkpt><trkpt lat="40.779815" lon="9.0865067"><ele>262.8</ele><time>2026-05-01T12:56:33.668Z</time></trkpt><trkpt lat="40.7798583" lon="9.0865967"><ele>262.6</ele><time>2026-05-01T12:56:35.668Z</time></trkpt><trkpt lat="40.7799017" lon="9.0867367"><ele>262.4</ele><time>2026-05-01T12:56:37.668Z</time></trkpt><trkpt lat="40.7799267" lon="9.0868133"><ele>262.2</ele><time>2026-05-01T12:56:38.668Z</time></trkpt><trkpt lat="40.779985" lon="9.0869583"><ele>262.0</ele><time>2026-05-01T12:56:40.669Z</time></trkpt><trkpt lat="40.7800167" lon="9.087065"><ele>262.0</ele><time>2026-05-01T12:56:41.668Z</time></trkpt><trkpt lat="40.7800717" lon="9.0872033"><ele>262.0</ele><time>2026-05-01T12:56:42.668Z</time></trkpt><trkpt lat="40.7800967" lon="9.0873633"><ele>262.0</ele><time>2026-05-01T12:56:43.668Z</time></trkpt><trkpt lat="40.780115" lon="9.08753"><ele>262.0</ele><time>2026-05-01T12:56:44.668Z</time></trkpt><trkpt lat="40.7801467" lon="9.0876933"><ele>262.0</ele><time>2026-05-01T12:56:45.668Z</time></trkpt><trkpt lat="40.7801517" lon="9.08789"><ele>262.0</ele><time>2026-05-01T12:56:46.668Z</time></trkpt><trkpt lat="40.7801583" lon="9.08806"><ele>262.0</ele><time>2026-05-01T12:56:47.668Z</time></trkpt><trkpt lat="40.7801817" lon="9.0882033"><ele>262.0</ele><time>2026-05-01T12:56:48.669Z</time></trkpt><trkpt lat="40.7801883" lon="9.088355"><ele>263.2</ele><time>2026-05-01T12:56:49.668Z</time></trkpt><trkpt lat="40.7801967" lon="9.0884883"><ele>264.4</ele><time>2026-05-01T12:56:50.668Z</time></trkpt><trkpt lat="40.780205" lon="9.0886283"><ele>265.6</ele><time>2026-05-01T12:56:51.668Z</time></trkpt><trkpt lat="40.78022" lon="9.0887683"><ele>266.8</ele><time>2026-05-01T12:56:52.668Z</time></trkpt><trkpt lat="40.7802233" lon="9.08892"><ele>268.0</ele><time>2026-05-01T12:56:53.668Z</time></trkpt><trkpt lat="40.780225" lon="9.0890417"><ele>268.5</ele><time>2026-05-01T12:56:54.668Z</time></trkpt><trkpt lat="40.7802217" lon="9.0891467"><ele>269.0</ele><time>2026-05-01T12:56:55.668Z</time></trkpt><trkpt lat="40.7802117" lon="9.089265"><ele>269.5</ele><time>2026-05-01T12:56:56.668Z</time></trkpt><trkpt lat="40.7802117" lon="9.0893633"><ele>270.0</ele><time>2026-05-01T12:56:57.668Z</time></trkpt><trkpt lat="40.7802067" lon="9.0894817"><ele>270.5</ele><time>2026-05-01T12:56:59.668Z</time></trkpt><trkpt lat="40.7801733" lon="9.0895833"><ele>271.0</ele><time>2026-05-01T12:57:01.668Z</time></trkpt><trkpt lat="40.7801667" lon="9.0896717"><ele>271.16666666666663</ele><time>2026-05-01T12:57:05.668Z</time></trkpt><trkpt lat="40.7801567" lon="9.0896867"><ele>271.3333333333333</ele><time>2026-05-01T12:58:24.039Z</time></trkpt><trkpt lat="40.78015" lon="9.0898067"><ele>271.5</ele><time>2026-05-01T12:58:27.039Z</time></trkpt><trkpt lat="40.7801483" lon="9.0899117"><ele>271.6666666666667</ele><time>2026-05-01T12:58:29.039Z</time></trkpt><trkpt lat="40.7801167" lon="9.0901067"><ele>271.83333333333337</ele><time>2026-05-01T12:58:32.039Z</time></trkpt><trkpt lat="40.7800817" lon="9.0902017"><ele>272.0</ele><time>2026-05-01T12:58:34.039Z</time></trkpt><trkpt lat="40.7800367" lon="9.0903117"><ele>272.0</ele><time>2026-05-01T12:58:36.039Z</time></trkpt><trkpt lat="40.7799767" lon="9.09045"><ele>272.0</ele><time>2026-05-01T12:58:38.039Z</time></trkpt><trkpt lat="40.7799083" lon="9.0905517"><ele>272.0</ele><time>2026-05-01T12:58:40.039Z</time></trkpt><trkpt lat="40.7798617" lon="9.0906333"><ele>272.0</ele><time>2026-05-01T12:58:42.039Z</time></trkpt><trkpt lat="40.7798167" lon="9.0906917"><ele>272.0</ele><time>2026-05-01T12:58:44.039Z</time></trkpt><trkpt lat="40.7797617" lon="9.090765"><ele>272.0</ele><time>2026-05-01T12:58:49.039Z</time></trkpt><trkpt lat="40.779695" lon="9.0907783"><ele>272.0</ele><time>2026-05-01T12:59:24.682Z</time></trkpt><trkpt lat="40.77968" lon="9.0905783"><ele>272.0</ele><time>2026-05-01T12:59:33.682Z</time></trkpt><trkpt lat="40.7797" lon="9.0904983"><ele>272.0</ele><time>2026-05-01T12:59:35.682Z</time></trkpt><trkpt lat="40.7797267" lon="9.0904133"><ele>272.0</ele><time>2026-05-01T12:59:37.682Z</time></trkpt><trkpt lat="40.7797533" lon="9.0903283"><ele>272.0</ele><time>2026-05-01T12:59:39.682Z</time></trkpt><trkpt lat="40.7797817" lon="9.09023"><ele>272.0</ele><time>2026-05-01T12:59:41.682Z</time></trkpt><trkpt lat="40.7798233" lon="9.090135"><ele>272.0</ele><time>2026-05-01T12:59:43.682Z</time></trkpt><trkpt lat="40.7798567" lon="9.0900383"><ele>272.0</ele><time>2026-05-01T12:59:45.682Z</time></trkpt><trkpt lat="40.77988" lon="9.0899483"><ele>272.0</ele><time>2026-05-01T12:59:47.682Z</time></trkpt><trkpt lat="40.7798967" lon="9.0898533"><ele>272.0</ele><time>2026-05-01T12:59:49.682Z</time></trkpt><trkpt lat="40.779925" lon="9.0897617"><ele>272.0</ele><time>2026-05-01T12:59:51.682Z</time></trkpt><trkpt lat="40.7799767" lon="9.089655"><ele>272.0</ele><time>2026-05-01T12:59:53.682Z</time></trkpt><trkpt lat="40.780045" lon="9.0895383"><ele>270.6666666666667</ele><time>2026-05-01T12:59:55.682Z</time></trkpt><trkpt lat="40.7800733" lon="9.0894333"><ele>269.33333333333337</ele><time>2026-05-01T12:59:57.682Z</time></trkpt><trkpt lat="40.7800917" lon="9.089345"><ele>268.0</ele><time>2026-05-01T12:59:59.682Z</time></trkpt><trkpt lat="40.7801217" lon="9.0892517"><ele>266.6666666666667</ele><time>2026-05-01T13:00:02.682Z</time></trkpt><trkpt lat="40.7800983" lon="9.0891683"><ele>265.3333333333333</ele><time>2026-05-01T13:00:05.682Z</time></trkpt><trkpt lat="40.7801283" lon="9.089275"><ele>264.0</ele><time>2026-05-01T13:00:13.683Z</time></trkpt><trkpt lat="40.780165" lon="9.0893467"><ele>264.0</ele><time>2026-05-01T13:00:52.682Z</time></trkpt><trkpt lat="40.7801617" lon="9.08948"><ele>264.0</ele><time>2026-05-01T13:00:54.682Z</time></trkpt><trkpt lat="40.78017" lon="9.0896217"><ele>264.0</ele><time>2026-05-01T13:00:56.682Z</time></trkpt><trkpt lat="40.7801933" lon="9.0897617"><ele>264.0</ele><time>2026-05-01T13:00:58.682Z</time></trkpt><trkpt lat="40.7802117" lon="9.089845"><ele>264.0</ele><time>2026-05-01T13:00:59.682Z</time></trkpt><trkpt lat="40.7802317" lon="9.0900083"><ele>265.3333333333333</ele><time>2026-05-01T13:01:01.682Z</time></trkpt><trkpt lat="40.7802167" lon="9.09009"><ele>266.6666666666667</ele><time>2026-05-01T13:01:02.682Z</time></trkpt><trkpt lat="40.7802" lon="9.0901767"><ele>268.0</ele><time>2026-05-01T13:01:03.682Z</time></trkpt><trkpt lat="40.780175" lon="9.09028"><ele>269.33333333333337</ele><time>2026-05-01T13:01:04.682Z</time></trkpt><trkpt lat="40.78018" lon="9.0903667"><ele>270.6666666666667</ele><time>2026-05-01T13:01:05.682Z</time></trkpt><trkpt lat="40.7801967" lon="9.0904717"><ele>272.0</ele><time>2026-05-01T13:01:06.682Z</time></trkpt><trkpt lat="40.780285" lon="9.0905067"><ele>272.5</ele><time>2026-05-01T13:01:07.682Z</time></trkpt><trkpt lat="40.78035" lon="9.0905633"><ele>273.0</ele><time>2026-05-01T13:01:09.682Z</time></trkpt><trkpt lat="40.7804083" lon="9.0906017"><ele>273.5</ele><time>2026-05-01T13:01:12.682Z</time></trkpt><trkpt lat="40.7804767" lon="9.0906533"><ele>274.0</ele><time>2026-05-01T13:01:15.682Z</time></trkpt><trkpt lat="40.7804283" lon="9.0907083"><ele>274.5</ele><time>2026-05-01T13:01:36.682Z</time></trkpt><trkpt lat="40.7804233" lon="9.0907933"><ele>275.0</ele><time>2026-05-01T13:01:38.682Z</time></trkpt><trkpt lat="40.780415" lon="9.09094"><ele>275.1666666666667</ele><time>2026-05-01T13:01:48.682Z</time></trkpt><trkpt lat="40.7803583" lon="9.09101"><ele>275.33333333333337</ele><time>2026-05-01T13:01:54.682Z</time></trkpt><trkpt lat="40.780305" lon="9.091065"><ele>275.5</ele><time>2026-05-01T13:01:57.682Z</time></trkpt><trkpt lat="40.7802317" lon="9.0910733"><ele>275.6666666666667</ele><time>2026-05-01T13:02:01.682Z</time></trkpt><trkpt lat="40.7801583" lon="9.0910617"><ele>275.8333333333333</ele><time>2026-05-01T13:02:04.682Z</time></trkpt><trkpt lat="40.7800767" lon="9.091035"><ele>276.0</ele><time>2026-05-01T13:02:07.682Z</time></trkpt><trkpt lat="40.7799867" lon="9.09101"><ele>276.0</ele><time>2026-05-01T13:02:10.682Z</time></trkpt><trkpt lat="40.7799033" lon="9.09102"><ele>276.0</ele><time>2026-05-01T13:02:14.682Z</time></trkpt><trkpt lat="40.7798333" lon="9.09102"><ele>276.0</ele><time>2026-05-01T13:02:17.682Z</time></trkpt><trkpt lat="40.7797467" lon="9.091015"><ele>276.0</ele><time>2026-05-01T13:02:20.682Z</time></trkpt><trkpt lat="40.7796717" lon="9.091005"><ele>276.0</ele><time>2026-05-01T13:02:23.682Z</time></trkpt><trkpt lat="40.7795883" lon="9.0910117"><ele>276.0</ele><time>2026-05-01T13:02:27.683Z</time></trkpt><trkpt lat="40.7795433" lon="9.0910717"><ele>276.0</ele><time>2026-05-01T13:02:29.682Z</time></trkpt><trkpt lat="40.7794783" lon="9.091155"><ele>276.0</ele><time>2026-05-01T13:02:31.682Z</time></trkpt><trkpt lat="40.7794033" lon="9.0912633"><ele>276.0</ele><time>2026-05-01T13:02:33.682Z</time></trkpt><trkpt lat="40.7793383" lon="9.0913517"><ele>276.0</ele><time>2026-05-01T13:02:35.682Z</time></trkpt><trkpt lat="40.7792967" lon="9.0914267"><ele>276.0</ele><time>2026-05-01T13:02:37.682Z</time></trkpt><trkpt lat="40.779255" lon="9.0915367"><ele>274.3333333333333</ele><time>2026-05-01T13:02:39.682Z</time></trkpt><trkpt lat="40.7791883" lon="9.09164"><ele>272.6666666666667</ele><time>2026-05-01T13:02:41.682Z</time></trkpt><trkpt lat="40.779135" lon="9.0917067"><ele>271.0</ele><time>2026-05-01T13:02:43.682Z</time></trkpt><trkpt lat="40.7790967" lon="9.0918"><ele>269.33333333333337</ele><time>2026-05-01T13:02:45.682Z</time></trkpt><trkpt lat="40.779065" lon="9.091895"><ele>267.6666666666667</ele><time>2026-05-01T13:02:47.682Z</time></trkpt><trkpt lat="40.779025" lon="9.0919967"><ele>266.0</ele><time>2026-05-01T13:02:49.682Z</time></trkpt><trkpt lat="40.77903" lon="9.0920883"><ele>266.0</ele><time>2026-05-01T13:02:51.682Z</time></trkpt><trkpt lat="40.779045" lon="9.0921883"><ele>266.0</ele><time>2026-05-01T13:02:53.682Z</time></trkpt><trkpt lat="40.7790467" lon="9.0923233"><ele>266.0</ele><time>2026-05-01T13:02:55.682Z</time></trkpt><trkpt lat="40.779045" lon="9.0924383"><ele>266.0</ele><time>2026-05-01T13:02:57.683Z</time></trkpt><trkpt lat="40.7790417" lon="9.09255"><ele>266.0</ele><time>2026-05-01T13:02:59.682Z</time></trkpt><trkpt lat="40.77904" lon="9.0926667"><ele>266.0</ele><time>2026-05-01T13:03:01.682Z</time></trkpt><trkpt lat="40.7790133" lon="9.092765"><ele>264.0</ele><time>2026-05-01T13:03:03.682Z</time></trkpt><trkpt lat="40.77898" lon="9.0928683"><ele>262.0</ele><time>2026-05-01T13:03:05.681Z</time></trkpt><trkpt lat="40.7789433" lon="9.0929833"><ele>260.0</ele><time>2026-05-01T13:03:07.681Z</time></trkpt><trkpt lat="40.7789083" lon="9.0930983"><ele>258.0</ele><time>2026-05-01T13:03:09.681Z</time></trkpt><trkpt lat="40.778865" lon="9.0932433"><ele>256.0</ele><time>2026-05-01T13:03:11.681Z</time></trkpt><trkpt lat="40.7788217" lon="9.09339"><ele>255.20000000000002</ele><time>2026-05-01T13:03:13.681Z</time></trkpt><trkpt lat="40.7787917" lon="9.0935283"><ele>254.40000000000003</ele><time>2026-05-01T13:03:15.681Z</time></trkpt><trkpt lat="40.77879" lon="9.0936683"><ele>253.6</ele><time>2026-05-01T13:03:17.681Z</time></trkpt><trkpt lat="40.7788017" lon="9.0938367"><ele>252.8</ele><time>2026-05-01T13:03:19.681Z</time></trkpt><trkpt lat="40.77879" lon="9.0939667"><ele>252.0</ele><time>2026-05-01T13:03:21.681Z</time></trkpt><trkpt lat="40.7787833" lon="9.094095"><ele>251.0</ele><time>2026-05-01T13:03:23.681Z</time></trkpt><trkpt lat="40.7787817" lon="9.0942"><ele>250.0</ele><time>2026-05-01T13:03:25.681Z</time></trkpt><trkpt lat="40.77877" lon="9.0942917"><ele>249.0</ele><time>2026-05-01T13:03:27.681Z</time></trkpt><trkpt lat="40.778755" lon="9.09438"><ele>248.0</ele><time>2026-05-01T13:03:30.681Z</time></trkpt><trkpt lat="40.778695" lon="9.0944433"><ele>247.0</ele><time>2026-05-01T13:03:36.681Z</time></trkpt><trkpt lat="40.7786283" lon="9.0944067"><ele>246.0</ele><time>2026-05-01T13:03:39.681Z</time></trkpt><trkpt lat="40.7785567" lon="9.0944117"><ele>245.0</ele><time>2026-05-01T13:03:42.681Z</time></trkpt><trkpt lat="40.7784967" lon="9.0944383"><ele>244.83333333333334</ele><time>2026-05-01T13:03:44.681Z</time></trkpt><trkpt lat="40.7784283" lon="9.0944367"><ele>244.66666666666669</ele><time>2026-05-01T13:03:46.681Z</time></trkpt><trkpt lat="40.7783583" lon="9.094445"><ele>244.5</ele><time>2026-05-01T13:03:48.681Z</time></trkpt><trkpt lat="40.77829" lon="9.0945033"><ele>244.33333333333331</ele><time>2026-05-01T13:03:51.681Z</time></trkpt><trkpt lat="40.7782433" lon="9.094575"><ele>244.16666666666666</ele><time>2026-05-01T13:03:53.681Z</time></trkpt><trkpt lat="40.7781983" lon="9.09464"><ele>244.0</ele><time>2026-05-01T13:03:55.682Z</time></trkpt><trkpt lat="40.77813" lon="9.094735"><ele>243.99999999999997</ele><time>2026-05-01T13:03:58.681Z</time></trkpt><trkpt lat="40.7780567" lon="9.094805"><ele>244.0</ele><time>2026-05-01T13:04:00.681Z</time></trkpt><trkpt lat="40.7779617" lon="9.0948533"><ele>244.0</ele><time>2026-05-01T13:04:02.681Z</time></trkpt><trkpt lat="40.7778667" lon="9.09491"><ele>244.0</ele><time>2026-05-01T13:04:04.681Z</time></trkpt><trkpt lat="40.7777933" lon="9.0949683"><ele>243.99999999999997</ele><time>2026-05-01T13:04:06.681Z</time></trkpt><trkpt lat="40.7777533" lon="9.095035"><ele>244.0</ele><time>2026-05-01T13:04:08.681Z</time></trkpt><trkpt lat="40.7776917" lon="9.095085"><ele>242.33333333333331</ele><time>2026-05-01T13:04:10.681Z</time></trkpt><trkpt lat="40.7776233" lon="9.0951267"><ele>240.66666666666666</ele><time>2026-05-01T13:04:12.681Z</time></trkpt><trkpt lat="40.7775283" lon="9.0951667"><ele>239.0</ele><time>2026-05-01T13:04:15.682Z</time></trkpt><trkpt lat="40.77747" lon="9.09521"><ele>237.33333333333331</ele><time>2026-05-01T13:04:17.681Z</time></trkpt><trkpt lat="40.7774033" lon="9.0952717"><ele>235.66666666666666</ele><time>2026-05-01T13:04:20.681Z</time></trkpt><trkpt lat="40.7773383" lon="9.0951867"><ele>234.0</ele><time>2026-05-01T13:06:06.681Z</time></trkpt><trkpt lat="40.7773317" lon="9.0953267"><ele>234.0</ele><time>2026-05-01T13:06:59.681Z</time></trkpt><trkpt lat="40.7773667" lon="9.0954217"><ele>234.0</ele><time>2026-05-01T13:07:02.681Z</time></trkpt><trkpt lat="40.777405" lon="9.0955583"><ele>234.0</ele><time>2026-05-01T13:07:04.681Z</time></trkpt><trkpt lat="40.7774317" lon="9.0956383"><ele>234.0</ele><time>2026-05-01T13:07:05.681Z</time></trkpt><trkpt lat="40.7774683" lon="9.0957217"><ele>234.0</ele><time>2026-05-01T13:07:07.681Z</time></trkpt><trkpt lat="40.77752" lon="9.09582"><ele>234.0</ele><time>2026-05-01T13:07:10.681Z</time></trkpt><trkpt lat="40.7775867" lon="9.0959"><ele>233.33333333333334</ele><time>2026-05-01T13:07:13.681Z</time></trkpt><trkpt lat="40.7776217" lon="9.0959833"><ele>232.66666666666669</ele><time>2026-05-01T13:07:15.681Z</time></trkpt><trkpt lat="40.777645" lon="9.0960733"><ele>232.0</ele><time>2026-05-01T13:07:17.681Z</time></trkpt><trkpt lat="40.77764" lon="9.0961617"><ele>231.33333333333334</ele><time>2026-05-01T13:07:20.681Z</time></trkpt><trkpt lat="40.777605" lon="9.0962633"><ele>230.66666666666669</ele><time>2026-05-01T13:07:57.68Z</time></trkpt><trkpt lat="40.7775667" lon="9.0963683"><ele>230.0</ele><time>2026-05-01T13:08:00.68Z</time></trkpt><trkpt lat="40.7775667" lon="9.09647"><ele>230.0</ele><time>2026-05-01T13:08:02.68Z</time></trkpt><trkpt lat="40.7775533" lon="9.09656"><ele>230.0</ele><time>2026-05-01T13:08:05.68Z</time></trkpt><trkpt lat="40.7776333" lon="9.0965717"><ele>230.0</ele><time>2026-05-01T13:08:10.68Z</time></trkpt><trkpt lat="40.7777567" lon="9.0965233"><ele>230.0</ele><time>2026-05-01T13:08:12.68Z</time></trkpt><trkpt lat="40.77785" lon="9.0965017"><ele>230.0</ele><time>2026-05-01T13:08:13.68Z</time></trkpt><trkpt lat="40.7779683" lon="9.0964783"><ele>231.0</ele><time>2026-05-01T13:08:14.68Z</time></trkpt><trkpt lat="40.7780683" lon="9.0964533"><ele>232.0</ele><time>2026-05-01T13:08:15.68Z</time></trkpt><trkpt lat="40.7781517" lon="9.096415"><ele>233.0</ele><time>2026-05-01T13:08:16.68Z</time></trkpt><trkpt lat="40.77824" lon="9.0963717"><ele>234.0</ele><time>2026-05-01T13:08:17.68Z</time></trkpt><trkpt lat="40.77832" lon="9.09633"><ele>235.0</ele><time>2026-05-01T13:08:18.68Z</time></trkpt><trkpt lat="40.7784133" lon="9.0962833"><ele>235.0</ele><time>2026-05-01T13:08:19.68Z</time></trkpt><trkpt lat="40.778515" lon="9.0962217"><ele>235.0</ele><time>2026-05-01T13:08:20.68Z</time></trkpt><trkpt lat="40.7786133" lon="9.0961867"><ele>235.0</ele><time>2026-05-01T13:08:21.68Z</time></trkpt><trkpt lat="40.7787167" lon="9.0961833"><ele>235.0</ele><time>2026-05-01T13:08:22.68Z</time></trkpt><trkpt lat="40.7788233" lon="9.0962067"><ele>235.0</ele><time>2026-05-01T13:08:23.68Z</time></trkpt><trkpt lat="40.77892" lon="9.096245"><ele>234.8</ele><time>2026-05-01T13:08:24.68Z</time></trkpt><trkpt lat="40.7790167" lon="9.0963417"><ele>234.6</ele><time>2026-05-01T13:08:25.68Z</time></trkpt><trkpt lat="40.7790983" lon="9.09642"><ele>234.39999999999998</ele><time>2026-05-01T13:08:26.68Z</time></trkpt><trkpt lat="40.7791817" lon="9.0964883"><ele>234.2</ele><time>2026-05-01T13:08:27.68Z</time></trkpt><trkpt lat="40.779275" lon="9.0965483"><ele>234.0</ele><time>2026-05-01T13:08:28.68Z</time></trkpt><trkpt lat="40.7793683" lon="9.0966067"><ele>236.0</ele><time>2026-05-01T13:08:29.68Z</time></trkpt><trkpt lat="40.7794583" lon="9.09669"><ele>238.0</ele><time>2026-05-01T13:08:30.68Z</time></trkpt><trkpt lat="40.7795417" lon="9.0967883"><ele>240.0</ele><time>2026-05-01T13:08:31.68Z</time></trkpt><trkpt lat="40.779615" lon="9.0969017"><ele>242.0</ele><time>2026-05-01T13:08:32.681Z</time></trkpt><trkpt lat="40.7796883" lon="9.097035"><ele>242.0</ele><time>2026-05-01T13:08:33.68Z</time></trkpt><trkpt lat="40.7797417" lon="9.0971633"><ele>242.0</ele><time>2026-05-01T13:08:34.68Z</time></trkpt><trkpt lat="40.779805" lon="9.0973217"><ele>242.0</ele><time>2026-05-01T13:08:35.68Z</time></trkpt><trkpt lat="40.779855" lon="9.0974783"><ele>242.0</ele><time>2026-05-01T13:08:36.68Z</time></trkpt><trkpt lat="40.779905" lon="9.097625"><ele>242.0</ele><time>2026-05-01T13:08:37.68Z</time></trkpt><trkpt lat="40.7799617" lon="9.0977733"><ele>242.0</ele><time>2026-05-01T13:08:38.68Z</time></trkpt><trkpt lat="40.7800217" lon="9.097915"><ele>242.0</ele><time>2026-05-01T13:08:39.68Z</time></trkpt><trkpt lat="40.78009" lon="9.0980483"><ele>242.0</ele><time>2026-05-01T13:08:40.68Z</time></trkpt><trkpt lat="40.7801633" lon="9.0981633"><ele>242.25</ele><time>2026-05-01T13:08:41.68Z</time></trkpt><trkpt lat="40.7802583" lon="9.098275"><ele>242.5</ele><time>2026-05-01T13:08:42.68Z</time></trkpt><trkpt lat="40.7803817" lon="9.098365"><ele>242.75</ele><time>2026-05-01T13:08:43.68Z</time></trkpt><trkpt lat="40.7805067" lon="9.09846"><ele>243.0</ele><time>2026-05-01T13:08:44.68Z</time></trkpt><trkpt lat="40.7806217" lon="9.0985633"><ele>243.0</ele><time>2026-05-01T13:08:45.68Z</time></trkpt><trkpt lat="40.7807267" lon="9.0986683"><ele>243.0</ele><time>2026-05-01T13:08:46.68Z</time></trkpt><trkpt lat="40.780835" lon="9.0987517"><ele>243.0</ele><time>2026-05-01T13:08:47.68Z</time></trkpt><trkpt lat="40.78095" lon="9.0988283"><ele>243.0</ele><time>2026-05-01T13:08:48.68Z</time></trkpt><trkpt lat="40.7810667" lon="9.0988967"><ele>244.5</ele><time>2026-05-01T13:08:49.681Z</time></trkpt><trkpt lat="40.7811783" lon="9.09898"><ele>246.0</ele><time>2026-05-01T13:08:50.68Z</time></trkpt><trkpt lat="40.7812817" lon="9.0990517"><ele>247.5</ele><time>2026-05-01T13:08:51.68Z</time></trkpt><trkpt lat="40.7813767" lon="9.099155"><ele>249.0</ele><time>2026-05-01T13:08:52.68Z</time></trkpt><trkpt lat="40.7814633" lon="9.09927"><ele>249.25</ele><time>2026-05-01T13:08:53.68Z</time></trkpt><trkpt lat="40.7815367" lon="9.09941"><ele>249.5</ele><time>2026-05-01T13:08:54.68Z</time></trkpt><trkpt lat="40.7815633" lon="9.0995767"><ele>249.75</ele><time>2026-05-01T13:08:55.68Z</time></trkpt><trkpt lat="40.7815817" lon="9.0997383"><ele>250.0</ele><time>2026-05-01T13:08:56.68Z</time></trkpt><trkpt lat="40.7815933" lon="9.099885"><ele>250.5</ele><time>2026-05-01T13:08:57.68Z</time></trkpt><trkpt lat="40.7816217" lon="9.100035"><ele>251.0</ele><time>2026-05-01T13:08:58.68Z</time></trkpt><trkpt lat="40.7816467" lon="9.1001767"><ele>251.5</ele><time>2026-05-01T13:08:59.68Z</time></trkpt><trkpt lat="40.7816833" lon="9.100315"><ele>252.0</ele><time>2026-05-01T13:09:00.68Z</time></trkpt><trkpt lat="40.7817383" lon="9.100455"><ele>252.0</ele><time>2026-05-01T13:09:01.68Z</time></trkpt><trkpt lat="40.781805" lon="9.1005967"><ele>252.0</ele><time>2026-05-01T13:09:02.68Z</time></trkpt><trkpt lat="40.78186" lon="9.10074"><ele>252.0</ele><time>2026-05-01T13:09:03.68Z</time></trkpt><trkpt lat="40.7819233" lon="9.10089"><ele>252.0</ele><time>2026-05-01T13:09:04.681Z</time></trkpt><trkpt lat="40.7819867" lon="9.101045"><ele>252.0</ele><time>2026-05-01T13:09:05.68Z</time></trkpt><trkpt lat="40.7820517" lon="9.101205"><ele>252.0</ele><time>2026-05-01T13:09:06.68Z</time></trkpt><trkpt lat="40.7821183" lon="9.1013483"><ele>252.0</ele><time>2026-05-01T13:09:07.68Z</time></trkpt><trkpt lat="40.7822" lon="9.1014717"><ele>252.0</ele><time>2026-05-01T13:09:08.68Z</time></trkpt><trkpt lat="40.7822767" lon="9.10159"><ele>250.5</ele><time>2026-05-01T13:09:09.68Z</time></trkpt><trkpt lat="40.782335" lon="9.101715"><ele>249.0</ele><time>2026-05-01T13:09:10.68Z</time></trkpt><trkpt lat="40.7823733" lon="9.1018617"><ele>247.5</ele><time>2026-05-01T13:09:11.68Z</time></trkpt><trkpt lat="40.7824167" lon="9.1020117"><ele>246.0</ele><time>2026-05-01T13:09:12.68Z</time></trkpt><trkpt lat="40.7824367" lon="9.1021783"><ele>246.0</ele><time>2026-05-01T13:09:13.68Z</time></trkpt><trkpt lat="40.7823333" lon="9.1023217"><ele>246.0</ele><time>2026-05-01T13:09:14.68Z</time></trkpt><trkpt lat="40.7823333" lon="9.102515"><ele>246.0</ele><time>2026-05-01T13:09:15.68Z</time></trkpt><trkpt lat="40.7823167" lon="9.1027233"><ele>243.0</ele><time>2026-05-01T13:09:16.68Z</time></trkpt><trkpt lat="40.782325" lon="9.1029383"><ele>240.0</ele><time>2026-05-01T13:09:17.68Z</time></trkpt><trkpt lat="40.7823017" lon="9.10312"><ele>237.0</ele><time>2026-05-01T13:09:18.68Z</time></trkpt><trkpt lat="40.782275" lon="9.103315"><ele>237.0</ele><time>2026-05-01T13:09:19.68Z</time></trkpt><trkpt lat="40.7822233" lon="9.1034933"><ele>237.0</ele><time>2026-05-01T13:09:20.68Z</time></trkpt><trkpt lat="40.782205" lon="9.1036717"><ele>237.0</ele><time>2026-05-01T13:09:21.68Z</time></trkpt><trkpt lat="40.782175" lon="9.1038433"><ele>237.0</ele><time>2026-05-01T13:09:22.68Z</time></trkpt><trkpt lat="40.7821433" lon="9.1040033"><ele>237.25</ele><time>2026-05-01T13:09:23.68Z</time></trkpt><trkpt lat="40.7820983" lon="9.104145"><ele>237.5</ele><time>2026-05-01T13:09:24.68Z</time></trkpt><trkpt lat="40.7820383" lon="9.10428"><ele>237.75</ele><time>2026-05-01T13:09:25.68Z</time></trkpt><trkpt lat="40.7819617" lon="9.1044033"><ele>238.0</ele><time>2026-05-01T13:09:26.68Z</time></trkpt><trkpt lat="40.78185" lon="9.104495"><ele>238.0</ele><time>2026-05-01T13:09:27.68Z</time></trkpt><trkpt lat="40.781765" lon="9.1045967"><ele>238.0</ele><time>2026-05-01T13:09:28.68Z</time></trkpt><trkpt lat="40.781705" lon="9.1047217"><ele>238.0</ele><time>2026-05-01T13:09:29.681Z</time></trkpt><trkpt lat="40.7816433" lon="9.1048417"><ele>238.0</ele><time>2026-05-01T13:09:30.68Z</time></trkpt><trkpt lat="40.7816283" lon="9.1049833"><ele>238.0</ele><time>2026-05-01T13:09:31.68Z</time></trkpt><trkpt lat="40.7816217" lon="9.105145"><ele>238.0</ele><time>2026-05-01T13:09:32.68Z</time></trkpt><trkpt lat="40.7816" lon="9.10531"><ele>238.0</ele><time>2026-05-01T13:09:33.68Z</time></trkpt><trkpt lat="40.781585" lon="9.10552"><ele>238.0</ele><time>2026-05-01T13:09:34.68Z</time></trkpt><trkpt lat="40.7815667" lon="9.1057067"><ele>238.0</ele><time>2026-05-01T13:09:35.68Z</time></trkpt><trkpt lat="40.7815517" lon="9.10589"><ele>237.0</ele><time>2026-05-01T13:09:36.68Z</time></trkpt><trkpt lat="40.7815317" lon="9.1060633"><ele>236.0</ele><time>2026-05-01T13:09:37.68Z</time></trkpt><trkpt lat="40.781495" lon="9.1062433"><ele>235.0</ele><time>2026-05-01T13:09:38.68Z</time></trkpt><trkpt lat="40.7814483" lon="9.106425"><ele>234.0</ele><time>2026-05-01T13:09:39.68Z</time></trkpt><trkpt lat="40.7814167" lon="9.1066167"><ele>233.5</ele><time>2026-05-01T13:09:40.68Z</time></trkpt><trkpt lat="40.7813967" lon="9.1068083"><ele>233.0</ele><time>2026-05-01T13:09:41.68Z</time></trkpt><trkpt lat="40.781375" lon="9.1069983"><ele>232.5</ele><time>2026-05-01T13:09:42.68Z</time></trkpt><trkpt lat="40.78135" lon="9.10718"><ele>232.0</ele><time>2026-05-01T13:09:43.68Z</time></trkpt><trkpt lat="40.7813267" lon="9.1073283"><ele>232.2</ele><time>2026-05-01T13:09:44.68Z</time></trkpt><trkpt lat="40.7812967" lon="9.1074533"><ele>232.39999999999998</ele><time>2026-05-01T13:09:45.68Z</time></trkpt><trkpt lat="40.78126" lon="9.107585"><ele>232.60000000000002</ele><time>2026-05-01T13:09:46.68Z</time></trkpt><trkpt lat="40.7811983" lon="9.1077133"><ele>232.8</ele><time>2026-05-01T13:09:47.681Z</time></trkpt><trkpt lat="40.7811133" lon="9.1078233"><ele>233.0</ele><time>2026-05-01T13:09:48.68Z</time></trkpt><trkpt lat="40.7810267" lon="9.1079517"><ele>232.5</ele><time>2026-05-01T13:09:49.68Z</time></trkpt><trkpt lat="40.78094" lon="9.10809"><ele>232.0</ele><time>2026-05-01T13:09:50.68Z</time></trkpt><trkpt lat="40.780825" lon="9.1082167"><ele>231.5</ele><time>2026-05-01T13:09:51.68Z</time></trkpt><trkpt lat="40.78072" lon="9.108365"><ele>231.0</ele><time>2026-05-01T13:09:52.68Z</time></trkpt><trkpt lat="40.7806133" lon="9.1084817"><ele>231.0</ele><time>2026-05-01T13:09:53.68Z</time></trkpt><trkpt lat="40.780515" lon="9.1086117"><ele>231.0</ele><time>2026-05-01T13:09:54.68Z</time></trkpt><trkpt lat="40.78043" lon="9.1087617"><ele>231.0</ele><time>2026-05-01T13:09:55.68Z</time></trkpt><trkpt lat="40.7803467" lon="9.1088967"><ele>231.0</ele><time>2026-05-01T13:09:56.68Z</time></trkpt><trkpt lat="40.780275" lon="9.1090517"><ele>230.75</ele><time>2026-05-01T13:09:57.68Z</time></trkpt><trkpt lat="40.7801967" lon="9.10921"><ele>230.5</ele><time>2026-05-01T13:09:58.68Z</time></trkpt><trkpt lat="40.780125" lon="9.1093767"><ele>230.25</ele><time>2026-05-01T13:09:59.68Z</time></trkpt><trkpt lat="40.7800733" lon="9.109565"><ele>230.0</ele><time>2026-05-01T13:10:00.68Z</time></trkpt><trkpt lat="40.7800383" lon="9.1097733"><ele>230.0</ele><time>2026-05-01T13:10:01.68Z</time></trkpt><trkpt lat="40.7799933" lon="9.10997"><ele>230.0</ele><time>2026-05-01T13:10:02.68Z</time></trkpt><trkpt lat="40.7799617" lon="9.1101767"><ele>230.0</ele><time>2026-05-01T13:10:03.68Z</time></trkpt><trkpt lat="40.7799483" lon="9.1103683"><ele>230.0</ele><time>2026-05-01T13:10:04.68Z</time></trkpt><trkpt lat="40.7799317" lon="9.11055"><ele>230.0</ele><time>2026-05-01T13:10:05.68Z</time></trkpt><trkpt lat="40.779935" lon="9.110745"><ele>230.0</ele><time>2026-05-01T13:10:06.68Z</time></trkpt><trkpt lat="40.779955" lon="9.1109183"><ele>230.0</ele><time>2026-05-01T13:10:07.68Z</time></trkpt><trkpt lat="40.779975" lon="9.11111"><ele>229.75</ele><time>2026-05-01T13:10:08.68Z</time></trkpt><trkpt lat="40.78" lon="9.1112917"><ele>229.5</ele><time>2026-05-01T13:10:09.68Z</time></trkpt><trkpt lat="40.7800133" lon="9.1114683"><ele>229.25</ele><time>2026-05-01T13:10:10.68Z</time></trkpt><trkpt lat="40.7800217" lon="9.11164"><ele>229.0</ele><time>2026-05-01T13:10:11.68Z</time></trkpt><trkpt lat="40.7800567" lon="9.1118167"><ele>228.25</ele><time>2026-05-01T13:10:12.68Z</time></trkpt><trkpt lat="40.7801" lon="9.1119983"><ele>227.5</ele><time>2026-05-01T13:10:13.68Z</time></trkpt><trkpt lat="40.7801383" lon="9.1121733"><ele>226.75</ele><time>2026-05-01T13:10:14.68Z</time></trkpt><trkpt lat="40.7801967" lon="9.1123567"><ele>226.0</ele><time>2026-05-01T13:10:15.68Z</time></trkpt><trkpt lat="40.780235" lon="9.1125283"><ele>229.0</ele><time>2026-05-01T13:10:16.68Z</time></trkpt><trkpt lat="40.7802867" lon="9.112715"><ele>232.0</ele><time>2026-05-01T13:10:17.68Z</time></trkpt><trkpt lat="40.7803767" lon="9.112915"><ele>235.0</ele><time>2026-05-01T13:10:18.68Z</time></trkpt><trkpt lat="40.7804317" lon="9.113105"><ele>234.0</ele><time>2026-05-01T13:10:19.68Z</time></trkpt><trkpt lat="40.7804817" lon="9.113295"><ele>233.0</ele><time>2026-05-01T13:10:20.68Z</time></trkpt><trkpt lat="40.780555" lon="9.1134867"><ele>232.0</ele><time>2026-05-01T13:10:21.68Z</time></trkpt><trkpt lat="40.78064" lon="9.113695"><ele>232.0</ele><time>2026-05-01T13:10:22.68Z</time></trkpt><trkpt lat="40.7807133" lon="9.11389"><ele>232.0</ele><time>2026-05-01T13:10:23.68Z</time></trkpt><trkpt lat="40.7807617" lon="9.1140767"><ele>232.0</ele><time>2026-05-01T13:10:24.68Z</time></trkpt><trkpt lat="40.7808067" lon="9.1142583"><ele>231.25</ele><time>2026-05-01T13:10:25.68Z</time></trkpt><trkpt lat="40.780845" lon="9.1144467"><ele>230.5</ele><time>2026-05-01T13:10:26.68Z</time></trkpt><trkpt lat="40.7808817" lon="9.1146217"><ele>229.75</ele><time>2026-05-01T13:10:27.68Z</time></trkpt><trkpt lat="40.7809117" lon="9.1147917"><ele>229.0</ele><time>2026-05-01T13:10:28.68Z</time></trkpt><trkpt lat="40.7809717" lon="9.11498"><ele>230.33333333333331</ele><time>2026-05-01T13:10:29.68Z</time></trkpt><trkpt lat="40.7810217" lon="9.1151733"><ele>231.66666666666669</ele><time>2026-05-01T13:10:30.68Z</time></trkpt><trkpt lat="40.7810683" lon="9.11536"><ele>233.0</ele><time>2026-05-01T13:10:31.68Z</time></trkpt><trkpt lat="40.7811133" lon="9.1155517"><ele>232.5</ele><time>2026-05-01T13:10:32.68Z</time></trkpt><trkpt lat="40.7811733" lon="9.11575"><ele>232.0</ele><time>2026-05-01T13:10:33.68Z</time></trkpt><trkpt lat="40.7812167" lon="9.115905"><ele>231.5</ele><time>2026-05-01T13:10:34.68Z</time></trkpt><trkpt lat="40.7812467" lon="9.1160433"><ele>231.0</ele><time>2026-05-01T13:10:35.68Z</time></trkpt><trkpt lat="40.7812717" lon="9.1161433"><ele>231.0</ele><time>2026-05-01T13:10:36.68Z</time></trkpt><trkpt lat="40.78129" lon="9.1160517"><ele>231.0</ele><time>2026-05-01T13:10:38.68Z</time></trkpt><trkpt lat="40.781395" lon="9.1160317"><ele>231.0</ele><time>2026-05-01T13:10:40.68Z</time></trkpt><trkpt lat="40.7814683" lon="9.116015"><ele>231.0</ele><time>2026-05-01T13:10:41.68Z</time></trkpt><trkpt lat="40.7815467" lon="9.1160233"><ele>231.0</ele><time>2026-05-01T13:10:42.68Z</time></trkpt><trkpt lat="40.7816133" lon="9.116055"><ele>231.0</ele><time>2026-05-01T13:10:43.68Z</time></trkpt><trkpt lat="40.7816833" lon="9.1161"><ele>231.0</ele><time>2026-05-01T13:10:44.68Z</time></trkpt><trkpt lat="40.7817583" lon="9.1161683"><ele>231.00000000000003</ele><time>2026-05-01T13:10:45.68Z</time></trkpt><trkpt lat="40.78184" lon="9.116245"><ele>231.00000000000003</ele><time>2026-05-01T13:10:46.68Z</time></trkpt><trkpt lat="40.7819367" lon="9.1163317"><ele>231.0</ele><time>2026-05-01T13:10:47.68Z</time></trkpt><trkpt lat="40.7820417" lon="9.116415"><ele>231.0</ele><time>2026-05-01T13:10:48.68Z</time></trkpt><trkpt lat="40.782145" lon="9.1164783"><ele>231.5</ele><time>2026-05-01T13:10:49.68Z</time></trkpt><trkpt lat="40.78226" lon="9.11653"><ele>232.0</ele><time>2026-05-01T13:10:50.68Z</time></trkpt><trkpt lat="40.78237" lon="9.116585"><ele>232.5</ele><time>2026-05-01T13:10:51.68Z</time></trkpt><trkpt lat="40.782485" lon="9.1166383"><ele>233.0</ele><time>2026-05-01T13:10:52.68Z</time></trkpt><trkpt lat="40.7826033" lon="9.1166983"><ele>234.5</ele><time>2026-05-01T13:10:53.68Z</time></trkpt><trkpt lat="40.7827267" lon="9.1167767"><ele>236.0</ele><time>2026-05-01T13:10:54.68Z</time></trkpt><trkpt lat="40.7828633" lon="9.1168683"><ele>237.5</ele><time>2026-05-01T13:10:55.68Z</time></trkpt><trkpt lat="40.7829883" lon="9.11694"><ele>239.0</ele><time>2026-05-01T13:10:56.68Z</time></trkpt><trkpt lat="40.783115" lon="9.11704"><ele>239.0</ele><time>2026-05-01T13:10:57.68Z</time></trkpt><trkpt lat="40.78324" lon="9.1171417"><ele>239.0</ele><time>2026-05-01T13:10:58.68Z</time></trkpt><trkpt lat="40.7833583" lon="9.117245"><ele>239.0</ele><time>2026-05-01T13:10:59.681Z</time></trkpt><trkpt lat="40.7834717" lon="9.1173333"><ele>239.0</ele><time>2026-05-01T13:11:00.68Z</time></trkpt><trkpt lat="40.7835767" lon="9.11741"><ele>239.5</ele><time>2026-05-01T13:11:01.68Z</time></trkpt><trkpt lat="40.783685" lon="9.11748"><ele>240.0</ele><time>2026-05-01T13:11:02.68Z</time></trkpt><trkpt lat="40.783805" lon="9.1175383"><ele>240.5</ele><time>2026-05-01T13:11:03.68Z</time></trkpt><trkpt lat="40.78393" lon="9.1175967"><ele>241.0</ele><time>2026-05-01T13:11:04.68Z</time></trkpt><trkpt lat="40.784075" lon="9.1176783"><ele>241.0</ele><time>2026-05-01T13:11:05.68Z</time></trkpt><trkpt lat="40.7841917" lon="9.117765"><ele>241.0</ele><time>2026-05-01T13:11:06.68Z</time></trkpt><trkpt lat="40.7842967" lon="9.1178567"><ele>241.0</ele><time>2026-05-01T13:11:07.68Z</time></trkpt><trkpt lat="40.7843933" lon="9.117965"><ele>241.0</ele><time>2026-05-01T13:11:08.68Z</time></trkpt><trkpt lat="40.7844933" lon="9.1180533"><ele>242.25</ele><time>2026-05-01T13:11:09.68Z</time></trkpt><trkpt lat="40.7846017" lon="9.1181367"><ele>243.5</ele><time>2026-05-01T13:11:10.68Z</time></trkpt><trkpt lat="40.7847217" lon="9.118205"><ele>244.75</ele><time>2026-05-01T13:11:11.68Z</time></trkpt><trkpt lat="40.7848367" lon="9.11825"><ele>246.0</ele><time>2026-05-01T13:11:12.68Z</time></trkpt><trkpt lat="40.7849583" lon="9.1182883"><ele>246.0</ele><time>2026-05-01T13:11:13.68Z</time></trkpt><trkpt lat="40.785075" lon="9.1183017"><ele>246.00000000000003</ele><time>2026-05-01T13:11:14.68Z</time></trkpt><trkpt lat="40.785185" lon="9.1182783"><ele>246.00000000000003</ele><time>2026-05-01T13:11:15.68Z</time></trkpt><trkpt lat="40.7852833" lon="9.1182317"><ele>246.0</ele><time>2026-05-01T13:11:16.68Z</time></trkpt><trkpt lat="40.7853783" lon="9.1181617"><ele>246.0</ele><time>2026-05-01T13:11:17.68Z</time></trkpt><trkpt lat="40.785475" lon="9.11807"><ele>248.75</ele><time>2026-05-01T13:11:18.68Z</time></trkpt><trkpt lat="40.7855733" lon="9.117985"><ele>251.5</ele><time>2026-05-01T13:11:19.68Z</time></trkpt><trkpt lat="40.7856817" lon="9.1179"><ele>254.25</ele><time>2026-05-01T13:11:20.68Z</time></trkpt><trkpt lat="40.7857733" lon="9.1177967"><ele>257.0</ele><time>2026-05-01T13:11:21.68Z</time></trkpt><trkpt lat="40.78585" lon="9.1177233"><ele>257.0</ele><time>2026-05-01T13:11:22.68Z</time></trkpt><trkpt lat="40.7859417" lon="9.11772"><ele>257.0</ele><time>2026-05-01T13:11:23.68Z</time></trkpt><trkpt lat="40.7860367" lon="9.117725"><ele>257.0</ele><time>2026-05-01T13:11:24.68Z</time></trkpt><trkpt lat="40.7861383" lon="9.1177367"><ele>257.0</ele><time>2026-05-01T13:11:25.68Z</time></trkpt><trkpt lat="40.7862417" lon="9.11776"><ele>257.0</ele><time>2026-05-01T13:11:26.68Z</time></trkpt><trkpt lat="40.7863467" lon="9.1178133"><ele>259.0</ele><time>2026-05-01T13:11:27.68Z</time></trkpt><trkpt lat="40.7864717" lon="9.11791"><ele>261.0</ele><time>2026-05-01T13:11:28.68Z</time></trkpt><trkpt lat="40.7866117" lon="9.1180183"><ele>263.0</ele><time>2026-05-01T13:11:29.68Z</time></trkpt><trkpt lat="40.7867417" lon="9.1181167"><ele>263.75</ele><time>2026-05-01T13:11:30.68Z</time></trkpt><trkpt lat="40.78686" lon="9.11822"><ele>264.5</ele><time>2026-05-01T13:11:31.68Z</time></trkpt><trkpt lat="40.7869683" lon="9.1183233"><ele>265.25</ele><time>2026-05-01T13:11:32.68Z</time></trkpt><trkpt lat="40.7870533" lon="9.1184217"><ele>266.0</ele><time>2026-05-01T13:11:33.68Z</time></trkpt><trkpt lat="40.7871383" lon="9.11852"><ele>266.0</ele><time>2026-05-01T13:11:34.68Z</time></trkpt><trkpt lat="40.78721" lon="9.1186083"><ele>266.0</ele><time>2026-05-01T13:11:35.68Z</time></trkpt><trkpt lat="40.7872833" lon="9.1186783"><ele>266.0</ele><time>2026-05-01T13:11:36.68Z</time></trkpt><trkpt lat="40.7874133" lon="9.118715"><ele>266.0</ele><time>2026-05-01T13:11:38.68Z</time></trkpt><trkpt lat="40.7874983" lon="9.1187033"><ele>266.0</ele><time>2026-05-01T13:11:39.68Z</time></trkpt><trkpt lat="40.78759" lon="9.1186767"><ele>268.6</ele><time>2026-05-01T13:11:40.68Z</time></trkpt><trkpt lat="40.78771" lon="9.11867"><ele>271.20000000000005</ele><time>2026-05-01T13:11:41.68Z</time></trkpt><trkpt lat="40.78782" lon="9.1186383"><ele>273.79999999999995</ele><time>2026-05-01T13:11:42.68Z</time></trkpt><trkpt lat="40.787915" lon="9.1186017"><ele>276.4</ele><time>2026-05-01T13:11:43.68Z</time></trkpt><trkpt lat="40.7879983" lon="9.11856"><ele>279.0</ele><time>2026-05-01T13:11:44.68Z</time></trkpt><trkpt lat="40.788075" lon="9.1185017"><ele>279.0</ele><time>2026-05-01T13:11:45.68Z</time></trkpt><trkpt lat="40.78816" lon="9.1184783"><ele>279.0</ele><time>2026-05-01T13:11:46.68Z</time></trkpt><trkpt lat="40.7883083" lon="9.11843"><ele>279.0</ele><time>2026-05-01T13:11:47.68Z</time></trkpt><trkpt lat="40.7884117" lon="9.1184017"><ele>279.0</ele><time>2026-05-01T13:11:48.68Z</time></trkpt><trkpt lat="40.78851" lon="9.1183717"><ele>279.0</ele><time>2026-05-01T13:11:49.68Z</time></trkpt><trkpt lat="40.7886133" lon="9.1183483"><ele>282.0</ele><time>2026-05-01T13:11:50.68Z</time></trkpt><trkpt lat="40.7887233" lon="9.1183683"><ele>285.0</ele><time>2026-05-01T13:11:51.68Z</time></trkpt><trkpt lat="40.7888567" lon="9.1183967"><ele>288.0</ele><time>2026-05-01T13:11:52.68Z</time></trkpt><trkpt lat="40.78897" lon="9.118425"><ele>291.0</ele><time>2026-05-01T13:11:53.68Z</time></trkpt><trkpt lat="40.7891017" lon="9.118475"><ele>291.0</ele><time>2026-05-01T13:11:54.68Z</time></trkpt><trkpt lat="40.7892517" lon="9.1185117"><ele>291.0</ele><time>2026-05-01T13:11:55.68Z</time></trkpt><trkpt lat="40.7893767" lon="9.1185783"><ele>291.0</ele><time>2026-05-01T13:11:56.68Z</time></trkpt><trkpt lat="40.789535" lon="9.1186883"><ele>293.8</ele><time>2026-05-01T13:11:57.68Z</time></trkpt><trkpt lat="40.7896283" lon="9.1187217"><ele>296.6</ele><time>2026-05-01T13:11:58.68Z</time></trkpt><trkpt lat="40.7897267" lon="9.1187583"><ele>299.4</ele><time>2026-05-01T13:11:59.68Z</time></trkpt><trkpt lat="40.789825" lon="9.11879"><ele>302.2</ele><time>2026-05-01T13:12:00.681Z</time></trkpt><trkpt lat="40.7899183" lon="9.1188417"><ele>305.0</ele><time>2026-05-01T13:12:01.68Z</time></trkpt><trkpt lat="40.7900167" lon="9.1188883"><ele>305.0</ele><time>2026-05-01T13:12:02.68Z</time></trkpt><trkpt lat="40.7901033" lon="9.118935"><ele>305.0</ele><time>2026-05-01T13:12:03.68Z</time></trkpt><trkpt lat="40.7901833" lon="9.1190167"><ele>305.0</ele><time>2026-05-01T13:12:04.681Z</time></trkpt><trkpt lat="40.79027" lon="9.1190933"><ele>305.0</ele><time>2026-05-01T13:12:05.68Z</time></trkpt><trkpt lat="40.790355" lon="9.119135"><ele>305.0</ele><time>2026-05-01T13:12:06.68Z</time></trkpt><trkpt lat="40.7904317" lon="9.11918"><ele>306.8</ele><time>2026-05-01T13:12:07.68Z</time></trkpt><trkpt lat="40.7905067" lon="9.1192083"><ele>308.6</ele><time>2026-05-01T13:12:08.68Z</time></trkpt><trkpt lat="40.7906017" lon="9.1192667"><ele>310.4</ele><time>2026-05-01T13:12:10.68Z</time></trkpt><trkpt lat="40.7907217" lon="9.11938"><ele>312.2</ele><time>2026-05-01T13:12:12.68Z</time></trkpt><trkpt lat="40.7908017" lon="9.11948"><ele>314.0</ele><time>2026-05-01T13:12:13.68Z</time></trkpt><trkpt lat="40.790875" lon="9.1195583"><ele>314.0</ele><time>2026-05-01T13:12:14.68Z</time></trkpt><trkpt lat="40.7909283" lon="9.1196867"><ele>314.0</ele><time>2026-05-01T13:12:15.68Z</time></trkpt><trkpt lat="40.7909533" lon="9.119785"><ele>314.0</ele><time>2026-05-01T13:12:16.68Z</time></trkpt><trkpt lat="40.7909983" lon="9.11989"><ele>314.0</ele><time>2026-05-01T13:12:17.68Z</time></trkpt><trkpt lat="40.7910467" lon="9.1199933"><ele>314.0</ele><time>2026-05-01T13:12:18.68Z</time></trkpt><trkpt lat="40.7911" lon="9.120065"><ele>314.0</ele><time>2026-05-01T13:12:19.68Z</time></trkpt><trkpt lat="40.7911717" lon="9.1201483"><ele>315.5</ele><time>2026-05-01T13:12:20.68Z</time></trkpt><trkpt lat="40.7912183" lon="9.1202267"><ele>317.0</ele><time>2026-05-01T13:12:21.68Z</time></trkpt><trkpt lat="40.7912733" lon="9.12033"><ele>318.5</ele><time>2026-05-01T13:12:22.681Z</time></trkpt><trkpt lat="40.7912867" lon="9.12044"><ele>320.0</ele><time>2026-05-01T13:12:23.68Z</time></trkpt><trkpt lat="40.791315" lon="9.1205417"><ele>321.5</ele><time>2026-05-01T13:12:24.68Z</time></trkpt><trkpt lat="40.7913417" lon="9.1206483"><ele>323.0</ele><time>2026-05-01T13:12:25.68Z</time></trkpt><trkpt lat="40.79135" lon="9.1207683"><ele>323.0</ele><time>2026-05-01T13:12:26.68Z</time></trkpt><trkpt lat="40.7913583" lon="9.1208767"><ele>323.0</ele><time>2026-05-01T13:12:27.68Z</time></trkpt><trkpt lat="40.79135" lon="9.1209967"><ele>323.0</ele><time>2026-05-01T13:12:28.68Z</time></trkpt><trkpt lat="40.7913717" lon="9.12113"><ele>323.0</ele><time>2026-05-01T13:12:29.68Z</time></trkpt><trkpt lat="40.79139" lon="9.12129"><ele>323.0</ele><time>2026-05-01T13:12:30.68Z</time></trkpt><trkpt lat="40.7914117" lon="9.1214717"><ele>323.25</ele><time>2026-05-01T13:12:31.68Z</time></trkpt><trkpt lat="40.791425" lon="9.1216733"><ele>323.5</ele><time>2026-05-01T13:12:32.68Z</time></trkpt><trkpt lat="40.7913967" lon="9.1218517"><ele>323.75</ele><time>2026-05-01T13:12:33.68Z</time></trkpt><trkpt lat="40.7913767" lon="9.1220067"><ele>324.0</ele><time>2026-05-01T13:12:34.68Z</time></trkpt><trkpt lat="40.7913517" lon="9.1221517"><ele>324.0</ele><time>2026-05-01T13:12:35.68Z</time></trkpt><trkpt lat="40.7913283" lon="9.122265"><ele>324.0</ele><time>2026-05-01T13:12:36.68Z</time></trkpt><trkpt lat="40.7913183" lon="9.1223767"><ele>324.0</ele><time>2026-05-01T13:12:37.679Z</time></trkpt><trkpt lat="40.7913267" lon="9.1224767"><ele>324.0</ele><time>2026-05-01T13:12:38.679Z</time></trkpt><trkpt lat="40.7913517" lon="9.1226233"><ele>324.0</ele><time>2026-05-01T13:12:40.679Z</time></trkpt><trkpt lat="40.7914683" lon="9.1226667"><ele>323.5</ele><time>2026-05-01T13:12:42.679Z</time></trkpt><trkpt lat="40.7915333" lon="9.1226783"><ele>323.0</ele><time>2026-05-01T13:12:43.679Z</time></trkpt><trkpt lat="40.791625" lon="9.1226517"><ele>322.5</ele><time>2026-05-01T13:12:44.679Z</time></trkpt><trkpt lat="40.7917" lon="9.1226533"><ele>322.0</ele><time>2026-05-01T13:12:45.679Z</time></trkpt><trkpt lat="40.7917867" lon="9.1226783"><ele>321.5</ele><time>2026-05-01T13:12:46.679Z</time></trkpt><trkpt lat="40.7918683" lon="9.122715"><ele>321.0</ele><time>2026-05-01T13:12:47.679Z</time></trkpt><trkpt lat="40.7919417" lon="9.1227667"><ele>322.0</ele><time>2026-05-01T13:12:48.68Z</time></trkpt><trkpt lat="40.7920167" lon="9.1228333"><ele>323.0</ele><time>2026-05-01T13:12:49.679Z</time></trkpt><trkpt lat="40.7920917" lon="9.1229367"><ele>324.0</ele><time>2026-05-01T13:12:50.679Z</time></trkpt><trkpt lat="40.7921633" lon="9.123045"><ele>325.0</ele><time>2026-05-01T13:12:51.68Z</time></trkpt><trkpt lat="40.7922183" lon="9.1231433"><ele>326.0</ele><time>2026-05-01T13:12:52.679Z</time></trkpt><trkpt lat="40.7922717" lon="9.123255"><ele>326.0</ele><time>2026-05-01T13:12:53.679Z</time></trkpt><trkpt lat="40.7923367" lon="9.1233983"><ele>326.0</ele><time>2026-05-01T13:12:54.679Z</time></trkpt><trkpt lat="40.792405" lon="9.12354"><ele>326.0</ele><time>2026-05-01T13:12:55.679Z</time></trkpt><trkpt lat="40.7924633" lon="9.12368"><ele>326.0</ele><time>2026-05-01T13:12:56.679Z</time></trkpt><trkpt lat="40.7925167" lon="9.1238117"><ele>326.0</ele><time>2026-05-01T13:12:57.679Z</time></trkpt><trkpt lat="40.7925683" lon="9.12395"><ele>326.0</ele><time>2026-05-01T13:12:58.679Z</time></trkpt><trkpt lat="40.7926217" lon="9.1240883"><ele>326.0</ele><time>2026-05-01T13:12:59.68Z</time></trkpt><trkpt lat="40.792675" lon="9.1242117"><ele>326.0</ele><time>2026-05-01T13:13:00.679Z</time></trkpt><trkpt lat="40.79272" lon="9.1243267"><ele>326.0</ele><time>2026-05-01T13:13:01.679Z</time></trkpt><trkpt lat="40.792765" lon="9.124445"><ele>325.83333333333337</ele><time>2026-05-01T13:13:02.679Z</time></trkpt><trkpt lat="40.7928083" lon="9.124555"><ele>325.6666666666667</ele><time>2026-05-01T13:13:03.679Z</time></trkpt><trkpt lat="40.7928433" lon="9.1246617"><ele>325.5</ele><time>2026-05-01T13:13:04.679Z</time></trkpt><trkpt lat="40.79288" lon="9.1247567"><ele>325.3333333333333</ele><time>2026-05-01T13:13:05.679Z</time></trkpt><trkpt lat="40.7929383" lon="9.124835"><ele>325.16666666666663</ele><time>2026-05-01T13:13:06.679Z</time></trkpt><trkpt lat="40.793005" lon="9.124895"><ele>325.0</ele><time>2026-05-01T13:13:07.68Z</time></trkpt><trkpt lat="40.7931217" lon="9.1249383"><ele>325.0</ele><time>2026-05-01T13:13:09.679Z</time></trkpt><trkpt lat="40.79318" lon="9.1249883"><ele>325.0</ele><time>2026-05-01T13:13:10.679Z</time></trkpt><trkpt lat="40.79325" lon="9.12505"><ele>325.0</ele><time>2026-05-01T13:13:11.679Z</time></trkpt><trkpt lat="40.793305" lon="9.1251083"><ele>325.0</ele><time>2026-05-01T13:13:12.679Z</time></trkpt><trkpt lat="40.7933583" lon="9.1251733"><ele>325.0</ele><time>2026-05-01T13:13:13.679Z</time></trkpt><trkpt lat="40.79342" lon="9.12524"><ele>325.0</ele><time>2026-05-01T13:13:14.679Z</time></trkpt><trkpt lat="40.79348" lon="9.125315"><ele>327.16666666666663</ele><time>2026-05-01T13:13:15.679Z</time></trkpt><trkpt lat="40.7935317" lon="9.12539"><ele>329.3333333333333</ele><time>2026-05-01T13:13:16.679Z</time></trkpt><trkpt lat="40.7935883" lon="9.1254667"><ele>331.5</ele><time>2026-05-01T13:13:17.679Z</time></trkpt><trkpt lat="40.7936267" lon="9.1255517"><ele>333.6666666666667</ele><time>2026-05-01T13:13:18.679Z</time></trkpt><trkpt lat="40.7936583" lon="9.125655"><ele>335.83333333333337</ele><time>2026-05-01T13:13:19.679Z</time></trkpt><trkpt lat="40.793685" lon="9.1257683"><ele>338.0</ele><time>2026-05-01T13:13:20.679Z</time></trkpt><trkpt lat="40.793705" lon="9.1259033"><ele>338.0</ele><time>2026-05-01T13:13:21.68Z</time></trkpt><trkpt lat="40.793735" lon="9.1260433"><ele>338.0</ele><time>2026-05-01T13:13:22.679Z</time></trkpt><trkpt lat="40.7937633" lon="9.1261833"><ele>338.0</ele><time>2026-05-01T13:13:23.679Z</time></trkpt><trkpt lat="40.793795" lon="9.1263317"><ele>338.0</ele><time>2026-05-01T13:13:24.679Z</time></trkpt><trkpt lat="40.7938133" lon="9.1265"><ele>336.0</ele><time>2026-05-01T13:13:25.679Z</time></trkpt><trkpt lat="40.7938167" lon="9.12666"><ele>334.0</ele><time>2026-05-01T13:13:26.68Z</time></trkpt><trkpt lat="40.7938183" lon="9.1268233"><ele>332.0</ele><time>2026-05-01T13:13:27.679Z</time></trkpt><trkpt lat="40.7938417" lon="9.1269883"><ele>330.0</ele><time>2026-05-01T13:13:28.679Z</time></trkpt><trkpt lat="40.7938667" lon="9.1271383"><ele>330.0</ele><time>2026-05-01T13:13:29.679Z</time></trkpt><trkpt lat="40.7939067" lon="9.1272833"><ele>330.0</ele><time>2026-05-01T13:13:30.679Z</time></trkpt><trkpt lat="40.793925" lon="9.1274317"><ele>330.0</ele><time>2026-05-01T13:13:31.679Z</time></trkpt><trkpt lat="40.793935" lon="9.1275717"><ele>330.0</ele><time>2026-05-01T13:13:32.679Z</time></trkpt><trkpt lat="40.79396" lon="9.1277"><ele>330.0</ele><time>2026-05-01T13:13:33.679Z</time></trkpt><trkpt lat="40.7939833" lon="9.127825"><ele>328.4</ele><time>2026-05-01T13:13:34.679Z</time></trkpt><trkpt lat="40.7940367" lon="9.1279233"><ele>326.8</ele><time>2026-05-01T13:13:35.679Z</time></trkpt><trkpt lat="40.794085" lon="9.1280483"><ele>325.20000000000005</ele><time>2026-05-01T13:13:36.679Z</time></trkpt><trkpt lat="40.7941183" lon="9.1281717"><ele>323.6</ele><time>2026-05-01T13:13:37.679Z</time></trkpt><trkpt lat="40.794165" lon="9.128285"><ele>322.0</ele><time>2026-05-01T13:13:38.679Z</time></trkpt><trkpt lat="40.7942033" lon="9.1284067"><ele>320.75</ele><time>2026-05-01T13:13:39.679Z</time></trkpt><trkpt lat="40.794275" lon="9.12851"><ele>319.5</ele><time>2026-05-01T13:13:40.679Z</time></trkpt><trkpt lat="40.79434" lon="9.1286367"><ele>318.25</ele><time>2026-05-01T13:13:41.679Z</time></trkpt><trkpt lat="40.7944233" lon="9.12876"><ele>317.0</ele><time>2026-05-01T13:13:42.679Z</time></trkpt><trkpt lat="40.7945217" lon="9.1288817"><ele>317.0</ele><time>2026-05-01T13:13:43.679Z</time></trkpt><trkpt lat="40.794625" lon="9.1289833"><ele>317.0</ele><time>2026-05-01T13:13:44.679Z</time></trkpt><trkpt lat="40.7947283" lon="9.1290767"><ele>317.0</ele><time>2026-05-01T13:13:45.679Z</time></trkpt><trkpt lat="40.794835" lon="9.129145"><ele>317.0</ele><time>2026-05-01T13:13:46.679Z</time></trkpt><trkpt lat="40.7949467" lon="9.12919"><ele>313.75</ele><time>2026-05-01T13:13:47.679Z</time></trkpt><trkpt lat="40.79506" lon="9.129225"><ele>310.5</ele><time>2026-05-01T13:13:48.679Z</time></trkpt><trkpt lat="40.79518" lon="9.1292417"><ele>307.25</ele><time>2026-05-01T13:13:49.679Z</time></trkpt><trkpt lat="40.7952967" lon="9.12927"><ele>304.0</ele><time>2026-05-01T13:13:50.679Z</time></trkpt><trkpt lat="40.7954117" lon="9.1292917"><ele>304.0</ele><time>2026-05-01T13:13:51.679Z</time></trkpt><trkpt lat="40.7955367" lon="9.1293133"><ele>304.0</ele><time>2026-05-01T13:13:52.679Z</time></trkpt><trkpt lat="40.795665" lon="9.1293317"><ele>304.0</ele><time>2026-05-01T13:13:53.679Z</time></trkpt><trkpt lat="40.7957883" lon="9.1293633"><ele>304.0</ele><time>2026-05-01T13:13:54.679Z</time></trkpt><trkpt lat="40.7959167" lon="9.129385"><ele>304.0</ele><time>2026-05-01T13:13:55.679Z</time></trkpt><trkpt lat="40.7960017" lon="9.1294267"><ele>304.0</ele><time>2026-05-01T13:13:56.679Z</time></trkpt><trkpt lat="40.796095" lon="9.1295083"><ele>304.0</ele><time>2026-05-01T13:13:57.679Z</time></trkpt><trkpt lat="40.79618" lon="9.1295833"><ele>304.0</ele><time>2026-05-01T13:13:58.679Z</time></trkpt><trkpt lat="40.796255" lon="9.12967"><ele>304.0</ele><time>2026-05-01T13:13:59.679Z</time></trkpt><trkpt lat="40.7963383" lon="9.1297483"><ele>304.0</ele><time>2026-05-01T13:14:00.68Z</time></trkpt><trkpt lat="40.7964367" lon="9.1298117"><ele>304.0</ele><time>2026-05-01T13:14:01.679Z</time></trkpt><trkpt lat="40.7965417" lon="9.1298283"><ele>304.0</ele><time>2026-05-01T13:14:02.679Z</time></trkpt><trkpt lat="40.7966133" lon="9.1298683"><ele>304.0</ele><time>2026-05-01T13:14:03.679Z</time></trkpt><trkpt lat="40.7966717" lon="9.1299367"><ele>304.0</ele><time>2026-05-01T13:14:04.679Z</time></trkpt><trkpt lat="40.79671" lon="9.1300383"><ele>304.0</ele><time>2026-05-01T13:14:06.679Z</time></trkpt><trkpt lat="40.7967367" lon="9.1301267"><ele>304.0</ele><time>2026-05-01T13:14:07.679Z</time></trkpt><trkpt lat="40.796755" lon="9.130235"><ele>304.0</ele><time>2026-05-01T13:14:08.679Z</time></trkpt><trkpt lat="40.7967917" lon="9.130315"><ele>304.0</ele><time>2026-05-01T13:14:09.679Z</time></trkpt><trkpt lat="40.7967633" lon="9.1304167"><ele>304.0</ele><time>2026-05-01T13:14:10.679Z</time></trkpt><trkpt lat="40.7967533" lon="9.1305267"><ele>304.0</ele><time>2026-05-01T13:14:11.679Z</time></trkpt><trkpt lat="40.7966967" lon="9.1307017"><ele>306.0</ele><time>2026-05-01T13:14:12.679Z</time></trkpt><trkpt lat="40.796595" lon="9.1308917"><ele>308.0</ele><time>2026-05-01T13:14:13.679Z</time></trkpt><trkpt lat="40.79654" lon="9.1310267"><ele>310.0</ele><time>2026-05-01T13:14:14.679Z</time></trkpt><trkpt lat="40.796475" lon="9.13115"><ele>312.0</ele><time>2026-05-01T13:14:15.679Z</time></trkpt><trkpt lat="40.79643" lon="9.13123"><ele>312.0</ele><time>2026-05-01T13:14:16.679Z</time></trkpt><trkpt lat="40.7963933" lon="9.1313217"><ele>312.0</ele><time>2026-05-01T13:14:17.679Z</time></trkpt><trkpt lat="40.79636" lon="9.1314133"><ele>312.0</ele><time>2026-05-01T13:14:18.679Z</time></trkpt><trkpt lat="40.7963683" lon="9.1315033"><ele>312.0</ele><time>2026-05-01T13:14:19.679Z</time></trkpt><trkpt lat="40.7963517" lon="9.1315867"><ele>312.0</ele><time>2026-05-01T13:14:20.679Z</time></trkpt><trkpt lat="40.796435" lon="9.1316667"><ele>312.0</ele><time>2026-05-01T13:14:22.679Z</time></trkpt><trkpt lat="40.7965717" lon="9.1316733"><ele>314.75</ele><time>2026-05-01T13:14:23.679Z</time></trkpt><trkpt lat="40.7967133" lon="9.1316567"><ele>317.5</ele><time>2026-05-01T13:14:24.679Z</time></trkpt><trkpt lat="40.79683" lon="9.1316667"><ele>320.25</ele><time>2026-05-01T13:14:25.679Z</time></trkpt><trkpt lat="40.7969283" lon="9.13169"><ele>323.0</ele><time>2026-05-01T13:14:26.679Z</time></trkpt><trkpt lat="40.7970167" lon="9.1317267"><ele>323.4</ele><time>2026-05-01T13:14:27.679Z</time></trkpt><trkpt lat="40.79711" lon="9.1317883"><ele>323.79999999999995</ele><time>2026-05-01T13:14:28.679Z</time></trkpt><trkpt lat="40.7972" lon="9.13186"><ele>324.2</ele><time>2026-05-01T13:14:29.679Z</time></trkpt><trkpt lat="40.79728" lon="9.13193"><ele>324.6</ele><time>2026-05-01T13:14:30.679Z</time></trkpt><trkpt lat="40.7973417" lon="9.1320117"><ele>325.0</ele><time>2026-05-01T13:14:31.679Z</time></trkpt><trkpt lat="40.797405" lon="9.1321117"><ele>325.0</ele><time>2026-05-01T13:14:32.679Z</time></trkpt><trkpt lat="40.79746" lon="9.1322067"><ele>325.0</ele><time>2026-05-01T13:14:33.679Z</time></trkpt><trkpt lat="40.7975033" lon="9.1323133"><ele>325.0</ele><time>2026-05-01T13:14:34.679Z</time></trkpt><trkpt lat="40.7975583" lon="9.13243"><ele>325.0</ele><time>2026-05-01T13:14:35.679Z</time></trkpt><trkpt lat="40.7976133" lon="9.1325483"><ele>325.0</ele><time>2026-05-01T13:14:36.679Z</time></trkpt><trkpt lat="40.7976483" lon="9.1326717"><ele>328.0</ele><time>2026-05-01T13:14:37.679Z</time></trkpt><trkpt lat="40.7976733" lon="9.1327933"><ele>331.0</ele><time>2026-05-01T13:14:38.679Z</time></trkpt><trkpt lat="40.797685" lon="9.1329067"><ele>334.0</ele><time>2026-05-01T13:14:39.679Z</time></trkpt><trkpt lat="40.7977017" lon="9.1330433"><ele>337.0</ele><time>2026-05-01T13:14:40.68Z</time></trkpt><trkpt lat="40.7977167" lon="9.1331567"><ele>340.0</ele><time>2026-05-01T13:14:41.679Z</time></trkpt><trkpt lat="40.7977567" lon="9.13327"><ele>342.6</ele><time>2026-05-01T13:14:42.679Z</time></trkpt><trkpt lat="40.7977783" lon="9.1333667"><ele>345.2</ele><time>2026-05-01T13:14:43.679Z</time></trkpt><trkpt lat="40.7978417" lon="9.1334783"><ele>347.79999999999995</ele><time>2026-05-01T13:14:44.679Z</time></trkpt><trkpt lat="40.7979383" lon="9.1335733"><ele>350.4</ele><time>2026-05-01T13:14:45.679Z</time></trkpt><trkpt lat="40.7979667" lon="9.1336517"><ele>353.0</ele><time>2026-05-01T13:14:46.679Z</time></trkpt><trkpt lat="40.7980067" lon="9.133755"><ele>353.0</ele><time>2026-05-01T13:14:47.679Z</time></trkpt><trkpt lat="40.7980433" lon="9.1338667"><ele>353.0</ele><time>2026-05-01T13:14:48.679Z</time></trkpt><trkpt lat="40.7980767" lon="9.13398"><ele>353.0</ele><time>2026-05-01T13:14:49.679Z</time></trkpt><trkpt lat="40.798085" lon="9.1340917"><ele>353.0</ele><time>2026-05-01T13:14:50.679Z</time></trkpt><trkpt lat="40.79809" lon="9.1342167"><ele>353.0</ele><time>2026-05-01T13:14:51.679Z</time></trkpt><trkpt lat="40.79812" lon="9.1343383"><ele>355.1666666666667</ele><time>2026-05-01T13:14:52.68Z</time></trkpt><trkpt lat="40.798135" lon="9.1344617"><ele>357.33333333333337</ele><time>2026-05-01T13:14:53.679Z</time></trkpt><trkpt lat="40.7981433" lon="9.1345717"><ele>359.5</ele><time>2026-05-01T13:14:54.679Z</time></trkpt><trkpt lat="40.7981267" lon="9.1346617"><ele>361.6666666666667</ele><time>2026-05-01T13:14:55.679Z</time></trkpt><trkpt lat="40.79809" lon="9.134765"><ele>363.8333333333333</ele><time>2026-05-01T13:14:57.68Z</time></trkpt><trkpt lat="40.7981" lon="9.13485"><ele>366.0</ele><time>2026-05-01T13:14:58.679Z</time></trkpt><trkpt lat="40.797935" lon="9.1349783"><ele>364.5</ele><time>2026-05-01T13:15:00.679Z</time></trkpt><trkpt lat="40.7977983" lon="9.1350617"><ele>363.0</ele><time>2026-05-01T13:15:01.679Z</time></trkpt><trkpt lat="40.797635" lon="9.135085"><ele>361.5</ele><time>2026-05-01T13:15:02.679Z</time></trkpt><trkpt lat="40.7975417" lon="9.135175"><ele>360.0</ele><time>2026-05-01T13:15:03.679Z</time></trkpt><trkpt lat="40.7974683" lon="9.1352733"><ele>360.0</ele><time>2026-05-01T13:15:04.68Z</time></trkpt><trkpt lat="40.7973733" lon="9.1353783"><ele>360.0</ele><time>2026-05-01T13:15:05.679Z</time></trkpt><trkpt lat="40.7972867" lon="9.1355267"><ele>360.0</ele><time>2026-05-01T13:15:06.679Z</time></trkpt><trkpt lat="40.797255" lon="9.135675"><ele>360.0</ele><time>2026-05-01T13:15:07.679Z</time></trkpt><trkpt lat="40.797225" lon="9.135805"><ele>359.4</ele><time>2026-05-01T13:15:08.679Z</time></trkpt><trkpt lat="40.7971817" lon="9.1359233"><ele>358.8</ele><time>2026-05-01T13:15:09.68Z</time></trkpt><trkpt lat="40.7971533" lon="9.136045"><ele>358.20000000000005</ele><time>2026-05-01T13:15:10.679Z</time></trkpt><trkpt lat="40.7970817" lon="9.1361367"><ele>357.6</ele><time>2026-05-01T13:15:11.679Z</time></trkpt><trkpt lat="40.7970433" lon="9.1362617"><ele>357.0</ele><time>2026-05-01T13:15:12.679Z</time></trkpt><trkpt lat="40.7970267" lon="9.1363867"><ele>357.0</ele><time>2026-05-01T13:15:13.679Z</time></trkpt><trkpt lat="40.7970183" lon="9.1365167"><ele>357.0</ele><time>2026-05-01T13:15:14.679Z</time></trkpt><trkpt lat="40.7969817" lon="9.136605"><ele>357.0</ele><time>2026-05-01T13:15:15.679Z</time></trkpt><trkpt lat="40.7969483" lon="9.1367217"><ele>357.0</ele><time>2026-05-01T13:15:16.679Z</time></trkpt><trkpt lat="40.7969417" lon="9.1368533"><ele>357.0</ele><time>2026-05-01T13:15:17.679Z</time></trkpt><trkpt lat="40.7969233" lon="9.1369733"><ele>356.6</ele><time>2026-05-01T13:15:18.679Z</time></trkpt><trkpt lat="40.7968983" lon="9.1370867"><ele>356.20000000000005</ele><time>2026-05-01T13:15:19.68Z</time></trkpt><trkpt lat="40.796855" lon="9.1372033"><ele>355.8</ele><time>2026-05-01T13:15:20.68Z</time></trkpt><trkpt lat="40.79679" lon="9.137305"><ele>355.4</ele><time>2026-05-01T13:15:21.679Z</time></trkpt><trkpt lat="40.7967367" lon="9.1374067"><ele>355.0</ele><time>2026-05-01T13:15:22.679Z</time></trkpt><trkpt lat="40.7966767" lon="9.1375067"><ele>351.0</ele><time>2026-05-01T13:15:23.679Z</time></trkpt><trkpt lat="40.7966367" lon="9.13762"><ele>347.0</ele><time>2026-05-01T13:15:24.679Z</time></trkpt><trkpt lat="40.7965983" lon="9.1377517"><ele>343.0</ele><time>2026-05-01T13:15:25.679Z</time></trkpt><trkpt lat="40.79658" lon="9.1378767"><ele>339.0</ele><time>2026-05-01T13:15:26.679Z</time></trkpt><trkpt lat="40.79658" lon="9.1380233"><ele>335.0</ele><time>2026-05-01T13:15:27.679Z</time></trkpt><trkpt lat="40.7965967" lon="9.1381817"><ele>334.0</ele><time>2026-05-01T13:15:28.679Z</time></trkpt><trkpt lat="40.7966233" lon="9.1383517"><ele>333.0</ele><time>2026-05-01T13:15:29.679Z</time></trkpt><trkpt lat="40.79664" lon="9.1385217"><ele>332.0</ele><time>2026-05-01T13:15:30.679Z</time></trkpt><trkpt lat="40.79665" lon="9.138675"><ele>331.0</ele><time>2026-05-01T13:15:31.679Z</time></trkpt><trkpt lat="40.796655" lon="9.1388067"><ele>331.0</ele><time>2026-05-01T13:15:32.679Z</time></trkpt><trkpt lat="40.796665" lon="9.1389217"><ele>331.0</ele><time>2026-05-01T13:15:33.679Z</time></trkpt><trkpt lat="40.79669" lon="9.1390233"><ele>331.0</ele><time>2026-05-01T13:15:34.679Z</time></trkpt><trkpt lat="40.796725" lon="9.13913"><ele>331.0</ele><time>2026-05-01T13:15:35.679Z</time></trkpt><trkpt lat="40.796755" lon="9.13923"><ele>331.0</ele><time>2026-05-01T13:15:36.679Z</time></trkpt><trkpt lat="40.7967933" lon="9.1393383"><ele>331.0</ele><time>2026-05-01T13:15:37.679Z</time></trkpt><trkpt lat="40.7968167" lon="9.1394533"><ele>330.8</ele><time>2026-05-01T13:15:38.679Z</time></trkpt><trkpt lat="40.7968333" lon="9.13957"><ele>330.6</ele><time>2026-05-01T13:15:39.679Z</time></trkpt><trkpt lat="40.7968417" lon="9.13969"><ele>330.4</ele><time>2026-05-01T13:15:40.679Z</time></trkpt><trkpt lat="40.79681" lon="9.13981"><ele>330.2</ele><time>2026-05-01T13:15:41.679Z</time></trkpt><trkpt lat="40.7967617" lon="9.13991"><ele>330.0</ele><time>2026-05-01T13:15:42.679Z</time></trkpt><trkpt lat="40.7967217" lon="9.1400167"><ele>330.0</ele><time>2026-05-01T13:15:43.679Z</time></trkpt><trkpt lat="40.7966933" lon="9.1401167"><ele>330.0</ele><time>2026-05-01T13:15:44.679Z</time></trkpt><trkpt lat="40.7966633" lon="9.1402117"><ele>330.0</ele><time>2026-05-01T13:15:45.679Z</time></trkpt><trkpt lat="40.7966067" lon="9.1403133"><ele>330.0</ele><time>2026-05-01T13:15:46.679Z</time></trkpt><trkpt lat="40.7965483" lon="9.1404"><ele>330.0</ele><time>2026-05-01T13:15:47.679Z</time></trkpt><trkpt lat="40.7964833" lon="9.1404783"><ele>330.0</ele><time>2026-05-01T13:15:48.679Z</time></trkpt><trkpt lat="40.7963933" lon="9.14052"><ele>330.0</ele><time>2026-05-01T13:15:49.679Z</time></trkpt><trkpt lat="40.79632" lon="9.140555"><ele>330.0</ele><time>2026-05-01T13:15:50.679Z</time></trkpt><trkpt lat="40.7962283" lon="9.1405583"><ele>330.0</ele><time>2026-05-01T13:15:51.679Z</time></trkpt><trkpt lat="40.7961367" lon="9.140565"><ele>330.0</ele><time>2026-05-01T13:15:52.679Z</time></trkpt><trkpt lat="40.796025" lon="9.1405533"><ele>330.0</ele><time>2026-05-01T13:15:53.68Z</time></trkpt><trkpt lat="40.79593" lon="9.1405567"><ele>329.6</ele><time>2026-05-01T13:15:54.679Z</time></trkpt><trkpt lat="40.7958467" lon="9.140585"><ele>329.2</ele><time>2026-05-01T13:15:55.679Z</time></trkpt><trkpt lat="40.7957233" lon="9.1406067"><ele>328.79999999999995</ele><time>2026-05-01T13:15:56.679Z</time></trkpt><trkpt lat="40.795635" lon="9.1406417"><ele>328.4</ele><time>2026-05-01T13:15:57.679Z</time></trkpt><trkpt lat="40.7955667" lon="9.1407067"><ele>328.0</ele><time>2026-05-01T13:15:58.679Z</time></trkpt><trkpt lat="40.795535" lon="9.1408183"><ele>330.4</ele><time>2026-05-01T13:15:59.679Z</time></trkpt><trkpt lat="40.7955033" lon="9.1409217"><ele>332.79999999999995</ele><time>2026-05-01T13:16:00.679Z</time></trkpt><trkpt lat="40.7954683" lon="9.14103"><ele>335.2</ele><time>2026-05-01T13:16:01.679Z</time></trkpt><trkpt lat="40.7954617" lon="9.1411533"><ele>337.6</ele><time>2026-05-01T13:16:02.679Z</time></trkpt><trkpt lat="40.7954367" lon="9.1412717"><ele>340.0</ele><time>2026-05-01T13:16:03.679Z</time></trkpt><trkpt lat="40.7954217" lon="9.141405"><ele>343.25</ele><time>2026-05-01T13:16:04.679Z</time></trkpt><trkpt lat="40.7954233" lon="9.1415733"><ele>346.5</ele><time>2026-05-01T13:16:05.679Z</time></trkpt><trkpt lat="40.7954083" lon="9.1417283"><ele>349.75</ele><time>2026-05-01T13:16:06.679Z</time></trkpt><trkpt lat="40.7953767" lon="9.1419017"><ele>353.0</ele><time>2026-05-01T13:16:07.679Z</time></trkpt><trkpt lat="40.7953617" lon="9.1420683"><ele>353.0</ele><time>2026-05-01T13:16:08.679Z</time></trkpt><trkpt lat="40.7953367" lon="9.1422217"><ele>353.0</ele><time>2026-05-01T13:16:09.679Z</time></trkpt><trkpt lat="40.79531" lon="9.14236"><ele>353.0</ele><time>2026-05-01T13:16:10.679Z</time></trkpt><trkpt lat="40.79529" lon="9.142495"><ele>353.0</ele><time>2026-05-01T13:16:11.679Z</time></trkpt><trkpt lat="40.7952517" lon="9.1426167"><ele>353.0</ele><time>2026-05-01T13:16:12.679Z</time></trkpt><trkpt lat="40.79521" lon="9.1427467"><ele>355.0</ele><time>2026-05-01T13:16:13.679Z</time></trkpt><trkpt lat="40.7951667" lon="9.1428833"><ele>357.0</ele><time>2026-05-01T13:16:14.679Z</time></trkpt><trkpt lat="40.7950867" lon="9.1430067"><ele>359.0</ele><time>2026-05-01T13:16:15.679Z</time></trkpt><trkpt lat="40.795025" lon="9.14313"><ele>361.0</ele><time>2026-05-01T13:16:16.679Z</time></trkpt><trkpt lat="40.79494" lon="9.1432367"><ele>361.0</ele><time>2026-05-01T13:16:17.68Z</time></trkpt><trkpt lat="40.7948617" lon="9.143345"><ele>361.0</ele><time>2026-05-01T13:16:18.68Z</time></trkpt><trkpt lat="40.7947983" lon="9.143455"><ele>361.0</ele><time>2026-05-01T13:16:19.679Z</time></trkpt><trkpt lat="40.79474" lon="9.1435717"><ele>361.0</ele><time>2026-05-01T13:16:20.679Z</time></trkpt><trkpt lat="40.7946817" lon="9.143685"><ele>361.0</ele><time>2026-05-01T13:16:21.679Z</time></trkpt><trkpt lat="40.7946233" lon="9.1437967"><ele>361.0</ele><time>2026-05-01T13:16:22.679Z</time></trkpt><trkpt lat="40.7945667" lon="9.143895"><ele>361.0</ele><time>2026-05-01T13:16:23.679Z</time></trkpt><trkpt lat="40.794495" lon="9.1439967"><ele>361.0</ele><time>2026-05-01T13:16:24.679Z</time></trkpt><trkpt lat="40.7944133" lon="9.1441"><ele>361.0</ele><time>2026-05-01T13:16:25.679Z</time></trkpt><trkpt lat="40.7943283" lon="9.1442067"><ele>361.0</ele><time>2026-05-01T13:16:26.679Z</time></trkpt><trkpt lat="40.79423" lon="9.144315"><ele>355.0</ele><time>2026-05-01T13:16:27.679Z</time></trkpt><trkpt lat="40.794125" lon="9.144415"><ele>349.0</ele><time>2026-05-01T13:16:28.679Z</time></trkpt><trkpt lat="40.79403" lon="9.1445133"><ele>343.0</ele><time>2026-05-01T13:16:29.679Z</time></trkpt><trkpt lat="40.7939333" lon="9.144605"><ele>337.0</ele><time>2026-05-01T13:16:30.679Z</time></trkpt><trkpt lat="40.79385" lon="9.1446917"><ele>337.0</ele><time>2026-05-01T13:16:31.679Z</time></trkpt><trkpt lat="40.79377" lon="9.1447683"><ele>337.0</ele><time>2026-05-01T13:16:32.679Z</time></trkpt><trkpt lat="40.7937017" lon="9.1448233"><ele>337.0</ele><time>2026-05-01T13:16:33.679Z</time></trkpt><trkpt lat="40.7936333" lon="9.1448867"><ele>337.0</ele><time>2026-05-01T13:16:34.679Z</time></trkpt><trkpt lat="40.793565" lon="9.144965"><ele>337.0</ele><time>2026-05-01T13:16:35.679Z</time></trkpt><trkpt lat="40.7935017" lon="9.1450583"><ele>337.0</ele><time>2026-05-01T13:16:36.679Z</time></trkpt><trkpt lat="40.7934633" lon="9.1451767"><ele>334.20000000000005</ele><time>2026-05-01T13:16:37.679Z</time></trkpt><trkpt lat="40.7934217" lon="9.1453017"><ele>331.4</ele><time>2026-05-01T13:16:38.679Z</time></trkpt><trkpt lat="40.79338" lon="9.14543"><ele>328.6</ele><time>2026-05-01T13:16:39.679Z</time></trkpt><trkpt lat="40.7933367" lon="9.1455633"><ele>325.79999999999995</ele><time>2026-05-01T13:16:40.679Z</time></trkpt><trkpt lat="40.7932817" lon="9.1456783"><ele>323.0</ele><time>2026-05-01T13:16:41.679Z</time></trkpt><trkpt lat="40.7932283" lon="9.145785"><ele>322.2</ele><time>2026-05-01T13:16:42.679Z</time></trkpt><trkpt lat="40.7931667" lon="9.1458717"><ele>321.4</ele><time>2026-05-01T13:16:43.679Z</time></trkpt><trkpt lat="40.7931183" lon="9.1459683"><ele>320.59999999999997</ele><time>2026-05-01T13:16:44.679Z</time></trkpt><trkpt lat="40.7930433" lon="9.1460833"><ele>319.79999999999995</ele><time>2026-05-01T13:16:45.679Z</time></trkpt><trkpt lat="40.7930183" lon="9.14621"><ele>319.0</ele><time>2026-05-01T13:16:46.679Z</time></trkpt><trkpt lat="40.7930017" lon="9.14634"><ele>319.0</ele><time>2026-05-01T13:16:47.679Z</time></trkpt><trkpt lat="40.7929217" lon="9.1464633"><ele>319.0</ele><time>2026-05-01T13:16:48.679Z</time></trkpt><trkpt lat="40.7928983" lon="9.1466083"><ele>319.0</ele><time>2026-05-01T13:16:49.679Z</time></trkpt><trkpt lat="40.7928667" lon="9.1467533"><ele>319.0</ele><time>2026-05-01T13:16:50.679Z</time></trkpt><trkpt lat="40.7927933" lon="9.146965"><ele>320.5</ele><time>2026-05-01T13:16:51.679Z</time></trkpt><trkpt lat="40.7927617" lon="9.147125"><ele>322.0</ele><time>2026-05-01T13:16:52.68Z</time></trkpt><trkpt lat="40.79274" lon="9.147285"><ele>323.5</ele><time>2026-05-01T13:16:53.679Z</time></trkpt><trkpt lat="40.7926983" lon="9.14745"><ele>325.0</ele><time>2026-05-01T13:16:54.68Z</time></trkpt><trkpt lat="40.7926833" lon="9.14756"><ele>324.8333333333333</ele><time>2026-05-01T13:16:55.679Z</time></trkpt><trkpt lat="40.7926533" lon="9.1476533"><ele>324.66666666666663</ele><time>2026-05-01T13:16:56.679Z</time></trkpt><trkpt lat="40.7926117" lon="9.1477433"><ele>324.5</ele><time>2026-05-01T13:16:57.679Z</time></trkpt><trkpt lat="40.792555" lon="9.14783"><ele>324.3333333333333</ele><time>2026-05-01T13:16:58.677Z</time></trkpt><trkpt lat="40.792515" lon="9.14791"><ele>324.1666666666667</ele><time>2026-05-01T13:16:59.679Z</time></trkpt><trkpt lat="40.7924833" lon="9.148005"><ele>324.0</ele><time>2026-05-01T13:17:00.679Z</time></trkpt><trkpt lat="40.7924617" lon="9.148115"><ele>328.0</ele><time>2026-05-01T13:17:01.679Z</time></trkpt><trkpt lat="40.7924233" lon="9.1482217"><ele>332.0</ele><time>2026-05-01T13:17:02.679Z</time></trkpt><trkpt lat="40.7923783" lon="9.14832"><ele>336.0</ele><time>2026-05-01T13:17:03.679Z</time></trkpt><trkpt lat="40.7923283" lon="9.1484167"><ele>340.0</ele><time>2026-05-01T13:17:04.679Z</time></trkpt><trkpt lat="40.7922133" lon="9.1484883"><ele>344.0</ele><time>2026-05-01T13:17:05.679Z</time></trkpt><trkpt lat="40.7921533" lon="9.1485817"><ele>344.0</ele><time>2026-05-01T13:17:06.679Z</time></trkpt><trkpt lat="40.792105" lon="9.1486717"><ele>344.0</ele><time>2026-05-01T13:17:07.679Z</time></trkpt><trkpt lat="40.7920367" lon="9.148745"><ele>344.0</ele><time>2026-05-01T13:17:08.679Z</time></trkpt><trkpt lat="40.7919433" lon="9.1488083"><ele>344.0</ele><time>2026-05-01T13:17:09.679Z</time></trkpt><trkpt lat="40.791845" lon="9.1488433"><ele>344.0</ele><time>2026-05-01T13:17:10.679Z</time></trkpt><trkpt lat="40.7917067" lon="9.14886"><ele>342.0</ele><time>2026-05-01T13:17:11.679Z</time></trkpt><trkpt lat="40.7915933" lon="9.1488983"><ele>340.0</ele><time>2026-05-01T13:17:12.679Z</time></trkpt><trkpt lat="40.7914683" lon="9.1489483"><ele>338.0</ele><time>2026-05-01T13:17:13.679Z</time></trkpt><trkpt lat="40.7913583" lon="9.1490167"><ele>336.0</ele><time>2026-05-01T13:17:14.679Z</time></trkpt><trkpt lat="40.791235" lon="9.1490967"><ele>340.0</ele><time>2026-05-01T13:17:15.679Z</time></trkpt><trkpt lat="40.79111" lon="9.14919"><ele>344.0</ele><time>2026-05-01T13:17:16.679Z</time></trkpt><trkpt lat="40.7909967" lon="9.1493017"><ele>348.0</ele><time>2026-05-01T13:17:17.679Z</time></trkpt><trkpt lat="40.7909067" lon="9.1494267"><ele>352.0</ele><time>2026-05-01T13:17:18.679Z</time></trkpt><trkpt lat="40.790825" lon="9.1495417"><ele>352.0</ele><time>2026-05-01T13:17:19.679Z</time></trkpt><trkpt lat="40.7907317" lon="9.1496417"><ele>352.0</ele><time>2026-05-01T13:17:20.679Z</time></trkpt><trkpt lat="40.7906433" lon="9.14974"><ele>352.0</ele><time>2026-05-01T13:17:21.679Z</time></trkpt><trkpt lat="40.7905517" lon="9.1498267"><ele>352.0</ele><time>2026-05-01T13:17:22.679Z</time></trkpt><trkpt lat="40.79047" lon="9.1499167"><ele>354.20000000000005</ele><time>2026-05-01T13:17:23.679Z</time></trkpt><trkpt lat="40.7903867" lon="9.1499783"><ele>356.4</ele><time>2026-05-01T13:17:24.679Z</time></trkpt><trkpt lat="40.7902967" lon="9.1500567"><ele>358.6</ele><time>2026-05-01T13:17:25.68Z</time></trkpt><trkpt lat="40.7901983" lon="9.1501283"><ele>360.79999999999995</ele><time>2026-05-01T13:17:26.679Z</time></trkpt><trkpt lat="40.7901" lon="9.1502183"><ele>363.0</ele><time>2026-05-01T13:17:27.679Z</time></trkpt><trkpt lat="40.7899967" lon="9.15032"><ele>363.0</ele><time>2026-05-01T13:17:28.679Z</time></trkpt><trkpt lat="40.7899067" lon="9.1504317"><ele>363.0</ele><time>2026-05-01T13:17:29.679Z</time></trkpt><trkpt lat="40.7898367" lon="9.1505483"><ele>363.0</ele><time>2026-05-01T13:17:30.679Z</time></trkpt><trkpt lat="40.7897433" lon="9.1506583"><ele>363.0</ele><time>2026-05-01T13:17:31.679Z</time></trkpt><trkpt lat="40.78966" lon="9.1507817"><ele>365.5</ele><time>2026-05-01T13:17:32.679Z</time></trkpt><trkpt lat="40.7895917" lon="9.150915"><ele>368.0</ele><time>2026-05-01T13:17:33.679Z</time></trkpt><trkpt lat="40.7895333" lon="9.1510683"><ele>370.5</ele><time>2026-05-01T13:17:34.679Z</time></trkpt><trkpt lat="40.7894933" lon="9.1512233"><ele>373.0</ele><time>2026-05-01T13:17:35.679Z</time></trkpt><trkpt lat="40.7894617" lon="9.1513767"><ele>373.0</ele><time>2026-05-01T13:17:36.679Z</time></trkpt><trkpt lat="40.7894283" lon="9.1515217"><ele>373.0</ele><time>2026-05-01T13:17:37.679Z</time></trkpt><trkpt lat="40.7893967" lon="9.1516667"><ele>373.0</ele><time>2026-05-01T13:17:38.679Z</time></trkpt><trkpt lat="40.7893483" lon="9.1518217"><ele>373.0</ele><time>2026-05-01T13:17:39.679Z</time></trkpt><trkpt lat="40.7892733" lon="9.1519917"><ele>368.25</ele><time>2026-05-01T13:17:40.679Z</time></trkpt><trkpt lat="40.7892133" lon="9.15216"><ele>363.5</ele><time>2026-05-01T13:17:41.679Z</time></trkpt><trkpt lat="40.7891567" lon="9.1523033"><ele>358.75</ele><time>2026-05-01T13:17:42.679Z</time></trkpt><trkpt lat="40.7891033" lon="9.15246"><ele>354.0</ele><time>2026-05-01T13:17:43.679Z</time></trkpt><trkpt lat="40.789045" lon="9.1526"><ele>354.0</ele><time>2026-05-01T13:17:44.679Z</time></trkpt><trkpt lat="40.7889967" lon="9.1527433"><ele>354.0</ele><time>2026-05-01T13:17:45.679Z</time></trkpt><trkpt lat="40.788955" lon="9.1528867"><ele>354.0</ele><time>2026-05-01T13:17:46.679Z</time></trkpt><trkpt lat="40.788905" lon="9.1530267"><ele>354.0</ele><time>2026-05-01T13:17:47.679Z</time></trkpt><trkpt lat="40.78885" lon="9.1531583"><ele>355.2</ele><time>2026-05-01T13:17:48.679Z</time></trkpt><trkpt lat="40.788795" lon="9.153275"><ele>356.4</ele><time>2026-05-01T13:17:49.679Z</time></trkpt><trkpt lat="40.7887367" lon="9.1533833"><ele>357.6</ele><time>2026-05-01T13:17:50.679Z</time></trkpt><trkpt lat="40.788665" lon="9.15348"><ele>358.8</ele><time>2026-05-01T13:17:51.679Z</time></trkpt><trkpt lat="40.7885733" lon="9.1535333"><ele>360.0</ele><time>2026-05-01T13:17:52.679Z</time></trkpt><trkpt lat="40.7884783" lon="9.1535983"><ele>354.5</ele><time>2026-05-01T13:17:53.679Z</time></trkpt><trkpt lat="40.7884" lon="9.153675"><ele>349.0</ele><time>2026-05-01T13:17:54.679Z</time></trkpt><trkpt lat="40.7883117" lon="9.153755"><ele>343.5</ele><time>2026-05-01T13:17:55.679Z</time></trkpt><trkpt lat="40.7882033" lon="9.1538483"><ele>338.0</ele><time>2026-05-01T13:17:56.679Z</time></trkpt><trkpt lat="40.7880817" lon="9.153935"><ele>338.0</ele><time>2026-05-01T13:17:57.679Z</time></trkpt><trkpt lat="40.7879433" lon="9.154025"><ele>338.0</ele><time>2026-05-01T13:17:58.679Z</time></trkpt><trkpt lat="40.787825" lon="9.1541167"><ele>338.0</ele><time>2026-05-01T13:17:59.679Z</time></trkpt><trkpt lat="40.7877083" lon="9.1542033"><ele>338.0</ele><time>2026-05-01T13:18:00.679Z</time></trkpt><trkpt lat="40.7875833" lon="9.154265"><ele>338.5</ele><time>2026-05-01T13:18:01.679Z</time></trkpt><trkpt lat="40.78745" lon="9.1543017"><ele>339.0</ele><time>2026-05-01T13:18:02.679Z</time></trkpt><trkpt lat="40.7873383" lon="9.1543517"><ele>339.5</ele><time>2026-05-01T13:18:03.679Z</time></trkpt><trkpt lat="40.787235" lon="9.1544233"><ele>340.0</ele><time>2026-05-01T13:18:04.679Z</time></trkpt><trkpt lat="40.7871283" lon="9.15451"><ele>340.0</ele><time>2026-05-01T13:18:05.679Z</time></trkpt><trkpt lat="40.7870117" lon="9.1546017"><ele>340.0</ele><time>2026-05-01T13:18:06.679Z</time></trkpt><trkpt lat="40.7869117" lon="9.1547433"><ele>340.0</ele><time>2026-05-01T13:18:07.679Z</time></trkpt><trkpt lat="40.7867933" lon="9.154865"><ele>340.0</ele><time>2026-05-01T13:18:08.679Z</time></trkpt><trkpt lat="40.7866767" lon="9.15498"><ele>339.0</ele><time>2026-05-01T13:18:09.679Z</time></trkpt><trkpt lat="40.7865217" lon="9.1550767"><ele>338.0</ele><time>2026-05-01T13:18:10.679Z</time></trkpt><trkpt lat="40.7864167" lon="9.1551867"><ele>337.0</ele><time>2026-05-01T13:18:11.679Z</time></trkpt><trkpt lat="40.786335" lon="9.155295"><ele>336.0</ele><time>2026-05-01T13:18:12.679Z</time></trkpt><trkpt lat="40.7862633" lon="9.155425"><ele>336.0</ele><time>2026-05-01T13:18:13.679Z</time></trkpt><trkpt lat="40.786195" lon="9.1555567"><ele>336.0</ele><time>2026-05-01T13:18:14.679Z</time></trkpt><trkpt lat="40.7861283" lon="9.1557083"><ele>336.0</ele><time>2026-05-01T13:18:15.68Z</time></trkpt><trkpt lat="40.7860933" lon="9.1558883"><ele>336.0</ele><time>2026-05-01T13:18:16.679Z</time></trkpt><trkpt lat="40.7860383" lon="9.15606"><ele>334.25</ele><time>2026-05-01T13:18:17.679Z</time></trkpt><trkpt lat="40.7860117" lon="9.1562417"><ele>332.5</ele><time>2026-05-01T13:18:18.679Z</time></trkpt><trkpt lat="40.7859683" lon="9.1564167"><ele>330.75</ele><time>2026-05-01T13:18:19.679Z</time></trkpt><trkpt lat="40.785915" lon="9.1566067"><ele>329.0</ele><time>2026-05-01T13:18:20.679Z</time></trkpt><trkpt lat="40.7858533" lon="9.15678"><ele>329.0</ele><time>2026-05-01T13:18:21.679Z</time></trkpt><trkpt lat="40.7857617" lon="9.156935"><ele>329.0</ele><time>2026-05-01T13:18:22.679Z</time></trkpt><trkpt lat="40.7856967" lon="9.157115"><ele>329.0</ele><time>2026-05-01T13:18:23.679Z</time></trkpt><trkpt lat="40.7856683" lon="9.1573033"><ele>329.0</ele><time>2026-05-01T13:18:24.678Z</time></trkpt><trkpt lat="40.7856583" lon="9.1575033"><ele>331.75</ele><time>2026-05-01T13:18:25.678Z</time></trkpt><trkpt lat="40.7856633" lon="9.1577033"><ele>334.5</ele><time>2026-05-01T13:18:26.678Z</time></trkpt><trkpt lat="40.78567" lon="9.1579017"><ele>337.25</ele><time>2026-05-01T13:18:27.678Z</time></trkpt><trkpt lat="40.7856833" lon="9.1580933"><ele>340.0</ele><time>2026-05-01T13:18:28.678Z</time></trkpt><trkpt lat="40.7857083" lon="9.1582867"><ele>340.0</ele><time>2026-05-01T13:18:29.678Z</time></trkpt><trkpt lat="40.7857133" lon="9.158455"><ele>340.0</ele><time>2026-05-01T13:18:30.678Z</time></trkpt><trkpt lat="40.7857433" lon="9.1586467"><ele>340.0</ele><time>2026-05-01T13:18:31.678Z</time></trkpt><trkpt lat="40.78579" lon="9.1588067"><ele>340.0</ele><time>2026-05-01T13:18:32.678Z</time></trkpt><trkpt lat="40.7858267" lon="9.1589533"><ele>343.25</ele><time>2026-05-01T13:18:33.679Z</time></trkpt><trkpt lat="40.7858817" lon="9.1591033"><ele>346.5</ele><time>2026-05-01T13:18:34.678Z</time></trkpt><trkpt lat="40.7859783" lon="9.1592717"><ele>349.75</ele><time>2026-05-01T13:18:35.678Z</time></trkpt><trkpt lat="40.7860317" lon="9.1594167"><ele>353.0</ele><time>2026-05-01T13:18:36.678Z</time></trkpt><trkpt lat="40.7860667" lon="9.159545"><ele>353.0</ele><time>2026-05-01T13:18:37.678Z</time></trkpt><trkpt lat="40.7861133" lon="9.15969"><ele>353.0</ele><time>2026-05-01T13:18:38.678Z</time></trkpt><trkpt lat="40.7861567" lon="9.1598183"><ele>353.0</ele><time>2026-05-01T13:18:39.678Z</time></trkpt><trkpt lat="40.7861967" lon="9.1599483"><ele>353.0</ele><time>2026-05-01T13:18:40.678Z</time></trkpt><trkpt lat="40.7862267" lon="9.1600633"><ele>353.0</ele><time>2026-05-01T13:18:41.678Z</time></trkpt><trkpt lat="40.7862567" lon="9.1601783"><ele>348.79999999999995</ele><time>2026-05-01T13:18:42.678Z</time></trkpt><trkpt lat="40.7862933" lon="9.160295"><ele>344.6</ele><time>2026-05-01T13:18:43.678Z</time></trkpt><trkpt lat="40.7863333" lon="9.1604"><ele>340.4</ele><time>2026-05-01T13:18:44.678Z</time></trkpt><trkpt lat="40.786375" lon="9.1605"><ele>336.20000000000005</ele><time>2026-05-01T13:18:45.678Z</time></trkpt><trkpt lat="40.7864283" lon="9.1605883"><ele>332.0</ele><time>2026-05-01T13:18:46.678Z</time></trkpt><trkpt lat="40.78648" lon="9.1606917"><ele>329.0</ele><time>2026-05-01T13:18:47.678Z</time></trkpt><trkpt lat="40.7865317" lon="9.1607967"><ele>326.0</ele><time>2026-05-01T13:18:48.678Z</time></trkpt><trkpt lat="40.7865667" lon="9.1608983"><ele>323.0</ele><time>2026-05-01T13:18:49.678Z</time></trkpt><trkpt lat="40.786595" lon="9.1610067"><ele>320.0</ele><time>2026-05-01T13:18:50.678Z</time></trkpt><trkpt lat="40.78661" lon="9.161105"><ele>317.0</ele><time>2026-05-01T13:18:51.678Z</time></trkpt><trkpt lat="40.786615" lon="9.1612167"><ele>314.0</ele><time>2026-05-01T13:18:52.678Z</time></trkpt><trkpt lat="40.78665" lon="9.1613083"><ele>313.99999999999994</ele><time>2026-05-01T13:18:53.678Z</time></trkpt><trkpt lat="40.7866867" lon="9.1614117"><ele>314.0</ele><time>2026-05-01T13:18:54.678Z</time></trkpt><trkpt lat="40.7867183" lon="9.1614967"><ele>314.0</ele><time>2026-05-01T13:18:55.678Z</time></trkpt><trkpt lat="40.7867333" lon="9.1616017"><ele>314.0</ele><time>2026-05-01T13:18:56.678Z</time></trkpt><trkpt lat="40.7867383" lon="9.1616917"><ele>314.0</ele><time>2026-05-01T13:18:57.679Z</time></trkpt><trkpt lat="40.7867467" lon="9.161785"><ele>313.99999999999994</ele><time>2026-05-01T13:18:58.679Z</time></trkpt><trkpt lat="40.78673" lon="9.16187"><ele>314.0</ele><time>2026-05-01T13:18:59.679Z</time></trkpt><trkpt lat="40.7867383" lon="9.1619817"><ele>311.4</ele><time>2026-05-01T13:19:00.678Z</time></trkpt><trkpt lat="40.7867417" lon="9.162115"><ele>308.79999999999995</ele><time>2026-05-01T13:19:02.678Z</time></trkpt><trkpt lat="40.78678" lon="9.1622667"><ele>306.20000000000005</ele><time>2026-05-01T13:19:04.678Z</time></trkpt><trkpt lat="40.78681" lon="9.1623417"><ele>303.6</ele><time>2026-05-01T13:19:05.678Z</time></trkpt><trkpt lat="40.7868367" lon="9.1624483"><ele>301.0</ele><time>2026-05-01T13:19:07.678Z</time></trkpt><trkpt lat="40.7868683" lon="9.1625567"><ele>301.0</ele><time>2026-05-01T13:19:08.678Z</time></trkpt><trkpt lat="40.786885" lon="9.1626433"><ele>301.0</ele><time>2026-05-01T13:19:09.678Z</time></trkpt><trkpt lat="40.78692" lon="9.162805"><ele>301.0</ele><time>2026-05-01T13:19:11.678Z</time></trkpt><trkpt lat="40.7869533" lon="9.16293"><ele>301.0</ele><time>2026-05-01T13:19:13.678Z</time></trkpt><trkpt lat="40.7869767" lon="9.1630583"><ele>301.0</ele><time>2026-05-01T13:19:15.678Z</time></trkpt><trkpt lat="40.786945" lon="9.163135"><ele>300.40000000000003</ele><time>2026-05-01T13:19:17.678Z</time></trkpt><trkpt lat="40.7868667" lon="9.1632083"><ele>299.8</ele><time>2026-05-01T13:19:19.678Z</time></trkpt><trkpt lat="40.78678" lon="9.1632033"><ele>299.20000000000005</ele><time>2026-05-01T13:19:21.678Z</time></trkpt><trkpt lat="40.78669" lon="9.1632167"><ele>298.6</ele><time>2026-05-01T13:19:23.678Z</time></trkpt><trkpt lat="40.786605" lon="9.16327"><ele>298.0</ele><time>2026-05-01T13:19:29.678Z</time></trkpt><trkpt lat="40.786565" lon="9.1633683"><ele>296.4</ele><time>2026-05-01T13:19:32.678Z</time></trkpt><trkpt lat="40.7865767" lon="9.1634583"><ele>294.8</ele><time>2026-05-01T13:19:34.678Z</time></trkpt><trkpt lat="40.7866317" lon="9.1635867"><ele>293.2</ele><time>2026-05-01T13:19:36.678Z</time></trkpt><trkpt lat="40.7866783" lon="9.1636683"><ele>291.6</ele><time>2026-05-01T13:19:37.678Z</time></trkpt><trkpt lat="40.7867333" lon="9.1637917"><ele>290.0</ele><time>2026-05-01T13:19:39.678Z</time></trkpt><trkpt lat="40.7867533" lon="9.163935"><ele>291.2</ele><time>2026-05-01T13:19:41.678Z</time></trkpt><trkpt lat="40.7867533" lon="9.164075"><ele>292.4</ele><time>2026-05-01T13:19:43.678Z</time></trkpt><trkpt lat="40.7867167" lon="9.16415"><ele>293.6</ele><time>2026-05-01T13:19:45.678Z</time></trkpt><trkpt lat="40.78662" lon="9.1641667"><ele>294.8</ele><time>2026-05-01T13:19:59.678Z</time></trkpt><trkpt lat="40.7865383" lon="9.1641867"><ele>296.0</ele><time>2026-05-01T13:20:01.678Z</time></trkpt><trkpt lat="40.7864283" lon="9.164195"><ele>296.0</ele><time>2026-05-01T13:20:03.678Z</time></trkpt><trkpt lat="40.78636" lon="9.164215"><ele>296.0</ele><time>2026-05-01T13:20:04.678Z</time></trkpt><trkpt lat="40.7862417" lon="9.1642417"><ele>296.0</ele><time>2026-05-01T13:20:06.678Z</time></trkpt><trkpt lat="40.7861267" lon="9.1642667"><ele>296.0</ele><time>2026-05-01T13:20:08.678Z</time></trkpt><trkpt lat="40.7860183" lon="9.1642967"><ele>296.0</ele><time>2026-05-01T13:20:10.678Z</time></trkpt><trkpt lat="40.78593" lon="9.16434"><ele>295.1666666666667</ele><time>2026-05-01T13:20:12.678Z</time></trkpt><trkpt lat="40.78587" lon="9.1644067"><ele>294.33333333333337</ele><time>2026-05-01T13:20:14.678Z</time></trkpt><trkpt lat="40.7858017" lon="9.164505"><ele>293.5</ele><time>2026-05-01T13:20:16.678Z</time></trkpt><trkpt lat="40.7857383" lon="9.1646533"><ele>292.6666666666667</ele><time>2026-05-01T13:20:18.678Z</time></trkpt><trkpt lat="40.7857017" lon="9.1647333"><ele>291.8333333333333</ele><time>2026-05-01T13:20:19.678Z</time></trkpt><trkpt lat="40.7856633" lon="9.164805"><ele>291.0</ele><time>2026-05-01T13:20:20.678Z</time></trkpt><trkpt lat="40.7856067" lon="9.1649517"><ele>291.0</ele><time>2026-05-01T13:20:22.679Z</time></trkpt><trkpt lat="40.7855583" lon="9.1651017"><ele>291.0</ele><time>2026-05-01T13:20:24.678Z</time></trkpt><trkpt lat="40.785515" lon="9.1651817"><ele>291.0</ele><time>2026-05-01T13:20:25.678Z</time></trkpt><trkpt lat="40.78548" lon="9.1652517"><ele>291.0</ele><time>2026-05-01T13:20:26.678Z</time></trkpt><trkpt lat="40.7854367" lon="9.1653183"><ele>291.0</ele><time>2026-05-01T13:20:27.678Z</time></trkpt><trkpt lat="40.7853867" lon="9.165395"><ele>291.0</ele><time>2026-05-01T13:20:28.678Z</time></trkpt><trkpt lat="40.78533" lon="9.165465"><ele>291.0</ele><time>2026-05-01T13:20:29.678Z</time></trkpt><trkpt lat="40.785285" lon="9.1655333"><ele>291.0</ele><time>2026-05-01T13:20:30.678Z</time></trkpt><trkpt lat="40.7852333" lon="9.165605"><ele>291.0</ele><time>2026-05-01T13:20:31.678Z</time></trkpt><trkpt lat="40.78518" lon="9.165655"><ele>291.0</ele><time>2026-05-01T13:20:32.678Z</time></trkpt><trkpt lat="40.7851017" lon="9.165685"><ele>291.0</ele><time>2026-05-01T13:20:33.678Z</time></trkpt><trkpt lat="40.785025" lon="9.16571"><ele>291.0</ele><time>2026-05-01T13:20:34.678Z</time></trkpt><trkpt lat="40.7849567" lon="9.1657583"><ele>291.0</ele><time>2026-05-01T13:20:35.678Z</time></trkpt><trkpt lat="40.78488" lon="9.165805"><ele>289.8333333333333</ele><time>2026-05-01T13:20:36.678Z</time></trkpt><trkpt lat="40.7847883" lon="9.1658567"><ele>288.6666666666667</ele><time>2026-05-01T13:20:37.678Z</time></trkpt><trkpt lat="40.7847383" lon="9.1659233"><ele>287.5</ele><time>2026-05-01T13:20:38.678Z</time></trkpt><trkpt lat="40.7846883" lon="9.1659883"><ele>286.33333333333337</ele><time>2026-05-01T13:20:39.678Z</time></trkpt><trkpt lat="40.7846617" lon="9.166065"><ele>285.1666666666667</ele><time>2026-05-01T13:20:40.678Z</time></trkpt><trkpt lat="40.7846133" lon="9.1661617"><ele>284.0</ele><time>2026-05-01T13:20:42.679Z</time></trkpt><trkpt lat="40.78471" lon="9.1661933"><ele>284.0</ele><time>2026-05-01T13:20:52.678Z</time></trkpt><trkpt lat="40.784695" lon="9.1663283"><ele>284.0</ele><time>2026-05-01T13:20:54.678Z</time></trkpt><trkpt lat="40.7846483" lon="9.1664517"><ele>284.0</ele><time>2026-05-01T13:20:55.678Z</time></trkpt><trkpt lat="40.7845817" lon="9.166585"><ele>284.0</ele><time>2026-05-01T13:20:56.678Z</time></trkpt><trkpt lat="40.784495" lon="9.166735"><ele>285.0</ele><time>2026-05-01T13:20:57.678Z</time></trkpt><trkpt lat="40.7844333" lon="9.1668817"><ele>286.0</ele><time>2026-05-01T13:20:58.678Z</time></trkpt><trkpt lat="40.78438" lon="9.167035"><ele>287.0</ele><time>2026-05-01T13:20:59.678Z</time></trkpt><trkpt lat="40.7843117" lon="9.16718"><ele>288.0</ele><time>2026-05-01T13:21:00.678Z</time></trkpt><trkpt lat="40.784235" lon="9.1673283"><ele>283.8</ele><time>2026-05-01T13:21:01.678Z</time></trkpt><trkpt lat="40.78418" lon="9.1674617"><ele>279.6</ele><time>2026-05-01T13:21:02.678Z</time></trkpt><trkpt lat="40.7841283" lon="9.1675983"><ele>275.4</ele><time>2026-05-01T13:21:03.678Z</time></trkpt><trkpt lat="40.7840983" lon="9.1677267"><ele>271.2</ele><time>2026-05-01T13:21:04.678Z</time></trkpt><trkpt lat="40.7840683" lon="9.167855"><ele>267.0</ele><time>2026-05-01T13:21:05.678Z</time></trkpt><trkpt lat="40.784045" lon="9.1679817"><ele>267.0</ele><time>2026-05-01T13:21:06.678Z</time></trkpt><trkpt lat="40.7840267" lon="9.1681133"><ele>267.0</ele><time>2026-05-01T13:21:07.678Z</time></trkpt><trkpt lat="40.7840033" lon="9.1682433"><ele>267.0</ele><time>2026-05-01T13:21:08.678Z</time></trkpt><trkpt lat="40.7839833" lon="9.1683733"><ele>267.0</ele><time>2026-05-01T13:21:09.678Z</time></trkpt><trkpt lat="40.7839667" lon="9.1685033"><ele>267.0</ele><time>2026-05-01T13:21:10.678Z</time></trkpt><trkpt lat="40.783945" lon="9.1686467"><ele>267.0</ele><time>2026-05-01T13:21:11.678Z</time></trkpt><trkpt lat="40.7839217" lon="9.1687983"><ele>267.0</ele><time>2026-05-01T13:21:12.678Z</time></trkpt><trkpt lat="40.7839067" lon="9.168945"><ele>267.0</ele><time>2026-05-01T13:21:13.678Z</time></trkpt><trkpt lat="40.783885" lon="9.1690983"><ele>267.0</ele><time>2026-05-01T13:21:14.678Z</time></trkpt><trkpt lat="40.7838683" lon="9.16925"><ele>266.5</ele><time>2026-05-01T13:21:15.678Z</time></trkpt><trkpt lat="40.7838583" lon="9.1694"><ele>266.0</ele><time>2026-05-01T13:21:16.678Z</time></trkpt><trkpt lat="40.7838533" lon="9.169545"><ele>265.5</ele><time>2026-05-01T13:21:17.678Z</time></trkpt><trkpt lat="40.7838517" lon="9.1697"><ele>265.0</ele><time>2026-05-01T13:21:18.678Z</time></trkpt><trkpt lat="40.783845" lon="9.1698433"><ele>264.0</ele><time>2026-05-01T13:21:19.679Z</time></trkpt><trkpt lat="40.7838267" lon="9.169975"><ele>263.0</ele><time>2026-05-01T13:21:20.678Z</time></trkpt><trkpt lat="40.7837933" lon="9.170095"><ele>262.0</ele><time>2026-05-01T13:21:21.678Z</time></trkpt><trkpt lat="40.78377" lon="9.17021"><ele>261.0</ele><time>2026-05-01T13:21:22.678Z</time></trkpt><trkpt lat="40.7837517" lon="9.1703267"><ele>260.0</ele><time>2026-05-01T13:21:23.678Z</time></trkpt><trkpt lat="40.7837367" lon="9.1704233"><ele>260.0</ele><time>2026-05-01T13:21:24.678Z</time></trkpt><trkpt lat="40.78372" lon="9.170505"><ele>260.0</ele><time>2026-05-01T13:21:25.678Z</time></trkpt><trkpt lat="40.783675" lon="9.1705867"><ele>260.0</ele><time>2026-05-01T13:21:27.678Z</time></trkpt><trkpt lat="40.783575" lon="9.1705417"><ele>260.0</ele><time>2026-05-01T13:21:30.678Z</time></trkpt><trkpt lat="40.7835233" lon="9.1704867"><ele>260.0</ele><time>2026-05-01T13:21:31.678Z</time></trkpt><trkpt lat="40.783475" lon="9.1703617"><ele>260.0</ele><time>2026-05-01T13:21:32.678Z</time></trkpt><trkpt lat="40.7834367" lon="9.1702433"><ele>258.0</ele><time>2026-05-01T13:21:33.678Z</time></trkpt><trkpt lat="40.7834183" lon="9.17013"><ele>256.0</ele><time>2026-05-01T13:21:34.678Z</time></trkpt><trkpt lat="40.7834183" lon="9.1699767"><ele>254.0</ele><time>2026-05-01T13:21:35.678Z</time></trkpt><trkpt lat="40.7833867" lon="9.16984"><ele>252.0</ele><time>2026-05-01T13:21:36.678Z</time></trkpt><trkpt lat="40.7833583" lon="9.16972"><ele>250.0</ele><time>2026-05-01T13:21:37.678Z</time></trkpt><trkpt lat="40.7832733" lon="9.1694683"><ele>250.0</ele><time>2026-05-01T13:21:39.678Z</time></trkpt><trkpt lat="40.7832433" lon="9.1692917"><ele>250.0</ele><time>2026-05-01T13:21:40.678Z</time></trkpt><trkpt lat="40.7832083" lon="9.1691233"><ele>250.0</ele><time>2026-05-01T13:21:41.678Z</time></trkpt><trkpt lat="40.7831467" lon="9.1690283"><ele>250.0</ele><time>2026-05-01T13:21:42.678Z</time></trkpt><trkpt lat="40.7830883" lon="9.1689583"><ele>250.0</ele><time>2026-05-01T13:21:43.678Z</time></trkpt><trkpt lat="40.7830383" lon="9.168875"><ele>249.99999999999997</ele><time>2026-05-01T13:21:44.678Z</time></trkpt><trkpt lat="40.78299" lon="9.1688083"><ele>250.0</ele><time>2026-05-01T13:21:45.678Z</time></trkpt><trkpt lat="40.782915" lon="9.1686967"><ele>250.0</ele><time>2026-05-01T13:21:47.678Z</time></trkpt><trkpt lat="40.78286" lon="9.1686033"><ele>250.0</ele><time>2026-05-01T13:21:49.678Z</time></trkpt><trkpt lat="40.78283" lon="9.1685267"><ele>249.99999999999997</ele><time>2026-05-01T13:21:51.678Z</time></trkpt><trkpt lat="40.7828083" lon="9.168445"><ele>250.0</ele><time>2026-05-01T13:21:53.678Z</time></trkpt><trkpt lat="40.7826783" lon="9.1684417"><ele>249.99999999999997</ele><time>2026-05-01T13:22:23.678Z</time></trkpt><trkpt lat="40.7827317" lon="9.168345"><ele>250.0</ele><time>2026-05-01T13:28:02.678Z</time></trkpt><trkpt lat="40.7827333" lon="9.1682617"><ele>250.0</ele><time>2026-05-01T13:40:42.675Z</time></trkpt><trkpt lat="40.782675" lon="9.1681983"><ele>250.0</ele><time>2026-05-01T13:41:14.675Z</time></trkpt><trkpt lat="40.78265" lon="9.1683067"><ele>249.99999999999997</ele><time>2026-05-01T13:41:18.675Z</time></trkpt><trkpt lat="40.782725" lon="9.16845"><ele>250.0</ele><time>2026-05-01T13:41:20.675Z</time></trkpt><trkpt lat="40.7827833" lon="9.1685467"><ele>250.0</ele><time>2026-05-01T13:41:21.675Z</time></trkpt><trkpt lat="40.7828583" lon="9.168645"><ele>250.0</ele><time>2026-05-01T13:41:22.675Z</time></trkpt><trkpt lat="40.7829367" lon="9.1687517"><ele>250.0</ele><time>2026-05-01T13:41:23.675Z</time></trkpt><trkpt lat="40.7830167" lon="9.168855"><ele>250.0</ele><time>2026-05-01T13:41:24.675Z</time></trkpt><trkpt lat="40.7830983" lon="9.1689633"><ele>250.0</ele><time>2026-05-01T13:41:25.675Z</time></trkpt><trkpt lat="40.7831833" lon="9.1690817"><ele>250.0</ele><time>2026-05-01T13:41:26.675Z</time></trkpt><trkpt lat="40.783265" lon="9.1692017"><ele>250.0</ele><time>2026-05-01T13:41:27.675Z</time></trkpt><trkpt lat="40.78333" lon="9.169335"><ele>250.0</ele><time>2026-05-01T13:41:28.675Z</time></trkpt><trkpt lat="40.7833783" lon="9.1694717"><ele>250.0</ele><time>2026-05-01T13:41:29.675Z</time></trkpt><trkpt lat="40.7834117" lon="9.1696167"><ele>250.0</ele><time>2026-05-01T13:41:30.675Z</time></trkpt><trkpt lat="40.7834517" lon="9.1697867"><ele>250.0</ele><time>2026-05-01T13:41:31.675Z</time></trkpt><trkpt lat="40.783475" lon="9.1699367"><ele>250.0</ele><time>2026-05-01T13:41:32.675Z</time></trkpt><trkpt lat="40.7835" lon="9.1700867"><ele>250.0</ele><time>2026-05-01T13:41:33.675Z</time></trkpt><trkpt lat="40.7835267" lon="9.1702267"><ele>249.99999999999997</ele><time>2026-05-01T13:41:34.675Z</time></trkpt><trkpt lat="40.7835633" lon="9.1703683"><ele>250.0</ele><time>2026-05-01T13:41:35.675Z</time></trkpt><trkpt lat="40.7836017" lon="9.1704817"><ele>250.0</ele><time>2026-05-01T13:41:36.675Z</time></trkpt><trkpt lat="40.7836383" lon="9.1705817"><ele>250.0</ele><time>2026-05-01T13:41:37.675Z</time></trkpt><trkpt lat="40.7836883" lon="9.17065"><ele>249.99999999999997</ele><time>2026-05-01T13:41:38.675Z</time></trkpt><trkpt lat="40.78375" lon="9.1707067"><ele>250.0</ele><time>2026-05-01T13:41:39.675Z</time></trkpt><trkpt lat="40.78381" lon="9.1707433"><ele>252.5</ele><time>2026-05-01T13:41:40.675Z</time></trkpt><trkpt lat="40.7839117" lon="9.1706183"><ele>255.0</ele><time>2026-05-01T13:41:42.675Z</time></trkpt><trkpt lat="40.7839417" lon="9.170465"><ele>257.5</ele><time>2026-05-01T13:41:43.675Z</time></trkpt><trkpt lat="40.7839567" lon="9.170265"><ele>260.0</ele><time>2026-05-01T13:41:44.675Z</time></trkpt><trkpt lat="40.78396" lon="9.17004"><ele>260.0</ele><time>2026-05-01T13:41:45.675Z</time></trkpt><trkpt lat="40.78395" lon="9.1698617"><ele>260.0</ele><time>2026-05-01T13:41:46.675Z</time></trkpt><trkpt lat="40.7839167" lon="9.1696383"><ele>260.0</ele><time>2026-05-01T13:41:47.675Z</time></trkpt><trkpt lat="40.7839067" lon="9.1693783"><ele>261.6666666666667</ele><time>2026-05-01T13:41:48.676Z</time></trkpt><trkpt lat="40.7839117" lon="9.1691733"><ele>263.3333333333333</ele><time>2026-05-01T13:41:49.675Z</time></trkpt><trkpt lat="40.7839233" lon="9.1689767"><ele>265.0</ele><time>2026-05-01T13:41:50.675Z</time></trkpt><trkpt lat="40.7839683" lon="9.16857"><ele>265.66666666666663</ele><time>2026-05-01T13:41:52.675Z</time></trkpt><trkpt lat="40.7839967" lon="9.1683667"><ele>266.3333333333333</ele><time>2026-05-01T13:41:53.675Z</time></trkpt><trkpt lat="40.78402" lon="9.1681717"><ele>267.0</ele><time>2026-05-01T13:41:54.675Z</time></trkpt><trkpt lat="40.7840483" lon="9.1679733"><ele>267.0</ele><time>2026-05-01T13:41:55.675Z</time></trkpt><trkpt lat="40.78409" lon="9.1677717"><ele>267.0</ele><time>2026-05-01T13:41:56.675Z</time></trkpt><trkpt lat="40.7841433" lon="9.1675817"><ele>267.0</ele><time>2026-05-01T13:41:57.675Z</time></trkpt><trkpt lat="40.7842217" lon="9.16739"><ele>266.75</ele><time>2026-05-01T13:41:58.675Z</time></trkpt><trkpt lat="40.7842867" lon="9.1672133"><ele>266.5</ele><time>2026-05-01T13:41:59.675Z</time></trkpt><trkpt lat="40.78435" lon="9.1670333"><ele>266.25</ele><time>2026-05-01T13:42:00.675Z</time></trkpt><trkpt lat="40.78441" lon="9.166855"><ele>266.0</ele><time>2026-05-01T13:42:01.675Z</time></trkpt><trkpt lat="40.7844733" lon="9.1666867"><ele>270.5</ele><time>2026-05-01T13:42:02.675Z</time></trkpt><trkpt lat="40.7845367" lon="9.16652"><ele>275.0</ele><time>2026-05-01T13:42:03.675Z</time></trkpt><trkpt lat="40.7845917" lon="9.166345"><ele>279.5</ele><time>2026-05-01T13:42:04.675Z</time></trkpt><trkpt lat="40.7846317" lon="9.166195"><ele>284.0</ele><time>2026-05-01T13:42:05.675Z</time></trkpt><trkpt lat="40.7846883" lon="9.1660533"><ele>284.0</ele><time>2026-05-01T13:42:06.675Z</time></trkpt><trkpt lat="40.7847417" lon="9.1659267"><ele>284.0</ele><time>2026-05-01T13:42:07.675Z</time></trkpt><trkpt lat="40.7848017" lon="9.1658117"><ele>284.0</ele><time>2026-05-01T13:42:08.675Z</time></trkpt><trkpt lat="40.7848667" lon="9.1657083"><ele>284.0</ele><time>2026-05-01T13:42:09.675Z</time></trkpt><trkpt lat="40.7849467" lon="9.16562"><ele>284.0</ele><time>2026-05-01T13:42:10.675Z</time></trkpt><trkpt lat="40.7850417" lon="9.16555"><ele>285.4</ele><time>2026-05-01T13:42:11.675Z</time></trkpt><trkpt lat="40.7851433" lon="9.1654883"><ele>286.79999999999995</ele><time>2026-05-01T13:42:12.675Z</time></trkpt><trkpt lat="40.78524" lon="9.1654233"><ele>288.20000000000005</ele><time>2026-05-01T13:42:13.675Z</time></trkpt><trkpt lat="40.7853317" lon="9.1653433"><ele>289.6</ele><time>2026-05-01T13:42:14.675Z</time></trkpt><trkpt lat="40.7854233" lon="9.1652583"><ele>291.0</ele><time>2026-05-01T13:42:15.675Z</time></trkpt><trkpt lat="40.785505" lon="9.165155"><ele>291.0</ele><time>2026-05-01T13:42:16.675Z</time></trkpt><trkpt lat="40.78558" lon="9.1650467"><ele>291.0</ele><time>2026-05-01T13:42:17.675Z</time></trkpt><trkpt lat="40.785635" lon="9.16493"><ele>291.0</ele><time>2026-05-01T13:42:18.675Z</time></trkpt><trkpt lat="40.7856817" lon="9.164815"><ele>291.0</ele><time>2026-05-01T13:42:19.676Z</time></trkpt><trkpt lat="40.7857267" lon="9.1647"><ele>291.0</ele><time>2026-05-01T13:42:20.675Z</time></trkpt><trkpt lat="40.7857733" lon="9.1645967"><ele>292.25</ele><time>2026-05-01T13:42:21.675Z</time></trkpt><trkpt lat="40.785845" lon="9.1644033"><ele>293.5</ele><time>2026-05-01T13:42:23.675Z</time></trkpt><trkpt lat="40.7859217" lon="9.1642783"><ele>294.75</ele><time>2026-05-01T13:42:25.675Z</time></trkpt><trkpt lat="40.78601" lon="9.16421"><ele>296.0</ele><time>2026-05-01T13:42:27.675Z</time></trkpt><trkpt lat="40.78607" lon="9.1641683"><ele>296.0</ele><time>2026-05-01T13:42:29.675Z</time></trkpt><trkpt lat="40.7862017" lon="9.16428"><ele>296.0</ele><time>2026-05-01T13:42:42.675Z</time></trkpt><trkpt lat="40.7863267" lon="9.1643933"><ele>296.0</ele><time>2026-05-01T13:42:44.675Z</time></trkpt><trkpt lat="40.7864133" lon="9.1644817"><ele>296.0</ele><time>2026-05-01T13:42:46.675Z</time></trkpt><trkpt lat="40.786475" lon="9.16452"><ele>296.0</ele><time>2026-05-01T13:42:48.675Z</time></trkpt><trkpt lat="40.7865283" lon="9.1644417"><ele>296.0</ele><time>2026-05-01T13:42:52.675Z</time></trkpt><trkpt lat="40.7865683" lon="9.1643667"><ele>296.0</ele><time>2026-05-01T13:43:54.675Z</time></trkpt><trkpt lat="40.7865183" lon="9.1645083"><ele>296.0</ele><time>2026-05-01T13:44:56.675Z</time></trkpt><trkpt lat="40.7864933" lon="9.16461"><ele>296.0</ele><time>2026-05-01T13:45:00.675Z</time></trkpt><trkpt lat="40.7864517" lon="9.1645"><ele>296.0</ele><time>2026-05-01T13:45:05.676Z</time></trkpt><trkpt lat="40.7865067" lon="9.16443"><ele>296.0</ele><time>2026-05-01T13:45:11.675Z</time></trkpt><trkpt lat="40.786445" lon="9.1643983"><ele>296.0</ele><time>2026-05-01T13:45:50.675Z</time></trkpt><trkpt lat="40.7863567" lon="9.16435"><ele>296.0</ele><time>2026-05-01T13:45:59.695Z</time></trkpt><trkpt lat="40.7865433" lon="9.1645057"><ele>296.0</ele><time>2026-05-01T13:46:14.492Z</time></trkpt><trkpt lat="40.786405" lon="9.1646683"><ele>296.0</ele><time>2026-05-01T13:46:18.696Z</time></trkpt><trkpt lat="40.7864883" lon="9.1644883"><ele>296.0</ele><time>2026-05-01T13:46:24.696Z</time></trkpt><trkpt lat="40.7864833" lon="9.1643967"><ele>296.0</ele><time>2026-05-01T13:47:01.696Z</time></trkpt><trkpt lat="40.7864767" lon="9.1643017"><ele>296.0</ele><time>2026-05-01T13:47:10.696Z</time></trkpt><trkpt lat="40.7865183" lon="9.16422"><ele>296.0</ele><time>2026-05-01T13:47:16.696Z</time></trkpt><trkpt lat="40.7866267" lon="9.1642433"><ele>296.0</ele><time>2026-05-01T13:48:23.696Z</time></trkpt><trkpt lat="40.78654" lon="9.16421"><ele>296.0</ele><time>2026-05-01T13:48:44.696Z</time></trkpt></trkseg><trkseg><trkpt lat="40.78647" lon="9.1640817"><ele>296.0</ele><time>2026-05-01T14:07:47.677Z</time></trkpt><trkpt lat="40.7865033" lon="9.1639783"><ele>296.0</ele><time>2026-05-01T14:08:01.677Z</time></trkpt><trkpt lat="40.786565" lon="9.163995"><ele>296.0</ele><time>2026-05-01T14:08:10.677Z</time></trkpt><trkpt lat="40.7865833" lon="9.1640767"><ele>296.0</ele><time>2026-05-01T14:08:33.677Z</time></trkpt><trkpt lat="40.7865133" lon="9.1640683"><ele>296.0</ele><time>2026-05-01T14:08:45.677Z</time></trkpt><trkpt lat="40.786445" lon="9.1640783"><ele>296.0</ele><time>2026-05-01T14:09:10.677Z</time></trkpt><trkpt lat="40.786485" lon="9.1641517"><ele>296.0</ele><time>2026-05-01T14:09:55.677Z</time></trkpt><trkpt lat="40.7864367" lon="9.1642133"><ele>296.0</ele><time>2026-05-01T14:10:14.677Z</time></trkpt><trkpt lat="40.7864817" lon="9.1641217"><ele>296.0</ele><time>2026-05-01T14:10:53.677Z</time></trkpt><trkpt lat="40.78642" lon="9.1641617"><ele>296.0</ele><time>2026-05-01T14:11:22.677Z</time></trkpt><trkpt lat="40.7865367" lon="9.1640933"><ele>296.0</ele><time>2026-05-01T14:11:51.677Z</time></trkpt><trkpt lat="40.786615" lon="9.1640583"><ele>296.0</ele><time>2026-05-01T14:11:53.677Z</time></trkpt><trkpt lat="40.7867383" lon="9.1640433"><ele>296.0</ele><time>2026-05-01T14:11:56.682Z</time></trkpt><trkpt lat="40.7867933" lon="9.164095"><ele>296.0</ele><time>2026-05-01T14:12:05.682Z</time></trkpt><trkpt lat="40.7866083" lon="9.1641267"><ele>296.0</ele><time>2026-05-01T14:12:06.682Z</time></trkpt><trkpt lat="40.786455" lon="9.164225"><ele>296.0</ele><time>2026-05-01T14:12:09.682Z</time></trkpt><trkpt lat="40.786365" lon="9.1642883"><ele>296.0</ele><time>2026-05-01T14:12:13.682Z</time></trkpt><trkpt lat="40.7864017" lon="9.1641867"><ele>296.0</ele><time>2026-05-01T14:12:55.681Z</time></trkpt><trkpt lat="40.7864267" lon="9.1641"><ele>296.0</ele><time>2026-05-01T14:13:03.681Z</time></trkpt><trkpt lat="40.7864183" lon="9.1640117"><ele>296.0</ele><time>2026-05-01T14:13:06.681Z</time></trkpt><trkpt lat="40.7863767" lon="9.16394"><ele>296.0</ele><time>2026-05-01T14:13:10.681Z</time></trkpt><trkpt lat="40.7864133" lon="9.1640733"><ele>296.0</ele><time>2026-05-01T14:13:34.681Z</time></trkpt><trkpt lat="40.7864183" lon="9.1641867"><ele>296.0</ele><time>2026-05-01T14:14:16.681Z</time></trkpt><trkpt lat="40.786355" lon="9.1641283"><ele>296.0</ele><time>2026-05-01T14:15:00.681Z</time></trkpt><trkpt lat="40.78631" lon="9.1640633"><ele>296.0</ele><time>2026-05-01T14:15:02.681Z</time></trkpt><trkpt lat="40.78628" lon="9.1639883"><ele>296.0</ele><time>2026-05-01T14:15:04.681Z</time></trkpt><trkpt lat="40.78623" lon="9.163885"><ele>296.0</ele><time>2026-05-01T14:15:07.681Z</time></trkpt><trkpt lat="40.786195" lon="9.1638133"><ele>296.0</ele><time>2026-05-01T14:15:08.681Z</time></trkpt><trkpt lat="40.7861633" lon="9.16373"><ele>296.0</ele><time>2026-05-01T14:15:10.682Z</time></trkpt><trkpt lat="40.7861233" lon="9.1636383"><ele>296.0</ele><time>2026-05-01T14:15:13.681Z</time></trkpt><trkpt lat="40.7861883" lon="9.1637"><ele>296.0</ele><time>2026-05-01T14:15:17.681Z</time></trkpt><trkpt lat="40.7862583" lon="9.163815"><ele>296.0</ele><time>2026-05-01T14:15:19.681Z</time></trkpt><trkpt lat="40.7862967" lon="9.163885"><ele>296.0</ele><time>2026-05-01T14:15:24.681Z</time></trkpt><trkpt lat="40.7863467" lon="9.16406"><ele>296.0</ele><time>2026-05-01T14:15:34.681Z</time></trkpt><trkpt lat="40.786355" lon="9.1641467"><ele>296.0</ele><time>2026-05-01T14:15:38.681Z</time></trkpt><trkpt lat="40.7863217" lon="9.1642367"><ele>296.0</ele><time>2026-05-01T14:15:49.681Z</time></trkpt><trkpt lat="40.7864133" lon="9.1642367"><ele>296.0</ele><time>2026-05-01T14:16:01.681Z</time></trkpt><trkpt lat="40.7864667" lon="9.1641767"><ele>296.0</ele><time>2026-05-01T14:16:16.681Z</time></trkpt><trkpt lat="40.78653" lon="9.1641467"><ele>296.0</ele><time>2026-05-01T14:16:46.68Z</time></trkpt><trkpt lat="40.7864567" lon="9.1641"><ele>296.0</ele><time>2026-05-01T14:17:18.68Z</time></trkpt><trkpt lat="40.786385" lon="9.1640767"><ele>296.0</ele><time>2026-05-01T14:17:24.68Z</time></trkpt><trkpt lat="40.78634" lon="9.164"><ele>296.0</ele><time>2026-05-01T14:17:28.68Z</time></trkpt><trkpt lat="40.7865117" lon="9.1641567"><ele>296.0</ele><time>2026-05-01T14:18:14.68Z</time></trkpt><trkpt lat="40.786495" lon="9.164075"><ele>296.0</ele><time>2026-05-01T14:18:59.68Z</time></trkpt><trkpt lat="40.7865317" lon="9.164145"><ele>296.0</ele><time>2026-05-01T14:19:09.68Z</time></trkpt><trkpt lat="40.7865983" lon="9.16392"><ele>296.0</ele><time>2026-05-01T14:19:28.68Z</time></trkpt><trkpt lat="40.7866883" lon="9.1639683"><ele>296.0</ele><time>2026-05-01T14:20:00.68Z</time></trkpt><trkpt lat="40.786765" lon="9.16405"><ele>296.0</ele><time>2026-05-01T14:20:21.68Z</time></trkpt><trkpt lat="40.7868167" lon="9.164115"><ele>296.0</ele><time>2026-05-01T14:21:14.679Z</time></trkpt><trkpt lat="40.786705" lon="9.1640633"><ele>296.0</ele><time>2026-05-01T14:21:20.679Z</time></trkpt><trkpt lat="40.786545" lon="9.164085"><ele>296.0</ele><time>2026-05-01T14:21:45.679Z</time></trkpt><trkpt lat="40.786415" lon="9.1640983"><ele>296.0</ele><time>2026-05-01T14:21:46.679Z</time></trkpt><trkpt lat="40.7863067" lon="9.1641167"><ele>296.0</ele><time>2026-05-01T14:21:47.679Z</time></trkpt><trkpt lat="40.7862267" lon="9.1641467"><ele>296.0</ele><time>2026-05-01T14:21:48.679Z</time></trkpt><trkpt lat="40.7861517" lon="9.1641783"><ele>296.0</ele><time>2026-05-01T14:21:49.679Z</time></trkpt><trkpt lat="40.7860833" lon="9.1642017"><ele>296.0</ele><time>2026-05-01T14:21:50.679Z</time></trkpt><trkpt lat="40.78602" lon="9.1642283"><ele>296.0</ele><time>2026-05-01T14:21:51.679Z</time></trkpt><trkpt lat="40.7859517" lon="9.1642567"><ele>296.0</ele><time>2026-05-01T14:21:52.679Z</time></trkpt><trkpt lat="40.7858933" lon="9.1643"><ele>296.0</ele><time>2026-05-01T14:21:53.679Z</time></trkpt><trkpt lat="40.7858267" lon="9.1643467"><ele>296.0</ele><time>2026-05-01T14:21:54.679Z</time></trkpt><trkpt lat="40.7857383" lon="9.1644433"><ele>296.0</ele><time>2026-05-01T14:21:56.679Z</time></trkpt><trkpt lat="40.7856717" lon="9.16451"><ele>295.0</ele><time>2026-05-01T14:21:57.679Z</time></trkpt><trkpt lat="40.7856067" lon="9.164625"><ele>294.0</ele><time>2026-05-01T14:21:59.679Z</time></trkpt><trkpt lat="40.7855683" lon="9.1647517"><ele>293.0</ele><time>2026-05-01T14:22:01.679Z</time></trkpt><trkpt lat="40.7855033" lon="9.1649067"><ele>292.0</ele><time>2026-05-01T14:22:03.679Z</time></trkpt><trkpt lat="40.7854783" lon="9.1649917"><ele>291.0</ele><time>2026-05-01T14:22:04.679Z</time></trkpt><trkpt lat="40.7854617" lon="9.16508"><ele>291.0</ele><time>2026-05-01T14:22:05.679Z</time></trkpt><trkpt lat="40.78543" lon="9.1651667"><ele>291.0</ele><time>2026-05-01T14:22:06.679Z</time></trkpt><trkpt lat="40.7854067" lon="9.1652583"><ele>291.0</ele><time>2026-05-01T14:22:07.679Z</time></trkpt><trkpt lat="40.7853683" lon="9.1653517"><ele>291.0</ele><time>2026-05-01T14:22:08.679Z</time></trkpt><trkpt lat="40.7853183" lon="9.16543"><ele>291.0</ele><time>2026-05-01T14:22:09.679Z</time></trkpt><trkpt lat="40.785265" lon="9.165505"><ele>291.0</ele><time>2026-05-01T14:22:10.679Z</time></trkpt><trkpt lat="40.7852167" lon="9.1656017"><ele>289.8333333333333</ele><time>2026-05-01T14:22:11.679Z</time></trkpt><trkpt lat="40.7851733" lon="9.1657083"><ele>288.6666666666667</ele><time>2026-05-01T14:22:12.679Z</time></trkpt><trkpt lat="40.7851517" lon="9.165865"><ele>287.5</ele><time>2026-05-01T14:22:13.679Z</time></trkpt><trkpt lat="40.7851017" lon="9.1659433"><ele>286.33333333333337</ele><time>2026-05-01T14:22:14.679Z</time></trkpt><trkpt lat="40.7850567" lon="9.1660117"><ele>285.1666666666667</ele><time>2026-05-01T14:22:15.679Z</time></trkpt><trkpt lat="40.7849867" lon="9.16601"><ele>284.0</ele><time>2026-05-01T14:22:16.679Z</time></trkpt><trkpt lat="40.7849233" lon="9.1660367"><ele>284.0</ele><time>2026-05-01T14:22:17.679Z</time></trkpt><trkpt lat="40.7848267" lon="9.1660967"><ele>284.0</ele><time>2026-05-01T14:22:19.679Z</time></trkpt><trkpt lat="40.784745" lon="9.1661783"><ele>284.0</ele><time>2026-05-01T14:22:21.679Z</time></trkpt><trkpt lat="40.7846517" lon="9.1662767"><ele>284.0</ele><time>2026-05-01T14:22:23.679Z</time></trkpt><trkpt lat="40.7845983" lon="9.1664233"><ele>284.0</ele><time>2026-05-01T14:22:25.679Z</time></trkpt><trkpt lat="40.7845667" lon="9.1665167"><ele>284.0</ele><time>2026-05-01T14:22:26.679Z</time></trkpt><trkpt lat="40.7845367" lon="9.166605"><ele>284.0</ele><time>2026-05-01T14:22:27.679Z</time></trkpt><trkpt lat="40.7844933" lon="9.1667017"><ele>284.0</ele><time>2026-05-01T14:22:28.679Z</time></trkpt><trkpt lat="40.7844567" lon="9.1667933"><ele>284.0</ele><time>2026-05-01T14:22:29.679Z</time></trkpt><trkpt lat="40.7844167" lon="9.1668983"><ele>284.0</ele><time>2026-05-01T14:22:30.679Z</time></trkpt><trkpt lat="40.7843783" lon="9.1669883"><ele>281.1666666666667</ele><time>2026-05-01T14:22:31.679Z</time></trkpt><trkpt lat="40.7843317" lon="9.1670867"><ele>278.33333333333337</ele><time>2026-05-01T14:22:32.679Z</time></trkpt><trkpt lat="40.7843033" lon="9.16719"><ele>275.5</ele><time>2026-05-01T14:22:33.679Z</time></trkpt><trkpt lat="40.784265" lon="9.1672917"><ele>272.6666666666667</ele><time>2026-05-01T14:22:34.679Z</time></trkpt><trkpt lat="40.784235" lon="9.1673883"><ele>269.8333333333333</ele><time>2026-05-01T14:22:35.679Z</time></trkpt><trkpt lat="40.7842033" lon="9.16749"><ele>267.0</ele><time>2026-05-01T14:22:36.679Z</time></trkpt><trkpt lat="40.784165" lon="9.1675783"><ele>267.0</ele><time>2026-05-01T14:22:37.679Z</time></trkpt><trkpt lat="40.784125" lon="9.167665"><ele>267.0</ele><time>2026-05-01T14:22:38.679Z</time></trkpt><trkpt lat="40.784085" lon="9.167755"><ele>267.0</ele><time>2026-05-01T14:22:39.679Z</time></trkpt><trkpt lat="40.7840467" lon="9.1678483"><ele>267.0</ele><time>2026-05-01T14:22:40.679Z</time></trkpt><trkpt lat="40.7840067" lon="9.16794"><ele>267.0</ele><time>2026-05-01T14:22:41.679Z</time></trkpt><trkpt lat="40.783985" lon="9.1680467"><ele>267.0</ele><time>2026-05-01T14:22:42.679Z</time></trkpt><trkpt lat="40.7839683" lon="9.1681583"><ele>267.0</ele><time>2026-05-01T14:22:43.679Z</time></trkpt><trkpt lat="40.7839483" lon="9.1682883"><ele>267.0</ele><time>2026-05-01T14:22:44.679Z</time></trkpt><trkpt lat="40.78393" lon="9.168425"><ele>267.0</ele><time>2026-05-01T14:22:45.679Z</time></trkpt><trkpt lat="40.7839067" lon="9.168585"><ele>267.0</ele><time>2026-05-01T14:22:46.679Z</time></trkpt><trkpt lat="40.7838867" lon="9.1687533"><ele>267.0</ele><time>2026-05-01T14:22:47.679Z</time></trkpt><trkpt lat="40.7838633" lon="9.1689383"><ele>267.0</ele><time>2026-05-01T14:22:48.679Z</time></trkpt><trkpt lat="40.78385" lon="9.1691067"><ele>267.0</ele><time>2026-05-01T14:22:49.679Z</time></trkpt><trkpt lat="40.7838333" lon="9.169275"><ele>267.0</ele><time>2026-05-01T14:22:50.679Z</time></trkpt><trkpt lat="40.78382" lon="9.1694333"><ele>266.5</ele><time>2026-05-01T14:22:51.679Z</time></trkpt><trkpt lat="40.783805" lon="9.16959"><ele>266.0</ele><time>2026-05-01T14:22:52.679Z</time></trkpt><trkpt lat="40.78379" lon="9.16975"><ele>265.5</ele><time>2026-05-01T14:22:53.679Z</time></trkpt><trkpt lat="40.78378" lon="9.1698983"><ele>265.0</ele><time>2026-05-01T14:22:54.679Z</time></trkpt><trkpt lat="40.7837733" lon="9.1700333"><ele>264.16666666666663</ele><time>2026-05-01T14:22:55.679Z</time></trkpt><trkpt lat="40.783765" lon="9.1701533"><ele>263.3333333333333</ele><time>2026-05-01T14:22:56.679Z</time></trkpt><trkpt lat="40.78375" lon="9.170255"><ele>262.5</ele><time>2026-05-01T14:22:57.679Z</time></trkpt><trkpt lat="40.7837033" lon="9.1703467"><ele>261.6666666666667</ele><time>2026-05-01T14:22:58.679Z</time></trkpt><trkpt lat="40.7836567" lon="9.1704267"><ele>260.83333333333337</ele><time>2026-05-01T14:22:59.679Z</time></trkpt><trkpt lat="40.7836017" lon="9.1704917"><ele>260.0</ele><time>2026-05-01T14:23:00.679Z</time></trkpt><trkpt lat="40.78354" lon="9.1705233"><ele>257.4</ele><time>2026-05-01T14:23:01.679Z</time></trkpt><trkpt lat="40.7834283" lon="9.1704717"><ele>254.8</ele><time>2026-05-01T14:23:03.679Z</time></trkpt><trkpt lat="40.7833883" lon="9.170385"><ele>252.2</ele><time>2026-05-01T14:23:04.679Z</time></trkpt><trkpt lat="40.783345" lon="9.17027"><ele>249.6</ele><time>2026-05-01T14:23:05.679Z</time></trkpt><trkpt lat="40.78332" lon="9.1700883"><ele>247.0</ele><time>2026-05-01T14:23:06.679Z</time></trkpt><trkpt lat="40.7832783" lon="9.1699583"><ele>247.75</ele><time>2026-05-01T14:23:07.679Z</time></trkpt><trkpt lat="40.78324" lon="9.1697833"><ele>248.5</ele><time>2026-05-01T14:23:08.679Z</time></trkpt><trkpt lat="40.7832" lon="9.1696167"><ele>249.25</ele><time>2026-05-01T14:23:09.679Z</time></trkpt><trkpt lat="40.783155" lon="9.1694417"><ele>250.0</ele><time>2026-05-01T14:23:10.679Z</time></trkpt><trkpt lat="40.783105" lon="9.16928"><ele>250.0</ele><time>2026-05-01T14:23:11.679Z</time></trkpt><trkpt lat="40.78304" lon="9.1691267"><ele>250.0</ele><time>2026-05-01T14:23:12.679Z</time></trkpt><trkpt lat="40.7829667" lon="9.1689833"><ele>250.0</ele><time>2026-05-01T14:23:13.679Z</time></trkpt><trkpt lat="40.7828917" lon="9.1688667"><ele>250.0</ele><time>2026-05-01T14:23:14.679Z</time></trkpt><trkpt lat="40.7828267" lon="9.1687417"><ele>249.99999999999997</ele><time>2026-05-01T14:23:15.679Z</time></trkpt><trkpt lat="40.78276" lon="9.1686367"><ele>250.0</ele><time>2026-05-01T14:23:16.679Z</time></trkpt><trkpt lat="40.7827" lon="9.168535"><ele>250.0</ele><time>2026-05-01T14:23:17.679Z</time></trkpt><trkpt lat="40.7826433" lon="9.1684483"><ele>250.0</ele><time>2026-05-01T14:23:18.679Z</time></trkpt><trkpt lat="40.7826" lon="9.1683683"><ele>249.99999999999997</ele><time>2026-05-01T14:23:19.679Z</time></trkpt><trkpt lat="40.7825517" lon="9.1682983"><ele>250.0</ele><time>2026-05-01T14:23:20.679Z</time></trkpt><trkpt lat="40.7824667" lon="9.16827"><ele>247.0</ele><time>2026-05-01T14:23:22.679Z</time></trkpt><trkpt lat="40.7824067" lon="9.168335"><ele>244.0</ele><time>2026-05-01T14:23:26.679Z</time></trkpt><trkpt lat="40.7824183" lon="9.1685617"><ele>241.0</ele><time>2026-05-01T14:23:28.679Z</time></trkpt><trkpt lat="40.7824417" lon="9.1687483"><ele>238.0</ele><time>2026-05-01T14:23:29.679Z</time></trkpt><trkpt lat="40.7824817" lon="9.1689817"><ele>237.66666666666666</ele><time>2026-05-01T14:23:30.679Z</time></trkpt><trkpt lat="40.7825133" lon="9.169195"><ele>237.33333333333331</ele><time>2026-05-01T14:23:31.68Z</time></trkpt><trkpt lat="40.78255" lon="9.1694267"><ele>237.0</ele><time>2026-05-01T14:23:32.679Z</time></trkpt><trkpt lat="40.7825833" lon="9.1696233"><ele>237.0</ele><time>2026-05-01T14:23:33.679Z</time></trkpt><trkpt lat="40.782615" lon="9.1698517"><ele>237.0</ele><time>2026-05-01T14:23:34.679Z</time></trkpt><trkpt lat="40.7826433" lon="9.170075"><ele>237.0</ele><time>2026-05-01T14:23:35.679Z</time></trkpt><trkpt lat="40.782675" lon="9.170295"><ele>238.66666666666669</ele><time>2026-05-01T14:23:36.679Z</time></trkpt><trkpt lat="40.7827067" lon="9.17051"><ele>240.33333333333334</ele><time>2026-05-01T14:23:37.679Z</time></trkpt><trkpt lat="40.7827283" lon="9.1707133"><ele>242.0</ele><time>2026-05-01T14:23:38.679Z</time></trkpt><trkpt lat="40.782765" lon="9.1709083"><ele>242.0</ele><time>2026-05-01T14:23:39.679Z</time></trkpt><trkpt lat="40.7827983" lon="9.1710917"><ele>242.0</ele><time>2026-05-01T14:23:40.679Z</time></trkpt><trkpt lat="40.782825" lon="9.171295"><ele>242.0</ele><time>2026-05-01T14:23:41.679Z</time></trkpt><trkpt lat="40.7828617" lon="9.171485"><ele>242.0</ele><time>2026-05-01T14:23:42.679Z</time></trkpt><trkpt lat="40.7829133" lon="9.1716683"><ele>240.25</ele><time>2026-05-01T14:23:43.679Z</time></trkpt><trkpt lat="40.7829633" lon="9.1718517"><ele>238.5</ele><time>2026-05-01T14:23:44.679Z</time></trkpt><trkpt lat="40.78301" lon="9.172025"><ele>236.75</ele><time>2026-05-01T14:23:45.679Z</time></trkpt><trkpt lat="40.7830533" lon="9.172195"><ele>235.0</ele><time>2026-05-01T14:23:46.679Z</time></trkpt><trkpt lat="40.783085" lon="9.1723633"><ele>234.25</ele><time>2026-05-01T14:23:47.679Z</time></trkpt><trkpt lat="40.783115" lon="9.17253"><ele>233.5</ele><time>2026-05-01T14:23:48.679Z</time></trkpt><trkpt lat="40.783125" lon="9.172705"><ele>232.75</ele><time>2026-05-01T14:23:49.68Z</time></trkpt><trkpt lat="40.7831117" lon="9.1728917"><ele>232.0</ele><time>2026-05-01T14:23:50.679Z</time></trkpt><trkpt lat="40.7830933" lon="9.17309"><ele>230.33333333333331</ele><time>2026-05-01T14:23:51.679Z</time></trkpt><trkpt lat="40.7830667" lon="9.1732883"><ele>228.66666666666669</ele><time>2026-05-01T14:23:52.679Z</time></trkpt><trkpt lat="40.783045" lon="9.1734967"><ele>227.0</ele><time>2026-05-01T14:23:53.679Z</time></trkpt><trkpt lat="40.783025" lon="9.1736933"><ele>227.0</ele><time>2026-05-01T14:23:54.679Z</time></trkpt><trkpt lat="40.78298" lon="9.173935"><ele>227.0</ele><time>2026-05-01T14:23:55.679Z</time></trkpt><trkpt lat="40.7829683" lon="9.17415"><ele>227.0</ele><time>2026-05-01T14:23:56.679Z</time></trkpt><trkpt lat="40.7830017" lon="9.17434"><ele>225.66666666666669</ele><time>2026-05-01T14:23:57.679Z</time></trkpt><trkpt lat="40.7830517" lon="9.1745233"><ele>224.33333333333331</ele><time>2026-05-01T14:23:58.68Z</time></trkpt><trkpt lat="40.783115" lon="9.1747217"><ele>223.0</ele><time>2026-05-01T14:23:59.679Z</time></trkpt><trkpt lat="40.7831933" lon="9.1749083"><ele>221.66666666666666</ele><time>2026-05-01T14:24:00.679Z</time></trkpt><trkpt lat="40.7832833" lon="9.175075"><ele>220.33333333333331</ele><time>2026-05-01T14:24:01.679Z</time></trkpt><trkpt lat="40.7833517" lon="9.175255"><ele>219.0</ele><time>2026-05-01T14:24:02.679Z</time></trkpt><trkpt lat="40.7834217" lon="9.1754483"><ele>219.0</ele><time>2026-05-01T14:24:03.679Z</time></trkpt><trkpt lat="40.7835017" lon="9.1756417"><ele>219.0</ele><time>2026-05-01T14:24:04.679Z</time></trkpt><trkpt lat="40.783565" lon="9.1758333"><ele>219.0</ele><time>2026-05-01T14:24:05.679Z</time></trkpt><trkpt lat="40.7836267" lon="9.1760183"><ele>219.0</ele><time>2026-05-01T14:24:06.679Z</time></trkpt><trkpt lat="40.78369" lon="9.1762083"><ele>219.0</ele><time>2026-05-01T14:24:07.68Z</time></trkpt><trkpt lat="40.7837517" lon="9.1764017"><ele>219.0</ele><time>2026-05-01T14:24:08.679Z</time></trkpt><trkpt lat="40.7838117" lon="9.1766017"><ele>218.0</ele><time>2026-05-01T14:24:09.679Z</time></trkpt><trkpt lat="40.783865" lon="9.1767883"><ele>217.0</ele><time>2026-05-01T14:24:10.679Z</time></trkpt><trkpt lat="40.7839167" lon="9.176985"><ele>216.0</ele><time>2026-05-01T14:24:11.679Z</time></trkpt><trkpt lat="40.783965" lon="9.1771817"><ele>215.0</ele><time>2026-05-01T14:24:12.679Z</time></trkpt><trkpt lat="40.784005" lon="9.1773867"><ele>214.0</ele><time>2026-05-01T14:24:13.679Z</time></trkpt><trkpt lat="40.784035" lon="9.17758"><ele>213.0</ele><time>2026-05-01T14:24:14.679Z</time></trkpt><trkpt lat="40.784075" lon="9.1777633"><ele>213.0</ele><time>2026-05-01T14:24:15.679Z</time></trkpt><trkpt lat="40.7841133" lon="9.17796"><ele>213.0</ele><time>2026-05-01T14:24:16.679Z</time></trkpt><trkpt lat="40.784175" lon="9.17815"><ele>213.0</ele><time>2026-05-01T14:24:17.679Z</time></trkpt><trkpt lat="40.7842483" lon="9.1783367"><ele>212.33333333333331</ele><time>2026-05-01T14:24:18.679Z</time></trkpt><trkpt lat="40.784325" lon="9.1785267"><ele>211.66666666666666</ele><time>2026-05-01T14:24:19.679Z</time></trkpt><trkpt lat="40.7844033" lon="9.178725"><ele>211.0</ele><time>2026-05-01T14:24:20.679Z</time></trkpt><trkpt lat="40.784505" lon="9.1789233"><ele>212.66666666666666</ele><time>2026-05-01T14:24:21.679Z</time></trkpt><trkpt lat="40.7845883" lon="9.1791367"><ele>214.33333333333331</ele><time>2026-05-01T14:24:22.679Z</time></trkpt><trkpt lat="40.7846717" lon="9.1793367"><ele>216.0</ele><time>2026-05-01T14:24:23.679Z</time></trkpt><trkpt lat="40.7847267" lon="9.1795283"><ele>216.0</ele><time>2026-05-01T14:24:24.679Z</time></trkpt><trkpt lat="40.784775" lon="9.1797383"><ele>216.0</ele><time>2026-05-01T14:24:25.679Z</time></trkpt><trkpt lat="40.78481" lon="9.1799667"><ele>216.0</ele><time>2026-05-01T14:24:26.679Z</time></trkpt><trkpt lat="40.7848317" lon="9.18018"><ele>216.33333333333331</ele><time>2026-05-01T14:24:27.679Z</time></trkpt><trkpt lat="40.7848517" lon="9.1804017"><ele>216.66666666666666</ele><time>2026-05-01T14:24:28.679Z</time></trkpt><trkpt lat="40.784865" lon="9.18062"><ele>217.0</ele><time>2026-05-01T14:24:29.679Z</time></trkpt><trkpt lat="40.78488" lon="9.1808417"><ele>217.0</ele><time>2026-05-01T14:24:30.679Z</time></trkpt><trkpt lat="40.7849" lon="9.1810483"><ele>217.0</ele><time>2026-05-01T14:24:31.679Z</time></trkpt><trkpt lat="40.78492" lon="9.1812617"><ele>217.0</ele><time>2026-05-01T14:24:32.679Z</time></trkpt><trkpt lat="40.7849283" lon="9.181475"><ele>216.75</ele><time>2026-05-01T14:24:33.679Z</time></trkpt><trkpt lat="40.78494" lon="9.1816767"><ele>216.5</ele><time>2026-05-01T14:24:34.679Z</time></trkpt><trkpt lat="40.7849367" lon="9.1818533"><ele>216.25</ele><time>2026-05-01T14:24:35.679Z</time></trkpt><trkpt lat="40.7849283" lon="9.18201"><ele>216.0</ele><time>2026-05-01T14:24:36.679Z</time></trkpt><trkpt lat="40.7849233" lon="9.1821817"><ele>216.0</ele><time>2026-05-01T14:24:37.679Z</time></trkpt><trkpt lat="40.7849417" lon="9.1823433"><ele>216.0</ele><time>2026-05-01T14:24:38.679Z</time></trkpt><trkpt lat="40.784965" lon="9.182505"><ele>216.0</ele><time>2026-05-01T14:24:39.679Z</time></trkpt><trkpt lat="40.7849783" lon="9.1826667"><ele>216.0</ele><time>2026-05-01T14:24:40.679Z</time></trkpt><trkpt lat="40.785015" lon="9.18282"><ele>216.5</ele><time>2026-05-01T14:24:41.68Z</time></trkpt><trkpt lat="40.7850533" lon="9.1829783"><ele>217.0</ele><time>2026-05-01T14:24:42.679Z</time></trkpt><trkpt lat="40.7851033" lon="9.1831483"><ele>217.5</ele><time>2026-05-01T14:24:43.679Z</time></trkpt><trkpt lat="40.785165" lon="9.1833267"><ele>218.0</ele><time>2026-05-01T14:24:44.679Z</time></trkpt><trkpt lat="40.7852433" lon="9.1834967"><ele>218.0</ele><time>2026-05-01T14:24:45.679Z</time></trkpt><trkpt lat="40.7853317" lon="9.1836683"><ele>218.0</ele><time>2026-05-01T14:24:46.679Z</time></trkpt><trkpt lat="40.78543" lon="9.1838417"><ele>218.0</ele><time>2026-05-01T14:24:47.679Z</time></trkpt><trkpt lat="40.785515" lon="9.1840183"><ele>217.33333333333334</ele><time>2026-05-01T14:24:48.679Z</time></trkpt><trkpt lat="40.7856067" lon="9.18419"><ele>216.66666666666669</ele><time>2026-05-01T14:24:49.679Z</time></trkpt><trkpt lat="40.7856883" lon="9.18437"><ele>216.0</ele><time>2026-05-01T14:24:50.679Z</time></trkpt><trkpt lat="40.7857633" lon="9.18455"><ele>216.0</ele><time>2026-05-01T14:24:51.679Z</time></trkpt><trkpt lat="40.78584" lon="9.184695"><ele>216.00000000000003</ele><time>2026-05-01T14:24:52.679Z</time></trkpt><trkpt lat="40.7859183" lon="9.1848117"><ele>216.00000000000003</ele><time>2026-05-01T14:24:53.679Z</time></trkpt><trkpt lat="40.7859817" lon="9.1849067"><ele>216.0</ele><time>2026-05-01T14:24:54.679Z</time></trkpt><trkpt lat="40.7860367" lon="9.1850067"><ele>216.0</ele><time>2026-05-01T14:24:55.679Z</time></trkpt><trkpt lat="40.7860867" lon="9.18512"><ele>217.0</ele><time>2026-05-01T14:24:56.679Z</time></trkpt><trkpt lat="40.7861367" lon="9.1852383"><ele>218.00000000000003</ele><time>2026-05-01T14:24:57.68Z</time></trkpt><trkpt lat="40.7861917" lon="9.1853533"><ele>219.00000000000003</ele><time>2026-05-01T14:24:58.679Z</time></trkpt><trkpt lat="40.7862533" lon="9.18547"><ele>220.0</ele><time>2026-05-01T14:24:59.679Z</time></trkpt><trkpt lat="40.78632" lon="9.1855917"><ele>221.0</ele><time>2026-05-01T14:25:00.679Z</time></trkpt><trkpt lat="40.786385" lon="9.1857083"><ele>221.4</ele><time>2026-05-01T14:25:01.679Z</time></trkpt><trkpt lat="40.7864433" lon="9.1858183"><ele>221.8</ele><time>2026-05-01T14:25:02.679Z</time></trkpt><trkpt lat="40.7864917" lon="9.18594"><ele>222.20000000000002</ele><time>2026-05-01T14:25:03.679Z</time></trkpt><trkpt lat="40.7865533" lon="9.1860683"><ele>222.60000000000002</ele><time>2026-05-01T14:25:04.679Z</time></trkpt><trkpt lat="40.7866183" lon="9.1862017"><ele>223.0</ele><time>2026-05-01T14:25:05.679Z</time></trkpt><trkpt lat="40.7866833" lon="9.1863283"><ele>223.0</ele><time>2026-05-01T14:25:06.679Z</time></trkpt><trkpt lat="40.7867567" lon="9.1864417"><ele>223.0</ele><time>2026-05-01T14:25:07.679Z</time></trkpt><trkpt lat="40.7868367" lon="9.1865633"><ele>223.0</ele><time>2026-05-01T14:25:08.679Z</time></trkpt><trkpt lat="40.7869133" lon="9.1866967"><ele>223.0</ele><time>2026-05-01T14:25:09.679Z</time></trkpt><trkpt lat="40.78699" lon="9.186825"><ele>224.5</ele><time>2026-05-01T14:25:10.679Z</time></trkpt><trkpt lat="40.7870583" lon="9.1869483"><ele>226.0</ele><time>2026-05-01T14:25:11.679Z</time></trkpt><trkpt lat="40.787125" lon="9.1870733"><ele>227.5</ele><time>2026-05-01T14:25:12.679Z</time></trkpt><trkpt lat="40.78719" lon="9.1871933"><ele>229.0</ele><time>2026-05-01T14:25:13.679Z</time></trkpt><trkpt lat="40.7872533" lon="9.187315"><ele>228.5</ele><time>2026-05-01T14:25:14.679Z</time></trkpt><trkpt lat="40.7873083" lon="9.18745"><ele>228.0</ele><time>2026-05-01T14:25:15.679Z</time></trkpt><trkpt lat="40.78735" lon="9.18759"><ele>227.5</ele><time>2026-05-01T14:25:16.679Z</time></trkpt><trkpt lat="40.7873917" lon="9.1877533"><ele>227.0</ele><time>2026-05-01T14:25:17.679Z</time></trkpt><trkpt lat="40.78744" lon="9.1879233"><ele>227.0</ele><time>2026-05-01T14:25:18.679Z</time></trkpt><trkpt lat="40.7874867" lon="9.188085"><ele>227.0</ele><time>2026-05-01T14:25:19.679Z</time></trkpt><trkpt lat="40.7875383" lon="9.1882267"><ele>227.0</ele><time>2026-05-01T14:25:20.679Z</time></trkpt><trkpt lat="40.7875867" lon="9.1883533"><ele>227.0</ele><time>2026-05-01T14:25:21.679Z</time></trkpt><trkpt lat="40.787645" lon="9.188465"><ele>226.0</ele><time>2026-05-01T14:25:22.679Z</time></trkpt><trkpt lat="40.7877217" lon="9.1885717"><ele>225.0</ele><time>2026-05-01T14:25:23.679Z</time></trkpt><trkpt lat="40.7877983" lon="9.18866"><ele>224.0</ele><time>2026-05-01T14:25:24.679Z</time></trkpt><trkpt lat="40.787895" lon="9.1887333"><ele>223.0</ele><time>2026-05-01T14:25:25.679Z</time></trkpt><trkpt lat="40.7879967" lon="9.1887783"><ele>222.0</ele><time>2026-05-01T14:25:26.679Z</time></trkpt><trkpt lat="40.78809" lon="9.18881"><ele>222.0</ele><time>2026-05-01T14:25:27.678Z</time></trkpt><trkpt lat="40.7881883" lon="9.18886"><ele>222.0</ele><time>2026-05-01T14:25:28.678Z</time></trkpt><trkpt lat="40.7882617" lon="9.1889"><ele>222.0</ele><time>2026-05-01T14:25:29.678Z</time></trkpt><trkpt lat="40.7883267" lon="9.18895"><ele>222.0</ele><time>2026-05-01T14:25:30.678Z</time></trkpt><trkpt lat="40.788385" lon="9.1890367"><ele>222.0</ele><time>2026-05-01T14:25:31.678Z</time></trkpt><trkpt lat="40.7884233" lon="9.1891483"><ele>222.0</ele><time>2026-05-01T14:25:32.678Z</time></trkpt><trkpt lat="40.7884783" lon="9.189255"><ele>223.75</ele><time>2026-05-01T14:25:33.678Z</time></trkpt><trkpt lat="40.7885367" lon="9.189385"><ele>225.5</ele><time>2026-05-01T14:25:34.678Z</time></trkpt><trkpt lat="40.7885867" lon="9.1895333"><ele>227.25</ele><time>2026-05-01T14:25:35.678Z</time></trkpt><trkpt lat="40.7886267" lon="9.1896883"><ele>229.0</ele><time>2026-05-01T14:25:36.678Z</time></trkpt><trkpt lat="40.788665" lon="9.1898417"><ele>229.0</ele><time>2026-05-01T14:25:37.678Z</time></trkpt><trkpt lat="40.7887033" lon="9.1899733"><ele>229.0</ele><time>2026-05-01T14:25:38.678Z</time></trkpt><trkpt lat="40.78874" lon="9.19011"><ele>229.0</ele><time>2026-05-01T14:25:39.678Z</time></trkpt><trkpt lat="40.788785" lon="9.1902667"><ele>229.0</ele><time>2026-05-01T14:25:40.678Z</time></trkpt><trkpt lat="40.7888167" lon="9.1904483"><ele>229.0</ele><time>2026-05-01T14:25:41.678Z</time></trkpt><trkpt lat="40.7888317" lon="9.1906467"><ele>229.0</ele><time>2026-05-01T14:25:42.678Z</time></trkpt><trkpt lat="40.7888633" lon="9.19083"><ele>229.0</ele><time>2026-05-01T14:25:43.678Z</time></trkpt><trkpt lat="40.7888883" lon="9.19104"><ele>229.66666666666666</ele><time>2026-05-01T14:25:44.678Z</time></trkpt><trkpt lat="40.7889517" lon="9.1912217"><ele>230.33333333333331</ele><time>2026-05-01T14:25:45.678Z</time></trkpt><trkpt lat="40.7889933" lon="9.1914333"><ele>231.0</ele><time>2026-05-01T14:25:46.678Z</time></trkpt><trkpt lat="40.7890283" lon="9.19166"><ele>231.0</ele><time>2026-05-01T14:25:47.678Z</time></trkpt><trkpt lat="40.7890683" lon="9.19186"><ele>231.0</ele><time>2026-05-01T14:25:48.678Z</time></trkpt><trkpt lat="40.7891167" lon="9.1920533"><ele>231.0</ele><time>2026-05-01T14:25:49.678Z</time></trkpt><trkpt lat="40.7891833" lon="9.19225"><ele>230.66666666666669</ele><time>2026-05-01T14:25:50.678Z</time></trkpt><trkpt lat="40.78927" lon="9.1924433"><ele>230.33333333333334</ele><time>2026-05-01T14:25:51.678Z</time></trkpt><trkpt lat="40.7893783" lon="9.1926167"><ele>230.0</ele><time>2026-05-01T14:25:52.678Z</time></trkpt><trkpt lat="40.7894683" lon="9.19279"><ele>231.5</ele><time>2026-05-01T14:25:53.678Z</time></trkpt><trkpt lat="40.7895483" lon="9.1929667"><ele>233.0</ele><time>2026-05-01T14:25:54.678Z</time></trkpt><trkpt lat="40.789625" lon="9.1931367"><ele>234.5</ele><time>2026-05-01T14:25:55.678Z</time></trkpt><trkpt lat="40.7897" lon="9.1932883"><ele>236.0</ele><time>2026-05-01T14:25:56.678Z</time></trkpt><trkpt lat="40.7897683" lon="9.1934433"><ele>236.33333333333334</ele><time>2026-05-01T14:25:57.678Z</time></trkpt><trkpt lat="40.78988" lon="9.1935867"><ele>236.66666666666669</ele><time>2026-05-01T14:25:58.678Z</time></trkpt><trkpt lat="40.7899917" lon="9.1937283"><ele>237.0</ele><time>2026-05-01T14:25:59.678Z</time></trkpt><trkpt lat="40.790115" lon="9.193845"><ele>238.5</ele><time>2026-05-01T14:26:00.678Z</time></trkpt><trkpt lat="40.7902217" lon="9.1939867"><ele>240.0</ele><time>2026-05-01T14:26:01.678Z</time></trkpt><trkpt lat="40.790325" lon="9.1941167"><ele>241.5</ele><time>2026-05-01T14:26:02.678Z</time></trkpt><trkpt lat="40.7904133" lon="9.1942667"><ele>243.0</ele><time>2026-05-01T14:26:03.678Z</time></trkpt><trkpt lat="40.79051" lon="9.19438"><ele>243.0</ele><time>2026-05-01T14:26:04.678Z</time></trkpt><trkpt lat="40.79062" lon="9.19447"><ele>243.0</ele><time>2026-05-01T14:26:05.678Z</time></trkpt><trkpt lat="40.790725" lon="9.19455"><ele>243.0</ele><time>2026-05-01T14:26:06.678Z</time></trkpt><trkpt lat="40.7908267" lon="9.1946333"><ele>243.0</ele><time>2026-05-01T14:26:07.678Z</time></trkpt><trkpt lat="40.7909217" lon="9.194725"><ele>244.5</ele><time>2026-05-01T14:26:08.678Z</time></trkpt><trkpt lat="40.791025" lon="9.1948233"><ele>246.0</ele><time>2026-05-01T14:26:09.678Z</time></trkpt><trkpt lat="40.7911033" lon="9.1949117"><ele>247.5</ele><time>2026-05-01T14:26:10.678Z</time></trkpt><trkpt lat="40.79117" lon="9.1950617"><ele>249.0</ele><time>2026-05-01T14:26:11.678Z</time></trkpt><trkpt lat="40.7912567" lon="9.1952"><ele>249.0</ele><time>2026-05-01T14:26:12.678Z</time></trkpt><trkpt lat="40.79135" lon="9.1953217"><ele>249.0</ele><time>2026-05-01T14:26:13.678Z</time></trkpt><trkpt lat="40.7914583" lon="9.1954183"><ele>249.0</ele><time>2026-05-01T14:26:14.678Z</time></trkpt><trkpt lat="40.7915983" lon="9.1954767"><ele>249.0</ele><time>2026-05-01T14:26:15.678Z</time></trkpt><trkpt lat="40.791735" lon="9.1955333"><ele>249.5</ele><time>2026-05-01T14:26:16.678Z</time></trkpt><trkpt lat="40.79187" lon="9.195605"><ele>250.0</ele><time>2026-05-01T14:26:17.678Z</time></trkpt><trkpt lat="40.79199" lon="9.19568"><ele>250.5</ele><time>2026-05-01T14:26:18.678Z</time></trkpt><trkpt lat="40.7920983" lon="9.1957617"><ele>251.0</ele><time>2026-05-01T14:26:19.679Z</time></trkpt><trkpt lat="40.7922083" lon="9.195845"><ele>251.0</ele><time>2026-05-01T14:26:20.678Z</time></trkpt><trkpt lat="40.7923183" lon="9.1959467"><ele>251.0</ele><time>2026-05-01T14:26:21.678Z</time></trkpt><trkpt lat="40.7924217" lon="9.1960567"><ele>251.0</ele><time>2026-05-01T14:26:22.678Z</time></trkpt><trkpt lat="40.7925033" lon="9.19614"><ele>251.0</ele><time>2026-05-01T14:26:23.678Z</time></trkpt><trkpt lat="40.7925683" lon="9.1962583"><ele>251.0</ele><time>2026-05-01T14:26:24.678Z</time></trkpt><trkpt lat="40.7926183" lon="9.1963783"><ele>251.0</ele><time>2026-05-01T14:26:25.678Z</time></trkpt><trkpt lat="40.7926767" lon="9.196505"><ele>251.0</ele><time>2026-05-01T14:26:26.678Z</time></trkpt><trkpt lat="40.792735" lon="9.1966333"><ele>251.0</ele><time>2026-05-01T14:26:27.678Z</time></trkpt><trkpt lat="40.7927833" lon="9.196785"><ele>252.66666666666669</ele><time>2026-05-01T14:26:28.678Z</time></trkpt><trkpt lat="40.79282" lon="9.196955"><ele>254.33333333333331</ele><time>2026-05-01T14:26:29.678Z</time></trkpt><trkpt lat="40.7928367" lon="9.1971483"><ele>256.0</ele><time>2026-05-01T14:26:30.679Z</time></trkpt><trkpt lat="40.7928217" lon="9.19738"><ele>256.0</ele><time>2026-05-01T14:26:31.678Z</time></trkpt><trkpt lat="40.7928567" lon="9.197565"><ele>256.0</ele><time>2026-05-01T14:26:32.678Z</time></trkpt><trkpt lat="40.7928967" lon="9.1977517"><ele>256.0</ele><time>2026-05-01T14:26:33.678Z</time></trkpt><trkpt lat="40.7929567" lon="9.197895"><ele>256.0</ele><time>2026-05-01T14:26:34.678Z</time></trkpt><trkpt lat="40.7930067" lon="9.1980683"><ele>255.33333333333331</ele><time>2026-05-01T14:26:35.678Z</time></trkpt><trkpt lat="40.79304" lon="9.198265"><ele>254.66666666666669</ele><time>2026-05-01T14:26:36.678Z</time></trkpt><trkpt lat="40.7930983" lon="9.1984567"><ele>254.0</ele><time>2026-05-01T14:26:37.678Z</time></trkpt><trkpt lat="40.793135" lon="9.1986817"><ele>254.0</ele><time>2026-05-01T14:26:38.678Z</time></trkpt><trkpt lat="40.793215" lon="9.198855"><ele>254.0</ele><time>2026-05-01T14:26:39.678Z</time></trkpt><trkpt lat="40.7933083" lon="9.1990133"><ele>254.0</ele><time>2026-05-01T14:26:40.678Z</time></trkpt><trkpt lat="40.7934183" lon="9.1991683"><ele>254.66666666666669</ele><time>2026-05-01T14:26:41.678Z</time></trkpt><trkpt lat="40.7935283" lon="9.19932"><ele>255.33333333333331</ele><time>2026-05-01T14:26:42.678Z</time></trkpt><trkpt lat="40.7936367" lon="9.1994783"><ele>256.0</ele><time>2026-05-01T14:26:43.678Z</time></trkpt><trkpt lat="40.7937417" lon="9.1996317"><ele>256.0</ele><time>2026-05-01T14:26:44.678Z</time></trkpt><trkpt lat="40.7938483" lon="9.1997867"><ele>256.0</ele><time>2026-05-01T14:26:45.678Z</time></trkpt><trkpt lat="40.7939517" lon="9.1999383"><ele>256.0</ele><time>2026-05-01T14:26:46.678Z</time></trkpt><trkpt lat="40.7940533" lon="9.2000917"><ele>255.5</ele><time>2026-05-01T14:26:47.678Z</time></trkpt><trkpt lat="40.7941417" lon="9.200235"><ele>255.0</ele><time>2026-05-01T14:26:48.678Z</time></trkpt><trkpt lat="40.7942133" lon="9.200405"><ele>254.5</ele><time>2026-05-01T14:26:49.678Z</time></trkpt><trkpt lat="40.7942783" lon="9.200575"><ele>254.0</ele><time>2026-05-01T14:26:50.678Z</time></trkpt><trkpt lat="40.7943483" lon="9.20073"><ele>256.33333333333337</ele><time>2026-05-01T14:26:51.678Z</time></trkpt><trkpt lat="40.7944117" lon="9.200905"><ele>258.6666666666667</ele><time>2026-05-01T14:26:52.678Z</time></trkpt><trkpt lat="40.7944933" lon="9.2011033"><ele>261.0</ele><time>2026-05-01T14:26:53.678Z</time></trkpt><trkpt lat="40.7945733" lon="9.2012667"><ele>261.0</ele><time>2026-05-01T14:26:54.679Z</time></trkpt><trkpt lat="40.79467" lon="9.2014217"><ele>261.0</ele><time>2026-05-01T14:26:55.678Z</time></trkpt><trkpt lat="40.7947717" lon="9.20157"><ele>261.0</ele><time>2026-05-01T14:26:56.678Z</time></trkpt><trkpt lat="40.7948783" lon="9.2016917"><ele>261.0</ele><time>2026-05-01T14:26:57.679Z</time></trkpt><trkpt lat="40.7949767" lon="9.2018033"><ele>261.0</ele><time>2026-05-01T14:26:58.678Z</time></trkpt><trkpt lat="40.79507" lon="9.20194"><ele>261.0</ele><time>2026-05-01T14:26:59.678Z</time></trkpt><trkpt lat="40.7951667" lon="9.2020817"><ele>261.0</ele><time>2026-05-01T14:27:00.678Z</time></trkpt><trkpt lat="40.795265" lon="9.2022283"><ele>261.0</ele><time>2026-05-01T14:27:01.678Z</time></trkpt><trkpt lat="40.7953767" lon="9.2023817"><ele>261.3333333333333</ele><time>2026-05-01T14:27:02.678Z</time></trkpt><trkpt lat="40.7954933" lon="9.2025383"><ele>261.66666666666663</ele><time>2026-05-01T14:27:03.678Z</time></trkpt><trkpt lat="40.7956067" lon="9.2026683"><ele>262.0</ele><time>2026-05-01T14:27:04.678Z</time></trkpt><trkpt lat="40.7957283" lon="9.2027883"><ele>262.0</ele><time>2026-05-01T14:27:05.678Z</time></trkpt><trkpt lat="40.7958383" lon="9.202925"><ele>262.0</ele><time>2026-05-01T14:27:06.678Z</time></trkpt><trkpt lat="40.795945" lon="9.2030533"><ele>262.0</ele><time>2026-05-01T14:27:07.678Z</time></trkpt><trkpt lat="40.7960517" lon="9.2031733"><ele>262.0</ele><time>2026-05-01T14:27:08.678Z</time></trkpt><trkpt lat="40.7961533" lon="9.2032567"><ele>262.8</ele><time>2026-05-01T14:27:09.678Z</time></trkpt><trkpt lat="40.79624" lon="9.2033183"><ele>263.6</ele><time>2026-05-01T14:27:10.678Z</time></trkpt><trkpt lat="40.7963183" lon="9.2034033"><ele>264.40000000000003</ele><time>2026-05-01T14:27:11.678Z</time></trkpt><trkpt lat="40.7963767" lon="9.2034883"><ele>265.2</ele><time>2026-05-01T14:27:12.678Z</time></trkpt><trkpt lat="40.79643" lon="9.2035833"><ele>266.0</ele><time>2026-05-01T14:27:13.678Z</time></trkpt><trkpt lat="40.7964783" lon="9.2036817"><ele>266.0</ele><time>2026-05-01T14:27:14.678Z</time></trkpt><trkpt lat="40.7965083" lon="9.2037767"><ele>266.0</ele><time>2026-05-01T14:27:15.678Z</time></trkpt><trkpt lat="40.7965233" lon="9.2038783"><ele>266.0</ele><time>2026-05-01T14:27:16.678Z</time></trkpt><trkpt lat="40.796535" lon="9.203995"><ele>266.0</ele><time>2026-05-01T14:27:17.678Z</time></trkpt><trkpt lat="40.7965483" lon="9.20413"><ele>266.0</ele><time>2026-05-01T14:27:18.678Z</time></trkpt><trkpt lat="40.7965767" lon="9.2042783"><ele>266.0</ele><time>2026-05-01T14:27:19.678Z</time></trkpt><trkpt lat="40.7966167" lon="9.204425"><ele>266.0</ele><time>2026-05-01T14:27:20.678Z</time></trkpt><trkpt lat="40.7966683" lon="9.20457"><ele>266.0</ele><time>2026-05-01T14:27:21.678Z</time></trkpt><trkpt lat="40.79672" lon="9.2047017"><ele>266.0</ele><time>2026-05-01T14:27:22.678Z</time></trkpt><trkpt lat="40.7967867" lon="9.204845"><ele>269.25</ele><time>2026-05-01T14:27:23.678Z</time></trkpt><trkpt lat="40.7968533" lon="9.2050017"><ele>272.5</ele><time>2026-05-01T14:27:24.678Z</time></trkpt><trkpt lat="40.7969267" lon="9.2051533"><ele>275.75</ele><time>2026-05-01T14:27:25.678Z</time></trkpt><trkpt lat="40.7970017" lon="9.20531"><ele>279.0</ele><time>2026-05-01T14:27:26.678Z</time></trkpt><trkpt lat="40.7970783" lon="9.2054717"><ele>279.0</ele><time>2026-05-01T14:27:27.678Z</time></trkpt><trkpt lat="40.7971617" lon="9.205635"><ele>279.0</ele><time>2026-05-01T14:27:28.678Z</time></trkpt><trkpt lat="40.797235" lon="9.2058033"><ele>279.0</ele><time>2026-05-01T14:27:29.678Z</time></trkpt><trkpt lat="40.7973033" lon="9.2059767"><ele>279.0</ele><time>2026-05-01T14:27:30.678Z</time></trkpt><trkpt lat="40.7973733" lon="9.206145"><ele>278.59999999999997</ele><time>2026-05-01T14:27:31.678Z</time></trkpt><trkpt lat="40.79744" lon="9.2062917"><ele>278.2</ele><time>2026-05-01T14:27:32.678Z</time></trkpt><trkpt lat="40.7974933" lon="9.2064033"><ele>277.79999999999995</ele><time>2026-05-01T14:27:33.678Z</time></trkpt><trkpt lat="40.7975417" lon="9.2065217"><ele>277.4</ele><time>2026-05-01T14:27:34.678Z</time></trkpt><trkpt lat="40.7975767" lon="9.20663"><ele>277.0</ele><time>2026-05-01T14:27:35.678Z</time></trkpt><trkpt lat="40.7975867" lon="9.2067433"><ele>276.8</ele><time>2026-05-01T14:27:36.678Z</time></trkpt><trkpt lat="40.7975883" lon="9.2068483"><ele>276.6</ele><time>2026-05-01T14:27:37.678Z</time></trkpt><trkpt lat="40.797575" lon="9.2069633"><ele>276.40000000000003</ele><time>2026-05-01T14:27:38.678Z</time></trkpt><trkpt lat="40.7975633" lon="9.2070817"><ele>276.2</ele><time>2026-05-01T14:27:39.678Z</time></trkpt><trkpt lat="40.7975633" lon="9.2072167"><ele>276.0</ele><time>2026-05-01T14:27:40.678Z</time></trkpt><trkpt lat="40.7975817" lon="9.207355"><ele>276.5</ele><time>2026-05-01T14:27:41.678Z</time></trkpt><trkpt lat="40.7976" lon="9.207515"><ele>277.0</ele><time>2026-05-01T14:27:42.678Z</time></trkpt><trkpt lat="40.79762" lon="9.2076683"><ele>277.5</ele><time>2026-05-01T14:27:43.678Z</time></trkpt><trkpt lat="40.7976433" lon="9.207825"><ele>278.0</ele><time>2026-05-01T14:27:44.678Z</time></trkpt><trkpt lat="40.7976583" lon="9.207985"><ele>278.0</ele><time>2026-05-01T14:27:45.678Z</time></trkpt><trkpt lat="40.7976567" lon="9.2081583"><ele>278.0</ele><time>2026-05-01T14:27:46.678Z</time></trkpt><trkpt lat="40.7976583" lon="9.2083217"><ele>278.0</ele><time>2026-05-01T14:27:47.678Z</time></trkpt><trkpt lat="40.7976517" lon="9.20849"><ele>278.0</ele><time>2026-05-01T14:27:48.678Z</time></trkpt><trkpt lat="40.7976483" lon="9.2086583"><ele>278.75</ele><time>2026-05-01T14:27:49.678Z</time></trkpt><trkpt lat="40.7976467" lon="9.2088267"><ele>279.5</ele><time>2026-05-01T14:27:50.678Z</time></trkpt><trkpt lat="40.7976517" lon="9.2089867"><ele>280.25</ele><time>2026-05-01T14:27:51.678Z</time></trkpt><trkpt lat="40.7976583" lon="9.209145"><ele>281.0</ele><time>2026-05-01T14:27:52.678Z</time></trkpt><trkpt lat="40.7976583" lon="9.2093017"><ele>283.6</ele><time>2026-05-01T14:27:53.678Z</time></trkpt><trkpt lat="40.797685" lon="9.2094317"><ele>286.20000000000005</ele><time>2026-05-01T14:27:54.678Z</time></trkpt><trkpt lat="40.7977217" lon="9.209535"><ele>288.79999999999995</ele><time>2026-05-01T14:27:55.678Z</time></trkpt><trkpt lat="40.7977767" lon="9.2096233"><ele>291.4</ele><time>2026-05-01T14:27:56.678Z</time></trkpt><trkpt lat="40.7978517" lon="9.2097317"><ele>294.0</ele><time>2026-05-01T14:27:57.678Z</time></trkpt><trkpt lat="40.7979233" lon="9.2098433"><ele>295.59999999999997</ele><time>2026-05-01T14:27:58.678Z</time></trkpt><trkpt lat="40.7979883" lon="9.2099583"><ele>297.2</ele><time>2026-05-01T14:27:59.678Z</time></trkpt><trkpt lat="40.798055" lon="9.2100733"><ele>298.79999999999995</ele><time>2026-05-01T14:28:00.678Z</time></trkpt><trkpt lat="40.7981167" lon="9.2101867"><ele>300.4</ele><time>2026-05-01T14:28:01.678Z</time></trkpt><trkpt lat="40.798195" lon="9.2102967"><ele>302.0</ele><time>2026-05-01T14:28:02.678Z</time></trkpt><trkpt lat="40.79828" lon="9.2104183"><ele>302.0</ele><time>2026-05-01T14:28:03.678Z</time></trkpt><trkpt lat="40.7983617" lon="9.2105333"><ele>302.0</ele><time>2026-05-01T14:28:04.678Z</time></trkpt><trkpt lat="40.7984417" lon="9.2106583"><ele>302.0</ele><time>2026-05-01T14:28:05.678Z</time></trkpt><trkpt lat="40.798515" lon="9.2108067"><ele>302.0</ele><time>2026-05-01T14:28:06.678Z</time></trkpt><trkpt lat="40.798575" lon="9.2109633"><ele>305.25</ele><time>2026-05-01T14:28:07.678Z</time></trkpt><trkpt lat="40.7986383" lon="9.2111083"><ele>308.5</ele><time>2026-05-01T14:28:08.678Z</time></trkpt><trkpt lat="40.7987033" lon="9.2112667"><ele>311.75</ele><time>2026-05-01T14:28:09.678Z</time></trkpt><trkpt lat="40.7988" lon="9.2113933"><ele>315.0</ele><time>2026-05-01T14:28:10.678Z</time></trkpt><trkpt lat="40.7988683" lon="9.211545"><ele>315.5</ele><time>2026-05-01T14:28:11.678Z</time></trkpt><trkpt lat="40.79893" lon="9.2117117"><ele>316.0</ele><time>2026-05-01T14:28:12.678Z</time></trkpt><trkpt lat="40.7989933" lon="9.2118583"><ele>316.5</ele><time>2026-05-01T14:28:13.678Z</time></trkpt><trkpt lat="40.7990483" lon="9.212015"><ele>317.0</ele><time>2026-05-01T14:28:14.678Z</time></trkpt><trkpt lat="40.7991017" lon="9.2121433"><ele>317.0</ele><time>2026-05-01T14:28:15.678Z</time></trkpt><trkpt lat="40.79916" lon="9.2122483"><ele>317.0</ele><time>2026-05-01T14:28:16.678Z</time></trkpt><trkpt lat="40.7991917" lon="9.2123417"><ele>317.0</ele><time>2026-05-01T14:28:17.678Z</time></trkpt><trkpt lat="40.7992117" lon="9.2124317"><ele>317.0</ele><time>2026-05-01T14:28:18.678Z</time></trkpt><trkpt lat="40.7992267" lon="9.2125367"><ele>317.0</ele><time>2026-05-01T14:28:19.678Z</time></trkpt><trkpt lat="40.7992383" lon="9.2126433"><ele>317.0</ele><time>2026-05-01T14:28:20.678Z</time></trkpt><trkpt lat="40.7992333" lon="9.2127433"><ele>317.0</ele><time>2026-05-01T14:28:21.678Z</time></trkpt><trkpt lat="40.7992233" lon="9.2128433"><ele>317.0</ele><time>2026-05-01T14:28:22.678Z</time></trkpt><trkpt lat="40.7991933" lon="9.2129367"><ele>317.0</ele><time>2026-05-01T14:28:23.678Z</time></trkpt><trkpt lat="40.79915" lon="9.2130383"><ele>317.0</ele><time>2026-05-01T14:28:24.678Z</time></trkpt><trkpt lat="40.7991183" lon="9.2131483"><ele>317.0</ele><time>2026-05-01T14:28:25.678Z</time></trkpt><trkpt lat="40.79909" lon="9.21326"><ele>317.0</ele><time>2026-05-01T14:28:26.678Z</time></trkpt><trkpt lat="40.7990767" lon="9.2133683"><ele>317.8</ele><time>2026-05-01T14:28:27.678Z</time></trkpt><trkpt lat="40.79907" lon="9.2134767"><ele>318.6</ele><time>2026-05-01T14:28:28.679Z</time></trkpt><trkpt lat="40.7990683" lon="9.2135867"><ele>319.40000000000003</ele><time>2026-05-01T14:28:29.678Z</time></trkpt><trkpt lat="40.7990967" lon="9.21371"><ele>320.2</ele><time>2026-05-01T14:28:30.678Z</time></trkpt><trkpt lat="40.7991667" lon="9.2138033"><ele>321.0</ele><time>2026-05-01T14:28:31.678Z</time></trkpt><trkpt lat="40.7992217" lon="9.2138967"><ele>323.20000000000005</ele><time>2026-05-01T14:28:32.678Z</time></trkpt><trkpt lat="40.7992467" lon="9.2140033"><ele>325.40000000000003</ele><time>2026-05-01T14:28:33.678Z</time></trkpt><trkpt lat="40.7992567" lon="9.214115"><ele>327.6</ele><time>2026-05-01T14:28:34.678Z</time></trkpt><trkpt lat="40.7992583" lon="9.2142417"><ele>329.8</ele><time>2026-05-01T14:28:35.678Z</time></trkpt><trkpt lat="40.79926" lon="9.2143583"><ele>332.0</ele><time>2026-05-01T14:28:36.678Z</time></trkpt><trkpt lat="40.7992517" lon="9.2144883"><ele>332.0</ele><time>2026-05-01T14:28:37.678Z</time></trkpt><trkpt lat="40.79923" lon="9.2146017"><ele>332.0</ele><time>2026-05-01T14:28:38.678Z</time></trkpt><trkpt lat="40.79921" lon="9.2147283"><ele>332.0</ele><time>2026-05-01T14:28:39.678Z</time></trkpt><trkpt lat="40.7991883" lon="9.214875"><ele>332.0</ele><time>2026-05-01T14:28:40.678Z</time></trkpt><trkpt lat="40.7991767" lon="9.21503"><ele>332.0</ele><time>2026-05-01T14:28:41.678Z</time></trkpt><trkpt lat="40.7991683" lon="9.2151783"><ele>335.25</ele><time>2026-05-01T14:28:42.678Z</time></trkpt><trkpt lat="40.799175" lon="9.215335"><ele>338.5</ele><time>2026-05-01T14:28:43.678Z</time></trkpt><trkpt lat="40.7992" lon="9.2154917"><ele>341.75</ele><time>2026-05-01T14:28:44.678Z</time></trkpt><trkpt lat="40.79922" lon="9.2156567"><ele>345.0</ele><time>2026-05-01T14:28:45.678Z</time></trkpt><trkpt lat="40.7992433" lon="9.2158283"><ele>347.5</ele><time>2026-05-01T14:28:46.678Z</time></trkpt><trkpt lat="40.7992717" lon="9.2159983"><ele>350.0</ele><time>2026-05-01T14:28:47.678Z</time></trkpt><trkpt lat="40.7993" lon="9.216175"><ele>352.5</ele><time>2026-05-01T14:28:48.678Z</time></trkpt><trkpt lat="40.7993267" lon="9.2163533"><ele>355.0</ele><time>2026-05-01T14:28:49.678Z</time></trkpt><trkpt lat="40.79935" lon="9.21652"><ele>362.5</ele><time>2026-05-01T14:28:50.678Z</time></trkpt><trkpt lat="40.7993717" lon="9.21669"><ele>370.0</ele><time>2026-05-01T14:28:51.678Z</time></trkpt><trkpt lat="40.79938" lon="9.2168517"><ele>377.5</ele><time>2026-05-01T14:28:52.679Z</time></trkpt><trkpt lat="40.7993883" lon="9.2170183"><ele>385.0</ele><time>2026-05-01T14:28:53.678Z</time></trkpt><trkpt lat="40.7993833" lon="9.2171883"><ele>384.75</ele><time>2026-05-01T14:28:54.678Z</time></trkpt><trkpt lat="40.799385" lon="9.217355"><ele>384.5</ele><time>2026-05-01T14:28:55.678Z</time></trkpt><trkpt lat="40.799385" lon="9.2175067"><ele>384.25</ele><time>2026-05-01T14:28:56.678Z</time></trkpt><trkpt lat="40.799385" lon="9.2176467"><ele>384.0</ele><time>2026-05-01T14:28:57.678Z</time></trkpt><trkpt lat="40.7993983" lon="9.2177867"><ele>384.0</ele><time>2026-05-01T14:28:58.678Z</time></trkpt><trkpt lat="40.79943" lon="9.217925"><ele>384.0</ele><time>2026-05-01T14:28:59.678Z</time></trkpt><trkpt lat="40.79947" lon="9.2180567"><ele>384.0</ele><time>2026-05-01T14:29:00.678Z</time></trkpt><trkpt lat="40.799535" lon="9.2181667"><ele>384.0</ele><time>2026-05-01T14:29:01.678Z</time></trkpt><trkpt lat="40.7996033" lon="9.2182983"><ele>384.0</ele><time>2026-05-01T14:29:02.678Z</time></trkpt><trkpt lat="40.799685" lon="9.2184333"><ele>383.75</ele><time>2026-05-01T14:29:03.678Z</time></trkpt><trkpt lat="40.7997633" lon="9.2185667"><ele>383.5</ele><time>2026-05-01T14:29:04.678Z</time></trkpt><trkpt lat="40.799835" lon="9.2186933"><ele>383.25</ele><time>2026-05-01T14:29:05.678Z</time></trkpt><trkpt lat="40.7999217" lon="9.218825"><ele>383.0</ele><time>2026-05-01T14:29:06.678Z</time></trkpt><trkpt lat="40.7999933" lon="9.218975"><ele>381.75</ele><time>2026-05-01T14:29:07.678Z</time></trkpt><trkpt lat="40.800055" lon="9.2191267"><ele>380.5</ele><time>2026-05-01T14:29:08.678Z</time></trkpt><trkpt lat="40.800125" lon="9.2192733"><ele>379.25</ele><time>2026-05-01T14:29:09.678Z</time></trkpt><trkpt lat="40.800195" lon="9.2194017"><ele>378.0</ele><time>2026-05-01T14:29:10.678Z</time></trkpt><trkpt lat="40.80027" lon="9.2195317"><ele>381.25</ele><time>2026-05-01T14:29:11.679Z</time></trkpt><trkpt lat="40.8003533" lon="9.2196633"><ele>384.5</ele><time>2026-05-01T14:29:12.678Z</time></trkpt><trkpt lat="40.8004433" lon="9.2198083"><ele>387.75</ele><time>2026-05-01T14:29:13.678Z</time></trkpt><trkpt lat="40.80054" lon="9.2199533"><ele>391.0</ele><time>2026-05-01T14:29:14.678Z</time></trkpt><trkpt lat="40.8006267" lon="9.2200883"><ele>391.0</ele><time>2026-05-01T14:29:15.678Z</time></trkpt><trkpt lat="40.80071" lon="9.2201933"><ele>391.0</ele><time>2026-05-01T14:29:16.678Z</time></trkpt><trkpt lat="40.8007817" lon="9.220285"><ele>391.0</ele><time>2026-05-01T14:29:17.678Z</time></trkpt><trkpt lat="40.800845" lon="9.2203633"><ele>391.0</ele><time>2026-05-01T14:29:18.678Z</time></trkpt><trkpt lat="40.8009633" lon="9.2203967"><ele>391.0</ele><time>2026-05-01T14:29:20.678Z</time></trkpt><trkpt lat="40.80103" lon="9.2203967"><ele>393.1428571428571</ele><time>2026-05-01T14:29:21.678Z</time></trkpt><trkpt lat="40.8011117" lon="9.220375"><ele>395.2857142857143</ele><time>2026-05-01T14:29:22.678Z</time></trkpt><trkpt lat="40.801185" lon="9.2203717"><ele>397.42857142857144</ele><time>2026-05-01T14:29:23.678Z</time></trkpt><trkpt lat="40.8012583" lon="9.2203717"><ele>399.57142857142856</ele><time>2026-05-01T14:29:24.678Z</time></trkpt><trkpt lat="40.8013283" lon="9.22039"><ele>401.7142857142857</ele><time>2026-05-01T14:29:25.678Z</time></trkpt><trkpt lat="40.80139" lon="9.2204117"><ele>403.85714285714283</ele><time>2026-05-01T14:29:26.679Z</time></trkpt><trkpt lat="40.8014633" lon="9.2204517"><ele>406.0</ele><time>2026-05-01T14:29:27.678Z</time></trkpt><trkpt lat="40.8015417" lon="9.2204933"><ele>406.0</ele><time>2026-05-01T14:29:28.679Z</time></trkpt><trkpt lat="40.80162" lon="9.2205517"><ele>406.0</ele><time>2026-05-01T14:29:29.678Z</time></trkpt><trkpt lat="40.8017017" lon="9.2206217"><ele>406.0</ele><time>2026-05-01T14:29:30.679Z</time></trkpt><trkpt lat="40.80178" lon="9.2207"><ele>406.0</ele><time>2026-05-01T14:29:31.678Z</time></trkpt><trkpt lat="40.8018433" lon="9.220795"><ele>406.0</ele><time>2026-05-01T14:29:32.678Z</time></trkpt><trkpt lat="40.801895" lon="9.22091"><ele>407.0</ele><time>2026-05-01T14:29:33.678Z</time></trkpt><trkpt lat="40.8019483" lon="9.2210417"><ele>408.0</ele><time>2026-05-01T14:29:34.678Z</time></trkpt><trkpt lat="40.80199" lon="9.22119"><ele>409.0</ele><time>2026-05-01T14:29:35.678Z</time></trkpt><trkpt lat="40.8020267" lon="9.2213683"><ele>410.0</ele><time>2026-05-01T14:29:36.678Z</time></trkpt><trkpt lat="40.8020483" lon="9.221585"><ele>406.0</ele><time>2026-05-01T14:29:37.678Z</time></trkpt><trkpt lat="40.8021" lon="9.221745"><ele>402.0</ele><time>2026-05-01T14:29:38.678Z</time></trkpt><trkpt lat="40.8021567" lon="9.2218917"><ele>398.0</ele><time>2026-05-01T14:29:39.678Z</time></trkpt><trkpt lat="40.8022117" lon="9.2220133"><ele>394.0</ele><time>2026-05-01T14:29:40.678Z</time></trkpt><trkpt lat="40.8022783" lon="9.2220967"><ele>394.00000000000006</ele><time>2026-05-01T14:29:41.678Z</time></trkpt><trkpt lat="40.8023517" lon="9.2221583"><ele>394.0</ele><time>2026-05-01T14:29:42.678Z</time></trkpt><trkpt lat="40.8024283" lon="9.2221867"><ele>394.0</ele><time>2026-05-01T14:29:43.678Z</time></trkpt><trkpt lat="40.802515" lon="9.22218"><ele>394.0</ele><time>2026-05-01T14:29:44.678Z</time></trkpt><trkpt lat="40.8026117" lon="9.222155"><ele>394.00000000000006</ele><time>2026-05-01T14:29:45.678Z</time></trkpt><trkpt lat="40.80269" lon="9.2221883"><ele>394.0</ele><time>2026-05-01T14:29:46.678Z</time></trkpt><trkpt lat="40.80277" lon="9.2222433"><ele>392.79999999999995</ele><time>2026-05-01T14:29:47.678Z</time></trkpt><trkpt lat="40.802835" lon="9.2223167"><ele>391.59999999999997</ele><time>2026-05-01T14:29:48.678Z</time></trkpt><trkpt lat="40.8029" lon="9.2224033"><ele>390.4</ele><time>2026-05-01T14:29:49.678Z</time></trkpt><trkpt lat="40.8029733" lon="9.2225033"><ele>389.2</ele><time>2026-05-01T14:29:50.678Z</time></trkpt><trkpt lat="40.8030667" lon="9.2226183"><ele>388.0</ele><time>2026-05-01T14:29:51.678Z</time></trkpt><trkpt lat="40.803165" lon="9.2227417"><ele>388.0</ele><time>2026-05-01T14:29:52.678Z</time></trkpt><trkpt lat="40.8032417" lon="9.2228633"><ele>388.0</ele><time>2026-05-01T14:29:53.678Z</time></trkpt><trkpt lat="40.8033167" lon="9.22299"><ele>388.0</ele><time>2026-05-01T14:29:54.678Z</time></trkpt><trkpt lat="40.80339" lon="9.2231067"><ele>388.0</ele><time>2026-05-01T14:29:55.678Z</time></trkpt><trkpt lat="40.8034467" lon="9.2232133"><ele>388.1666666666667</ele><time>2026-05-01T14:29:56.678Z</time></trkpt><trkpt lat="40.8035" lon="9.2233183"><ele>388.33333333333337</ele><time>2026-05-01T14:29:57.678Z</time></trkpt><trkpt lat="40.803525" lon="9.22343"><ele>388.5</ele><time>2026-05-01T14:29:58.678Z</time></trkpt><trkpt lat="40.8035483" lon="9.2235383"><ele>388.66666666666663</ele><time>2026-05-01T14:29:59.678Z</time></trkpt><trkpt lat="40.803545" lon="9.223655"><ele>388.8333333333333</ele><time>2026-05-01T14:30:00.678Z</time></trkpt><trkpt lat="40.80352" lon="9.2237667"><ele>389.0</ele><time>2026-05-01T14:30:01.679Z</time></trkpt><trkpt lat="40.8035" lon="9.2238917"><ele>383.25</ele><time>2026-05-01T14:30:02.678Z</time></trkpt><trkpt lat="40.8034033" lon="9.2239983"><ele>377.5</ele><time>2026-05-01T14:30:03.678Z</time></trkpt><trkpt lat="40.8033017" lon="9.224095"><ele>371.75</ele><time>2026-05-01T14:30:04.678Z</time></trkpt><trkpt lat="40.8031533" lon="9.2242017"><ele>366.0</ele><time>2026-05-01T14:30:05.678Z</time></trkpt><trkpt lat="40.803045" lon="9.224315"><ele>366.0</ele><time>2026-05-01T14:30:06.678Z</time></trkpt><trkpt lat="40.8029483" lon="9.2244383"><ele>366.0</ele><time>2026-05-01T14:30:07.678Z</time></trkpt><trkpt lat="40.802865" lon="9.2245567"><ele>366.0</ele><time>2026-05-01T14:30:08.678Z</time></trkpt><trkpt lat="40.802795" lon="9.2246883"><ele>366.0</ele><time>2026-05-01T14:30:09.678Z</time></trkpt><trkpt lat="40.8027317" lon="9.2248317"><ele>364.75</ele><time>2026-05-01T14:30:10.678Z</time></trkpt><trkpt lat="40.8026817" lon="9.2249783"><ele>363.5</ele><time>2026-05-01T14:30:11.678Z</time></trkpt><trkpt lat="40.8026383" lon="9.2251433"><ele>362.25</ele><time>2026-05-01T14:30:12.678Z</time></trkpt><trkpt lat="40.8025883" lon="9.2253217"><ele>361.0</ele><time>2026-05-01T14:30:13.678Z</time></trkpt><trkpt lat="40.802545" lon="9.2254817"><ele>358.0</ele><time>2026-05-01T14:30:14.678Z</time></trkpt><trkpt lat="40.8025067" lon="9.22563"><ele>355.0</ele><time>2026-05-01T14:30:15.678Z</time></trkpt><trkpt lat="40.8024867" lon="9.2257717"><ele>352.0</ele><time>2026-05-01T14:30:16.678Z</time></trkpt><trkpt lat="40.80247" lon="9.2259133"><ele>349.0</ele><time>2026-05-01T14:30:17.678Z</time></trkpt><trkpt lat="40.8024683" lon="9.22606"><ele>346.0</ele><time>2026-05-01T14:30:18.678Z</time></trkpt><trkpt lat="40.80248" lon="9.2261983"><ele>345.0</ele><time>2026-05-01T14:30:19.679Z</time></trkpt><trkpt lat="40.8024967" lon="9.226335"><ele>344.0</ele><time>2026-05-01T14:30:20.678Z</time></trkpt><trkpt lat="40.80253" lon="9.2264467"><ele>343.0</ele><time>2026-05-01T14:30:21.678Z</time></trkpt><trkpt lat="40.802605" lon="9.2265067"><ele>342.0</ele><time>2026-05-01T14:30:22.678Z</time></trkpt><trkpt lat="40.8026867" lon="9.226585"><ele>341.0</ele><time>2026-05-01T14:30:23.678Z</time></trkpt><trkpt lat="40.8027717" lon="9.2266917"><ele>341.0</ele><time>2026-05-01T14:30:24.678Z</time></trkpt><trkpt lat="40.8028533" lon="9.2268217"><ele>341.0</ele><time>2026-05-01T14:30:25.678Z</time></trkpt><trkpt lat="40.80293" lon="9.2269533"><ele>341.0</ele><time>2026-05-01T14:30:26.678Z</time></trkpt><trkpt lat="40.8029933" lon="9.2270933"><ele>341.0</ele><time>2026-05-01T14:30:27.678Z</time></trkpt><trkpt lat="40.8030617" lon="9.2272467"><ele>338.25</ele><time>2026-05-01T14:30:28.678Z</time></trkpt><trkpt lat="40.8031217" lon="9.227395"><ele>335.5</ele><time>2026-05-01T14:30:29.678Z</time></trkpt><trkpt lat="40.803175" lon="9.2275267"><ele>332.75</ele><time>2026-05-01T14:30:30.678Z</time></trkpt><trkpt lat="40.803235" lon="9.2276517"><ele>330.0</ele><time>2026-05-01T14:30:31.678Z</time></trkpt><trkpt lat="40.8032933" lon="9.2277617"><ele>330.0</ele><time>2026-05-01T14:30:32.678Z</time></trkpt><trkpt lat="40.8033817" lon="9.2278467"><ele>330.0</ele><time>2026-05-01T14:30:33.678Z</time></trkpt><trkpt lat="40.8034883" lon="9.2279267"><ele>330.0</ele><time>2026-05-01T14:30:34.678Z</time></trkpt><trkpt lat="40.8035833" lon="9.2279833"><ele>330.0</ele><time>2026-05-01T14:30:35.678Z</time></trkpt><trkpt lat="40.8036783" lon="9.2280483"><ele>330.0</ele><time>2026-05-01T14:30:36.678Z</time></trkpt><trkpt lat="40.8037633" lon="9.2281117"><ele>330.0</ele><time>2026-05-01T14:30:37.678Z</time></trkpt><trkpt lat="40.8038517" lon="9.22819"><ele>330.0</ele><time>2026-05-01T14:30:38.678Z</time></trkpt><trkpt lat="40.8039433" lon="9.2282867"><ele>330.0</ele><time>2026-05-01T14:30:39.678Z</time></trkpt><trkpt lat="40.80403" lon="9.2283917"><ele>330.0</ele><time>2026-05-01T14:30:40.678Z</time></trkpt><trkpt lat="40.8041067" lon="9.2284933"><ele>330.0</ele><time>2026-05-01T14:30:41.678Z</time></trkpt><trkpt lat="40.8042017" lon="9.2285817"><ele>330.0</ele><time>2026-05-01T14:30:42.678Z</time></trkpt><trkpt lat="40.8043033" lon="9.2286817"><ele>330.0</ele><time>2026-05-01T14:30:43.678Z</time></trkpt><trkpt lat="40.8044133" lon="9.2287717"><ele>330.0</ele><time>2026-05-01T14:30:44.678Z</time></trkpt><trkpt lat="40.8045183" lon="9.2288633"><ele>329.75</ele><time>2026-05-01T14:30:45.678Z</time></trkpt><trkpt lat="40.804625" lon="9.2289517"><ele>329.5</ele><time>2026-05-01T14:30:46.678Z</time></trkpt><trkpt lat="40.8047383" lon="9.2290283"><ele>329.25</ele><time>2026-05-01T14:30:47.678Z</time></trkpt><trkpt lat="40.8048417" lon="9.22911"><ele>329.0</ele><time>2026-05-01T14:30:48.678Z</time></trkpt><trkpt lat="40.80494" lon="9.2291817"><ele>327.75</ele><time>2026-05-01T14:30:49.678Z</time></trkpt><trkpt lat="40.8050333" lon="9.22926"><ele>326.5</ele><time>2026-05-01T14:30:50.678Z</time></trkpt><trkpt lat="40.805125" lon="9.2293483"><ele>325.25</ele><time>2026-05-01T14:30:51.678Z</time></trkpt><trkpt lat="40.8052133" lon="9.2294567"><ele>324.0</ele><time>2026-05-01T14:30:52.678Z</time></trkpt><trkpt lat="40.8053033" lon="9.2295583"><ele>324.0</ele><time>2026-05-01T14:30:53.678Z</time></trkpt><trkpt lat="40.80541" lon="9.22964"><ele>324.0</ele><time>2026-05-01T14:30:54.678Z</time></trkpt><trkpt lat="40.80551" lon="9.229735"><ele>324.0</ele><time>2026-05-01T14:30:55.678Z</time></trkpt><trkpt lat="40.8056117" lon="9.2298467"><ele>324.0</ele><time>2026-05-01T14:30:56.678Z</time></trkpt><trkpt lat="40.80571" lon="9.2299783"><ele>323.75</ele><time>2026-05-01T14:30:57.678Z</time></trkpt><trkpt lat="40.8057967" lon="9.2301083"><ele>323.5</ele><time>2026-05-01T14:30:58.678Z</time></trkpt><trkpt lat="40.8058767" lon="9.2302217"><ele>323.25</ele><time>2026-05-01T14:30:59.678Z</time></trkpt><trkpt lat="40.80596" lon="9.230345"><ele>323.0</ele><time>2026-05-01T14:31:00.678Z</time></trkpt><trkpt lat="40.8060467" lon="9.230455"><ele>324.25</ele><time>2026-05-01T14:31:01.678Z</time></trkpt><trkpt lat="40.806135" lon="9.2305683"><ele>325.5</ele><time>2026-05-01T14:31:02.678Z</time></trkpt><trkpt lat="40.8062083" lon="9.2306817"><ele>326.75</ele><time>2026-05-01T14:31:03.678Z</time></trkpt><trkpt lat="40.80628" lon="9.2307883"><ele>328.0</ele><time>2026-05-01T14:31:04.678Z</time></trkpt><trkpt lat="40.8063533" lon="9.2308917"><ele>328.0</ele><time>2026-05-01T14:31:05.679Z</time></trkpt><trkpt lat="40.8064367" lon="9.23096"><ele>328.0</ele><time>2026-05-01T14:31:06.678Z</time></trkpt><trkpt lat="40.80652" lon="9.23102"><ele>328.0</ele><time>2026-05-01T14:31:07.678Z</time></trkpt><trkpt lat="40.806605" lon="9.231075"><ele>328.0</ele><time>2026-05-01T14:31:08.678Z</time></trkpt><trkpt lat="40.806695" lon="9.2311567"><ele>328.0</ele><time>2026-05-01T14:31:09.678Z</time></trkpt><trkpt lat="40.8067783" lon="9.23124"><ele>330.2</ele><time>2026-05-01T14:31:10.678Z</time></trkpt><trkpt lat="40.806865" lon="9.231345"><ele>332.4</ele><time>2026-05-01T14:31:11.678Z</time></trkpt><trkpt lat="40.8069367" lon="9.2314483"><ele>334.59999999999997</ele><time>2026-05-01T14:31:12.678Z</time></trkpt><trkpt lat="40.80701" lon="9.2315533"><ele>336.79999999999995</ele><time>2026-05-01T14:31:13.678Z</time></trkpt><trkpt lat="40.80709" lon="9.2316667"><ele>339.0</ele><time>2026-05-01T14:31:14.678Z</time></trkpt><trkpt lat="40.8071833" lon="9.231775"><ele>339.0</ele><time>2026-05-01T14:31:15.678Z</time></trkpt><trkpt lat="40.8072917" lon="9.2319067"><ele>339.0</ele><time>2026-05-01T14:31:16.678Z</time></trkpt><trkpt lat="40.8074" lon="9.2320317"><ele>339.0</ele><time>2026-05-01T14:31:17.678Z</time></trkpt><trkpt lat="40.807495" lon="9.232155"><ele>339.0</ele><time>2026-05-01T14:31:18.678Z</time></trkpt><trkpt lat="40.8075967" lon="9.2323067"><ele>344.0</ele><time>2026-05-01T14:31:19.678Z</time></trkpt><trkpt lat="40.8077" lon="9.2324617"><ele>349.0</ele><time>2026-05-01T14:31:20.678Z</time></trkpt><trkpt lat="40.807805" lon="9.2326167"><ele>354.0</ele><time>2026-05-01T14:31:21.678Z</time></trkpt><trkpt lat="40.807905" lon="9.232755"><ele>354.0</ele><time>2026-05-01T14:31:22.678Z</time></trkpt><trkpt lat="40.8079817" lon="9.2328683"><ele>354.0</ele><time>2026-05-01T14:31:23.678Z</time></trkpt><trkpt lat="40.80805" lon="9.2329767"><ele>354.0</ele><time>2026-05-01T14:31:24.678Z</time></trkpt><trkpt lat="40.8080933" lon="9.2330683"><ele>354.0</ele><time>2026-05-01T14:31:25.678Z</time></trkpt><trkpt lat="40.8081133" lon="9.2331567"><ele>354.0</ele><time>2026-05-01T14:31:26.678Z</time></trkpt><trkpt lat="40.8081133" lon="9.2332483"><ele>354.0</ele><time>2026-05-01T14:31:27.678Z</time></trkpt><trkpt lat="40.808095" lon="9.233335"><ele>350.0</ele><time>2026-05-01T14:31:28.678Z</time></trkpt><trkpt lat="40.80805" lon="9.2334133"><ele>346.0</ele><time>2026-05-01T14:31:29.678Z</time></trkpt><trkpt lat="40.8079567" lon="9.2334883"><ele>342.0</ele><time>2026-05-01T14:31:30.678Z</time></trkpt><trkpt lat="40.8078683" lon="9.2335417"><ele>338.0</ele><time>2026-05-01T14:31:31.678Z</time></trkpt><trkpt lat="40.8078133" lon="9.2336267"><ele>334.0</ele><time>2026-05-01T14:31:32.678Z</time></trkpt><trkpt lat="40.8076667" lon="9.2337017"><ele>330.0</ele><time>2026-05-01T14:31:33.678Z</time></trkpt><trkpt lat="40.8075633" lon="9.233805"><ele>326.0</ele><time>2026-05-01T14:31:34.678Z</time></trkpt><trkpt lat="40.8074533" lon="9.23391"><ele>322.0</ele><time>2026-05-01T14:31:35.678Z</time></trkpt><trkpt lat="40.8073667" lon="9.2340283"><ele>318.0</ele><time>2026-05-01T14:31:36.678Z</time></trkpt><trkpt lat="40.8072867" lon="9.2341383"><ele>317.5</ele><time>2026-05-01T14:31:37.678Z</time></trkpt><trkpt lat="40.8072" lon="9.2342483"><ele>317.0</ele><time>2026-05-01T14:31:38.678Z</time></trkpt><trkpt lat="40.80712" lon="9.2343533"><ele>316.5</ele><time>2026-05-01T14:31:39.678Z</time></trkpt><trkpt lat="40.80699" lon="9.2345133"><ele>316.0</ele><time>2026-05-01T14:31:40.678Z</time></trkpt><trkpt lat="40.80691" lon="9.2346317"><ele>316.0</ele><time>2026-05-01T14:31:41.678Z</time></trkpt><trkpt lat="40.8068317" lon="9.2347383"><ele>316.0</ele><time>2026-05-01T14:31:42.678Z</time></trkpt><trkpt lat="40.8067617" lon="9.2348483"><ele>316.0</ele><time>2026-05-01T14:31:43.678Z</time></trkpt><trkpt lat="40.8066767" lon="9.2349517"><ele>316.0</ele><time>2026-05-01T14:31:44.678Z</time></trkpt><trkpt lat="40.8066333" lon="9.2350533"><ele>316.0</ele><time>2026-05-01T14:31:45.678Z</time></trkpt><trkpt lat="40.8066167" lon="9.2351783"><ele>316.2</ele><time>2026-05-01T14:31:46.678Z</time></trkpt><trkpt lat="40.8066117" lon="9.2352967"><ele>316.40000000000003</ele><time>2026-05-01T14:31:47.678Z</time></trkpt><trkpt lat="40.8065883" lon="9.235415"><ele>316.6</ele><time>2026-05-01T14:31:48.678Z</time></trkpt><trkpt lat="40.8065633" lon="9.2355183"><ele>316.8</ele><time>2026-05-01T14:31:49.678Z</time></trkpt><trkpt lat="40.8065283" lon="9.235635"><ele>317.0</ele><time>2026-05-01T14:31:51.678Z</time></trkpt><trkpt lat="40.8064767" lon="9.235735"><ele>317.0</ele><time>2026-05-01T14:31:54.678Z</time></trkpt><trkpt lat="40.8063467" lon="9.2358333"><ele>317.0</ele><time>2026-05-01T14:31:56.677Z</time></trkpt><trkpt lat="40.8062617" lon="9.2358833"><ele>317.0</ele><time>2026-05-01T14:31:57.677Z</time></trkpt><trkpt lat="40.8061483" lon="9.235935"><ele>317.0</ele><time>2026-05-01T14:31:58.677Z</time></trkpt><trkpt lat="40.80603" lon="9.23599"><ele>314.75</ele><time>2026-05-01T14:31:59.677Z</time></trkpt><trkpt lat="40.8059033" lon="9.236055"><ele>312.5</ele><time>2026-05-01T14:32:00.677Z</time></trkpt><trkpt lat="40.80579" lon="9.2361267"><ele>310.25</ele><time>2026-05-01T14:32:01.677Z</time></trkpt><trkpt lat="40.8056783" lon="9.2361917"><ele>308.0</ele><time>2026-05-01T14:32:02.677Z</time></trkpt><trkpt lat="40.80557" lon="9.2362667"><ele>308.0</ele><time>2026-05-01T14:32:03.677Z</time></trkpt><trkpt lat="40.8054683" lon="9.23635"><ele>308.0</ele><time>2026-05-01T14:32:04.677Z</time></trkpt><trkpt lat="40.8053717" lon="9.236445"><ele>308.0</ele><time>2026-05-01T14:32:05.677Z</time></trkpt><trkpt lat="40.80527" lon="9.236555"><ele>308.0</ele><time>2026-05-01T14:32:06.677Z</time></trkpt><trkpt lat="40.8051833" lon="9.2366933"><ele>307.5</ele><time>2026-05-01T14:32:07.677Z</time></trkpt><trkpt lat="40.805105" lon="9.23684"><ele>307.0</ele><time>2026-05-01T14:32:08.677Z</time></trkpt><trkpt lat="40.8050333" lon="9.236995"><ele>306.5</ele><time>2026-05-01T14:32:09.677Z</time></trkpt><trkpt lat="40.80496" lon="9.2371483"><ele>306.0</ele><time>2026-05-01T14:32:10.677Z</time></trkpt><trkpt lat="40.8048983" lon="9.23732"><ele>306.0</ele><time>2026-05-01T14:32:11.677Z</time></trkpt><trkpt lat="40.80483" lon="9.2374783"><ele>306.0</ele><time>2026-05-01T14:32:12.677Z</time></trkpt><trkpt lat="40.804765" lon="9.2376367"><ele>306.0</ele><time>2026-05-01T14:32:13.677Z</time></trkpt><trkpt lat="40.8047083" lon="9.2377983"><ele>306.0</ele><time>2026-05-01T14:32:14.677Z</time></trkpt><trkpt lat="40.8046567" lon="9.23796"><ele>306.0</ele><time>2026-05-01T14:32:15.677Z</time></trkpt><trkpt lat="40.8046" lon="9.238125"><ele>306.0</ele><time>2026-05-01T14:32:16.678Z</time></trkpt><trkpt lat="40.8045367" lon="9.2382733"><ele>306.0</ele><time>2026-05-01T14:32:17.677Z</time></trkpt><trkpt lat="40.8044817" lon="9.23843"><ele>306.0</ele><time>2026-05-01T14:32:18.677Z</time></trkpt><trkpt lat="40.80442" lon="9.2385883"><ele>306.5</ele><time>2026-05-01T14:32:19.677Z</time></trkpt><trkpt lat="40.8043583" lon="9.2387417"><ele>307.0</ele><time>2026-05-01T14:32:20.677Z</time></trkpt><trkpt lat="40.80428" lon="9.238885"><ele>307.5</ele><time>2026-05-01T14:32:21.677Z</time></trkpt><trkpt lat="40.80421" lon="9.238995"><ele>308.0</ele><time>2026-05-01T14:32:22.677Z</time></trkpt><trkpt lat="40.80414" lon="9.23908"><ele>305.2</ele><time>2026-05-01T14:32:23.677Z</time></trkpt><trkpt lat="40.8040833" lon="9.23916"><ele>302.4</ele><time>2026-05-01T14:32:24.677Z</time></trkpt><trkpt lat="40.804" lon="9.2392533"><ele>299.59999999999997</ele><time>2026-05-01T14:32:26.677Z</time></trkpt><trkpt lat="40.80399" lon="9.2393733"><ele>296.8</ele><time>2026-05-01T14:32:28.677Z</time></trkpt><trkpt lat="40.8041033" lon="9.2393933"><ele>294.0</ele><time>2026-05-01T14:32:29.677Z</time></trkpt><trkpt lat="40.8042233" lon="9.2394467"><ele>294.0</ele><time>2026-05-01T14:32:30.677Z</time></trkpt><trkpt lat="40.804305" lon="9.2395183"><ele>294.0</ele><time>2026-05-01T14:32:31.677Z</time></trkpt><trkpt lat="40.804405" lon="9.2396017"><ele>294.0</ele><time>2026-05-01T14:32:32.677Z</time></trkpt><trkpt lat="40.8044917" lon="9.2396967"><ele>294.0</ele><time>2026-05-01T14:32:33.678Z</time></trkpt><trkpt lat="40.804575" lon="9.2398267"><ele>296.0</ele><time>2026-05-01T14:32:34.677Z</time></trkpt><trkpt lat="40.8046417" lon="9.23996"><ele>298.0</ele><time>2026-05-01T14:32:35.677Z</time></trkpt><trkpt lat="40.8046967" lon="9.240095"><ele>300.0</ele><time>2026-05-01T14:32:36.677Z</time></trkpt><trkpt lat="40.8047583" lon="9.2402317"><ele>302.0</ele><time>2026-05-01T14:32:37.677Z</time></trkpt><trkpt lat="40.8048167" lon="9.2403617"><ele>302.0</ele><time>2026-05-01T14:32:38.677Z</time></trkpt><trkpt lat="40.804865" lon="9.240495"><ele>302.0</ele><time>2026-05-01T14:32:39.677Z</time></trkpt><trkpt lat="40.8048867" lon="9.2406833"><ele>302.0</ele><time>2026-05-01T14:32:40.677Z</time></trkpt><trkpt lat="40.8049217" lon="9.240835"><ele>302.0</ele><time>2026-05-01T14:32:41.677Z</time></trkpt><trkpt lat="40.8049233" lon="9.241035"><ele>303.0</ele><time>2026-05-01T14:32:42.678Z</time></trkpt><trkpt lat="40.8049317" lon="9.2412333"><ele>304.0</ele><time>2026-05-01T14:32:43.677Z</time></trkpt><trkpt lat="40.8049433" lon="9.24143"><ele>305.0</ele><time>2026-05-01T14:32:44.678Z</time></trkpt><trkpt lat="40.8049517" lon="9.241645"><ele>306.33333333333337</ele><time>2026-05-01T14:32:45.677Z</time></trkpt><trkpt lat="40.804945" lon="9.2419"><ele>307.6666666666667</ele><time>2026-05-01T14:32:46.677Z</time></trkpt><trkpt lat="40.8049467" lon="9.24211"><ele>309.0</ele><time>2026-05-01T14:32:47.677Z</time></trkpt><trkpt lat="40.8049533" lon="9.2423417"><ele>309.6666666666667</ele><time>2026-05-01T14:32:48.677Z</time></trkpt><trkpt lat="40.8049633" lon="9.242575"><ele>310.33333333333337</ele><time>2026-05-01T14:32:49.677Z</time></trkpt><trkpt lat="40.80498" lon="9.24282"><ele>311.0</ele><time>2026-05-01T14:32:50.677Z</time></trkpt><trkpt lat="40.805" lon="9.2430433"><ele>312.33333333333337</ele><time>2026-05-01T14:32:51.677Z</time></trkpt><trkpt lat="40.805025" lon="9.2432733"><ele>313.6666666666667</ele><time>2026-05-01T14:32:52.677Z</time></trkpt><trkpt lat="40.805045" lon="9.2435017"><ele>315.0</ele><time>2026-05-01T14:32:53.677Z</time></trkpt><trkpt lat="40.8050667" lon="9.2437167"><ele>315.0</ele><time>2026-05-01T14:32:54.677Z</time></trkpt><trkpt lat="40.8050867" lon="9.243935"><ele>315.0</ele><time>2026-05-01T14:32:55.677Z</time></trkpt><trkpt lat="40.8051267" lon="9.244145"><ele>315.0</ele><time>2026-05-01T14:32:56.677Z</time></trkpt><trkpt lat="40.8051683" lon="9.2443367"><ele>320.3333333333333</ele><time>2026-05-01T14:32:57.677Z</time></trkpt><trkpt lat="40.80522" lon="9.24454"><ele>325.66666666666663</ele><time>2026-05-01T14:32:58.677Z</time></trkpt><trkpt lat="40.805275" lon="9.2447333"><ele>331.0</ele><time>2026-05-01T14:32:59.677Z</time></trkpt><trkpt lat="40.8053283" lon="9.244935"><ele>331.0</ele><time>2026-05-01T14:33:00.677Z</time></trkpt><trkpt lat="40.8053883" lon="9.2451367"><ele>331.0</ele><time>2026-05-01T14:33:01.678Z</time></trkpt><trkpt lat="40.8054433" lon="9.24534"><ele>331.0</ele><time>2026-05-01T14:33:02.677Z</time></trkpt><trkpt lat="40.80549" lon="9.24554"><ele>330.66666666666663</ele><time>2026-05-01T14:33:03.677Z</time></trkpt><trkpt lat="40.8055267" lon="9.245735"><ele>330.3333333333333</ele><time>2026-05-01T14:33:04.677Z</time></trkpt><trkpt lat="40.8055667" lon="9.2459417"><ele>330.0</ele><time>2026-05-01T14:33:05.677Z</time></trkpt><trkpt lat="40.80561" lon="9.2461517"><ele>330.0</ele><time>2026-05-01T14:33:06.677Z</time></trkpt><trkpt lat="40.805645" lon="9.246355"><ele>330.0</ele><time>2026-05-01T14:33:07.677Z</time></trkpt><trkpt lat="40.805675" lon="9.2465383"><ele>330.0</ele><time>2026-05-01T14:33:08.677Z</time></trkpt><trkpt lat="40.8057217" lon="9.246735"><ele>329.6666666666667</ele><time>2026-05-01T14:33:09.677Z</time></trkpt><trkpt lat="40.8057667" lon="9.2469467"><ele>329.33333333333337</ele><time>2026-05-01T14:33:10.677Z</time></trkpt><trkpt lat="40.8058117" lon="9.2471467"><ele>329.0</ele><time>2026-05-01T14:33:11.677Z</time></trkpt><trkpt lat="40.8058817" lon="9.2473467"><ele>329.33333333333337</ele><time>2026-05-01T14:33:12.677Z</time></trkpt><trkpt lat="40.805965" lon="9.24753"><ele>329.6666666666667</ele><time>2026-05-01T14:33:13.677Z</time></trkpt><trkpt lat="40.80604" lon="9.2477367"><ele>330.0</ele><time>2026-05-01T14:33:14.677Z</time></trkpt><trkpt lat="40.8061067" lon="9.2479417"><ele>328.0</ele><time>2026-05-01T14:33:15.677Z</time></trkpt><trkpt lat="40.8061767" lon="9.24814"><ele>326.0</ele><time>2026-05-01T14:33:16.677Z</time></trkpt><trkpt lat="40.8062433" lon="9.2483317"><ele>324.0</ele><time>2026-05-01T14:33:17.677Z</time></trkpt><trkpt lat="40.80631" lon="9.2485083"><ele>324.0</ele><time>2026-05-01T14:33:18.678Z</time></trkpt><trkpt lat="40.8063633" lon="9.2486933"><ele>324.0</ele><time>2026-05-01T14:33:19.677Z</time></trkpt><trkpt lat="40.8064283" lon="9.2488683"><ele>324.0</ele><time>2026-05-01T14:33:20.677Z</time></trkpt><trkpt lat="40.80649" lon="9.24905"><ele>324.0</ele><time>2026-05-01T14:33:21.678Z</time></trkpt><trkpt lat="40.80655" lon="9.249235"><ele>323.3333333333333</ele><time>2026-05-01T14:33:22.677Z</time></trkpt><trkpt lat="40.8066133" lon="9.249425"><ele>322.66666666666663</ele><time>2026-05-01T14:33:23.677Z</time></trkpt><trkpt lat="40.806665" lon="9.249625"><ele>322.0</ele><time>2026-05-01T14:33:24.677Z</time></trkpt><trkpt lat="40.80671" lon="9.2498317"><ele>323.0</ele><time>2026-05-01T14:33:25.677Z</time></trkpt><trkpt lat="40.806755" lon="9.25004"><ele>324.0</ele><time>2026-05-01T14:33:26.677Z</time></trkpt><trkpt lat="40.806795" lon="9.2502583"><ele>325.0</ele><time>2026-05-01T14:33:27.677Z</time></trkpt><trkpt lat="40.80685" lon="9.25046"><ele>323.0</ele><time>2026-05-01T14:33:28.677Z</time></trkpt><trkpt lat="40.8069167" lon="9.2506533"><ele>321.0</ele><time>2026-05-01T14:33:29.677Z</time></trkpt><trkpt lat="40.806995" lon="9.2508383"><ele>319.0</ele><time>2026-05-01T14:33:30.677Z</time></trkpt><trkpt lat="40.807075" lon="9.25101"><ele>319.0</ele><time>2026-05-01T14:33:31.677Z</time></trkpt><trkpt lat="40.80715" lon="9.2511983"><ele>319.0</ele><time>2026-05-01T14:33:32.677Z</time></trkpt><trkpt lat="40.8072283" lon="9.2513783"><ele>319.0</ele><time>2026-05-01T14:33:33.677Z</time></trkpt><trkpt lat="40.8072933" lon="9.2515733"><ele>316.66666666666663</ele><time>2026-05-01T14:33:34.677Z</time></trkpt><trkpt lat="40.8073517" lon="9.2517767"><ele>314.3333333333333</ele><time>2026-05-01T14:33:35.677Z</time></trkpt><trkpt lat="40.8074133" lon="9.251975"><ele>312.0</ele><time>2026-05-01T14:33:36.677Z</time></trkpt><trkpt lat="40.8074767" lon="9.2521583"><ele>312.6666666666667</ele><time>2026-05-01T14:33:37.677Z</time></trkpt><trkpt lat="40.807545" lon="9.25235"><ele>313.33333333333337</ele><time>2026-05-01T14:33:38.677Z</time></trkpt><trkpt lat="40.8076333" lon="9.2525317"><ele>314.0</ele><time>2026-05-01T14:33:39.677Z</time></trkpt><trkpt lat="40.807725" lon="9.2527133"><ele>314.0</ele><time>2026-05-01T14:33:40.677Z</time></trkpt><trkpt lat="40.807805" lon="9.2528983"><ele>314.0</ele><time>2026-05-01T14:33:41.677Z</time></trkpt><trkpt lat="40.807875" lon="9.253075"><ele>314.0</ele><time>2026-05-01T14:33:42.677Z</time></trkpt><trkpt lat="40.80795" lon="9.2532483"><ele>312.0</ele><time>2026-05-01T14:33:43.677Z</time></trkpt><trkpt lat="40.8080017" lon="9.253395"><ele>310.0</ele><time>2026-05-01T14:33:44.677Z</time></trkpt><trkpt lat="40.80806" lon="9.2535367"><ele>308.0</ele><time>2026-05-01T14:33:45.677Z</time></trkpt><trkpt lat="40.8081167" lon="9.2536467"><ele>306.0</ele><time>2026-05-01T14:33:46.677Z</time></trkpt><trkpt lat="40.8081733" lon="9.2537817"><ele>306.0</ele><time>2026-05-01T14:33:47.677Z</time></trkpt><trkpt lat="40.8082367" lon="9.2539267"><ele>306.0</ele><time>2026-05-01T14:33:48.677Z</time></trkpt><trkpt lat="40.8082967" lon="9.2540867"><ele>306.0</ele><time>2026-05-01T14:33:49.677Z</time></trkpt><trkpt lat="40.8083483" lon="9.25426"><ele>306.0</ele><time>2026-05-01T14:33:50.677Z</time></trkpt><trkpt lat="40.8084017" lon="9.254455"><ele>305.0</ele><time>2026-05-01T14:33:51.677Z</time></trkpt><trkpt lat="40.80845" lon="9.2546617"><ele>304.0</ele><time>2026-05-01T14:33:52.677Z</time></trkpt><trkpt lat="40.8084917" lon="9.2548683"><ele>303.0</ele><time>2026-05-01T14:33:53.677Z</time></trkpt><trkpt lat="40.8085467" lon="9.2550667"><ele>303.0</ele><time>2026-05-01T14:33:54.677Z</time></trkpt><trkpt lat="40.808615" lon="9.2552767"><ele>303.0</ele><time>2026-05-01T14:33:55.677Z</time></trkpt><trkpt lat="40.8086467" lon="9.255465"><ele>303.0</ele><time>2026-05-01T14:33:56.677Z</time></trkpt><trkpt lat="40.808685" lon="9.2557"><ele>301.6666666666667</ele><time>2026-05-01T14:33:57.677Z</time></trkpt><trkpt lat="40.8087117" lon="9.2559117"><ele>300.33333333333337</ele><time>2026-05-01T14:33:58.677Z</time></trkpt><trkpt lat="40.808725" lon="9.2561033"><ele>299.0</ele><time>2026-05-01T14:33:59.677Z</time></trkpt><trkpt lat="40.8087567" lon="9.2562983"><ele>297.75</ele><time>2026-05-01T14:34:00.677Z</time></trkpt><trkpt lat="40.8087783" lon="9.2564733"><ele>296.5</ele><time>2026-05-01T14:34:01.677Z</time></trkpt><trkpt lat="40.8088117" lon="9.256655"><ele>295.25</ele><time>2026-05-01T14:34:02.677Z</time></trkpt><trkpt lat="40.8088667" lon="9.2568333"><ele>294.0</ele><time>2026-05-01T14:34:03.677Z</time></trkpt><trkpt lat="40.8089317" lon="9.257015"><ele>294.0</ele><time>2026-05-01T14:34:04.677Z</time></trkpt><trkpt lat="40.8089933" lon="9.2572167"><ele>294.0</ele><time>2026-05-01T14:34:05.677Z</time></trkpt><trkpt lat="40.8090867" lon="9.257385"><ele>294.0</ele><time>2026-05-01T14:34:06.677Z</time></trkpt><trkpt lat="40.8091983" lon="9.2575183"><ele>293.4</ele><time>2026-05-01T14:34:07.677Z</time></trkpt><trkpt lat="40.8092867" lon="9.2576133"><ele>292.79999999999995</ele><time>2026-05-01T14:34:08.677Z</time></trkpt><trkpt lat="40.8093467" lon="9.25769"><ele>292.20000000000005</ele><time>2026-05-01T14:34:09.677Z</time></trkpt><trkpt lat="40.8094183" lon="9.2578"><ele>291.6</ele><time>2026-05-01T14:34:10.677Z</time></trkpt><trkpt lat="40.80947" lon="9.2579333"><ele>291.0</ele><time>2026-05-01T14:34:11.677Z</time></trkpt><trkpt lat="40.8094983" lon="9.2580817"><ele>289.25</ele><time>2026-05-01T14:34:12.677Z</time></trkpt><trkpt lat="40.8095267" lon="9.2582533"><ele>287.5</ele><time>2026-05-01T14:34:13.677Z</time></trkpt><trkpt lat="40.809555" lon="9.2584367"><ele>285.75</ele><time>2026-05-01T14:34:14.677Z</time></trkpt><trkpt lat="40.8095867" lon="9.2586267"><ele>284.0</ele><time>2026-05-01T14:34:15.677Z</time></trkpt><trkpt lat="40.809645" lon="9.258815"><ele>283.0</ele><time>2026-05-01T14:34:16.677Z</time></trkpt><trkpt lat="40.8097167" lon="9.2590033"><ele>282.0</ele><time>2026-05-01T14:34:17.677Z</time></trkpt><trkpt lat="40.80976" lon="9.2592033"><ele>281.0</ele><time>2026-05-01T14:34:18.677Z</time></trkpt><trkpt lat="40.8098483" lon="9.2594017"><ele>281.0</ele><time>2026-05-01T14:34:19.677Z</time></trkpt><trkpt lat="40.809895" lon="9.2596083"><ele>281.0</ele><time>2026-05-01T14:34:20.677Z</time></trkpt><trkpt lat="40.8099483" lon="9.2598133"><ele>281.0</ele><time>2026-05-01T14:34:21.677Z</time></trkpt><trkpt lat="40.8099967" lon="9.26"><ele>280.0</ele><time>2026-05-01T14:34:22.677Z</time></trkpt><trkpt lat="40.8100217" lon="9.260195"><ele>279.0</ele><time>2026-05-01T14:34:23.677Z</time></trkpt><trkpt lat="40.810065" lon="9.2604017"><ele>278.0</ele><time>2026-05-01T14:34:24.677Z</time></trkpt><trkpt lat="40.81011" lon="9.2605933"><ele>276.33333333333337</ele><time>2026-05-01T14:34:25.677Z</time></trkpt><trkpt lat="40.810165" lon="9.26077"><ele>274.6666666666667</ele><time>2026-05-01T14:34:26.677Z</time></trkpt><trkpt lat="40.8102167" lon="9.2609583"><ele>273.0</ele><time>2026-05-01T14:34:27.677Z</time></trkpt><trkpt lat="40.8102917" lon="9.26115"><ele>273.0</ele><time>2026-05-01T14:34:28.677Z</time></trkpt><trkpt lat="40.8103583" lon="9.261325"><ele>273.0</ele><time>2026-05-01T14:34:29.677Z</time></trkpt><trkpt lat="40.810425" lon="9.26153"><ele>273.0</ele><time>2026-05-01T14:34:30.677Z</time></trkpt><trkpt lat="40.8104967" lon="9.2617333"><ele>272.0</ele><time>2026-05-01T14:34:31.677Z</time></trkpt><trkpt lat="40.8105667" lon="9.2619283"><ele>271.0</ele><time>2026-05-01T14:34:32.677Z</time></trkpt><trkpt lat="40.8106133" lon="9.2621233"><ele>270.0</ele><time>2026-05-01T14:34:33.677Z</time></trkpt><trkpt lat="40.8106733" lon="9.26231"><ele>269.5</ele><time>2026-05-01T14:34:34.677Z</time></trkpt><trkpt lat="40.81073" lon="9.2624983"><ele>269.0</ele><time>2026-05-01T14:34:35.677Z</time></trkpt><trkpt lat="40.8107733" lon="9.2626817"><ele>268.5</ele><time>2026-05-01T14:34:36.677Z</time></trkpt><trkpt lat="40.8107933" lon="9.2628683"><ele>268.0</ele><time>2026-05-01T14:34:37.677Z</time></trkpt><trkpt lat="40.810785" lon="9.2630583"><ele>268.0</ele><time>2026-05-01T14:34:38.677Z</time></trkpt><trkpt lat="40.810805" lon="9.2632183"><ele>268.0</ele><time>2026-05-01T14:34:39.677Z</time></trkpt><trkpt lat="40.8108167" lon="9.2633517"><ele>268.0</ele><time>2026-05-01T14:34:40.677Z</time></trkpt><trkpt lat="40.8108367" lon="9.2634667"><ele>268.0</ele><time>2026-05-01T14:34:41.677Z</time></trkpt><trkpt lat="40.81087" lon="9.26358"><ele>268.0</ele><time>2026-05-01T14:34:42.677Z</time></trkpt><trkpt lat="40.8109167" lon="9.2636883"><ele>268.0</ele><time>2026-05-01T14:34:43.677Z</time></trkpt><trkpt lat="40.8109883" lon="9.2637667"><ele>268.0</ele><time>2026-05-01T14:34:44.677Z</time></trkpt><trkpt lat="40.8110483" lon="9.26382"><ele>268.0</ele><time>2026-05-01T14:34:45.677Z</time></trkpt><trkpt lat="40.8111267" lon="9.26383"><ele>268.0</ele><time>2026-05-01T14:34:46.677Z</time></trkpt><trkpt lat="40.8112017" lon="9.2638283"><ele>268.0</ele><time>2026-05-01T14:34:47.677Z</time></trkpt><trkpt lat="40.8113" lon="9.2638083"><ele>268.0</ele><time>2026-05-01T14:34:48.677Z</time></trkpt><trkpt lat="40.8114117" lon="9.2637633"><ele>268.0</ele><time>2026-05-01T14:34:49.677Z</time></trkpt><trkpt lat="40.8115067" lon="9.26375"><ele>268.0</ele><time>2026-05-01T14:34:50.677Z</time></trkpt><trkpt lat="40.8116117" lon="9.2637383"><ele>268.0</ele><time>2026-05-01T14:34:51.677Z</time></trkpt><trkpt lat="40.8116933" lon="9.2637683"><ele>268.0</ele><time>2026-05-01T14:34:52.677Z</time></trkpt><trkpt lat="40.81177" lon="9.263815"><ele>268.0</ele><time>2026-05-01T14:34:53.677Z</time></trkpt><trkpt lat="40.8118417" lon="9.2638767"><ele>268.8333333333333</ele><time>2026-05-01T14:34:54.677Z</time></trkpt><trkpt lat="40.81191" lon="9.263935"><ele>269.66666666666663</ele><time>2026-05-01T14:34:55.677Z</time></trkpt><trkpt lat="40.811975" lon="9.2639933"><ele>270.5</ele><time>2026-05-01T14:34:56.677Z</time></trkpt><trkpt lat="40.8120367" lon="9.264055"><ele>271.3333333333333</ele><time>2026-05-01T14:34:57.677Z</time></trkpt><trkpt lat="40.8120967" lon="9.264115"><ele>272.1666666666667</ele><time>2026-05-01T14:34:58.677Z</time></trkpt><trkpt lat="40.812155" lon="9.264185"><ele>273.0</ele><time>2026-05-01T14:34:59.677Z</time></trkpt><trkpt lat="40.8122217" lon="9.2642517"><ele>273.0</ele><time>2026-05-01T14:35:00.677Z</time></trkpt><trkpt lat="40.8122767" lon="9.264315"><ele>273.0</ele><time>2026-05-01T14:35:01.678Z</time></trkpt><trkpt lat="40.812345" lon="9.2644"><ele>273.0</ele><time>2026-05-01T14:35:03.677Z</time></trkpt><trkpt lat="40.8123533" lon="9.2644933"><ele>273.0</ele><time>2026-05-01T14:35:26.677Z</time></trkpt><trkpt lat="40.8123267" lon="9.2646033"><ele>273.0</ele><time>2026-05-01T14:35:28.677Z</time></trkpt><trkpt lat="40.8123117" lon="9.2646883"><ele>273.0</ele><time>2026-05-01T14:35:29.677Z</time></trkpt><trkpt lat="40.8122967" lon="9.26489"><ele>272.5</ele><time>2026-05-01T14:35:31.677Z</time></trkpt><trkpt lat="40.8123" lon="9.2650467"><ele>272.0</ele><time>2026-05-01T14:35:32.677Z</time></trkpt><trkpt lat="40.8122967" lon="9.2651967"><ele>271.5</ele><time>2026-05-01T14:35:33.677Z</time></trkpt><trkpt lat="40.8122967" lon="9.26535"><ele>271.0</ele><time>2026-05-01T14:35:34.677Z</time></trkpt><trkpt lat="40.8122967" lon="9.2655"><ele>270.5</ele><time>2026-05-01T14:35:35.677Z</time></trkpt><trkpt lat="40.8122983" lon="9.2656483"><ele>270.0</ele><time>2026-05-01T14:35:36.677Z</time></trkpt><trkpt lat="40.8123033" lon="9.2657933"><ele>269.5</ele><time>2026-05-01T14:35:37.677Z</time></trkpt><trkpt lat="40.8123133" lon="9.2659533"><ele>269.0</ele><time>2026-05-01T14:35:38.677Z</time></trkpt><trkpt lat="40.8123317" lon="9.2661117"><ele>269.0</ele><time>2026-05-01T14:35:39.677Z</time></trkpt><trkpt lat="40.8123717" lon="9.2662667"><ele>269.0</ele><time>2026-05-01T14:35:40.677Z</time></trkpt><trkpt lat="40.8124083" lon="9.266425"><ele>269.0</ele><time>2026-05-01T14:35:41.677Z</time></trkpt><trkpt lat="40.8124467" lon="9.2665867"><ele>269.0</ele><time>2026-05-01T14:35:42.677Z</time></trkpt><trkpt lat="40.812525" lon="9.266925"><ele>268.75</ele><time>2026-05-01T14:35:44.677Z</time></trkpt><trkpt lat="40.8125817" lon="9.267075"><ele>268.5</ele><time>2026-05-01T14:35:45.677Z</time></trkpt><trkpt lat="40.8126617" lon="9.2672433"><ele>268.25</ele><time>2026-05-01T14:35:46.677Z</time></trkpt><trkpt lat="40.812725" lon="9.267405"><ele>268.0</ele><time>2026-05-01T14:35:47.677Z</time></trkpt><trkpt lat="40.8127783" lon="9.2675667"><ele>269.5</ele><time>2026-05-01T14:35:48.677Z</time></trkpt><trkpt lat="40.812825" lon="9.2677267"><ele>271.0</ele><time>2026-05-01T14:35:49.677Z</time></trkpt><trkpt lat="40.8128483" lon="9.2678833"><ele>272.5</ele><time>2026-05-01T14:35:50.677Z</time></trkpt><trkpt lat="40.8129183" lon="9.2680033"><ele>274.0</ele><time>2026-05-01T14:35:51.677Z</time></trkpt><trkpt lat="40.8129717" lon="9.2681317"><ele>275.8</ele><time>2026-05-01T14:35:52.677Z</time></trkpt><trkpt lat="40.8130083" lon="9.2682583"><ele>277.59999999999997</ele><time>2026-05-01T14:35:53.677Z</time></trkpt><trkpt lat="40.813045" lon="9.2683883"><ele>279.4</ele><time>2026-05-01T14:35:54.677Z</time></trkpt><trkpt lat="40.8130717" lon="9.2685117"><ele>281.2</ele><time>2026-05-01T14:35:55.677Z</time></trkpt><trkpt lat="40.8130833" lon="9.26867"><ele>283.0</ele><time>2026-05-01T14:35:56.677Z</time></trkpt><trkpt lat="40.8130983" lon="9.2688133"><ele>284.0</ele><time>2026-05-01T14:35:57.677Z</time></trkpt><trkpt lat="40.81312" lon="9.2689667"><ele>285.0</ele><time>2026-05-01T14:35:58.677Z</time></trkpt><trkpt lat="40.8131483" lon="9.2691083"><ele>286.0</ele><time>2026-05-01T14:35:59.677Z</time></trkpt><trkpt lat="40.813215" lon="9.26938"><ele>287.0</ele><time>2026-05-01T14:36:01.677Z</time></trkpt><trkpt lat="40.813255" lon="9.2695333"><ele>287.0</ele><time>2026-05-01T14:36:02.677Z</time></trkpt><trkpt lat="40.813295" lon="9.2696867"><ele>287.0</ele><time>2026-05-01T14:36:03.677Z</time></trkpt><trkpt lat="40.8133317" lon="9.2698333"><ele>287.0</ele><time>2026-05-01T14:36:04.677Z</time></trkpt><trkpt lat="40.8133817" lon="9.2699867"><ele>287.0</ele><time>2026-05-01T14:36:05.677Z</time></trkpt><trkpt lat="40.813435" lon="9.2701433"><ele>289.5</ele><time>2026-05-01T14:36:06.677Z</time></trkpt><trkpt lat="40.81349" lon="9.27031"><ele>292.0</ele><time>2026-05-01T14:36:07.678Z</time></trkpt><trkpt lat="40.81355" lon="9.270485"><ele>294.5</ele><time>2026-05-01T14:36:08.677Z</time></trkpt><trkpt lat="40.81359" lon="9.2706683"><ele>297.0</ele><time>2026-05-01T14:36:09.677Z</time></trkpt><trkpt lat="40.8136133" lon="9.2708717"><ele>298.6666666666667</ele><time>2026-05-01T14:36:10.677Z</time></trkpt><trkpt lat="40.8136217" lon="9.2710783"><ele>300.33333333333337</ele><time>2026-05-01T14:36:11.677Z</time></trkpt><trkpt lat="40.8136333" lon="9.271285"><ele>302.0</ele><time>2026-05-01T14:36:12.677Z</time></trkpt><trkpt lat="40.81366" lon="9.2714983"><ele>302.33333333333337</ele><time>2026-05-01T14:36:13.677Z</time></trkpt><trkpt lat="40.8136867" lon="9.2717133"><ele>302.6666666666667</ele><time>2026-05-01T14:36:14.677Z</time></trkpt><trkpt lat="40.813715" lon="9.2719367"><ele>303.0</ele><time>2026-05-01T14:36:15.677Z</time></trkpt><trkpt lat="40.8137417" lon="9.2721517"><ele>304.25</ele><time>2026-05-01T14:36:16.677Z</time></trkpt><trkpt lat="40.81375" lon="9.2723417"><ele>305.5</ele><time>2026-05-01T14:36:17.677Z</time></trkpt><trkpt lat="40.8137667" lon="9.2724983"><ele>306.75</ele><time>2026-05-01T14:36:18.677Z</time></trkpt><trkpt lat="40.8138" lon="9.2726217"><ele>308.0</ele><time>2026-05-01T14:36:19.677Z</time></trkpt><trkpt lat="40.8138383" lon="9.2727467"><ele>308.0</ele><time>2026-05-01T14:36:20.677Z</time></trkpt><trkpt lat="40.81398" lon="9.2730083"><ele>308.0</ele><time>2026-05-01T14:36:22.677Z</time></trkpt><trkpt lat="40.8140617" lon="9.2731383"><ele>308.0</ele><time>2026-05-01T14:36:23.677Z</time></trkpt><trkpt lat="40.814125" lon="9.2732733"><ele>306.75</ele><time>2026-05-01T14:36:24.677Z</time></trkpt><trkpt lat="40.8141783" lon="9.27342"><ele>305.5</ele><time>2026-05-01T14:36:25.677Z</time></trkpt><trkpt lat="40.8142033" lon="9.2735933"><ele>304.25</ele><time>2026-05-01T14:36:26.677Z</time></trkpt><trkpt lat="40.8142183" lon="9.2737517"><ele>303.0</ele><time>2026-05-01T14:36:27.677Z</time></trkpt><trkpt lat="40.8142517" lon="9.273895"><ele>301.75</ele><time>2026-05-01T14:36:28.677Z</time></trkpt><trkpt lat="40.8143033" lon="9.2740233"><ele>300.5</ele><time>2026-05-01T14:36:29.677Z</time></trkpt><trkpt lat="40.8143567" lon="9.2741583"><ele>299.25</ele><time>2026-05-01T14:36:30.677Z</time></trkpt><trkpt lat="40.81444" lon="9.2742583"><ele>298.0</ele><time>2026-05-01T14:36:31.677Z</time></trkpt><trkpt lat="40.8145183" lon="9.2743683"><ele>300.4</ele><time>2026-05-01T14:36:32.677Z</time></trkpt><trkpt lat="40.81459" lon="9.2744667"><ele>302.8</ele><time>2026-05-01T14:36:33.677Z</time></trkpt><trkpt lat="40.8146567" lon="9.2745633"><ele>305.2</ele><time>2026-05-01T14:36:34.677Z</time></trkpt><trkpt lat="40.8147233" lon="9.2746583"><ele>307.6</ele><time>2026-05-01T14:36:35.677Z</time></trkpt><trkpt lat="40.814785" lon="9.2747717"><ele>310.0</ele><time>2026-05-01T14:36:36.677Z</time></trkpt><trkpt lat="40.8148367" lon="9.2749183"><ele>310.0</ele><time>2026-05-01T14:36:37.677Z</time></trkpt><trkpt lat="40.8148767" lon="9.2750733"><ele>310.0</ele><time>2026-05-01T14:36:38.677Z</time></trkpt><trkpt lat="40.8149267" lon="9.2752317"><ele>310.0</ele><time>2026-05-01T14:36:39.677Z</time></trkpt><trkpt lat="40.8149667" lon="9.2753983"><ele>310.0</ele><time>2026-05-01T14:36:40.677Z</time></trkpt><trkpt lat="40.815005" lon="9.2755683"><ele>309.75</ele><time>2026-05-01T14:36:41.677Z</time></trkpt><trkpt lat="40.81505" lon="9.27572"><ele>309.5</ele><time>2026-05-01T14:36:42.677Z</time></trkpt><trkpt lat="40.8151033" lon="9.2758667"><ele>309.25</ele><time>2026-05-01T14:36:43.677Z</time></trkpt><trkpt lat="40.8151667" lon="9.2759967"><ele>309.0</ele><time>2026-05-01T14:36:44.677Z</time></trkpt><trkpt lat="40.81523" lon="9.2761233"><ele>313.0</ele><time>2026-05-01T14:36:45.677Z</time></trkpt><trkpt lat="40.8153017" lon="9.2762483"><ele>317.0</ele><time>2026-05-01T14:36:46.677Z</time></trkpt><trkpt lat="40.8153717" lon="9.27636"><ele>321.0</ele><time>2026-05-01T14:36:47.677Z</time></trkpt><trkpt lat="40.8154383" lon="9.2764883"><ele>325.0</ele><time>2026-05-01T14:36:48.677Z</time></trkpt><trkpt lat="40.8155067" lon="9.2766133"><ele>325.0</ele><time>2026-05-01T14:36:49.677Z</time></trkpt><trkpt lat="40.8155867" lon="9.2767583"><ele>325.0</ele><time>2026-05-01T14:36:50.677Z</time></trkpt><trkpt lat="40.8156617" lon="9.2768667"><ele>325.0</ele><time>2026-05-01T14:36:51.677Z</time></trkpt><trkpt lat="40.8157317" lon="9.27697"><ele>325.0</ele><time>2026-05-01T14:36:52.677Z</time></trkpt><trkpt lat="40.8157833" lon="9.2771083"><ele>326.0</ele><time>2026-05-01T14:36:53.677Z</time></trkpt><trkpt lat="40.8158883" lon="9.2773367"><ele>327.0</ele><time>2026-05-01T14:36:55.677Z</time></trkpt><trkpt lat="40.8159517" lon="9.2774633"><ele>328.0</ele><time>2026-05-01T14:36:56.677Z</time></trkpt><trkpt lat="40.8159933" lon="9.2775883"><ele>329.0</ele><time>2026-05-01T14:36:57.677Z</time></trkpt><trkpt lat="40.8160317" lon="9.2776933"><ele>329.0</ele><time>2026-05-01T14:36:58.677Z</time></trkpt><trkpt lat="40.8160517" lon="9.2777867"><ele>329.0</ele><time>2026-05-01T14:36:59.677Z</time></trkpt><trkpt lat="40.81603" lon="9.277935"><ele>329.0</ele><time>2026-05-01T14:37:01.677Z</time></trkpt><trkpt lat="40.8159817" lon="9.2780017"><ele>329.0</ele><time>2026-05-01T14:37:02.677Z</time></trkpt><trkpt lat="40.81591" lon="9.2780867"><ele>329.0</ele><time>2026-05-01T14:37:03.677Z</time></trkpt><trkpt lat="40.815855" lon="9.27819"><ele>330.2</ele><time>2026-05-01T14:37:04.677Z</time></trkpt><trkpt lat="40.8158133" lon="9.2782983"><ele>331.4</ele><time>2026-05-01T14:37:05.677Z</time></trkpt><trkpt lat="40.8157833" lon="9.27842"><ele>332.6</ele><time>2026-05-01T14:37:06.677Z</time></trkpt><trkpt lat="40.8157567" lon="9.278555"><ele>333.8</ele><time>2026-05-01T14:37:07.677Z</time></trkpt><trkpt lat="40.8157317" lon="9.2786783"><ele>335.0</ele><time>2026-05-01T14:37:08.677Z</time></trkpt><trkpt lat="40.8157167" lon="9.2788033"><ele>334.6</ele><time>2026-05-01T14:37:09.677Z</time></trkpt><trkpt lat="40.8156933" lon="9.2789367"><ele>334.2</ele><time>2026-05-01T14:37:10.677Z</time></trkpt><trkpt lat="40.8157067" lon="9.27907"><ele>333.79999999999995</ele><time>2026-05-01T14:37:11.677Z</time></trkpt><trkpt lat="40.8157283" lon="9.279215"><ele>333.4</ele><time>2026-05-01T14:37:12.677Z</time></trkpt><trkpt lat="40.8157217" lon="9.2793567"><ele>333.0</ele><time>2026-05-01T14:37:13.677Z</time></trkpt><trkpt lat="40.8157367" lon="9.2795467"><ele>333.0</ele><time>2026-05-01T14:37:14.677Z</time></trkpt><trkpt lat="40.81577" lon="9.2797517"><ele>333.0</ele><time>2026-05-01T14:37:15.677Z</time></trkpt><trkpt lat="40.81581" lon="9.2799283"><ele>333.0</ele><time>2026-05-01T14:37:16.677Z</time></trkpt><trkpt lat="40.8158483" lon="9.2801183"><ele>333.0</ele><time>2026-05-01T14:37:17.677Z</time></trkpt><trkpt lat="40.8159183" lon="9.28028"><ele>333.0</ele><time>2026-05-01T14:37:18.677Z</time></trkpt><trkpt lat="40.8159733" lon="9.2804233"><ele>333.0</ele><time>2026-05-01T14:37:19.677Z</time></trkpt><trkpt lat="40.81603" lon="9.2805483"><ele>333.0</ele><time>2026-05-01T14:37:20.677Z</time></trkpt><trkpt lat="40.8160967" lon="9.2806817"><ele>333.0</ele><time>2026-05-01T14:37:21.677Z</time></trkpt><trkpt lat="40.81617" lon="9.2807917"><ele>331.8333333333333</ele><time>2026-05-01T14:37:22.677Z</time></trkpt><trkpt lat="40.81624" lon="9.2808733"><ele>330.6666666666667</ele><time>2026-05-01T14:37:23.677Z</time></trkpt><trkpt lat="40.8163133" lon="9.2809483"><ele>329.5</ele><time>2026-05-01T14:37:24.677Z</time></trkpt><trkpt lat="40.8163833" lon="9.2809917"><ele>328.33333333333337</ele><time>2026-05-01T14:37:25.677Z</time></trkpt><trkpt lat="40.8164283" lon="9.28107"><ele>327.1666666666667</ele><time>2026-05-01T14:37:26.677Z</time></trkpt><trkpt lat="40.8164667" lon="9.281165"><ele>326.0</ele><time>2026-05-01T14:37:27.677Z</time></trkpt><trkpt lat="40.8165367" lon="9.2812383"><ele>326.0</ele><time>2026-05-01T14:37:28.677Z</time></trkpt><trkpt lat="40.8165717" lon="9.2813317"><ele>326.0</ele><time>2026-05-01T14:37:29.677Z</time></trkpt><trkpt lat="40.8166217" lon="9.2814"><ele>326.0</ele><time>2026-05-01T14:37:30.677Z</time></trkpt><trkpt lat="40.81665" lon="9.281505"><ele>326.0</ele><time>2026-05-01T14:37:31.677Z</time></trkpt><trkpt lat="40.8166783" lon="9.2816"><ele>326.0</ele><time>2026-05-01T14:37:32.677Z</time></trkpt><trkpt lat="40.816705" lon="9.2817067"><ele>326.0</ele><time>2026-05-01T14:37:33.677Z</time></trkpt><trkpt lat="40.8167267" lon="9.2818217"><ele>326.8</ele><time>2026-05-01T14:37:34.677Z</time></trkpt><trkpt lat="40.816755" lon="9.2819367"><ele>327.6</ele><time>2026-05-01T14:37:35.677Z</time></trkpt><trkpt lat="40.8167933" lon="9.2820467"><ele>328.4</ele><time>2026-05-01T14:37:36.677Z</time></trkpt><trkpt lat="40.816835" lon="9.2821583"><ele>329.2</ele><time>2026-05-01T14:37:37.677Z</time></trkpt><trkpt lat="40.8168717" lon="9.2823033"><ele>330.0</ele><time>2026-05-01T14:37:38.677Z</time></trkpt><trkpt lat="40.8169233" lon="9.2824317"><ele>327.75</ele><time>2026-05-01T14:37:39.677Z</time></trkpt><trkpt lat="40.8169783" lon="9.2825583"><ele>325.5</ele><time>2026-05-01T14:37:40.677Z</time></trkpt><trkpt lat="40.8170183" lon="9.2826967"><ele>323.25</ele><time>2026-05-01T14:37:41.678Z</time></trkpt><trkpt lat="40.8170583" lon="9.2828483"><ele>321.0</ele><time>2026-05-01T14:37:42.677Z</time></trkpt><trkpt lat="40.8170817" lon="9.2829917"><ele>320.0</ele><time>2026-05-01T14:37:43.677Z</time></trkpt><trkpt lat="40.8170767" lon="9.2831433"><ele>319.0</ele><time>2026-05-01T14:37:44.677Z</time></trkpt><trkpt lat="40.817075" lon="9.2832983"><ele>318.0</ele><time>2026-05-01T14:37:45.677Z</time></trkpt><trkpt lat="40.81707" lon="9.283455"><ele>317.0</ele><time>2026-05-01T14:37:46.677Z</time></trkpt><trkpt lat="40.8170683" lon="9.28359"><ele>317.0</ele><time>2026-05-01T14:37:47.677Z</time></trkpt><trkpt lat="40.817055" lon="9.28372"><ele>317.0</ele><time>2026-05-01T14:37:48.678Z</time></trkpt><trkpt lat="40.8170417" lon="9.28386"><ele>317.0</ele><time>2026-05-01T14:37:49.677Z</time></trkpt><trkpt lat="40.81705" lon="9.283985"><ele>317.0</ele><time>2026-05-01T14:37:50.677Z</time></trkpt><trkpt lat="40.8170717" lon="9.284115"><ele>317.0</ele><time>2026-05-01T14:37:51.677Z</time></trkpt><trkpt lat="40.81711" lon="9.2842417"><ele>316.2</ele><time>2026-05-01T14:37:52.677Z</time></trkpt><trkpt lat="40.81715" lon="9.28437"><ele>315.4</ele><time>2026-05-01T14:37:53.677Z</time></trkpt><trkpt lat="40.817185" lon="9.2845067"><ele>314.6</ele><time>2026-05-01T14:37:54.677Z</time></trkpt><trkpt lat="40.8172183" lon="9.284655"><ele>313.8</ele><time>2026-05-01T14:37:55.677Z</time></trkpt><trkpt lat="40.8172433" lon="9.284805"><ele>313.0</ele><time>2026-05-01T14:37:56.677Z</time></trkpt><trkpt lat="40.8172583" lon="9.2849567"><ele>312.8</ele><time>2026-05-01T14:37:57.677Z</time></trkpt><trkpt lat="40.81726" lon="9.2850933"><ele>312.6</ele><time>2026-05-01T14:37:58.677Z</time></trkpt><trkpt lat="40.8172767" lon="9.2852383"><ele>312.4</ele><time>2026-05-01T14:37:59.677Z</time></trkpt><trkpt lat="40.817295" lon="9.285365"><ele>312.2</ele><time>2026-05-01T14:38:00.677Z</time></trkpt><trkpt lat="40.8173317" lon="9.2854983"><ele>312.0</ele><time>2026-05-01T14:38:01.677Z</time></trkpt><trkpt lat="40.8173733" lon="9.28561"><ele>311.4</ele><time>2026-05-01T14:38:02.677Z</time></trkpt><trkpt lat="40.8174033" lon="9.2857483"><ele>310.79999999999995</ele><time>2026-05-01T14:38:03.677Z</time></trkpt><trkpt lat="40.81742" lon="9.28589"><ele>310.2</ele><time>2026-05-01T14:38:04.677Z</time></trkpt><trkpt lat="40.81743" lon="9.2860417"><ele>309.59999999999997</ele><time>2026-05-01T14:38:05.677Z</time></trkpt><trkpt lat="40.8174333" lon="9.2861717"><ele>309.0</ele><time>2026-05-01T14:38:06.677Z</time></trkpt><trkpt lat="40.8173983" lon="9.286295"><ele>308.5</ele><time>2026-05-01T14:38:07.677Z</time></trkpt><trkpt lat="40.8172967" lon="9.2865033"><ele>308.0</ele><time>2026-05-01T14:38:09.677Z</time></trkpt><trkpt lat="40.8172333" lon="9.28663"><ele>307.5</ele><time>2026-05-01T14:38:10.677Z</time></trkpt><trkpt lat="40.8171883" lon="9.28674"><ele>307.0</ele><time>2026-05-01T14:38:11.677Z</time></trkpt><trkpt lat="40.81713" lon="9.2868633"><ele>307.0</ele><time>2026-05-01T14:38:12.677Z</time></trkpt><trkpt lat="40.817075" lon="9.28699"><ele>307.0</ele><time>2026-05-01T14:38:13.677Z</time></trkpt><trkpt lat="40.8170433" lon="9.287125"><ele>307.0</ele><time>2026-05-01T14:38:14.677Z</time></trkpt><trkpt lat="40.8170267" lon="9.2872683"><ele>307.0</ele><time>2026-05-01T14:38:15.677Z</time></trkpt><trkpt lat="40.8170017" lon="9.2874183"><ele>307.0</ele><time>2026-05-01T14:38:16.677Z</time></trkpt><trkpt lat="40.81697" lon="9.28755"><ele>308.25</ele><time>2026-05-01T14:38:17.677Z</time></trkpt><trkpt lat="40.8169383" lon="9.2876817"><ele>309.5</ele><time>2026-05-01T14:38:18.677Z</time></trkpt><trkpt lat="40.81691" lon="9.287825"><ele>310.75</ele><time>2026-05-01T14:38:19.677Z</time></trkpt><trkpt lat="40.8168867" lon="9.2879983"><ele>312.0</ele><time>2026-05-01T14:38:20.677Z</time></trkpt><trkpt lat="40.816875" lon="9.28817"><ele>312.4</ele><time>2026-05-01T14:38:21.677Z</time></trkpt><trkpt lat="40.8168833" lon="9.2883217"><ele>312.79999999999995</ele><time>2026-05-01T14:38:22.677Z</time></trkpt><trkpt lat="40.8168967" lon="9.28845"><ele>313.2</ele><time>2026-05-01T14:38:23.677Z</time></trkpt><trkpt lat="40.8169433" lon="9.2885517"><ele>313.59999999999997</ele><time>2026-05-01T14:38:24.677Z</time></trkpt><trkpt lat="40.8169933" lon="9.2886583"><ele>314.0</ele><time>2026-05-01T14:38:25.677Z</time></trkpt><trkpt lat="40.81703" lon="9.2887667"><ele>314.0</ele><time>2026-05-01T14:38:26.677Z</time></trkpt><trkpt lat="40.81705" lon="9.28889"><ele>314.0</ele><time>2026-05-01T14:38:27.677Z</time></trkpt><trkpt lat="40.817075" lon="9.288995"><ele>314.0</ele><time>2026-05-01T14:38:28.677Z</time></trkpt><trkpt lat="40.8170933" lon="9.28909"><ele>314.0</ele><time>2026-05-01T14:38:29.677Z</time></trkpt><trkpt lat="40.8171033" lon="9.289185"><ele>314.0</ele><time>2026-05-01T14:38:30.677Z</time></trkpt><trkpt lat="40.8171" lon="9.2892867"><ele>314.0</ele><time>2026-05-01T14:38:31.677Z</time></trkpt><trkpt lat="40.817075" lon="9.2893967"><ele>313.4</ele><time>2026-05-01T14:38:32.677Z</time></trkpt><trkpt lat="40.81703" lon="9.2895133"><ele>312.79999999999995</ele><time>2026-05-01T14:38:33.677Z</time></trkpt><trkpt lat="40.8169783" lon="9.28962"><ele>312.20000000000005</ele><time>2026-05-01T14:38:34.677Z</time></trkpt><trkpt lat="40.81694" lon="9.2897283"><ele>311.6</ele><time>2026-05-01T14:38:35.677Z</time></trkpt><trkpt lat="40.8168917" lon="9.2898467"><ele>311.0</ele><time>2026-05-01T14:38:36.677Z</time></trkpt><trkpt lat="40.81685" lon="9.2899567"><ele>310.6666666666667</ele><time>2026-05-01T14:38:37.677Z</time></trkpt><trkpt lat="40.8168083" lon="9.2900533"><ele>310.33333333333337</ele><time>2026-05-01T14:38:38.677Z</time></trkpt><trkpt lat="40.816775" lon="9.2901583"><ele>310.0</ele><time>2026-05-01T14:38:39.678Z</time></trkpt><trkpt lat="40.81676" lon="9.29026"><ele>309.6666666666667</ele><time>2026-05-01T14:38:40.677Z</time></trkpt><trkpt lat="40.816745" lon="9.2903817"><ele>309.3333333333333</ele><time>2026-05-01T14:38:41.677Z</time></trkpt><trkpt lat="40.8167483" lon="9.290505"><ele>309.0</ele><time>2026-05-01T14:38:42.677Z</time></trkpt><trkpt lat="40.81675" lon="9.290635"><ele>307.75</ele><time>2026-05-01T14:38:43.677Z</time></trkpt><trkpt lat="40.8167533" lon="9.290775"><ele>306.5</ele><time>2026-05-01T14:38:44.677Z</time></trkpt><trkpt lat="40.81676" lon="9.2909317"><ele>305.25</ele><time>2026-05-01T14:38:45.677Z</time></trkpt><trkpt lat="40.8167767" lon="9.291085"><ele>304.0</ele><time>2026-05-01T14:38:46.677Z</time></trkpt><trkpt lat="40.8167883" lon="9.2912433"><ele>304.0</ele><time>2026-05-01T14:38:47.677Z</time></trkpt><trkpt lat="40.8167933" lon="9.291395"><ele>304.0</ele><time>2026-05-01T14:38:48.677Z</time></trkpt><trkpt lat="40.8168017" lon="9.29154"><ele>304.0</ele><time>2026-05-01T14:38:49.677Z</time></trkpt><trkpt lat="40.8168133" lon="9.291675"><ele>304.0</ele><time>2026-05-01T14:38:50.677Z</time></trkpt><trkpt lat="40.8168233" lon="9.291805"><ele>304.0</ele><time>2026-05-01T14:38:51.677Z</time></trkpt><trkpt lat="40.816835" lon="9.2919267"><ele>301.59999999999997</ele><time>2026-05-01T14:38:52.677Z</time></trkpt><trkpt lat="40.8168417" lon="9.2920517"><ele>299.2</ele><time>2026-05-01T14:38:53.678Z</time></trkpt><trkpt lat="40.816865" lon="9.2921767"><ele>296.79999999999995</ele><time>2026-05-01T14:38:54.677Z</time></trkpt><trkpt lat="40.81689" lon="9.292305"><ele>294.4</ele><time>2026-05-01T14:38:55.677Z</time></trkpt><trkpt lat="40.8169383" lon="9.29242"><ele>292.0</ele><time>2026-05-01T14:38:56.677Z</time></trkpt><trkpt lat="40.817" lon="9.2925433"><ele>291.0</ele><time>2026-05-01T14:38:57.677Z</time></trkpt><trkpt lat="40.8170767" lon="9.2926617"><ele>290.0</ele><time>2026-05-01T14:38:58.677Z</time></trkpt><trkpt lat="40.8171633" lon="9.292775"><ele>289.0</ele><time>2026-05-01T14:38:59.677Z</time></trkpt><trkpt lat="40.8172533" lon="9.29289"><ele>288.0</ele><time>2026-05-01T14:39:00.677Z</time></trkpt><trkpt lat="40.8173367" lon="9.293"><ele>286.8</ele><time>2026-05-01T14:39:01.677Z</time></trkpt><trkpt lat="40.8174083" lon="9.2931133"><ele>285.6</ele><time>2026-05-01T14:39:02.677Z</time></trkpt><trkpt lat="40.81747" lon="9.2932233"><ele>284.4</ele><time>2026-05-01T14:39:03.677Z</time></trkpt><trkpt lat="40.8175267" lon="9.2933467"><ele>283.2</ele><time>2026-05-01T14:39:04.677Z</time></trkpt><trkpt lat="40.817555" lon="9.29347"><ele>282.0</ele><time>2026-05-01T14:39:05.677Z</time></trkpt><trkpt lat="40.817585" lon="9.2936"><ele>282.0</ele><time>2026-05-01T14:39:06.677Z</time></trkpt><trkpt lat="40.8176017" lon="9.2937317"><ele>282.0</ele><time>2026-05-01T14:39:07.677Z</time></trkpt><trkpt lat="40.8176033" lon="9.293855"><ele>282.0</ele><time>2026-05-01T14:39:08.677Z</time></trkpt><trkpt lat="40.8176017" lon="9.2939933"><ele>282.0</ele><time>2026-05-01T14:39:09.677Z</time></trkpt><trkpt lat="40.8176033" lon="9.2941383"><ele>282.0</ele><time>2026-05-01T14:39:10.677Z</time></trkpt><trkpt lat="40.8176017" lon="9.2942917"><ele>281.8</ele><time>2026-05-01T14:39:11.677Z</time></trkpt><trkpt lat="40.817605" lon="9.29445"><ele>281.6</ele><time>2026-05-01T14:39:12.677Z</time></trkpt><trkpt lat="40.8176217" lon="9.2945817"><ele>281.40000000000003</ele><time>2026-05-01T14:39:13.677Z</time></trkpt><trkpt lat="40.81764" lon="9.2947083"><ele>281.2</ele><time>2026-05-01T14:39:14.677Z</time></trkpt><trkpt lat="40.817645" lon="9.2948183"><ele>281.0</ele><time>2026-05-01T14:39:15.677Z</time></trkpt><trkpt lat="40.817655" lon="9.29491"><ele>279.40000000000003</ele><time>2026-05-01T14:39:16.677Z</time></trkpt><trkpt lat="40.8176567" lon="9.29505"><ele>277.8</ele><time>2026-05-01T14:39:18.677Z</time></trkpt><trkpt lat="40.81769" lon="9.2951583"><ele>276.20000000000005</ele><time>2026-05-01T14:39:20.677Z</time></trkpt><trkpt lat="40.8177867" lon="9.295185"><ele>274.6</ele><time>2026-05-01T14:39:22.677Z</time></trkpt><trkpt lat="40.8178567" lon="9.2951567"><ele>273.0</ele><time>2026-05-01T14:39:23.677Z</time></trkpt><trkpt lat="40.81794" lon="9.2951267"><ele>273.0</ele><time>2026-05-01T14:39:24.677Z</time></trkpt><trkpt lat="40.8180367" lon="9.2950817"><ele>273.0</ele><time>2026-05-01T14:39:25.677Z</time></trkpt><trkpt lat="40.818145" lon="9.295035"><ele>273.0</ele><time>2026-05-01T14:39:26.677Z</time></trkpt><trkpt lat="40.818255" lon="9.29499"><ele>273.0</ele><time>2026-05-01T14:39:27.677Z</time></trkpt><trkpt lat="40.81837" lon="9.2949783"><ele>273.0</ele><time>2026-05-01T14:39:28.677Z</time></trkpt><trkpt lat="40.8184867" lon="9.2949733"><ele>273.0</ele><time>2026-05-01T14:39:29.677Z</time></trkpt><trkpt lat="40.818615" lon="9.29499"><ele>273.0</ele><time>2026-05-01T14:39:30.677Z</time></trkpt><trkpt lat="40.8187533" lon="9.295"><ele>273.0</ele><time>2026-05-01T14:39:31.677Z</time></trkpt><trkpt lat="40.81891" lon="9.2950183"><ele>273.0</ele><time>2026-05-01T14:39:32.677Z</time></trkpt><trkpt lat="40.8190433" lon="9.2950433"><ele>273.0</ele><time>2026-05-01T14:39:33.677Z</time></trkpt><trkpt lat="40.8191783" lon="9.295075"><ele>273.0</ele><time>2026-05-01T14:39:34.677Z</time></trkpt><trkpt lat="40.819325" lon="9.295125"><ele>273.0</ele><time>2026-05-01T14:39:35.677Z</time></trkpt><trkpt lat="40.8194517" lon="9.2951717"><ele>273.0</ele><time>2026-05-01T14:39:36.677Z</time></trkpt><trkpt lat="40.819585" lon="9.2952333"><ele>273.0</ele><time>2026-05-01T14:39:37.677Z</time></trkpt><trkpt lat="40.8197133" lon="9.29529"><ele>273.0</ele><time>2026-05-01T14:39:38.677Z</time></trkpt><trkpt lat="40.8198417" lon="9.2953467"><ele>273.0</ele><time>2026-05-01T14:39:39.677Z</time></trkpt><trkpt lat="40.8199717" lon="9.295405"><ele>273.0</ele><time>2026-05-01T14:39:40.678Z</time></trkpt><trkpt lat="40.8200933" lon="9.2954733"><ele>272.6666666666667</ele><time>2026-05-01T14:39:41.677Z</time></trkpt><trkpt lat="40.8202283" lon="9.295555"><ele>272.33333333333337</ele><time>2026-05-01T14:39:42.677Z</time></trkpt><trkpt lat="40.8203683" lon="9.2956483"><ele>272.0</ele><time>2026-05-01T14:39:43.677Z</time></trkpt><trkpt lat="40.8205017" lon="9.29573"><ele>272.0</ele><time>2026-05-01T14:39:44.677Z</time></trkpt><trkpt lat="40.82063" lon="9.2958033"><ele>272.0</ele><time>2026-05-01T14:39:45.677Z</time></trkpt><trkpt lat="40.8207417" lon="9.29587"><ele>272.0</ele><time>2026-05-01T14:39:46.677Z</time></trkpt><trkpt lat="40.8208517" lon="9.2959517"><ele>272.0</ele><time>2026-05-01T14:39:47.677Z</time></trkpt><trkpt lat="40.8209533" lon="9.2960067"><ele>272.2</ele><time>2026-05-01T14:39:48.677Z</time></trkpt><trkpt lat="40.8210383" lon="9.2960483"><ele>272.4</ele><time>2026-05-01T14:39:49.677Z</time></trkpt><trkpt lat="40.8211067" lon="9.296075"><ele>272.6</ele><time>2026-05-01T14:39:50.677Z</time></trkpt><trkpt lat="40.82121" lon="9.2960383"><ele>272.8</ele><time>2026-05-01T14:39:52.676Z</time></trkpt><trkpt lat="40.82132" lon="9.2960767"><ele>273.0</ele><time>2026-05-01T14:39:54.676Z</time></trkpt><trkpt lat="40.8214017" lon="9.2961467"><ele>273.0</ele><time>2026-05-01T14:39:56.676Z</time></trkpt><trkpt lat="40.821455" lon="9.2962483"><ele>273.0</ele><time>2026-05-01T14:39:58.677Z</time></trkpt><trkpt lat="40.8215333" lon="9.2963367"><ele>273.0</ele><time>2026-05-01T14:40:00.676Z</time></trkpt><trkpt lat="40.82161" lon="9.29644"><ele>273.0</ele><time>2026-05-01T14:40:02.676Z</time></trkpt><trkpt lat="40.8216717" lon="9.2965017"><ele>273.0</ele><time>2026-05-01T14:40:04.676Z</time></trkpt><trkpt lat="40.8217333" lon="9.296545"><ele>272.4</ele><time>2026-05-01T14:40:06.676Z</time></trkpt><trkpt lat="40.8217833" lon="9.2966267"><ele>271.8</ele><time>2026-05-01T14:40:08.676Z</time></trkpt><trkpt lat="40.8218467" lon="9.2967717"><ele>271.2</ele><time>2026-05-01T14:40:10.676Z</time></trkpt><trkpt lat="40.82192" lon="9.2968983"><ele>270.6</ele><time>2026-05-01T14:40:12.676Z</time></trkpt><trkpt lat="40.821975" lon="9.2969767"><ele>270.0</ele><time>2026-05-01T14:40:13.676Z</time></trkpt><trkpt lat="40.8220367" lon="9.2970733"><ele>271.25</ele><time>2026-05-01T14:40:14.676Z</time></trkpt><trkpt lat="40.8221117" lon="9.2971767"><ele>272.5</ele><time>2026-05-01T14:40:15.676Z</time></trkpt><trkpt lat="40.8221783" lon="9.29728"><ele>273.75</ele><time>2026-05-01T14:40:16.676Z</time></trkpt><trkpt lat="40.822255" lon="9.2973983"><ele>275.0</ele><time>2026-05-01T14:40:17.676Z</time></trkpt><trkpt lat="40.8223333" lon="9.297525"><ele>275.0</ele><time>2026-05-01T14:40:18.676Z</time></trkpt><trkpt lat="40.822395" lon="9.297645"><ele>275.0</ele><time>2026-05-01T14:40:19.676Z</time></trkpt><trkpt lat="40.82245" lon="9.2977533"><ele>275.0</ele><time>2026-05-01T14:40:20.676Z</time></trkpt><trkpt lat="40.8225183" lon="9.2978467"><ele>275.0</ele><time>2026-05-01T14:40:21.676Z</time></trkpt><trkpt lat="40.82258" lon="9.29794"><ele>275.0</ele><time>2026-05-01T14:40:22.676Z</time></trkpt><trkpt lat="40.822635" lon="9.29803"><ele>277.0</ele><time>2026-05-01T14:40:23.677Z</time></trkpt><trkpt lat="40.8226983" lon="9.2980933"><ele>279.0</ele><time>2026-05-01T14:40:24.676Z</time></trkpt><trkpt lat="40.82278" lon="9.2981217"><ele>281.0</ele><time>2026-05-01T14:40:25.676Z</time></trkpt><trkpt lat="40.82287" lon="9.2981467"><ele>283.0</ele><time>2026-05-01T14:40:26.676Z</time></trkpt><trkpt lat="40.8229817" lon="9.2981483"><ele>285.0</ele><time>2026-05-01T14:40:27.676Z</time></trkpt><trkpt lat="40.8231" lon="9.2981117"><ele>284.6</ele><time>2026-05-01T14:40:28.676Z</time></trkpt><trkpt lat="40.8232233" lon="9.2980717"><ele>284.2</ele><time>2026-05-01T14:40:29.676Z</time></trkpt><trkpt lat="40.8233417" lon="9.298055"><ele>283.8</ele><time>2026-05-01T14:40:30.676Z</time></trkpt><trkpt lat="40.8234383" lon="9.2980417"><ele>283.4</ele><time>2026-05-01T14:40:31.676Z</time></trkpt><trkpt lat="40.8235233" lon="9.2980283"><ele>283.0</ele><time>2026-05-01T14:40:32.676Z</time></trkpt><trkpt lat="40.82361" lon="9.2979983"><ele>285.0</ele><time>2026-05-01T14:40:33.676Z</time></trkpt><trkpt lat="40.8236867" lon="9.29795"><ele>287.0</ele><time>2026-05-01T14:40:34.676Z</time></trkpt><trkpt lat="40.8237483" lon="9.297875"><ele>289.0</ele><time>2026-05-01T14:40:35.676Z</time></trkpt><trkpt lat="40.8238017" lon="9.2977883"><ele>291.0</ele><time>2026-05-01T14:40:36.677Z</time></trkpt><trkpt lat="40.8238383" lon="9.2976567"><ele>293.0</ele><time>2026-05-01T14:40:37.676Z</time></trkpt><trkpt lat="40.823875" lon="9.2975267"><ele>293.0</ele><time>2026-05-01T14:40:38.676Z</time></trkpt><trkpt lat="40.823905" lon="9.2974017"><ele>293.0</ele><time>2026-05-01T14:40:39.676Z</time></trkpt><trkpt lat="40.823925" lon="9.2972867"><ele>293.0</ele><time>2026-05-01T14:40:40.676Z</time></trkpt><trkpt lat="40.8239517" lon="9.2971567"><ele>293.0</ele><time>2026-05-01T14:40:41.676Z</time></trkpt><trkpt lat="40.82401" lon="9.2970267"><ele>293.0</ele><time>2026-05-01T14:40:42.676Z</time></trkpt><trkpt lat="40.824085" lon="9.2969533"><ele>293.8</ele><time>2026-05-01T14:40:43.676Z</time></trkpt><trkpt lat="40.824155" lon="9.2968917"><ele>294.6</ele><time>2026-05-01T14:40:44.676Z</time></trkpt><trkpt lat="40.8242283" lon="9.2968617"><ele>295.4</ele><time>2026-05-01T14:40:45.676Z</time></trkpt><trkpt lat="40.8243233" lon="9.296845"><ele>296.2</ele><time>2026-05-01T14:40:46.676Z</time></trkpt><trkpt lat="40.8244383" lon="9.2968567"><ele>297.0</ele><time>2026-05-01T14:40:47.676Z</time></trkpt><trkpt lat="40.824555" lon="9.2968333"><ele>298.75</ele><time>2026-05-01T14:40:48.676Z</time></trkpt><trkpt lat="40.8246833" lon="9.2968533"><ele>300.5</ele><time>2026-05-01T14:40:49.676Z</time></trkpt><trkpt lat="40.8248033" lon="9.2968583"><ele>302.25</ele><time>2026-05-01T14:40:50.676Z</time></trkpt><trkpt lat="40.8249467" lon="9.296865"><ele>304.0</ele><time>2026-05-01T14:40:51.676Z</time></trkpt><trkpt lat="40.8250767" lon="9.2968633"><ele>303.75</ele><time>2026-05-01T14:40:52.676Z</time></trkpt><trkpt lat="40.8252117" lon="9.2968467"><ele>303.5</ele><time>2026-05-01T14:40:53.676Z</time></trkpt><trkpt lat="40.8253483" lon="9.2968083"><ele>303.25</ele><time>2026-05-01T14:40:54.676Z</time></trkpt><trkpt lat="40.8254717" lon="9.2967717"><ele>303.0</ele><time>2026-05-01T14:40:55.676Z</time></trkpt><trkpt lat="40.825595" lon="9.296715"><ele>303.0</ele><time>2026-05-01T14:40:56.676Z</time></trkpt><trkpt lat="40.825715" lon="9.2966267"><ele>303.0</ele><time>2026-05-01T14:40:57.676Z</time></trkpt><trkpt lat="40.8258267" lon="9.2965367"><ele>303.0</ele><time>2026-05-01T14:40:58.677Z</time></trkpt><trkpt lat="40.8259483" lon="9.2964483"><ele>303.0</ele><time>2026-05-01T14:40:59.676Z</time></trkpt><trkpt lat="40.82607" lon="9.2963667"><ele>303.0</ele><time>2026-05-01T14:41:00.676Z</time></trkpt><trkpt lat="40.8261817" lon="9.2962833"><ele>303.0</ele><time>2026-05-01T14:41:01.676Z</time></trkpt><trkpt lat="40.8262817" lon="9.2962017"><ele>303.0</ele><time>2026-05-01T14:41:02.676Z</time></trkpt><trkpt lat="40.8263867" lon="9.2961217"><ele>303.0</ele><time>2026-05-01T14:41:03.676Z</time></trkpt><trkpt lat="40.82648" lon="9.2960617"><ele>303.0</ele><time>2026-05-01T14:41:04.676Z</time></trkpt><trkpt lat="40.8265767" lon="9.296025"><ele>303.0</ele><time>2026-05-01T14:41:05.676Z</time></trkpt><trkpt lat="40.82669" lon="9.29601"><ele>303.0</ele><time>2026-05-01T14:41:06.676Z</time></trkpt><trkpt lat="40.82681" lon="9.296"><ele>303.0</ele><time>2026-05-01T14:41:07.676Z</time></trkpt><trkpt lat="40.826935" lon="9.2960567"><ele>305.6666666666667</ele><time>2026-05-01T14:41:08.676Z</time></trkpt><trkpt lat="40.827085" lon="9.2961117"><ele>308.33333333333337</ele><time>2026-05-01T14:41:09.676Z</time></trkpt><trkpt lat="40.8272333" lon="9.296175"><ele>311.0</ele><time>2026-05-01T14:41:10.676Z</time></trkpt><trkpt lat="40.8273733" lon="9.2962967"><ele>311.0</ele><time>2026-05-01T14:41:11.676Z</time></trkpt><trkpt lat="40.8275" lon="9.2963817"><ele>311.0</ele><time>2026-05-01T14:41:12.676Z</time></trkpt><trkpt lat="40.8276233" lon="9.296445"><ele>311.0</ele><time>2026-05-01T14:41:13.676Z</time></trkpt><trkpt lat="40.8277083" lon="9.2965"><ele>311.0</ele><time>2026-05-01T14:41:14.676Z</time></trkpt><trkpt lat="40.8277967" lon="9.2965217"><ele>311.5</ele><time>2026-05-01T14:41:15.677Z</time></trkpt><trkpt lat="40.8278667" lon="9.2965317"><ele>312.0</ele><time>2026-05-01T14:41:16.676Z</time></trkpt><trkpt lat="40.8279633" lon="9.2964633"><ele>312.5</ele><time>2026-05-01T14:41:18.676Z</time></trkpt><trkpt lat="40.8279883" lon="9.2963833"><ele>313.0</ele><time>2026-05-01T14:41:19.676Z</time></trkpt><trkpt lat="40.828015" lon="9.2962917"><ele>313.5</ele><time>2026-05-01T14:41:20.676Z</time></trkpt><trkpt lat="40.8280283" lon="9.2962"><ele>314.0</ele><time>2026-05-01T14:41:21.677Z</time></trkpt><trkpt lat="40.828025" lon="9.296055"><ele>315.6666666666667</ele><time>2026-05-01T14:41:22.676Z</time></trkpt><trkpt lat="40.82801" lon="9.2958383"><ele>317.3333333333333</ele><time>2026-05-01T14:41:23.676Z</time></trkpt><trkpt lat="40.8280033" lon="9.295625"><ele>319.0</ele><time>2026-05-01T14:41:24.676Z</time></trkpt><trkpt lat="40.8280167" lon="9.2954"><ele>319.0</ele><time>2026-05-01T14:41:25.676Z</time></trkpt><trkpt lat="40.8280367" lon="9.29521"><ele>319.0</ele><time>2026-05-01T14:41:26.676Z</time></trkpt><trkpt lat="40.8280517" lon="9.295"><ele>319.0</ele><time>2026-05-01T14:41:27.676Z</time></trkpt><trkpt lat="40.8280667" lon="9.294815"><ele>319.0</ele><time>2026-05-01T14:41:28.676Z</time></trkpt><trkpt lat="40.82809" lon="9.29466"><ele>319.0</ele><time>2026-05-01T14:41:29.676Z</time></trkpt><trkpt lat="40.8281017" lon="9.29445"><ele>319.0</ele><time>2026-05-01T14:41:30.676Z</time></trkpt><trkpt lat="40.8281267" lon="9.294295"><ele>319.0</ele><time>2026-05-01T14:41:31.676Z</time></trkpt><trkpt lat="40.8281417" lon="9.2941"><ele>319.0</ele><time>2026-05-01T14:41:32.676Z</time></trkpt><trkpt lat="40.828165" lon="9.2938967"><ele>319.0</ele><time>2026-05-01T14:41:33.676Z</time></trkpt><trkpt lat="40.8282067" lon="9.2937117"><ele>319.0</ele><time>2026-05-01T14:41:34.676Z</time></trkpt><trkpt lat="40.8282617" lon="9.29355"><ele>319.0</ele><time>2026-05-01T14:41:35.676Z</time></trkpt><trkpt lat="40.8283233" lon="9.2934183"><ele>319.0</ele><time>2026-05-01T14:41:36.676Z</time></trkpt><trkpt lat="40.828385" lon="9.29325"><ele>320.0</ele><time>2026-05-01T14:41:37.676Z</time></trkpt><trkpt lat="40.8284417" lon="9.2930883"><ele>321.0</ele><time>2026-05-01T14:41:38.676Z</time></trkpt><trkpt lat="40.828495" lon="9.2929183"><ele>322.0</ele><time>2026-05-01T14:41:39.676Z</time></trkpt><trkpt lat="40.82854" lon="9.292735"><ele>323.0</ele><time>2026-05-01T14:41:40.676Z</time></trkpt><trkpt lat="40.8286017" lon="9.2925867"><ele>323.25</ele><time>2026-05-01T14:41:41.676Z</time></trkpt><trkpt lat="40.828675" lon="9.29245"><ele>323.5</ele><time>2026-05-01T14:41:42.676Z</time></trkpt><trkpt lat="40.8287733" lon="9.2922967"><ele>323.75</ele><time>2026-05-01T14:41:43.676Z</time></trkpt><trkpt lat="40.8288633" lon="9.2921333"><ele>324.0</ele><time>2026-05-01T14:41:44.677Z</time></trkpt><trkpt lat="40.8289417" lon="9.29199"><ele>324.5</ele><time>2026-05-01T14:41:45.676Z</time></trkpt><trkpt lat="40.828985" lon="9.2918617"><ele>325.0</ele><time>2026-05-01T14:41:46.676Z</time></trkpt><trkpt lat="40.8290183" lon="9.2917067"><ele>325.5</ele><time>2026-05-01T14:41:47.676Z</time></trkpt><trkpt lat="40.8290467" lon="9.2915283"><ele>326.0</ele><time>2026-05-01T14:41:48.676Z</time></trkpt><trkpt lat="40.8290817" lon="9.2913683"><ele>326.5</ele><time>2026-05-01T14:41:49.676Z</time></trkpt><trkpt lat="40.8291533" lon="9.2912317"><ele>327.0</ele><time>2026-05-01T14:41:50.677Z</time></trkpt><trkpt lat="40.8292383" lon="9.2911033"><ele>327.5</ele><time>2026-05-01T14:41:51.676Z</time></trkpt><trkpt lat="40.82935" lon="9.2909883"><ele>328.0</ele><time>2026-05-01T14:41:52.676Z</time></trkpt><trkpt lat="40.82948" lon="9.29091"><ele>329.16666666666663</ele><time>2026-05-01T14:41:53.676Z</time></trkpt><trkpt lat="40.8295917" lon="9.29081"><ele>330.3333333333333</ele><time>2026-05-01T14:41:54.676Z</time></trkpt><trkpt lat="40.8296667" lon="9.2907517"><ele>331.5</ele><time>2026-05-01T14:41:55.676Z</time></trkpt><trkpt lat="40.829705" lon="9.290675"><ele>332.6666666666667</ele><time>2026-05-01T14:41:56.676Z</time></trkpt><trkpt lat="40.8297367" lon="9.2905767"><ele>333.83333333333337</ele><time>2026-05-01T14:41:57.676Z</time></trkpt><trkpt lat="40.8296867" lon="9.2905183"><ele>335.0</ele><time>2026-05-01T14:41:58.676Z</time></trkpt><trkpt lat="40.8296433" lon="9.2904133"><ele>335.75</ele><time>2026-05-01T14:41:59.676Z</time></trkpt><trkpt lat="40.829605" lon="9.2902817"><ele>336.5</ele><time>2026-05-01T14:42:00.676Z</time></trkpt><trkpt lat="40.82956" lon="9.2901267"><ele>337.25</ele><time>2026-05-01T14:42:01.676Z</time></trkpt><trkpt lat="40.8295067" lon="9.2899583"><ele>338.0</ele><time>2026-05-01T14:42:02.676Z</time></trkpt><trkpt lat="40.829445" lon="9.28979"><ele>338.5</ele><time>2026-05-01T14:42:03.676Z</time></trkpt><trkpt lat="40.8293617" lon="9.2896333"><ele>339.0</ele><time>2026-05-01T14:42:04.676Z</time></trkpt><trkpt lat="40.8292817" lon="9.2894817"><ele>339.5</ele><time>2026-05-01T14:42:05.676Z</time></trkpt><trkpt lat="40.8292367" lon="9.2893517"><ele>340.0</ele><time>2026-05-01T14:42:06.676Z</time></trkpt><trkpt lat="40.8292033" lon="9.28925"><ele>340.0</ele><time>2026-05-01T14:42:07.676Z</time></trkpt><trkpt lat="40.8291783" lon="9.2891717"><ele>340.0</ele><time>2026-05-01T14:42:08.676Z</time></trkpt><trkpt lat="40.8291633" lon="9.2890683"><ele>340.0</ele><time>2026-05-01T14:42:10.676Z</time></trkpt><trkpt lat="40.8292533" lon="9.2890367"><ele>340.0</ele><time>2026-05-01T14:42:55.676Z</time></trkpt><trkpt lat="40.8293883" lon="9.2890683"><ele>340.0</ele><time>2026-05-01T14:42:57.676Z</time></trkpt><trkpt lat="40.8295083" lon="9.28913"><ele>340.0</ele><time>2026-05-01T14:42:58.676Z</time></trkpt><trkpt lat="40.829635" lon="9.28919"><ele>340.0</ele><time>2026-05-01T14:42:59.676Z</time></trkpt><trkpt lat="40.8297633" lon="9.2892317"><ele>340.0</ele><time>2026-05-01T14:43:00.676Z</time></trkpt><trkpt lat="40.829915" lon="9.2892783"><ele>340.0</ele><time>2026-05-01T14:43:01.676Z</time></trkpt><trkpt lat="40.8300733" lon="9.28934"><ele>343.3333333333333</ele><time>2026-05-01T14:43:02.676Z</time></trkpt><trkpt lat="40.8302283" lon="9.289405"><ele>346.6666666666667</ele><time>2026-05-01T14:43:03.676Z</time></trkpt><trkpt lat="40.8303867" lon="9.2894817"><ele>350.0</ele><time>2026-05-01T14:43:04.676Z</time></trkpt><trkpt lat="40.8305533" lon="9.289535"><ele>350.0</ele><time>2026-05-01T14:43:05.676Z</time></trkpt><trkpt lat="40.8307233" lon="9.289575"><ele>350.0</ele><time>2026-05-01T14:43:06.676Z</time></trkpt><trkpt lat="40.83088" lon="9.2896217"><ele>350.0</ele><time>2026-05-01T14:43:07.676Z</time></trkpt><trkpt lat="40.8310333" lon="9.289685"><ele>350.5</ele><time>2026-05-01T14:43:08.676Z</time></trkpt><trkpt lat="40.83118" lon="9.2897367"><ele>351.0</ele><time>2026-05-01T14:43:09.676Z</time></trkpt><trkpt lat="40.8313217" lon="9.289775"><ele>351.5</ele><time>2026-05-01T14:43:10.676Z</time></trkpt><trkpt lat="40.831465" lon="9.2898133"><ele>352.0</ele><time>2026-05-01T14:43:11.676Z</time></trkpt><trkpt lat="40.8316" lon="9.2898633"><ele>352.0</ele><time>2026-05-01T14:43:12.676Z</time></trkpt><trkpt lat="40.83174" lon="9.2899067"><ele>352.0</ele><time>2026-05-01T14:43:13.676Z</time></trkpt><trkpt lat="40.8318817" lon="9.2899283"><ele>352.0</ele><time>2026-05-01T14:43:14.676Z</time></trkpt><trkpt lat="40.83202" lon="9.2899433"><ele>352.0</ele><time>2026-05-01T14:43:15.676Z</time></trkpt><trkpt lat="40.8321567" lon="9.289935"><ele>354.0</ele><time>2026-05-01T14:43:16.676Z</time></trkpt><trkpt lat="40.8322967" lon="9.289925"><ele>356.0</ele><time>2026-05-01T14:43:17.676Z</time></trkpt><trkpt lat="40.8324367" lon="9.2899183"><ele>358.0</ele><time>2026-05-01T14:43:18.676Z</time></trkpt><trkpt lat="40.8325883" lon="9.28988"><ele>360.0</ele><time>2026-05-01T14:43:19.676Z</time></trkpt><trkpt lat="40.83273" lon="9.2898783"><ele>362.5</ele><time>2026-05-01T14:43:20.676Z</time></trkpt><trkpt lat="40.8328733" lon="9.2898717"><ele>365.0</ele><time>2026-05-01T14:43:21.676Z</time></trkpt><trkpt lat="40.8330183" lon="9.28989"><ele>367.5</ele><time>2026-05-01T14:43:22.677Z</time></trkpt><trkpt lat="40.8331683" lon="9.2899067"><ele>370.0</ele><time>2026-05-01T14:43:23.676Z</time></trkpt><trkpt lat="40.8333083" lon="9.2899"><ele>370.0</ele><time>2026-05-01T14:43:24.676Z</time></trkpt><trkpt lat="40.8334433" lon="9.289905"><ele>370.0</ele><time>2026-05-01T14:43:25.676Z</time></trkpt><trkpt lat="40.8335583" lon="9.2899117"><ele>370.0</ele><time>2026-05-01T14:43:26.676Z</time></trkpt><trkpt lat="40.8336667" lon="9.2899017"><ele>370.0</ele><time>2026-05-01T14:43:27.676Z</time></trkpt><trkpt lat="40.8337917" lon="9.2898733"><ele>372.0</ele><time>2026-05-01T14:43:28.676Z</time></trkpt><trkpt lat="40.8339167" lon="9.28984"><ele>374.0</ele><time>2026-05-01T14:43:29.676Z</time></trkpt><trkpt lat="40.8340367" lon="9.2898133"><ele>376.0</ele><time>2026-05-01T14:43:30.676Z</time></trkpt><trkpt lat="40.83415" lon="9.2897867"><ele>378.0</ele><time>2026-05-01T14:43:31.676Z</time></trkpt><trkpt lat="40.8342633" lon="9.2897683"><ele>382.0</ele><time>2026-05-01T14:43:32.676Z</time></trkpt><trkpt lat="40.8343767" lon="9.28978"><ele>386.0</ele><time>2026-05-01T14:43:33.676Z</time></trkpt><trkpt lat="40.8344867" lon="9.2898067"><ele>390.0</ele><time>2026-05-01T14:43:34.676Z</time></trkpt><trkpt lat="40.8346083" lon="9.289845"><ele>394.0</ele><time>2026-05-01T14:43:35.676Z</time></trkpt><trkpt lat="40.834735" lon="9.2898817"><ele>394.0</ele><time>2026-05-01T14:43:36.676Z</time></trkpt><trkpt lat="40.834865" lon="9.2899533"><ele>394.0</ele><time>2026-05-01T14:43:37.676Z</time></trkpt><trkpt lat="40.835" lon="9.2899833"><ele>394.0</ele><time>2026-05-01T14:43:38.676Z</time></trkpt><trkpt lat="40.8351367" lon="9.2900217"><ele>394.0</ele><time>2026-05-01T14:43:39.676Z</time></trkpt><trkpt lat="40.835265" lon="9.2900683"><ele>398.0</ele><time>2026-05-01T14:43:40.677Z</time></trkpt><trkpt lat="40.8353917" lon="9.29011"><ele>402.0</ele><time>2026-05-01T14:43:41.676Z</time></trkpt><trkpt lat="40.8355383" lon="9.2901283"><ele>406.0</ele><time>2026-05-01T14:43:42.676Z</time></trkpt><trkpt lat="40.8356833" lon="9.290145"><ele>410.0</ele><time>2026-05-01T14:43:43.676Z</time></trkpt><trkpt lat="40.835835" lon="9.290145"><ele>413.66666666666663</ele><time>2026-05-01T14:43:44.676Z</time></trkpt><trkpt lat="40.8359983" lon="9.2901367"><ele>417.33333333333337</ele><time>2026-05-01T14:43:45.676Z</time></trkpt><trkpt lat="40.83616" lon="9.2901433"><ele>421.0</ele><time>2026-05-01T14:43:46.676Z</time></trkpt><trkpt lat="40.8362883" lon="9.2901333"><ele>421.0</ele><time>2026-05-01T14:43:47.676Z</time></trkpt><trkpt lat="40.8364067" lon="9.2901167"><ele>421.0</ele><time>2026-05-01T14:43:48.676Z</time></trkpt><trkpt lat="40.8365367" lon="9.290115"><ele>421.0</ele><time>2026-05-01T14:43:49.676Z</time></trkpt><trkpt lat="40.8366" lon="9.2901117"><ele>421.0</ele><time>2026-05-01T14:43:50.676Z</time></trkpt><trkpt lat="40.836695" lon="9.2900983"><ele>421.0</ele><time>2026-05-01T14:43:51.677Z</time></trkpt><trkpt lat="40.8368283" lon="9.290045"><ele>423.75</ele><time>2026-05-01T14:43:52.676Z</time></trkpt><trkpt lat="40.8369667" lon="9.2900217"><ele>426.5</ele><time>2026-05-01T14:43:53.676Z</time></trkpt><trkpt lat="40.837115" lon="9.2899633"><ele>429.25</ele><time>2026-05-01T14:43:54.676Z</time></trkpt><trkpt lat="40.8372517" lon="9.2898917"><ele>432.0</ele><time>2026-05-01T14:43:55.676Z</time></trkpt><trkpt lat="40.8373883" lon="9.2898217"><ele>432.0</ele><time>2026-05-01T14:43:56.676Z</time></trkpt><trkpt lat="40.8375317" lon="9.2898083"><ele>432.0</ele><time>2026-05-01T14:43:57.676Z</time></trkpt><trkpt lat="40.8376717" lon="9.2897883"><ele>432.0</ele><time>2026-05-01T14:43:58.676Z</time></trkpt><trkpt lat="40.8377967" lon="9.2898167"><ele>432.0</ele><time>2026-05-01T14:43:59.676Z</time></trkpt><trkpt lat="40.8379083" lon="9.28988"><ele>435.75</ele><time>2026-05-01T14:44:00.676Z</time></trkpt><trkpt lat="40.8380067" lon="9.289995"><ele>439.5</ele><time>2026-05-01T14:44:01.676Z</time></trkpt><trkpt lat="40.83804" lon="9.2901667"><ele>443.25</ele><time>2026-05-01T14:44:02.676Z</time></trkpt><trkpt lat="40.8380733" lon="9.2903583"><ele>447.0</ele><time>2026-05-01T14:44:03.676Z</time></trkpt><trkpt lat="40.8381017" lon="9.290515"><ele>445.40000000000003</ele><time>2026-05-01T14:44:04.676Z</time></trkpt><trkpt lat="40.83815" lon="9.290645"><ele>443.80000000000007</ele><time>2026-05-01T14:44:05.676Z</time></trkpt><trkpt lat="40.8381967" lon="9.2907683"><ele>442.2</ele><time>2026-05-01T14:44:06.676Z</time></trkpt><trkpt lat="40.83825" lon="9.2908783"><ele>440.6</ele><time>2026-05-01T14:44:07.676Z</time></trkpt><trkpt lat="40.8382917" lon="9.29096"><ele>439.0</ele><time>2026-05-01T14:44:08.676Z</time></trkpt><trkpt lat="40.8383833" lon="9.2910083"><ele>439.0</ele><time>2026-05-01T14:44:11.676Z</time></trkpt><trkpt lat="40.8383533" lon="9.2907917"><ele>439.0</ele><time>2026-05-01T14:44:13.676Z</time></trkpt><trkpt lat="40.83834" lon="9.2906733"><ele>439.0</ele><time>2026-05-01T14:44:14.676Z</time></trkpt><trkpt lat="40.83833" lon="9.2905717"><ele>439.0</ele><time>2026-05-01T14:44:15.676Z</time></trkpt><trkpt lat="40.8383233" lon="9.2904483"><ele>439.0</ele><time>2026-05-01T14:44:16.676Z</time></trkpt><trkpt lat="40.8383267" lon="9.290275"><ele>440.6</ele><time>2026-05-01T14:44:17.676Z</time></trkpt><trkpt lat="40.83835" lon="9.290115"><ele>442.2</ele><time>2026-05-01T14:44:18.677Z</time></trkpt><trkpt lat="40.8383783" lon="9.289985"><ele>443.80000000000007</ele><time>2026-05-01T14:44:19.676Z</time></trkpt><trkpt lat="40.838415" lon="9.289855"><ele>445.40000000000003</ele><time>2026-05-01T14:44:20.676Z</time></trkpt><trkpt lat="40.83847" lon="9.2897417"><ele>447.0</ele><time>2026-05-01T14:44:21.676Z</time></trkpt><trkpt lat="40.8385267" lon="9.289665"><ele>448.0</ele><time>2026-05-01T14:44:22.676Z</time></trkpt><trkpt lat="40.8385917" lon="9.2895633"><ele>449.00000000000006</ele><time>2026-05-01T14:44:23.676Z</time></trkpt><trkpt lat="40.838655" lon="9.28949"><ele>450.00000000000006</ele><time>2026-05-01T14:44:24.676Z</time></trkpt><trkpt lat="40.8387267" lon="9.2894267"><ele>451.0</ele><time>2026-05-01T14:44:25.677Z</time></trkpt><trkpt lat="40.8388367" lon="9.2893467"><ele>452.0</ele><time>2026-05-01T14:44:26.676Z</time></trkpt><trkpt lat="40.8389533" lon="9.2892617"><ele>452.0</ele><time>2026-05-01T14:44:27.676Z</time></trkpt><trkpt lat="40.8390933" lon="9.2891883"><ele>452.0</ele><time>2026-05-01T14:44:28.676Z</time></trkpt><trkpt lat="40.839235" lon="9.28912"><ele>452.0</ele><time>2026-05-01T14:44:29.676Z</time></trkpt><trkpt lat="40.8393783" lon="9.2890333"><ele>451.5</ele><time>2026-05-01T14:44:30.676Z</time></trkpt><trkpt lat="40.839505" lon="9.2889417"><ele>451.0</ele><time>2026-05-01T14:44:31.676Z</time></trkpt><trkpt lat="40.8396283" lon="9.288885"><ele>450.5</ele><time>2026-05-01T14:44:32.676Z</time></trkpt><trkpt lat="40.83974" lon="9.2887867"><ele>450.0</ele><time>2026-05-01T14:44:33.676Z</time></trkpt><trkpt lat="40.8398567" lon="9.2886733"><ele>450.0</ele><time>2026-05-01T14:44:34.676Z</time></trkpt><trkpt lat="40.839965" lon="9.2885417"><ele>450.0</ele><time>2026-05-01T14:44:35.676Z</time></trkpt><trkpt lat="40.8400633" lon="9.28839"><ele>450.0</ele><time>2026-05-01T14:44:36.676Z</time></trkpt><trkpt lat="40.8401533" lon="9.288245"><ele>450.0</ele><time>2026-05-01T14:44:37.676Z</time></trkpt><trkpt lat="40.8402317" lon="9.288125"><ele>450.0</ele><time>2026-05-01T14:44:38.676Z</time></trkpt><trkpt lat="40.8402833" lon="9.288025"><ele>450.0</ele><time>2026-05-01T14:44:39.676Z</time></trkpt><trkpt lat="40.8403067" lon="9.2879367"><ele>450.0</ele><time>2026-05-01T14:44:41.676Z</time></trkpt><trkpt lat="40.840235" lon="9.28795"><ele>450.0</ele><time>2026-05-01T14:44:43.676Z</time></trkpt><trkpt lat="40.840175" lon="9.287985"><ele>450.0</ele><time>2026-05-01T14:44:45.676Z</time></trkpt><trkpt lat="40.84011" lon="9.28805"><ele>450.0</ele><time>2026-05-01T14:44:51.676Z</time></trkpt><trkpt lat="40.8401467" lon="9.2879633"><ele>447.5</ele><time>2026-05-01T14:44:54.676Z</time></trkpt><trkpt lat="40.8402017" lon="9.2878133"><ele>445.0</ele><time>2026-05-01T14:44:56.676Z</time></trkpt><trkpt lat="40.8402283" lon="9.2876767"><ele>442.5</ele><time>2026-05-01T14:44:57.676Z</time></trkpt><trkpt lat="40.840275" lon="9.2875317"><ele>440.0</ele><time>2026-05-01T14:44:58.676Z</time></trkpt><trkpt lat="40.8403183" lon="9.2873783"><ele>439.0</ele><time>2026-05-01T14:44:59.676Z</time></trkpt><trkpt lat="40.8403833" lon="9.2871767"><ele>438.0</ele><time>2026-05-01T14:45:00.676Z</time></trkpt><trkpt lat="40.8404233" lon="9.2870017"><ele>437.0</ele><time>2026-05-01T14:45:01.676Z</time></trkpt><trkpt lat="40.840475" lon="9.28682"><ele>437.0</ele><time>2026-05-01T14:45:02.676Z</time></trkpt><trkpt lat="40.84051" lon="9.2866617"><ele>437.0</ele><time>2026-05-01T14:45:03.676Z</time></trkpt><trkpt lat="40.8405333" lon="9.286505"><ele>437.0</ele><time>2026-05-01T14:45:04.676Z</time></trkpt><trkpt lat="40.8405533" lon="9.2863583"><ele>437.0</ele><time>2026-05-01T14:45:05.676Z</time></trkpt><trkpt lat="40.8405867" lon="9.2862233"><ele>437.75</ele><time>2026-05-01T14:45:06.677Z</time></trkpt><trkpt lat="40.8406233" lon="9.2860967"><ele>438.5</ele><time>2026-05-01T14:45:07.676Z</time></trkpt><trkpt lat="40.8406833" lon="9.2859567"><ele>439.25</ele><time>2026-05-01T14:45:08.676Z</time></trkpt><trkpt lat="40.840735" lon="9.2858183"><ele>440.0</ele><time>2026-05-01T14:45:09.676Z</time></trkpt><trkpt lat="40.840795" lon="9.2856617"><ele>440.5</ele><time>2026-05-01T14:45:10.676Z</time></trkpt><trkpt lat="40.840845" lon="9.2855017"><ele>441.0</ele><time>2026-05-01T14:45:11.676Z</time></trkpt><trkpt lat="40.840895" lon="9.28533"><ele>441.5</ele><time>2026-05-01T14:45:12.676Z</time></trkpt><trkpt lat="40.84094" lon="9.2851717"><ele>442.0</ele><time>2026-05-01T14:45:13.676Z</time></trkpt><trkpt lat="40.840975" lon="9.2850333"><ele>439.25</ele><time>2026-05-01T14:45:14.676Z</time></trkpt><trkpt lat="40.8410033" lon="9.2848867"><ele>436.5</ele><time>2026-05-01T14:45:15.676Z</time></trkpt><trkpt lat="40.841015" lon="9.2847383"><ele>433.75</ele><time>2026-05-01T14:45:16.676Z</time></trkpt><trkpt lat="40.8410333" lon="9.2845883"><ele>431.0</ele><time>2026-05-01T14:45:17.676Z</time></trkpt><trkpt lat="40.8410583" lon="9.2844283"><ele>431.0</ele><time>2026-05-01T14:45:18.677Z</time></trkpt><trkpt lat="40.8410917" lon="9.28427"><ele>431.0</ele><time>2026-05-01T14:45:19.676Z</time></trkpt><trkpt lat="40.8411267" lon="9.2841233"><ele>431.0</ele><time>2026-05-01T14:45:20.676Z</time></trkpt><trkpt lat="40.8411633" lon="9.2839783"><ele>431.0</ele><time>2026-05-01T14:45:21.676Z</time></trkpt><trkpt lat="40.8412067" lon="9.2838567"><ele>433.49999999999994</ele><time>2026-05-01T14:45:22.676Z</time></trkpt><trkpt lat="40.84124" lon="9.2837633"><ele>436.0</ele><time>2026-05-01T14:45:23.676Z</time></trkpt><trkpt lat="40.841285" lon="9.2836667"><ele>438.5</ele><time>2026-05-01T14:45:24.676Z</time></trkpt><trkpt lat="40.84134" lon="9.2835917"><ele>441.0</ele><time>2026-05-01T14:45:25.676Z</time></trkpt><trkpt lat="40.8413933" lon="9.2835267"><ele>443.49999999999994</ele><time>2026-05-01T14:45:26.676Z</time></trkpt><trkpt lat="40.84145" lon="9.28346"><ele>446.0</ele><time>2026-05-01T14:45:27.676Z</time></trkpt><trkpt lat="40.8415383" lon="9.2833783"><ele>446.0</ele><time>2026-05-01T14:45:28.676Z</time></trkpt><trkpt lat="40.8416367" lon="9.283305"><ele>446.0</ele><time>2026-05-01T14:45:29.676Z</time></trkpt><trkpt lat="40.841725" lon="9.2831767"><ele>446.0</ele><time>2026-05-01T14:45:30.677Z</time></trkpt><trkpt lat="40.8418117" lon="9.2830533"><ele>446.0</ele><time>2026-05-01T14:45:31.676Z</time></trkpt><trkpt lat="40.8419067" lon="9.2828967"><ele>444.0</ele><time>2026-05-01T14:45:32.676Z</time></trkpt><trkpt lat="40.842015" lon="9.28282"><ele>442.0</ele><time>2026-05-01T14:45:33.677Z</time></trkpt><trkpt lat="40.8421" lon="9.2827017"><ele>440.0</ele><time>2026-05-01T14:45:34.676Z</time></trkpt><trkpt lat="40.8422" lon="9.2825933"><ele>438.0</ele><time>2026-05-01T14:45:35.676Z</time></trkpt><trkpt lat="40.8423083" lon="9.2824117"><ele>442.0</ele><time>2026-05-01T14:45:36.676Z</time></trkpt><trkpt lat="40.8424033" lon="9.282215"><ele>446.0</ele><time>2026-05-01T14:45:37.676Z</time></trkpt><trkpt lat="40.842495" lon="9.28204"><ele>450.0</ele><time>2026-05-01T14:45:38.676Z</time></trkpt><trkpt lat="40.8425567" lon="9.2818617"><ele>450.0</ele><time>2026-05-01T14:45:39.676Z</time></trkpt><trkpt lat="40.8425833" lon="9.2817017"><ele>450.0</ele><time>2026-05-01T14:45:40.676Z</time></trkpt><trkpt lat="40.8426283" lon="9.2815733"><ele>450.0</ele><time>2026-05-01T14:45:41.676Z</time></trkpt><trkpt lat="40.8426883" lon="9.2814533"><ele>450.0</ele><time>2026-05-01T14:45:42.676Z</time></trkpt><trkpt lat="40.842755" lon="9.2813533"><ele>450.0</ele><time>2026-05-01T14:45:43.676Z</time></trkpt><trkpt lat="40.842825" lon="9.28126"><ele>448.75</ele><time>2026-05-01T14:45:44.676Z</time></trkpt><trkpt lat="40.84289" lon="9.281165"><ele>447.5</ele><time>2026-05-01T14:45:45.676Z</time></trkpt><trkpt lat="40.8429567" lon="9.281055"><ele>446.25</ele><time>2026-05-01T14:45:46.676Z</time></trkpt><trkpt lat="40.8430367" lon="9.280915"><ele>445.0</ele><time>2026-05-01T14:45:47.676Z</time></trkpt><trkpt lat="40.8431067" lon="9.2807583"><ele>448.6666666666667</ele><time>2026-05-01T14:45:48.676Z</time></trkpt><trkpt lat="40.84317" lon="9.2805817"><ele>452.33333333333337</ele><time>2026-05-01T14:45:49.676Z</time></trkpt><trkpt lat="40.8432267" lon="9.2803933"><ele>456.0</ele><time>2026-05-01T14:45:50.676Z</time></trkpt><trkpt lat="40.8432683" lon="9.2801983"><ele>456.0</ele><time>2026-05-01T14:45:51.676Z</time></trkpt><trkpt lat="40.8433083" lon="9.2799867"><ele>456.0</ele><time>2026-05-01T14:45:52.676Z</time></trkpt><trkpt lat="40.8433333" lon="9.2797717"><ele>456.0</ele><time>2026-05-01T14:45:53.676Z</time></trkpt><trkpt lat="40.8433333" lon="9.279555"><ele>456.75</ele><time>2026-05-01T14:45:54.676Z</time></trkpt><trkpt lat="40.84334" lon="9.279355"><ele>457.5</ele><time>2026-05-01T14:45:55.676Z</time></trkpt><trkpt lat="40.84334" lon="9.2791567"><ele>458.25</ele><time>2026-05-01T14:45:56.676Z</time></trkpt><trkpt lat="40.8433283" lon="9.278965"><ele>459.0</ele><time>2026-05-01T14:45:57.676Z</time></trkpt><trkpt lat="40.84332" lon="9.2787767"><ele>459.33333333333337</ele><time>2026-05-01T14:45:58.676Z</time></trkpt><trkpt lat="40.843305" lon="9.27859"><ele>459.6666666666667</ele><time>2026-05-01T14:45:59.676Z</time></trkpt><trkpt lat="40.8432717" lon="9.2783933"><ele>460.0</ele><time>2026-05-01T14:46:00.676Z</time></trkpt><trkpt lat="40.8432183" lon="9.27817"><ele>462.5</ele><time>2026-05-01T14:46:01.676Z</time></trkpt><trkpt lat="40.84321" lon="9.2779783"><ele>465.0</ele><time>2026-05-01T14:46:02.676Z</time></trkpt><trkpt lat="40.8431667" lon="9.2777683"><ele>467.5</ele><time>2026-05-01T14:46:03.676Z</time></trkpt><trkpt lat="40.8431617" lon="9.2776017"><ele>470.0</ele><time>2026-05-01T14:46:04.676Z</time></trkpt><trkpt lat="40.8431717" lon="9.2774183"><ele>472.75</ele><time>2026-05-01T14:46:05.676Z</time></trkpt><trkpt lat="40.8431767" lon="9.277255"><ele>475.5</ele><time>2026-05-01T14:46:06.676Z</time></trkpt><trkpt lat="40.8431783" lon="9.2770733"><ele>478.25</ele><time>2026-05-01T14:46:07.676Z</time></trkpt><trkpt lat="40.8432317" lon="9.276925"><ele>481.0</ele><time>2026-05-01T14:46:08.676Z</time></trkpt><trkpt lat="40.8433133" lon="9.27678"><ele>481.0</ele><time>2026-05-01T14:46:09.676Z</time></trkpt><trkpt lat="40.8434217" lon="9.2766283"><ele>481.0</ele><time>2026-05-01T14:46:10.676Z</time></trkpt><trkpt lat="40.8435067" lon="9.27649"><ele>481.0</ele><time>2026-05-01T14:46:11.676Z</time></trkpt><trkpt lat="40.8435933" lon="9.2763683"><ele>481.0</ele><time>2026-05-01T14:46:12.676Z</time></trkpt><trkpt lat="40.8437083" lon="9.2762633"><ele>480.5</ele><time>2026-05-01T14:46:13.676Z</time></trkpt><trkpt lat="40.8438367" lon="9.276155"><ele>480.0</ele><time>2026-05-01T14:46:14.676Z</time></trkpt><trkpt lat="40.8439517" lon="9.2760533"><ele>479.5</ele><time>2026-05-01T14:46:15.676Z</time></trkpt><trkpt lat="40.84406" lon="9.2759217"><ele>479.0</ele><time>2026-05-01T14:46:16.676Z</time></trkpt><trkpt lat="40.8441783" lon="9.2758333"><ele>479.0</ele><time>2026-05-01T14:46:17.676Z</time></trkpt><trkpt lat="40.8442567" lon="9.27574"><ele>479.0</ele><time>2026-05-01T14:46:18.676Z</time></trkpt><trkpt lat="40.8443333" lon="9.2756633"><ele>479.0</ele><time>2026-05-01T14:46:19.676Z</time></trkpt><trkpt lat="40.8443983" lon="9.27557"><ele>479.0</ele><time>2026-05-01T14:46:20.676Z</time></trkpt><trkpt lat="40.844455" lon="9.2754717"><ele>479.0</ele><time>2026-05-01T14:46:21.676Z</time></trkpt><trkpt lat="40.8445" lon="9.2753467"><ele>476.0</ele><time>2026-05-01T14:46:22.676Z</time></trkpt><trkpt lat="40.844565" lon="9.2752383"><ele>473.0</ele><time>2026-05-01T14:46:23.676Z</time></trkpt><trkpt lat="40.84463" lon="9.27511"><ele>470.0</ele><time>2026-05-01T14:46:24.676Z</time></trkpt><trkpt lat="40.8446917" lon="9.2749883"><ele>467.0</ele><time>2026-05-01T14:46:25.676Z</time></trkpt><trkpt lat="40.84477" lon="9.27486"><ele>469.3333333333333</ele><time>2026-05-01T14:46:26.676Z</time></trkpt><trkpt lat="40.84483" lon="9.2746983"><ele>471.66666666666663</ele><time>2026-05-01T14:46:27.676Z</time></trkpt><trkpt lat="40.844925" lon="9.27454"><ele>474.0</ele><time>2026-05-01T14:46:28.676Z</time></trkpt><trkpt lat="40.8450283" lon="9.2743683"><ele>471.33333333333337</ele><time>2026-05-01T14:46:29.676Z</time></trkpt><trkpt lat="40.8451817" lon="9.274205"><ele>468.6666666666667</ele><time>2026-05-01T14:46:30.676Z</time></trkpt><trkpt lat="40.8453133" lon="9.274055"><ele>466.0</ele><time>2026-05-01T14:46:31.676Z</time></trkpt><trkpt lat="40.8454317" lon="9.27391"><ele>466.0</ele><time>2026-05-01T14:46:32.676Z</time></trkpt><trkpt lat="40.8455483" lon="9.2737833"><ele>466.0</ele><time>2026-05-01T14:46:33.676Z</time></trkpt><trkpt lat="40.8456833" lon="9.2736217"><ele>466.0</ele><time>2026-05-01T14:46:34.676Z</time></trkpt><trkpt lat="40.8458083" lon="9.2734367"><ele>466.0</ele><time>2026-05-01T14:46:35.676Z</time></trkpt><trkpt lat="40.8459417" lon="9.2732933"><ele>466.0</ele><time>2026-05-01T14:46:36.676Z</time></trkpt><trkpt lat="40.8460467" lon="9.27312"><ele>466.0</ele><time>2026-05-01T14:46:37.676Z</time></trkpt><trkpt lat="40.84614" lon="9.272955"><ele>465.0</ele><time>2026-05-01T14:46:38.676Z</time></trkpt><trkpt lat="40.8462317" lon="9.2727783"><ele>464.0</ele><time>2026-05-01T14:46:39.676Z</time></trkpt><trkpt lat="40.8463517" lon="9.272615"><ele>463.0</ele><time>2026-05-01T14:46:40.676Z</time></trkpt><trkpt lat="40.84646" lon="9.2724067"><ele>464.0</ele><time>2026-05-01T14:46:41.676Z</time></trkpt><trkpt lat="40.8465567" lon="9.2721967"><ele>465.0</ele><time>2026-05-01T14:46:42.676Z</time></trkpt><trkpt lat="40.8466517" lon="9.2719933"><ele>466.0</ele><time>2026-05-01T14:46:43.676Z</time></trkpt><trkpt lat="40.846765" lon="9.2718167"><ele>463.33333333333337</ele><time>2026-05-01T14:46:44.677Z</time></trkpt><trkpt lat="40.8468583" lon="9.271635"><ele>460.66666666666663</ele><time>2026-05-01T14:46:45.676Z</time></trkpt><trkpt lat="40.84693" lon="9.2714533"><ele>458.0</ele><time>2026-05-01T14:46:46.676Z</time></trkpt><trkpt lat="40.8470133" lon="9.2712533"><ele>458.0</ele><time>2026-05-01T14:46:47.676Z</time></trkpt><trkpt lat="40.8470817" lon="9.2710517"><ele>458.0</ele><time>2026-05-01T14:46:48.676Z</time></trkpt><trkpt lat="40.8471167" lon="9.270875"><ele>458.0</ele><time>2026-05-01T14:46:49.676Z</time></trkpt><trkpt lat="40.8471817" lon="9.2706917"><ele>459.75</ele><time>2026-05-01T14:46:50.676Z</time></trkpt><trkpt lat="40.8472317" lon="9.2705283"><ele>461.5</ele><time>2026-05-01T14:46:51.676Z</time></trkpt><trkpt lat="40.8472767" lon="9.27036"><ele>463.25</ele><time>2026-05-01T14:46:52.676Z</time></trkpt><trkpt lat="40.847325" lon="9.2702067"><ele>465.0</ele><time>2026-05-01T14:46:53.676Z</time></trkpt><trkpt lat="40.8473767" lon="9.2700783"><ele>465.0</ele><time>2026-05-01T14:46:54.676Z</time></trkpt><trkpt lat="40.8474233" lon="9.269945"><ele>465.0</ele><time>2026-05-01T14:46:55.676Z</time></trkpt><trkpt lat="40.8474817" lon="9.269845"><ele>465.0</ele><time>2026-05-01T14:46:56.676Z</time></trkpt><trkpt lat="40.8475217" lon="9.2697433"><ele>465.0</ele><time>2026-05-01T14:46:57.676Z</time></trkpt><trkpt lat="40.84756" lon="9.2696517"><ele>465.0</ele><time>2026-05-01T14:46:58.676Z</time></trkpt><trkpt lat="40.8475867" lon="9.2695717"><ele>465.0</ele><time>2026-05-01T14:46:59.676Z</time></trkpt><trkpt lat="40.8476417" lon="9.2694367"><ele>465.42857142857144</ele><time>2026-05-01T14:47:01.676Z</time></trkpt><trkpt lat="40.8477217" lon="9.2693467"><ele>465.8571428571429</ele><time>2026-05-01T14:47:03.676Z</time></trkpt><trkpt lat="40.84776" lon="9.2692783"><ele>466.28571428571433</ele><time>2026-05-01T14:47:05.676Z</time></trkpt><trkpt lat="40.84781" lon="9.26922"><ele>466.7142857142857</ele><time>2026-05-01T14:47:07.676Z</time></trkpt><trkpt lat="40.8478583" lon="9.2691567"><ele>467.1428571428572</ele><time>2026-05-01T14:47:09.676Z</time></trkpt><trkpt lat="40.84791" lon="9.2690917"><ele>467.5714285714286</ele><time>2026-05-01T14:47:11.677Z</time></trkpt><trkpt lat="40.8479617" lon="9.269025"><ele>468.0</ele><time>2026-05-01T14:47:13.676Z</time></trkpt><trkpt lat="40.8480283" lon="9.26893"><ele>468.79999999999995</ele><time>2026-05-01T14:47:15.676Z</time></trkpt><trkpt lat="40.848095" lon="9.2687983"><ele>469.59999999999997</ele><time>2026-05-01T14:47:17.676Z</time></trkpt><trkpt lat="40.8481367" lon="9.2686517"><ele>470.40000000000003</ele><time>2026-05-01T14:47:19.676Z</time></trkpt><trkpt lat="40.8482033" lon="9.268505"><ele>471.20000000000005</ele><time>2026-05-01T14:47:21.676Z</time></trkpt><trkpt lat="40.8482517" lon="9.2684233"><ele>472.0</ele><time>2026-05-01T14:47:22.676Z</time></trkpt><trkpt lat="40.8483017" lon="9.2683383"><ele>472.0</ele><time>2026-05-01T14:47:23.677Z</time></trkpt><trkpt lat="40.8483567" lon="9.2682283"><ele>472.00000000000006</ele><time>2026-05-01T14:47:24.676Z</time></trkpt><trkpt lat="40.8484167" lon="9.2681067"><ele>472.00000000000006</ele><time>2026-05-01T14:47:25.676Z</time></trkpt><trkpt lat="40.8484817" lon="9.2679917"><ele>472.0</ele><time>2026-05-01T14:47:26.676Z</time></trkpt><trkpt lat="40.848545" lon="9.2678767"><ele>472.0</ele><time>2026-05-01T14:47:27.676Z</time></trkpt><trkpt lat="40.8485967" lon="9.2677533"><ele>472.20000000000005</ele><time>2026-05-01T14:47:28.676Z</time></trkpt><trkpt lat="40.848645" lon="9.26763"><ele>472.40000000000003</ele><time>2026-05-01T14:47:29.676Z</time></trkpt><trkpt lat="40.8487" lon="9.267515"><ele>472.59999999999997</ele><time>2026-05-01T14:47:30.676Z</time></trkpt><trkpt lat="40.8487717" lon="9.2674083"><ele>472.79999999999995</ele><time>2026-05-01T14:47:31.676Z</time></trkpt><trkpt lat="40.8488383" lon="9.2673133"><ele>473.0</ele><time>2026-05-01T14:47:32.676Z</time></trkpt><trkpt lat="40.84891" lon="9.267225"><ele>473.66666666666663</ele><time>2026-05-01T14:47:33.676Z</time></trkpt><trkpt lat="40.8489817" lon="9.2671633"><ele>474.3333333333333</ele><time>2026-05-01T14:47:34.676Z</time></trkpt><trkpt lat="40.84904" lon="9.2670717"><ele>475.0</ele><time>2026-05-01T14:47:35.676Z</time></trkpt><trkpt lat="40.8490967" lon="9.26699"><ele>475.66666666666663</ele><time>2026-05-01T14:47:36.676Z</time></trkpt><trkpt lat="40.849145" lon="9.266905"><ele>476.3333333333333</ele><time>2026-05-01T14:47:37.676Z</time></trkpt><trkpt lat="40.8491983" lon="9.2668267"><ele>477.0</ele><time>2026-05-01T14:47:38.676Z</time></trkpt><trkpt lat="40.849245" lon="9.266755"><ele>477.0</ele><time>2026-05-01T14:47:39.676Z</time></trkpt><trkpt lat="40.8492917" lon="9.2666783"><ele>477.00000000000006</ele><time>2026-05-01T14:47:40.676Z</time></trkpt><trkpt lat="40.849365" lon="9.2665533"><ele>477.00000000000006</ele><time>2026-05-01T14:47:42.676Z</time></trkpt><trkpt lat="40.8494417" lon="9.2664333"><ele>477.0</ele><time>2026-05-01T14:47:44.676Z</time></trkpt><trkpt lat="40.849505" lon="9.26633"><ele>477.0</ele><time>2026-05-01T14:47:46.676Z</time></trkpt><trkpt lat="40.849555" lon="9.2662517"><ele>476.6666666666667</ele><time>2026-05-01T14:47:48.676Z</time></trkpt><trkpt lat="40.849585" lon="9.266135"><ele>476.33333333333337</ele><time>2026-05-01T14:47:50.676Z</time></trkpt><trkpt lat="40.849615" lon="9.266025"><ele>476.0</ele><time>2026-05-01T14:47:52.676Z</time></trkpt><trkpt lat="40.8496467" lon="9.265935"><ele>475.6666666666667</ele><time>2026-05-01T14:47:54.676Z</time></trkpt><trkpt lat="40.849675" lon="9.2658483"><ele>475.33333333333337</ele><time>2026-05-01T14:47:56.676Z</time></trkpt><trkpt lat="40.8497167" lon="9.26575"><ele>475.0</ele><time>2026-05-01T14:47:58.676Z</time></trkpt><trkpt lat="40.8497567" lon="9.26563"><ele>474.83333333333337</ele><time>2026-05-01T14:48:00.676Z</time></trkpt><trkpt lat="40.8498167" lon="9.2654933"><ele>474.6666666666667</ele><time>2026-05-01T14:48:02.676Z</time></trkpt><trkpt lat="40.8498517" lon="9.2654217"><ele>474.5</ele><time>2026-05-01T14:48:03.676Z</time></trkpt><trkpt lat="40.849895" lon="9.2653567"><ele>474.33333333333337</ele><time>2026-05-01T14:48:04.676Z</time></trkpt><trkpt lat="40.8499417" lon="9.2652883"><ele>474.1666666666667</ele><time>2026-05-01T14:48:05.676Z</time></trkpt><trkpt lat="40.8500033" lon="9.26521"><ele>474.0</ele><time>2026-05-01T14:48:06.676Z</time></trkpt><trkpt lat="40.85008" lon="9.2650933"><ele>474.0</ele><time>2026-05-01T14:48:07.676Z</time></trkpt><trkpt lat="40.8501583" lon="9.26495"><ele>474.0</ele><time>2026-05-01T14:48:08.676Z</time></trkpt><trkpt lat="40.8502467" lon="9.2647883"><ele>474.0</ele><time>2026-05-01T14:48:09.676Z</time></trkpt><trkpt lat="40.850335" lon="9.2646317"><ele>474.0</ele><time>2026-05-01T14:48:10.676Z</time></trkpt><trkpt lat="40.850415" lon="9.26449"><ele>474.5</ele><time>2026-05-01T14:48:11.676Z</time></trkpt><trkpt lat="40.8504967" lon="9.26436"><ele>475.0</ele><time>2026-05-01T14:48:12.676Z</time></trkpt><trkpt lat="40.8505817" lon="9.2642217"><ele>475.5</ele><time>2026-05-01T14:48:13.676Z</time></trkpt><trkpt lat="40.8506617" lon="9.26411"><ele>476.0</ele><time>2026-05-01T14:48:14.676Z</time></trkpt><trkpt lat="40.8507633" lon="9.2640017"><ele>475.66666666666663</ele><time>2026-05-01T14:48:15.676Z</time></trkpt><trkpt lat="40.8508867" lon="9.26389"><ele>475.33333333333337</ele><time>2026-05-01T14:48:16.676Z</time></trkpt><trkpt lat="40.851035" lon="9.26377"><ele>475.0</ele><time>2026-05-01T14:48:17.676Z</time></trkpt><trkpt lat="40.8511833" lon="9.2636283"><ele>476.0</ele><time>2026-05-01T14:48:18.676Z</time></trkpt><trkpt lat="40.8513383" lon="9.2634767"><ele>477.0</ele><time>2026-05-01T14:48:19.676Z</time></trkpt><trkpt lat="40.8514783" lon="9.2633333"><ele>478.0</ele><time>2026-05-01T14:48:20.676Z</time></trkpt><trkpt lat="40.8516117" lon="9.2631833"><ele>478.0</ele><time>2026-05-01T14:48:21.676Z</time></trkpt><trkpt lat="40.8517383" lon="9.2630367"><ele>478.0</ele><time>2026-05-01T14:48:22.676Z</time></trkpt><trkpt lat="40.8518483" lon="9.26292"><ele>478.0</ele><time>2026-05-01T14:48:23.676Z</time></trkpt><trkpt lat="40.8519417" lon="9.26284"><ele>478.0</ele><time>2026-05-01T14:48:24.676Z</time></trkpt><trkpt lat="40.8520467" lon="9.2627733"><ele>477.75</ele><time>2026-05-01T14:48:25.676Z</time></trkpt><trkpt lat="40.8521483" lon="9.2627267"><ele>477.5</ele><time>2026-05-01T14:48:26.676Z</time></trkpt><trkpt lat="40.852285" lon="9.2626767"><ele>477.25</ele><time>2026-05-01T14:48:27.676Z</time></trkpt><trkpt lat="40.85243" lon="9.26262"><ele>477.0</ele><time>2026-05-01T14:48:28.676Z</time></trkpt><trkpt lat="40.852575" lon="9.26255"><ele>477.0</ele><time>2026-05-01T14:48:29.676Z</time></trkpt><trkpt lat="40.8527167" lon="9.2624667"><ele>477.0</ele><time>2026-05-01T14:48:30.676Z</time></trkpt><trkpt lat="40.8528433" lon="9.2623783"><ele>477.0</ele><time>2026-05-01T14:48:31.676Z</time></trkpt><trkpt lat="40.852965" lon="9.2622783"><ele>477.0</ele><time>2026-05-01T14:48:32.676Z</time></trkpt><trkpt lat="40.8530817" lon="9.2621733"><ele>477.33333333333337</ele><time>2026-05-01T14:48:33.676Z</time></trkpt><trkpt lat="40.8532033" lon="9.2620267"><ele>477.6666666666667</ele><time>2026-05-01T14:48:34.676Z</time></trkpt><trkpt lat="40.8533217" lon="9.2618817"><ele>478.0</ele><time>2026-05-01T14:48:35.676Z</time></trkpt><trkpt lat="40.8534433" lon="9.2617217"><ele>478.0</ele><time>2026-05-01T14:48:36.676Z</time></trkpt><trkpt lat="40.8535667" lon="9.2615633"><ele>478.0</ele><time>2026-05-01T14:48:37.676Z</time></trkpt><trkpt lat="40.853685" lon="9.2614133"><ele>478.0</ele><time>2026-05-01T14:48:38.676Z</time></trkpt><trkpt lat="40.8537967" lon="9.26126"><ele>478.33333333333337</ele><time>2026-05-01T14:48:39.676Z</time></trkpt><trkpt lat="40.8538983" lon="9.2611083"><ele>478.66666666666663</ele><time>2026-05-01T14:48:40.676Z</time></trkpt><trkpt lat="40.85401" lon="9.2609817"><ele>479.0</ele><time>2026-05-01T14:48:41.676Z</time></trkpt><trkpt lat="40.8541217" lon="9.2608233"><ele>479.0</ele><time>2026-05-01T14:48:42.676Z</time></trkpt><trkpt lat="40.8542817" lon="9.2606983"><ele>479.0</ele><time>2026-05-01T14:48:43.676Z</time></trkpt><trkpt lat="40.8544267" lon="9.2605833"><ele>479.0</ele><time>2026-05-01T14:48:44.676Z</time></trkpt><trkpt lat="40.8545383" lon="9.260485"><ele>480.25</ele><time>2026-05-01T14:48:45.676Z</time></trkpt><trkpt lat="40.85462" lon="9.2603417"><ele>481.5</ele><time>2026-05-01T14:48:46.676Z</time></trkpt><trkpt lat="40.8546967" lon="9.2601917"><ele>482.75</ele><time>2026-05-01T14:48:47.676Z</time></trkpt><trkpt lat="40.8547833" lon="9.260045"><ele>484.0</ele><time>2026-05-01T14:48:48.676Z</time></trkpt><trkpt lat="40.8548817" lon="9.2599383"><ele>484.0</ele><time>2026-05-01T14:48:49.676Z</time></trkpt><trkpt lat="40.8549833" lon="9.2598433"><ele>484.0</ele><time>2026-05-01T14:48:50.676Z</time></trkpt><trkpt lat="40.8550917" lon="9.2597633"><ele>484.0</ele><time>2026-05-01T14:48:51.676Z</time></trkpt><trkpt lat="40.855175" lon="9.2596733"><ele>484.0</ele><time>2026-05-01T14:48:52.676Z</time></trkpt><trkpt lat="40.85526" lon="9.2595917"><ele>484.5</ele><time>2026-05-01T14:48:53.676Z</time></trkpt><trkpt lat="40.8553367" lon="9.2595233"><ele>485.0</ele><time>2026-05-01T14:48:54.676Z</time></trkpt><trkpt lat="40.8554117" lon="9.2594017"><ele>485.5</ele><time>2026-05-01T14:48:55.676Z</time></trkpt><trkpt lat="40.8554617" lon="9.2592383"><ele>486.0</ele><time>2026-05-01T14:48:56.676Z</time></trkpt><trkpt lat="40.855535" lon="9.2590633"><ele>486.33333333333337</ele><time>2026-05-01T14:48:57.676Z</time></trkpt><trkpt lat="40.8556117" lon="9.2588967"><ele>486.6666666666667</ele><time>2026-05-01T14:48:58.676Z</time></trkpt><trkpt lat="40.85566" lon="9.2587233"><ele>487.0</ele><time>2026-05-01T14:48:59.676Z</time></trkpt><trkpt lat="40.8557017" lon="9.2584817"><ele>487.0</ele><time>2026-05-01T14:49:00.676Z</time></trkpt><trkpt lat="40.8557183" lon="9.2582983"><ele>487.0</ele><time>2026-05-01T14:49:01.676Z</time></trkpt><trkpt lat="40.85573" lon="9.2580917"><ele>487.0</ele><time>2026-05-01T14:49:02.676Z</time></trkpt><trkpt lat="40.85575" lon="9.25791"><ele>487.0</ele><time>2026-05-01T14:49:03.676Z</time></trkpt><trkpt lat="40.8557667" lon="9.2577617"><ele>487.0</ele><time>2026-05-01T14:49:04.676Z</time></trkpt><trkpt lat="40.8558" lon="9.2576133"><ele>487.0</ele><time>2026-05-01T14:49:05.676Z</time></trkpt><trkpt lat="40.8558433" lon="9.25747"><ele>487.0</ele><time>2026-05-01T14:49:06.676Z</time></trkpt><trkpt lat="40.85594" lon="9.2573733"><ele>487.0</ele><time>2026-05-01T14:49:07.676Z</time></trkpt><trkpt lat="40.856015" lon="9.257245"><ele>486.75</ele><time>2026-05-01T14:49:08.676Z</time></trkpt><trkpt lat="40.8560933" lon="9.257115"><ele>486.5</ele><time>2026-05-01T14:49:09.676Z</time></trkpt><trkpt lat="40.85617" lon="9.25699"><ele>486.25</ele><time>2026-05-01T14:49:10.676Z</time></trkpt><trkpt lat="40.85626" lon="9.25687"><ele>486.0</ele><time>2026-05-01T14:49:11.676Z</time></trkpt><trkpt lat="40.85638" lon="9.2567633"><ele>486.0</ele><time>2026-05-01T14:49:12.676Z</time></trkpt><trkpt lat="40.8564867" lon="9.2566633"><ele>486.0</ele><time>2026-05-01T14:49:13.676Z</time></trkpt><trkpt lat="40.8565983" lon="9.25657"><ele>486.0</ele><time>2026-05-01T14:49:14.676Z</time></trkpt><trkpt lat="40.85669" lon="9.2564567"><ele>486.0</ele><time>2026-05-01T14:49:15.676Z</time></trkpt><trkpt lat="40.8567883" lon="9.256355"><ele>486.0</ele><time>2026-05-01T14:49:16.676Z</time></trkpt><trkpt lat="40.85688" lon="9.25624"><ele>486.0</ele><time>2026-05-01T14:49:17.676Z</time></trkpt><trkpt lat="40.856985" lon="9.2561367"><ele>486.0</ele><time>2026-05-01T14:49:18.676Z</time></trkpt><trkpt lat="40.8570833" lon="9.256075"><ele>486.0</ele><time>2026-05-01T14:49:19.677Z</time></trkpt><trkpt lat="40.8571733" lon="9.2559883"><ele>486.0</ele><time>2026-05-01T14:49:20.676Z</time></trkpt><trkpt lat="40.85725" lon="9.25593"><ele>486.0</ele><time>2026-05-01T14:49:21.676Z</time></trkpt><trkpt lat="40.8573183" lon="9.25589"><ele>486.0</ele><time>2026-05-01T14:49:22.676Z</time></trkpt><trkpt lat="40.8573833" lon="9.2558567"><ele>486.0</ele><time>2026-05-01T14:49:23.676Z</time></trkpt><trkpt lat="40.8574833" lon="9.2558067"><ele>486.0</ele><time>2026-05-01T14:49:25.676Z</time></trkpt><trkpt lat="40.8575483" lon="9.2558183"><ele>486.0</ele><time>2026-05-01T14:49:27.676Z</time></trkpt><trkpt lat="40.8576467" lon="9.25584"><ele>486.0</ele><time>2026-05-01T14:49:59.676Z</time></trkpt><trkpt lat="40.8577183" lon="9.2557833"><ele>486.0</ele><time>2026-05-01T14:50:00.676Z</time></trkpt><trkpt lat="40.857845" lon="9.25571"><ele>486.0</ele><time>2026-05-01T14:50:01.676Z</time></trkpt><trkpt lat="40.8580533" lon="9.255635"><ele>486.0</ele><time>2026-05-01T14:50:02.676Z</time></trkpt><trkpt lat="40.8582317" lon="9.2555683"><ele>486.33333333333337</ele><time>2026-05-01T14:50:03.677Z</time></trkpt><trkpt lat="40.8584033" lon="9.2554983"><ele>486.6666666666667</ele><time>2026-05-01T14:50:04.676Z</time></trkpt><trkpt lat="40.858585" lon="9.255435"><ele>487.0</ele><time>2026-05-01T14:50:05.676Z</time></trkpt><trkpt lat="40.8587667" lon="9.25539"><ele>487.6666666666667</ele><time>2026-05-01T14:50:06.676Z</time></trkpt><trkpt lat="40.8589367" lon="9.2553567"><ele>488.33333333333337</ele><time>2026-05-01T14:50:07.676Z</time></trkpt><trkpt lat="40.8591067" lon="9.2553267"><ele>489.0</ele><time>2026-05-01T14:50:08.676Z</time></trkpt><trkpt lat="40.8592883" lon="9.255295"><ele>489.33333333333337</ele><time>2026-05-01T14:50:09.676Z</time></trkpt><trkpt lat="40.8594667" lon="9.2552633"><ele>489.6666666666667</ele><time>2026-05-01T14:50:10.676Z</time></trkpt><trkpt lat="40.8596133" lon="9.255245"><ele>490.0</ele><time>2026-05-01T14:50:11.676Z</time></trkpt><trkpt lat="40.8597533" lon="9.2552467"><ele>490.0</ele><time>2026-05-01T14:50:12.676Z</time></trkpt><trkpt lat="40.85988" lon="9.2552617"><ele>490.0</ele><time>2026-05-01T14:50:13.676Z</time></trkpt><trkpt lat="40.8599933" lon="9.2552667"><ele>490.0</ele><time>2026-05-01T14:50:14.676Z</time></trkpt><trkpt lat="40.8600933" lon="9.2552783"><ele>490.0</ele><time>2026-05-01T14:50:15.676Z</time></trkpt><trkpt lat="40.86018" lon="9.2553"><ele>490.0</ele><time>2026-05-01T14:50:16.676Z</time></trkpt><trkpt lat="40.860255" lon="9.2553367"><ele>490.0</ele><time>2026-05-01T14:50:17.676Z</time></trkpt><trkpt lat="40.8603283" lon="9.2554233"><ele>490.0</ele><time>2026-05-01T14:50:19.676Z</time></trkpt><trkpt lat="40.8603467" lon="9.2555883"><ele>490.0</ele><time>2026-05-01T14:50:21.676Z</time></trkpt><trkpt lat="40.860295" lon="9.25571"><ele>490.0</ele><time>2026-05-01T14:50:22.676Z</time></trkpt><trkpt lat="40.8602083" lon="9.25586"><ele>489.5</ele><time>2026-05-01T14:50:23.676Z</time></trkpt><trkpt lat="40.86015" lon="9.2560017"><ele>489.0</ele><time>2026-05-01T14:50:24.677Z</time></trkpt><trkpt lat="40.8601017" lon="9.2561767"><ele>488.5</ele><time>2026-05-01T14:50:25.676Z</time></trkpt><trkpt lat="40.86004" lon="9.2563333"><ele>488.0</ele><time>2026-05-01T14:50:26.676Z</time></trkpt><trkpt lat="40.85996" lon="9.2565"><ele>488.0</ele><time>2026-05-01T14:50:27.676Z</time></trkpt><trkpt lat="40.8598683" lon="9.2566817"><ele>488.0</ele><time>2026-05-01T14:50:28.676Z</time></trkpt><trkpt lat="40.8597633" lon="9.256875"><ele>488.0</ele><time>2026-05-01T14:50:29.676Z</time></trkpt><trkpt lat="40.8596667" lon="9.2570483"><ele>488.0</ele><time>2026-05-01T14:50:30.676Z</time></trkpt><trkpt lat="40.8595833" lon="9.25722"><ele>488.0</ele><time>2026-05-01T14:50:31.676Z</time></trkpt><trkpt lat="40.8595033" lon="9.257385"><ele>488.0</ele><time>2026-05-01T14:50:32.676Z</time></trkpt><trkpt lat="40.8594383" lon="9.257545"><ele>488.0</ele><time>2026-05-01T14:50:33.676Z</time></trkpt><trkpt lat="40.8593633" lon="9.2576867"><ele>487.75</ele><time>2026-05-01T14:50:34.676Z</time></trkpt><trkpt lat="40.8592817" lon="9.2578317"><ele>487.5</ele><time>2026-05-01T14:50:35.676Z</time></trkpt><trkpt lat="40.859205" lon="9.2579567"><ele>487.25</ele><time>2026-05-01T14:50:36.676Z</time></trkpt><trkpt lat="40.85912" lon="9.2580967"><ele>487.0</ele><time>2026-05-01T14:50:37.676Z</time></trkpt><trkpt lat="40.8590433" lon="9.258245"><ele>487.0</ele><time>2026-05-01T14:50:38.676Z</time></trkpt><trkpt lat="40.8589933" lon="9.2583783"><ele>487.0</ele><time>2026-05-01T14:50:39.676Z</time></trkpt><trkpt lat="40.8589333" lon="9.2585167"><ele>487.0</ele><time>2026-05-01T14:50:40.676Z</time></trkpt><trkpt lat="40.8588617" lon="9.2586967"><ele>487.0</ele><time>2026-05-01T14:50:41.676Z</time></trkpt><trkpt lat="40.8587733" lon="9.25887"><ele>487.0</ele><time>2026-05-01T14:50:42.676Z</time></trkpt><trkpt lat="40.8586983" lon="9.25903"><ele>487.0</ele><time>2026-05-01T14:50:43.676Z</time></trkpt><trkpt lat="40.8586" lon="9.2591883"><ele>487.0</ele><time>2026-05-01T14:50:44.676Z</time></trkpt><trkpt lat="40.85851" lon="9.2593583"><ele>486.6666666666667</ele><time>2026-05-01T14:50:45.676Z</time></trkpt><trkpt lat="40.8584167" lon="9.2595333"><ele>486.33333333333337</ele><time>2026-05-01T14:50:46.676Z</time></trkpt><trkpt lat="40.8583233" lon="9.2597117"><ele>486.0</ele><time>2026-05-01T14:50:47.677Z</time></trkpt><trkpt lat="40.8582217" lon="9.2599033"><ele>486.0</ele><time>2026-05-01T14:50:48.676Z</time></trkpt><trkpt lat="40.8581317" lon="9.2600817"><ele>486.0</ele><time>2026-05-01T14:50:49.676Z</time></trkpt><trkpt lat="40.8580217" lon="9.2602767"><ele>486.0</ele><time>2026-05-01T14:50:50.676Z</time></trkpt><trkpt lat="40.85793" lon="9.260435"><ele>485.66666666666663</ele><time>2026-05-01T14:50:51.676Z</time></trkpt><trkpt lat="40.8578217" lon="9.260645"><ele>485.3333333333333</ele><time>2026-05-01T14:50:52.676Z</time></trkpt><trkpt lat="40.85773" lon="9.2608217"><ele>485.0</ele><time>2026-05-01T14:50:53.676Z</time></trkpt><trkpt lat="40.8576417" lon="9.2610167"><ele>485.3333333333333</ele><time>2026-05-01T14:50:54.676Z</time></trkpt><trkpt lat="40.8575433" lon="9.2611883"><ele>485.66666666666663</ele><time>2026-05-01T14:50:55.676Z</time></trkpt><trkpt lat="40.8574433" lon="9.2613267"><ele>486.0</ele><time>2026-05-01T14:50:56.676Z</time></trkpt><trkpt lat="40.85736" lon="9.2614967"><ele>486.0</ele><time>2026-05-01T14:50:57.676Z</time></trkpt><trkpt lat="40.8572817" lon="9.26166"><ele>486.0</ele><time>2026-05-01T14:50:58.676Z</time></trkpt><trkpt lat="40.8571983" lon="9.2618267"><ele>486.0</ele><time>2026-05-01T14:50:59.676Z</time></trkpt><trkpt lat="40.85711" lon="9.2620083"><ele>486.0</ele><time>2026-05-01T14:51:00.677Z</time></trkpt><trkpt lat="40.8570183" lon="9.2621933"><ele>486.0</ele><time>2026-05-01T14:51:01.677Z</time></trkpt><trkpt lat="40.8569283" lon="9.2623817"><ele>486.0</ele><time>2026-05-01T14:51:02.677Z</time></trkpt><trkpt lat="40.8568267" lon="9.2625683"><ele>485.66666666666663</ele><time>2026-05-01T14:51:03.676Z</time></trkpt><trkpt lat="40.856755" lon="9.26277"><ele>485.3333333333333</ele><time>2026-05-01T14:51:04.676Z</time></trkpt><trkpt lat="40.856665" lon="9.2629317"><ele>485.0</ele><time>2026-05-01T14:51:05.676Z</time></trkpt><trkpt lat="40.8565617" lon="9.2631267"><ele>485.0</ele><time>2026-05-01T14:51:06.676Z</time></trkpt><trkpt lat="40.8564567" lon="9.2632967"><ele>485.0</ele><time>2026-05-01T14:51:07.676Z</time></trkpt><trkpt lat="40.8563733" lon="9.2634883"><ele>485.0</ele><time>2026-05-01T14:51:08.676Z</time></trkpt><trkpt lat="40.8562917" lon="9.263675"><ele>485.0</ele><time>2026-05-01T14:51:09.676Z</time></trkpt><trkpt lat="40.856215" lon="9.26385"><ele>485.0</ele><time>2026-05-01T14:51:10.676Z</time></trkpt><trkpt lat="40.85615" lon="9.2640167"><ele>485.0</ele><time>2026-05-01T14:51:11.676Z</time></trkpt><trkpt lat="40.856075" lon="9.2642017"><ele>485.0</ele><time>2026-05-01T14:51:12.676Z</time></trkpt><trkpt lat="40.8560133" lon="9.264385"><ele>485.0</ele><time>2026-05-01T14:51:13.676Z</time></trkpt><trkpt lat="40.8559567" lon="9.2645867"><ele>485.0</ele><time>2026-05-01T14:51:14.676Z</time></trkpt><trkpt lat="40.85589" lon="9.264795"><ele>484.0</ele><time>2026-05-01T14:51:15.676Z</time></trkpt><trkpt lat="40.855825" lon="9.2650183"><ele>483.0</ele><time>2026-05-01T14:51:16.676Z</time></trkpt><trkpt lat="40.8557933" lon="9.265245"><ele>482.0</ele><time>2026-05-01T14:51:17.676Z</time></trkpt><trkpt lat="40.8557733" lon="9.265465"><ele>482.0</ele><time>2026-05-01T14:51:18.676Z</time></trkpt><trkpt lat="40.8557333" lon="9.2656717"><ele>482.0</ele><time>2026-05-01T14:51:19.676Z</time></trkpt><trkpt lat="40.8556933" lon="9.2658767"><ele>482.0</ele><time>2026-05-01T14:51:20.676Z</time></trkpt><trkpt lat="40.855665" lon="9.2660783"><ele>482.0</ele><time>2026-05-01T14:51:21.676Z</time></trkpt><trkpt lat="40.8556217" lon="9.2663"><ele>482.0</ele><time>2026-05-01T14:51:22.676Z</time></trkpt><trkpt lat="40.8555933" lon="9.2664817"><ele>482.0</ele><time>2026-05-01T14:51:23.677Z</time></trkpt><trkpt lat="40.855575" lon="9.2666833"><ele>481.66666666666663</ele><time>2026-05-01T14:51:24.676Z</time></trkpt><trkpt lat="40.855585" lon="9.2668567"><ele>481.33333333333337</ele><time>2026-05-01T14:51:25.676Z</time></trkpt><trkpt lat="40.8555683" lon="9.267075"><ele>481.0</ele><time>2026-05-01T14:51:26.676Z</time></trkpt><trkpt lat="40.8555717" lon="9.2673183"><ele>481.0</ele><time>2026-05-01T14:51:27.676Z</time></trkpt><trkpt lat="40.855565" lon="9.2675817"><ele>481.0</ele><time>2026-05-01T14:51:28.676Z</time></trkpt><trkpt lat="40.8555567" lon="9.26783"><ele>481.0</ele><time>2026-05-01T14:51:29.677Z</time></trkpt><trkpt lat="40.8555433" lon="9.268055"><ele>481.25</ele><time>2026-05-01T14:51:30.676Z</time></trkpt><trkpt lat="40.855555" lon="9.2682483"><ele>481.5</ele><time>2026-05-01T14:51:31.676Z</time></trkpt><trkpt lat="40.8555617" lon="9.26843"><ele>481.75</ele><time>2026-05-01T14:51:32.676Z</time></trkpt><trkpt lat="40.85554" lon="9.2686083"><ele>482.0</ele><time>2026-05-01T14:51:33.676Z</time></trkpt><trkpt lat="40.8555217" lon="9.2688033"><ele>482.3333333333333</ele><time>2026-05-01T14:51:34.676Z</time></trkpt><trkpt lat="40.8555083" lon="9.2690017"><ele>482.66666666666663</ele><time>2026-05-01T14:51:35.676Z</time></trkpt><trkpt lat="40.855495" lon="9.2692117"><ele>483.0</ele><time>2026-05-01T14:51:36.676Z</time></trkpt><trkpt lat="40.8554767" lon="9.2694183"><ele>483.0</ele><time>2026-05-01T14:51:37.676Z</time></trkpt><trkpt lat="40.8554433" lon="9.26962"><ele>483.0</ele><time>2026-05-01T14:51:38.676Z</time></trkpt><trkpt lat="40.8554417" lon="9.26981"><ele>483.0</ele><time>2026-05-01T14:51:39.676Z</time></trkpt><trkpt lat="40.8554383" lon="9.2700067"><ele>483.0</ele><time>2026-05-01T14:51:40.676Z</time></trkpt><trkpt lat="40.8554183" lon="9.2702083"><ele>483.0</ele><time>2026-05-01T14:51:41.676Z</time></trkpt><trkpt lat="40.8554067" lon="9.2704067"><ele>483.0</ele><time>2026-05-01T14:51:42.676Z</time></trkpt><trkpt lat="40.8553933" lon="9.2706"><ele>483.0</ele><time>2026-05-01T14:51:43.676Z</time></trkpt><trkpt lat="40.8553867" lon="9.2707883"><ele>483.0</ele><time>2026-05-01T14:51:44.676Z</time></trkpt><trkpt lat="40.85538" lon="9.270975"><ele>482.75</ele><time>2026-05-01T14:51:45.676Z</time></trkpt><trkpt lat="40.8553633" lon="9.2711417"><ele>482.5</ele><time>2026-05-01T14:51:46.677Z</time></trkpt><trkpt lat="40.855355" lon="9.2713483"><ele>482.25</ele><time>2026-05-01T14:51:47.676Z</time></trkpt><trkpt lat="40.85535" lon="9.2715367"><ele>482.0</ele><time>2026-05-01T14:51:48.676Z</time></trkpt><trkpt lat="40.8553367" lon="9.2717417"><ele>482.0</ele><time>2026-05-01T14:51:49.676Z</time></trkpt><trkpt lat="40.855305" lon="9.2719583"><ele>482.0</ele><time>2026-05-01T14:51:50.676Z</time></trkpt><trkpt lat="40.8552733" lon="9.27218"><ele>482.0</ele><time>2026-05-01T14:51:51.676Z</time></trkpt><trkpt lat="40.8552217" lon="9.2724183"><ele>482.0</ele><time>2026-05-01T14:51:52.676Z</time></trkpt><trkpt lat="40.855155" lon="9.2726267"><ele>482.0</ele><time>2026-05-01T14:51:53.676Z</time></trkpt><trkpt lat="40.8550933" lon="9.2728133"><ele>482.0</ele><time>2026-05-01T14:51:54.676Z</time></trkpt><trkpt lat="40.8550183" lon="9.2730317"><ele>481.3333333333333</ele><time>2026-05-01T14:51:55.676Z</time></trkpt><trkpt lat="40.85491" lon="9.2732183"><ele>480.66666666666663</ele><time>2026-05-01T14:51:56.676Z</time></trkpt><trkpt lat="40.8548133" lon="9.2734167"><ele>480.0</ele><time>2026-05-01T14:51:57.676Z</time></trkpt><trkpt lat="40.8547117" lon="9.273615"><ele>480.0</ele><time>2026-05-01T14:51:58.676Z</time></trkpt><trkpt lat="40.85459" lon="9.2737867"><ele>480.0</ele><time>2026-05-01T14:51:59.676Z</time></trkpt><trkpt lat="40.8544633" lon="9.2739417"><ele>480.0</ele><time>2026-05-01T14:52:00.676Z</time></trkpt><trkpt lat="40.85435" lon="9.2740733"><ele>479.33333333333337</ele><time>2026-05-01T14:52:01.677Z</time></trkpt><trkpt lat="40.8542233" lon="9.2742017"><ele>478.6666666666667</ele><time>2026-05-01T14:52:02.676Z</time></trkpt><trkpt lat="40.8540967" lon="9.27429"><ele>478.0</ele><time>2026-05-01T14:52:03.676Z</time></trkpt><trkpt lat="40.8539533" lon="9.2744167"><ele>478.0</ele><time>2026-05-01T14:52:04.676Z</time></trkpt><trkpt lat="40.853795" lon="9.2745317"><ele>478.0</ele><time>2026-05-01T14:52:05.676Z</time></trkpt><trkpt lat="40.8536367" lon="9.2746417"><ele>478.0</ele><time>2026-05-01T14:52:06.676Z</time></trkpt><trkpt lat="40.8534717" lon="9.2747517"><ele>478.0</ele><time>2026-05-01T14:52:07.676Z</time></trkpt><trkpt lat="40.8533083" lon="9.2748567"><ele>478.0</ele><time>2026-05-01T14:52:08.676Z</time></trkpt><trkpt lat="40.853145" lon="9.27495"><ele>478.0</ele><time>2026-05-01T14:52:09.676Z</time></trkpt><trkpt lat="40.8529783" lon="9.2750567"><ele>478.0</ele><time>2026-05-01T14:52:10.676Z</time></trkpt><trkpt lat="40.8528167" lon="9.2750967"><ele>478.0</ele><time>2026-05-01T14:52:11.676Z</time></trkpt><trkpt lat="40.852665" lon="9.2751917"><ele>478.0</ele><time>2026-05-01T14:52:12.676Z</time></trkpt><trkpt lat="40.8525233" lon="9.27527"><ele>477.5</ele><time>2026-05-01T14:52:13.676Z</time></trkpt><trkpt lat="40.852405" lon="9.27535"><ele>477.0</ele><time>2026-05-01T14:52:14.676Z</time></trkpt><trkpt lat="40.8522967" lon="9.2754317"><ele>476.5</ele><time>2026-05-01T14:52:15.676Z</time></trkpt><trkpt lat="40.8522" lon="9.2755233"><ele>476.0</ele><time>2026-05-01T14:52:16.677Z</time></trkpt><trkpt lat="40.85211" lon="9.275625"><ele>475.5</ele><time>2026-05-01T14:52:17.676Z</time></trkpt><trkpt lat="40.8520117" lon="9.275725"><ele>475.0</ele><time>2026-05-01T14:52:18.677Z</time></trkpt><trkpt lat="40.8519117" lon="9.275835"><ele>474.5</ele><time>2026-05-01T14:52:19.676Z</time></trkpt><trkpt lat="40.8518183" lon="9.2759717"><ele>474.0</ele><time>2026-05-01T14:52:20.677Z</time></trkpt><trkpt lat="40.8517483" lon="9.2761283"><ele>474.0</ele><time>2026-05-01T14:52:21.676Z</time></trkpt><trkpt lat="40.8516867" lon="9.2762933"><ele>474.0</ele><time>2026-05-01T14:52:22.676Z</time></trkpt><trkpt lat="40.8516233" lon="9.2764467"><ele>474.0</ele><time>2026-05-01T14:52:23.676Z</time></trkpt><trkpt lat="40.8515467" lon="9.2766167"><ele>474.0</ele><time>2026-05-01T14:52:24.676Z</time></trkpt><trkpt lat="40.8514767" lon="9.2767733"><ele>474.5</ele><time>2026-05-01T14:52:25.676Z</time></trkpt><trkpt lat="40.8514067" lon="9.2769283"><ele>475.0</ele><time>2026-05-01T14:52:26.676Z</time></trkpt><trkpt lat="40.8513167" lon="9.2770967"><ele>475.5</ele><time>2026-05-01T14:52:27.676Z</time></trkpt><trkpt lat="40.8512417" lon="9.2772517"><ele>476.0</ele><time>2026-05-01T14:52:28.676Z</time></trkpt><trkpt lat="40.8511683" lon="9.2774267"><ele>476.66666666666663</ele><time>2026-05-01T14:52:29.676Z</time></trkpt><trkpt lat="40.8510883" lon="9.27761"><ele>477.33333333333337</ele><time>2026-05-01T14:52:30.676Z</time></trkpt><trkpt lat="40.8509983" lon="9.27779"><ele>478.0</ele><time>2026-05-01T14:52:31.676Z</time></trkpt><trkpt lat="40.8509233" lon="9.277935"><ele>478.0</ele><time>2026-05-01T14:52:32.676Z</time></trkpt><trkpt lat="40.8508483" lon="9.27807"><ele>478.0</ele><time>2026-05-01T14:52:33.676Z</time></trkpt><trkpt lat="40.8507683" lon="9.278205"><ele>478.0</ele><time>2026-05-01T14:52:34.676Z</time></trkpt><trkpt lat="40.850685" lon="9.2783583"><ele>478.0</ele><time>2026-05-01T14:52:35.676Z</time></trkpt><trkpt lat="40.8506" lon="9.27852"><ele>478.0</ele><time>2026-05-01T14:52:36.676Z</time></trkpt><trkpt lat="40.8505167" lon="9.2786833"><ele>478.0</ele><time>2026-05-01T14:52:37.676Z</time></trkpt><trkpt lat="40.8504317" lon="9.278845"><ele>478.0</ele><time>2026-05-01T14:52:38.676Z</time></trkpt><trkpt lat="40.850345" lon="9.2790117"><ele>478.5</ele><time>2026-05-01T14:52:39.677Z</time></trkpt><trkpt lat="40.8502583" lon="9.27919"><ele>479.0</ele><time>2026-05-01T14:52:40.676Z</time></trkpt><trkpt lat="40.85018" lon="9.2793617"><ele>479.5</ele><time>2026-05-01T14:52:41.676Z</time></trkpt><trkpt lat="40.850115" lon="9.2795133"><ele>480.0</ele><time>2026-05-01T14:52:42.676Z</time></trkpt><trkpt lat="40.85008" lon="9.279665"><ele>477.25</ele><time>2026-05-01T14:52:43.676Z</time></trkpt><trkpt lat="40.850045" lon="9.2798217"><ele>474.5</ele><time>2026-05-01T14:52:44.676Z</time></trkpt><trkpt lat="40.8500167" lon="9.279995"><ele>471.75</ele><time>2026-05-01T14:52:45.676Z</time></trkpt><trkpt lat="40.8499817" lon="9.280175"><ele>469.0</ele><time>2026-05-01T14:52:46.676Z</time></trkpt><trkpt lat="40.849965" lon="9.2803633"><ele>469.0</ele><time>2026-05-01T14:52:47.676Z</time></trkpt><trkpt lat="40.849965" lon="9.2805767"><ele>469.0</ele><time>2026-05-01T14:52:48.676Z</time></trkpt><trkpt lat="40.850005" lon="9.2807633"><ele>469.0</ele><time>2026-05-01T14:52:49.676Z</time></trkpt><trkpt lat="40.8500533" lon="9.2809967"><ele>468.0</ele><time>2026-05-01T14:52:50.676Z</time></trkpt><trkpt lat="40.8501033" lon="9.2812167"><ele>467.0</ele><time>2026-05-01T14:52:51.676Z</time></trkpt><trkpt lat="40.850175" lon="9.2814333"><ele>466.0</ele><time>2026-05-01T14:52:52.676Z</time></trkpt><trkpt lat="40.8502233" lon="9.2816617"><ele>467.0</ele><time>2026-05-01T14:52:53.676Z</time></trkpt><trkpt lat="40.85027" lon="9.2818917"><ele>468.0</ele><time>2026-05-01T14:52:54.676Z</time></trkpt><trkpt lat="40.8502733" lon="9.2820983"><ele>469.0</ele><time>2026-05-01T14:52:55.676Z</time></trkpt><trkpt lat="40.8503067" lon="9.2822917"><ele>469.0</ele><time>2026-05-01T14:52:56.676Z</time></trkpt><trkpt lat="40.850345" lon="9.282495"><ele>469.0</ele><time>2026-05-01T14:52:57.676Z</time></trkpt><trkpt lat="40.8503883" lon="9.2826883"><ele>469.0</ele><time>2026-05-01T14:52:58.676Z</time></trkpt><trkpt lat="40.8504417" lon="9.2828683"><ele>469.0</ele><time>2026-05-01T14:52:59.676Z</time></trkpt><trkpt lat="40.8504983" lon="9.2830367"><ele>469.0</ele><time>2026-05-01T14:53:00.676Z</time></trkpt><trkpt lat="40.850555" lon="9.2831983"><ele>469.0</ele><time>2026-05-01T14:53:01.676Z</time></trkpt><trkpt lat="40.8506233" lon="9.2833633"><ele>469.0</ele><time>2026-05-01T14:53:02.675Z</time></trkpt><trkpt lat="40.850705" lon="9.2835333"><ele>468.25</ele><time>2026-05-01T14:53:03.675Z</time></trkpt><trkpt lat="40.8507833" lon="9.2837"><ele>467.5</ele><time>2026-05-01T14:53:04.675Z</time></trkpt><trkpt lat="40.8508683" lon="9.2838633"><ele>466.75</ele><time>2026-05-01T14:53:05.675Z</time></trkpt><trkpt lat="40.8509783" lon="9.2839983"><ele>466.0</ele><time>2026-05-01T14:53:06.675Z</time></trkpt><trkpt lat="40.851105" lon="9.2841017"><ele>465.25</ele><time>2026-05-01T14:53:07.675Z</time></trkpt><trkpt lat="40.851225" lon="9.2842167"><ele>464.5</ele><time>2026-05-01T14:53:08.675Z</time></trkpt><trkpt lat="40.85135" lon="9.284325"><ele>463.75</ele><time>2026-05-01T14:53:09.675Z</time></trkpt><trkpt lat="40.8514617" lon="9.2844383"><ele>463.0</ele><time>2026-05-01T14:53:10.675Z</time></trkpt><trkpt lat="40.8515717" lon="9.2845583"><ele>463.0</ele><time>2026-05-01T14:53:11.675Z</time></trkpt><trkpt lat="40.8516867" lon="9.2846883"><ele>463.0</ele><time>2026-05-01T14:53:12.675Z</time></trkpt><trkpt lat="40.8517867" lon="9.28482"><ele>463.0</ele><time>2026-05-01T14:53:13.675Z</time></trkpt><trkpt lat="40.851885" lon="9.284935"><ele>463.0</ele><time>2026-05-01T14:53:14.675Z</time></trkpt><trkpt lat="40.8519667" lon="9.2850667"><ele>465.0</ele><time>2026-05-01T14:53:15.675Z</time></trkpt><trkpt lat="40.852035" lon="9.2851867"><ele>467.0</ele><time>2026-05-01T14:53:16.675Z</time></trkpt><trkpt lat="40.8520783" lon="9.2853567"><ele>469.0</ele><time>2026-05-01T14:53:17.675Z</time></trkpt><trkpt lat="40.8521033" lon="9.2855083"><ele>471.0</ele><time>2026-05-01T14:53:18.675Z</time></trkpt><trkpt lat="40.8521533" lon="9.2856667"><ele>471.33333333333337</ele><time>2026-05-01T14:53:19.675Z</time></trkpt><trkpt lat="40.8521383" lon="9.28584"><ele>471.6666666666667</ele><time>2026-05-01T14:53:20.675Z</time></trkpt><trkpt lat="40.8520717" lon="9.2860467"><ele>472.0</ele><time>2026-05-01T14:53:21.675Z</time></trkpt><trkpt lat="40.8519617" lon="9.2862967"><ele>471.33333333333337</ele><time>2026-05-01T14:53:22.675Z</time></trkpt><trkpt lat="40.851855" lon="9.2865383"><ele>470.66666666666663</ele><time>2026-05-01T14:53:23.675Z</time></trkpt><trkpt lat="40.8518283" lon="9.2867583"><ele>470.0</ele><time>2026-05-01T14:53:24.675Z</time></trkpt><trkpt lat="40.85178" lon="9.2869233"><ele>468.5</ele><time>2026-05-01T14:53:25.675Z</time></trkpt><trkpt lat="40.85176" lon="9.2871017"><ele>467.0</ele><time>2026-05-01T14:53:26.675Z</time></trkpt><trkpt lat="40.851765" lon="9.28728"><ele>465.5</ele><time>2026-05-01T14:53:27.675Z</time></trkpt><trkpt lat="40.85178" lon="9.2874517"><ele>464.0</ele><time>2026-05-01T14:53:28.675Z</time></trkpt><trkpt lat="40.8518167" lon="9.2876333"><ele>464.0</ele><time>2026-05-01T14:53:29.675Z</time></trkpt><trkpt lat="40.8518683" lon="9.2878017"><ele>464.0</ele><time>2026-05-01T14:53:30.675Z</time></trkpt><trkpt lat="40.851935" lon="9.2879217"><ele>464.0</ele><time>2026-05-01T14:53:31.675Z</time></trkpt><trkpt lat="40.8520533" lon="9.2880467"><ele>464.0</ele><time>2026-05-01T14:53:32.675Z</time></trkpt><trkpt lat="40.8521333" lon="9.2881867"><ele>462.0</ele><time>2026-05-01T14:53:33.675Z</time></trkpt><trkpt lat="40.8522167" lon="9.2883117"><ele>460.0</ele><time>2026-05-01T14:53:34.675Z</time></trkpt><trkpt lat="40.8523117" lon="9.2884067"><ele>458.0</ele><time>2026-05-01T14:53:35.675Z</time></trkpt><trkpt lat="40.8524017" lon="9.288525"><ele>456.0</ele><time>2026-05-01T14:53:36.675Z</time></trkpt><trkpt lat="40.8524917" lon="9.2886633"><ele>456.0</ele><time>2026-05-01T14:53:37.675Z</time></trkpt><trkpt lat="40.8526" lon="9.28879"><ele>456.0</ele><time>2026-05-01T14:53:38.675Z</time></trkpt><trkpt lat="40.8527283" lon="9.2889417"><ele>456.0</ele><time>2026-05-01T14:53:39.675Z</time></trkpt><trkpt lat="40.8528517" lon="9.289085"><ele>455.33333333333337</ele><time>2026-05-01T14:53:40.675Z</time></trkpt><trkpt lat="40.8529983" lon="9.2892617"><ele>454.6666666666667</ele><time>2026-05-01T14:53:41.676Z</time></trkpt><trkpt lat="40.8531367" lon="9.2894467"><ele>454.0</ele><time>2026-05-01T14:53:42.675Z</time></trkpt><trkpt lat="40.85324" lon="9.2896"><ele>454.0</ele><time>2026-05-01T14:53:43.675Z</time></trkpt><trkpt lat="40.85335" lon="9.289735"><ele>454.0</ele><time>2026-05-01T14:53:44.675Z</time></trkpt><trkpt lat="40.85345" lon="9.2898867"><ele>454.0</ele><time>2026-05-01T14:53:45.675Z</time></trkpt><trkpt lat="40.8535533" lon="9.2900317"><ele>455.33333333333337</ele><time>2026-05-01T14:53:46.675Z</time></trkpt><trkpt lat="40.853645" lon="9.2902567"><ele>456.66666666666663</ele><time>2026-05-01T14:53:47.675Z</time></trkpt><trkpt lat="40.853775" lon="9.2903317"><ele>458.0</ele><time>2026-05-01T14:53:48.675Z</time></trkpt><trkpt lat="40.8538717" lon="9.290565"><ele>457.66666666666663</ele><time>2026-05-01T14:53:49.675Z</time></trkpt><trkpt lat="40.853935" lon="9.290775"><ele>457.33333333333337</ele><time>2026-05-01T14:53:50.675Z</time></trkpt><trkpt lat="40.8539933" lon="9.2909983"><ele>457.0</ele><time>2026-05-01T14:53:51.675Z</time></trkpt><trkpt lat="40.8541083" lon="9.290875"><ele>457.0</ele><time>2026-05-01T14:53:52.675Z</time></trkpt><trkpt lat="40.8541567" lon="9.2910383"><ele>457.0</ele><time>2026-05-01T14:53:53.675Z</time></trkpt><trkpt lat="40.85413" lon="9.2912333"><ele>457.0</ele><time>2026-05-01T14:53:54.675Z</time></trkpt><trkpt lat="40.8540783" lon="9.2914483"><ele>456.6666666666667</ele><time>2026-05-01T14:53:55.675Z</time></trkpt><trkpt lat="40.853945" lon="9.2916717"><ele>456.33333333333337</ele><time>2026-05-01T14:53:56.675Z</time></trkpt><trkpt lat="40.8538033" lon="9.2918717"><ele>456.0</ele><time>2026-05-01T14:53:57.675Z</time></trkpt><trkpt lat="40.8536933" lon="9.2920717"><ele>456.0</ele><time>2026-05-01T14:53:58.675Z</time></trkpt><trkpt lat="40.8536317" lon="9.292255"><ele>456.0</ele><time>2026-05-01T14:53:59.675Z</time></trkpt><trkpt lat="40.853575" lon="9.2924417"><ele>456.0</ele><time>2026-05-01T14:54:00.675Z</time></trkpt><trkpt lat="40.8535233" lon="9.292635"><ele>454.75</ele><time>2026-05-01T14:54:01.675Z</time></trkpt><trkpt lat="40.8534883" lon="9.2928267"><ele>453.5</ele><time>2026-05-01T14:54:02.676Z</time></trkpt><trkpt lat="40.85344" lon="9.2930333"><ele>452.25</ele><time>2026-05-01T14:54:03.675Z</time></trkpt><trkpt lat="40.8534183" lon="9.2932083"><ele>451.0</ele><time>2026-05-01T14:54:04.675Z</time></trkpt><trkpt lat="40.8534133" lon="9.2933867"><ele>449.75</ele><time>2026-05-01T14:54:05.675Z</time></trkpt><trkpt lat="40.8533483" lon="9.2936083"><ele>448.5</ele><time>2026-05-01T14:54:06.675Z</time></trkpt><trkpt lat="40.8533617" lon="9.2937783"><ele>447.25</ele><time>2026-05-01T14:54:07.675Z</time></trkpt><trkpt lat="40.853405" lon="9.2939483"><ele>446.0</ele><time>2026-05-01T14:54:08.675Z</time></trkpt><trkpt lat="40.85339" lon="9.2940983"><ele>445.49999999999994</ele><time>2026-05-01T14:54:09.675Z</time></trkpt><trkpt lat="40.853405" lon="9.2942033"><ele>445.0</ele><time>2026-05-01T14:54:10.675Z</time></trkpt><trkpt lat="40.85343" lon="9.294315"><ele>444.5</ele><time>2026-05-01T14:54:11.675Z</time></trkpt><trkpt lat="40.8534917" lon="9.2943433"><ele>444.0</ele><time>2026-05-01T14:54:12.675Z</time></trkpt><trkpt lat="40.8535433" lon="9.294465"><ele>443.49999999999994</ele><time>2026-05-01T14:54:14.675Z</time></trkpt><trkpt lat="40.8536183" lon="9.2944433"><ele>443.0</ele><time>2026-05-01T14:54:15.675Z</time></trkpt><trkpt lat="40.8536667" lon="9.2943017"><ele>443.0</ele><time>2026-05-01T14:54:16.675Z</time></trkpt><trkpt lat="40.853725" lon="9.2941933"><ele>443.0</ele><time>2026-05-01T14:54:17.675Z</time></trkpt><trkpt lat="40.8538033" lon="9.2940767"><ele>443.0</ele><time>2026-05-01T14:54:18.675Z</time></trkpt><trkpt lat="40.8538667" lon="9.2940167"><ele>443.0</ele><time>2026-05-01T14:54:19.675Z</time></trkpt><trkpt lat="40.854025" lon="9.2939717"><ele>442.99999999999994</ele><time>2026-05-01T14:54:21.675Z</time></trkpt><trkpt lat="40.854115" lon="9.29395"><ele>443.0</ele><time>2026-05-01T14:54:23.675Z</time></trkpt><trkpt lat="40.8541817" lon="9.293965"><ele>443.0</ele><time>2026-05-01T14:54:25.675Z</time></trkpt><trkpt lat="40.8541833" lon="9.2940583"><ele>443.0</ele><time>2026-05-01T14:54:28.675Z</time></trkpt><trkpt lat="40.8541633" lon="9.29416"><ele>442.99999999999994</ele><time>2026-05-01T14:54:31.675Z</time></trkpt><trkpt lat="40.8541767" lon="9.2943"><ele>443.0</ele><time>2026-05-01T14:54:37.675Z</time></trkpt><trkpt lat="40.8541667" lon="9.29444"><ele>442.99999999999994</ele><time>2026-05-01T14:54:39.675Z</time></trkpt><trkpt lat="40.8541517" lon="9.294535"><ele>443.0</ele><time>2026-05-01T14:54:40.675Z</time></trkpt><trkpt lat="40.8541117" lon="9.294655"><ele>443.0</ele><time>2026-05-01T14:54:41.675Z</time></trkpt><trkpt lat="40.8540983" lon="9.2947633"><ele>443.0</ele><time>2026-05-01T14:54:42.675Z</time></trkpt><trkpt lat="40.85408" lon="9.2948733"><ele>442.99999999999994</ele><time>2026-05-01T14:54:43.675Z</time></trkpt><trkpt lat="40.8540517" lon="9.295"><ele>443.0</ele><time>2026-05-01T14:54:44.675Z</time></trkpt><trkpt lat="40.8539967" lon="9.29516"><ele>441.25</ele><time>2026-05-01T14:54:45.675Z</time></trkpt><trkpt lat="40.8539517" lon="9.295295"><ele>439.5</ele><time>2026-05-01T14:54:46.675Z</time></trkpt><trkpt lat="40.8539033" lon="9.295435"><ele>437.75</ele><time>2026-05-01T14:54:47.675Z</time></trkpt><trkpt lat="40.85385" lon="9.29558"><ele>436.0</ele><time>2026-05-01T14:54:48.675Z</time></trkpt><trkpt lat="40.8537683" lon="9.29575"><ele>435.6666666666667</ele><time>2026-05-01T14:54:49.675Z</time></trkpt><trkpt lat="40.8536883" lon="9.2959267"><ele>435.33333333333337</ele><time>2026-05-01T14:54:50.675Z</time></trkpt><trkpt lat="40.8536367" lon="9.2961117"><ele>435.0</ele><time>2026-05-01T14:54:51.675Z</time></trkpt><trkpt lat="40.8535817" lon="9.2963483"><ele>433.75</ele><time>2026-05-01T14:54:52.675Z</time></trkpt><trkpt lat="40.8535617" lon="9.2965617"><ele>432.5</ele><time>2026-05-01T14:54:53.675Z</time></trkpt><trkpt lat="40.8535833" lon="9.2967217"><ele>431.25</ele><time>2026-05-01T14:54:54.675Z</time></trkpt><trkpt lat="40.8536033" lon="9.2968883"><ele>430.0</ele><time>2026-05-01T14:54:55.675Z</time></trkpt><trkpt lat="40.8536083" lon="9.2970683"><ele>430.0</ele><time>2026-05-01T14:54:56.675Z</time></trkpt><trkpt lat="40.8536083" lon="9.297245"><ele>430.0</ele><time>2026-05-01T14:54:57.675Z</time></trkpt><trkpt lat="40.8536283" lon="9.2974283"><ele>430.0</ele><time>2026-05-01T14:54:58.675Z</time></trkpt><trkpt lat="40.8536567" lon="9.297605"><ele>430.0</ele><time>2026-05-01T14:54:59.675Z</time></trkpt><trkpt lat="40.8536717" lon="9.29779"><ele>428.75</ele><time>2026-05-01T14:55:00.675Z</time></trkpt><trkpt lat="40.85368" lon="9.2979817"><ele>427.5</ele><time>2026-05-01T14:55:01.675Z</time></trkpt><trkpt lat="40.853695" lon="9.2981517"><ele>426.25</ele><time>2026-05-01T14:55:02.675Z</time></trkpt><trkpt lat="40.8536967" lon="9.2983117"><ele>425.0</ele><time>2026-05-01T14:55:03.675Z</time></trkpt><trkpt lat="40.8536683" lon="9.29849"><ele>425.0</ele><time>2026-05-01T14:55:04.675Z</time></trkpt><trkpt lat="40.8536567" lon="9.2986567"><ele>425.0</ele><time>2026-05-01T14:55:05.675Z</time></trkpt><trkpt lat="40.853645" lon="9.29884"><ele>425.0</ele><time>2026-05-01T14:55:06.675Z</time></trkpt><trkpt lat="40.8536383" lon="9.2990317"><ele>425.0</ele><time>2026-05-01T14:55:07.675Z</time></trkpt><trkpt lat="40.8536233" lon="9.2992133"><ele>424.75</ele><time>2026-05-01T14:55:08.675Z</time></trkpt><trkpt lat="40.8536383" lon="9.2993967"><ele>424.5</ele><time>2026-05-01T14:55:09.675Z</time></trkpt><trkpt lat="40.8536383" lon="9.299565"><ele>424.25</ele><time>2026-05-01T14:55:10.675Z</time></trkpt><trkpt lat="40.8536483" lon="9.2997383"><ele>424.0</ele><time>2026-05-01T14:55:11.675Z</time></trkpt><trkpt lat="40.8536567" lon="9.2999217"><ele>422.0</ele><time>2026-05-01T14:55:12.675Z</time></trkpt><trkpt lat="40.8536533" lon="9.3000967"><ele>420.0</ele><time>2026-05-01T14:55:13.675Z</time></trkpt><trkpt lat="40.8536633" lon="9.30026"><ele>418.0</ele><time>2026-05-01T14:55:14.675Z</time></trkpt><trkpt lat="40.8536717" lon="9.3004517"><ele>416.0</ele><time>2026-05-01T14:55:15.675Z</time></trkpt><trkpt lat="40.8536733" lon="9.3006167"><ele>414.66666666666663</ele><time>2026-05-01T14:55:16.676Z</time></trkpt><trkpt lat="40.8536683" lon="9.3007867"><ele>413.33333333333337</ele><time>2026-05-01T14:55:17.675Z</time></trkpt><trkpt lat="40.8536767" lon="9.3010217"><ele>412.0</ele><time>2026-05-01T14:55:18.675Z</time></trkpt><trkpt lat="40.8536733" lon="9.3012183"><ele>410.0</ele><time>2026-05-01T14:55:19.675Z</time></trkpt><trkpt lat="40.8536833" lon="9.3014483"><ele>408.0</ele><time>2026-05-01T14:55:20.675Z</time></trkpt><trkpt lat="40.8536733" lon="9.30165"><ele>406.0</ele><time>2026-05-01T14:55:21.675Z</time></trkpt><trkpt lat="40.85365" lon="9.301855"><ele>406.0</ele><time>2026-05-01T14:55:22.675Z</time></trkpt><trkpt lat="40.8536367" lon="9.3020267"><ele>406.0</ele><time>2026-05-01T14:55:23.675Z</time></trkpt><trkpt lat="40.853625" lon="9.30218"><ele>406.0</ele><time>2026-05-01T14:55:24.675Z</time></trkpt><trkpt lat="40.8535983" lon="9.30235"><ele>406.0</ele><time>2026-05-01T14:55:25.675Z</time></trkpt><trkpt lat="40.8535733" lon="9.30249"><ele>404.8</ele><time>2026-05-01T14:55:26.675Z</time></trkpt><trkpt lat="40.853545" lon="9.3026067"><ele>403.6</ele><time>2026-05-01T14:55:27.675Z</time></trkpt><trkpt lat="40.8535183" lon="9.302765"><ele>402.4</ele><time>2026-05-01T14:55:28.675Z</time></trkpt><trkpt lat="40.8534517" lon="9.3028417"><ele>401.2</ele><time>2026-05-01T14:55:29.675Z</time></trkpt><trkpt lat="40.8533333" lon="9.302865"><ele>400.0</ele><time>2026-05-01T14:55:30.675Z</time></trkpt><trkpt lat="40.853195" lon="9.3028633"><ele>400.0</ele><time>2026-05-01T14:55:31.676Z</time></trkpt><trkpt lat="40.8530117" lon="9.30282"><ele>400.0</ele><time>2026-05-01T14:55:32.676Z</time></trkpt><trkpt lat="40.8528383" lon="9.3028233"><ele>400.0</ele><time>2026-05-01T14:55:33.675Z</time></trkpt><trkpt lat="40.8526783" lon="9.3028617"><ele>399.33333333333337</ele><time>2026-05-01T14:55:34.675Z</time></trkpt><trkpt lat="40.8525217" lon="9.3028967"><ele>398.66666666666663</ele><time>2026-05-01T14:55:35.675Z</time></trkpt><trkpt lat="40.8523717" lon="9.3029517"><ele>398.0</ele><time>2026-05-01T14:55:36.675Z</time></trkpt><trkpt lat="40.85222" lon="9.303"><ele>398.0</ele><time>2026-05-01T14:55:37.675Z</time></trkpt><trkpt lat="40.8520967" lon="9.3030717"><ele>398.0</ele><time>2026-05-01T14:55:38.675Z</time></trkpt><trkpt lat="40.85197" lon="9.3031667"><ele>398.0</ele><time>2026-05-01T14:55:39.675Z</time></trkpt><trkpt lat="40.8518417" lon="9.3032683"><ele>398.0</ele><time>2026-05-01T14:55:40.675Z</time></trkpt><trkpt lat="40.8517217" lon="9.3034"><ele>396.3333333333333</ele><time>2026-05-01T14:55:41.675Z</time></trkpt><trkpt lat="40.8516233" lon="9.3035933"><ele>394.66666666666663</ele><time>2026-05-01T14:55:42.675Z</time></trkpt><trkpt lat="40.8515517" lon="9.30384"><ele>393.0</ele><time>2026-05-01T14:55:43.675Z</time></trkpt><trkpt lat="40.8514817" lon="9.3040533"><ele>392.0</ele><time>2026-05-01T14:55:44.675Z</time></trkpt><trkpt lat="40.8514033" lon="9.3042717"><ele>391.0</ele><time>2026-05-01T14:55:45.675Z</time></trkpt><trkpt lat="40.8513317" lon="9.3045"><ele>390.0</ele><time>2026-05-01T14:55:46.675Z</time></trkpt><trkpt lat="40.8512383" lon="9.3047"><ele>389.33333333333337</ele><time>2026-05-01T14:55:47.675Z</time></trkpt><trkpt lat="40.8511583" lon="9.3048867"><ele>388.6666666666667</ele><time>2026-05-01T14:55:48.675Z</time></trkpt><trkpt lat="40.8510733" lon="9.3050583"><ele>388.0</ele><time>2026-05-01T14:55:49.675Z</time></trkpt><trkpt lat="40.850995" lon="9.3052383"><ele>387.6666666666667</ele><time>2026-05-01T14:55:50.675Z</time></trkpt><trkpt lat="40.8509117" lon="9.305445"><ele>387.33333333333337</ele><time>2026-05-01T14:55:51.675Z</time></trkpt><trkpt lat="40.8508417" lon="9.30566"><ele>387.0</ele><time>2026-05-01T14:55:52.675Z</time></trkpt><trkpt lat="40.8507767" lon="9.3058483"><ele>387.0</ele><time>2026-05-01T14:55:53.675Z</time></trkpt><trkpt lat="40.8507167" lon="9.306035"><ele>387.0</ele><time>2026-05-01T14:55:54.675Z</time></trkpt><trkpt lat="40.8506667" lon="9.3062317"><ele>387.0</ele><time>2026-05-01T14:55:55.675Z</time></trkpt><trkpt lat="40.85061" lon="9.3064167"><ele>387.0</ele><time>2026-05-01T14:55:56.675Z</time></trkpt><trkpt lat="40.85058" lon="9.30661"><ele>387.0</ele><time>2026-05-01T14:55:57.676Z</time></trkpt><trkpt lat="40.8505783" lon="9.3068083"><ele>387.0</ele><time>2026-05-01T14:55:58.675Z</time></trkpt><trkpt lat="40.85059" lon="9.3069683"><ele>387.0</ele><time>2026-05-01T14:55:59.675Z</time></trkpt><trkpt lat="40.8505683" lon="9.3071467"><ele>387.25</ele><time>2026-05-01T14:56:00.675Z</time></trkpt><trkpt lat="40.850605" lon="9.3073583"><ele>387.5</ele><time>2026-05-01T14:56:01.675Z</time></trkpt><trkpt lat="40.85062" lon="9.3075483"><ele>387.75</ele><time>2026-05-01T14:56:02.675Z</time></trkpt><trkpt lat="40.8506283" lon="9.307675"><ele>388.0</ele><time>2026-05-01T14:56:03.675Z</time></trkpt><trkpt lat="40.8506617" lon="9.307835"><ele>388.0</ele><time>2026-05-01T14:56:04.675Z</time></trkpt><trkpt lat="40.8507033" lon="9.3079767"><ele>388.0</ele><time>2026-05-01T14:56:05.675Z</time></trkpt><trkpt lat="40.8507183" lon="9.30813"><ele>388.0</ele><time>2026-05-01T14:56:06.675Z</time></trkpt><trkpt lat="40.8508" lon="9.3082783"><ele>388.0</ele><time>2026-05-01T14:56:07.675Z</time></trkpt><trkpt lat="40.8509017" lon="9.3083817"><ele>387.5</ele><time>2026-05-01T14:56:08.675Z</time></trkpt><trkpt lat="40.8509867" lon="9.3085117"><ele>387.0</ele><time>2026-05-01T14:56:09.675Z</time></trkpt><trkpt lat="40.851045" lon="9.308635"><ele>386.5</ele><time>2026-05-01T14:56:10.675Z</time></trkpt><trkpt lat="40.8511067" lon="9.30877"><ele>386.0</ele><time>2026-05-01T14:56:11.675Z</time></trkpt><trkpt lat="40.8511483" lon="9.3089067"><ele>385.75</ele><time>2026-05-01T14:56:12.675Z</time></trkpt><trkpt lat="40.851315" lon="9.3089733"><ele>385.5</ele><time>2026-05-01T14:56:13.675Z</time></trkpt><trkpt lat="40.8514267" lon="9.30902"><ele>385.25</ele><time>2026-05-01T14:56:14.675Z</time></trkpt><trkpt lat="40.8515367" lon="9.3090233"><ele>385.0</ele><time>2026-05-01T14:56:16.675Z</time></trkpt><trkpt lat="40.8516083" lon="9.30893"><ele>385.2</ele><time>2026-05-01T14:56:18.675Z</time></trkpt><trkpt lat="40.8517217" lon="9.3088567"><ele>385.4</ele><time>2026-05-01T14:56:20.675Z</time></trkpt><trkpt lat="40.8517617" lon="9.3087683"><ele>385.6</ele><time>2026-05-01T14:56:21.675Z</time></trkpt><trkpt lat="40.8518167" lon="9.3086683"><ele>385.8</ele><time>2026-05-01T14:56:22.675Z</time></trkpt><trkpt lat="40.8518917" lon="9.308575"><ele>386.0</ele><time>2026-05-01T14:56:23.675Z</time></trkpt><trkpt lat="40.851945" lon="9.3084917"><ele>384.6</ele><time>2026-05-01T14:56:24.675Z</time></trkpt><trkpt lat="40.8520117" lon="9.30841"><ele>383.20000000000005</ele><time>2026-05-01T14:56:25.675Z</time></trkpt><trkpt lat="40.85208" lon="9.3083267"><ele>381.79999999999995</ele><time>2026-05-01T14:56:26.675Z</time></trkpt><trkpt lat="40.852165" lon="9.3082633"><ele>380.4</ele><time>2026-05-01T14:56:27.675Z</time></trkpt><trkpt lat="40.85226" lon="9.3082167"><ele>379.0</ele><time>2026-05-01T14:56:28.675Z</time></trkpt><trkpt lat="40.8523633" lon="9.3081983"><ele>379.0</ele><time>2026-05-01T14:56:29.676Z</time></trkpt><trkpt lat="40.8524767" lon="9.308175"><ele>379.0</ele><time>2026-05-01T14:56:30.675Z</time></trkpt><trkpt lat="40.8525833" lon="9.3081767"><ele>379.0</ele><time>2026-05-01T14:56:31.675Z</time></trkpt><trkpt lat="40.8526917" lon="9.3081717"><ele>379.0</ele><time>2026-05-01T14:56:32.675Z</time></trkpt><trkpt lat="40.85281" lon="9.30818"><ele>379.0</ele><time>2026-05-01T14:56:33.675Z</time></trkpt><trkpt lat="40.85293" lon="9.3082183"><ele>378.0</ele><time>2026-05-01T14:56:34.675Z</time></trkpt><trkpt lat="40.8530217" lon="9.3082783"><ele>377.0</ele><time>2026-05-01T14:56:35.675Z</time></trkpt><trkpt lat="40.8531217" lon="9.3083583"><ele>376.0</ele><time>2026-05-01T14:56:36.675Z</time></trkpt><trkpt lat="40.853215" lon="9.308475"><ele>375.0</ele><time>2026-05-01T14:56:37.675Z</time></trkpt><trkpt lat="40.85331" lon="9.3086083"><ele>375.0</ele><time>2026-05-01T14:56:38.675Z</time></trkpt><trkpt lat="40.8533933" lon="9.308735"><ele>375.0</ele><time>2026-05-01T14:56:39.675Z</time></trkpt><trkpt lat="40.8534767" lon="9.3088583"><ele>375.0</ele><time>2026-05-01T14:56:40.675Z</time></trkpt><trkpt lat="40.8535717" lon="9.308995"><ele>375.0</ele><time>2026-05-01T14:56:41.675Z</time></trkpt><trkpt lat="40.85366" lon="9.309115"><ele>375.0</ele><time>2026-05-01T14:56:42.675Z</time></trkpt><trkpt lat="40.853755" lon="9.30923"><ele>375.0</ele><time>2026-05-01T14:56:43.675Z</time></trkpt><trkpt lat="40.85385" lon="9.3093333"><ele>375.0</ele><time>2026-05-01T14:56:44.675Z</time></trkpt><trkpt lat="40.8539483" lon="9.30945"><ele>375.0</ele><time>2026-05-01T14:56:45.675Z</time></trkpt><trkpt lat="40.8540533" lon="9.30957"><ele>375.0</ele><time>2026-05-01T14:56:46.675Z</time></trkpt><trkpt lat="40.8541567" lon="9.3096933"><ele>375.0</ele><time>2026-05-01T14:56:47.675Z</time></trkpt><trkpt lat="40.85425" lon="9.3098117"><ele>375.0</ele><time>2026-05-01T14:56:48.675Z</time></trkpt><trkpt lat="40.85436" lon="9.3099433"><ele>375.0</ele><time>2026-05-01T14:56:49.675Z</time></trkpt><trkpt lat="40.8544633" lon="9.31008"><ele>375.0</ele><time>2026-05-01T14:56:50.675Z</time></trkpt><trkpt lat="40.854585" lon="9.3102133"><ele>375.0</ele><time>2026-05-01T14:56:51.675Z</time></trkpt><trkpt lat="40.8547233" lon="9.3103317"><ele>375.0</ele><time>2026-05-01T14:56:52.675Z</time></trkpt><trkpt lat="40.8548567" lon="9.310455"><ele>374.3333333333333</ele><time>2026-05-01T14:56:53.675Z</time></trkpt><trkpt lat="40.85499" lon="9.3105783"><ele>373.66666666666663</ele><time>2026-05-01T14:56:54.675Z</time></trkpt><trkpt lat="40.85512" lon="9.310705"><ele>373.0</ele><time>2026-05-01T14:56:55.675Z</time></trkpt><trkpt lat="40.8552433" lon="9.31084"><ele>376.3333333333333</ele><time>2026-05-01T14:56:56.675Z</time></trkpt><trkpt lat="40.8553633" lon="9.3109733"><ele>379.6666666666667</ele><time>2026-05-01T14:56:57.675Z</time></trkpt><trkpt lat="40.8554833" lon="9.311105"><ele>383.0</ele><time>2026-05-01T14:56:58.675Z</time></trkpt><trkpt lat="40.855595" lon="9.3112167"><ele>383.0</ele><time>2026-05-01T14:56:59.675Z</time></trkpt><trkpt lat="40.8557133" lon="9.3113417"><ele>383.0</ele><time>2026-05-01T14:57:00.675Z</time></trkpt><trkpt lat="40.8558367" lon="9.31147"><ele>383.0</ele><time>2026-05-01T14:57:01.675Z</time></trkpt><trkpt lat="40.855955" lon="9.3116033"><ele>384.5</ele><time>2026-05-01T14:57:02.675Z</time></trkpt><trkpt lat="40.856065" lon="9.3117333"><ele>386.0</ele><time>2026-05-01T14:57:03.675Z</time></trkpt><trkpt lat="40.8561683" lon="9.3118583"><ele>387.5</ele><time>2026-05-01T14:57:04.675Z</time></trkpt><trkpt lat="40.856285" lon="9.3119783"><ele>389.0</ele><time>2026-05-01T14:57:05.675Z</time></trkpt><trkpt lat="40.856425" lon="9.3120867"><ele>389.0</ele><time>2026-05-01T14:57:06.675Z</time></trkpt><trkpt lat="40.85657" lon="9.3122183"><ele>389.0</ele><time>2026-05-01T14:57:07.675Z</time></trkpt><trkpt lat="40.856715" lon="9.31234"><ele>389.0</ele><time>2026-05-01T14:57:08.675Z</time></trkpt><trkpt lat="40.8568617" lon="9.3124533"><ele>390.0</ele><time>2026-05-01T14:57:09.675Z</time></trkpt><trkpt lat="40.8570017" lon="9.3125617"><ele>391.0</ele><time>2026-05-01T14:57:10.675Z</time></trkpt><trkpt lat="40.857115" lon="9.3126817"><ele>392.0</ele><time>2026-05-01T14:57:11.675Z</time></trkpt><trkpt lat="40.8572267" lon="9.312805"><ele>392.0</ele><time>2026-05-01T14:57:12.675Z</time></trkpt><trkpt lat="40.85735" lon="9.312925"><ele>392.0</ele><time>2026-05-01T14:57:13.675Z</time></trkpt><trkpt lat="40.8574683" lon="9.31305"><ele>392.0</ele><time>2026-05-01T14:57:14.675Z</time></trkpt><trkpt lat="40.8576" lon="9.3131733"><ele>392.25</ele><time>2026-05-01T14:57:15.675Z</time></trkpt><trkpt lat="40.857725" lon="9.3132933"><ele>392.5</ele><time>2026-05-01T14:57:16.675Z</time></trkpt><trkpt lat="40.8578517" lon="9.3133933"><ele>392.75</ele><time>2026-05-01T14:57:17.675Z</time></trkpt><trkpt lat="40.8579483" lon="9.31346"><ele>393.0</ele><time>2026-05-01T14:57:18.675Z</time></trkpt><trkpt lat="40.8580333" lon="9.313515"><ele>393.0</ele><time>2026-05-01T14:57:19.675Z</time></trkpt><trkpt lat="40.8581233" lon="9.3135517"><ele>393.0</ele><time>2026-05-01T14:57:20.675Z</time></trkpt><trkpt lat="40.8582117" lon="9.3135633"><ele>393.0</ele><time>2026-05-01T14:57:21.675Z</time></trkpt><trkpt lat="40.858315" lon="9.3135317"><ele>393.0</ele><time>2026-05-01T14:57:22.675Z</time></trkpt><trkpt lat="40.858425" lon="9.3134933"><ele>393.0</ele><time>2026-05-01T14:57:23.675Z</time></trkpt><trkpt lat="40.85856" lon="9.313425"><ele>394.66666666666663</ele><time>2026-05-01T14:57:24.675Z</time></trkpt><trkpt lat="40.8587067" lon="9.3133533"><ele>396.3333333333333</ele><time>2026-05-01T14:57:25.675Z</time></trkpt><trkpt lat="40.858855" lon="9.31328"><ele>398.0</ele><time>2026-05-01T14:57:26.675Z</time></trkpt><trkpt lat="40.8590083" lon="9.3132067"><ele>398.0</ele><time>2026-05-01T14:57:27.675Z</time></trkpt><trkpt lat="40.8591717" lon="9.3131417"><ele>398.0</ele><time>2026-05-01T14:57:28.675Z</time></trkpt><trkpt lat="40.859335" lon="9.3130883"><ele>398.0</ele><time>2026-05-01T14:57:29.676Z</time></trkpt><trkpt lat="40.8595083" lon="9.31303"><ele>399.66666666666663</ele><time>2026-05-01T14:57:30.675Z</time></trkpt><trkpt lat="40.8596767" lon="9.31297"><ele>401.33333333333337</ele><time>2026-05-01T14:57:31.675Z</time></trkpt><trkpt lat="40.859835" lon="9.3129067"><ele>403.0</ele><time>2026-05-01T14:57:32.675Z</time></trkpt><trkpt lat="40.85999" lon="9.3128633"><ele>402.5</ele><time>2026-05-01T14:57:33.675Z</time></trkpt><trkpt lat="40.860145" lon="9.312815"><ele>402.0</ele><time>2026-05-01T14:57:34.675Z</time></trkpt><trkpt lat="40.8602867" lon="9.3127817"><ele>401.5</ele><time>2026-05-01T14:57:35.675Z</time></trkpt><trkpt lat="40.8604217" lon="9.3127467"><ele>401.0</ele><time>2026-05-01T14:57:36.675Z</time></trkpt><trkpt lat="40.8605583" lon="9.3127133"><ele>401.0</ele><time>2026-05-01T14:57:37.675Z</time></trkpt><trkpt lat="40.8606983" lon="9.3126717"><ele>401.0</ele><time>2026-05-01T14:57:38.675Z</time></trkpt><trkpt lat="40.86083" lon="9.3126533"><ele>401.0</ele><time>2026-05-01T14:57:39.675Z</time></trkpt><trkpt lat="40.8609683" lon="9.3126383"><ele>401.0</ele><time>2026-05-01T14:57:40.675Z</time></trkpt><trkpt lat="40.861085" lon="9.3126467"><ele>401.0</ele><time>2026-05-01T14:57:41.675Z</time></trkpt><trkpt lat="40.861165" lon="9.3126733"><ele>401.0</ele><time>2026-05-01T14:57:42.675Z</time></trkpt><trkpt lat="40.8612483" lon="9.3127117"><ele>401.0</ele><time>2026-05-01T14:57:43.675Z</time></trkpt><trkpt lat="40.86136" lon="9.3127183"><ele>401.0</ele><time>2026-05-01T14:57:44.675Z</time></trkpt><trkpt lat="40.8615233" lon="9.3127983"><ele>401.0</ele><time>2026-05-01T14:57:45.675Z</time></trkpt><trkpt lat="40.8616833" lon="9.3129017"><ele>401.0</ele><time>2026-05-01T14:57:46.675Z</time></trkpt><trkpt lat="40.8618133" lon="9.31293"><ele>401.0</ele><time>2026-05-01T14:57:47.676Z</time></trkpt><trkpt lat="40.8619867" lon="9.313115"><ele>401.6</ele><time>2026-05-01T14:57:48.675Z</time></trkpt><trkpt lat="40.862065" lon="9.3132717"><ele>402.20000000000005</ele><time>2026-05-01T14:57:49.675Z</time></trkpt><trkpt lat="40.8621233" lon="9.3133983"><ele>402.79999999999995</ele><time>2026-05-01T14:57:50.675Z</time></trkpt><trkpt lat="40.8622083" lon="9.3134267"><ele>403.4</ele><time>2026-05-01T14:57:51.675Z</time></trkpt><trkpt lat="40.8623067" lon="9.31343"><ele>404.0</ele><time>2026-05-01T14:57:52.675Z</time></trkpt><trkpt lat="40.86241" lon="9.313405"><ele>404.0</ele><time>2026-05-01T14:57:53.675Z</time></trkpt><trkpt lat="40.8625017" lon="9.313345"><ele>404.0</ele><time>2026-05-01T14:57:54.675Z</time></trkpt><trkpt lat="40.8625517" lon="9.3132467"><ele>404.0</ele><time>2026-05-01T14:57:55.675Z</time></trkpt><trkpt lat="40.8626133" lon="9.3131283"><ele>404.0</ele><time>2026-05-01T14:57:56.675Z</time></trkpt><trkpt lat="40.862685" lon="9.3129983"><ele>404.0</ele><time>2026-05-01T14:57:57.675Z</time></trkpt><trkpt lat="40.862755" lon="9.31281"><ele>404.0</ele><time>2026-05-01T14:57:58.675Z</time></trkpt><trkpt lat="40.86284" lon="9.31259"><ele>404.0</ele><time>2026-05-01T14:57:59.675Z</time></trkpt><trkpt lat="40.8629183" lon="9.3124033"><ele>404.0</ele><time>2026-05-01T14:58:00.675Z</time></trkpt><trkpt lat="40.863005" lon="9.3122367"><ele>404.0</ele><time>2026-05-01T14:58:01.675Z</time></trkpt><trkpt lat="40.8631017" lon="9.3120367"><ele>404.0</ele><time>2026-05-01T14:58:02.676Z</time></trkpt><trkpt lat="40.8632083" lon="9.3117967"><ele>404.0</ele><time>2026-05-01T14:58:03.675Z</time></trkpt><trkpt lat="40.8633117" lon="9.3115833"><ele>404.66666666666663</ele><time>2026-05-01T14:58:04.675Z</time></trkpt><trkpt lat="40.863415" lon="9.311375"><ele>405.33333333333337</ele><time>2026-05-01T14:58:05.675Z</time></trkpt><trkpt lat="40.8635083" lon="9.31117"><ele>406.0</ele><time>2026-05-01T14:58:06.676Z</time></trkpt><trkpt lat="40.8635983" lon="9.3109933"><ele>406.0</ele><time>2026-05-01T14:58:07.675Z</time></trkpt><trkpt lat="40.8636783" lon="9.3108067"><ele>406.0</ele><time>2026-05-01T14:58:08.675Z</time></trkpt><trkpt lat="40.8637667" lon="9.3106733"><ele>406.0</ele><time>2026-05-01T14:58:09.675Z</time></trkpt><trkpt lat="40.863815" lon="9.3105217"><ele>406.0</ele><time>2026-05-01T14:58:10.675Z</time></trkpt><trkpt lat="40.863895" lon="9.3104117"><ele>406.1666666666667</ele><time>2026-05-01T14:58:11.675Z</time></trkpt><trkpt lat="40.8639683" lon="9.3103133"><ele>406.33333333333337</ele><time>2026-05-01T14:58:12.675Z</time></trkpt><trkpt lat="40.8640333" lon="9.310235"><ele>406.5</ele><time>2026-05-01T14:58:13.675Z</time></trkpt><trkpt lat="40.8641083" lon="9.3101883"><ele>406.66666666666663</ele><time>2026-05-01T14:58:14.675Z</time></trkpt><trkpt lat="40.864185" lon="9.310155"><ele>406.8333333333333</ele><time>2026-05-01T14:58:15.675Z</time></trkpt><trkpt lat="40.8642733" lon="9.310135"><ele>407.0</ele><time>2026-05-01T14:58:16.675Z</time></trkpt><trkpt lat="40.86435" lon="9.310125"><ele>407.25</ele><time>2026-05-01T14:58:17.675Z</time></trkpt><trkpt lat="40.86446" lon="9.31017"><ele>407.5</ele><time>2026-05-01T14:58:18.675Z</time></trkpt><trkpt lat="40.8645833" lon="9.3102417"><ele>407.75</ele><time>2026-05-01T14:58:19.675Z</time></trkpt><trkpt lat="40.8647517" lon="9.3103283"><ele>408.0</ele><time>2026-05-01T14:58:20.675Z</time></trkpt><trkpt lat="40.8649133" lon="9.3104217"><ele>408.0</ele><time>2026-05-01T14:58:21.675Z</time></trkpt><trkpt lat="40.865095" lon="9.3105317"><ele>408.0</ele><time>2026-05-01T14:58:22.675Z</time></trkpt><trkpt lat="40.865275" lon="9.3106467"><ele>408.0</ele><time>2026-05-01T14:58:23.675Z</time></trkpt><trkpt lat="40.86545" lon="9.310755"><ele>406.0</ele><time>2026-05-01T14:58:24.675Z</time></trkpt><trkpt lat="40.8656217" lon="9.3108633"><ele>404.0</ele><time>2026-05-01T14:58:25.675Z</time></trkpt><trkpt lat="40.8657917" lon="9.310965"><ele>402.0</ele><time>2026-05-01T14:58:26.675Z</time></trkpt><trkpt lat="40.865975" lon="9.31106"><ele>402.0</ele><time>2026-05-01T14:58:27.675Z</time></trkpt><trkpt lat="40.86614" lon="9.3111517"><ele>402.0</ele><time>2026-05-01T14:58:28.675Z</time></trkpt><trkpt lat="40.866295" lon="9.311235"><ele>402.0</ele><time>2026-05-01T14:58:29.675Z</time></trkpt><trkpt lat="40.8664433" lon="9.3113217"><ele>400.66666666666663</ele><time>2026-05-01T14:58:30.675Z</time></trkpt><trkpt lat="40.866575" lon="9.3114083"><ele>399.3333333333333</ele><time>2026-05-01T14:58:31.675Z</time></trkpt><trkpt lat="40.86671" lon="9.3114867"><ele>398.0</ele><time>2026-05-01T14:58:32.675Z</time></trkpt><trkpt lat="40.8668567" lon="9.3115567"><ele>398.0</ele><time>2026-05-01T14:58:33.675Z</time></trkpt><trkpt lat="40.8670017" lon="9.3116167"><ele>398.0</ele><time>2026-05-01T14:58:34.675Z</time></trkpt><trkpt lat="40.867145" lon="9.311675"><ele>398.0</ele><time>2026-05-01T14:58:35.675Z</time></trkpt><trkpt lat="40.8672933" lon="9.3117233"><ele>398.0</ele><time>2026-05-01T14:58:36.675Z</time></trkpt><trkpt lat="40.8674417" lon="9.31176"><ele>398.0</ele><time>2026-05-01T14:58:37.676Z</time></trkpt><trkpt lat="40.8675933" lon="9.3117917"><ele>398.0</ele><time>2026-05-01T14:58:38.675Z</time></trkpt><trkpt lat="40.86775" lon="9.3118233"><ele>395.3333333333333</ele><time>2026-05-01T14:58:39.675Z</time></trkpt><trkpt lat="40.867925" lon="9.31186"><ele>392.66666666666663</ele><time>2026-05-01T14:58:40.675Z</time></trkpt><trkpt lat="40.868095" lon="9.3118867"><ele>390.0</ele><time>2026-05-01T14:58:41.675Z</time></trkpt><trkpt lat="40.8682633" lon="9.3118883"><ele>390.0</ele><time>2026-05-01T14:58:42.675Z</time></trkpt><trkpt lat="40.8684333" lon="9.311915"><ele>390.0</ele><time>2026-05-01T14:58:43.675Z</time></trkpt><trkpt lat="40.8685917" lon="9.3119583"><ele>390.0</ele><time>2026-05-01T14:58:44.675Z</time></trkpt><trkpt lat="40.868745" lon="9.3120117"><ele>388.0</ele><time>2026-05-01T14:58:45.675Z</time></trkpt><trkpt lat="40.8688917" lon="9.3120967"><ele>386.0</ele><time>2026-05-01T14:58:46.675Z</time></trkpt><trkpt lat="40.869035" lon="9.3121583"><ele>384.0</ele><time>2026-05-01T14:58:47.675Z</time></trkpt><trkpt lat="40.8691767" lon="9.3121717"><ele>382.3333333333333</ele><time>2026-05-01T14:58:48.675Z</time></trkpt><trkpt lat="40.8693467" lon="9.3122067"><ele>380.66666666666663</ele><time>2026-05-01T14:58:49.675Z</time></trkpt><trkpt lat="40.8694933" lon="9.3122233"><ele>379.0</ele><time>2026-05-01T14:58:50.675Z</time></trkpt><trkpt lat="40.8696767" lon="9.31222"><ele>379.0</ele><time>2026-05-01T14:58:51.675Z</time></trkpt><trkpt lat="40.86985" lon="9.3122217"><ele>379.0</ele><time>2026-05-01T14:58:52.675Z</time></trkpt><trkpt lat="40.8700217" lon="9.3122367"><ele>379.0</ele><time>2026-05-01T14:58:53.675Z</time></trkpt><trkpt lat="40.87021" lon="9.3122417"><ele>380.0</ele><time>2026-05-01T14:58:54.675Z</time></trkpt><trkpt lat="40.8703833" lon="9.3122467"><ele>381.0</ele><time>2026-05-01T14:58:55.675Z</time></trkpt><trkpt lat="40.8705517" lon="9.3122417"><ele>382.0</ele><time>2026-05-01T14:58:56.675Z</time></trkpt><trkpt lat="40.8707217" lon="9.312225"><ele>383.66666666666663</ele><time>2026-05-01T14:58:57.675Z</time></trkpt><trkpt lat="40.8708883" lon="9.3122267"><ele>385.3333333333333</ele><time>2026-05-01T14:58:58.675Z</time></trkpt><trkpt lat="40.87106" lon="9.312235"><ele>387.0</ele><time>2026-05-01T14:58:59.675Z</time></trkpt><trkpt lat="40.87123" lon="9.3122517"><ele>388.0</ele><time>2026-05-01T14:59:00.675Z</time></trkpt><trkpt lat="40.8713917" lon="9.3122583"><ele>389.0</ele><time>2026-05-01T14:59:01.675Z</time></trkpt><trkpt lat="40.871545" lon="9.31224"><ele>390.0</ele><time>2026-05-01T14:59:02.676Z</time></trkpt><trkpt lat="40.8717" lon="9.31225"><ele>390.0</ele><time>2026-05-01T14:59:03.676Z</time></trkpt><trkpt lat="40.871865" lon="9.3122567"><ele>390.0</ele><time>2026-05-01T14:59:04.675Z</time></trkpt><trkpt lat="40.8720283" lon="9.3122817"><ele>390.0</ele><time>2026-05-01T14:59:05.675Z</time></trkpt><trkpt lat="40.8721867" lon="9.3122983"><ele>390.0</ele><time>2026-05-01T14:59:06.675Z</time></trkpt><trkpt lat="40.8723333" lon="9.3122933"><ele>390.0</ele><time>2026-05-01T14:59:07.675Z</time></trkpt><trkpt lat="40.87249" lon="9.312265"><ele>390.0</ele><time>2026-05-01T14:59:08.675Z</time></trkpt><trkpt lat="40.8726383" lon="9.3122317"><ele>390.0</ele><time>2026-05-01T14:59:09.675Z</time></trkpt><trkpt lat="40.8728217" lon="9.3121783"><ele>390.0</ele><time>2026-05-01T14:59:10.675Z</time></trkpt><trkpt lat="40.872995" lon="9.3121383"><ele>390.0</ele><time>2026-05-01T14:59:11.675Z</time></trkpt><trkpt lat="40.8731733" lon="9.3120833"><ele>390.0</ele><time>2026-05-01T14:59:12.674Z</time></trkpt><trkpt lat="40.8733633" lon="9.3120383"><ele>390.0</ele><time>2026-05-01T14:59:13.675Z</time></trkpt><trkpt lat="40.8735417" lon="9.3119767"><ele>390.0</ele><time>2026-05-01T14:59:14.675Z</time></trkpt><trkpt lat="40.8737217" lon="9.31193"><ele>390.33333333333337</ele><time>2026-05-01T14:59:15.675Z</time></trkpt><trkpt lat="40.873895" lon="9.3119317"><ele>390.6666666666667</ele><time>2026-05-01T14:59:16.676Z</time></trkpt><trkpt lat="40.87406" lon="9.3119433"><ele>391.0</ele><time>2026-05-01T14:59:17.675Z</time></trkpt><trkpt lat="40.87422" lon="9.3119133"><ele>390.75</ele><time>2026-05-01T14:59:18.675Z</time></trkpt><trkpt lat="40.87438" lon="9.31188"><ele>390.5</ele><time>2026-05-01T14:59:19.675Z</time></trkpt><trkpt lat="40.8745133" lon="9.3118183"><ele>390.25</ele><time>2026-05-01T14:59:20.676Z</time></trkpt><trkpt lat="40.8746483" lon="9.311805"><ele>390.0</ele><time>2026-05-01T14:59:21.675Z</time></trkpt><trkpt lat="40.8747617" lon="9.3117867"><ele>390.0</ele><time>2026-05-01T14:59:22.675Z</time></trkpt><trkpt lat="40.874845" lon="9.3117033"><ele>390.0</ele><time>2026-05-01T14:59:23.675Z</time></trkpt><trkpt lat="40.874925" lon="9.3116833"><ele>390.0</ele><time>2026-05-01T14:59:24.675Z</time></trkpt><trkpt lat="40.8750133" lon="9.3116333"><ele>390.0</ele><time>2026-05-01T14:59:25.675Z</time></trkpt><trkpt lat="40.8751283" lon="9.311565"><ele>390.0</ele><time>2026-05-01T14:59:26.675Z</time></trkpt><trkpt lat="40.8752467" lon="9.3115183"><ele>388.8</ele><time>2026-05-01T14:59:27.675Z</time></trkpt><trkpt lat="40.8753333" lon="9.3114533"><ele>387.6</ele><time>2026-05-01T14:59:28.675Z</time></trkpt><trkpt lat="40.875415" lon="9.3113917"><ele>386.4</ele><time>2026-05-01T14:59:29.675Z</time></trkpt><trkpt lat="40.875505" lon="9.3113367"><ele>385.2</ele><time>2026-05-01T14:59:30.675Z</time></trkpt><trkpt lat="40.8755983" lon="9.3112783"><ele>384.0</ele><time>2026-05-01T14:59:31.675Z</time></trkpt><trkpt lat="40.8756617" lon="9.3112067"><ele>384.0</ele><time>2026-05-01T14:59:32.675Z</time></trkpt><trkpt lat="40.875725" lon="9.3111267"><ele>384.0</ele><time>2026-05-01T14:59:33.675Z</time></trkpt><trkpt lat="40.87579" lon="9.3110483"><ele>384.0</ele><time>2026-05-01T14:59:34.675Z</time></trkpt><trkpt lat="40.87586" lon="9.3109683"><ele>384.0</ele><time>2026-05-01T14:59:35.675Z</time></trkpt><trkpt lat="40.87593" lon="9.3108983"><ele>384.0</ele><time>2026-05-01T14:59:36.675Z</time></trkpt><trkpt lat="40.8760083" lon="9.31082"><ele>383.6</ele><time>2026-05-01T14:59:37.675Z</time></trkpt><trkpt lat="40.8760967" lon="9.31074"><ele>383.2</ele><time>2026-05-01T14:59:38.675Z</time></trkpt><trkpt lat="40.8761683" lon="9.31067"><ele>382.8</ele><time>2026-05-01T14:59:39.675Z</time></trkpt><trkpt lat="40.8762533" lon="9.3105883"><ele>382.40000000000003</ele><time>2026-05-01T14:59:40.675Z</time></trkpt><trkpt lat="40.8763433" lon="9.3105083"><ele>382.0</ele><time>2026-05-01T14:59:41.675Z</time></trkpt><trkpt lat="40.8764333" lon="9.3104183"><ele>383.5</ele><time>2026-05-01T14:59:42.675Z</time></trkpt><trkpt lat="40.8765317" lon="9.31034"><ele>385.0</ele><time>2026-05-01T14:59:43.675Z</time></trkpt><trkpt lat="40.8766217" lon="9.31025"><ele>386.5</ele><time>2026-05-01T14:59:44.675Z</time></trkpt><trkpt lat="40.876705" lon="9.310155"><ele>388.0</ele><time>2026-05-01T14:59:45.675Z</time></trkpt><trkpt lat="40.8767783" lon="9.31004"><ele>388.0</ele><time>2026-05-01T14:59:46.675Z</time></trkpt><trkpt lat="40.8768633" lon="9.3099067"><ele>388.0</ele><time>2026-05-01T14:59:47.675Z</time></trkpt><trkpt lat="40.8769567" lon="9.30979"><ele>388.0</ele><time>2026-05-01T14:59:48.675Z</time></trkpt><trkpt lat="40.8770317" lon="9.309685"><ele>388.0</ele><time>2026-05-01T14:59:49.675Z</time></trkpt><trkpt lat="40.8771167" lon="9.309625"><ele>388.79999999999995</ele><time>2026-05-01T14:59:50.675Z</time></trkpt><trkpt lat="40.8772083" lon="9.30956"><ele>389.6</ele><time>2026-05-01T14:59:51.675Z</time></trkpt><trkpt lat="40.877305" lon="9.3094883"><ele>390.4</ele><time>2026-05-01T14:59:52.675Z</time></trkpt><trkpt lat="40.8774117" lon="9.309415"><ele>391.20000000000005</ele><time>2026-05-01T14:59:53.675Z</time></trkpt><trkpt lat="40.8775117" lon="9.3093667"><ele>392.0</ele><time>2026-05-01T14:59:54.675Z</time></trkpt><trkpt lat="40.8776233" lon="9.30934"><ele>392.0</ele><time>2026-05-01T14:59:55.675Z</time></trkpt><trkpt lat="40.877745" lon="9.3093183"><ele>392.0</ele><time>2026-05-01T14:59:56.675Z</time></trkpt><trkpt lat="40.877885" lon="9.3093217"><ele>392.0</ele><time>2026-05-01T14:59:57.675Z</time></trkpt><trkpt lat="40.8780317" lon="9.309325"><ele>392.0</ele><time>2026-05-01T14:59:58.675Z</time></trkpt><trkpt lat="40.8781833" lon="9.3093417"><ele>392.0</ele><time>2026-05-01T14:59:59.675Z</time></trkpt><trkpt lat="40.87834" lon="9.3093567"><ele>392.0</ele><time>2026-05-01T15:00:00.675Z</time></trkpt><trkpt lat="40.8784983" lon="9.3093767"><ele>392.0</ele><time>2026-05-01T15:00:01.675Z</time></trkpt><trkpt lat="40.8786617" lon="9.3094017"><ele>391.5</ele><time>2026-05-01T15:00:02.675Z</time></trkpt><trkpt lat="40.8788083" lon="9.3094083"><ele>391.0</ele><time>2026-05-01T15:00:03.675Z</time></trkpt><trkpt lat="40.8789533" lon="9.3093983"><ele>390.5</ele><time>2026-05-01T15:00:04.675Z</time></trkpt><trkpt lat="40.8790917" lon="9.3093883"><ele>390.0</ele><time>2026-05-01T15:00:05.675Z</time></trkpt><trkpt lat="40.8792167" lon="9.3094117"><ele>387.2</ele><time>2026-05-01T15:00:06.675Z</time></trkpt><trkpt lat="40.8793333" lon="9.309445"><ele>384.4</ele><time>2026-05-01T15:00:07.675Z</time></trkpt><trkpt lat="40.8794383" lon="9.309455"><ele>381.6</ele><time>2026-05-01T15:00:08.675Z</time></trkpt><trkpt lat="40.8795317" lon="9.30944"><ele>378.8</ele><time>2026-05-01T15:00:09.675Z</time></trkpt><trkpt lat="40.8796083" lon="9.3093917"><ele>376.0</ele><time>2026-05-01T15:00:10.675Z</time></trkpt><trkpt lat="40.8796817" lon="9.3093333"><ele>376.0</ele><time>2026-05-01T15:00:11.675Z</time></trkpt><trkpt lat="40.8797633" lon="9.309255"><ele>376.0</ele><time>2026-05-01T15:00:12.675Z</time></trkpt><trkpt lat="40.87986" lon="9.3091783"><ele>376.0</ele><time>2026-05-01T15:00:13.675Z</time></trkpt><trkpt lat="40.8799617" lon="9.3090583"><ele>376.0</ele><time>2026-05-01T15:00:14.675Z</time></trkpt><trkpt lat="40.8800733" lon="9.30892"><ele>373.25</ele><time>2026-05-01T15:00:15.675Z</time></trkpt><trkpt lat="40.88017" lon="9.30878"><ele>370.5</ele><time>2026-05-01T15:00:16.675Z</time></trkpt><trkpt lat="40.8802633" lon="9.30864"><ele>367.75</ele><time>2026-05-01T15:00:17.676Z</time></trkpt><trkpt lat="40.880345" lon="9.3085"><ele>365.0</ele><time>2026-05-01T15:00:18.675Z</time></trkpt><trkpt lat="40.88043" lon="9.3083667"><ele>365.0</ele><time>2026-05-01T15:00:19.675Z</time></trkpt><trkpt lat="40.8805067" lon="9.3082233"><ele>365.0</ele><time>2026-05-01T15:00:20.675Z</time></trkpt><trkpt lat="40.8805917" lon="9.3080767"><ele>365.0</ele><time>2026-05-01T15:00:21.675Z</time></trkpt><trkpt lat="40.880655" lon="9.3079017"><ele>365.0</ele><time>2026-05-01T15:00:22.675Z</time></trkpt><trkpt lat="40.8806983" lon="9.3077167"><ele>365.0</ele><time>2026-05-01T15:00:23.675Z</time></trkpt><trkpt lat="40.880685" lon="9.307485"><ele>365.0</ele><time>2026-05-01T15:00:24.675Z</time></trkpt><trkpt lat="40.8806617" lon="9.3072517"><ele>365.0</ele><time>2026-05-01T15:00:25.675Z</time></trkpt><trkpt lat="40.880675" lon="9.3070617"><ele>365.0</ele><time>2026-05-01T15:00:26.675Z</time></trkpt><trkpt lat="40.8806833" lon="9.3068833"><ele>365.0</ele><time>2026-05-01T15:00:27.675Z</time></trkpt><trkpt lat="40.880665" lon="9.3067117"><ele>365.0</ele><time>2026-05-01T15:00:28.675Z</time></trkpt><trkpt lat="40.88065" lon="9.3065433"><ele>365.0</ele><time>2026-05-01T15:00:29.675Z</time></trkpt><trkpt lat="40.8806317" lon="9.306395"><ele>365.33333333333337</ele><time>2026-05-01T15:00:30.675Z</time></trkpt><trkpt lat="40.8806067" lon="9.306265"><ele>365.6666666666667</ele><time>2026-05-01T15:00:31.675Z</time></trkpt><trkpt lat="40.8805917" lon="9.3061433"><ele>366.0</ele><time>2026-05-01T15:00:32.675Z</time></trkpt><trkpt lat="40.8805917" lon="9.306025"><ele>366.3333333333333</ele><time>2026-05-01T15:00:33.675Z</time></trkpt><trkpt lat="40.880605" lon="9.3059433"><ele>366.66666666666663</ele><time>2026-05-01T15:00:34.675Z</time></trkpt><trkpt lat="40.880635" lon="9.3058633"><ele>367.0</ele><time>2026-05-01T15:00:35.675Z</time></trkpt><trkpt lat="40.880685" lon="9.305785"><ele>367.0</ele><time>2026-05-01T15:00:36.675Z</time></trkpt><trkpt lat="40.8807417" lon="9.30573"><ele>367.0</ele><time>2026-05-01T15:00:37.675Z</time></trkpt><trkpt lat="40.8808433" lon="9.305735"><ele>367.0</ele><time>2026-05-01T15:00:38.675Z</time></trkpt><trkpt lat="40.8809467" lon="9.3057283"><ele>367.0</ele><time>2026-05-01T15:00:39.675Z</time></trkpt><trkpt lat="40.88108" lon="9.3056783"><ele>367.0</ele><time>2026-05-01T15:00:40.675Z</time></trkpt><trkpt lat="40.8812" lon="9.3056133"><ele>365.75</ele><time>2026-05-01T15:00:41.675Z</time></trkpt><trkpt lat="40.8813233" lon="9.3055217"><ele>364.5</ele><time>2026-05-01T15:00:42.675Z</time></trkpt><trkpt lat="40.8814133" lon="9.3054067"><ele>363.25</ele><time>2026-05-01T15:00:43.675Z</time></trkpt><trkpt lat="40.8815083" lon="9.3052617"><ele>362.0</ele><time>2026-05-01T15:00:44.675Z</time></trkpt><trkpt lat="40.8815883" lon="9.3050817"><ele>362.0</ele><time>2026-05-01T15:00:45.675Z</time></trkpt><trkpt lat="40.8816467" lon="9.3048917"><ele>362.0</ele><time>2026-05-01T15:00:46.676Z</time></trkpt><trkpt lat="40.88167" lon="9.3046983"><ele>362.0</ele><time>2026-05-01T15:00:47.675Z</time></trkpt><trkpt lat="40.881675" lon="9.3045367"><ele>362.0</ele><time>2026-05-01T15:00:48.675Z</time></trkpt><trkpt lat="40.8817117" lon="9.3044"><ele>362.40000000000003</ele><time>2026-05-01T15:00:49.675Z</time></trkpt><trkpt lat="40.8817483" lon="9.3042683"><ele>362.8</ele><time>2026-05-01T15:00:50.676Z</time></trkpt><trkpt lat="40.8818017" lon="9.30416"><ele>363.2</ele><time>2026-05-01T15:00:51.675Z</time></trkpt><trkpt lat="40.8818483" lon="9.3040717"><ele>363.6</ele><time>2026-05-01T15:00:52.675Z</time></trkpt><trkpt lat="40.8819067" lon="9.3040117"><ele>364.0</ele><time>2026-05-01T15:00:53.675Z</time></trkpt><trkpt lat="40.8819867" lon="9.3039183"><ele>365.4</ele><time>2026-05-01T15:00:55.675Z</time></trkpt><trkpt lat="40.8820383" lon="9.3037667"><ele>366.79999999999995</ele><time>2026-05-01T15:00:57.675Z</time></trkpt><trkpt lat="40.88203" lon="9.3036733"><ele>368.20000000000005</ele><time>2026-05-01T15:00:58.675Z</time></trkpt><trkpt lat="40.882035" lon="9.303565"><ele>369.6</ele><time>2026-05-01T15:00:59.675Z</time></trkpt><trkpt lat="40.882045" lon="9.3034467"><ele>371.0</ele><time>2026-05-01T15:01:00.675Z</time></trkpt><trkpt lat="40.8820467" lon="9.303305"><ele>371.0</ele><time>2026-05-01T15:01:01.675Z</time></trkpt><trkpt lat="40.8820517" lon="9.30316"><ele>371.0</ele><time>2026-05-01T15:01:02.675Z</time></trkpt><trkpt lat="40.8820367" lon="9.30302"><ele>371.0</ele><time>2026-05-01T15:01:03.676Z</time></trkpt><trkpt lat="40.8820167" lon="9.302865"><ele>371.0</ele><time>2026-05-01T15:01:04.675Z</time></trkpt><trkpt lat="40.8820083" lon="9.3027067"><ele>372.0</ele><time>2026-05-01T15:01:05.675Z</time></trkpt><trkpt lat="40.8820083" lon="9.3025133"><ele>373.0</ele><time>2026-05-01T15:01:06.675Z</time></trkpt><trkpt lat="40.8820083" lon="9.3023"><ele>374.0</ele><time>2026-05-01T15:01:07.675Z</time></trkpt><trkpt lat="40.88201" lon="9.3020967"><ele>375.25</ele><time>2026-05-01T15:01:08.675Z</time></trkpt><trkpt lat="40.8820083" lon="9.3019"><ele>376.5</ele><time>2026-05-01T15:01:09.675Z</time></trkpt><trkpt lat="40.8820033" lon="9.30172"><ele>377.75</ele><time>2026-05-01T15:01:10.675Z</time></trkpt><trkpt lat="40.88199" lon="9.3015317"><ele>379.0</ele><time>2026-05-01T15:01:11.675Z</time></trkpt><trkpt lat="40.8820017" lon="9.3013367"><ele>379.25</ele><time>2026-05-01T15:01:12.675Z</time></trkpt><trkpt lat="40.882015" lon="9.3011433"><ele>379.5</ele><time>2026-05-01T15:01:13.675Z</time></trkpt><trkpt lat="40.8820433" lon="9.300965"><ele>379.75</ele><time>2026-05-01T15:01:14.675Z</time></trkpt><trkpt lat="40.8820733" lon="9.30081"><ele>380.0</ele><time>2026-05-01T15:01:15.675Z</time></trkpt><trkpt lat="40.8820983" lon="9.3006783"><ele>379.6</ele><time>2026-05-01T15:01:16.675Z</time></trkpt><trkpt lat="40.8821333" lon="9.300565"><ele>379.2</ele><time>2026-05-01T15:01:17.675Z</time></trkpt><trkpt lat="40.8821717" lon="9.30048"><ele>378.79999999999995</ele><time>2026-05-01T15:01:18.675Z</time></trkpt><trkpt lat="40.8822383" lon="9.30042"><ele>378.4</ele><time>2026-05-01T15:01:20.675Z</time></trkpt><trkpt lat="40.8823583" lon="9.30046"><ele>378.0</ele><time>2026-05-01T15:01:22.675Z</time></trkpt><trkpt lat="40.8824417" lon="9.300565"><ele>378.5</ele><time>2026-05-01T15:01:24.675Z</time></trkpt><trkpt lat="40.882465" lon="9.300675"><ele>379.0</ele><time>2026-05-01T15:01:25.675Z</time></trkpt><trkpt lat="40.8824467" lon="9.300875"><ele>379.5</ele><time>2026-05-01T15:01:26.675Z</time></trkpt><trkpt lat="40.88245" lon="9.3010267"><ele>380.0</ele><time>2026-05-01T15:01:27.675Z</time></trkpt><trkpt lat="40.8824667" lon="9.3011817"><ele>380.0</ele><time>2026-05-01T15:01:28.675Z</time></trkpt><trkpt lat="40.88249" lon="9.3013267"><ele>380.0</ele><time>2026-05-01T15:01:29.675Z</time></trkpt><trkpt lat="40.88253" lon="9.3014367"><ele>380.0</ele><time>2026-05-01T15:01:30.675Z</time></trkpt><trkpt lat="40.88258" lon="9.3015083"><ele>380.0</ele><time>2026-05-01T15:01:31.675Z</time></trkpt><trkpt lat="40.8826967" lon="9.3015117"><ele>380.0</ele><time>2026-05-01T15:01:33.675Z</time></trkpt><trkpt lat="40.88277" lon="9.3014183"><ele>384.0</ele><time>2026-05-01T15:01:35.675Z</time></trkpt><trkpt lat="40.88277" lon="9.3012467"><ele>388.0</ele><time>2026-05-01T15:01:36.675Z</time></trkpt><trkpt lat="40.8827667" lon="9.3010217"><ele>392.0</ele><time>2026-05-01T15:01:37.675Z</time></trkpt><trkpt lat="40.8827967" lon="9.3008467"><ele>396.0</ele><time>2026-05-01T15:01:38.675Z</time></trkpt><trkpt lat="40.88284" lon="9.3006767"><ele>395.8</ele><time>2026-05-01T15:01:39.675Z</time></trkpt><trkpt lat="40.8828967" lon="9.300545"><ele>395.6</ele><time>2026-05-01T15:01:40.675Z</time></trkpt><trkpt lat="40.8829517" lon="9.3004267"><ele>395.4</ele><time>2026-05-01T15:01:41.675Z</time></trkpt><trkpt lat="40.88303" lon="9.3003267"><ele>395.2</ele><time>2026-05-01T15:01:42.675Z</time></trkpt><trkpt lat="40.8831" lon="9.3002333"><ele>395.0</ele><time>2026-05-01T15:01:43.675Z</time></trkpt><trkpt lat="40.8831733" lon="9.3001683"><ele>394.99999999999994</ele><time>2026-05-01T15:01:44.675Z</time></trkpt><trkpt lat="40.8832617" lon="9.3001333"><ele>395.0</ele><time>2026-05-01T15:01:45.675Z</time></trkpt><trkpt lat="40.883335" lon="9.30012"><ele>395.0</ele><time>2026-05-01T15:01:46.675Z</time></trkpt><trkpt lat="40.8834" lon="9.3001433"><ele>395.0</ele><time>2026-05-01T15:01:47.675Z</time></trkpt><trkpt lat="40.8834783" lon="9.300185"><ele>394.99999999999994</ele><time>2026-05-01T15:01:48.675Z</time></trkpt><trkpt lat="40.88358" lon="9.300255"><ele>395.0</ele><time>2026-05-01T15:01:49.675Z</time></trkpt><trkpt lat="40.8837" lon="9.3003"><ele>397.5</ele><time>2026-05-01T15:01:50.675Z</time></trkpt><trkpt lat="40.8838283" lon="9.3003167"><ele>400.0</ele><time>2026-05-01T15:01:51.675Z</time></trkpt><trkpt lat="40.883935" lon="9.3002933"><ele>402.5</ele><time>2026-05-01T15:01:52.675Z</time></trkpt><trkpt lat="40.8840417" lon="9.30028"><ele>405.0</ele><time>2026-05-01T15:01:53.675Z</time></trkpt><trkpt lat="40.8841533" lon="9.3002683"><ele>406.0</ele><time>2026-05-01T15:01:54.675Z</time></trkpt><trkpt lat="40.8842667" lon="9.3002733"><ele>407.0</ele><time>2026-05-01T15:01:55.675Z</time></trkpt><trkpt lat="40.8843833" lon="9.3003033"><ele>408.0</ele><time>2026-05-01T15:01:56.675Z</time></trkpt><trkpt lat="40.8844983" lon="9.3003333"><ele>409.0</ele><time>2026-05-01T15:01:57.675Z</time></trkpt><trkpt lat="40.88461" lon="9.3003567"><ele>409.0</ele><time>2026-05-01T15:01:58.675Z</time></trkpt><trkpt lat="40.88473" lon="9.3003917"><ele>409.0</ele><time>2026-05-01T15:01:59.676Z</time></trkpt><trkpt lat="40.8848583" lon="9.3004283"><ele>409.0</ele><time>2026-05-01T15:02:00.675Z</time></trkpt><trkpt lat="40.8849917" lon="9.3004683"><ele>409.0</ele><time>2026-05-01T15:02:01.675Z</time></trkpt><trkpt lat="40.8851367" lon="9.300515"><ele>410.25</ele><time>2026-05-01T15:02:02.675Z</time></trkpt><trkpt lat="40.8852733" lon="9.3005383"><ele>411.5</ele><time>2026-05-01T15:02:03.675Z</time></trkpt><trkpt lat="40.8854167" lon="9.3005317"><ele>412.75</ele><time>2026-05-01T15:02:04.675Z</time></trkpt><trkpt lat="40.8855567" lon="9.3004967"><ele>414.0</ele><time>2026-05-01T15:02:05.675Z</time></trkpt><trkpt lat="40.8856933" lon="9.300435"><ele>414.0</ele><time>2026-05-01T15:02:06.675Z</time></trkpt><trkpt lat="40.8858283" lon="9.30036"><ele>414.0</ele><time>2026-05-01T15:02:07.675Z</time></trkpt><trkpt lat="40.8859567" lon="9.300265"><ele>414.0</ele><time>2026-05-01T15:02:08.675Z</time></trkpt><trkpt lat="40.8860883" lon="9.3001417"><ele>413.75</ele><time>2026-05-01T15:02:09.675Z</time></trkpt><trkpt lat="40.8862067" lon="9.300025"><ele>413.5</ele><time>2026-05-01T15:02:10.675Z</time></trkpt><trkpt lat="40.8863083" lon="9.2998983"><ele>413.25</ele><time>2026-05-01T15:02:11.675Z</time></trkpt><trkpt lat="40.8864217" lon="9.299745"><ele>413.0</ele><time>2026-05-01T15:02:12.675Z</time></trkpt><trkpt lat="40.8865317" lon="9.29959"><ele>413.66666666666663</ele><time>2026-05-01T15:02:13.675Z</time></trkpt><trkpt lat="40.8866383" lon="9.2994367"><ele>414.33333333333337</ele><time>2026-05-01T15:02:14.675Z</time></trkpt><trkpt lat="40.8867333" lon="9.299265"><ele>415.0</ele><time>2026-05-01T15:02:15.675Z</time></trkpt><trkpt lat="40.8868217" lon="9.2991083"><ele>415.0</ele><time>2026-05-01T15:02:16.675Z</time></trkpt><trkpt lat="40.886935" lon="9.298955"><ele>415.0</ele><time>2026-05-01T15:02:17.675Z</time></trkpt><trkpt lat="40.8870517" lon="9.2987967"><ele>415.0</ele><time>2026-05-01T15:02:18.676Z</time></trkpt><trkpt lat="40.88716" lon="9.29863"><ele>416.0</ele><time>2026-05-01T15:02:19.675Z</time></trkpt><trkpt lat="40.887265" lon="9.2984783"><ele>417.0</ele><time>2026-05-01T15:02:20.675Z</time></trkpt><trkpt lat="40.887365" lon="9.2983333"><ele>418.0</ele><time>2026-05-01T15:02:21.675Z</time></trkpt><trkpt lat="40.88745" lon="9.2981883"><ele>419.0</ele><time>2026-05-01T15:02:22.675Z</time></trkpt><trkpt lat="40.887535" lon="9.2980533"><ele>417.25</ele><time>2026-05-01T15:02:23.675Z</time></trkpt><trkpt lat="40.8876217" lon="9.2978917"><ele>415.5</ele><time>2026-05-01T15:02:24.675Z</time></trkpt><trkpt lat="40.88772" lon="9.2977367"><ele>413.75</ele><time>2026-05-01T15:02:25.675Z</time></trkpt><trkpt lat="40.8878083" lon="9.297605"><ele>412.0</ele><time>2026-05-01T15:02:26.675Z</time></trkpt><trkpt lat="40.8878883" lon="9.2975017"><ele>412.00000000000006</ele><time>2026-05-01T15:02:27.675Z</time></trkpt><trkpt lat="40.8879533" lon="9.29742"><ele>412.0</ele><time>2026-05-01T15:02:28.675Z</time></trkpt><trkpt lat="40.8880217" lon="9.297365"><ele>412.0</ele><time>2026-05-01T15:02:29.675Z</time></trkpt><trkpt lat="40.88809" lon="9.2973267"><ele>412.0</ele><time>2026-05-01T15:02:30.675Z</time></trkpt><trkpt lat="40.888175" lon="9.2973617"><ele>412.00000000000006</ele><time>2026-05-01T15:02:31.675Z</time></trkpt><trkpt lat="40.8882667" lon="9.2974067"><ele>412.0</ele><time>2026-05-01T15:02:32.675Z</time></trkpt><trkpt lat="40.88836" lon="9.29751"><ele>412.6666666666667</ele><time>2026-05-01T15:02:33.675Z</time></trkpt><trkpt lat="40.888455" lon="9.2976733"><ele>413.33333333333337</ele><time>2026-05-01T15:02:34.675Z</time></trkpt><trkpt lat="40.888565" lon="9.297895"><ele>414.0</ele><time>2026-05-01T15:02:35.675Z</time></trkpt><trkpt lat="40.8886883" lon="9.2980367"><ele>411.0</ele><time>2026-05-01T15:02:36.675Z</time></trkpt><trkpt lat="40.888825" lon="9.2981567"><ele>408.0</ele><time>2026-05-01T15:02:37.675Z</time></trkpt><trkpt lat="40.8889733" lon="9.2982683"><ele>405.0</ele><time>2026-05-01T15:02:38.675Z</time></trkpt><trkpt lat="40.8891183" lon="9.2984083"><ele>403.33333333333337</ele><time>2026-05-01T15:02:39.675Z</time></trkpt><trkpt lat="40.88927" lon="9.2985467"><ele>401.6666666666667</ele><time>2026-05-01T15:02:40.675Z</time></trkpt><trkpt lat="40.889415" lon="9.2986717"><ele>400.0</ele><time>2026-05-01T15:02:41.675Z</time></trkpt><trkpt lat="40.8895717" lon="9.2988033"><ele>398.0</ele><time>2026-05-01T15:02:42.675Z</time></trkpt><trkpt lat="40.889745" lon="9.2989483"><ele>396.0</ele><time>2026-05-01T15:02:43.676Z</time></trkpt><trkpt lat="40.8899083" lon="9.299115"><ele>394.0</ele><time>2026-05-01T15:02:44.675Z</time></trkpt><trkpt lat="40.89007" lon="9.2992817"><ele>392.6666666666667</ele><time>2026-05-01T15:02:45.675Z</time></trkpt><trkpt lat="40.8902267" lon="9.2994417"><ele>391.33333333333337</ele><time>2026-05-01T15:02:46.675Z</time></trkpt><trkpt lat="40.8903717" lon="9.2996283"><ele>390.0</ele><time>2026-05-01T15:02:47.675Z</time></trkpt><trkpt lat="40.8905133" lon="9.29977"><ele>387.6666666666667</ele><time>2026-05-01T15:02:48.675Z</time></trkpt><trkpt lat="40.89066" lon="9.2999117"><ele>385.33333333333337</ele><time>2026-05-01T15:02:49.675Z</time></trkpt><trkpt lat="40.8907983" lon="9.30004"><ele>383.0</ele><time>2026-05-01T15:02:50.675Z</time></trkpt><trkpt lat="40.890925" lon="9.3001533"><ele>381.5</ele><time>2026-05-01T15:02:51.676Z</time></trkpt><trkpt lat="40.8910217" lon="9.3002883"><ele>380.0</ele><time>2026-05-01T15:02:52.675Z</time></trkpt><trkpt lat="40.8910983" lon="9.3004267"><ele>378.5</ele><time>2026-05-01T15:02:53.675Z</time></trkpt><trkpt lat="40.891165" lon="9.3005733"><ele>377.0</ele><time>2026-05-01T15:02:54.675Z</time></trkpt><trkpt lat="40.8912083" lon="9.30073"><ele>376.5</ele><time>2026-05-01T15:02:55.675Z</time></trkpt><trkpt lat="40.8912417" lon="9.3009033"><ele>376.0</ele><time>2026-05-01T15:02:56.675Z</time></trkpt><trkpt lat="40.8912767" lon="9.301085"><ele>375.5</ele><time>2026-05-01T15:02:57.675Z</time></trkpt><trkpt lat="40.8913217" lon="9.30127"><ele>375.0</ele><time>2026-05-01T15:02:58.675Z</time></trkpt><trkpt lat="40.89137" lon="9.3014583"><ele>373.4</ele><time>2026-05-01T15:02:59.676Z</time></trkpt><trkpt lat="40.8914367" lon="9.3016183"><ele>371.8</ele><time>2026-05-01T15:03:00.675Z</time></trkpt><trkpt lat="40.8914983" lon="9.3017667"><ele>370.20000000000005</ele><time>2026-05-01T15:03:01.675Z</time></trkpt><trkpt lat="40.8915517" lon="9.3018883"><ele>368.6</ele><time>2026-05-01T15:03:02.675Z</time></trkpt><trkpt lat="40.8915867" lon="9.3019783"><ele>367.0</ele><time>2026-05-01T15:03:03.675Z</time></trkpt><trkpt lat="40.891645" lon="9.30204"><ele>367.0</ele><time>2026-05-01T15:03:05.675Z</time></trkpt><trkpt lat="40.8917067" lon="9.30177"><ele>367.0</ele><time>2026-05-01T15:04:09.676Z</time></trkpt><trkpt lat="40.8917533" lon="9.30167"><ele>367.0</ele><time>2026-05-01T15:04:12.675Z</time></trkpt><trkpt lat="40.8917933" lon="9.3015983"><ele>367.0</ele><time>2026-05-01T15:04:13.675Z</time></trkpt><trkpt lat="40.8918467" lon="9.3015"><ele>366.8</ele><time>2026-05-01T15:04:14.675Z</time></trkpt><trkpt lat="40.891895" lon="9.30141"><ele>366.6</ele><time>2026-05-01T15:04:15.675Z</time></trkpt><trkpt lat="40.8919567" lon="9.3012883"><ele>366.40000000000003</ele><time>2026-05-01T15:04:16.675Z</time></trkpt><trkpt lat="40.89202" lon="9.301155"><ele>366.20000000000005</ele><time>2026-05-01T15:04:17.675Z</time></trkpt><trkpt lat="40.892095" lon="9.3010317"><ele>366.0</ele><time>2026-05-01T15:04:18.675Z</time></trkpt><trkpt lat="40.89218" lon="9.3009333"><ele>366.0</ele><time>2026-05-01T15:04:19.676Z</time></trkpt><trkpt lat="40.89225" lon="9.30084"><ele>366.0</ele><time>2026-05-01T15:04:20.675Z</time></trkpt><trkpt lat="40.8923217" lon="9.300755"><ele>366.0</ele><time>2026-05-01T15:04:21.675Z</time></trkpt><trkpt lat="40.8923933" lon="9.3007033"><ele>366.0</ele><time>2026-05-01T15:04:22.675Z</time></trkpt><trkpt lat="40.8924683" lon="9.3006717"><ele>366.0</ele><time>2026-05-01T15:04:23.675Z</time></trkpt><trkpt lat="40.8925483" lon="9.30067"><ele>366.0</ele><time>2026-05-01T15:04:24.675Z</time></trkpt><trkpt lat="40.8926183" lon="9.300665"><ele>366.20000000000005</ele><time>2026-05-01T15:04:25.675Z</time></trkpt><trkpt lat="40.8926967" lon="9.3006683"><ele>366.40000000000003</ele><time>2026-05-01T15:04:26.675Z</time></trkpt><trkpt lat="40.89284" lon="9.3006833"><ele>366.6</ele><time>2026-05-01T15:04:28.675Z</time></trkpt><trkpt lat="40.8929583" lon="9.3007083"><ele>366.8</ele><time>2026-05-01T15:04:30.675Z</time></trkpt><trkpt lat="40.8930167" lon="9.30074"><ele>367.0</ele><time>2026-05-01T15:04:31.675Z</time></trkpt><trkpt lat="40.8930867" lon="9.3007833"><ele>367.0</ele><time>2026-05-01T15:04:32.675Z</time></trkpt><trkpt lat="40.89316" lon="9.30083"><ele>367.0</ele><time>2026-05-01T15:04:36.675Z</time></trkpt><trkpt lat="40.8932517" lon="9.3008617"><ele>367.0</ele><time>2026-05-01T15:04:51.675Z</time></trkpt><trkpt lat="40.8931667" lon="9.300795"><ele>367.0</ele><time>2026-05-01T15:05:53.675Z</time></trkpt><trkpt lat="40.893145" lon="9.3007083"><ele>367.0</ele><time>2026-05-01T15:08:17.675Z</time></trkpt><trkpt lat="40.893225" lon="9.3007167"><ele>367.0</ele><time>2026-05-01T15:10:03.674Z</time></trkpt><trkpt lat="40.8932783" lon="9.3006633"><ele>367.0</ele><time>2026-05-01T15:10:06.674Z</time></trkpt><trkpt lat="40.8931417" lon="9.3007433"><ele>367.0</ele><time>2026-05-01T15:10:20.674Z</time></trkpt><trkpt lat="40.89318" lon="9.3009033"><ele>367.0</ele><time>2026-05-01T15:10:37.674Z</time></trkpt><trkpt lat="40.89317" lon="9.3010367"><ele>367.0</ele><time>2026-05-01T15:10:39.674Z</time></trkpt><trkpt lat="40.8931533" lon="9.301125"><ele>367.0</ele><time>2026-05-01T15:10:40.674Z</time></trkpt><trkpt lat="40.8931333" lon="9.30123"><ele>367.0</ele><time>2026-05-01T15:10:41.674Z</time></trkpt><trkpt lat="40.893125" lon="9.3013533"><ele>367.0</ele><time>2026-05-01T15:10:42.674Z</time></trkpt><trkpt lat="40.8931083" lon="9.301485"><ele>367.0</ele><time>2026-05-01T15:10:43.674Z</time></trkpt><trkpt lat="40.8931017" lon="9.3016233"><ele>367.0</ele><time>2026-05-01T15:10:44.674Z</time></trkpt><trkpt lat="40.8930917" lon="9.3017617"><ele>367.0</ele><time>2026-05-01T15:10:45.674Z</time></trkpt><trkpt lat="40.8930733" lon="9.3019083"><ele>367.8</ele><time>2026-05-01T15:10:46.674Z</time></trkpt><trkpt lat="40.89306" lon="9.30205"><ele>368.6</ele><time>2026-05-01T15:10:47.675Z</time></trkpt><trkpt lat="40.8930483" lon="9.30219"><ele>369.40000000000003</ele><time>2026-05-01T15:10:48.674Z</time></trkpt><trkpt lat="40.8930367" lon="9.3023367"><ele>370.20000000000005</ele><time>2026-05-01T15:10:49.674Z</time></trkpt><trkpt lat="40.89302" lon="9.3024933"><ele>371.0</ele><time>2026-05-01T15:10:50.674Z</time></trkpt><trkpt lat="40.8929967" lon="9.3026783"><ele>371.25</ele><time>2026-05-01T15:10:51.674Z</time></trkpt><trkpt lat="40.89297" lon="9.3028967"><ele>371.5</ele><time>2026-05-01T15:10:52.674Z</time></trkpt><trkpt lat="40.8929367" lon="9.3030633"><ele>371.75</ele><time>2026-05-01T15:10:53.674Z</time></trkpt><trkpt lat="40.892895" lon="9.3032367"><ele>372.0</ele><time>2026-05-01T15:10:54.674Z</time></trkpt><trkpt lat="40.892855" lon="9.3034083"><ele>372.25</ele><time>2026-05-01T15:10:55.674Z</time></trkpt><trkpt lat="40.8927883" lon="9.303565"><ele>372.5</ele><time>2026-05-01T15:10:56.674Z</time></trkpt><trkpt lat="40.892695" lon="9.303705"><ele>372.75</ele><time>2026-05-01T15:10:57.674Z</time></trkpt><trkpt lat="40.8926117" lon="9.303835"><ele>373.0</ele><time>2026-05-01T15:10:58.674Z</time></trkpt><trkpt lat="40.89253" lon="9.3039617"><ele>373.0</ele><time>2026-05-01T15:10:59.674Z</time></trkpt><trkpt lat="40.89244" lon="9.304055"><ele>373.0</ele><time>2026-05-01T15:11:00.674Z</time></trkpt><trkpt lat="40.892335" lon="9.30412"><ele>373.0</ele><time>2026-05-01T15:11:01.674Z</time></trkpt><trkpt lat="40.8922317" lon="9.3041767"><ele>373.0</ele><time>2026-05-01T15:11:02.674Z</time></trkpt><trkpt lat="40.8921" lon="9.3042383"><ele>373.0</ele><time>2026-05-01T15:11:03.674Z</time></trkpt><trkpt lat="40.8919767" lon="9.3043133"><ele>373.0</ele><time>2026-05-01T15:11:04.674Z</time></trkpt><trkpt lat="40.8918017" lon="9.304345"><ele>373.0</ele><time>2026-05-01T15:11:05.674Z</time></trkpt><trkpt lat="40.891695" lon="9.3044433"><ele>373.0</ele><time>2026-05-01T15:11:06.674Z</time></trkpt><trkpt lat="40.891595" lon="9.3045717"><ele>372.0</ele><time>2026-05-01T15:11:07.674Z</time></trkpt><trkpt lat="40.891515" lon="9.3047133"><ele>371.0</ele><time>2026-05-01T15:11:08.674Z</time></trkpt><trkpt lat="40.8914517" lon="9.3048817"><ele>370.0</ele><time>2026-05-01T15:11:09.674Z</time></trkpt><trkpt lat="40.8914233" lon="9.30509"><ele>369.0</ele><time>2026-05-01T15:11:10.674Z</time></trkpt><trkpt lat="40.8914133" lon="9.3052683"><ele>371.6666666666667</ele><time>2026-05-01T15:11:11.674Z</time></trkpt><trkpt lat="40.891405" lon="9.3054383"><ele>374.33333333333337</ele><time>2026-05-01T15:11:12.674Z</time></trkpt><trkpt lat="40.8914517" lon="9.305625"><ele>377.0</ele><time>2026-05-01T15:11:13.674Z</time></trkpt><trkpt lat="40.8915917" lon="9.3057983"><ele>381.0</ele><time>2026-05-01T15:11:14.674Z</time></trkpt><trkpt lat="40.8919533" lon="9.30605"><ele>385.0</ele><time>2026-05-01T15:11:15.674Z</time></trkpt><trkpt lat="40.892055" lon="9.306215"><ele>385.0</ele><time>2026-05-01T15:11:16.674Z</time></trkpt><trkpt lat="40.8921583" lon="9.306345"><ele>385.0</ele><time>2026-05-01T15:11:17.674Z</time></trkpt><trkpt lat="40.892295" lon="9.3065733"><ele>385.0</ele><time>2026-05-01T15:11:18.674Z</time></trkpt><trkpt lat="40.892435" lon="9.3067467"><ele>385.6666666666667</ele><time>2026-05-01T15:11:19.674Z</time></trkpt><trkpt lat="40.89258" lon="9.3069317"><ele>386.33333333333337</ele><time>2026-05-01T15:11:20.674Z</time></trkpt><trkpt lat="40.8927133" lon="9.3070467"><ele>387.0</ele><time>2026-05-01T15:11:21.674Z</time></trkpt><trkpt lat="40.8928383" lon="9.3071533"><ele>387.33333333333337</ele><time>2026-05-01T15:11:22.674Z</time></trkpt><trkpt lat="40.8929717" lon="9.3072417"><ele>387.6666666666667</ele><time>2026-05-01T15:11:23.674Z</time></trkpt><trkpt lat="40.8931133" lon="9.3073483"><ele>388.0</ele><time>2026-05-01T15:11:24.674Z</time></trkpt><trkpt lat="40.89325" lon="9.3074667"><ele>388.0</ele><time>2026-05-01T15:11:25.674Z</time></trkpt><trkpt lat="40.893395" lon="9.3075917"><ele>388.0</ele><time>2026-05-01T15:11:26.674Z</time></trkpt><trkpt lat="40.893525" lon="9.3077167"><ele>388.0</ele><time>2026-05-01T15:11:27.674Z</time></trkpt><trkpt lat="40.8936483" lon="9.307825"><ele>388.25</ele><time>2026-05-01T15:11:28.674Z</time></trkpt><trkpt lat="40.89375" lon="9.3079233"><ele>388.5</ele><time>2026-05-01T15:11:29.674Z</time></trkpt><trkpt lat="40.8938233" lon="9.308055"><ele>388.75</ele><time>2026-05-01T15:11:30.674Z</time></trkpt><trkpt lat="40.8938633" lon="9.3082267"><ele>389.0</ele><time>2026-05-01T15:11:31.674Z</time></trkpt><trkpt lat="40.89388" lon="9.3084183"><ele>389.0</ele><time>2026-05-01T15:11:32.674Z</time></trkpt><trkpt lat="40.8938917" lon="9.3086167"><ele>389.0</ele><time>2026-05-01T15:11:33.674Z</time></trkpt><trkpt lat="40.8938933" lon="9.3088083"><ele>389.0</ele><time>2026-05-01T15:11:34.674Z</time></trkpt><trkpt lat="40.8939117" lon="9.3089933"><ele>389.0</ele><time>2026-05-01T15:11:35.674Z</time></trkpt><trkpt lat="40.893935" lon="9.309215"><ele>389.0</ele><time>2026-05-01T15:11:36.674Z</time></trkpt><trkpt lat="40.8939683" lon="9.3094117"><ele>389.0</ele><time>2026-05-01T15:11:37.674Z</time></trkpt><trkpt lat="40.8939867" lon="9.30963"><ele>389.0</ele><time>2026-05-01T15:11:38.674Z</time></trkpt><trkpt lat="40.894005" lon="9.309855"><ele>389.3333333333333</ele><time>2026-05-01T15:11:39.675Z</time></trkpt><trkpt lat="40.8940233" lon="9.3100683"><ele>389.66666666666663</ele><time>2026-05-01T15:11:40.674Z</time></trkpt><trkpt lat="40.8940533" lon="9.31027"><ele>390.0</ele><time>2026-05-01T15:11:41.674Z</time></trkpt><trkpt lat="40.8940683" lon="9.31047"><ele>390.66666666666663</ele><time>2026-05-01T15:11:42.674Z</time></trkpt><trkpt lat="40.8940617" lon="9.3106683"><ele>391.3333333333333</ele><time>2026-05-01T15:11:43.674Z</time></trkpt><trkpt lat="40.89407" lon="9.3108717"><ele>392.0</ele><time>2026-05-01T15:11:44.674Z</time></trkpt><trkpt lat="40.8940683" lon="9.3110883"><ele>392.0</ele><time>2026-05-01T15:11:45.674Z</time></trkpt><trkpt lat="40.894055" lon="9.3113067"><ele>392.0</ele><time>2026-05-01T15:11:46.674Z</time></trkpt><trkpt lat="40.8940367" lon="9.3115283"><ele>392.0</ele><time>2026-05-01T15:11:47.674Z</time></trkpt><trkpt lat="40.8939983" lon="9.31173"><ele>393.0</ele><time>2026-05-01T15:11:48.674Z</time></trkpt><trkpt lat="40.8939633" lon="9.31192"><ele>394.0</ele><time>2026-05-01T15:11:49.674Z</time></trkpt><trkpt lat="40.8939333" lon="9.3121133"><ele>395.0</ele><time>2026-05-01T15:11:50.674Z</time></trkpt><trkpt lat="40.8938883" lon="9.3123067"><ele>395.0</ele><time>2026-05-01T15:11:51.674Z</time></trkpt><trkpt lat="40.893835" lon="9.31249"><ele>395.0</ele><time>2026-05-01T15:11:52.674Z</time></trkpt><trkpt lat="40.893785" lon="9.31267"><ele>395.0</ele><time>2026-05-01T15:11:53.674Z</time></trkpt><trkpt lat="40.8937383" lon="9.31284"><ele>395.0</ele><time>2026-05-01T15:11:54.674Z</time></trkpt><trkpt lat="40.8936933" lon="9.3129983"><ele>394.75</ele><time>2026-05-01T15:11:55.674Z</time></trkpt><trkpt lat="40.8936467" lon="9.3131783"><ele>394.5</ele><time>2026-05-01T15:11:56.674Z</time></trkpt><trkpt lat="40.893665" lon="9.3133583"><ele>394.25</ele><time>2026-05-01T15:11:57.674Z</time></trkpt><trkpt lat="40.8936617" lon="9.31354"><ele>394.0</ele><time>2026-05-01T15:11:58.674Z</time></trkpt><trkpt lat="40.8936833" lon="9.31373"><ele>393.0</ele><time>2026-05-01T15:11:59.674Z</time></trkpt><trkpt lat="40.893725" lon="9.3139217"><ele>392.0</ele><time>2026-05-01T15:12:00.674Z</time></trkpt><trkpt lat="40.893775" lon="9.3141233"><ele>391.0</ele><time>2026-05-01T15:12:01.674Z</time></trkpt><trkpt lat="40.8938283" lon="9.31433"><ele>391.0</ele><time>2026-05-01T15:12:02.674Z</time></trkpt><trkpt lat="40.893875" lon="9.3145433"><ele>391.0</ele><time>2026-05-01T15:12:03.674Z</time></trkpt><trkpt lat="40.89391" lon="9.3147467"><ele>391.0</ele><time>2026-05-01T15:12:04.674Z</time></trkpt><trkpt lat="40.8939317" lon="9.3149767"><ele>389.6666666666667</ele><time>2026-05-01T15:12:05.674Z</time></trkpt><trkpt lat="40.8939433" lon="9.3152133"><ele>388.33333333333337</ele><time>2026-05-01T15:12:06.674Z</time></trkpt><trkpt lat="40.89395" lon="9.3154217"><ele>387.0</ele><time>2026-05-01T15:12:07.674Z</time></trkpt><trkpt lat="40.8939167" lon="9.3156167"><ele>385.6666666666667</ele><time>2026-05-01T15:12:08.674Z</time></trkpt><trkpt lat="40.8938617" lon="9.3158067"><ele>384.33333333333337</ele><time>2026-05-01T15:12:09.674Z</time></trkpt><trkpt lat="40.893785" lon="9.3159717"><ele>383.0</ele><time>2026-05-01T15:12:10.674Z</time></trkpt><trkpt lat="40.893695" lon="9.316145"><ele>383.0</ele><time>2026-05-01T15:12:11.674Z</time></trkpt><trkpt lat="40.8935833" lon="9.3163033"><ele>383.0</ele><time>2026-05-01T15:12:12.674Z</time></trkpt><trkpt lat="40.89346" lon="9.3164467"><ele>383.0</ele><time>2026-05-01T15:12:13.674Z</time></trkpt><trkpt lat="40.8933433" lon="9.31659"><ele>384.0</ele><time>2026-05-01T15:12:14.674Z</time></trkpt><trkpt lat="40.8932183" lon="9.3167567"><ele>385.0</ele><time>2026-05-01T15:12:15.674Z</time></trkpt><trkpt lat="40.8931033" lon="9.3169283"><ele>386.0</ele><time>2026-05-01T15:12:16.674Z</time></trkpt><trkpt lat="40.8930083" lon="9.3170833"><ele>386.0</ele><time>2026-05-01T15:12:17.674Z</time></trkpt><trkpt lat="40.89291" lon="9.3172217"><ele>386.0</ele><time>2026-05-01T15:12:18.675Z</time></trkpt><trkpt lat="40.8928333" lon="9.3173833"><ele>386.0</ele><time>2026-05-01T15:12:19.674Z</time></trkpt><trkpt lat="40.8927733" lon="9.31755"><ele>386.0</ele><time>2026-05-01T15:12:20.674Z</time></trkpt><trkpt lat="40.89273" lon="9.3177317"><ele>385.3333333333333</ele><time>2026-05-01T15:12:21.674Z</time></trkpt><trkpt lat="40.8927167" lon="9.317925"><ele>384.66666666666663</ele><time>2026-05-01T15:12:22.674Z</time></trkpt><trkpt lat="40.8927267" lon="9.3181283"><ele>384.0</ele><time>2026-05-01T15:12:23.674Z</time></trkpt><trkpt lat="40.8928133" lon="9.3183783"><ele>383.75</ele><time>2026-05-01T15:12:24.674Z</time></trkpt><trkpt lat="40.8928083" lon="9.3185567"><ele>383.5</ele><time>2026-05-01T15:12:25.674Z</time></trkpt><trkpt lat="40.8928067" lon="9.3187167"><ele>383.25</ele><time>2026-05-01T15:12:26.675Z</time></trkpt><trkpt lat="40.8928017" lon="9.3188683"><ele>383.0</ele><time>2026-05-01T15:12:27.674Z</time></trkpt><trkpt lat="40.8928017" lon="9.3189867"><ele>382.4</ele><time>2026-05-01T15:12:28.674Z</time></trkpt><trkpt lat="40.8927967" lon="9.3191733"><ele>381.79999999999995</ele><time>2026-05-01T15:12:30.674Z</time></trkpt><trkpt lat="40.89291" lon="9.3190883"><ele>381.2</ele><time>2026-05-01T15:12:32.674Z</time></trkpt><trkpt lat="40.8929883" lon="9.319085"><ele>380.6</ele><time>2026-05-01T15:12:33.674Z</time></trkpt><trkpt lat="40.893065" lon="9.3190917"><ele>380.0</ele><time>2026-05-01T15:12:34.674Z</time></trkpt><trkpt lat="40.89318" lon="9.319115"><ele>380.0</ele><time>2026-05-01T15:12:35.674Z</time></trkpt><trkpt lat="40.89328" lon="9.3191683"><ele>380.0</ele><time>2026-05-01T15:12:36.674Z</time></trkpt><trkpt lat="40.8933933" lon="9.3191783"><ele>380.0</ele><time>2026-05-01T15:12:37.674Z</time></trkpt><trkpt lat="40.8935" lon="9.3191917"><ele>380.0</ele><time>2026-05-01T15:12:38.674Z</time></trkpt><trkpt lat="40.8936017" lon="9.3192317"><ele>380.0</ele><time>2026-05-01T15:12:39.674Z</time></trkpt><trkpt lat="40.8937" lon="9.319275"><ele>379.5</ele><time>2026-05-01T15:12:40.674Z</time></trkpt><trkpt lat="40.8937817" lon="9.319335"><ele>379.0</ele><time>2026-05-01T15:12:41.674Z</time></trkpt><trkpt lat="40.893845" lon="9.3194133"><ele>378.5</ele><time>2026-05-01T15:12:42.675Z</time></trkpt><trkpt lat="40.8938917" lon="9.3194917"><ele>378.0</ele><time>2026-05-01T15:12:43.674Z</time></trkpt><trkpt lat="40.89394" lon="9.3195717"><ele>377.5</ele><time>2026-05-01T15:12:44.674Z</time></trkpt><trkpt lat="40.8939617" lon="9.31968"><ele>377.0</ele><time>2026-05-01T15:12:45.674Z</time></trkpt><trkpt lat="40.8939967" lon="9.3197617"><ele>376.6</ele><time>2026-05-01T15:12:46.674Z</time></trkpt><trkpt lat="40.8940417" lon="9.3198533"><ele>376.20000000000005</ele><time>2026-05-01T15:12:47.674Z</time></trkpt><trkpt lat="40.894085" lon="9.3199717"><ele>375.8</ele><time>2026-05-01T15:12:48.674Z</time></trkpt><trkpt lat="40.8941333" lon="9.3200883"><ele>375.4</ele><time>2026-05-01T15:12:49.674Z</time></trkpt><trkpt lat="40.894175" lon="9.32021"><ele>375.0</ele><time>2026-05-01T15:12:50.674Z</time></trkpt><trkpt lat="40.8942183" lon="9.3203217"><ele>373.75</ele><time>2026-05-01T15:12:51.674Z</time></trkpt><trkpt lat="40.894255" lon="9.3204517"><ele>372.5</ele><time>2026-05-01T15:12:52.674Z</time></trkpt><trkpt lat="40.8942967" lon="9.3205917"><ele>371.25</ele><time>2026-05-01T15:12:53.674Z</time></trkpt><trkpt lat="40.8943333" lon="9.320735"><ele>370.0</ele><time>2026-05-01T15:12:54.674Z</time></trkpt><trkpt lat="40.8943767" lon="9.3208817"><ele>368.5</ele><time>2026-05-01T15:12:55.674Z</time></trkpt><trkpt lat="40.8944367" lon="9.3210433"><ele>367.0</ele><time>2026-05-01T15:12:56.674Z</time></trkpt><trkpt lat="40.8945083" lon="9.321205"><ele>365.5</ele><time>2026-05-01T15:12:57.674Z</time></trkpt><trkpt lat="40.894565" lon="9.32136"><ele>364.0</ele><time>2026-05-01T15:12:58.674Z</time></trkpt><trkpt lat="40.89461" lon="9.32152"><ele>363.25</ele><time>2026-05-01T15:12:59.675Z</time></trkpt><trkpt lat="40.8946633" lon="9.321675"><ele>362.5</ele><time>2026-05-01T15:13:00.674Z</time></trkpt><trkpt lat="40.8947033" lon="9.3218433"><ele>361.75</ele><time>2026-05-01T15:13:01.674Z</time></trkpt><trkpt lat="40.8947417" lon="9.322015"><ele>361.0</ele><time>2026-05-01T15:13:02.674Z</time></trkpt><trkpt lat="40.8947667" lon="9.3221917"><ele>359.75</ele><time>2026-05-01T15:13:03.674Z</time></trkpt><trkpt lat="40.8947867" lon="9.32237"><ele>358.5</ele><time>2026-05-01T15:13:04.674Z</time></trkpt><trkpt lat="40.8948" lon="9.3225533"><ele>357.25</ele><time>2026-05-01T15:13:05.674Z</time></trkpt><trkpt lat="40.8948183" lon="9.3227267"><ele>356.0</ele><time>2026-05-01T15:13:06.674Z</time></trkpt><trkpt lat="40.8948367" lon="9.3229033"><ele>355.0</ele><time>2026-05-01T15:13:07.674Z</time></trkpt><trkpt lat="40.8948633" lon="9.3230833"><ele>354.0</ele><time>2026-05-01T15:13:08.674Z</time></trkpt><trkpt lat="40.8948883" lon="9.32328"><ele>353.0</ele><time>2026-05-01T15:13:09.674Z</time></trkpt><trkpt lat="40.8949183" lon="9.323475"><ele>352.0</ele><time>2026-05-01T15:13:10.674Z</time></trkpt><trkpt lat="40.89495" lon="9.32366"><ele>352.0</ele><time>2026-05-01T15:13:11.674Z</time></trkpt><trkpt lat="40.894985" lon="9.3238233"><ele>352.0</ele><time>2026-05-01T15:13:12.674Z</time></trkpt><trkpt lat="40.895025" lon="9.32398"><ele>352.0</ele><time>2026-05-01T15:13:13.674Z</time></trkpt><trkpt lat="40.8950567" lon="9.3241183"><ele>352.0</ele><time>2026-05-01T15:13:14.674Z</time></trkpt><trkpt lat="40.895085" lon="9.3242433"><ele>351.40000000000003</ele><time>2026-05-01T15:13:15.674Z</time></trkpt><trkpt lat="40.8951217" lon="9.32433"><ele>350.8</ele><time>2026-05-01T15:13:16.674Z</time></trkpt><trkpt lat="40.895195" lon="9.32446"><ele>350.2</ele><time>2026-05-01T15:13:17.674Z</time></trkpt><trkpt lat="40.89526" lon="9.3245917"><ele>349.6</ele><time>2026-05-01T15:13:18.674Z</time></trkpt><trkpt lat="40.895345" lon="9.324715"><ele>349.0</ele><time>2026-05-01T15:13:19.674Z</time></trkpt><trkpt lat="40.8954417" lon="9.3248033"><ele>348.6</ele><time>2026-05-01T15:13:20.674Z</time></trkpt><trkpt lat="40.895535" lon="9.3248917"><ele>348.2</ele><time>2026-05-01T15:13:21.674Z</time></trkpt><trkpt lat="40.895635" lon="9.3249517"><ele>347.8</ele><time>2026-05-01T15:13:22.674Z</time></trkpt><trkpt lat="40.895725" lon="9.32502"><ele>347.40000000000003</ele><time>2026-05-01T15:13:23.674Z</time></trkpt><trkpt lat="40.8958017" lon="9.325075"><ele>347.0</ele><time>2026-05-01T15:13:24.674Z</time></trkpt><trkpt lat="40.895855" lon="9.3251267"><ele>347.0</ele><time>2026-05-01T15:13:25.674Z</time></trkpt><trkpt lat="40.8958917" lon="9.3252083"><ele>347.0</ele><time>2026-05-01T15:13:27.674Z</time></trkpt><trkpt lat="40.89585" lon="9.3253433"><ele>347.0</ele><time>2026-05-01T15:13:29.674Z</time></trkpt><trkpt lat="40.8958233" lon="9.3255233"><ele>347.0</ele><time>2026-05-01T15:13:31.674Z</time></trkpt><trkpt lat="40.8957917" lon="9.32566"><ele>347.0</ele><time>2026-05-01T15:13:32.674Z</time></trkpt><trkpt lat="40.895795" lon="9.3257983"><ele>346.8</ele><time>2026-05-01T15:13:33.674Z</time></trkpt><trkpt lat="40.8958233" lon="9.325955"><ele>346.6</ele><time>2026-05-01T15:13:34.674Z</time></trkpt><trkpt lat="40.8958633" lon="9.3260783"><ele>346.40000000000003</ele><time>2026-05-01T15:13:35.674Z</time></trkpt><trkpt lat="40.8958967" lon="9.3261783"><ele>346.20000000000005</ele><time>2026-05-01T15:13:36.675Z</time></trkpt><trkpt lat="40.89592" lon="9.3263017"><ele>346.0</ele><time>2026-05-01T15:13:37.674Z</time></trkpt><trkpt lat="40.89595" lon="9.326475"><ele>346.0</ele><time>2026-05-01T15:13:38.674Z</time></trkpt><trkpt lat="40.8959633" lon="9.32663"><ele>346.0</ele><time>2026-05-01T15:13:39.674Z</time></trkpt><trkpt lat="40.8959733" lon="9.326765"><ele>346.0</ele><time>2026-05-01T15:13:40.674Z</time></trkpt><trkpt lat="40.89598" lon="9.3268867"><ele>346.0</ele><time>2026-05-01T15:13:41.674Z</time></trkpt><trkpt lat="40.8959883" lon="9.3270117"><ele>346.0</ele><time>2026-05-01T15:13:42.674Z</time></trkpt><trkpt lat="40.8960133" lon="9.32717"><ele>345.5</ele><time>2026-05-01T15:13:43.674Z</time></trkpt><trkpt lat="40.896045" lon="9.3273633"><ele>345.0</ele><time>2026-05-01T15:13:44.674Z</time></trkpt><trkpt lat="40.8960733" lon="9.32754"><ele>344.5</ele><time>2026-05-01T15:13:45.674Z</time></trkpt><trkpt lat="40.8961283" lon="9.3277117"><ele>344.0</ele><time>2026-05-01T15:13:46.674Z</time></trkpt><trkpt lat="40.896195" lon="9.32788"><ele>344.0</ele><time>2026-05-01T15:13:47.674Z</time></trkpt><trkpt lat="40.8962367" lon="9.3280667"><ele>344.0</ele><time>2026-05-01T15:13:48.675Z</time></trkpt><trkpt lat="40.8962933" lon="9.3282633"><ele>344.0</ele><time>2026-05-01T15:13:49.674Z</time></trkpt><trkpt lat="40.896345" lon="9.32845"><ele>344.0</ele><time>2026-05-01T15:13:50.674Z</time></trkpt><trkpt lat="40.896395" lon="9.3286367"><ele>344.0</ele><time>2026-05-01T15:13:51.674Z</time></trkpt><trkpt lat="40.8964333" lon="9.3288567"><ele>344.0</ele><time>2026-05-01T15:13:52.674Z</time></trkpt><trkpt lat="40.896475" lon="9.3290683"><ele>343.0</ele><time>2026-05-01T15:13:53.674Z</time></trkpt><trkpt lat="40.8965117" lon="9.3292867"><ele>342.0</ele><time>2026-05-01T15:13:54.674Z</time></trkpt><trkpt lat="40.8965533" lon="9.3295133"><ele>341.0</ele><time>2026-05-01T15:13:55.674Z</time></trkpt><trkpt lat="40.8965967" lon="9.3297317"><ele>340.33333333333337</ele><time>2026-05-01T15:13:56.674Z</time></trkpt><trkpt lat="40.8966517" lon="9.329955"><ele>339.6666666666667</ele><time>2026-05-01T15:13:57.674Z</time></trkpt><trkpt lat="40.8967033" lon="9.3301733"><ele>339.0</ele><time>2026-05-01T15:13:58.674Z</time></trkpt><trkpt lat="40.8967567" lon="9.3303683"><ele>339.75</ele><time>2026-05-01T15:13:59.674Z</time></trkpt><trkpt lat="40.8968" lon="9.330545"><ele>340.5</ele><time>2026-05-01T15:14:00.674Z</time></trkpt><trkpt lat="40.896835" lon="9.330705"><ele>341.25</ele><time>2026-05-01T15:14:01.674Z</time></trkpt><trkpt lat="40.8968717" lon="9.3308933"><ele>342.0</ele><time>2026-05-01T15:14:02.674Z</time></trkpt><trkpt lat="40.8968883" lon="9.33109"><ele>342.0</ele><time>2026-05-01T15:14:03.674Z</time></trkpt><trkpt lat="40.8969167" lon="9.33129"><ele>342.0</ele><time>2026-05-01T15:14:04.674Z</time></trkpt><trkpt lat="40.8969417" lon="9.331495"><ele>342.0</ele><time>2026-05-01T15:14:05.674Z</time></trkpt><trkpt lat="40.8969583" lon="9.33171"><ele>340.3333333333333</ele><time>2026-05-01T15:14:06.674Z</time></trkpt><trkpt lat="40.8969683" lon="9.331925"><ele>338.66666666666663</ele><time>2026-05-01T15:14:07.675Z</time></trkpt><trkpt lat="40.8969733" lon="9.3321417"><ele>337.0</ele><time>2026-05-01T15:14:08.674Z</time></trkpt><trkpt lat="40.8969883" lon="9.332355"><ele>336.25</ele><time>2026-05-01T15:14:09.674Z</time></trkpt><trkpt lat="40.8970117" lon="9.332555"><ele>335.5</ele><time>2026-05-01T15:14:10.675Z</time></trkpt><trkpt lat="40.897025" lon="9.3327533"><ele>334.75</ele><time>2026-05-01T15:14:11.674Z</time></trkpt><trkpt lat="40.897025" lon="9.33293"><ele>334.0</ele><time>2026-05-01T15:14:12.674Z</time></trkpt><trkpt lat="40.8970733" lon="9.3330883"><ele>333.79999999999995</ele><time>2026-05-01T15:14:13.674Z</time></trkpt><trkpt lat="40.89712" lon="9.3332233"><ele>333.59999999999997</ele><time>2026-05-01T15:14:14.674Z</time></trkpt><trkpt lat="40.89715" lon="9.333345"><ele>333.4</ele><time>2026-05-01T15:14:15.674Z</time></trkpt><trkpt lat="40.8972" lon="9.3334733"><ele>333.2</ele><time>2026-05-01T15:14:16.674Z</time></trkpt><trkpt lat="40.8972583" lon="9.3335733"><ele>333.0</ele><time>2026-05-01T15:14:17.674Z</time></trkpt><trkpt lat="40.8973167" lon="9.3336617"><ele>333.0</ele><time>2026-05-01T15:14:18.674Z</time></trkpt><trkpt lat="40.8973717" lon="9.33374"><ele>333.0</ele><time>2026-05-01T15:14:19.674Z</time></trkpt><trkpt lat="40.8974333" lon="9.33377"><ele>333.0</ele><time>2026-05-01T15:14:20.674Z</time></trkpt><trkpt lat="40.8975083" lon="9.333765"><ele>333.0</ele><time>2026-05-01T15:14:21.674Z</time></trkpt><trkpt lat="40.8975983" lon="9.3337367"><ele>333.0</ele><time>2026-05-01T15:14:22.674Z</time></trkpt><trkpt lat="40.8976867" lon="9.3337"><ele>333.0</ele><time>2026-05-01T15:14:23.674Z</time></trkpt><trkpt lat="40.8977833" lon="9.3336267"><ele>332.5</ele><time>2026-05-01T15:14:24.674Z</time></trkpt><trkpt lat="40.89787" lon="9.3336017"><ele>332.0</ele><time>2026-05-01T15:14:25.674Z</time></trkpt><trkpt lat="40.8979517" lon="9.3336133"><ele>331.5</ele><time>2026-05-01T15:14:26.674Z</time></trkpt><trkpt lat="40.89801" lon="9.333645"><ele>331.0</ele><time>2026-05-01T15:14:27.674Z</time></trkpt><trkpt lat="40.8980733" lon="9.33368"><ele>330.5</ele><time>2026-05-01T15:14:28.674Z</time></trkpt><trkpt lat="40.8981467" lon="9.3337533"><ele>330.0</ele><time>2026-05-01T15:14:29.674Z</time></trkpt><trkpt lat="40.898245" lon="9.3338117"><ele>330.0</ele><time>2026-05-01T15:14:30.674Z</time></trkpt><trkpt lat="40.8983583" lon="9.333885"><ele>330.0</ele><time>2026-05-01T15:14:31.674Z</time></trkpt><trkpt lat="40.8984817" lon="9.3339533"><ele>330.0</ele><time>2026-05-01T15:14:32.674Z</time></trkpt><trkpt lat="40.8986083" lon="9.3340717"><ele>330.0</ele><time>2026-05-01T15:14:33.674Z</time></trkpt><trkpt lat="40.898725" lon="9.3341367"><ele>329.5</ele><time>2026-05-01T15:14:34.674Z</time></trkpt><trkpt lat="40.8988417" lon="9.3341783"><ele>329.0</ele><time>2026-05-01T15:14:35.674Z</time></trkpt><trkpt lat="40.898965" lon="9.3342133"><ele>328.5</ele><time>2026-05-01T15:14:36.674Z</time></trkpt><trkpt lat="40.8990717" lon="9.334255"><ele>328.0</ele><time>2026-05-01T15:14:37.674Z</time></trkpt><trkpt lat="40.89916" lon="9.3342983"><ele>328.0</ele><time>2026-05-01T15:14:38.674Z</time></trkpt><trkpt lat="40.899245" lon="9.3343683"><ele>328.0</ele><time>2026-05-01T15:14:39.674Z</time></trkpt><trkpt lat="40.8993133" lon="9.3344667"><ele>328.0</ele><time>2026-05-01T15:14:40.674Z</time></trkpt><trkpt lat="40.8993683" lon="9.3345867"><ele>328.0</ele><time>2026-05-01T15:14:41.675Z</time></trkpt><trkpt lat="40.8993967" lon="9.3347333"><ele>328.0</ele><time>2026-05-01T15:14:42.674Z</time></trkpt><trkpt lat="40.8994117" lon="9.3348583"><ele>328.2</ele><time>2026-05-01T15:14:43.674Z</time></trkpt><trkpt lat="40.8994217" lon="9.33497"><ele>328.4</ele><time>2026-05-01T15:14:44.674Z</time></trkpt><trkpt lat="40.8994067" lon="9.3350917"><ele>328.59999999999997</ele><time>2026-05-01T15:14:45.674Z</time></trkpt><trkpt lat="40.899385" lon="9.3352117"><ele>328.79999999999995</ele><time>2026-05-01T15:14:46.674Z</time></trkpt><trkpt lat="40.8993433" lon="9.335335"><ele>329.0</ele><time>2026-05-01T15:14:47.674Z</time></trkpt><trkpt lat="40.899295" lon="9.33549"><ele>328.0</ele><time>2026-05-01T15:14:48.674Z</time></trkpt><trkpt lat="40.8992617" lon="9.3356333"><ele>327.0</ele><time>2026-05-01T15:14:49.674Z</time></trkpt><trkpt lat="40.8992317" lon="9.3358"><ele>326.0</ele><time>2026-05-01T15:14:50.674Z</time></trkpt><trkpt lat="40.8992117" lon="9.3359817"><ele>325.0</ele><time>2026-05-01T15:14:51.674Z</time></trkpt><trkpt lat="40.8992083" lon="9.33614"><ele>325.0</ele><time>2026-05-01T15:14:52.673Z</time></trkpt><trkpt lat="40.8992317" lon="9.3363133"><ele>325.0</ele><time>2026-05-01T15:14:53.673Z</time></trkpt><trkpt lat="40.8992317" lon="9.3365033"><ele>325.0</ele><time>2026-05-01T15:14:54.673Z</time></trkpt><trkpt lat="40.8992533" lon="9.3366883"><ele>325.0</ele><time>2026-05-01T15:14:55.673Z</time></trkpt><trkpt lat="40.8992817" lon="9.3368717"><ele>326.75</ele><time>2026-05-01T15:14:56.673Z</time></trkpt><trkpt lat="40.8993133" lon="9.3370417"><ele>328.5</ele><time>2026-05-01T15:14:57.673Z</time></trkpt><trkpt lat="40.8993417" lon="9.3372233"><ele>330.25</ele><time>2026-05-01T15:14:58.673Z</time></trkpt><trkpt lat="40.8993583" lon="9.3374083"><ele>332.0</ele><time>2026-05-01T15:14:59.673Z</time></trkpt><trkpt lat="40.8993667" lon="9.337595"><ele>334.0</ele><time>2026-05-01T15:15:00.673Z</time></trkpt><trkpt lat="40.899355" lon="9.33778"><ele>336.0</ele><time>2026-05-01T15:15:01.673Z</time></trkpt><trkpt lat="40.8993383" lon="9.337975"><ele>338.0</ele><time>2026-05-01T15:15:02.673Z</time></trkpt><trkpt lat="40.8993283" lon="9.3381717"><ele>340.0</ele><time>2026-05-01T15:15:03.673Z</time></trkpt><trkpt lat="40.8993333" lon="9.338365"><ele>342.3333333333333</ele><time>2026-05-01T15:15:04.673Z</time></trkpt><trkpt lat="40.8993433" lon="9.3385683"><ele>344.6666666666667</ele><time>2026-05-01T15:15:05.673Z</time></trkpt><trkpt lat="40.8993633" lon="9.338785"><ele>347.0</ele><time>2026-05-01T15:15:06.673Z</time></trkpt><trkpt lat="40.89939" lon="9.3390083"><ele>347.0</ele><time>2026-05-01T15:15:07.673Z</time></trkpt><trkpt lat="40.899435" lon="9.33923"><ele>347.0</ele><time>2026-05-01T15:15:08.673Z</time></trkpt><trkpt lat="40.8994817" lon="9.3394533"><ele>347.0</ele><time>2026-05-01T15:15:09.673Z</time></trkpt><trkpt lat="40.8995333" lon="9.3396683"><ele>347.0</ele><time>2026-05-01T15:15:10.673Z</time></trkpt><trkpt lat="40.8995917" lon="9.3398683"><ele>347.0</ele><time>2026-05-01T15:15:11.673Z</time></trkpt><trkpt lat="40.8996617" lon="9.34007"><ele>347.0</ele><time>2026-05-01T15:15:12.673Z</time></trkpt><trkpt lat="40.89973" lon="9.34027"><ele>347.0</ele><time>2026-05-01T15:15:13.673Z</time></trkpt><trkpt lat="40.8997967" lon="9.3404483"><ele>347.0</ele><time>2026-05-01T15:15:14.673Z</time></trkpt><trkpt lat="40.899855" lon="9.3406117"><ele>347.0</ele><time>2026-05-01T15:15:15.673Z</time></trkpt><trkpt lat="40.8998933" lon="9.340765"><ele>347.0</ele><time>2026-05-01T15:15:16.673Z</time></trkpt><trkpt lat="40.8999483" lon="9.340885"><ele>347.0</ele><time>2026-05-01T15:15:17.673Z</time></trkpt><trkpt lat="40.8999783" lon="9.3410367"><ele>347.0</ele><time>2026-05-01T15:15:18.673Z</time></trkpt><trkpt lat="40.89999" lon="9.3411983"><ele>347.0</ele><time>2026-05-01T15:15:19.673Z</time></trkpt><trkpt lat="40.8999867" lon="9.3413633"><ele>347.0</ele><time>2026-05-01T15:15:20.673Z</time></trkpt><trkpt lat="40.8999817" lon="9.34153"><ele>347.0</ele><time>2026-05-01T15:15:21.673Z</time></trkpt><trkpt lat="40.900045" lon="9.341705"><ele>347.0</ele><time>2026-05-01T15:15:22.673Z</time></trkpt><trkpt lat="40.90006" lon="9.3419017"><ele>347.0</ele><time>2026-05-01T15:15:23.673Z</time></trkpt><trkpt lat="40.900075" lon="9.3420917"><ele>347.0</ele><time>2026-05-01T15:15:24.674Z</time></trkpt><trkpt lat="40.9000867" lon="9.3423167"><ele>347.25</ele><time>2026-05-01T15:15:25.673Z</time></trkpt><trkpt lat="40.900115" lon="9.342505"><ele>347.5</ele><time>2026-05-01T15:15:26.673Z</time></trkpt><trkpt lat="40.9001383" lon="9.342685"><ele>347.75</ele><time>2026-05-01T15:15:27.673Z</time></trkpt><trkpt lat="40.900165" lon="9.3428717"><ele>348.0</ele><time>2026-05-01T15:15:28.673Z</time></trkpt><trkpt lat="40.9002133" lon="9.3430483"><ele>348.0</ele><time>2026-05-01T15:15:29.673Z</time></trkpt><trkpt lat="40.9002167" lon="9.34324"><ele>348.0</ele><time>2026-05-01T15:15:30.673Z</time></trkpt><trkpt lat="40.90023" lon="9.34339"><ele>348.0</ele><time>2026-05-01T15:15:31.673Z</time></trkpt><trkpt lat="40.9002183" lon="9.3435183"><ele>348.0</ele><time>2026-05-01T15:15:32.673Z</time></trkpt><trkpt lat="40.9002" lon="9.3436467"><ele>348.0</ele><time>2026-05-01T15:15:33.673Z</time></trkpt><trkpt lat="40.9001383" lon="9.343805"><ele>348.0</ele><time>2026-05-01T15:15:34.673Z</time></trkpt><trkpt lat="40.9000967" lon="9.3439567"><ele>348.0</ele><time>2026-05-01T15:15:35.673Z</time></trkpt><trkpt lat="40.9000433" lon="9.344135"><ele>348.0</ele><time>2026-05-01T15:15:36.673Z</time></trkpt><trkpt lat="40.9000217" lon="9.344335"><ele>346.0</ele><time>2026-05-01T15:15:37.673Z</time></trkpt><trkpt lat="40.9000167" lon="9.3445483"><ele>344.0</ele><time>2026-05-01T15:15:38.673Z</time></trkpt><trkpt lat="40.90001" lon="9.3447717"><ele>342.0</ele><time>2026-05-01T15:15:39.673Z</time></trkpt><trkpt lat="40.9000183" lon="9.3449883"><ele>342.0</ele><time>2026-05-01T15:15:40.673Z</time></trkpt><trkpt lat="40.9000283" lon="9.345175"><ele>342.0</ele><time>2026-05-01T15:15:41.673Z</time></trkpt><trkpt lat="40.9000433" lon="9.3453217"><ele>342.0</ele><time>2026-05-01T15:15:42.673Z</time></trkpt><trkpt lat="40.9000417" lon="9.3454383"><ele>342.0</ele><time>2026-05-01T15:15:43.673Z</time></trkpt><trkpt lat="40.9000683" lon="9.3455633"><ele>342.0</ele><time>2026-05-01T15:15:44.673Z</time></trkpt><trkpt lat="40.9001017" lon="9.3456833"><ele>342.0</ele><time>2026-05-01T15:15:45.673Z</time></trkpt><trkpt lat="40.9001333" lon="9.345805"><ele>342.0</ele><time>2026-05-01T15:15:46.673Z</time></trkpt><trkpt lat="40.9001983" lon="9.3459583"><ele>342.0</ele><time>2026-05-01T15:15:47.673Z</time></trkpt><trkpt lat="40.90027" lon="9.34614"><ele>342.0</ele><time>2026-05-01T15:15:48.673Z</time></trkpt><trkpt lat="40.900335" lon="9.3463367"><ele>340.75</ele><time>2026-05-01T15:15:49.673Z</time></trkpt><trkpt lat="40.9004083" lon="9.3465333"><ele>339.5</ele><time>2026-05-01T15:15:50.673Z</time></trkpt><trkpt lat="40.9004583" lon="9.346705"><ele>338.25</ele><time>2026-05-01T15:15:51.673Z</time></trkpt><trkpt lat="40.9005133" lon="9.3468383"><ele>337.0</ele><time>2026-05-01T15:15:52.673Z</time></trkpt><trkpt lat="40.9005717" lon="9.346945"><ele>337.0</ele><time>2026-05-01T15:15:53.673Z</time></trkpt><trkpt lat="40.900635" lon="9.3470317"><ele>337.0</ele><time>2026-05-01T15:15:54.673Z</time></trkpt><trkpt lat="40.900725" lon="9.3471217"><ele>337.0</ele><time>2026-05-01T15:15:55.673Z</time></trkpt><trkpt lat="40.900855" lon="9.3472183"><ele>337.0</ele><time>2026-05-01T15:15:56.673Z</time></trkpt><trkpt lat="40.901" lon="9.3473183"><ele>335.66666666666663</ele><time>2026-05-01T15:15:57.673Z</time></trkpt><trkpt lat="40.9011533" lon="9.3474267"><ele>334.3333333333333</ele><time>2026-05-01T15:15:58.673Z</time></trkpt><trkpt lat="40.901295" lon="9.3475367"><ele>333.0</ele><time>2026-05-01T15:15:59.673Z</time></trkpt><trkpt lat="40.9014433" lon="9.3476367"><ele>333.0</ele><time>2026-05-01T15:16:00.673Z</time></trkpt><trkpt lat="40.9016017" lon="9.34774"><ele>333.0</ele><time>2026-05-01T15:16:01.673Z</time></trkpt><trkpt lat="40.9017567" lon="9.3478317"><ele>333.0</ele><time>2026-05-01T15:16:02.673Z</time></trkpt><trkpt lat="40.90189" lon="9.3479117"><ele>332.25</ele><time>2026-05-01T15:16:03.673Z</time></trkpt><trkpt lat="40.9020133" lon="9.3479633"><ele>331.5</ele><time>2026-05-01T15:16:04.673Z</time></trkpt><trkpt lat="40.9021517" lon="9.3480367"><ele>330.75</ele><time>2026-05-01T15:16:05.673Z</time></trkpt><trkpt lat="40.9022817" lon="9.3481017"><ele>330.0</ele><time>2026-05-01T15:16:06.673Z</time></trkpt><trkpt lat="40.9024183" lon="9.348155"><ele>329.5</ele><time>2026-05-01T15:16:07.673Z</time></trkpt><trkpt lat="40.902555" lon="9.3481633"><ele>329.0</ele><time>2026-05-01T15:16:08.673Z</time></trkpt><trkpt lat="40.9026983" lon="9.348135"><ele>328.5</ele><time>2026-05-01T15:16:09.673Z</time></trkpt><trkpt lat="40.9028417" lon="9.34811"><ele>328.0</ele><time>2026-05-01T15:16:10.673Z</time></trkpt><trkpt lat="40.9029917" lon="9.34808"><ele>328.0</ele><time>2026-05-01T15:16:11.673Z</time></trkpt><trkpt lat="40.9031233" lon="9.348055"><ele>328.0</ele><time>2026-05-01T15:16:12.673Z</time></trkpt><trkpt lat="40.9032383" lon="9.3480133"><ele>328.0</ele><time>2026-05-01T15:16:13.673Z</time></trkpt><trkpt lat="40.903345" lon="9.3479467"><ele>328.0</ele><time>2026-05-01T15:16:14.673Z</time></trkpt><trkpt lat="40.9034433" lon="9.3478767"><ele>328.0</ele><time>2026-05-01T15:16:15.673Z</time></trkpt><trkpt lat="40.9035317" lon="9.3477983"><ele>328.0</ele><time>2026-05-01T15:16:16.673Z</time></trkpt><trkpt lat="40.903615" lon="9.347725"><ele>328.0</ele><time>2026-05-01T15:16:17.673Z</time></trkpt><trkpt lat="40.9036517" lon="9.3476417"><ele>328.0</ele><time>2026-05-01T15:16:18.673Z</time></trkpt><trkpt lat="40.9037467" lon="9.3475533"><ele>328.0</ele><time>2026-05-01T15:16:19.673Z</time></trkpt><trkpt lat="40.9038667" lon="9.3474767"><ele>328.0</ele><time>2026-05-01T15:16:20.673Z</time></trkpt><trkpt lat="40.903935" lon="9.347415"><ele>328.0</ele><time>2026-05-01T15:16:21.673Z</time></trkpt><trkpt lat="40.904025" lon="9.34738"><ele>328.0</ele><time>2026-05-01T15:16:22.673Z</time></trkpt><trkpt lat="40.9041" lon="9.3473633"><ele>328.0</ele><time>2026-05-01T15:16:23.673Z</time></trkpt><trkpt lat="40.9041683" lon="9.3473417"><ele>328.0</ele><time>2026-05-01T15:16:24.673Z</time></trkpt><trkpt lat="40.9042283" lon="9.3472917"><ele>328.0</ele><time>2026-05-01T15:16:25.673Z</time></trkpt><trkpt lat="40.904295" lon="9.347215"><ele>327.8333333333333</ele><time>2026-05-01T15:16:26.673Z</time></trkpt><trkpt lat="40.9043433" lon="9.3471317"><ele>327.66666666666663</ele><time>2026-05-01T15:16:27.674Z</time></trkpt><trkpt lat="40.9043667" lon="9.3470417"><ele>327.5</ele><time>2026-05-01T15:16:28.673Z</time></trkpt><trkpt lat="40.9043783" lon="9.34693"><ele>327.3333333333333</ele><time>2026-05-01T15:16:29.673Z</time></trkpt><trkpt lat="40.904365" lon="9.3468317"><ele>327.1666666666667</ele><time>2026-05-01T15:16:30.673Z</time></trkpt><trkpt lat="40.9043617" lon="9.3467433"><ele>327.0</ele><time>2026-05-01T15:16:31.673Z</time></trkpt><trkpt lat="40.9043633" lon="9.3466467"><ele>327.0</ele><time>2026-05-01T15:16:33.673Z</time></trkpt><trkpt lat="40.904345" lon="9.3465583"><ele>327.0</ele><time>2026-05-01T15:16:36.673Z</time></trkpt><trkpt lat="40.9042983" lon="9.3464467"><ele>327.0</ele><time>2026-05-01T15:17:00.673Z</time></trkpt><trkpt lat="40.9042833" lon="9.34634"><ele>327.0</ele><time>2026-05-01T15:17:02.673Z</time></trkpt><trkpt lat="40.9042667" lon="9.3462567"><ele>327.0</ele><time>2026-05-01T15:17:03.673Z</time></trkpt><trkpt lat="40.9042533" lon="9.34615"><ele>327.0</ele><time>2026-05-01T15:17:04.673Z</time></trkpt><trkpt lat="40.90424" lon="9.34603"><ele>328.6</ele><time>2026-05-01T15:17:05.673Z</time></trkpt><trkpt lat="40.9042233" lon="9.3458983"><ele>330.20000000000005</ele><time>2026-05-01T15:17:06.673Z</time></trkpt><trkpt lat="40.90421" lon="9.3457333"><ele>331.8</ele><time>2026-05-01T15:17:07.673Z</time></trkpt><trkpt lat="40.9041833" lon="9.3455867"><ele>333.4</ele><time>2026-05-01T15:17:08.673Z</time></trkpt><trkpt lat="40.904165" lon="9.34546"><ele>335.0</ele><time>2026-05-01T15:17:09.673Z</time></trkpt><trkpt lat="40.9041467" lon="9.3453167"><ele>335.5</ele><time>2026-05-01T15:17:10.673Z</time></trkpt><trkpt lat="40.9041433" lon="9.3451733"><ele>336.0</ele><time>2026-05-01T15:17:11.673Z</time></trkpt><trkpt lat="40.904145" lon="9.345015"><ele>336.5</ele><time>2026-05-01T15:17:12.673Z</time></trkpt><trkpt lat="40.9041583" lon="9.3448467"><ele>337.0</ele><time>2026-05-01T15:17:13.673Z</time></trkpt><trkpt lat="40.9041717" lon="9.3446567"><ele>337.0</ele><time>2026-05-01T15:17:14.673Z</time></trkpt><trkpt lat="40.9041867" lon="9.344495"><ele>337.0</ele><time>2026-05-01T15:17:15.673Z</time></trkpt><trkpt lat="40.9042033" lon="9.3443383"><ele>337.0</ele><time>2026-05-01T15:17:16.673Z</time></trkpt><trkpt lat="40.90422" lon="9.3442"><ele>337.0</ele><time>2026-05-01T15:17:17.673Z</time></trkpt><trkpt lat="40.9042483" lon="9.3440733"><ele>337.0</ele><time>2026-05-01T15:17:18.673Z</time></trkpt><trkpt lat="40.9042783" lon="9.3439533"><ele>337.75</ele><time>2026-05-01T15:17:19.673Z</time></trkpt><trkpt lat="40.9043167" lon="9.3438183"><ele>338.5</ele><time>2026-05-01T15:17:20.673Z</time></trkpt><trkpt lat="40.9043667" lon="9.343705"><ele>339.25</ele><time>2026-05-01T15:17:21.673Z</time></trkpt><trkpt lat="40.9044417" lon="9.34359"><ele>340.0</ele><time>2026-05-01T15:17:22.673Z</time></trkpt><trkpt lat="40.9045367" lon="9.3434633"><ele>340.0</ele><time>2026-05-01T15:17:23.673Z</time></trkpt><trkpt lat="40.904645" lon="9.3433567"><ele>340.0</ele><time>2026-05-01T15:17:24.673Z</time></trkpt><trkpt lat="40.9047567" lon="9.343265"><ele>340.0</ele><time>2026-05-01T15:17:25.673Z</time></trkpt><trkpt lat="40.9048733" lon="9.343175"><ele>340.0</ele><time>2026-05-01T15:17:26.673Z</time></trkpt><trkpt lat="40.9049917" lon="9.3431"><ele>340.75</ele><time>2026-05-01T15:17:27.673Z</time></trkpt><trkpt lat="40.9051167" lon="9.34304"><ele>341.5</ele><time>2026-05-01T15:17:28.673Z</time></trkpt><trkpt lat="40.9052567" lon="9.3430133"><ele>342.25</ele><time>2026-05-01T15:17:29.673Z</time></trkpt><trkpt lat="40.90539" lon="9.342995"><ele>343.0</ele><time>2026-05-01T15:17:30.673Z</time></trkpt><trkpt lat="40.9055117" lon="9.3429783"><ele>343.0</ele><time>2026-05-01T15:17:31.673Z</time></trkpt><trkpt lat="40.9056267" lon="9.3429567"><ele>343.0</ele><time>2026-05-01T15:17:32.673Z</time></trkpt><trkpt lat="40.9057217" lon="9.3429067"><ele>343.0</ele><time>2026-05-01T15:17:33.673Z</time></trkpt><trkpt lat="40.9058083" lon="9.342825"><ele>343.0</ele><time>2026-05-01T15:17:34.673Z</time></trkpt><trkpt lat="40.905885" lon="9.3427367"><ele>343.0</ele><time>2026-05-01T15:17:35.673Z</time></trkpt><trkpt lat="40.9059567" lon="9.342625"><ele>342.79999999999995</ele><time>2026-05-01T15:17:36.673Z</time></trkpt><trkpt lat="40.9060367" lon="9.3425317"><ele>342.6</ele><time>2026-05-01T15:17:37.673Z</time></trkpt><trkpt lat="40.90612" lon="9.3424467"><ele>342.4</ele><time>2026-05-01T15:17:38.673Z</time></trkpt><trkpt lat="40.90622" lon="9.3424"><ele>342.20000000000005</ele><time>2026-05-01T15:17:39.673Z</time></trkpt><trkpt lat="40.9063333" lon="9.3423533"><ele>342.0</ele><time>2026-05-01T15:17:40.673Z</time></trkpt><trkpt lat="40.9064617" lon="9.34231"><ele>342.0</ele><time>2026-05-01T15:17:41.673Z</time></trkpt><trkpt lat="40.9066017" lon="9.3422767"><ele>342.0</ele><time>2026-05-01T15:17:42.673Z</time></trkpt><trkpt lat="40.9067467" lon="9.3422333"><ele>342.0</ele><time>2026-05-01T15:17:43.673Z</time></trkpt><trkpt lat="40.9069017" lon="9.3422067"><ele>342.0</ele><time>2026-05-01T15:17:44.674Z</time></trkpt><trkpt lat="40.9070617" lon="9.3421533"><ele>342.0</ele><time>2026-05-01T15:17:45.673Z</time></trkpt><trkpt lat="40.907235" lon="9.34211"><ele>342.0</ele><time>2026-05-01T15:17:46.673Z</time></trkpt><trkpt lat="40.9074" lon="9.3420617"><ele>342.0</ele><time>2026-05-01T15:17:47.673Z</time></trkpt><trkpt lat="40.90756" lon="9.34203"><ele>342.75</ele><time>2026-05-01T15:17:48.673Z</time></trkpt><trkpt lat="40.90771" lon="9.341995"><ele>343.5</ele><time>2026-05-01T15:17:49.673Z</time></trkpt><trkpt lat="40.90785" lon="9.34195"><ele>344.25</ele><time>2026-05-01T15:17:50.674Z</time></trkpt><trkpt lat="40.90799" lon="9.3419067"><ele>345.0</ele><time>2026-05-01T15:17:51.673Z</time></trkpt><trkpt lat="40.9081267" lon="9.3418667"><ele>345.0</ele><time>2026-05-01T15:17:52.673Z</time></trkpt><trkpt lat="40.9082667" lon="9.3418183"><ele>345.0</ele><time>2026-05-01T15:17:53.673Z</time></trkpt><trkpt lat="40.9083967" lon="9.3417783"><ele>345.0</ele><time>2026-05-01T15:17:54.673Z</time></trkpt><trkpt lat="40.9085233" lon="9.341745"><ele>345.0</ele><time>2026-05-01T15:17:55.673Z</time></trkpt><trkpt lat="40.908635" lon="9.3417233"><ele>344.5</ele><time>2026-05-01T15:17:56.673Z</time></trkpt><trkpt lat="40.9087583" lon="9.3416867"><ele>344.0</ele><time>2026-05-01T15:17:57.673Z</time></trkpt><trkpt lat="40.90886" lon="9.3416133"><ele>343.5</ele><time>2026-05-01T15:17:58.673Z</time></trkpt><trkpt lat="40.908965" lon="9.3415433"><ele>343.0</ele><time>2026-05-01T15:17:59.673Z</time></trkpt><trkpt lat="40.9090733" lon="9.3414633"><ele>343.0</ele><time>2026-05-01T15:18:00.674Z</time></trkpt><trkpt lat="40.90919" lon="9.3413833"><ele>343.0</ele><time>2026-05-01T15:18:01.673Z</time></trkpt><trkpt lat="40.9093117" lon="9.3412983"><ele>343.0</ele><time>2026-05-01T15:18:02.673Z</time></trkpt><trkpt lat="40.9094317" lon="9.3412033"><ele>343.0</ele><time>2026-05-01T15:18:03.673Z</time></trkpt><trkpt lat="40.9095583" lon="9.3410683"><ele>344.3333333333333</ele><time>2026-05-01T15:18:04.673Z</time></trkpt><trkpt lat="40.90969" lon="9.34095"><ele>345.6666666666667</ele><time>2026-05-01T15:18:05.673Z</time></trkpt><trkpt lat="40.9098167" lon="9.3408367"><ele>347.0</ele><time>2026-05-01T15:18:06.673Z</time></trkpt><trkpt lat="40.909955" lon="9.3407133"><ele>347.5</ele><time>2026-05-01T15:18:07.673Z</time></trkpt><trkpt lat="40.9100933" lon="9.34061"><ele>348.0</ele><time>2026-05-01T15:18:08.673Z</time></trkpt><trkpt lat="40.9102067" lon="9.3405083"><ele>348.5</ele><time>2026-05-01T15:18:09.673Z</time></trkpt><trkpt lat="40.910315" lon="9.3404333"><ele>349.0</ele><time>2026-05-01T15:18:10.673Z</time></trkpt><trkpt lat="40.9104183" lon="9.3403733"><ele>349.6</ele><time>2026-05-01T15:18:11.673Z</time></trkpt><trkpt lat="40.9105217" lon="9.3403467"><ele>350.2</ele><time>2026-05-01T15:18:12.673Z</time></trkpt><trkpt lat="40.9106183" lon="9.340335"><ele>350.8</ele><time>2026-05-01T15:18:13.673Z</time></trkpt><trkpt lat="40.9107217" lon="9.340345"><ele>351.40000000000003</ele><time>2026-05-01T15:18:14.673Z</time></trkpt><trkpt lat="40.9108333" lon="9.34035"><ele>352.0</ele><time>2026-05-01T15:18:15.673Z</time></trkpt><trkpt lat="40.9109517" lon="9.3403517"><ele>352.0</ele><time>2026-05-01T15:18:16.673Z</time></trkpt><trkpt lat="40.91107" lon="9.3403533"><ele>352.0</ele><time>2026-05-01T15:18:17.673Z</time></trkpt><trkpt lat="40.9111833" lon="9.3403567"><ele>352.0</ele><time>2026-05-01T15:18:18.673Z</time></trkpt><trkpt lat="40.9113033" lon="9.3403767"><ele>352.0</ele><time>2026-05-01T15:18:19.673Z</time></trkpt><trkpt lat="40.9114133" lon="9.340385"><ele>352.0</ele><time>2026-05-01T15:18:20.673Z</time></trkpt><trkpt lat="40.9115283" lon="9.3404"><ele>352.0</ele><time>2026-05-01T15:18:21.673Z</time></trkpt><trkpt lat="40.9116483" lon="9.3404167"><ele>352.0</ele><time>2026-05-01T15:18:22.673Z</time></trkpt><trkpt lat="40.9117733" lon="9.3404267"><ele>352.0</ele><time>2026-05-01T15:18:23.673Z</time></trkpt><trkpt lat="40.9119067" lon="9.3404333"><ele>351.0</ele><time>2026-05-01T15:18:24.673Z</time></trkpt><trkpt lat="40.9120333" lon="9.3404283"><ele>350.0</ele><time>2026-05-01T15:18:25.673Z</time></trkpt><trkpt lat="40.9121433" lon="9.3404217"><ele>349.0</ele><time>2026-05-01T15:18:26.673Z</time></trkpt><trkpt lat="40.9122417" lon="9.34042"><ele>348.0</ele><time>2026-05-01T15:18:27.674Z</time></trkpt><trkpt lat="40.91233" lon="9.3404183"><ele>347.0</ele><time>2026-05-01T15:18:28.673Z</time></trkpt><trkpt lat="40.9124117" lon="9.3403867"><ele>347.0</ele><time>2026-05-01T15:18:29.673Z</time></trkpt><trkpt lat="40.9124833" lon="9.3403183"><ele>347.0</ele><time>2026-05-01T15:18:30.673Z</time></trkpt><trkpt lat="40.9125417" lon="9.3402067"><ele>347.0</ele><time>2026-05-01T15:18:31.673Z</time></trkpt><trkpt lat="40.9125917" lon="9.3400667"><ele>347.0</ele><time>2026-05-01T15:18:32.673Z</time></trkpt><trkpt lat="40.91264" lon="9.3399367"><ele>347.0</ele><time>2026-05-01T15:18:33.673Z</time></trkpt><trkpt lat="40.912675" lon="9.3397767"><ele>349.5</ele><time>2026-05-01T15:18:34.673Z</time></trkpt><trkpt lat="40.9127133" lon="9.3396133"><ele>352.0</ele><time>2026-05-01T15:18:35.673Z</time></trkpt><trkpt lat="40.9127383" lon="9.3394367"><ele>354.5</ele><time>2026-05-01T15:18:36.673Z</time></trkpt><trkpt lat="40.9127467" lon="9.3392433"><ele>357.0</ele><time>2026-05-01T15:18:37.673Z</time></trkpt><trkpt lat="40.912745" lon="9.3390483"><ele>357.0</ele><time>2026-05-01T15:18:38.673Z</time></trkpt><trkpt lat="40.9127383" lon="9.3388867"><ele>357.0</ele><time>2026-05-01T15:18:39.673Z</time></trkpt><trkpt lat="40.9127267" lon="9.338735"><ele>357.0</ele><time>2026-05-01T15:18:40.673Z</time></trkpt><trkpt lat="40.9127283" lon="9.338585"><ele>357.0</ele><time>2026-05-01T15:18:41.673Z</time></trkpt><trkpt lat="40.912745" lon="9.3384333"><ele>358.0</ele><time>2026-05-01T15:18:42.673Z</time></trkpt><trkpt lat="40.91278" lon="9.3382583"><ele>359.0</ele><time>2026-05-01T15:18:43.673Z</time></trkpt><trkpt lat="40.912835" lon="9.3380667"><ele>360.0</ele><time>2026-05-01T15:18:44.673Z</time></trkpt><trkpt lat="40.9128733" lon="9.3378667"><ele>361.0</ele><time>2026-05-01T15:18:45.673Z</time></trkpt><trkpt lat="40.91291" lon="9.33767"><ele>361.25</ele><time>2026-05-01T15:18:46.674Z</time></trkpt><trkpt lat="40.91294" lon="9.3374817"><ele>361.5</ele><time>2026-05-01T15:18:47.673Z</time></trkpt><trkpt lat="40.9129533" lon="9.337295"><ele>361.75</ele><time>2026-05-01T15:18:48.673Z</time></trkpt><trkpt lat="40.9129733" lon="9.337115"><ele>362.0</ele><time>2026-05-01T15:18:49.673Z</time></trkpt><trkpt lat="40.9129967" lon="9.33693"><ele>362.6666666666667</ele><time>2026-05-01T15:18:50.673Z</time></trkpt><trkpt lat="40.9130183" lon="9.3367233"><ele>363.3333333333333</ele><time>2026-05-01T15:18:51.673Z</time></trkpt><trkpt lat="40.91303" lon="9.3365183"><ele>364.0</ele><time>2026-05-01T15:18:52.673Z</time></trkpt><trkpt lat="40.9130433" lon="9.3363133"><ele>366.3333333333333</ele><time>2026-05-01T15:18:53.673Z</time></trkpt><trkpt lat="40.9130383" lon="9.336105"><ele>368.6666666666667</ele><time>2026-05-01T15:18:54.673Z</time></trkpt><trkpt lat="40.9130383" lon="9.335895"><ele>371.0</ele><time>2026-05-01T15:18:55.673Z</time></trkpt><trkpt lat="40.913035" lon="9.3356867"><ele>372.0</ele><time>2026-05-01T15:18:56.673Z</time></trkpt><trkpt lat="40.9130533" lon="9.33547"><ele>373.0</ele><time>2026-05-01T15:18:57.673Z</time></trkpt><trkpt lat="40.9130417" lon="9.33528"><ele>374.0</ele><time>2026-05-01T15:18:58.673Z</time></trkpt><trkpt lat="40.913035" lon="9.335095"><ele>375.0</ele><time>2026-05-01T15:18:59.673Z</time></trkpt><trkpt lat="40.9130283" lon="9.3349267"><ele>375.0</ele><time>2026-05-01T15:19:00.673Z</time></trkpt><trkpt lat="40.9130467" lon="9.33473"><ele>375.0</ele><time>2026-05-01T15:19:01.673Z</time></trkpt><trkpt lat="40.91307" lon="9.33454"><ele>375.0</ele><time>2026-05-01T15:19:02.673Z</time></trkpt><trkpt lat="40.9131117" lon="9.334355"><ele>375.0</ele><time>2026-05-01T15:19:03.673Z</time></trkpt><trkpt lat="40.913165" lon="9.33417"><ele>375.0</ele><time>2026-05-01T15:19:04.673Z</time></trkpt><trkpt lat="40.9132267" lon="9.3339817"><ele>375.0</ele><time>2026-05-01T15:19:05.673Z</time></trkpt><trkpt lat="40.913285" lon="9.3337983"><ele>375.0</ele><time>2026-05-01T15:19:06.673Z</time></trkpt><trkpt lat="40.9133233" lon="9.3336583"><ele>375.0</ele><time>2026-05-01T15:19:07.673Z</time></trkpt><trkpt lat="40.9133717" lon="9.3335317"><ele>377.0</ele><time>2026-05-01T15:19:08.673Z</time></trkpt><trkpt lat="40.9134533" lon="9.3334167"><ele>379.0</ele><time>2026-05-01T15:19:09.673Z</time></trkpt><trkpt lat="40.9135433" lon="9.3333417"><ele>381.0</ele><time>2026-05-01T15:19:10.673Z</time></trkpt><trkpt lat="40.91363" lon="9.3332867"><ele>383.0</ele><time>2026-05-01T15:19:11.673Z</time></trkpt><trkpt lat="40.9137067" lon="9.3332333"><ele>385.0</ele><time>2026-05-01T15:19:12.673Z</time></trkpt><trkpt lat="40.91377" lon="9.333175"><ele>385.0</ele><time>2026-05-01T15:19:13.673Z</time></trkpt><trkpt lat="40.9138367" lon="9.3331033"><ele>385.0</ele><time>2026-05-01T15:19:14.673Z</time></trkpt><trkpt lat="40.9139067" lon="9.333015"><ele>385.0</ele><time>2026-05-01T15:19:15.673Z</time></trkpt><trkpt lat="40.913975" lon="9.3329"><ele>385.0</ele><time>2026-05-01T15:19:16.673Z</time></trkpt><trkpt lat="40.9140467" lon="9.3327717"><ele>385.0</ele><time>2026-05-01T15:19:17.673Z</time></trkpt><trkpt lat="40.914115" lon="9.3326383"><ele>385.0</ele><time>2026-05-01T15:19:18.674Z</time></trkpt><trkpt lat="40.9141867" lon="9.332505"><ele>385.0</ele><time>2026-05-01T15:19:19.673Z</time></trkpt><trkpt lat="40.91425" lon="9.3323383"><ele>385.0</ele><time>2026-05-01T15:19:20.673Z</time></trkpt><trkpt lat="40.9143083" lon="9.332185"><ele>385.0</ele><time>2026-05-01T15:19:21.673Z</time></trkpt><trkpt lat="40.91436" lon="9.33204"><ele>386.8</ele><time>2026-05-01T15:19:22.673Z</time></trkpt><trkpt lat="40.914415" lon="9.3319167"><ele>388.6</ele><time>2026-05-01T15:19:23.674Z</time></trkpt><trkpt lat="40.9144567" lon="9.3317883"><ele>390.4</ele><time>2026-05-01T15:19:24.673Z</time></trkpt><trkpt lat="40.9144733" lon="9.3316717"><ele>392.2</ele><time>2026-05-01T15:19:25.673Z</time></trkpt><trkpt lat="40.9144783" lon="9.3315383"><ele>394.0</ele><time>2026-05-01T15:19:26.673Z</time></trkpt><trkpt lat="40.9145017" lon="9.331415"><ele>394.5</ele><time>2026-05-01T15:19:27.673Z</time></trkpt><trkpt lat="40.91453" lon="9.33129"><ele>395.0</ele><time>2026-05-01T15:19:28.673Z</time></trkpt><trkpt lat="40.9145767" lon="9.33116"><ele>395.5</ele><time>2026-05-01T15:19:29.673Z</time></trkpt><trkpt lat="40.914625" lon="9.3310283"><ele>396.0</ele><time>2026-05-01T15:19:30.673Z</time></trkpt><trkpt lat="40.9147033" lon="9.3308633"><ele>396.0</ele><time>2026-05-01T15:19:31.673Z</time></trkpt><trkpt lat="40.9147667" lon="9.3307483"><ele>396.0</ele><time>2026-05-01T15:19:32.673Z</time></trkpt><trkpt lat="40.9148217" lon="9.3306333"><ele>396.0</ele><time>2026-05-01T15:19:33.673Z</time></trkpt><trkpt lat="40.914885" lon="9.33052"><ele>396.0</ele><time>2026-05-01T15:19:34.673Z</time></trkpt><trkpt lat="40.9149583" lon="9.33041"><ele>396.0</ele><time>2026-05-01T15:19:35.673Z</time></trkpt><trkpt lat="40.915065" lon="9.3303133"><ele>397.25</ele><time>2026-05-01T15:19:36.673Z</time></trkpt><trkpt lat="40.91517" lon="9.3302033"><ele>398.5</ele><time>2026-05-01T15:19:37.673Z</time></trkpt><trkpt lat="40.9152717" lon="9.33013"><ele>399.75</ele><time>2026-05-01T15:19:38.673Z</time></trkpt><trkpt lat="40.91538" lon="9.3300533"><ele>401.0</ele><time>2026-05-01T15:19:39.673Z</time></trkpt><trkpt lat="40.9154817" lon="9.32995"><ele>401.0</ele><time>2026-05-01T15:19:40.673Z</time></trkpt><trkpt lat="40.9155783" lon="9.3298633"><ele>401.0</ele><time>2026-05-01T15:19:41.673Z</time></trkpt><trkpt lat="40.915685" lon="9.3298233"><ele>401.0</ele><time>2026-05-01T15:19:42.673Z</time></trkpt><trkpt lat="40.915785" lon="9.3298033"><ele>401.0</ele><time>2026-05-01T15:19:43.673Z</time></trkpt><trkpt lat="40.9159017" lon="9.329765"><ele>401.0</ele><time>2026-05-01T15:19:44.673Z</time></trkpt><trkpt lat="40.91602" lon="9.3297283"><ele>402.5</ele><time>2026-05-01T15:19:45.673Z</time></trkpt><trkpt lat="40.9161383" lon="9.3296817"><ele>404.0</ele><time>2026-05-01T15:19:46.673Z</time></trkpt><trkpt lat="40.9162667" lon="9.329595"><ele>405.5</ele><time>2026-05-01T15:19:47.673Z</time></trkpt><trkpt lat="40.91638" lon="9.329525"><ele>407.0</ele><time>2026-05-01T15:19:48.673Z</time></trkpt><trkpt lat="40.9165033" lon="9.3294367"><ele>407.0</ele><time>2026-05-01T15:19:49.673Z</time></trkpt><trkpt lat="40.9166133" lon="9.3293333"><ele>407.0</ele><time>2026-05-01T15:19:50.673Z</time></trkpt><trkpt lat="40.9167317" lon="9.3292533"><ele>407.0</ele><time>2026-05-01T15:19:51.673Z</time></trkpt><trkpt lat="40.916865" lon="9.32917"><ele>407.0</ele><time>2026-05-01T15:19:52.673Z</time></trkpt><trkpt lat="40.9169933" lon="9.3291433"><ele>407.75</ele><time>2026-05-01T15:19:53.673Z</time></trkpt><trkpt lat="40.9171167" lon="9.32912"><ele>408.5</ele><time>2026-05-01T15:19:54.674Z</time></trkpt><trkpt lat="40.9172333" lon="9.3290767"><ele>409.25</ele><time>2026-05-01T15:19:55.673Z</time></trkpt><trkpt lat="40.9173483" lon="9.3290467"><ele>410.0</ele><time>2026-05-01T15:19:56.673Z</time></trkpt><trkpt lat="40.9174683" lon="9.32903"><ele>411.0</ele><time>2026-05-01T15:19:57.673Z</time></trkpt><trkpt lat="40.9176067" lon="9.3290433"><ele>412.0</ele><time>2026-05-01T15:19:58.673Z</time></trkpt><trkpt lat="40.9177617" lon="9.32907"><ele>413.0</ele><time>2026-05-01T15:19:59.673Z</time></trkpt><trkpt lat="40.917915" lon="9.329055"><ele>414.0</ele><time>2026-05-01T15:20:00.673Z</time></trkpt><trkpt lat="40.9180433" lon="9.3290483"><ele>414.0</ele><time>2026-05-01T15:20:01.673Z</time></trkpt><trkpt lat="40.9181617" lon="9.32904"><ele>414.0</ele><time>2026-05-01T15:20:02.673Z</time></trkpt><trkpt lat="40.9182733" lon="9.3290383"><ele>414.0</ele><time>2026-05-01T15:20:03.673Z</time></trkpt><trkpt lat="40.9183633" lon="9.3290483"><ele>414.0</ele><time>2026-05-01T15:20:04.673Z</time></trkpt><trkpt lat="40.9184417" lon="9.3290867"><ele>414.0</ele><time>2026-05-01T15:20:05.673Z</time></trkpt><trkpt lat="40.91851" lon="9.3291367"><ele>412.6</ele><time>2026-05-01T15:20:06.673Z</time></trkpt><trkpt lat="40.9185667" lon="9.3292183"><ele>411.2</ele><time>2026-05-01T15:20:07.673Z</time></trkpt><trkpt lat="40.9186" lon="9.3293167"><ele>409.8</ele><time>2026-05-01T15:20:08.673Z</time></trkpt><trkpt lat="40.918635" lon="9.3294583"><ele>408.40000000000003</ele><time>2026-05-01T15:20:10.673Z</time></trkpt><trkpt lat="40.9186483" lon="9.329585"><ele>407.0</ele><time>2026-05-01T15:20:12.673Z</time></trkpt><trkpt lat="40.9187217" lon="9.32967"><ele>406.99999999999994</ele><time>2026-05-01T15:20:14.673Z</time></trkpt><trkpt lat="40.9187533" lon="9.3297717"><ele>407.0</ele><time>2026-05-01T15:20:16.673Z</time></trkpt><trkpt lat="40.9187933" lon="9.32985"><ele>407.0</ele><time>2026-05-01T15:20:18.673Z</time></trkpt><trkpt lat="40.91888" lon="9.329855"><ele>407.0</ele><time>2026-05-01T15:20:20.673Z</time></trkpt><trkpt lat="40.918965" lon="9.3298317"><ele>406.99999999999994</ele><time>2026-05-01T15:20:23.673Z</time></trkpt><trkpt lat="40.9190183" lon="9.3297383"><ele>407.0</ele><time>2026-05-01T15:20:25.673Z</time></trkpt><trkpt lat="40.919035" lon="9.3296517"><ele>407.0</ele><time>2026-05-01T15:20:27.673Z</time></trkpt><trkpt lat="40.9190867" lon="9.3295667"><ele>407.0</ele><time>2026-05-01T15:20:40.673Z</time></trkpt><trkpt lat="40.9191683" lon="9.3295533"><ele>407.0</ele><time>2026-05-01T15:20:42.674Z</time></trkpt><trkpt lat="40.9192383" lon="9.3295417"><ele>407.0</ele><time>2026-05-01T15:20:43.673Z</time></trkpt><trkpt lat="40.9193617" lon="9.3295083"><ele>407.0</ele><time>2026-05-01T15:20:44.673Z</time></trkpt><trkpt lat="40.91947" lon="9.3294583"><ele>408.25</ele><time>2026-05-01T15:20:45.673Z</time></trkpt><trkpt lat="40.9195833" lon="9.329405"><ele>409.5</ele><time>2026-05-01T15:20:46.673Z</time></trkpt><trkpt lat="40.9197133" lon="9.329345"><ele>410.75</ele><time>2026-05-01T15:20:47.673Z</time></trkpt><trkpt lat="40.9198433" lon="9.3292883"><ele>412.0</ele><time>2026-05-01T15:20:48.674Z</time></trkpt><trkpt lat="40.91997" lon="9.3292133"><ele>412.25</ele><time>2026-05-01T15:20:49.673Z</time></trkpt><trkpt lat="40.9200967" lon="9.3291483"><ele>412.5</ele><time>2026-05-01T15:20:50.673Z</time></trkpt><trkpt lat="40.92022" lon="9.329075"><ele>412.75</ele><time>2026-05-01T15:20:51.673Z</time></trkpt><trkpt lat="40.9203433" lon="9.329005"><ele>413.0</ele><time>2026-05-01T15:20:52.673Z</time></trkpt><trkpt lat="40.9204817" lon="9.3289217"><ele>411.75</ele><time>2026-05-01T15:20:53.673Z</time></trkpt><trkpt lat="40.9206333" lon="9.3288417"><ele>410.5</ele><time>2026-05-01T15:20:54.673Z</time></trkpt><trkpt lat="40.9207533" lon="9.328775"><ele>409.25</ele><time>2026-05-01T15:20:55.673Z</time></trkpt><trkpt lat="40.92087" lon="9.32871"><ele>408.0</ele><time>2026-05-01T15:20:56.673Z</time></trkpt><trkpt lat="40.9209767" lon="9.3287167"><ele>408.0</ele><time>2026-05-01T15:20:57.673Z</time></trkpt><trkpt lat="40.9210867" lon="9.32871"><ele>408.0</ele><time>2026-05-01T15:20:58.673Z</time></trkpt><trkpt lat="40.9211967" lon="9.3287167"><ele>408.0</ele><time>2026-05-01T15:20:59.673Z</time></trkpt><trkpt lat="40.9213083" lon="9.3287883"><ele>408.0</ele><time>2026-05-01T15:21:00.673Z</time></trkpt><trkpt lat="40.9214117" lon="9.3288767"><ele>408.0</ele><time>2026-05-01T15:21:01.673Z</time></trkpt><trkpt lat="40.9215267" lon="9.3289867"><ele>408.0</ele><time>2026-05-01T15:21:02.673Z</time></trkpt><trkpt lat="40.921645" lon="9.32913"><ele>408.0</ele><time>2026-05-01T15:21:03.673Z</time></trkpt><trkpt lat="40.9217667" lon="9.3292683"><ele>408.0</ele><time>2026-05-01T15:21:04.673Z</time></trkpt><trkpt lat="40.9218983" lon="9.3293933"><ele>408.0</ele><time>2026-05-01T15:21:05.673Z</time></trkpt><trkpt lat="40.9220233" lon="9.3295133"><ele>408.0</ele><time>2026-05-01T15:21:06.673Z</time></trkpt><trkpt lat="40.9221383" lon="9.32963"><ele>407.5</ele><time>2026-05-01T15:21:07.673Z</time></trkpt><trkpt lat="40.92225" lon="9.3297533"><ele>407.0</ele><time>2026-05-01T15:21:08.673Z</time></trkpt><trkpt lat="40.9223567" lon="9.3298867"><ele>406.5</ele><time>2026-05-01T15:21:09.673Z</time></trkpt><trkpt lat="40.9224583" lon="9.3300433"><ele>406.0</ele><time>2026-05-01T15:21:10.673Z</time></trkpt><trkpt lat="40.9225467" lon="9.3302333"><ele>407.33333333333337</ele><time>2026-05-01T15:21:11.673Z</time></trkpt><trkpt lat="40.9226417" lon="9.3303983"><ele>408.66666666666663</ele><time>2026-05-01T15:21:12.673Z</time></trkpt><trkpt lat="40.9227483" lon="9.33055"><ele>410.0</ele><time>2026-05-01T15:21:13.673Z</time></trkpt><trkpt lat="40.922865" lon="9.3306533"><ele>407.75</ele><time>2026-05-01T15:21:14.673Z</time></trkpt><trkpt lat="40.92298" lon="9.3307667"><ele>405.5</ele><time>2026-05-01T15:21:15.674Z</time></trkpt><trkpt lat="40.9231033" lon="9.33087"><ele>403.25</ele><time>2026-05-01T15:21:16.673Z</time></trkpt><trkpt lat="40.923205" lon="9.3309817"><ele>401.0</ele><time>2026-05-01T15:21:17.673Z</time></trkpt><trkpt lat="40.9232917" lon="9.331135"><ele>401.0</ele><time>2026-05-01T15:21:18.673Z</time></trkpt><trkpt lat="40.92337" lon="9.33131"><ele>401.0</ele><time>2026-05-01T15:21:19.673Z</time></trkpt><trkpt lat="40.92344" lon="9.3314983"><ele>401.0</ele><time>2026-05-01T15:21:20.673Z</time></trkpt><trkpt lat="40.92352" lon="9.3316733"><ele>399.66666666666663</ele><time>2026-05-01T15:21:21.673Z</time></trkpt><trkpt lat="40.923605" lon="9.33185"><ele>398.33333333333337</ele><time>2026-05-01T15:21:22.673Z</time></trkpt><trkpt lat="40.923705" lon="9.33201"><ele>397.0</ele><time>2026-05-01T15:21:23.673Z</time></trkpt><trkpt lat="40.9238067" lon="9.3321817"><ele>396.0</ele><time>2026-05-01T15:21:24.673Z</time></trkpt><trkpt lat="40.9239067" lon="9.3323333"><ele>395.0</ele><time>2026-05-01T15:21:25.673Z</time></trkpt><trkpt lat="40.923995" lon="9.33249"><ele>394.0</ele><time>2026-05-01T15:21:26.673Z</time></trkpt><trkpt lat="40.9240967" lon="9.3326167"><ele>393.0</ele><time>2026-05-01T15:21:27.673Z</time></trkpt><trkpt lat="40.924185" lon="9.3327383"><ele>393.0</ele><time>2026-05-01T15:21:28.673Z</time></trkpt><trkpt lat="40.9242683" lon="9.3328467"><ele>393.0</ele><time>2026-05-01T15:21:29.673Z</time></trkpt><trkpt lat="40.9243617" lon="9.33292"><ele>393.0</ele><time>2026-05-01T15:21:30.673Z</time></trkpt><trkpt lat="40.9244883" lon="9.3329433"><ele>393.0</ele><time>2026-05-01T15:21:31.673Z</time></trkpt><trkpt lat="40.92462" lon="9.3329717"><ele>393.0</ele><time>2026-05-01T15:21:32.673Z</time></trkpt><trkpt lat="40.9247683" lon="9.3329483"><ele>393.0</ele><time>2026-05-01T15:21:33.673Z</time></trkpt><trkpt lat="40.9249133" lon="9.3329467"><ele>393.0</ele><time>2026-05-01T15:21:34.673Z</time></trkpt><trkpt lat="40.9250617" lon="9.3329483"><ele>393.0</ele><time>2026-05-01T15:21:35.673Z</time></trkpt><trkpt lat="40.92521" lon="9.3329433"><ele>393.5</ele><time>2026-05-01T15:21:36.673Z</time></trkpt><trkpt lat="40.9253567" lon="9.3329283"><ele>394.0</ele><time>2026-05-01T15:21:37.673Z</time></trkpt><trkpt lat="40.9255133" lon="9.3329183"><ele>394.5</ele><time>2026-05-01T15:21:38.673Z</time></trkpt><trkpt lat="40.9256467" lon="9.3328733"><ele>395.0</ele><time>2026-05-01T15:21:39.673Z</time></trkpt><trkpt lat="40.925805" lon="9.332815"><ele>396.3333333333333</ele><time>2026-05-01T15:21:40.673Z</time></trkpt><trkpt lat="40.9259533" lon="9.3328083"><ele>397.66666666666663</ele><time>2026-05-01T15:21:41.673Z</time></trkpt><trkpt lat="40.9261" lon="9.3328067"><ele>399.0</ele><time>2026-05-01T15:21:42.673Z</time></trkpt><trkpt lat="40.9262617" lon="9.33282"><ele>399.0</ele><time>2026-05-01T15:21:43.673Z</time></trkpt><trkpt lat="40.926415" lon="9.3328383"><ele>399.0</ele><time>2026-05-01T15:21:44.673Z</time></trkpt><trkpt lat="40.9265667" lon="9.3328683"><ele>399.0</ele><time>2026-05-01T15:21:45.673Z</time></trkpt><trkpt lat="40.9267167" lon="9.3329017"><ele>399.0</ele><time>2026-05-01T15:21:46.673Z</time></trkpt><trkpt lat="40.9268867" lon="9.3329483"><ele>399.0</ele><time>2026-05-01T15:21:47.673Z</time></trkpt><trkpt lat="40.92703" lon="9.3330417"><ele>399.0</ele><time>2026-05-01T15:21:48.673Z</time></trkpt><trkpt lat="40.9271683" lon="9.333115"><ele>399.25</ele><time>2026-05-01T15:21:49.673Z</time></trkpt><trkpt lat="40.92731" lon="9.333165"><ele>399.5</ele><time>2026-05-01T15:21:50.673Z</time></trkpt><trkpt lat="40.9274517" lon="9.3332183"><ele>399.75</ele><time>2026-05-01T15:21:51.673Z</time></trkpt><trkpt lat="40.9275933" lon="9.3332583"><ele>400.0</ele><time>2026-05-01T15:21:52.673Z</time></trkpt><trkpt lat="40.927725" lon="9.3333017"><ele>400.0</ele><time>2026-05-01T15:21:53.673Z</time></trkpt><trkpt lat="40.927845" lon="9.3333217"><ele>400.0</ele><time>2026-05-01T15:21:54.673Z</time></trkpt><trkpt lat="40.9279617" lon="9.33332"><ele>400.0</ele><time>2026-05-01T15:21:55.673Z</time></trkpt><trkpt lat="40.9280733" lon="9.3332933"><ele>400.0</ele><time>2026-05-01T15:21:56.673Z</time></trkpt><trkpt lat="40.9281683" lon="9.33326"><ele>400.0</ele><time>2026-05-01T15:21:57.673Z</time></trkpt><trkpt lat="40.92828" lon="9.3332317"><ele>400.0</ele><time>2026-05-01T15:21:58.673Z</time></trkpt><trkpt lat="40.9283883" lon="9.3332183"><ele>400.0</ele><time>2026-05-01T15:21:59.673Z</time></trkpt><trkpt lat="40.9285067" lon="9.3332433"><ele>400.0</ele><time>2026-05-01T15:22:00.673Z</time></trkpt><trkpt lat="40.928615" lon="9.333295"><ele>400.0</ele><time>2026-05-01T15:22:01.673Z</time></trkpt><trkpt lat="40.9287217" lon="9.3333733"><ele>401.75</ele><time>2026-05-01T15:22:02.673Z</time></trkpt><trkpt lat="40.9288167" lon="9.333495"><ele>403.5</ele><time>2026-05-01T15:22:03.673Z</time></trkpt><trkpt lat="40.9289" lon="9.333695"><ele>405.25</ele><time>2026-05-01T15:22:04.673Z</time></trkpt><trkpt lat="40.928985" lon="9.3338283"><ele>407.0</ele><time>2026-05-01T15:22:05.673Z</time></trkpt><trkpt lat="40.9290733" lon="9.3339533"><ele>407.0</ele><time>2026-05-01T15:22:06.673Z</time></trkpt><trkpt lat="40.9291583" lon="9.334065"><ele>407.0</ele><time>2026-05-01T15:22:07.673Z</time></trkpt><trkpt lat="40.9292533" lon="9.3341617"><ele>407.0</ele><time>2026-05-01T15:22:08.673Z</time></trkpt><trkpt lat="40.929355" lon="9.334245"><ele>407.0</ele><time>2026-05-01T15:22:09.673Z</time></trkpt><trkpt lat="40.929475" lon="9.3342933"><ele>410.5</ele><time>2026-05-01T15:22:10.673Z</time></trkpt><trkpt lat="40.9295883" lon="9.33436"><ele>414.0</ele><time>2026-05-01T15:22:11.674Z</time></trkpt><trkpt lat="40.9297" lon="9.3344333"><ele>417.5</ele><time>2026-05-01T15:22:12.673Z</time></trkpt><trkpt lat="40.9297983" lon="9.3345483"><ele>421.0</ele><time>2026-05-01T15:22:13.673Z</time></trkpt><trkpt lat="40.9298783" lon="9.3346283"><ele>419.0</ele><time>2026-05-01T15:22:14.673Z</time></trkpt><trkpt lat="40.92997" lon="9.334755"><ele>417.0</ele><time>2026-05-01T15:22:15.673Z</time></trkpt><trkpt lat="40.9300467" lon="9.33492"><ele>415.0</ele><time>2026-05-01T15:22:16.673Z</time></trkpt><trkpt lat="40.93007" lon="9.3351633"><ele>418.0</ele><time>2026-05-01T15:22:17.673Z</time></trkpt><trkpt lat="40.9301317" lon="9.3353283"><ele>421.0</ele><time>2026-05-01T15:22:18.673Z</time></trkpt><trkpt lat="40.930175" lon="9.3355"><ele>424.0</ele><time>2026-05-01T15:22:19.673Z</time></trkpt><trkpt lat="40.9300983" lon="9.3357433"><ele>424.0</ele><time>2026-05-01T15:22:20.673Z</time></trkpt><trkpt lat="40.9301" lon="9.3359433"><ele>424.0</ele><time>2026-05-01T15:22:21.673Z</time></trkpt><trkpt lat="40.930115" lon="9.3361283"><ele>424.0</ele><time>2026-05-01T15:22:22.673Z</time></trkpt><trkpt lat="40.930155" lon="9.33631"><ele>424.0</ele><time>2026-05-01T15:22:23.674Z</time></trkpt><trkpt lat="40.9302383" lon="9.3364683"><ele>421.0</ele><time>2026-05-01T15:22:24.673Z</time></trkpt><trkpt lat="40.9302533" lon="9.3366617"><ele>418.0</ele><time>2026-05-01T15:22:25.673Z</time></trkpt><trkpt lat="40.9303467" lon="9.3368233"><ele>415.0</ele><time>2026-05-01T15:22:26.673Z</time></trkpt><trkpt lat="40.9304283" lon="9.3369683"><ele>412.0</ele><time>2026-05-01T15:22:27.673Z</time></trkpt><trkpt lat="40.9305067" lon="9.3371117"><ele>409.75</ele><time>2026-05-01T15:22:28.673Z</time></trkpt><trkpt lat="40.930595" lon="9.3372367"><ele>407.5</ele><time>2026-05-01T15:22:29.673Z</time></trkpt><trkpt lat="40.93075" lon="9.3372383"><ele>405.25</ele><time>2026-05-01T15:22:30.673Z</time></trkpt><trkpt lat="40.930875" lon="9.3373183"><ele>403.0</ele><time>2026-05-01T15:22:31.673Z</time></trkpt><trkpt lat="40.9310067" lon="9.3373867"><ele>401.6666666666667</ele><time>2026-05-01T15:22:32.673Z</time></trkpt><trkpt lat="40.9311767" lon="9.3373783"><ele>400.33333333333337</ele><time>2026-05-01T15:22:33.673Z</time></trkpt><trkpt lat="40.931325" lon="9.3373817"><ele>399.0</ele><time>2026-05-01T15:22:34.673Z</time></trkpt><trkpt lat="40.93148" lon="9.337385"><ele>399.0</ele><time>2026-05-01T15:22:35.673Z</time></trkpt><trkpt lat="40.93163" lon="9.33741"><ele>399.0</ele><time>2026-05-01T15:22:36.673Z</time></trkpt><trkpt lat="40.9317633" lon="9.3373883"><ele>399.0</ele><time>2026-05-01T15:22:37.673Z</time></trkpt><trkpt lat="40.9318967" lon="9.33735"><ele>399.0</ele><time>2026-05-01T15:22:38.673Z</time></trkpt><trkpt lat="40.932025" lon="9.337295"><ele>397.25</ele><time>2026-05-01T15:22:39.673Z</time></trkpt><trkpt lat="40.932145" lon="9.3372033"><ele>395.5</ele><time>2026-05-01T15:22:40.673Z</time></trkpt><trkpt lat="40.9322467" lon="9.3370817"><ele>393.75</ele><time>2026-05-01T15:22:41.673Z</time></trkpt><trkpt lat="40.93235" lon="9.3369533"><ele>392.0</ele><time>2026-05-01T15:22:42.673Z</time></trkpt><trkpt lat="40.93245" lon="9.3367983"><ele>389.75</ele><time>2026-05-01T15:22:43.673Z</time></trkpt><trkpt lat="40.9325567" lon="9.336655"><ele>387.5</ele><time>2026-05-01T15:22:44.673Z</time></trkpt><trkpt lat="40.932635" lon="9.3364983"><ele>385.25</ele><time>2026-05-01T15:22:45.673Z</time></trkpt><trkpt lat="40.932705" lon="9.3363317"><ele>383.0</ele><time>2026-05-01T15:22:46.673Z</time></trkpt><trkpt lat="40.932765" lon="9.336135"><ele>382.75</ele><time>2026-05-01T15:22:47.673Z</time></trkpt><trkpt lat="40.9328183" lon="9.335965"><ele>382.5</ele><time>2026-05-01T15:22:48.673Z</time></trkpt><trkpt lat="40.9328783" lon="9.335825"><ele>382.25</ele><time>2026-05-01T15:22:49.673Z</time></trkpt><trkpt lat="40.9329517" lon="9.3357117"><ele>382.0</ele><time>2026-05-01T15:22:50.673Z</time></trkpt><trkpt lat="40.9330233" lon="9.33562"><ele>382.0</ele><time>2026-05-01T15:22:51.673Z</time></trkpt><trkpt lat="40.9331283" lon="9.3355617"><ele>382.0</ele><time>2026-05-01T15:22:52.673Z</time></trkpt><trkpt lat="40.93325" lon="9.3355433"><ele>382.0</ele><time>2026-05-01T15:22:53.673Z</time></trkpt><trkpt lat="40.9333517" lon="9.3355433"><ele>382.0</ele><time>2026-05-01T15:22:54.673Z</time></trkpt><trkpt lat="40.9334533" lon="9.33558"><ele>382.0</ele><time>2026-05-01T15:22:55.673Z</time></trkpt><trkpt lat="40.9335633" lon="9.33564"><ele>383.25</ele><time>2026-05-01T15:22:56.673Z</time></trkpt><trkpt lat="40.9336617" lon="9.33575"><ele>384.5</ele><time>2026-05-01T15:22:57.673Z</time></trkpt><trkpt lat="40.9337583" lon="9.33586"><ele>385.75</ele><time>2026-05-01T15:22:58.673Z</time></trkpt><trkpt lat="40.93387" lon="9.3359517"><ele>387.0</ele><time>2026-05-01T15:22:59.673Z</time></trkpt><trkpt lat="40.9339733" lon="9.3360417"><ele>387.0</ele><time>2026-05-01T15:23:00.673Z</time></trkpt><trkpt lat="40.93408" lon="9.3361367"><ele>387.0</ele><time>2026-05-01T15:23:01.673Z</time></trkpt><trkpt lat="40.934145" lon="9.3362083"><ele>387.0</ele><time>2026-05-01T15:23:02.673Z</time></trkpt><trkpt lat="40.934245" lon="9.3362883"><ele>387.0</ele><time>2026-05-01T15:23:03.673Z</time></trkpt><trkpt lat="40.93433" lon="9.33637"><ele>387.0</ele><time>2026-05-01T15:23:04.673Z</time></trkpt><trkpt lat="40.9344033" lon="9.336445"><ele>387.3333333333333</ele><time>2026-05-01T15:23:05.673Z</time></trkpt><trkpt lat="40.9344733" lon="9.3365217"><ele>387.66666666666663</ele><time>2026-05-01T15:23:06.673Z</time></trkpt><trkpt lat="40.93454" lon="9.33657"><ele>388.0</ele><time>2026-05-01T15:23:07.673Z</time></trkpt><trkpt lat="40.9345933" lon="9.3366417"><ele>388.3333333333333</ele><time>2026-05-01T15:23:08.673Z</time></trkpt><trkpt lat="40.9346367" lon="9.3367267"><ele>388.66666666666663</ele><time>2026-05-01T15:23:09.673Z</time></trkpt><trkpt lat="40.934675" lon="9.336825"><ele>389.0</ele><time>2026-05-01T15:23:10.673Z</time></trkpt><trkpt lat="40.9347083" lon="9.3369367"><ele>389.0</ele><time>2026-05-01T15:23:11.673Z</time></trkpt><trkpt lat="40.93473" lon="9.3370733"><ele>389.0</ele><time>2026-05-01T15:23:12.673Z</time></trkpt><trkpt lat="40.9347733" lon="9.33723"><ele>389.0</ele><time>2026-05-01T15:23:13.673Z</time></trkpt><trkpt lat="40.9348117" lon="9.3374267"><ele>389.0</ele><time>2026-05-01T15:23:14.673Z</time></trkpt><trkpt lat="40.9348467" lon="9.337625"><ele>387.66666666666663</ele><time>2026-05-01T15:23:15.673Z</time></trkpt><trkpt lat="40.9348833" lon="9.33783"><ele>386.33333333333337</ele><time>2026-05-01T15:23:16.673Z</time></trkpt><trkpt lat="40.934905" lon="9.33803"><ele>385.0</ele><time>2026-05-01T15:23:17.673Z</time></trkpt><trkpt lat="40.9349117" lon="9.3382367"><ele>384.25</ele><time>2026-05-01T15:23:18.673Z</time></trkpt><trkpt lat="40.9349033" lon="9.33843"><ele>383.5</ele><time>2026-05-01T15:23:19.673Z</time></trkpt><trkpt lat="40.9348683" lon="9.33862"><ele>382.75</ele><time>2026-05-01T15:23:20.673Z</time></trkpt><trkpt lat="40.9348217" lon="9.3388083"><ele>382.0</ele><time>2026-05-01T15:23:21.674Z</time></trkpt><trkpt lat="40.9347517" lon="9.3390017"><ele>381.3333333333333</ele><time>2026-05-01T15:23:22.673Z</time></trkpt><trkpt lat="40.93468" lon="9.3392033"><ele>380.6666666666667</ele><time>2026-05-01T15:23:23.673Z</time></trkpt><trkpt lat="40.9346117" lon="9.3394033"><ele>380.0</ele><time>2026-05-01T15:23:24.673Z</time></trkpt><trkpt lat="40.9345417" lon="9.3396033"><ele>380.6666666666667</ele><time>2026-05-01T15:23:25.673Z</time></trkpt><trkpt lat="40.9344733" lon="9.339795"><ele>381.3333333333333</ele><time>2026-05-01T15:23:26.673Z</time></trkpt><trkpt lat="40.9344267" lon="9.3399933"><ele>382.0</ele><time>2026-05-01T15:23:27.673Z</time></trkpt><trkpt lat="40.9343917" lon="9.3402033"><ele>382.0</ele><time>2026-05-01T15:23:28.673Z</time></trkpt><trkpt lat="40.93435" lon="9.3404067"><ele>382.0</ele><time>2026-05-01T15:23:29.673Z</time></trkpt><trkpt lat="40.9343183" lon="9.3406033"><ele>382.0</ele><time>2026-05-01T15:23:30.673Z</time></trkpt><trkpt lat="40.93429" lon="9.34079"><ele>381.75</ele><time>2026-05-01T15:23:31.673Z</time></trkpt><trkpt lat="40.9342633" lon="9.3409583"><ele>381.5</ele><time>2026-05-01T15:23:32.674Z</time></trkpt><trkpt lat="40.934245" lon="9.3411183"><ele>381.25</ele><time>2026-05-01T15:23:33.673Z</time></trkpt><trkpt lat="40.9342483" lon="9.3412867"><ele>381.0</ele><time>2026-05-01T15:23:34.673Z</time></trkpt><trkpt lat="40.934265" lon="9.3414633"><ele>380.5</ele><time>2026-05-01T15:23:35.673Z</time></trkpt><trkpt lat="40.9342917" lon="9.3416367"><ele>380.0</ele><time>2026-05-01T15:23:36.672Z</time></trkpt><trkpt lat="40.93432" lon="9.3418083"><ele>379.5</ele><time>2026-05-01T15:23:37.673Z</time></trkpt><trkpt lat="40.9343467" lon="9.34197"><ele>379.0</ele><time>2026-05-01T15:23:38.673Z</time></trkpt><trkpt lat="40.9343717" lon="9.3421467"><ele>378.75</ele><time>2026-05-01T15:23:39.673Z</time></trkpt><trkpt lat="40.934395" lon="9.34234"><ele>378.5</ele><time>2026-05-01T15:23:40.673Z</time></trkpt><trkpt lat="40.93442" lon="9.34253"><ele>378.25</ele><time>2026-05-01T15:23:41.674Z</time></trkpt><trkpt lat="40.93444" lon="9.3427267"><ele>378.0</ele><time>2026-05-01T15:23:42.673Z</time></trkpt><trkpt lat="40.9344683" lon="9.34291"><ele>378.75</ele><time>2026-05-01T15:23:43.673Z</time></trkpt><trkpt lat="40.9345" lon="9.3430817"><ele>379.5</ele><time>2026-05-01T15:23:44.673Z</time></trkpt><trkpt lat="40.934545" lon="9.3432367"><ele>380.25</ele><time>2026-05-01T15:23:45.673Z</time></trkpt><trkpt lat="40.9346083" lon="9.3433967"><ele>381.0</ele><time>2026-05-01T15:23:46.673Z</time></trkpt><trkpt lat="40.93466" lon="9.3435517"><ele>381.0</ele><time>2026-05-01T15:23:47.673Z</time></trkpt><trkpt lat="40.9347333" lon="9.343725"><ele>381.0</ele><time>2026-05-01T15:23:48.674Z</time></trkpt><trkpt lat="40.9347983" lon="9.3438983"><ele>381.0</ele><time>2026-05-01T15:23:49.673Z</time></trkpt><trkpt lat="40.9348517" lon="9.3440833"><ele>381.0</ele><time>2026-05-01T15:23:50.673Z</time></trkpt><trkpt lat="40.9348917" lon="9.3442683"><ele>381.6666666666667</ele><time>2026-05-01T15:23:51.673Z</time></trkpt><trkpt lat="40.93491" lon="9.3444567"><ele>382.33333333333337</ele><time>2026-05-01T15:23:52.674Z</time></trkpt><trkpt lat="40.9349333" lon="9.344655"><ele>383.0</ele><time>2026-05-01T15:23:53.673Z</time></trkpt><trkpt lat="40.934925" lon="9.3448733"><ele>383.5</ele><time>2026-05-01T15:23:54.673Z</time></trkpt><trkpt lat="40.9349533" lon="9.3450767"><ele>384.0</ele><time>2026-05-01T15:23:55.673Z</time></trkpt><trkpt lat="40.9349617" lon="9.3452733"><ele>384.5</ele><time>2026-05-01T15:23:56.673Z</time></trkpt><trkpt lat="40.93499" lon="9.3454417"><ele>385.0</ele><time>2026-05-01T15:23:57.673Z</time></trkpt><trkpt lat="40.935025" lon="9.34559"><ele>384.83333333333337</ele><time>2026-05-01T15:23:58.673Z</time></trkpt><trkpt lat="40.93508" lon="9.345705"><ele>384.6666666666667</ele><time>2026-05-01T15:23:59.673Z</time></trkpt><trkpt lat="40.935125" lon="9.3457683"><ele>384.5</ele><time>2026-05-01T15:24:00.673Z</time></trkpt><trkpt lat="40.9351717" lon="9.3458417"><ele>384.33333333333337</ele><time>2026-05-01T15:24:01.673Z</time></trkpt><trkpt lat="40.935235" lon="9.3458967"><ele>384.1666666666667</ele><time>2026-05-01T15:24:02.674Z</time></trkpt><trkpt lat="40.9353133" lon="9.3459367"><ele>384.0</ele><time>2026-05-01T15:24:03.673Z</time></trkpt><trkpt lat="40.9353767" lon="9.3459867"><ele>384.0</ele><time>2026-05-01T15:24:04.673Z</time></trkpt><trkpt lat="40.93542" lon="9.3460583"><ele>384.0</ele><time>2026-05-01T15:24:05.673Z</time></trkpt><trkpt lat="40.9354517" lon="9.34622"><ele>384.0</ele><time>2026-05-01T15:24:06.673Z</time></trkpt><trkpt lat="40.93548" lon="9.346325"><ele>384.0</ele><time>2026-05-01T15:24:07.673Z</time></trkpt><trkpt lat="40.935515" lon="9.3464283"><ele>384.0</ele><time>2026-05-01T15:24:08.673Z</time></trkpt><trkpt lat="40.9355733" lon="9.34653"><ele>383.75</ele><time>2026-05-01T15:24:09.673Z</time></trkpt><trkpt lat="40.93567" lon="9.3466083"><ele>383.5</ele><time>2026-05-01T15:24:10.673Z</time></trkpt><trkpt lat="40.9357583" lon="9.3467017"><ele>383.25</ele><time>2026-05-01T15:24:11.673Z</time></trkpt><trkpt lat="40.935855" lon="9.3468183"><ele>383.0</ele><time>2026-05-01T15:24:12.673Z</time></trkpt><trkpt lat="40.935965" lon="9.3469333"><ele>383.0</ele><time>2026-05-01T15:24:13.673Z</time></trkpt><trkpt lat="40.9360867" lon="9.34705"><ele>383.0</ele><time>2026-05-01T15:24:14.673Z</time></trkpt><trkpt lat="40.936205" lon="9.34717"><ele>383.0</ele><time>2026-05-01T15:24:15.673Z</time></trkpt><trkpt lat="40.9363533" lon="9.3472667"><ele>384.0</ele><time>2026-05-01T15:24:16.673Z</time></trkpt><trkpt lat="40.93649" lon="9.34738"><ele>385.0</ele><time>2026-05-01T15:24:17.673Z</time></trkpt><trkpt lat="40.9366183" lon="9.3474933"><ele>386.0</ele><time>2026-05-01T15:24:18.673Z</time></trkpt><trkpt lat="40.9367583" lon="9.3476267"><ele>386.0</ele><time>2026-05-01T15:24:19.673Z</time></trkpt><trkpt lat="40.9368983" lon="9.3477517"><ele>386.0</ele><time>2026-05-01T15:24:20.673Z</time></trkpt><trkpt lat="40.9370367" lon="9.3478817"><ele>386.0</ele><time>2026-05-01T15:24:21.673Z</time></trkpt><trkpt lat="40.9371783" lon="9.34802"><ele>385.66666666666663</ele><time>2026-05-01T15:24:22.673Z</time></trkpt><trkpt lat="40.93732" lon="9.3481367"><ele>385.33333333333337</ele><time>2026-05-01T15:24:23.673Z</time></trkpt><trkpt lat="40.937445" lon="9.3482517"><ele>385.0</ele><time>2026-05-01T15:24:24.673Z</time></trkpt><trkpt lat="40.9375533" lon="9.3483533"><ele>386.5</ele><time>2026-05-01T15:24:25.674Z</time></trkpt><trkpt lat="40.9376717" lon="9.3484367"><ele>388.0</ele><time>2026-05-01T15:24:26.673Z</time></trkpt><trkpt lat="40.93778" lon="9.348505"><ele>389.5</ele><time>2026-05-01T15:24:27.673Z</time></trkpt><trkpt lat="40.937875" lon="9.3485683"><ele>391.0</ele><time>2026-05-01T15:24:28.673Z</time></trkpt><trkpt lat="40.9379883" lon="9.3486217"><ele>391.0</ele><time>2026-05-01T15:24:29.673Z</time></trkpt><trkpt lat="40.9381083" lon="9.3486983"><ele>391.0</ele><time>2026-05-01T15:24:30.673Z</time></trkpt><trkpt lat="40.9382433" lon="9.34879"><ele>391.0</ele><time>2026-05-01T15:24:31.673Z</time></trkpt><trkpt lat="40.938385" lon="9.3488683"><ele>391.0</ele><time>2026-05-01T15:24:32.673Z</time></trkpt><trkpt lat="40.93852" lon="9.3489467"><ele>392.5</ele><time>2026-05-01T15:24:33.673Z</time></trkpt><trkpt lat="40.93866" lon="9.3490233"><ele>394.0</ele><time>2026-05-01T15:24:34.673Z</time></trkpt><trkpt lat="40.938785" lon="9.3491067"><ele>395.5</ele><time>2026-05-01T15:24:35.673Z</time></trkpt><trkpt lat="40.938885" lon="9.3491967"><ele>397.0</ele><time>2026-05-01T15:24:36.673Z</time></trkpt><trkpt lat="40.9390067" lon="9.3492733"><ele>397.0</ele><time>2026-05-01T15:24:37.673Z</time></trkpt><trkpt lat="40.9391283" lon="9.34934"><ele>397.0</ele><time>2026-05-01T15:24:38.673Z</time></trkpt><trkpt lat="40.93926" lon="9.3494133"><ele>397.0</ele><time>2026-05-01T15:24:39.673Z</time></trkpt><trkpt lat="40.9394033" lon="9.34949"><ele>397.0</ele><time>2026-05-01T15:24:40.673Z</time></trkpt><trkpt lat="40.9395433" lon="9.3495633"><ele>399.0</ele><time>2026-05-01T15:24:41.673Z</time></trkpt><trkpt lat="40.9396583" lon="9.3496017"><ele>401.0</ele><time>2026-05-01T15:24:42.673Z</time></trkpt><trkpt lat="40.939755" lon="9.349645"><ele>403.0</ele><time>2026-05-01T15:24:43.673Z</time></trkpt><trkpt lat="40.9398433" lon="9.349665"><ele>405.0</ele><time>2026-05-01T15:24:44.674Z</time></trkpt><trkpt lat="40.9399183" lon="9.3497383"><ele>407.0</ele><time>2026-05-01T15:24:45.673Z</time></trkpt><trkpt lat="40.9399833" lon="9.34982"><ele>406.99999999999994</ele><time>2026-05-01T15:24:46.673Z</time></trkpt><trkpt lat="40.940045" lon="9.3498967"><ele>407.0</ele><time>2026-05-01T15:24:47.673Z</time></trkpt><trkpt lat="40.9400983" lon="9.3499767"><ele>407.0</ele><time>2026-05-01T15:24:48.673Z</time></trkpt><trkpt lat="40.94014" lon="9.3500567"><ele>407.0</ele><time>2026-05-01T15:24:49.673Z</time></trkpt><trkpt lat="40.94018" lon="9.3501367"><ele>406.99999999999994</ele><time>2026-05-01T15:24:50.673Z</time></trkpt><trkpt lat="40.9402333" lon="9.3502117"><ele>407.0</ele><time>2026-05-01T15:24:51.673Z</time></trkpt><trkpt lat="40.940295" lon="9.350265"><ele>408.5</ele><time>2026-05-01T15:24:52.673Z</time></trkpt><trkpt lat="40.9403867" lon="9.350295"><ele>410.0</ele><time>2026-05-01T15:24:53.673Z</time></trkpt><trkpt lat="40.9404933" lon="9.3503483"><ele>411.5</ele><time>2026-05-01T15:24:54.673Z</time></trkpt><trkpt lat="40.9406167" lon="9.3503683"><ele>413.0</ele><time>2026-05-01T15:24:55.673Z</time></trkpt><trkpt lat="40.940755" lon="9.35037"><ele>415.5</ele><time>2026-05-01T15:24:56.673Z</time></trkpt><trkpt lat="40.9409" lon="9.3503667"><ele>418.0</ele><time>2026-05-01T15:24:57.673Z</time></trkpt><trkpt lat="40.9410467" lon="9.3503283"><ele>420.5</ele><time>2026-05-01T15:24:58.673Z</time></trkpt><trkpt lat="40.94116" lon="9.35033"><ele>423.0</ele><time>2026-05-01T15:24:59.673Z</time></trkpt><trkpt lat="40.9412967" lon="9.3503133"><ele>423.0</ele><time>2026-05-01T15:25:00.673Z</time></trkpt><trkpt lat="40.9414117" lon="9.3503183"><ele>423.0</ele><time>2026-05-01T15:25:01.673Z</time></trkpt><trkpt lat="40.941515" lon="9.35034"><ele>423.0</ele><time>2026-05-01T15:25:02.673Z</time></trkpt><trkpt lat="40.9416017" lon="9.3503733"><ele>423.0</ele><time>2026-05-01T15:25:03.673Z</time></trkpt><trkpt lat="40.9416867" lon="9.3504233"><ele>423.0</ele><time>2026-05-01T15:25:04.673Z</time></trkpt><trkpt lat="40.9417733" lon="9.3504883"><ele>423.79999999999995</ele><time>2026-05-01T15:25:05.673Z</time></trkpt><trkpt lat="40.941865" lon="9.350565"><ele>424.6</ele><time>2026-05-01T15:25:06.673Z</time></trkpt><trkpt lat="40.9419567" lon="9.3506367"><ele>425.40000000000003</ele><time>2026-05-01T15:25:07.673Z</time></trkpt><trkpt lat="40.9420367" lon="9.3507033"><ele>426.20000000000005</ele><time>2026-05-01T15:25:08.673Z</time></trkpt><trkpt lat="40.9421183" lon="9.3507767"><ele>427.0</ele><time>2026-05-01T15:25:09.673Z</time></trkpt><trkpt lat="40.9422017" lon="9.3508467"><ele>427.0</ele><time>2026-05-01T15:25:10.673Z</time></trkpt><trkpt lat="40.9422917" lon="9.3508983"><ele>427.00000000000006</ele><time>2026-05-01T15:25:11.673Z</time></trkpt><trkpt lat="40.94239" lon="9.350945"><ele>427.00000000000006</ele><time>2026-05-01T15:25:12.673Z</time></trkpt><trkpt lat="40.9424917" lon="9.350975"><ele>427.0</ele><time>2026-05-01T15:25:13.673Z</time></trkpt><trkpt lat="40.9426" lon="9.3510133"><ele>427.0</ele><time>2026-05-01T15:25:14.673Z</time></trkpt><trkpt lat="40.9427017" lon="9.351065"><ele>428.20000000000005</ele><time>2026-05-01T15:25:15.673Z</time></trkpt><trkpt lat="40.9428" lon="9.351115"><ele>429.40000000000003</ele><time>2026-05-01T15:25:16.673Z</time></trkpt><trkpt lat="40.942895" lon="9.3511483"><ele>430.59999999999997</ele><time>2026-05-01T15:25:17.673Z</time></trkpt><trkpt lat="40.94299" lon="9.3511917"><ele>431.79999999999995</ele><time>2026-05-01T15:25:18.673Z</time></trkpt><trkpt lat="40.9430917" lon="9.3512067"><ele>433.0</ele><time>2026-05-01T15:25:19.673Z</time></trkpt><trkpt lat="40.9431967" lon="9.351225"><ele>433.0</ele><time>2026-05-01T15:25:20.673Z</time></trkpt><trkpt lat="40.9433017" lon="9.3512583"><ele>432.99999999999994</ele><time>2026-05-01T15:25:21.673Z</time></trkpt><trkpt lat="40.9434017" lon="9.35128"><ele>432.99999999999994</ele><time>2026-05-01T15:25:22.673Z</time></trkpt><trkpt lat="40.9434883" lon="9.35131"><ele>433.0</ele><time>2026-05-01T15:25:23.673Z</time></trkpt><trkpt lat="40.9435633" lon="9.3513583"><ele>433.0</ele><time>2026-05-01T15:25:24.673Z</time></trkpt><trkpt lat="40.943645" lon="9.35141"><ele>432.59999999999997</ele><time>2026-05-01T15:25:25.673Z</time></trkpt><trkpt lat="40.943725" lon="9.35146"><ele>432.19999999999993</ele><time>2026-05-01T15:25:26.673Z</time></trkpt><trkpt lat="40.9437983" lon="9.35152"><ele>431.8</ele><time>2026-05-01T15:25:27.673Z</time></trkpt><trkpt lat="40.9438217" lon="9.3516167"><ele>431.4</ele><time>2026-05-01T15:25:28.673Z</time></trkpt><trkpt lat="40.9438683" lon="9.3517417"><ele>431.0</ele><time>2026-05-01T15:25:29.673Z</time></trkpt><trkpt lat="40.9439617" lon="9.3518067"><ele>431.0</ele><time>2026-05-01T15:25:30.673Z</time></trkpt><trkpt lat="40.9440517" lon="9.3518667"><ele>431.0</ele><time>2026-05-01T15:25:31.673Z</time></trkpt><trkpt lat="40.9441417" lon="9.3519483"><ele>431.0</ele><time>2026-05-01T15:25:32.673Z</time></trkpt><trkpt lat="40.9442333" lon="9.3520117"><ele>431.0</ele><time>2026-05-01T15:25:33.673Z</time></trkpt><trkpt lat="40.94434" lon="9.35208"><ele>431.0</ele><time>2026-05-01T15:25:34.673Z</time></trkpt><trkpt lat="40.9444033" lon="9.3521717"><ele>431.5</ele><time>2026-05-01T15:25:35.673Z</time></trkpt><trkpt lat="40.94445" lon="9.3523017"><ele>432.0</ele><time>2026-05-01T15:25:36.673Z</time></trkpt><trkpt lat="40.9445333" lon="9.3523917"><ele>432.5</ele><time>2026-05-01T15:25:37.673Z</time></trkpt><trkpt lat="40.9446317" lon="9.3524733"><ele>433.0</ele><time>2026-05-01T15:25:38.673Z</time></trkpt><trkpt lat="40.9447183" lon="9.3525833"><ele>433.0</ele><time>2026-05-01T15:25:39.674Z</time></trkpt><trkpt lat="40.9448167" lon="9.3526767"><ele>433.0</ele><time>2026-05-01T15:25:40.673Z</time></trkpt><trkpt lat="40.9449083" lon="9.352795"><ele>433.0</ele><time>2026-05-01T15:25:41.674Z</time></trkpt><trkpt lat="40.9450083" lon="9.3529067"><ele>433.0</ele><time>2026-05-01T15:25:42.673Z</time></trkpt><trkpt lat="40.94511" lon="9.3530383"><ele>434.25</ele><time>2026-05-01T15:25:43.673Z</time></trkpt><trkpt lat="40.94521" lon="9.35317"><ele>435.5</ele><time>2026-05-01T15:25:44.673Z</time></trkpt><trkpt lat="40.9453083" lon="9.3532967"><ele>436.75</ele><time>2026-05-01T15:25:45.673Z</time></trkpt><trkpt lat="40.945415" lon="9.35341"><ele>438.0</ele><time>2026-05-01T15:25:46.673Z</time></trkpt><trkpt lat="40.9455167" lon="9.353535"><ele>438.0</ele><time>2026-05-01T15:25:47.673Z</time></trkpt><trkpt lat="40.9456167" lon="9.3536667"><ele>438.0</ele><time>2026-05-01T15:25:48.673Z</time></trkpt><trkpt lat="40.945715" lon="9.3537917"><ele>438.0</ele><time>2026-05-01T15:25:49.673Z</time></trkpt><trkpt lat="40.9458017" lon="9.3539117"><ele>438.0</ele><time>2026-05-01T15:25:50.673Z</time></trkpt><trkpt lat="40.945875" lon="9.354045"><ele>440.25</ele><time>2026-05-01T15:25:51.673Z</time></trkpt><trkpt lat="40.945945" lon="9.3541867"><ele>442.5</ele><time>2026-05-01T15:25:52.673Z</time></trkpt><trkpt lat="40.94603" lon="9.35431"><ele>444.75</ele><time>2026-05-01T15:25:53.673Z</time></trkpt><trkpt lat="40.9460883" lon="9.3544467"><ele>447.0</ele><time>2026-05-01T15:25:54.674Z</time></trkpt><trkpt lat="40.9461383" lon="9.3545933"><ele>445.8333333333333</ele><time>2026-05-01T15:25:55.674Z</time></trkpt><trkpt lat="40.9461767" lon="9.3547183"><ele>444.66666666666663</ele><time>2026-05-01T15:25:56.673Z</time></trkpt><trkpt lat="40.94622" lon="9.3548167"><ele>443.5</ele><time>2026-05-01T15:25:57.673Z</time></trkpt><trkpt lat="40.9462483" lon="9.3549017"><ele>442.3333333333333</ele><time>2026-05-01T15:25:58.673Z</time></trkpt><trkpt lat="40.9462567" lon="9.354995"><ele>441.16666666666663</ele><time>2026-05-01T15:26:00.673Z</time></trkpt><trkpt lat="40.9463283" lon="9.3550917"><ele>440.0</ele><time>2026-05-01T15:26:03.673Z</time></trkpt><trkpt lat="40.9464183" lon="9.3551817"><ele>440.0</ele><time>2026-05-01T15:26:05.673Z</time></trkpt><trkpt lat="40.9464867" lon="9.35532"><ele>440.0</ele><time>2026-05-01T15:26:07.673Z</time></trkpt><trkpt lat="40.94652" lon="9.3554117"><ele>440.0</ele><time>2026-05-01T15:26:08.673Z</time></trkpt><trkpt lat="40.9465617" lon="9.3555117"><ele>440.0</ele><time>2026-05-01T15:26:09.673Z</time></trkpt><trkpt lat="40.9466067" lon="9.3556183"><ele>440.0</ele><time>2026-05-01T15:26:10.673Z</time></trkpt><trkpt lat="40.946655" lon="9.3557283"><ele>439.6</ele><time>2026-05-01T15:26:11.673Z</time></trkpt><trkpt lat="40.946705" lon="9.3558383"><ele>439.2</ele><time>2026-05-01T15:26:12.673Z</time></trkpt><trkpt lat="40.9467483" lon="9.3559483"><ele>438.79999999999995</ele><time>2026-05-01T15:26:13.673Z</time></trkpt><trkpt lat="40.9467917" lon="9.3560667"><ele>438.4</ele><time>2026-05-01T15:26:14.673Z</time></trkpt><trkpt lat="40.9468383" lon="9.3561933"><ele>438.0</ele><time>2026-05-01T15:26:15.673Z</time></trkpt><trkpt lat="40.94688" lon="9.3563083"><ele>434.0</ele><time>2026-05-01T15:26:16.673Z</time></trkpt><trkpt lat="40.9469383" lon="9.3564033"><ele>429.99999999999994</ele><time>2026-05-01T15:26:17.673Z</time></trkpt><trkpt lat="40.9470117" lon="9.3565017"><ele>426.0</ele><time>2026-05-01T15:26:18.673Z</time></trkpt><trkpt lat="40.947095" lon="9.3565967"><ele>422.0</ele><time>2026-05-01T15:26:19.673Z</time></trkpt><trkpt lat="40.9471783" lon="9.3566933"><ele>418.0</ele><time>2026-05-01T15:26:20.673Z</time></trkpt><trkpt lat="40.9472583" lon="9.3568033"><ele>418.0</ele><time>2026-05-01T15:26:21.673Z</time></trkpt><trkpt lat="40.9473333" lon="9.356925"><ele>418.0</ele><time>2026-05-01T15:26:22.673Z</time></trkpt><trkpt lat="40.947415" lon="9.3570317"><ele>418.0</ele><time>2026-05-01T15:26:23.673Z</time></trkpt><trkpt lat="40.9474967" lon="9.357135"><ele>418.0</ele><time>2026-05-01T15:26:24.673Z</time></trkpt><trkpt lat="40.94758" lon="9.3572367"><ele>416.59999999999997</ele><time>2026-05-01T15:26:25.673Z</time></trkpt><trkpt lat="40.947645" lon="9.3573367"><ele>415.2</ele><time>2026-05-01T15:26:26.673Z</time></trkpt><trkpt lat="40.947705" lon="9.3574433"><ele>413.8</ele><time>2026-05-01T15:26:27.673Z</time></trkpt><trkpt lat="40.9477667" lon="9.3575383"><ele>412.4</ele><time>2026-05-01T15:26:28.673Z</time></trkpt><trkpt lat="40.94782" lon="9.357625"><ele>411.0</ele><time>2026-05-01T15:26:29.673Z</time></trkpt><trkpt lat="40.94789" lon="9.3577167"><ele>411.0</ele><time>2026-05-01T15:26:30.673Z</time></trkpt><trkpt lat="40.947955" lon="9.35778"><ele>411.0</ele><time>2026-05-01T15:26:31.674Z</time></trkpt><trkpt lat="40.9480183" lon="9.35783"><ele>411.0</ele><time>2026-05-01T15:26:32.673Z</time></trkpt><trkpt lat="40.9480817" lon="9.3578567"><ele>411.0</ele><time>2026-05-01T15:26:33.673Z</time></trkpt><trkpt lat="40.9481483" lon="9.3578867"><ele>411.0</ele><time>2026-05-01T15:26:34.673Z</time></trkpt><trkpt lat="40.9482167" lon="9.3579367"><ele>411.0</ele><time>2026-05-01T15:26:35.673Z</time></trkpt><trkpt lat="40.94829" lon="9.3580133"><ele>410.4</ele><time>2026-05-01T15:26:36.673Z</time></trkpt><trkpt lat="40.94837" lon="9.3581033"><ele>409.8</ele><time>2026-05-01T15:26:37.673Z</time></trkpt><trkpt lat="40.9484683" lon="9.3581983"><ele>409.2</ele><time>2026-05-01T15:26:38.673Z</time></trkpt><trkpt lat="40.9485583" lon="9.3582733"><ele>408.59999999999997</ele><time>2026-05-01T15:26:39.673Z</time></trkpt><trkpt lat="40.9486533" lon="9.3583383"><ele>408.0</ele><time>2026-05-01T15:26:40.673Z</time></trkpt><trkpt lat="40.948725" lon="9.3583867"><ele>408.0</ele><time>2026-05-01T15:26:41.673Z</time></trkpt><trkpt lat="40.9487933" lon="9.3584517"><ele>408.0</ele><time>2026-05-01T15:26:42.673Z</time></trkpt><trkpt lat="40.94887" lon="9.3585433"><ele>408.0</ele><time>2026-05-01T15:26:43.673Z</time></trkpt><trkpt lat="40.9489467" lon="9.3586433"><ele>408.0</ele><time>2026-05-01T15:26:44.673Z</time></trkpt><trkpt lat="40.9490183" lon="9.3587517"><ele>408.0</ele><time>2026-05-01T15:26:45.673Z</time></trkpt><trkpt lat="40.9490883" lon="9.35885"><ele>406.59999999999997</ele><time>2026-05-01T15:26:46.673Z</time></trkpt><trkpt lat="40.9491583" lon="9.3589667"><ele>405.2</ele><time>2026-05-01T15:26:47.673Z</time></trkpt><trkpt lat="40.9492167" lon="9.359075"><ele>403.8</ele><time>2026-05-01T15:26:48.673Z</time></trkpt><trkpt lat="40.9492633" lon="9.35921"><ele>402.4</ele><time>2026-05-01T15:26:49.672Z</time></trkpt><trkpt lat="40.9493183" lon="9.3593367"><ele>401.0</ele><time>2026-05-01T15:26:50.672Z</time></trkpt><trkpt lat="40.949355" lon="9.3594833"><ele>400.99999999999994</ele><time>2026-05-01T15:26:51.672Z</time></trkpt><trkpt lat="40.949395" lon="9.3596067"><ele>401.0</ele><time>2026-05-01T15:26:52.672Z</time></trkpt><trkpt lat="40.9494133" lon="9.3597283"><ele>401.0</ele><time>2026-05-01T15:26:53.672Z</time></trkpt><trkpt lat="40.9494317" lon="9.3598417"><ele>401.0</ele><time>2026-05-01T15:26:54.672Z</time></trkpt><trkpt lat="40.9494583" lon="9.3599483"><ele>400.99999999999994</ele><time>2026-05-01T15:26:55.672Z</time></trkpt><trkpt lat="40.94947" lon="9.3600517"><ele>401.0</ele><time>2026-05-01T15:26:56.672Z</time></trkpt><trkpt lat="40.949495" lon="9.3601367"><ele>403.49999999999994</ele><time>2026-05-01T15:26:57.672Z</time></trkpt><trkpt lat="40.949535" lon="9.360245"><ele>406.0</ele><time>2026-05-01T15:26:59.672Z</time></trkpt><trkpt lat="40.9495783" lon="9.3603217"><ele>408.5</ele><time>2026-05-01T15:27:01.672Z</time></trkpt><trkpt lat="40.9496217" lon="9.3603983"><ele>411.0</ele><time>2026-05-01T15:27:03.672Z</time></trkpt><trkpt lat="40.949655" lon="9.3605233"><ele>413.49999999999994</ele><time>2026-05-01T15:27:05.672Z</time></trkpt><trkpt lat="40.94967" lon="9.3606083"><ele>416.0</ele><time>2026-05-01T15:27:06.672Z</time></trkpt><trkpt lat="40.9497" lon="9.3606867"><ele>417.6</ele><time>2026-05-01T15:27:07.672Z</time></trkpt><trkpt lat="40.94969" lon="9.360825"><ele>419.20000000000005</ele><time>2026-05-01T15:27:09.672Z</time></trkpt><trkpt lat="40.9496817" lon="9.3609283"><ele>420.79999999999995</ele><time>2026-05-01T15:27:11.672Z</time></trkpt><trkpt lat="40.9495783" lon="9.3610633"><ele>422.4</ele><time>2026-05-01T15:27:20.672Z</time></trkpt><trkpt lat="40.9494817" lon="9.361035"><ele>424.0</ele><time>2026-05-01T15:28:28.672Z</time></trkpt><trkpt lat="40.9494317" lon="9.360915"><ele>424.0</ele><time>2026-05-01T15:35:28.672Z</time></trkpt><trkpt lat="40.9493817" lon="9.3608567"><ele>424.0</ele><time>2026-05-01T15:35:29.672Z</time></trkpt><trkpt lat="40.9493233" lon="9.3608017"><ele>424.0</ele><time>2026-05-01T15:35:30.672Z</time></trkpt><trkpt lat="40.9492567" lon="9.360735"><ele>424.0</ele><time>2026-05-01T15:35:31.672Z</time></trkpt><trkpt lat="40.949205" lon="9.3606833"><ele>424.0</ele><time>2026-05-01T15:35:32.672Z</time></trkpt><trkpt lat="40.9491467" lon="9.36062"><ele>424.0</ele><time>2026-05-01T15:35:33.672Z</time></trkpt><trkpt lat="40.94909" lon="9.3605617"><ele>424.0</ele><time>2026-05-01T15:35:34.672Z</time></trkpt><trkpt lat="40.9490417" lon="9.3605033"><ele>426.8571428571429</ele><time>2026-05-01T15:35:35.672Z</time></trkpt><trkpt lat="40.948985" lon="9.3604383"><ele>429.71428571428567</ele><time>2026-05-01T15:35:36.672Z</time></trkpt><trkpt lat="40.94894" lon="9.36037"><ele>432.57142857142856</ele><time>2026-05-01T15:35:37.672Z</time></trkpt><trkpt lat="40.9489" lon="9.3602967"><ele>435.42857142857144</ele><time>2026-05-01T15:35:38.672Z</time></trkpt><trkpt lat="40.94886" lon="9.3602283"><ele>438.28571428571433</ele><time>2026-05-01T15:35:39.672Z</time></trkpt><trkpt lat="40.9488167" lon="9.360155"><ele>441.1428571428571</ele><time>2026-05-01T15:35:40.672Z</time></trkpt><trkpt lat="40.9487667" lon="9.3600817"><ele>444.0</ele><time>2026-05-01T15:35:41.672Z</time></trkpt><trkpt lat="40.9487317" lon="9.3600083"><ele>444.0</ele><time>2026-05-01T15:35:42.672Z</time></trkpt><trkpt lat="40.948685" lon="9.3599233"><ele>444.0</ele><time>2026-05-01T15:35:45.672Z</time></trkpt><trkpt lat="40.9486217" lon="9.3598583"><ele>444.0</ele><time>2026-05-01T15:35:49.672Z</time></trkpt><trkpt lat="40.9485317" lon="9.359835"><ele>444.0</ele><time>2026-05-01T15:35:51.672Z</time></trkpt><trkpt lat="40.9484483" lon="9.359885"><ele>444.0</ele><time>2026-05-01T15:35:53.672Z</time></trkpt><trkpt lat="40.948405" lon="9.359965"><ele>444.0</ele><time>2026-05-01T15:35:55.672Z</time></trkpt><trkpt lat="40.948435" lon="9.3601117"><ele>444.0</ele><time>2026-05-01T15:35:57.672Z</time></trkpt><trkpt lat="40.9485133" lon="9.3602583"><ele>444.0</ele><time>2026-05-01T15:35:59.672Z</time></trkpt><trkpt lat="40.9485767" lon="9.3603617"><ele>444.0</ele><time>2026-05-01T15:36:01.672Z</time></trkpt><trkpt lat="40.9486117" lon="9.360435"><ele>444.0</ele><time>2026-05-01T15:36:02.672Z</time></trkpt><trkpt lat="40.9486267" lon="9.36056"><ele>444.0</ele><time>2026-05-01T15:36:04.672Z</time></trkpt><trkpt lat="40.94859" lon="9.3606317"><ele>444.0</ele><time>2026-05-01T15:36:08.672Z</time></trkpt><trkpt lat="40.9485267" lon="9.3605367"><ele>444.0</ele><time>2026-05-01T15:36:10.672Z</time></trkpt><trkpt lat="40.9484367" lon="9.3604333"><ele>444.0</ele><time>2026-05-01T15:36:12.672Z</time></trkpt><trkpt lat="40.9483533" lon="9.36033"><ele>444.0</ele><time>2026-05-01T15:36:14.672Z</time></trkpt><trkpt lat="40.9482717" lon="9.3602383"><ele>444.0</ele><time>2026-05-01T15:36:16.672Z</time></trkpt><trkpt lat="40.9481817" lon="9.360135"><ele>445.6666666666667</ele><time>2026-05-01T15:36:18.672Z</time></trkpt><trkpt lat="40.9481383" lon="9.3600683"><ele>447.33333333333337</ele><time>2026-05-01T15:36:19.672Z</time></trkpt><trkpt lat="40.948055" lon="9.3599467"><ele>449.0</ele><time>2026-05-01T15:36:21.672Z</time></trkpt><trkpt lat="40.9479683" lon="9.3598367"><ele>450.6666666666667</ele><time>2026-05-01T15:36:23.672Z</time></trkpt><trkpt lat="40.94792" lon="9.3597783"><ele>452.33333333333337</ele><time>2026-05-01T15:36:24.672Z</time></trkpt><trkpt lat="40.947875" lon="9.3597183"><ele>454.0</ele><time>2026-05-01T15:36:25.672Z</time></trkpt><trkpt lat="40.9478017" lon="9.359635"><ele>454.0</ele><time>2026-05-01T15:36:27.672Z</time></trkpt><trkpt lat="40.9477317" lon="9.3596733"><ele>454.0</ele><time>2026-05-01T15:36:30.672Z</time></trkpt><trkpt lat="40.9476333" lon="9.3597833"><ele>454.0</ele><time>2026-05-01T15:36:43.672Z</time></trkpt><trkpt lat="40.9476767" lon="9.359855"><ele>454.0</ele><time>2026-05-01T15:37:13.672Z</time></trkpt><trkpt lat="40.9475967" lon="9.359925"><ele>454.0</ele><time>2026-05-01T15:37:29.672Z</time></trkpt><trkpt lat="40.9477317" lon="9.3596717"><ele>454.0</ele><time>2026-05-01T15:37:42.672Z</time></trkpt><trkpt lat="40.9478167" lon="9.3595867"><ele>454.0</ele><time>2026-05-01T15:37:51.672Z</time></trkpt><trkpt lat="40.947735" lon="9.3597117"><ele>454.0</ele><time>2026-05-01T15:38:42.672Z</time></trkpt><trkpt lat="40.9476367" lon="9.35982"><ele>454.0</ele><time>2026-05-01T15:38:54.672Z</time></trkpt><trkpt lat="40.9475517" lon="9.3598283"><ele>454.0</ele><time>2026-05-01T15:40:08.672Z</time></trkpt><trkpt lat="40.9475367" lon="9.3597383"><ele>457.33333333333337</ele><time>2026-05-01T15:40:11.673Z</time></trkpt><trkpt lat="40.9474483" lon="9.359645"><ele>460.6666666666667</ele><time>2026-05-01T15:40:13.672Z</time></trkpt><trkpt lat="40.9473883" lon="9.3595917"><ele>464.0</ele><time>2026-05-01T15:40:14.672Z</time></trkpt><trkpt lat="40.9473267" lon="9.3595167"><ele>467.33333333333337</ele><time>2026-05-01T15:40:15.672Z</time></trkpt><trkpt lat="40.9472567" lon="9.3594433"><ele>470.6666666666667</ele><time>2026-05-01T15:40:16.672Z</time></trkpt><trkpt lat="40.9471883" lon="9.359365"><ele>474.0</ele><time>2026-05-01T15:40:17.672Z</time></trkpt><trkpt lat="40.9471383" lon="9.35927"><ele>474.0</ele><time>2026-05-01T15:40:18.672Z</time></trkpt><trkpt lat="40.94707" lon="9.359225"><ele>474.0</ele><time>2026-05-01T15:40:19.672Z</time></trkpt><trkpt lat="40.9469867" lon="9.3591983"><ele>474.0</ele><time>2026-05-01T15:40:20.672Z</time></trkpt><trkpt lat="40.9469233" lon="9.3591333"><ele>474.0</ele><time>2026-05-01T15:40:21.673Z</time></trkpt><trkpt lat="40.94687" lon="9.3590817"><ele>474.0</ele><time>2026-05-01T15:40:22.672Z</time></trkpt><trkpt lat="40.9468067" lon="9.35902"><ele>474.0</ele><time>2026-05-01T15:40:23.672Z</time></trkpt><trkpt lat="40.9467433" lon="9.3589517"><ele>474.3333333333333</ele><time>2026-05-01T15:40:24.672Z</time></trkpt><trkpt lat="40.9466833" lon="9.3588817"><ele>474.66666666666663</ele><time>2026-05-01T15:40:25.672Z</time></trkpt><trkpt lat="40.9466183" lon="9.3588017"><ele>475.0</ele><time>2026-05-01T15:40:26.672Z</time></trkpt><trkpt lat="40.94653" lon="9.3586833"><ele>475.3333333333333</ele><time>2026-05-01T15:40:28.672Z</time></trkpt><trkpt lat="40.9464667" lon="9.3586233"><ele>475.66666666666663</ele><time>2026-05-01T15:40:29.672Z</time></trkpt><trkpt lat="40.9464133" lon="9.3585667"><ele>476.0</ele><time>2026-05-01T15:40:30.672Z</time></trkpt><trkpt lat="40.9463583" lon="9.3585217"><ele>476.0</ele><time>2026-05-01T15:40:31.672Z</time></trkpt><trkpt lat="40.946295" lon="9.35846"><ele>476.0</ele><time>2026-05-01T15:40:32.672Z</time></trkpt><trkpt lat="40.9461867" lon="9.3583433"><ele>476.0</ele><time>2026-05-01T15:40:34.672Z</time></trkpt><trkpt lat="40.9461283" lon="9.35827"><ele>476.0</ele><time>2026-05-01T15:40:35.672Z</time></trkpt><trkpt lat="40.946055" lon="9.3582017"><ele>476.0</ele><time>2026-05-01T15:40:36.672Z</time></trkpt><trkpt lat="40.9459783" lon="9.3581317"><ele>476.0</ele><time>2026-05-01T15:40:37.672Z</time></trkpt><trkpt lat="40.945885" lon="9.358055"><ele>476.0</ele><time>2026-05-01T15:40:38.672Z</time></trkpt><trkpt lat="40.945795" lon="9.3579833"><ele>476.0</ele><time>2026-05-01T15:40:39.672Z</time></trkpt><trkpt lat="40.9457083" lon="9.3579283"><ele>476.0</ele><time>2026-05-01T15:40:40.672Z</time></trkpt><trkpt lat="40.9456167" lon="9.35785"><ele>476.0</ele><time>2026-05-01T15:40:41.672Z</time></trkpt><trkpt lat="40.9455267" lon="9.3577683"><ele>476.20000000000005</ele><time>2026-05-01T15:40:42.672Z</time></trkpt><trkpt lat="40.9454383" lon="9.3576883"><ele>476.40000000000003</ele><time>2026-05-01T15:40:43.672Z</time></trkpt><trkpt lat="40.9453467" lon="9.3576133"><ele>476.6</ele><time>2026-05-01T15:40:44.672Z</time></trkpt><trkpt lat="40.9452533" lon="9.3575383"><ele>476.8</ele><time>2026-05-01T15:40:45.672Z</time></trkpt><trkpt lat="40.9451617" lon="9.3574667"><ele>477.0</ele><time>2026-05-01T15:40:46.672Z</time></trkpt><trkpt lat="40.945075" lon="9.35741"><ele>475.20000000000005</ele><time>2026-05-01T15:40:47.672Z</time></trkpt><trkpt lat="40.9449967" lon="9.3573483"><ele>473.40000000000003</ele><time>2026-05-01T15:40:48.672Z</time></trkpt><trkpt lat="40.94491" lon="9.357295"><ele>471.59999999999997</ele><time>2026-05-01T15:40:49.672Z</time></trkpt><trkpt lat="40.9448267" lon="9.357255"><ele>469.79999999999995</ele><time>2026-05-01T15:40:50.672Z</time></trkpt><trkpt lat="40.944735" lon="9.3572183"><ele>468.0</ele><time>2026-05-01T15:40:51.672Z</time></trkpt><trkpt lat="40.9446533" lon="9.3571817"><ele>468.0</ele><time>2026-05-01T15:40:52.672Z</time></trkpt><trkpt lat="40.944575" lon="9.3571617"><ele>468.0</ele><time>2026-05-01T15:40:53.672Z</time></trkpt><trkpt lat="40.9444933" lon="9.3571583"><ele>468.0</ele><time>2026-05-01T15:40:54.672Z</time></trkpt><trkpt lat="40.9444083" lon="9.3571817"><ele>468.0</ele><time>2026-05-01T15:40:55.672Z</time></trkpt><trkpt lat="40.9443183" lon="9.3572117"><ele>468.0</ele><time>2026-05-01T15:40:56.672Z</time></trkpt><trkpt lat="40.9442267" lon="9.3572467"><ele>468.0</ele><time>2026-05-01T15:40:57.672Z</time></trkpt><trkpt lat="40.94411" lon="9.3572883"><ele>472.0</ele><time>2026-05-01T15:40:58.672Z</time></trkpt><trkpt lat="40.9440033" lon="9.35734"><ele>476.0</ele><time>2026-05-01T15:40:59.672Z</time></trkpt><trkpt lat="40.943885" lon="9.3574217"><ele>480.0</ele><time>2026-05-01T15:41:00.672Z</time></trkpt><trkpt lat="40.9437817" lon="9.357525"><ele>484.0</ele><time>2026-05-01T15:41:01.672Z</time></trkpt><trkpt lat="40.9436617" lon="9.3576317"><ele>484.0</ele><time>2026-05-01T15:41:02.672Z</time></trkpt><trkpt lat="40.9435367" lon="9.3577333"><ele>484.0</ele><time>2026-05-01T15:41:03.672Z</time></trkpt><trkpt lat="40.943425" lon="9.3578217"><ele>484.0</ele><time>2026-05-01T15:41:04.672Z</time></trkpt><trkpt lat="40.9433533" lon="9.3579183"><ele>484.0</ele><time>2026-05-01T15:41:05.672Z</time></trkpt><trkpt lat="40.943275" lon="9.3580133"><ele>485.2</ele><time>2026-05-01T15:41:06.672Z</time></trkpt><trkpt lat="40.9431917" lon="9.3580767"><ele>486.4</ele><time>2026-05-01T15:41:07.672Z</time></trkpt><trkpt lat="40.9431217" lon="9.35816"><ele>487.6</ele><time>2026-05-01T15:41:08.672Z</time></trkpt><trkpt lat="40.9430567" lon="9.3582617"><ele>488.8</ele><time>2026-05-01T15:41:09.672Z</time></trkpt><trkpt lat="40.9430017" lon="9.3583833"><ele>490.0</ele><time>2026-05-01T15:41:10.672Z</time></trkpt><trkpt lat="40.94293" lon="9.35851"><ele>490.0</ele><time>2026-05-01T15:41:11.672Z</time></trkpt><trkpt lat="40.9428483" lon="9.3586217"><ele>490.0</ele><time>2026-05-01T15:41:12.672Z</time></trkpt><trkpt lat="40.9427867" lon="9.35875"><ele>490.0</ele><time>2026-05-01T15:41:13.672Z</time></trkpt><trkpt lat="40.942695" lon="9.3588517"><ele>490.0</ele><time>2026-05-01T15:41:14.672Z</time></trkpt><trkpt lat="40.9426633" lon="9.3589933"><ele>489.6</ele><time>2026-05-01T15:41:15.672Z</time></trkpt><trkpt lat="40.9426433" lon="9.359145"><ele>489.2</ele><time>2026-05-01T15:41:16.672Z</time></trkpt><trkpt lat="40.9426067" lon="9.359275"><ele>488.79999999999995</ele><time>2026-05-01T15:41:17.672Z</time></trkpt><trkpt lat="40.9425733" lon="9.3593933"><ele>488.4</ele><time>2026-05-01T15:41:18.673Z</time></trkpt><trkpt lat="40.9425417" lon="9.3594917"><ele>488.0</ele><time>2026-05-01T15:41:19.672Z</time></trkpt><trkpt lat="40.9425133" lon="9.3595867"><ele>488.59999999999997</ele><time>2026-05-01T15:41:20.672Z</time></trkpt><trkpt lat="40.94252" lon="9.35971"><ele>489.19999999999993</ele><time>2026-05-01T15:41:21.672Z</time></trkpt><trkpt lat="40.9425233" lon="9.3598217"><ele>489.8</ele><time>2026-05-01T15:41:22.672Z</time></trkpt><trkpt lat="40.94254" lon="9.3599467"><ele>490.4</ele><time>2026-05-01T15:41:23.672Z</time></trkpt><trkpt lat="40.94255" lon="9.3600783"><ele>491.0</ele><time>2026-05-01T15:41:24.672Z</time></trkpt><trkpt lat="40.9425667" lon="9.36022"><ele>494.99999999999994</ele><time>2026-05-01T15:41:25.672Z</time></trkpt><trkpt lat="40.9425683" lon="9.36035"><ele>499.0</ele><time>2026-05-01T15:41:26.672Z</time></trkpt><trkpt lat="40.9425717" lon="9.36047"><ele>503.0</ele><time>2026-05-01T15:41:27.672Z</time></trkpt><trkpt lat="40.942575" lon="9.3605967"><ele>507.0</ele><time>2026-05-01T15:41:28.672Z</time></trkpt><trkpt lat="40.942585" lon="9.3606983"><ele>510.99999999999994</ele><time>2026-05-01T15:41:29.672Z</time></trkpt><trkpt lat="40.9426" lon="9.3607933"><ele>515.0</ele><time>2026-05-01T15:41:30.672Z</time></trkpt><trkpt lat="40.942625" lon="9.3608867"><ele>515.8</ele><time>2026-05-01T15:41:31.672Z</time></trkpt><trkpt lat="40.94266" lon="9.3610567"><ele>516.6</ele><time>2026-05-01T15:41:33.672Z</time></trkpt><trkpt lat="40.9426683" lon="9.3611583"><ele>517.4</ele><time>2026-05-01T15:41:34.672Z</time></trkpt><trkpt lat="40.9426667" lon="9.36127"><ele>518.2</ele><time>2026-05-01T15:41:35.672Z</time></trkpt><trkpt lat="40.9426683" lon="9.3613917"><ele>519.0</ele><time>2026-05-01T15:41:36.672Z</time></trkpt><trkpt lat="40.9426783" lon="9.3615017"><ele>520.0</ele><time>2026-05-01T15:41:37.672Z</time></trkpt><trkpt lat="40.942705" lon="9.361615"><ele>521.0</ele><time>2026-05-01T15:41:38.672Z</time></trkpt><trkpt lat="40.942735" lon="9.3617117"><ele>522.0</ele><time>2026-05-01T15:41:39.672Z</time></trkpt><trkpt lat="40.9427733" lon="9.361815"><ele>523.0</ele><time>2026-05-01T15:41:40.672Z</time></trkpt><trkpt lat="40.942805" lon="9.3619283"><ele>524.0</ele><time>2026-05-01T15:41:41.672Z</time></trkpt><trkpt lat="40.9428917" lon="9.3620067"><ele>524.0</ele><time>2026-05-01T15:41:43.672Z</time></trkpt><trkpt lat="40.9429867" lon="9.36195"><ele>524.0</ele><time>2026-05-01T15:41:45.672Z</time></trkpt><trkpt lat="40.9430833" lon="9.3618267"><ele>524.0</ele><time>2026-05-01T15:41:47.672Z</time></trkpt><trkpt lat="40.9432" lon="9.361625"><ele>524.0</ele><time>2026-05-01T15:41:48.672Z</time></trkpt><trkpt lat="40.9432617" lon="9.361515"><ele>524.0</ele><time>2026-05-01T15:41:49.672Z</time></trkpt><trkpt lat="40.9433383" lon="9.36139"><ele>524.0</ele><time>2026-05-01T15:41:50.672Z</time></trkpt><trkpt lat="40.9434217" lon="9.3612283"><ele>524.0</ele><time>2026-05-01T15:41:51.672Z</time></trkpt><trkpt lat="40.9434833" lon="9.361145"><ele>524.0</ele><time>2026-05-01T15:41:52.672Z</time></trkpt><trkpt lat="40.9435433" lon="9.36107"><ele>524.0</ele><time>2026-05-01T15:41:53.672Z</time></trkpt><trkpt lat="40.9436017" lon="9.36113"><ele>530.0</ele><time>2026-05-01T15:41:55.672Z</time></trkpt><trkpt lat="40.9436267" lon="9.3612667"><ele>536.0</ele><time>2026-05-01T15:41:57.672Z</time></trkpt><trkpt lat="40.9436333" lon="9.3613583"><ele>542.0</ele><time>2026-05-01T15:41:58.672Z</time></trkpt><trkpt lat="40.94363" lon="9.36149"><ele>548.0</ele><time>2026-05-01T15:41:59.672Z</time></trkpt><trkpt lat="40.94359" lon="9.361655"><ele>554.0</ele><time>2026-05-01T15:42:00.672Z</time></trkpt><trkpt lat="40.943585" lon="9.3617617"><ele>555.0</ele><time>2026-05-01T15:42:01.672Z</time></trkpt><trkpt lat="40.9435867" lon="9.3618467"><ele>556.0</ele><time>2026-05-01T15:42:02.672Z</time></trkpt><trkpt lat="40.9435433" lon="9.3619933"><ele>557.0</ele><time>2026-05-01T15:42:04.672Z</time></trkpt><trkpt lat="40.9434767" lon="9.3620867"><ele>558.0</ele><time>2026-05-01T15:42:05.672Z</time></trkpt><trkpt lat="40.9434333" lon="9.3621667"><ele>559.0</ele><time>2026-05-01T15:42:06.672Z</time></trkpt><trkpt lat="40.9433583" lon="9.3623183"><ele>559.4</ele><time>2026-05-01T15:42:08.672Z</time></trkpt><trkpt lat="40.9433317" lon="9.3624167"><ele>559.8</ele><time>2026-05-01T15:42:09.672Z</time></trkpt><trkpt lat="40.94332" lon="9.362515"><ele>560.2</ele><time>2026-05-01T15:42:10.672Z</time></trkpt><trkpt lat="40.9433083" lon="9.3626717"><ele>560.6</ele><time>2026-05-01T15:42:12.672Z</time></trkpt><trkpt lat="40.9433583" lon="9.362785"><ele>561.0</ele><time>2026-05-01T15:42:14.672Z</time></trkpt><trkpt lat="40.9434467" lon="9.36282"><ele>561.0</ele><time>2026-05-01T15:42:15.672Z</time></trkpt><trkpt lat="40.943525" lon="9.3628933"><ele>561.0</ele><time>2026-05-01T15:42:16.672Z</time></trkpt><trkpt lat="40.9436083" lon="9.3629383"><ele>561.0</ele><time>2026-05-01T15:42:17.672Z</time></trkpt><trkpt lat="40.9437033" lon="9.363025"><ele>561.0</ele><time>2026-05-01T15:42:18.672Z</time></trkpt><trkpt lat="40.9437567" lon="9.3630817"><ele>561.0</ele><time>2026-05-01T15:42:19.672Z</time></trkpt><trkpt lat="40.943855" lon="9.3631667"><ele>561.0</ele><time>2026-05-01T15:42:21.672Z</time></trkpt><trkpt lat="40.9439317" lon="9.3632083"><ele>561.0</ele><time>2026-05-01T15:42:22.672Z</time></trkpt><trkpt lat="40.9440017" lon="9.3633017"><ele>561.0</ele><time>2026-05-01T15:42:23.672Z</time></trkpt><trkpt lat="40.9440767" lon="9.3633933"><ele>561.0</ele><time>2026-05-01T15:42:24.672Z</time></trkpt><trkpt lat="40.9441467" lon="9.3635267"><ele>561.0</ele><time>2026-05-01T15:42:25.672Z</time></trkpt><trkpt lat="40.9442133" lon="9.3636617"><ele>569.75</ele><time>2026-05-01T15:42:26.672Z</time></trkpt><trkpt lat="40.9442833" lon="9.3637967"><ele>578.5</ele><time>2026-05-01T15:42:27.672Z</time></trkpt><trkpt lat="40.9443517" lon="9.3639433"><ele>587.25</ele><time>2026-05-01T15:42:28.672Z</time></trkpt><trkpt lat="40.94441" lon="9.3640783"><ele>596.0</ele><time>2026-05-01T15:42:29.672Z</time></trkpt><trkpt lat="40.9444667" lon="9.3642167"><ele>597.0</ele><time>2026-05-01T15:42:30.672Z</time></trkpt><trkpt lat="40.9445133" lon="9.3643617"><ele>598.0</ele><time>2026-05-01T15:42:31.672Z</time></trkpt><trkpt lat="40.9445817" lon="9.3645"><ele>599.0</ele><time>2026-05-01T15:42:32.672Z</time></trkpt><trkpt lat="40.94465" lon="9.3646433"><ele>600.0</ele><time>2026-05-01T15:42:33.672Z</time></trkpt><trkpt lat="40.9447067" lon="9.36478"><ele>597.25</ele><time>2026-05-01T15:42:34.672Z</time></trkpt><trkpt lat="40.9447317" lon="9.3649183"><ele>594.5</ele><time>2026-05-01T15:42:35.672Z</time></trkpt><trkpt lat="40.944705" lon="9.36518"><ele>591.75</ele><time>2026-05-01T15:42:36.672Z</time></trkpt><trkpt lat="40.9447283" lon="9.3653367"><ele>589.0</ele><time>2026-05-01T15:42:37.672Z</time></trkpt><trkpt lat="40.94476" lon="9.3655033"><ele>585.5</ele><time>2026-05-01T15:42:38.672Z</time></trkpt><trkpt lat="40.9448067" lon="9.3656467"><ele>582.0</ele><time>2026-05-01T15:42:39.672Z</time></trkpt><trkpt lat="40.9448417" lon="9.3658283"><ele>578.5</ele><time>2026-05-01T15:42:40.672Z</time></trkpt><trkpt lat="40.9448933" lon="9.3659717"><ele>575.0</ele><time>2026-05-01T15:42:41.672Z</time></trkpt><trkpt lat="40.9449533" lon="9.3661"><ele>575.0</ele><time>2026-05-01T15:42:42.672Z</time></trkpt><trkpt lat="40.94502" lon="9.3662183"><ele>575.0</ele><time>2026-05-01T15:42:43.672Z</time></trkpt><trkpt lat="40.945085" lon="9.3663517"><ele>575.0</ele><time>2026-05-01T15:42:44.672Z</time></trkpt><trkpt lat="40.94516" lon="9.3664783"><ele>575.0</ele><time>2026-05-01T15:42:45.672Z</time></trkpt><trkpt lat="40.9452267" lon="9.3666167"><ele>578.8</ele><time>2026-05-01T15:42:46.672Z</time></trkpt><trkpt lat="40.94529" lon="9.36673"><ele>582.6</ele><time>2026-05-01T15:42:47.672Z</time></trkpt><trkpt lat="40.9453617" lon="9.366855"><ele>586.4</ele><time>2026-05-01T15:42:48.672Z</time></trkpt><trkpt lat="40.9454267" lon="9.366975"><ele>590.2</ele><time>2026-05-01T15:42:49.672Z</time></trkpt><trkpt lat="40.945475" lon="9.3670817"><ele>594.0</ele><time>2026-05-01T15:42:50.672Z</time></trkpt><trkpt lat="40.94555" lon="9.3671767"><ele>594.5</ele><time>2026-05-01T15:42:51.672Z</time></trkpt><trkpt lat="40.9456133" lon="9.3672433"><ele>595.0</ele><time>2026-05-01T15:42:52.672Z</time></trkpt><trkpt lat="40.9456567" lon="9.3673167"><ele>595.5</ele><time>2026-05-01T15:42:53.672Z</time></trkpt><trkpt lat="40.94568" lon="9.3674117"><ele>596.0</ele><time>2026-05-01T15:42:54.672Z</time></trkpt><trkpt lat="40.9457883" lon="9.3677983"><ele>596.0</ele><time>2026-05-01T15:42:58.681Z</time></trkpt><trkpt lat="40.9457883" lon="9.367895"><ele>596.0</ele><time>2026-05-01T15:43:00.681Z</time></trkpt><trkpt lat="40.9459117" lon="9.367905"><ele>596.0</ele><time>2026-05-01T15:43:02.681Z</time></trkpt><trkpt lat="40.94599" lon="9.36789"><ele>596.0</ele><time>2026-05-01T15:43:03.681Z</time></trkpt><trkpt lat="40.94607" lon="9.36788"><ele>596.0</ele><time>2026-05-01T15:43:04.681Z</time></trkpt><trkpt lat="40.9461367" lon="9.3678833"><ele>596.0</ele><time>2026-05-01T15:43:05.68Z</time></trkpt><trkpt lat="40.9462133" lon="9.3678783"><ele>597.8</ele><time>2026-05-01T15:43:06.68Z</time></trkpt><trkpt lat="40.9462933" lon="9.3678783"><ele>599.6</ele><time>2026-05-01T15:43:07.68Z</time></trkpt><trkpt lat="40.9463733" lon="9.3677933"><ele>601.4</ele><time>2026-05-01T15:43:08.68Z</time></trkpt><trkpt lat="40.946455" lon="9.3677383"><ele>603.2</ele><time>2026-05-01T15:43:09.68Z</time></trkpt><trkpt lat="40.9465417" lon="9.3676933"><ele>605.0</ele><time>2026-05-01T15:43:10.68Z</time></trkpt><trkpt lat="40.9466583" lon="9.3676633"><ele>605.0</ele><time>2026-05-01T15:43:12.681Z</time></trkpt><trkpt lat="40.9467467" lon="9.3676833"><ele>605.0</ele><time>2026-05-01T15:43:14.68Z</time></trkpt><trkpt lat="40.9467617" lon="9.367775"><ele>605.0</ele><time>2026-05-01T15:43:17.68Z</time></trkpt><trkpt lat="40.9467517" lon="9.3678667"><ele>605.0</ele><time>2026-05-01T15:43:20.68Z</time></trkpt><trkpt lat="40.9467367" lon="9.3679517"><ele>605.0</ele><time>2026-05-01T15:43:24.68Z</time></trkpt><trkpt lat="40.9466117" lon="9.367905"><ele>605.0</ele><time>2026-05-01T15:43:39.68Z</time></trkpt><trkpt lat="40.946535" lon="9.3679333"><ele>605.0</ele><time>2026-05-01T15:43:42.68Z</time></trkpt><trkpt lat="40.9465333" lon="9.3680617"><ele>605.0</ele><time>2026-05-01T15:44:02.68Z</time></trkpt><trkpt lat="40.946435" lon="9.36804"><ele>605.0</ele><time>2026-05-01T15:44:05.68Z</time></trkpt><trkpt lat="40.946355" lon="9.3680667"><ele>605.0</ele><time>2026-05-01T15:44:07.68Z</time></trkpt><trkpt lat="40.9462533" lon="9.36811"><ele>605.0</ele><time>2026-05-01T15:44:09.68Z</time></trkpt><trkpt lat="40.94619" lon="9.36817"><ele>605.0</ele><time>2026-05-01T15:44:10.68Z</time></trkpt><trkpt lat="40.946135" lon="9.3682217"><ele>605.0</ele><time>2026-05-01T15:44:11.68Z</time></trkpt><trkpt lat="40.9460617" lon="9.3682533"><ele>605.0</ele><time>2026-05-01T15:44:12.68Z</time></trkpt><trkpt lat="40.945985" lon="9.3683233"><ele>605.0</ele><time>2026-05-01T15:44:13.68Z</time></trkpt><trkpt lat="40.9459083" lon="9.3683817"><ele>605.0</ele><time>2026-05-01T15:44:14.68Z</time></trkpt><trkpt lat="40.9458083" lon="9.3684033"><ele>605.0</ele><time>2026-05-01T15:44:15.68Z</time></trkpt><trkpt lat="40.9457417" lon="9.368445"><ele>605.6</ele><time>2026-05-01T15:44:16.68Z</time></trkpt><trkpt lat="40.94567" lon="9.36847"><ele>606.2</ele><time>2026-05-01T15:44:17.68Z</time></trkpt><trkpt lat="40.9455617" lon="9.368535"><ele>606.8</ele><time>2026-05-01T15:44:19.68Z</time></trkpt><trkpt lat="40.945585" lon="9.36866"><ele>607.4</ele><time>2026-05-01T15:44:21.68Z</time></trkpt><trkpt lat="40.945645" lon="9.3687183"><ele>608.0</ele><time>2026-05-01T15:44:22.68Z</time></trkpt><trkpt lat="40.94572" lon="9.3687933"><ele>611.1666666666666</ele><time>2026-05-01T15:44:23.681Z</time></trkpt><trkpt lat="40.94575" lon="9.3689267"><ele>614.3333333333333</ele><time>2026-05-01T15:44:25.68Z</time></trkpt><trkpt lat="40.9457433" lon="9.36902"><ele>617.5</ele><time>2026-05-01T15:44:27.68Z</time></trkpt><trkpt lat="40.9456667" lon="9.3690833"><ele>620.6666666666666</ele><time>2026-05-01T15:44:29.68Z</time></trkpt><trkpt lat="40.9456067" lon="9.3691333"><ele>623.8333333333334</ele><time>2026-05-01T15:44:30.68Z</time></trkpt><trkpt lat="40.9455167" lon="9.3691833"><ele>627.0</ele><time>2026-05-01T15:44:32.68Z</time></trkpt><trkpt lat="40.94546" lon="9.3692433"><ele>627.0</ele><time>2026-05-01T15:44:34.68Z</time></trkpt><trkpt lat="40.9454933" lon="9.36933"><ele>627.0</ele><time>2026-05-01T15:44:36.68Z</time></trkpt><trkpt lat="40.9454583" lon="9.3694367"><ele>627.0</ele><time>2026-05-01T15:44:39.68Z</time></trkpt><trkpt lat="40.945365" lon="9.369465"><ele>627.0</ele><time>2026-05-01T15:44:42.68Z</time></trkpt><trkpt lat="40.945275" lon="9.36944"><ele>627.0</ele><time>2026-05-01T15:44:44.68Z</time></trkpt><trkpt lat="40.9451683" lon="9.3693517"><ele>627.0</ele><time>2026-05-01T15:44:45.68Z</time></trkpt><trkpt lat="40.9450833" lon="9.3693083"><ele>627.0</ele><time>2026-05-01T15:44:46.68Z</time></trkpt><trkpt lat="40.9450133" lon="9.3692767"><ele>627.0</ele><time>2026-05-01T15:44:47.68Z</time></trkpt><trkpt lat="40.9449383" lon="9.369265"><ele>627.0</ele><time>2026-05-01T15:44:48.68Z</time></trkpt><trkpt lat="40.9448533" lon="9.3692417"><ele>627.0</ele><time>2026-05-01T15:44:49.68Z</time></trkpt><trkpt lat="40.94473" lon="9.3692483"><ele>628.5</ele><time>2026-05-01T15:44:51.68Z</time></trkpt><trkpt lat="40.944655" lon="9.3692633"><ele>630.0</ele><time>2026-05-01T15:44:52.68Z</time></trkpt><trkpt lat="40.9445867" lon="9.369295"><ele>631.5</ele><time>2026-05-01T15:44:53.68Z</time></trkpt><trkpt lat="40.9445133" lon="9.3693517"><ele>633.0</ele><time>2026-05-01T15:44:54.68Z</time></trkpt><trkpt lat="40.9444367" lon="9.3694167"><ele>634.5</ele><time>2026-05-01T15:44:55.68Z</time></trkpt><trkpt lat="40.9443317" lon="9.36947"><ele>636.0</ele><time>2026-05-01T15:44:56.68Z</time></trkpt><trkpt lat="40.944255" lon="9.3695267"><ele>635.0</ele><time>2026-05-01T15:44:57.68Z</time></trkpt><trkpt lat="40.9441917" lon="9.3696217"><ele>634.0</ele><time>2026-05-01T15:44:58.68Z</time></trkpt><trkpt lat="40.9441567" lon="9.3697583"><ele>633.0</ele><time>2026-05-01T15:45:00.68Z</time></trkpt><trkpt lat="40.9441483" lon="9.369865"><ele>632.0</ele><time>2026-05-01T15:45:02.68Z</time></trkpt><trkpt lat="40.9442367" lon="9.3699867"><ele>631.0</ele><time>2026-05-01T15:45:04.68Z</time></trkpt><trkpt lat="40.9443217" lon="9.3700467"><ele>636.75</ele><time>2026-05-01T15:45:05.68Z</time></trkpt><trkpt lat="40.944445" lon="9.3700833"><ele>642.5</ele><time>2026-05-01T15:45:06.68Z</time></trkpt><trkpt lat="40.94456" lon="9.37012"><ele>648.25</ele><time>2026-05-01T15:45:07.68Z</time></trkpt><trkpt lat="40.9446617" lon="9.3701483"><ele>654.0</ele><time>2026-05-01T15:45:08.68Z</time></trkpt><trkpt lat="40.9447767" lon="9.370185"><ele>654.0</ele><time>2026-05-01T15:45:09.68Z</time></trkpt><trkpt lat="40.944915" lon="9.37021"><ele>654.0</ele><time>2026-05-01T15:45:10.68Z</time></trkpt><trkpt lat="40.94501" lon="9.3702683"><ele>654.0</ele><time>2026-05-01T15:45:11.68Z</time></trkpt><trkpt lat="40.9450967" lon="9.3703167"><ele>654.0</ele><time>2026-05-01T15:45:12.68Z</time></trkpt><trkpt lat="40.9451733" lon="9.370375"><ele>654.0</ele><time>2026-05-01T15:45:13.68Z</time></trkpt><trkpt lat="40.9452317" lon="9.3704233"><ele>656.8333333333334</ele><time>2026-05-01T15:45:14.68Z</time></trkpt><trkpt lat="40.9453" lon="9.370525"><ele>659.6666666666666</ele><time>2026-05-01T15:45:16.68Z</time></trkpt><trkpt lat="40.945335" lon="9.370675"><ele>662.5</ele><time>2026-05-01T15:45:18.68Z</time></trkpt><trkpt lat="40.9452617" lon="9.370735"><ele>665.3333333333333</ele><time>2026-05-01T15:45:20.68Z</time></trkpt><trkpt lat="40.9452017" lon="9.3707633"><ele>668.1666666666666</ele><time>2026-05-01T15:45:21.68Z</time></trkpt><trkpt lat="40.9451367" lon="9.370795"><ele>671.0</ele><time>2026-05-01T15:45:22.68Z</time></trkpt><trkpt lat="40.945055" lon="9.370815"><ele>673.0</ele><time>2026-05-01T15:45:23.68Z</time></trkpt><trkpt lat="40.9449667" lon="9.3708367"><ele>675.0</ele><time>2026-05-01T15:45:24.68Z</time></trkpt><trkpt lat="40.9448733" lon="9.3708633"><ele>677.0</ele><time>2026-05-01T15:45:25.68Z</time></trkpt><trkpt lat="40.9447683" lon="9.3708867"><ele>679.0</ele><time>2026-05-01T15:45:26.68Z</time></trkpt><trkpt lat="40.9446667" lon="9.3709267"><ele>681.0</ele><time>2026-05-01T15:45:27.68Z</time></trkpt><trkpt lat="40.9445517" lon="9.3709417"><ele>681.0</ele><time>2026-05-01T15:45:28.68Z</time></trkpt><trkpt lat="40.94445" lon="9.3709583"><ele>681.0</ele><time>2026-05-01T15:45:29.68Z</time></trkpt><trkpt lat="40.94436" lon="9.3709817"><ele>681.0</ele><time>2026-05-01T15:45:30.68Z</time></trkpt><trkpt lat="40.94427" lon="9.3710183"><ele>681.0</ele><time>2026-05-01T15:45:31.68Z</time></trkpt><trkpt lat="40.944195" lon="9.3710667"><ele>681.0</ele><time>2026-05-01T15:45:32.68Z</time></trkpt><trkpt lat="40.9441017" lon="9.3711483"><ele>680.8333333333334</ele><time>2026-05-01T15:45:33.68Z</time></trkpt><trkpt lat="40.9440467" lon="9.3712383"><ele>680.6666666666666</ele><time>2026-05-01T15:45:34.68Z</time></trkpt><trkpt lat="40.943995" lon="9.3713133"><ele>680.5</ele><time>2026-05-01T15:45:35.68Z</time></trkpt><trkpt lat="40.9439567" lon="9.3714083"><ele>680.3333333333333</ele><time>2026-05-01T15:45:36.68Z</time></trkpt><trkpt lat="40.94392" lon="9.3715133"><ele>680.1666666666666</ele><time>2026-05-01T15:45:37.68Z</time></trkpt><trkpt lat="40.943895" lon="9.3716067"><ele>680.0</ele><time>2026-05-01T15:45:38.68Z</time></trkpt><trkpt lat="40.943885" lon="9.3716967"><ele>680.0</ele><time>2026-05-01T15:45:39.68Z</time></trkpt><trkpt lat="40.9438717" lon="9.3718683"><ele>680.0</ele><time>2026-05-01T15:45:41.68Z</time></trkpt><trkpt lat="40.9438633" lon="9.3719517"><ele>680.0</ele><time>2026-05-01T15:45:42.68Z</time></trkpt><trkpt lat="40.9439083" lon="9.3720433"><ele>680.0</ele><time>2026-05-01T15:45:44.68Z</time></trkpt><trkpt lat="40.9439817" lon="9.3720283"><ele>680.0</ele><time>2026-05-01T15:45:46.68Z</time></trkpt><trkpt lat="40.9440667" lon="9.37206"><ele>680.0</ele><time>2026-05-01T15:45:48.68Z</time></trkpt><trkpt lat="40.9440967" lon="9.37197"><ele>680.0</ele><time>2026-05-01T15:45:52.68Z</time></trkpt><trkpt lat="40.944095" lon="9.37186"><ele>680.0</ele><time>2026-05-01T15:45:59.68Z</time></trkpt><trkpt lat="40.94408" lon="9.3717683"><ele>680.0</ele><time>2026-05-01T15:46:05.68Z</time></trkpt><trkpt lat="40.9440883" lon="9.37166"><ele>680.0</ele><time>2026-05-01T15:46:08.68Z</time></trkpt><trkpt lat="40.9440867" lon="9.3715567"><ele>680.0</ele><time>2026-05-01T15:46:13.68Z</time></trkpt><trkpt lat="40.9439867" lon="9.3716233"><ele>680.0</ele><time>2026-05-01T15:52:21.68Z</time></trkpt><trkpt lat="40.9440433" lon="9.3716733"><ele>680.0</ele><time>2026-05-01T15:53:16.68Z</time></trkpt><trkpt lat="40.9441117" lon="9.37169"><ele>680.0</ele><time>2026-05-01T15:53:46.68Z</time></trkpt><trkpt lat="40.9440633" lon="9.3715817"><ele>680.0</ele><time>2026-05-01T15:54:27.68Z</time></trkpt><trkpt lat="40.9440117" lon="9.3716383"><ele>680.0</ele><time>2026-05-01T15:55:12.681Z</time></trkpt><trkpt lat="40.9440817" lon="9.371675"><ele>680.0</ele><time>2026-05-01T15:55:37.68Z</time></trkpt><trkpt lat="40.9440833" lon="9.3717667"><ele>680.0</ele><time>2026-05-01T15:55:40.68Z</time></trkpt><trkpt lat="40.9441333" lon="9.3716417"><ele>680.0</ele><time>2026-05-01T15:55:55.681Z</time></trkpt><trkpt lat="40.944205" lon="9.3716867"><ele>680.0</ele><time>2026-05-01T15:56:13.68Z</time></trkpt><trkpt lat="40.9443167" lon="9.3717367"><ele>680.0</ele><time>2026-05-01T15:56:15.68Z</time></trkpt><trkpt lat="40.9444183" lon="9.3717733"><ele>680.0</ele><time>2026-05-01T15:56:17.68Z</time></trkpt><trkpt lat="40.944495" lon="9.3718067"><ele>680.0</ele><time>2026-05-01T15:56:19.68Z</time></trkpt><trkpt lat="40.9445267" lon="9.3719267"><ele>683.2</ele><time>2026-05-01T15:56:21.68Z</time></trkpt><trkpt lat="40.9445433" lon="9.3720583"><ele>686.4</ele><time>2026-05-01T15:56:23.68Z</time></trkpt><trkpt lat="40.9445467" lon="9.3721683"><ele>689.5999999999999</ele><time>2026-05-01T15:56:24.68Z</time></trkpt><trkpt lat="40.9445617" lon="9.3722717"><ele>692.8</ele><time>2026-05-01T15:56:25.68Z</time></trkpt><trkpt lat="40.94455" lon="9.37245"><ele>696.0</ele><time>2026-05-01T15:56:26.68Z</time></trkpt><trkpt lat="40.9445767" lon="9.37258"><ele>696.1999999999999</ele><time>2026-05-01T15:56:27.68Z</time></trkpt><trkpt lat="40.94459" lon="9.3727283"><ele>696.4</ele><time>2026-05-01T15:56:28.68Z</time></trkpt><trkpt lat="40.9445967" lon="9.3728367"><ele>696.6</ele><time>2026-05-01T15:56:29.68Z</time></trkpt><trkpt lat="40.944615" lon="9.37296"><ele>696.8</ele><time>2026-05-01T15:56:30.68Z</time></trkpt><trkpt lat="40.944615" lon="9.37313"><ele>697.0</ele><time>2026-05-01T15:56:31.68Z</time></trkpt><trkpt lat="40.9446167" lon="9.3732717"><ele>697.6666666666667</ele><time>2026-05-01T15:56:32.68Z</time></trkpt><trkpt lat="40.9446083" lon="9.3733817"><ele>698.3333333333334</ele><time>2026-05-01T15:56:33.68Z</time></trkpt><trkpt lat="40.9446017" lon="9.3735083"><ele>699.0</ele><time>2026-05-01T15:56:34.68Z</time></trkpt><trkpt lat="40.94461" lon="9.373625"><ele>699.6666666666666</ele><time>2026-05-01T15:56:35.68Z</time></trkpt><trkpt lat="40.9446067" lon="9.3737267"><ele>700.3333333333333</ele><time>2026-05-01T15:56:36.68Z</time></trkpt><trkpt lat="40.9446" lon="9.373825"><ele>701.0</ele><time>2026-05-01T15:56:37.68Z</time></trkpt><trkpt lat="40.9446133" lon="9.373915"><ele>699.4</ele><time>2026-05-01T15:56:38.68Z</time></trkpt><trkpt lat="40.9446317" lon="9.3740167"><ele>697.8</ele><time>2026-05-01T15:56:39.68Z</time></trkpt><trkpt lat="40.9446617" lon="9.3740933"><ele>696.1999999999999</ele><time>2026-05-01T15:56:40.68Z</time></trkpt><trkpt lat="40.9446967" lon="9.3742183"><ele>694.5999999999999</ele><time>2026-05-01T15:56:42.68Z</time></trkpt><trkpt lat="40.9447433" lon="9.3743417"><ele>693.0</ele><time>2026-05-01T15:56:44.68Z</time></trkpt><trkpt lat="40.944825" lon="9.3744367"><ele>693.0</ele><time>2026-05-01T15:56:46.681Z</time></trkpt><trkpt lat="40.9448917" lon="9.374555"><ele>693.0</ele><time>2026-05-01T15:56:48.68Z</time></trkpt><trkpt lat="40.9449167" lon="9.374635"><ele>693.0</ele><time>2026-05-01T15:56:49.68Z</time></trkpt><trkpt lat="40.94493" lon="9.3747367"><ele>693.0</ele><time>2026-05-01T15:56:51.68Z</time></trkpt><trkpt lat="40.944895" lon="9.3748633"><ele>693.0</ele><time>2026-05-01T15:56:53.68Z</time></trkpt><trkpt lat="40.94487" lon="9.3749667"><ele>693.0</ele><time>2026-05-01T15:56:55.68Z</time></trkpt><trkpt lat="40.9448183" lon="9.3750183"><ele>690.4</ele><time>2026-05-01T15:56:57.68Z</time></trkpt><trkpt lat="40.9447883" lon="9.3751033"><ele>687.8</ele><time>2026-05-01T15:57:00.68Z</time></trkpt><trkpt lat="40.9448717" lon="9.3752417"><ele>685.2</ele><time>2026-05-01T15:57:02.68Z</time></trkpt><trkpt lat="40.9449117" lon="9.37531"><ele>682.6</ele><time>2026-05-01T15:57:03.68Z</time></trkpt><trkpt lat="40.9449867" lon="9.3753933"><ele>680.0</ele><time>2026-05-01T15:57:05.68Z</time></trkpt><trkpt lat="40.9450433" lon="9.375515"><ele>680.2</ele><time>2026-05-01T15:57:07.68Z</time></trkpt><trkpt lat="40.9451133" lon="9.3756267"><ele>680.4</ele><time>2026-05-01T15:57:09.68Z</time></trkpt><trkpt lat="40.9451567" lon="9.375765"><ele>680.5999999999999</ele><time>2026-05-01T15:57:11.68Z</time></trkpt><trkpt lat="40.94519" lon="9.3758483"><ele>680.8</ele><time>2026-05-01T15:57:12.679Z</time></trkpt><trkpt lat="40.9452567" lon="9.3759733"><ele>681.0</ele><time>2026-05-01T15:57:14.679Z</time></trkpt><trkpt lat="40.945275" lon="9.3760983"><ele>681.0</ele><time>2026-05-01T15:57:15.679Z</time></trkpt><trkpt lat="40.9453033" lon="9.376185"><ele>681.0</ele><time>2026-05-01T15:57:16.679Z</time></trkpt><trkpt lat="40.9453333" lon="9.37627"><ele>681.0</ele><time>2026-05-01T15:57:17.679Z</time></trkpt><trkpt lat="40.9453667" lon="9.37641"><ele>681.0</ele><time>2026-05-01T15:57:19.679Z</time></trkpt><trkpt lat="40.9453717" lon="9.3765117"><ele>681.0</ele><time>2026-05-01T15:57:21.679Z</time></trkpt><trkpt lat="40.945405" lon="9.3766017"><ele>681.0</ele><time>2026-05-01T15:57:23.679Z</time></trkpt><trkpt lat="40.9454583" lon="9.3767017"><ele>676.3333333333334</ele><time>2026-05-01T15:57:25.679Z</time></trkpt><trkpt lat="40.94551" lon="9.3767783"><ele>671.6666666666666</ele><time>2026-05-01T15:57:27.679Z</time></trkpt><trkpt lat="40.945565" lon="9.37687"><ele>667.0</ele><time>2026-05-01T15:57:29.679Z</time></trkpt><trkpt lat="40.945615" lon="9.376945"><ele>662.3333333333333</ele><time>2026-05-01T15:57:31.679Z</time></trkpt><trkpt lat="40.9456967" lon="9.376985"><ele>657.6666666666666</ele><time>2026-05-01T15:57:33.679Z</time></trkpt><trkpt lat="40.94579" lon="9.3770583"><ele>653.0</ele><time>2026-05-01T15:57:35.679Z</time></trkpt><trkpt lat="40.9458483" lon="9.377105"><ele>652.5999999999999</ele><time>2026-05-01T15:57:36.679Z</time></trkpt><trkpt lat="40.945915" lon="9.37713"><ele>652.1999999999999</ele><time>2026-05-01T15:57:37.679Z</time></trkpt><trkpt lat="40.9460083" lon="9.3772033"><ele>651.8</ele><time>2026-05-01T15:57:39.68Z</time></trkpt><trkpt lat="40.946095" lon="9.3773083"><ele>651.4</ele><time>2026-05-01T15:57:41.679Z</time></trkpt><trkpt lat="40.946175" lon="9.37737"><ele>651.0</ele><time>2026-05-01T15:57:43.679Z</time></trkpt><trkpt lat="40.9461183" lon="9.3774067"><ele>647.0</ele><time>2026-05-01T15:57:52.679Z</time></trkpt><trkpt lat="40.9460683" lon="9.37734"><ele>643.0</ele><time>2026-05-01T15:58:15.679Z</time></trkpt><trkpt lat="40.9459817" lon="9.377385"><ele>639.0</ele><time>2026-05-01T15:58:20.679Z</time></trkpt><trkpt lat="40.9458933" lon="9.377375"><ele>635.0</ele><time>2026-05-01T15:58:23.68Z</time></trkpt><trkpt lat="40.9457883" lon="9.377335"><ele>631.0</ele><time>2026-05-01T15:58:25.679Z</time></trkpt><trkpt lat="40.9456833" lon="9.377295"><ele>631.0</ele><time>2026-05-01T15:58:27.679Z</time></trkpt><trkpt lat="40.945625" lon="9.3772617"><ele>631.0</ele><time>2026-05-01T15:58:28.679Z</time></trkpt><trkpt lat="40.9455667" lon="9.3772233"><ele>631.0</ele><time>2026-05-01T15:58:29.679Z</time></trkpt><trkpt lat="40.9455167" lon="9.3771683"><ele>631.0</ele><time>2026-05-01T15:58:30.679Z</time></trkpt><trkpt lat="40.94541" lon="9.3771283"><ele>631.0</ele><time>2026-05-01T15:58:32.679Z</time></trkpt><trkpt lat="40.94535" lon="9.37707"><ele>631.0</ele><time>2026-05-01T15:58:33.679Z</time></trkpt><trkpt lat="40.9452867" lon="9.3769917"><ele>632.0</ele><time>2026-05-01T15:58:34.679Z</time></trkpt><trkpt lat="40.94514" lon="9.3769033"><ele>633.0</ele><time>2026-05-01T15:58:36.679Z</time></trkpt><trkpt lat="40.945075" lon="9.3768567"><ele>634.0</ele><time>2026-05-01T15:58:37.68Z</time></trkpt><trkpt lat="40.9449133" lon="9.37674"><ele>635.0</ele><time>2026-05-01T15:58:39.679Z</time></trkpt><trkpt lat="40.9448433" lon="9.3766917"><ele>635.0</ele><time>2026-05-01T15:58:40.679Z</time></trkpt><trkpt lat="40.9447533" lon="9.3766133"><ele>635.0</ele><time>2026-05-01T15:58:41.679Z</time></trkpt><trkpt lat="40.9446717" lon="9.3765517"><ele>635.0</ele><time>2026-05-01T15:58:42.679Z</time></trkpt><trkpt lat="40.9446017" lon="9.37648"><ele>635.0</ele><time>2026-05-01T15:58:43.679Z</time></trkpt><trkpt lat="40.9445217" lon="9.3764583"><ele>635.0</ele><time>2026-05-01T15:58:44.679Z</time></trkpt><trkpt lat="40.9444467" lon="9.37643"><ele>635.0</ele><time>2026-05-01T15:58:45.679Z</time></trkpt><trkpt lat="40.9443717" lon="9.37641"><ele>635.0</ele><time>2026-05-01T15:58:46.679Z</time></trkpt><trkpt lat="40.9442483" lon="9.3763633"><ele>635.0</ele><time>2026-05-01T15:58:48.679Z</time></trkpt><trkpt lat="40.9441767" lon="9.3763317"><ele>635.0</ele><time>2026-05-01T15:58:49.679Z</time></trkpt><trkpt lat="40.9440583" lon="9.3763317"><ele>635.0</ele><time>2026-05-01T15:58:51.679Z</time></trkpt><trkpt lat="40.9439517" lon="9.3763133"><ele>632.0</ele><time>2026-05-01T15:58:53.679Z</time></trkpt><trkpt lat="40.9438717" lon="9.3764317"><ele>629.0</ele><time>2026-05-01T15:58:54.679Z</time></trkpt><trkpt lat="40.943815" lon="9.3764867"><ele>626.0</ele><time>2026-05-01T15:58:55.679Z</time></trkpt><trkpt lat="40.9437483" lon="9.3765033"><ele>623.0</ele><time>2026-05-01T15:58:59.68Z</time></trkpt><trkpt lat="40.9438033" lon="9.376605"><ele>620.0</ele><time>2026-05-01T15:59:46.679Z</time></trkpt><trkpt lat="40.9438217" lon="9.37652"><ele>617.0</ele><time>2026-05-01T16:00:23.679Z</time></trkpt><trkpt lat="40.9438967" lon="9.3765883"><ele>617.0</ele><time>2026-05-01T16:02:07.679Z</time></trkpt><trkpt lat="40.943825" lon="9.376495"><ele>617.0</ele><time>2026-05-01T16:04:12.679Z</time></trkpt><trkpt lat="40.9438117" lon="9.3765783"><ele>617.0</ele><time>2026-05-01T16:04:30.679Z</time></trkpt><trkpt lat="40.9437183" lon="9.3765883"><ele>617.0</ele><time>2026-05-01T16:04:33.679Z</time></trkpt><trkpt lat="40.9436333" lon="9.3766167"><ele>617.0</ele><time>2026-05-01T16:04:36.679Z</time></trkpt><trkpt lat="40.9435533" lon="9.37662"><ele>617.0</ele><time>2026-05-01T16:04:39.679Z</time></trkpt><trkpt lat="40.9434867" lon="9.3766183"><ele>617.0</ele><time>2026-05-01T16:04:41.679Z</time></trkpt><trkpt lat="40.9434133" lon="9.376605"><ele>617.0</ele><time>2026-05-01T16:04:43.679Z</time></trkpt><trkpt lat="40.9433383" lon="9.37658"><ele>617.0</ele><time>2026-05-01T16:04:45.679Z</time></trkpt><trkpt lat="40.9432617" lon="9.37653"><ele>617.0</ele><time>2026-05-01T16:04:47.679Z</time></trkpt><trkpt lat="40.94318" lon="9.376495"><ele>617.0</ele><time>2026-05-01T16:04:49.679Z</time></trkpt><trkpt lat="40.9430717" lon="9.3764267"><ele>617.0</ele><time>2026-05-01T16:04:51.679Z</time></trkpt><trkpt lat="40.943005" lon="9.3763383"><ele>618.4</ele><time>2026-05-01T16:04:53.679Z</time></trkpt><trkpt lat="40.94292" lon="9.3762667"><ele>619.8000000000001</ele><time>2026-05-01T16:04:55.679Z</time></trkpt><trkpt lat="40.9428083" lon="9.3762367"><ele>621.2</ele><time>2026-05-01T16:04:57.679Z</time></trkpt><trkpt lat="40.94273" lon="9.3762217"><ele>622.6</ele><time>2026-05-01T16:04:59.679Z</time></trkpt><trkpt lat="40.9426533" lon="9.37615"><ele>624.0</ele><time>2026-05-01T16:05:02.679Z</time></trkpt><trkpt lat="40.942585" lon="9.3760817"><ele>624.0</ele><time>2026-05-01T16:05:04.679Z</time></trkpt><trkpt lat="40.942525" lon="9.376115"><ele>624.0</ele><time>2026-05-01T16:05:08.679Z</time></trkpt><trkpt lat="40.9425467" lon="9.376225"><ele>624.0</ele><time>2026-05-01T16:05:10.679Z</time></trkpt><trkpt lat="40.94258" lon="9.3763383"><ele>624.0</ele><time>2026-05-01T16:05:12.679Z</time></trkpt><trkpt lat="40.94261" lon="9.3764167"><ele>624.0</ele><time>2026-05-01T16:05:13.679Z</time></trkpt><trkpt lat="40.9426517" lon="9.37649"><ele>624.0</ele><time>2026-05-01T16:05:14.679Z</time></trkpt><trkpt lat="40.942685" lon="9.376565"><ele>624.0</ele><time>2026-05-01T16:05:15.679Z</time></trkpt><trkpt lat="40.9427283" lon="9.3766267"><ele>620.4</ele><time>2026-05-01T16:05:16.679Z</time></trkpt><trkpt lat="40.9427883" lon="9.37673"><ele>616.8</ele><time>2026-05-01T16:05:18.679Z</time></trkpt><trkpt lat="40.942895" lon="9.3768283"><ele>613.2</ele><time>2026-05-01T16:05:20.68Z</time></trkpt><trkpt lat="40.9429533" lon="9.3768917"><ele>609.6</ele><time>2026-05-01T16:05:21.679Z</time></trkpt><trkpt lat="40.9430233" lon="9.376945"><ele>606.0</ele><time>2026-05-01T16:05:22.679Z</time></trkpt><trkpt lat="40.943095" lon="9.37699"><ele>606.0</ele><time>2026-05-01T16:05:23.679Z</time></trkpt><trkpt lat="40.9431867" lon="9.3770333"><ele>606.0</ele><time>2026-05-01T16:05:24.68Z</time></trkpt><trkpt lat="40.9432783" lon="9.37705"><ele>606.0</ele><time>2026-05-01T16:05:25.679Z</time></trkpt><trkpt lat="40.9433583" lon="9.377105"><ele>606.0</ele><time>2026-05-01T16:05:26.679Z</time></trkpt><trkpt lat="40.943435" lon="9.3771567"><ele>606.0</ele><time>2026-05-01T16:05:27.679Z</time></trkpt><trkpt lat="40.9435117" lon="9.3772217"><ele>605.0</ele><time>2026-05-01T16:05:28.679Z</time></trkpt><trkpt lat="40.9435783" lon="9.3772833"><ele>604.0</ele><time>2026-05-01T16:05:29.679Z</time></trkpt><trkpt lat="40.9436567" lon="9.3773467"><ele>603.0</ele><time>2026-05-01T16:05:30.679Z</time></trkpt><trkpt lat="40.9437367" lon="9.3774067"><ele>602.0</ele><time>2026-05-01T16:05:31.679Z</time></trkpt><trkpt lat="40.94382" lon="9.3775083"><ele>601.0</ele><time>2026-05-01T16:05:32.679Z</time></trkpt><trkpt lat="40.9439183" lon="9.377555"><ele>601.0</ele><time>2026-05-01T16:05:33.679Z</time></trkpt><trkpt lat="40.944015" lon="9.3776283"><ele>601.0</ele><time>2026-05-01T16:05:34.679Z</time></trkpt><trkpt lat="40.9441067" lon="9.377705"><ele>601.0</ele><time>2026-05-01T16:05:35.679Z</time></trkpt><trkpt lat="40.9441983" lon="9.3777717"><ele>601.0</ele><time>2026-05-01T16:05:36.679Z</time></trkpt><trkpt lat="40.9442833" lon="9.377845"><ele>601.0</ele><time>2026-05-01T16:05:37.679Z</time></trkpt><trkpt lat="40.9443567" lon="9.3779567"><ele>601.0</ele><time>2026-05-01T16:05:38.679Z</time></trkpt><trkpt lat="40.9444283" lon="9.37805"><ele>601.0</ele><time>2026-05-01T16:05:39.679Z</time></trkpt><trkpt lat="40.9444983" lon="9.3781367"><ele>601.0</ele><time>2026-05-01T16:05:40.679Z</time></trkpt><trkpt lat="40.9445733" lon="9.3782117"><ele>601.0</ele><time>2026-05-01T16:05:41.679Z</time></trkpt><trkpt lat="40.944655" lon="9.3782733"><ele>601.0</ele><time>2026-05-01T16:05:42.679Z</time></trkpt><trkpt lat="40.9447467" lon="9.378355"><ele>601.0</ele><time>2026-05-01T16:05:43.679Z</time></trkpt><trkpt lat="40.9448283" lon="9.37844"><ele>601.0</ele><time>2026-05-01T16:05:44.679Z</time></trkpt><trkpt lat="40.9449017" lon="9.3785067"><ele>601.0</ele><time>2026-05-01T16:05:45.679Z</time></trkpt><trkpt lat="40.94497" lon="9.3785583"><ele>601.0</ele><time>2026-05-01T16:05:46.679Z</time></trkpt><trkpt lat="40.9450433" lon="9.3785983"><ele>601.0</ele><time>2026-05-01T16:05:47.679Z</time></trkpt><trkpt lat="40.9451133" lon="9.378635"><ele>601.0</ele><time>2026-05-01T16:05:48.679Z</time></trkpt><trkpt lat="40.9451833" lon="9.3786367"><ele>601.3333333333334</ele><time>2026-05-01T16:05:49.679Z</time></trkpt><trkpt lat="40.9452317" lon="9.3787117"><ele>601.6666666666667</ele><time>2026-05-01T16:05:50.679Z</time></trkpt><trkpt lat="40.9452883" lon="9.37876"><ele>602.0</ele><time>2026-05-01T16:05:51.679Z</time></trkpt><trkpt lat="40.9453467" lon="9.3788267"><ele>602.3333333333334</ele><time>2026-05-01T16:05:52.679Z</time></trkpt><trkpt lat="40.9454083" lon="9.3788833"><ele>602.6666666666666</ele><time>2026-05-01T16:05:53.679Z</time></trkpt><trkpt lat="40.9454967" lon="9.3790033"><ele>603.0</ele><time>2026-05-01T16:05:55.679Z</time></trkpt><trkpt lat="40.9455917" lon="9.3790517"><ele>603.0</ele><time>2026-05-01T16:05:57.679Z</time></trkpt><trkpt lat="40.9456533" lon="9.3790883"><ele>603.0</ele><time>2026-05-01T16:05:58.679Z</time></trkpt><trkpt lat="40.9457117" lon="9.37912"><ele>603.0</ele><time>2026-05-01T16:05:59.679Z</time></trkpt><trkpt lat="40.945775" lon="9.3791733"><ele>603.0</ele><time>2026-05-01T16:06:00.679Z</time></trkpt><trkpt lat="40.9458383" lon="9.3792433"><ele>603.0</ele><time>2026-05-01T16:06:01.679Z</time></trkpt><trkpt lat="40.9458983" lon="9.3793067"><ele>603.0</ele><time>2026-05-01T16:06:02.679Z</time></trkpt><trkpt lat="40.9459617" lon="9.3793667"><ele>603.0</ele><time>2026-05-01T16:06:03.679Z</time></trkpt><trkpt lat="40.946" lon="9.3794333"><ele>603.5</ele><time>2026-05-01T16:06:04.679Z</time></trkpt><trkpt lat="40.946" lon="9.3796417"><ele>604.0</ele><time>2026-05-01T16:06:06.679Z</time></trkpt><trkpt lat="40.9460017" lon="9.3797267"><ele>604.5</ele><time>2026-05-01T16:06:07.679Z</time></trkpt><trkpt lat="40.9460067" lon="9.3798183"><ele>605.0</ele><time>2026-05-01T16:06:09.679Z</time></trkpt><trkpt lat="40.946085" lon="9.3798467"><ele>605.5</ele><time>2026-05-01T16:06:11.679Z</time></trkpt><trkpt lat="40.9461433" lon="9.379885"><ele>606.0</ele><time>2026-05-01T16:06:14.679Z</time></trkpt><trkpt lat="40.9462067" lon="9.379975"><ele>604.6666666666666</ele><time>2026-05-01T16:06:16.679Z</time></trkpt><trkpt lat="40.946245" lon="9.3800417"><ele>603.3333333333334</ele><time>2026-05-01T16:06:19.679Z</time></trkpt><trkpt lat="40.9462183" lon="9.379935"><ele>602.0</ele><time>2026-05-01T16:06:27.679Z</time></trkpt><trkpt lat="40.9461767" lon="9.3798433"><ele>600.6666666666667</ele><time>2026-05-01T16:07:39.679Z</time></trkpt><trkpt lat="40.946125" lon="9.379775"><ele>599.3333333333334</ele><time>2026-05-01T16:07:46.679Z</time></trkpt><trkpt lat="40.94607" lon="9.3798283"><ele>598.0</ele><time>2026-05-01T16:09:19.679Z</time></trkpt><trkpt lat="40.9461683" lon="9.3798683"><ele>598.0</ele><time>2026-05-01T16:09:41.679Z</time></trkpt><trkpt lat="40.9462683" lon="9.379885"><ele>598.0</ele><time>2026-05-01T16:09:49.679Z</time></trkpt><trkpt lat="40.9463983" lon="9.3799567"><ele>598.0</ele><time>2026-05-01T16:09:51.679Z</time></trkpt><trkpt lat="40.946495" lon="9.380045"><ele>598.0</ele><time>2026-05-01T16:09:52.679Z</time></trkpt><trkpt lat="40.946565" lon="9.38011"><ele>598.0</ele><time>2026-05-01T16:09:53.679Z</time></trkpt><trkpt lat="40.9466183" lon="9.3801617"><ele>598.0</ele><time>2026-05-01T16:09:54.679Z</time></trkpt><trkpt lat="40.9466717" lon="9.380215"><ele>598.0</ele><time>2026-05-01T16:09:55.679Z</time></trkpt><trkpt lat="40.9467233" lon="9.3802683"><ele>598.0</ele><time>2026-05-01T16:09:56.679Z</time></trkpt><trkpt lat="40.9467817" lon="9.3803217"><ele>598.0</ele><time>2026-05-01T16:09:57.679Z</time></trkpt><trkpt lat="40.9468417" lon="9.3803883"><ele>598.0</ele><time>2026-05-01T16:09:58.679Z</time></trkpt><trkpt lat="40.9468983" lon="9.3804417"><ele>598.0</ele><time>2026-05-01T16:09:59.679Z</time></trkpt><trkpt lat="40.9469533" lon="9.3804833"><ele>598.0</ele><time>2026-05-01T16:10:00.679Z</time></trkpt><trkpt lat="40.9470433" lon="9.38058"><ele>594.5</ele><time>2026-05-01T16:10:02.679Z</time></trkpt><trkpt lat="40.9470883" lon="9.3806633"><ele>591.0</ele><time>2026-05-01T16:10:05.679Z</time></trkpt><trkpt lat="40.94715" lon="9.380705"><ele>587.5</ele><time>2026-05-01T16:10:06.679Z</time></trkpt><trkpt lat="40.9472383" lon="9.3807833"><ele>584.0</ele><time>2026-05-01T16:10:07.679Z</time></trkpt><trkpt lat="40.9473183" lon="9.38083"><ele>580.5</ele><time>2026-05-01T16:10:08.679Z</time></trkpt><trkpt lat="40.9473967" lon="9.3808883"><ele>577.0</ele><time>2026-05-01T16:10:09.679Z</time></trkpt><trkpt lat="40.947465" lon="9.380965"><ele>577.0</ele><time>2026-05-01T16:10:10.679Z</time></trkpt><trkpt lat="40.94752" lon="9.381025"><ele>577.0</ele><time>2026-05-01T16:10:11.679Z</time></trkpt><trkpt lat="40.9476117" lon="9.3811283"><ele>577.0</ele><time>2026-05-01T16:10:13.679Z</time></trkpt><trkpt lat="40.9476683" lon="9.38125"><ele>577.0</ele><time>2026-05-01T16:10:15.679Z</time></trkpt><trkpt lat="40.9476733" lon="9.3813883"><ele>577.0</ele><time>2026-05-01T16:10:17.679Z</time></trkpt><trkpt lat="40.9476717" lon="9.3815633"><ele>570.8333333333334</ele><time>2026-05-01T16:10:19.679Z</time></trkpt><trkpt lat="40.9476733" lon="9.38166"><ele>564.6666666666667</ele><time>2026-05-01T16:10:20.679Z</time></trkpt><trkpt lat="40.9476817" lon="9.3817483"><ele>558.5</ele><time>2026-05-01T16:10:21.679Z</time></trkpt><trkpt lat="40.9476883" lon="9.381835"><ele>552.3333333333334</ele><time>2026-05-01T16:10:22.679Z</time></trkpt><trkpt lat="40.9477" lon="9.3819233"><ele>546.1666666666666</ele><time>2026-05-01T16:10:23.68Z</time></trkpt><trkpt lat="40.94771" lon="9.382075"><ele>540.0</ele><time>2026-05-01T16:10:25.679Z</time></trkpt><trkpt lat="40.9477217" lon="9.382165"><ele>539.4</ele><time>2026-05-01T16:10:26.679Z</time></trkpt><trkpt lat="40.947745" lon="9.38229"><ele>538.8</ele><time>2026-05-01T16:10:28.679Z</time></trkpt><trkpt lat="40.9477783" lon="9.3823633"><ele>538.2</ele><time>2026-05-01T16:10:29.679Z</time></trkpt><trkpt lat="40.947845" lon="9.38248"><ele>537.6</ele><time>2026-05-01T16:10:31.679Z</time></trkpt><trkpt lat="40.9479233" lon="9.3825967"><ele>537.0</ele><time>2026-05-01T16:10:33.679Z</time></trkpt><trkpt lat="40.9479733" lon="9.382735"><ele>537.0</ele><time>2026-05-01T16:10:35.679Z</time></trkpt><trkpt lat="40.9480167" lon="9.3828133"><ele>537.0</ele><time>2026-05-01T16:10:36.679Z</time></trkpt><trkpt lat="40.948055" lon="9.38288"><ele>537.0</ele><time>2026-05-01T16:10:37.679Z</time></trkpt><trkpt lat="40.9481283" lon="9.382975"><ele>537.0</ele><time>2026-05-01T16:10:39.679Z</time></trkpt><trkpt lat="40.948195" lon="9.38298"><ele>537.0</ele><time>2026-05-01T16:10:42.679Z</time></trkpt><trkpt lat="40.9482683" lon="9.383"><ele>537.0</ele><time>2026-05-01T16:10:45.679Z</time></trkpt><trkpt lat="40.9483317" lon="9.3830917"><ele>537.0</ele><time>2026-05-01T16:10:48.68Z</time></trkpt><trkpt lat="40.9483233" lon="9.383195"><ele>537.0</ele><time>2026-05-01T16:10:50.679Z</time></trkpt><trkpt lat="40.9483033" lon="9.38335"><ele>537.0</ele><time>2026-05-01T16:10:52.679Z</time></trkpt><trkpt lat="40.9482783" lon="9.383495"><ele>537.0</ele><time>2026-05-01T16:10:54.68Z</time></trkpt><trkpt lat="40.9482333" lon="9.383615"><ele>537.0</ele><time>2026-05-01T16:10:56.679Z</time></trkpt><trkpt lat="40.9482183" lon="9.3837133"><ele>537.0</ele><time>2026-05-01T16:10:58.679Z</time></trkpt><trkpt lat="40.9482617" lon="9.383785"><ele>537.0</ele><time>2026-05-01T16:11:00.679Z</time></trkpt><trkpt lat="40.9483383" lon="9.3837733"><ele>537.0</ele><time>2026-05-01T16:11:02.679Z</time></trkpt><trkpt lat="40.9484267" lon="9.383695"><ele>537.0</ele><time>2026-05-01T16:11:04.679Z</time></trkpt><trkpt lat="40.9484917" lon="9.3835717"><ele>537.0</ele><time>2026-05-01T16:11:06.68Z</time></trkpt><trkpt lat="40.9485283" lon="9.3834983"><ele>537.0</ele><time>2026-05-01T16:11:07.679Z</time></trkpt><trkpt lat="40.9486" lon="9.3833717"><ele>531.6</ele><time>2026-05-01T16:11:09.679Z</time></trkpt><trkpt lat="40.948675" lon="9.383305"><ele>526.2</ele><time>2026-05-01T16:11:12.679Z</time></trkpt><trkpt lat="40.9486933" lon="9.3834567"><ele>520.8</ele><time>2026-05-01T16:11:18.679Z</time></trkpt><trkpt lat="40.948745" lon="9.3835167"><ele>515.4</ele><time>2026-05-01T16:11:21.679Z</time></trkpt><trkpt lat="40.9488517" lon="9.3834633"><ele>510.0</ele><time>2026-05-01T16:11:24.679Z</time></trkpt><trkpt lat="40.94892" lon="9.3834767"><ele>510.0</ele><time>2026-05-01T16:11:26.679Z</time></trkpt><trkpt lat="40.9489783" lon="9.38352"><ele>510.0</ele><time>2026-05-01T16:11:27.679Z</time></trkpt><trkpt lat="40.9490617" lon="9.3835817"><ele>510.0</ele><time>2026-05-01T16:11:28.679Z</time></trkpt><trkpt lat="40.9491383" lon="9.3836483"><ele>510.0</ele><time>2026-05-01T16:11:29.679Z</time></trkpt><trkpt lat="40.94919" lon="9.3837117"><ele>510.0</ele><time>2026-05-01T16:11:30.679Z</time></trkpt><trkpt lat="40.9492383" lon="9.3837783"><ele>510.0</ele><time>2026-05-01T16:11:31.679Z</time></trkpt><trkpt lat="40.9493" lon="9.38383"><ele>507.5714285714286</ele><time>2026-05-01T16:11:32.679Z</time></trkpt><trkpt lat="40.9493617" lon="9.3838817"><ele>505.1428571428572</ele><time>2026-05-01T16:11:33.679Z</time></trkpt><trkpt lat="40.949435" lon="9.3839067"><ele>502.7142857142857</ele><time>2026-05-01T16:11:35.679Z</time></trkpt><trkpt lat="40.949495" lon="9.38395"><ele>500.28571428571433</ele><time>2026-05-01T16:11:37.679Z</time></trkpt><trkpt lat="40.949545" lon="9.38404"><ele>497.8571428571429</ele><time>2026-05-01T16:11:39.679Z</time></trkpt><trkpt lat="40.94955" lon="9.384135"><ele>495.42857142857144</ele><time>2026-05-01T16:11:41.679Z</time></trkpt><trkpt lat="40.9495067" lon="9.3841983"><ele>493.0</ele><time>2026-05-01T16:11:44.679Z</time></trkpt><trkpt lat="40.949365" lon="9.3841867"><ele>493.0</ele><time>2026-05-01T16:12:04.679Z</time></trkpt><trkpt lat="40.9495017" lon="9.384245"><ele>492.99999999999994</ele><time>2026-05-01T16:12:21.679Z</time></trkpt><trkpt lat="40.9495933" lon="9.38427"><ele>492.99999999999994</ele><time>2026-05-01T16:12:23.679Z</time></trkpt><trkpt lat="40.949715" lon="9.3842533"><ele>493.0</ele><time>2026-05-01T16:12:25.679Z</time></trkpt><trkpt lat="40.9497817" lon="9.3842217"><ele>493.0</ele><time>2026-05-01T16:12:26.679Z</time></trkpt><trkpt lat="40.9498333" lon="9.3841617"><ele>493.0</ele><time>2026-05-01T16:12:27.679Z</time></trkpt><trkpt lat="40.9498733" lon="9.3840933"><ele>492.99999999999994</ele><time>2026-05-01T16:12:28.679Z</time></trkpt><trkpt lat="40.9499167" lon="9.3839633"><ele>492.99999999999994</ele><time>2026-05-01T16:12:30.679Z</time></trkpt><trkpt lat="40.949925" lon="9.3838483"><ele>493.0</ele><time>2026-05-01T16:12:32.679Z</time></trkpt><trkpt lat="40.94994" lon="9.383735"><ele>493.0</ele><time>2026-05-01T16:12:34.679Z</time></trkpt><trkpt lat="40.949915" lon="9.3836"><ele>492.6666666666667</ele><time>2026-05-01T16:12:36.679Z</time></trkpt><trkpt lat="40.9498517" lon="9.383535"><ele>492.33333333333337</ele><time>2026-05-01T16:12:37.679Z</time></trkpt><trkpt lat="40.9498083" lon="9.3834717"><ele>492.0</ele><time>2026-05-01T16:12:38.679Z</time></trkpt><trkpt lat="40.9497567" lon="9.383415"><ele>491.66666666666663</ele><time>2026-05-01T16:12:39.679Z</time></trkpt><trkpt lat="40.9497067" lon="9.3833617"><ele>491.3333333333333</ele><time>2026-05-01T16:12:40.679Z</time></trkpt><trkpt lat="40.9495867" lon="9.3832867"><ele>491.0</ele><time>2026-05-01T16:12:42.679Z</time></trkpt><trkpt lat="40.94953" lon="9.38324"><ele>490.99999999999994</ele><time>2026-05-01T16:12:43.679Z</time></trkpt><trkpt lat="40.9494833" lon="9.38318"><ele>491.0</ele><time>2026-05-01T16:12:44.679Z</time></trkpt><trkpt lat="40.94943" lon="9.383105"><ele>491.0</ele><time>2026-05-01T16:12:45.679Z</time></trkpt><trkpt lat="40.9493967" lon="9.38301"><ele>491.0</ele><time>2026-05-01T16:12:46.679Z</time></trkpt><trkpt lat="40.949365" lon="9.38291"><ele>490.99999999999994</ele><time>2026-05-01T16:12:47.679Z</time></trkpt><trkpt lat="40.9493483" lon="9.3827783"><ele>491.0</ele><time>2026-05-01T16:12:48.679Z</time></trkpt><trkpt lat="40.949335" lon="9.3826583"><ele>488.6</ele><time>2026-05-01T16:12:49.679Z</time></trkpt><trkpt lat="40.9493117" lon="9.3825383"><ele>486.20000000000005</ele><time>2026-05-01T16:12:50.679Z</time></trkpt><trkpt lat="40.9492917" lon="9.38243"><ele>483.79999999999995</ele><time>2026-05-01T16:12:51.679Z</time></trkpt><trkpt lat="40.94927" lon="9.3823433"><ele>481.4</ele><time>2026-05-01T16:12:52.679Z</time></trkpt><trkpt lat="40.9492767" lon="9.3822067"><ele>479.0</ele><time>2026-05-01T16:12:54.679Z</time></trkpt><trkpt lat="40.9493183" lon="9.382065"><ele>479.0</ele><time>2026-05-01T16:12:56.679Z</time></trkpt><trkpt lat="40.9494033" lon="9.3819633"><ele>479.0</ele><time>2026-05-01T16:12:58.679Z</time></trkpt><trkpt lat="40.949465" lon="9.381935"><ele>479.0</ele><time>2026-05-01T16:12:59.679Z</time></trkpt><trkpt lat="40.94954" lon="9.3818933"><ele>479.0</ele><time>2026-05-01T16:13:00.679Z</time></trkpt><trkpt lat="40.9496433" lon="9.3817833"><ele>479.0</ele><time>2026-05-01T16:13:02.679Z</time></trkpt><trkpt lat="40.9497183" lon="9.381765"><ele>479.0</ele><time>2026-05-01T16:13:03.679Z</time></trkpt><trkpt lat="40.9497683" lon="9.3816967"><ele>479.0</ele><time>2026-05-01T16:13:04.679Z</time></trkpt><trkpt lat="40.949825" lon="9.38164"><ele>479.0</ele><time>2026-05-01T16:13:05.679Z</time></trkpt><trkpt lat="40.9498967" lon="9.3815717"><ele>479.0</ele><time>2026-05-01T16:13:06.679Z</time></trkpt><trkpt lat="40.9499533" lon="9.3815167"><ele>479.0</ele><time>2026-05-01T16:13:07.679Z</time></trkpt><trkpt lat="40.9500067" lon="9.38146"><ele>479.0</ele><time>2026-05-01T16:13:08.679Z</time></trkpt><trkpt lat="40.9500617" lon="9.3814117"><ele>479.0</ele><time>2026-05-01T16:13:09.679Z</time></trkpt><trkpt lat="40.95016" lon="9.38133"><ele>474.99999999999994</ele><time>2026-05-01T16:13:11.679Z</time></trkpt><trkpt lat="40.9502067" lon="9.3812733"><ele>471.0</ele><time>2026-05-01T16:13:12.679Z</time></trkpt><trkpt lat="40.9502617" lon="9.381165"><ele>467.0</ele><time>2026-05-01T16:13:14.679Z</time></trkpt><trkpt lat="40.9502983" lon="9.3810817"><ele>463.0</ele><time>2026-05-01T16:13:16.679Z</time></trkpt><trkpt lat="40.950295" lon="9.3811817"><ele>458.99999999999994</ele><time>2026-05-01T16:13:21.679Z</time></trkpt><trkpt lat="40.9502817" lon="9.3813233"><ele>455.0</ele><time>2026-05-01T16:13:23.679Z</time></trkpt><trkpt lat="40.950285" lon="9.3814667"><ele>453.66666666666663</ele><time>2026-05-01T16:13:25.679Z</time></trkpt><trkpt lat="40.9502783" lon="9.3816267"><ele>452.3333333333333</ele><time>2026-05-01T16:13:27.679Z</time></trkpt><trkpt lat="40.9502667" lon="9.3817183"><ele>451.0</ele><time>2026-05-01T16:13:28.679Z</time></trkpt><trkpt lat="40.950255" lon="9.3818017"><ele>449.66666666666663</ele><time>2026-05-01T16:13:29.679Z</time></trkpt><trkpt lat="40.9502567" lon="9.3818917"><ele>448.3333333333333</ele><time>2026-05-01T16:13:30.679Z</time></trkpt><trkpt lat="40.9502867" lon="9.3819933"><ele>447.0</ele><time>2026-05-01T16:13:32.679Z</time></trkpt><trkpt lat="40.9503683" lon="9.38206"><ele>447.0</ele><time>2026-05-01T16:13:34.679Z</time></trkpt><trkpt lat="40.950485" lon="9.38213"><ele>447.00000000000006</ele><time>2026-05-01T16:13:36.679Z</time></trkpt><trkpt lat="40.9505517" lon="9.3821767"><ele>447.00000000000006</ele><time>2026-05-01T16:13:37.679Z</time></trkpt><trkpt lat="40.9506217" lon="9.3822283"><ele>447.0</ele><time>2026-05-01T16:13:38.679Z</time></trkpt><trkpt lat="40.950695" lon="9.382285"><ele>447.0</ele><time>2026-05-01T16:13:39.679Z</time></trkpt><trkpt lat="40.950775" lon="9.38236"><ele>442.8333333333333</ele><time>2026-05-01T16:13:40.679Z</time></trkpt><trkpt lat="40.950875" lon="9.382455"><ele>438.66666666666663</ele><time>2026-05-01T16:13:42.679Z</time></trkpt><trkpt lat="40.9509433" lon="9.382495"><ele>434.5</ele><time>2026-05-01T16:13:43.679Z</time></trkpt><trkpt lat="40.9510083" lon="9.3825467"><ele>430.3333333333333</ele><time>2026-05-01T16:13:44.679Z</time></trkpt><trkpt lat="40.95107" lon="9.3825783"><ele>426.16666666666663</ele><time>2026-05-01T16:13:45.679Z</time></trkpt><trkpt lat="40.95113" lon="9.38261"><ele>422.0</ele><time>2026-05-01T16:13:46.679Z</time></trkpt><trkpt lat="40.951195" lon="9.3826333"><ele>421.99999999999994</ele><time>2026-05-01T16:13:47.679Z</time></trkpt><trkpt lat="40.9513067" lon="9.3827067"><ele>422.0</ele><time>2026-05-01T16:13:49.679Z</time></trkpt><trkpt lat="40.9513467" lon="9.382775"><ele>422.0</ele><time>2026-05-01T16:13:50.679Z</time></trkpt><trkpt lat="40.95139" lon="9.382845"><ele>422.0</ele><time>2026-05-01T16:13:51.679Z</time></trkpt><trkpt lat="40.95143" lon="9.3829283"><ele>421.99999999999994</ele><time>2026-05-01T16:13:52.679Z</time></trkpt><trkpt lat="40.9514733" lon="9.3830083"><ele>422.0</ele><time>2026-05-01T16:13:53.679Z</time></trkpt><trkpt lat="40.9515217" lon="9.3830883"><ele>423.49999999999994</ele><time>2026-05-01T16:13:54.679Z</time></trkpt><trkpt lat="40.9515717" lon="9.3831817"><ele>425.0</ele><time>2026-05-01T16:13:55.679Z</time></trkpt><trkpt lat="40.9516117" lon="9.3832717"><ele>426.5</ele><time>2026-05-01T16:13:56.679Z</time></trkpt><trkpt lat="40.9516383" lon="9.3833633"><ele>428.0</ele><time>2026-05-01T16:13:57.679Z</time></trkpt><trkpt lat="40.9516633" lon="9.3834517"><ele>429.49999999999994</ele><time>2026-05-01T16:13:58.679Z</time></trkpt><trkpt lat="40.9516667" lon="9.38355"><ele>431.0</ele><time>2026-05-01T16:13:59.679Z</time></trkpt><trkpt lat="40.951665" lon="9.3836517"><ele>431.0</ele><time>2026-05-01T16:14:00.679Z</time></trkpt><trkpt lat="40.9516583" lon="9.3837567"><ele>431.0</ele><time>2026-05-01T16:14:01.679Z</time></trkpt><trkpt lat="40.9516533" lon="9.3838517"><ele>431.0</ele><time>2026-05-01T16:14:02.679Z</time></trkpt><trkpt lat="40.9516517" lon="9.383945"><ele>431.0</ele><time>2026-05-01T16:14:03.679Z</time></trkpt><trkpt lat="40.9516433" lon="9.3840383"><ele>431.0</ele><time>2026-05-01T16:14:04.679Z</time></trkpt><trkpt lat="40.9516367" lon="9.3841333"><ele>431.0</ele><time>2026-05-01T16:14:05.679Z</time></trkpt><trkpt lat="40.9516217" lon="9.3842167"><ele>431.0</ele><time>2026-05-01T16:14:06.679Z</time></trkpt><trkpt lat="40.9516017" lon="9.3843033"><ele>431.0</ele><time>2026-05-01T16:14:07.679Z</time></trkpt><trkpt lat="40.95156" lon="9.3844467"><ele>431.0</ele><time>2026-05-01T16:14:09.679Z</time></trkpt><trkpt lat="40.951535" lon="9.384525"><ele>431.0</ele><time>2026-05-01T16:14:10.679Z</time></trkpt><trkpt lat="40.951495" lon="9.3846683"><ele>431.0</ele><time>2026-05-01T16:14:12.679Z</time></trkpt><trkpt lat="40.9514633" lon="9.38482"><ele>431.0</ele><time>2026-05-01T16:14:14.679Z</time></trkpt><trkpt lat="40.951445" lon="9.384905"><ele>429.7142857142857</ele><time>2026-05-01T16:14:15.679Z</time></trkpt><trkpt lat="40.9514433" lon="9.3849933"><ele>428.4285714285714</ele><time>2026-05-01T16:14:16.679Z</time></trkpt><trkpt lat="40.9514317" lon="9.385095"><ele>427.1428571428571</ele><time>2026-05-01T16:14:17.679Z</time></trkpt><trkpt lat="40.9514233" lon="9.38519"><ele>425.8571428571429</ele><time>2026-05-01T16:14:18.679Z</time></trkpt><trkpt lat="40.95142" lon="9.38528"><ele>424.57142857142856</ele><time>2026-05-01T16:14:19.679Z</time></trkpt><trkpt lat="40.9514033" lon="9.38537"><ele>423.2857142857143</ele><time>2026-05-01T16:14:20.679Z</time></trkpt><trkpt lat="40.9513917" lon="9.3854617"><ele>422.0</ele><time>2026-05-01T16:14:21.679Z</time></trkpt><trkpt lat="40.9513733" lon="9.3855433"><ele>419.66666666666663</ele><time>2026-05-01T16:14:22.679Z</time></trkpt><trkpt lat="40.9513583" lon="9.385665"><ele>417.3333333333333</ele><time>2026-05-01T16:14:24.679Z</time></trkpt><trkpt lat="40.9513733" lon="9.385775"><ele>415.0</ele><time>2026-05-01T16:14:26.679Z</time></trkpt><trkpt lat="40.9514233" lon="9.38584"><ele>412.66666666666663</ele><time>2026-05-01T16:14:28.679Z</time></trkpt><trkpt lat="40.951515" lon="9.3858517"><ele>410.3333333333333</ele><time>2026-05-01T16:14:31.679Z</time></trkpt><trkpt lat="40.9516133" lon="9.3858"><ele>408.0</ele><time>2026-05-01T16:14:33.679Z</time></trkpt><trkpt lat="40.95168" lon="9.3857533"><ele>406.3333333333333</ele><time>2026-05-01T16:14:34.679Z</time></trkpt><trkpt lat="40.9517567" lon="9.3857233"><ele>404.66666666666663</ele><time>2026-05-01T16:14:35.679Z</time></trkpt><trkpt lat="40.9518283" lon="9.3856783"><ele>403.0</ele><time>2026-05-01T16:14:36.679Z</time></trkpt><trkpt lat="40.9519" lon="9.3856367"><ele>401.3333333333333</ele><time>2026-05-01T16:14:37.679Z</time></trkpt><trkpt lat="40.9519983" lon="9.385605"><ele>399.66666666666663</ele><time>2026-05-01T16:14:38.679Z</time></trkpt><trkpt lat="40.9520867" lon="9.3855933"><ele>398.0</ele><time>2026-05-01T16:14:39.679Z</time></trkpt><trkpt lat="40.9521667" lon="9.3856017"><ele>397.99999999999994</ele><time>2026-05-01T16:14:40.679Z</time></trkpt><trkpt lat="40.952235" lon="9.38562"><ele>398.0</ele><time>2026-05-01T16:14:41.679Z</time></trkpt><trkpt lat="40.9523083" lon="9.3856267"><ele>398.0</ele><time>2026-05-01T16:14:42.679Z</time></trkpt><trkpt lat="40.952385" lon="9.38563"><ele>398.0</ele><time>2026-05-01T16:14:43.679Z</time></trkpt><trkpt lat="40.9524567" lon="9.3856167"><ele>398.0</ele><time>2026-05-01T16:14:44.679Z</time></trkpt><trkpt lat="40.9525283" lon="9.3856017"><ele>397.99999999999994</ele><time>2026-05-01T16:14:45.68Z</time></trkpt><trkpt lat="40.9525983" lon="9.3855867"><ele>398.0</ele><time>2026-05-01T16:14:46.68Z</time></trkpt><trkpt lat="40.9526667" lon="9.3855733"><ele>396.4</ele><time>2026-05-01T16:14:47.679Z</time></trkpt><trkpt lat="40.952745" lon="9.385555"><ele>394.79999999999995</ele><time>2026-05-01T16:14:48.679Z</time></trkpt><trkpt lat="40.952835" lon="9.3855383"><ele>393.2</ele><time>2026-05-01T16:14:49.679Z</time></trkpt><trkpt lat="40.95294" lon="9.3855083"><ele>391.6</ele><time>2026-05-01T16:14:50.679Z</time></trkpt><trkpt lat="40.9530317" lon="9.3854833"><ele>390.0</ele><time>2026-05-01T16:14:51.679Z</time></trkpt><trkpt lat="40.95313" lon="9.3854583"><ele>388.5</ele><time>2026-05-01T16:14:52.679Z</time></trkpt><trkpt lat="40.9532183" lon="9.3854367"><ele>387.0</ele><time>2026-05-01T16:14:53.679Z</time></trkpt><trkpt lat="40.9533033" lon="9.3854233"><ele>385.5</ele><time>2026-05-01T16:14:54.679Z</time></trkpt><trkpt lat="40.953395" lon="9.38541"><ele>384.0</ele><time>2026-05-01T16:14:55.679Z</time></trkpt><trkpt lat="40.9534883" lon="9.38541"><ele>382.5</ele><time>2026-05-01T16:14:56.679Z</time></trkpt><trkpt lat="40.9535733" lon="9.3854183"><ele>381.0</ele><time>2026-05-01T16:14:57.68Z</time></trkpt><trkpt lat="40.9536483" lon="9.3854283"><ele>378.3333333333333</ele><time>2026-05-01T16:14:58.679Z</time></trkpt><trkpt lat="40.95372" lon="9.38544"><ele>375.6666666666667</ele><time>2026-05-01T16:14:59.679Z</time></trkpt><trkpt lat="40.9537933" lon="9.385465"><ele>373.0</ele><time>2026-05-01T16:15:00.679Z</time></trkpt><trkpt lat="40.95386" lon="9.3854917"><ele>370.33333333333337</ele><time>2026-05-01T16:15:01.679Z</time></trkpt><trkpt lat="40.9539333" lon="9.3855617"><ele>367.6666666666667</ele><time>2026-05-01T16:15:03.679Z</time></trkpt><trkpt lat="40.9539767" lon="9.3856617"><ele>365.0</ele><time>2026-05-01T16:15:05.679Z</time></trkpt><trkpt lat="40.9539783" lon="9.3857983"><ele>365.0</ele><time>2026-05-01T16:15:07.679Z</time></trkpt><trkpt lat="40.9539983" lon="9.3859517"><ele>365.0</ele><time>2026-05-01T16:15:09.679Z</time></trkpt><trkpt lat="40.9540017" lon="9.3860367"><ele>365.0</ele><time>2026-05-01T16:15:10.679Z</time></trkpt><trkpt lat="40.9540133" lon="9.3861217"><ele>365.0</ele><time>2026-05-01T16:15:11.679Z</time></trkpt><trkpt lat="40.9540183" lon="9.3862083"><ele>365.0</ele><time>2026-05-01T16:15:12.679Z</time></trkpt><trkpt lat="40.9540183" lon="9.386295"><ele>365.0</ele><time>2026-05-01T16:15:13.679Z</time></trkpt><trkpt lat="40.954" lon="9.386395"><ele>365.42857142857144</ele><time>2026-05-01T16:15:14.679Z</time></trkpt><trkpt lat="40.9539767" lon="9.386485"><ele>365.8571428571429</ele><time>2026-05-01T16:15:15.679Z</time></trkpt><trkpt lat="40.95394" lon="9.38657"><ele>366.28571428571433</ele><time>2026-05-01T16:15:16.679Z</time></trkpt><trkpt lat="40.95392" lon="9.3866533"><ele>366.7142857142857</ele><time>2026-05-01T16:15:17.679Z</time></trkpt><trkpt lat="40.953915" lon="9.3867467"><ele>367.1428571428571</ele><time>2026-05-01T16:15:18.679Z</time></trkpt><trkpt lat="40.9539233" lon="9.3868417"><ele>367.5714285714286</ele><time>2026-05-01T16:15:19.679Z</time></trkpt><trkpt lat="40.9539433" lon="9.3869333"><ele>368.0</ele><time>2026-05-01T16:15:20.679Z</time></trkpt><trkpt lat="40.95397" lon="9.38702"><ele>368.0</ele><time>2026-05-01T16:15:21.679Z</time></trkpt><trkpt lat="40.95402" lon="9.38711"><ele>368.0</ele><time>2026-05-01T16:15:22.679Z</time></trkpt><trkpt lat="40.9540617" lon="9.3871833"><ele>368.0</ele><time>2026-05-01T16:15:23.679Z</time></trkpt><trkpt lat="40.9541117" lon="9.3872417"><ele>368.0</ele><time>2026-05-01T16:15:24.679Z</time></trkpt><trkpt lat="40.954235" lon="9.387295"><ele>368.0</ele><time>2026-05-01T16:15:26.679Z</time></trkpt><trkpt lat="40.954315" lon="9.3873117"><ele>368.0</ele><time>2026-05-01T16:15:27.679Z</time></trkpt><trkpt lat="40.9544" lon="9.3873217"><ele>366.0</ele><time>2026-05-01T16:15:28.679Z</time></trkpt><trkpt lat="40.954485" lon="9.387335"><ele>364.0</ele><time>2026-05-01T16:15:29.679Z</time></trkpt><trkpt lat="40.9545767" lon="9.387355"><ele>362.0</ele><time>2026-05-01T16:15:30.679Z</time></trkpt><trkpt lat="40.9546767" lon="9.3873767"><ele>360.0</ele><time>2026-05-01T16:15:31.679Z</time></trkpt><trkpt lat="40.9547683" lon="9.3873867"><ele>358.0</ele><time>2026-05-01T16:15:32.679Z</time></trkpt><trkpt lat="40.954855" lon="9.3873967"><ele>358.0</ele><time>2026-05-01T16:15:33.679Z</time></trkpt><trkpt lat="40.9549483" lon="9.38739"><ele>358.0</ele><time>2026-05-01T16:15:34.679Z</time></trkpt><trkpt lat="40.955025" lon="9.38741"><ele>358.0</ele><time>2026-05-01T16:15:35.679Z</time></trkpt><trkpt lat="40.9551" lon="9.3874317"><ele>358.0</ele><time>2026-05-01T16:15:36.679Z</time></trkpt><trkpt lat="40.9551783" lon="9.3874433"><ele>358.0</ele><time>2026-05-01T16:15:37.679Z</time></trkpt><trkpt lat="40.9552517" lon="9.3874633"><ele>358.0</ele><time>2026-05-01T16:15:38.679Z</time></trkpt><trkpt lat="40.95532" lon="9.3874917"><ele>357.2</ele><time>2026-05-01T16:15:39.679Z</time></trkpt><trkpt lat="40.955385" lon="9.3875217"><ele>356.4</ele><time>2026-05-01T16:15:40.679Z</time></trkpt><trkpt lat="40.9554483" lon="9.3875467"><ele>355.59999999999997</ele><time>2026-05-01T16:15:41.679Z</time></trkpt><trkpt lat="40.95551" lon="9.3875767"><ele>354.79999999999995</ele><time>2026-05-01T16:15:42.679Z</time></trkpt><trkpt lat="40.9556283" lon="9.38762"><ele>354.0</ele><time>2026-05-01T16:15:44.679Z</time></trkpt><trkpt lat="40.95576" lon="9.3876417"><ele>354.0</ele><time>2026-05-01T16:15:46.679Z</time></trkpt><trkpt lat="40.9558283" lon="9.38767"><ele>354.0</ele><time>2026-05-01T16:15:47.679Z</time></trkpt><trkpt lat="40.955905" lon="9.3876767"><ele>354.0</ele><time>2026-05-01T16:15:48.679Z</time></trkpt><trkpt lat="40.955985" lon="9.387675"><ele>354.0</ele><time>2026-05-01T16:15:49.679Z</time></trkpt><trkpt lat="40.95605" lon="9.387675"><ele>354.0</ele><time>2026-05-01T16:15:50.679Z</time></trkpt><trkpt lat="40.9561217" lon="9.38768"><ele>354.0</ele><time>2026-05-01T16:15:51.679Z</time></trkpt><trkpt lat="40.9562017" lon="9.3877133"><ele>354.0</ele><time>2026-05-01T16:15:52.679Z</time></trkpt><trkpt lat="40.95628" lon="9.3877217"><ele>351.8333333333333</ele><time>2026-05-01T16:15:53.679Z</time></trkpt><trkpt lat="40.9563617" lon="9.3877233"><ele>349.6666666666667</ele><time>2026-05-01T16:15:54.679Z</time></trkpt><trkpt lat="40.9564433" lon="9.3877267"><ele>347.5</ele><time>2026-05-01T16:15:55.679Z</time></trkpt><trkpt lat="40.9565283" lon="9.38773"><ele>345.33333333333337</ele><time>2026-05-01T16:15:56.679Z</time></trkpt><trkpt lat="40.9566133" lon="9.3877183"><ele>343.1666666666667</ele><time>2026-05-01T16:15:57.679Z</time></trkpt><trkpt lat="40.9566983" lon="9.3877167"><ele>341.0</ele><time>2026-05-01T16:15:58.679Z</time></trkpt><trkpt lat="40.956775" lon="9.3877117"><ele>339.5</ele><time>2026-05-01T16:15:59.679Z</time></trkpt><trkpt lat="40.9568483" lon="9.3877067"><ele>338.0</ele><time>2026-05-01T16:16:00.679Z</time></trkpt><trkpt lat="40.9569233" lon="9.3876983"><ele>336.5</ele><time>2026-05-01T16:16:01.679Z</time></trkpt><trkpt lat="40.9570067" lon="9.3876833"><ele>335.0</ele><time>2026-05-01T16:16:02.679Z</time></trkpt><trkpt lat="40.9570917" lon="9.3876633"><ele>333.5</ele><time>2026-05-01T16:16:03.679Z</time></trkpt><trkpt lat="40.9571733" lon="9.3876483"><ele>332.0</ele><time>2026-05-01T16:16:04.679Z</time></trkpt><trkpt lat="40.9572483" lon="9.38764"><ele>332.0</ele><time>2026-05-01T16:16:05.679Z</time></trkpt><trkpt lat="40.957325" lon="9.3876467"><ele>332.0</ele><time>2026-05-01T16:16:06.679Z</time></trkpt><trkpt lat="40.9574067" lon="9.3876817"><ele>332.0</ele><time>2026-05-01T16:16:07.679Z</time></trkpt><trkpt lat="40.9574817" lon="9.3877133"><ele>332.0</ele><time>2026-05-01T16:16:08.679Z</time></trkpt><trkpt lat="40.957585" lon="9.3877233"><ele>332.0</ele><time>2026-05-01T16:16:10.679Z</time></trkpt><trkpt lat="40.9576783" lon="9.3877"><ele>332.0</ele><time>2026-05-01T16:16:12.679Z</time></trkpt><trkpt lat="40.9577417" lon="9.38766"><ele>330.0</ele><time>2026-05-01T16:16:14.679Z</time></trkpt><trkpt lat="40.957815" lon="9.3876317"><ele>328.0</ele><time>2026-05-01T16:16:17.679Z</time></trkpt><trkpt lat="40.9578983" lon="9.3875983"><ele>326.0</ele><time>2026-05-01T16:16:19.679Z</time></trkpt><trkpt lat="40.957975" lon="9.387515"><ele>324.0</ele><time>2026-05-01T16:16:21.679Z</time></trkpt><trkpt lat="40.9580517" lon="9.387435"><ele>322.0</ele><time>2026-05-01T16:16:23.679Z</time></trkpt><trkpt lat="40.958125" lon="9.387395"><ele>320.0</ele><time>2026-05-01T16:16:25.679Z</time></trkpt><trkpt lat="40.9582133" lon="9.3874467"><ele>320.0</ele><time>2026-05-01T16:16:29.679Z</time></trkpt><trkpt lat="40.9582967" lon="9.3874433"><ele>320.0</ele><time>2026-05-01T16:16:33.679Z</time></trkpt><trkpt lat="40.9583967" lon="9.3874717"><ele>320.0</ele><time>2026-05-01T16:16:51.679Z</time></trkpt><trkpt lat="40.9584217" lon="9.38737"><ele>320.0</ele><time>2026-05-01T16:16:54.679Z</time></trkpt><trkpt lat="40.958465" lon="9.3873067"><ele>320.0</ele><time>2026-05-01T16:16:55.679Z</time></trkpt><trkpt lat="40.95851" lon="9.3871933"><ele>320.0</ele><time>2026-05-01T16:16:57.679Z</time></trkpt><trkpt lat="40.9585667" lon="9.3870683"><ele>318.2</ele><time>2026-05-01T16:16:59.679Z</time></trkpt><trkpt lat="40.9586283" lon="9.38691"><ele>316.4</ele><time>2026-05-01T16:17:01.679Z</time></trkpt><trkpt lat="40.9586767" lon="9.3868367"><ele>314.6</ele><time>2026-05-01T16:17:02.679Z</time></trkpt><trkpt lat="40.9587217" lon="9.3867783"><ele>312.8</ele><time>2026-05-01T16:17:03.679Z</time></trkpt><trkpt lat="40.9587717" lon="9.38672"><ele>311.0</ele><time>2026-05-01T16:17:04.679Z</time></trkpt><trkpt lat="40.9588767" lon="9.386655"><ele>311.0</ele><time>2026-05-01T16:17:06.679Z</time></trkpt><trkpt lat="40.95894" lon="9.3866517"><ele>311.0</ele><time>2026-05-01T16:17:07.679Z</time></trkpt><trkpt lat="40.95901" lon="9.386645"><ele>311.0</ele><time>2026-05-01T16:17:08.679Z</time></trkpt><trkpt lat="40.9590917" lon="9.386645"><ele>311.0</ele><time>2026-05-01T16:17:09.679Z</time></trkpt><trkpt lat="40.9591733" lon="9.38665"><ele>311.0</ele><time>2026-05-01T16:17:10.679Z</time></trkpt><trkpt lat="40.9592583" lon="9.3866533"><ele>311.0</ele><time>2026-05-01T16:17:11.679Z</time></trkpt><trkpt lat="40.9593417" lon="9.3866483"><ele>311.33333333333337</ele><time>2026-05-01T16:17:12.679Z</time></trkpt><trkpt lat="40.9594267" lon="9.3866417"><ele>311.6666666666667</ele><time>2026-05-01T16:17:13.679Z</time></trkpt><trkpt lat="40.959505" lon="9.3866433"><ele>312.0</ele><time>2026-05-01T16:17:14.679Z</time></trkpt><trkpt lat="40.9595867" lon="9.3866283"><ele>312.3333333333333</ele><time>2026-05-01T16:17:15.679Z</time></trkpt><trkpt lat="40.959665" lon="9.3866133"><ele>312.66666666666663</ele><time>2026-05-01T16:17:16.679Z</time></trkpt><trkpt lat="40.9597517" lon="9.3865883"><ele>313.0</ele><time>2026-05-01T16:17:17.679Z</time></trkpt><trkpt lat="40.959835" lon="9.3865733"><ele>313.0</ele><time>2026-05-01T16:17:18.679Z</time></trkpt><trkpt lat="40.9599183" lon="9.3865617"><ele>313.0</ele><time>2026-05-01T16:17:19.679Z</time></trkpt><trkpt lat="40.959995" lon="9.386545"><ele>313.0</ele><time>2026-05-01T16:17:20.679Z</time></trkpt><trkpt lat="40.9600617" lon="9.386515"><ele>313.0</ele><time>2026-05-01T16:17:21.679Z</time></trkpt><trkpt lat="40.9583967" lon="9.3874717"><ele>312.6</ele><time>2026-05-01T16:16:51.679Z</time></trkpt><trkpt lat="40.9584217" lon="9.38737"><ele>312.20000000000005</ele><time>2026-05-01T16:16:54.679Z</time></trkpt><trkpt lat="40.958465" lon="9.3873067"><ele>311.8</ele><time>2026-05-01T16:16:55.679Z</time></trkpt><trkpt lat="40.95851" lon="9.3871933"><ele>311.40000000000003</ele><time>2026-05-01T16:16:57.679Z</time></trkpt><trkpt lat="40.9585667" lon="9.3870683"><ele>311.0</ele><time>2026-05-01T16:16:59.679Z</time></trkpt><trkpt lat="40.9586283" lon="9.38691"><ele>311.0</ele><time>2026-05-01T16:17:01.679Z</time></trkpt><trkpt lat="40.9586767" lon="9.3868367"><ele>311.0</ele><time>2026-05-01T16:17:02.679Z</time></trkpt><trkpt lat="40.9587217" lon="9.3867783"><ele>311.0</ele><time>2026-05-01T16:17:03.679Z</time></trkpt><trkpt lat="40.9587717" lon="9.38672"><ele>311.0</ele><time>2026-05-01T16:17:04.679Z</time></trkpt><trkpt lat="40.9588767" lon="9.386655"><ele>311.0</ele><time>2026-05-01T16:17:06.679Z</time></trkpt><trkpt lat="40.95894" lon="9.3866517"><ele>311.0</ele><time>2026-05-01T16:17:07.679Z</time></trkpt><trkpt lat="40.95901" lon="9.386645"><ele>311.0</ele><time>2026-05-01T16:17:08.679Z</time></trkpt><trkpt lat="40.9590917" lon="9.386645"><ele>311.0</ele><time>2026-05-01T16:17:09.679Z</time></trkpt><trkpt lat="40.9591733" lon="9.38665"><ele>311.0</ele><time>2026-05-01T16:17:10.679Z</time></trkpt><trkpt lat="40.9592583" lon="9.3866533"><ele>311.0</ele><time>2026-05-01T16:17:11.679Z</time></trkpt><trkpt lat="40.9593417" lon="9.3866483"><ele>311.0</ele><time>2026-05-01T16:17:12.679Z</time></trkpt><trkpt lat="40.9594267" lon="9.3866417"><ele>311.0</ele><time>2026-05-01T16:17:13.679Z</time></trkpt><trkpt lat="40.959505" lon="9.3866433"><ele>311.33333333333337</ele><time>2026-05-01T16:17:14.679Z</time></trkpt><trkpt lat="40.9595867" lon="9.3866283"><ele>311.6666666666667</ele><time>2026-05-01T16:17:15.679Z</time></trkpt><trkpt lat="40.959665" lon="9.3866133"><ele>312.0</ele><time>2026-05-01T16:17:16.679Z</time></trkpt><trkpt lat="40.9597517" lon="9.3865883"><ele>312.3333333333333</ele><time>2026-05-01T16:17:17.679Z</time></trkpt><trkpt lat="40.959835" lon="9.3865733"><ele>312.66666666666663</ele><time>2026-05-01T16:17:18.679Z</time></trkpt><trkpt lat="40.9599183" lon="9.3865617"><ele>313.0</ele><time>2026-05-01T16:17:19.679Z</time></trkpt><trkpt lat="40.959995" lon="9.386545"><ele>314.3333333333333</ele><time>2026-05-01T16:17:20.679Z</time></trkpt><trkpt lat="40.9600617" lon="9.386515"><ele>315.66666666666663</ele><time>2026-05-01T16:17:21.679Z</time></trkpt><trkpt lat="40.9601283" lon="9.38648"><ele>317.0</ele><time>2026-05-01T16:17:22.679Z</time></trkpt><trkpt lat="40.960195" lon="9.38645"><ele>318.3333333333333</ele><time>2026-05-01T16:17:23.679Z</time></trkpt><trkpt lat="40.9602617" lon="9.3864"><ele>319.6666666666667</ele><time>2026-05-01T16:17:24.679Z</time></trkpt><trkpt lat="40.96034" lon="9.3863583"><ele>321.0</ele><time>2026-05-01T16:17:25.679Z</time></trkpt><trkpt lat="40.9604217" lon="9.386305"><ele>318.1666666666667</ele><time>2026-05-01T16:17:26.68Z</time></trkpt><trkpt lat="40.960495" lon="9.386265"><ele>315.3333333333333</ele><time>2026-05-01T16:17:27.679Z</time></trkpt><trkpt lat="40.9605617" lon="9.3862317"><ele>312.5</ele><time>2026-05-01T16:17:28.679Z</time></trkpt><trkpt lat="40.9606733" lon="9.38616"><ele>309.66666666666663</ele><time>2026-05-01T16:17:30.679Z</time></trkpt><trkpt lat="40.9607367" lon="9.3861267"><ele>306.8333333333333</ele><time>2026-05-01T16:17:31.679Z</time></trkpt><trkpt lat="40.9608033" lon="9.3861067"><ele>304.0</ele><time>2026-05-01T16:17:32.679Z</time></trkpt><trkpt lat="40.96087" lon="9.3860867"><ele>304.0</ele><time>2026-05-01T16:17:33.68Z</time></trkpt><trkpt lat="40.9609417" lon="9.3860667"><ele>304.0</ele><time>2026-05-01T16:17:34.679Z</time></trkpt><trkpt lat="40.9610067" lon="9.3860483"><ele>304.0</ele><time>2026-05-01T16:17:35.679Z</time></trkpt><trkpt lat="40.9610683" lon="9.3860217"><ele>304.0</ele><time>2026-05-01T16:17:36.679Z</time></trkpt><trkpt lat="40.9611317" lon="9.3859817"><ele>304.0</ele><time>2026-05-01T16:17:37.68Z</time></trkpt><trkpt lat="40.9611917" lon="9.3859383"><ele>304.0</ele><time>2026-05-01T16:17:38.679Z</time></trkpt><trkpt lat="40.9612733" lon="9.3859"><ele>304.0</ele><time>2026-05-01T16:17:39.679Z</time></trkpt><trkpt lat="40.961355" lon="9.385835"><ele>304.0</ele><time>2026-05-01T16:17:40.679Z</time></trkpt><trkpt lat="40.961435" lon="9.38577"><ele>304.0</ele><time>2026-05-01T16:17:41.679Z</time></trkpt><trkpt lat="40.9615017" lon="9.385715"><ele>304.0</ele><time>2026-05-01T16:17:42.679Z</time></trkpt><trkpt lat="40.9615667" lon="9.385655"><ele>304.0</ele><time>2026-05-01T16:17:43.679Z</time></trkpt><trkpt lat="40.9616267" lon="9.3856"><ele>304.0</ele><time>2026-05-01T16:17:44.679Z</time></trkpt><trkpt lat="40.96169" lon="9.3855483"><ele>304.0</ele><time>2026-05-01T16:17:45.68Z</time></trkpt><trkpt lat="40.9618017" lon="9.3854817"><ele>299.0</ele><time>2026-05-01T16:17:47.679Z</time></trkpt><trkpt lat="40.961905" lon="9.3854467"><ele>294.0</ele><time>2026-05-01T16:17:49.679Z</time></trkpt><trkpt lat="40.9619933" lon="9.3854667"><ele>289.0</ele><time>2026-05-01T16:17:51.679Z</time></trkpt><trkpt lat="40.9620267" lon="9.385575"><ele>284.0</ele><time>2026-05-01T16:17:53.679Z</time></trkpt><trkpt lat="40.9620633" lon="9.3856667"><ele>279.0</ele><time>2026-05-01T16:17:55.679Z</time></trkpt><trkpt lat="40.9621083" lon="9.3857683"><ele>278.99999999999994</ele><time>2026-05-01T16:17:57.679Z</time></trkpt><trkpt lat="40.962145" lon="9.38587"><ele>279.0</ele><time>2026-05-01T16:17:59.679Z</time></trkpt><trkpt lat="40.962175" lon="9.3859717"><ele>279.0</ele><time>2026-05-01T16:18:01.679Z</time></trkpt><trkpt lat="40.9622017" lon="9.3860483"><ele>279.0</ele><time>2026-05-01T16:18:03.679Z</time></trkpt><trkpt lat="40.9622167" lon="9.38615"><ele>279.0</ele><time>2026-05-01T16:18:05.679Z</time></trkpt><trkpt lat="40.9622267" lon="9.3862383"><ele>278.99999999999994</ele><time>2026-05-01T16:18:07.679Z</time></trkpt><trkpt lat="40.962205" lon="9.3863267"><ele>279.0</ele><time>2026-05-01T16:18:09.679Z</time></trkpt><trkpt lat="40.9622017" lon="9.3864433"><ele>280.8333333333333</ele><time>2026-05-01T16:18:11.679Z</time></trkpt><trkpt lat="40.9622217" lon="9.3865483"><ele>282.6666666666667</ele><time>2026-05-01T16:18:13.679Z</time></trkpt><trkpt lat="40.9622617" lon="9.3866333"><ele>284.5</ele><time>2026-05-01T16:18:15.679Z</time></trkpt><trkpt lat="40.9623217" lon="9.3866633"><ele>286.33333333333337</ele><time>2026-05-01T16:18:17.679Z</time></trkpt><trkpt lat="40.96239" lon="9.3867083"><ele>288.1666666666667</ele><time>2026-05-01T16:18:19.679Z</time></trkpt><trkpt lat="40.9624583" lon="9.3867583"><ele>290.0</ele><time>2026-05-01T16:18:21.68Z</time></trkpt><trkpt lat="40.962575" lon="9.3868017"><ele>286.0</ele><time>2026-05-01T16:19:27.679Z</time></trkpt><trkpt lat="40.9626417" lon="9.3868183"><ele>282.0</ele><time>2026-05-01T16:19:29.679Z</time></trkpt><trkpt lat="40.9627033" lon="9.38684"><ele>278.0</ele><time>2026-05-01T16:19:31.679Z</time></trkpt><trkpt lat="40.9627717" lon="9.3868617"><ele>274.0</ele><time>2026-05-01T16:19:33.679Z</time></trkpt><trkpt lat="40.9628583" lon="9.38688"><ele>270.0</ele><time>2026-05-01T16:19:36.679Z</time></trkpt><trkpt lat="40.962955" lon="9.38686"><ele>266.0</ele><time>2026-05-01T16:19:39.679Z</time></trkpt><trkpt lat="40.9630267" lon="9.3868417"><ele>266.0</ele><time>2026-05-01T16:19:41.68Z</time></trkpt><trkpt lat="40.9631083" lon="9.3867783"><ele>266.0</ele><time>2026-05-01T16:19:44.679Z</time></trkpt><trkpt lat="40.9631733" lon="9.38676"><ele>266.0</ele><time>2026-05-01T16:19:47.679Z</time></trkpt><trkpt lat="40.9632383" lon="9.386775"><ele>266.0</ele><time>2026-05-01T16:19:49.679Z</time></trkpt><trkpt lat="40.963325" lon="9.3867767"><ele>266.0</ele><time>2026-05-01T16:19:52.679Z</time></trkpt><trkpt lat="40.963405" lon="9.3867933"><ele>266.0</ele><time>2026-05-01T16:19:54.679Z</time></trkpt><trkpt lat="40.9635017" lon="9.3868033"><ele>264.33333333333337</ele><time>2026-05-01T16:19:56.679Z</time></trkpt><trkpt lat="40.963585" lon="9.3868017"><ele>262.6666666666667</ele><time>2026-05-01T16:19:58.679Z</time></trkpt><trkpt lat="40.963665" lon="9.3867733"><ele>261.0</ele><time>2026-05-01T16:20:00.679Z</time></trkpt><trkpt lat="40.9637283" lon="9.3867583"><ele>259.3333333333333</ele><time>2026-05-01T16:20:02.679Z</time></trkpt><trkpt lat="40.9638167" lon="9.3867467"><ele>257.66666666666663</ele><time>2026-05-01T16:20:09.679Z</time></trkpt><trkpt lat="40.96391" lon="9.3867767"><ele>256.0</ele><time>2026-05-01T16:20:12.68Z</time></trkpt><trkpt lat="40.9639817" lon="9.3868183"><ele>256.0</ele><time>2026-05-01T16:20:15.679Z</time></trkpt><trkpt lat="40.9640367" lon="9.3868817"><ele>255.99999999999997</ele><time>2026-05-01T16:20:42.679Z</time></trkpt><trkpt lat="40.9641" lon="9.3868883"><ele>256.0</ele><time>2026-05-01T16:20:44.679Z</time></trkpt><trkpt lat="40.964165" lon="9.3868983"><ele>256.0</ele><time>2026-05-01T16:20:46.679Z</time></trkpt><trkpt lat="40.9642417" lon="9.386895"><ele>255.99999999999997</ele><time>2026-05-01T16:20:48.679Z</time></trkpt><trkpt lat="40.96431" lon="9.38688"><ele>256.0</ele><time>2026-05-01T16:20:50.679Z</time></trkpt><trkpt lat="40.9643967" lon="9.3868567"><ele>256.0</ele><time>2026-05-01T16:20:52.679Z</time></trkpt><trkpt lat="40.964475" lon="9.3868017"><ele>253.83333333333331</ele><time>2026-05-01T16:20:54.679Z</time></trkpt><trkpt lat="40.9645517" lon="9.3867567"><ele>251.66666666666666</ele><time>2026-05-01T16:20:56.68Z</time></trkpt><trkpt lat="40.9646233" lon="9.3867267"><ele>249.5</ele><time>2026-05-01T16:20:59.679Z</time></trkpt><trkpt lat="40.9647" lon="9.38675"><ele>247.33333333333331</ele><time>2026-05-01T16:21:01.679Z</time></trkpt><trkpt lat="40.964785" lon="9.3867583"><ele>245.16666666666666</ele><time>2026-05-01T16:21:03.679Z</time></trkpt><trkpt lat="40.964875" lon="9.3867483"><ele>243.0</ele><time>2026-05-01T16:21:05.679Z</time></trkpt><trkpt lat="40.964965" lon="9.3867367"><ele>240.0</ele><time>2026-05-01T16:21:07.679Z</time></trkpt><trkpt lat="40.9650417" lon="9.3867067"><ele>237.0</ele><time>2026-05-01T16:21:09.679Z</time></trkpt><trkpt lat="40.9651133" lon="9.3866933"><ele>234.0</ele><time>2026-05-01T16:21:10.679Z</time></trkpt><trkpt lat="40.9651983" lon="9.386645"><ele>231.0</ele><time>2026-05-01T16:21:12.679Z</time></trkpt><trkpt lat="40.96525" lon="9.3865683"><ele>228.0</ele><time>2026-05-01T16:21:14.68Z</time></trkpt><trkpt lat="40.9652933" lon="9.3864717"><ele>225.0</ele><time>2026-05-01T16:21:16.679Z</time></trkpt><trkpt lat="40.9653067" lon="9.3863883"><ele>223.66666666666666</ele><time>2026-05-01T16:21:18.679Z</time></trkpt><trkpt lat="40.9653117" lon="9.3862983"><ele>222.33333333333331</ele><time>2026-05-01T16:21:20.679Z</time></trkpt><trkpt lat="40.9653633" lon="9.3862367"><ele>221.0</ele><time>2026-05-01T16:21:23.679Z</time></trkpt><trkpt lat="40.965445" lon="9.3862167"><ele>219.66666666666666</ele><time>2026-05-01T16:21:26.679Z</time></trkpt><trkpt lat="40.9655417" lon="9.38622"><ele>218.33333333333331</ele><time>2026-05-01T16:21:29.679Z</time></trkpt><trkpt lat="40.96563" lon="9.38623"><ele>217.0</ele><time>2026-05-01T16:21:31.679Z</time></trkpt><trkpt lat="40.965695" lon="9.38624"><ele>216.99999999999997</ele><time>2026-05-01T16:21:33.679Z</time></trkpt><trkpt lat="40.9657633" lon="9.38624"><ele>217.0</ele><time>2026-05-01T16:21:35.679Z</time></trkpt><trkpt lat="40.965815" lon="9.38629"><ele>217.0</ele><time>2026-05-01T16:21:38.679Z</time></trkpt><trkpt lat="40.9658667" lon="9.3864083"><ele>217.0</ele><time>2026-05-01T16:22:07.679Z</time></trkpt><trkpt lat="40.9658267" lon="9.3865217"><ele>216.99999999999997</ele><time>2026-05-01T16:22:11.679Z</time></trkpt><trkpt lat="40.9657817" lon="9.3866017"><ele>217.0</ele><time>2026-05-01T16:22:13.679Z</time></trkpt><trkpt lat="40.9657483" lon="9.3866833"><ele>218.14285714285714</ele><time>2026-05-01T16:22:15.679Z</time></trkpt><trkpt lat="40.9657267" lon="9.3867833"><ele>219.28571428571428</ele><time>2026-05-01T16:22:17.679Z</time></trkpt><trkpt lat="40.9657617" lon="9.3868917"><ele>220.42857142857144</ele><time>2026-05-01T16:22:20.679Z</time></trkpt><trkpt lat="40.9658317" lon="9.3868983"><ele>221.57142857142858</ele><time>2026-05-01T16:22:24.679Z</time></trkpt><trkpt lat="40.9659083" lon="9.3869267"><ele>222.71428571428572</ele><time>2026-05-01T16:22:38.679Z</time></trkpt><trkpt lat="40.9659617" lon="9.3869783"><ele>223.8571428571429</ele><time>2026-05-01T16:22:40.68Z</time></trkpt><trkpt lat="40.9660167" lon="9.3870267"><ele>225.00000000000003</ele><time>2026-05-01T16:22:42.679Z</time></trkpt><trkpt lat="40.966085" lon="9.3870433"><ele>221.71428571428575</ele><time>2026-05-01T16:22:44.679Z</time></trkpt><trkpt lat="40.9661783" lon="9.3870433"><ele>218.42857142857144</ele><time>2026-05-01T16:22:47.679Z</time></trkpt><trkpt lat="40.9662417" lon="9.3870533"><ele>215.14285714285717</ele><time>2026-05-01T16:22:49.68Z</time></trkpt><trkpt lat="40.9663117" lon="9.387055"><ele>211.8571428571429</ele><time>2026-05-01T16:22:51.679Z</time></trkpt><trkpt lat="40.9663817" lon="9.3870233"><ele>208.57142857142856</ele><time>2026-05-01T16:22:53.679Z</time></trkpt><trkpt lat="40.966445" lon="9.3869733"><ele>205.28571428571428</ele><time>2026-05-01T16:22:55.679Z</time></trkpt><trkpt lat="40.966505" lon="9.3869467"><ele>202.0</ele><time>2026-05-01T16:22:57.679Z</time></trkpt><trkpt lat="40.9665667" lon="9.3869067"><ele>201.99999999999997</ele><time>2026-05-01T16:22:59.679Z</time></trkpt><trkpt lat="40.9666667" lon="9.3868667"><ele>202.0</ele><time>2026-05-01T16:23:02.679Z</time></trkpt><trkpt lat="40.966735" lon="9.3868583"><ele>202.0</ele><time>2026-05-01T16:23:06.679Z</time></trkpt><trkpt lat="40.966805" lon="9.3868533"><ele>202.0</ele><time>2026-05-01T16:23:39.68Z</time></trkpt><trkpt lat="40.9668817" lon="9.3867983"><ele>201.99999999999997</ele><time>2026-05-01T16:23:42.679Z</time></trkpt><trkpt lat="40.9669583" lon="9.386745"><ele>202.0</ele><time>2026-05-01T16:23:44.679Z</time></trkpt><trkpt lat="40.967025" lon="9.38669"><ele>198.2</ele><time>2026-05-01T16:23:46.679Z</time></trkpt><trkpt lat="40.96708" lon="9.3866217"><ele>194.39999999999998</ele><time>2026-05-01T16:23:48.679Z</time></trkpt><trkpt lat="40.9671117" lon="9.3865267"><ele>190.60000000000002</ele><time>2026-05-01T16:23:50.679Z</time></trkpt><trkpt lat="40.9671083" lon="9.3864067"><ele>186.8</ele><time>2026-05-01T16:23:52.679Z</time></trkpt><trkpt lat="40.9670783" lon="9.3862633"><ele>183.0</ele><time>2026-05-01T16:23:54.679Z</time></trkpt><trkpt lat="40.9670517" lon="9.3861367"><ele>181.66666666666666</ele><time>2026-05-01T16:23:56.679Z</time></trkpt><trkpt lat="40.9670283" lon="9.3860167"><ele>180.33333333333334</ele><time>2026-05-01T16:23:58.679Z</time></trkpt><trkpt lat="40.9670167" lon="9.3858917"><ele>179.0</ele><time>2026-05-01T16:24:00.679Z</time></trkpt><trkpt lat="40.967" lon="9.38576"><ele>177.66666666666669</ele><time>2026-05-01T16:24:02.679Z</time></trkpt><trkpt lat="40.9670017" lon="9.3856633"><ele>176.33333333333334</ele><time>2026-05-01T16:24:03.679Z</time></trkpt><trkpt lat="40.9669967" lon="9.3855767"><ele>175.0</ele><time>2026-05-01T16:24:04.679Z</time></trkpt><trkpt lat="40.9669733" lon="9.3854183"><ele>173.0</ele><time>2026-05-01T16:24:06.679Z</time></trkpt><trkpt lat="40.9669433" lon="9.385345"><ele>171.0</ele><time>2026-05-01T16:24:07.679Z</time></trkpt><trkpt lat="40.966885" lon="9.3852367"><ele>169.0</ele><time>2026-05-01T16:24:09.679Z</time></trkpt><trkpt lat="40.966865" lon="9.3851183"><ele>167.0</ele><time>2026-05-01T16:24:11.679Z</time></trkpt><trkpt lat="40.966835" lon="9.3849917"><ele>165.0</ele><time>2026-05-01T16:24:13.679Z</time></trkpt><trkpt lat="40.9668067" lon="9.3849133"><ele>163.0</ele><time>2026-05-01T16:24:14.679Z</time></trkpt><trkpt lat="40.966735" lon="9.3848133"><ele>163.0</ele><time>2026-05-01T16:24:16.679Z</time></trkpt><trkpt lat="40.96669" lon="9.3847417"><ele>163.0</ele><time>2026-05-01T16:24:17.679Z</time></trkpt><trkpt lat="40.9666133" lon="9.3846617"><ele>163.0</ele><time>2026-05-01T16:24:19.679Z</time></trkpt><trkpt lat="40.966545" lon="9.384555"><ele>163.0</ele><time>2026-05-01T16:24:21.679Z</time></trkpt><trkpt lat="40.9664867" lon="9.3844667"><ele>163.0</ele><time>2026-05-01T16:24:23.679Z</time></trkpt><trkpt lat="40.9664367" lon="9.3843833"><ele>163.0</ele><time>2026-05-01T16:24:25.679Z</time></trkpt><trkpt lat="40.9663667" lon="9.3843317"><ele>163.0</ele><time>2026-05-01T16:24:27.679Z</time></trkpt><trkpt lat="40.9662933" lon="9.3842767"><ele>163.0</ele><time>2026-05-01T16:24:29.679Z</time></trkpt><trkpt lat="40.96622" lon="9.3842633"><ele>163.0</ele><time>2026-05-01T16:24:32.679Z</time></trkpt><trkpt lat="40.9661483" lon="9.38434"><ele>163.0</ele><time>2026-05-01T16:24:35.679Z</time></trkpt><trkpt lat="40.9660817" lon="9.3843983"><ele>163.0</ele><time>2026-05-01T16:24:37.679Z</time></trkpt><trkpt lat="40.96599" lon="9.384455"><ele>163.0</ele><time>2026-05-01T16:24:39.679Z</time></trkpt><trkpt lat="40.965925" lon="9.3844533"><ele>163.0</ele><time>2026-05-01T16:24:41.679Z</time></trkpt><trkpt lat="40.965865" lon="9.3843717"><ele>163.0</ele><time>2026-05-01T16:24:44.679Z</time></trkpt><trkpt lat="40.9658333" lon="9.384285"><ele>163.0</ele><time>2026-05-01T16:24:46.679Z</time></trkpt><trkpt lat="40.9658217" lon="9.3841867"><ele>163.0</ele><time>2026-05-01T16:24:48.679Z</time></trkpt><trkpt lat="40.9658117" lon="9.384075"><ele>163.0</ele><time>2026-05-01T16:24:50.679Z</time></trkpt><trkpt lat="40.9658133" lon="9.3839767"><ele>163.0</ele><time>2026-05-01T16:24:52.679Z</time></trkpt><trkpt lat="40.965845" lon="9.3838967"><ele>162.2857142857143</ele><time>2026-05-01T16:24:54.679Z</time></trkpt><trkpt lat="40.9658267" lon="9.38381"><ele>161.57142857142856</ele><time>2026-05-01T16:24:56.679Z</time></trkpt><trkpt lat="40.9657917" lon="9.3837317"><ele>160.85714285714286</ele><time>2026-05-01T16:24:58.679Z</time></trkpt><trkpt lat="40.96575" lon="9.383655"><ele>160.14285714285717</ele><time>2026-05-01T16:25:00.679Z</time></trkpt><trkpt lat="40.96569" lon="9.3835833"><ele>159.42857142857144</ele><time>2026-05-01T16:25:02.679Z</time></trkpt><trkpt lat="40.96563" lon="9.3835183"><ele>158.71428571428572</ele><time>2026-05-01T16:25:04.679Z</time></trkpt><trkpt lat="40.9655733" lon="9.3834467"><ele>158.0</ele><time>2026-05-01T16:25:07.679Z</time></trkpt><trkpt lat="40.9655617" lon="9.383355"><ele>158.0</ele><time>2026-05-01T16:25:11.679Z</time></trkpt><trkpt lat="40.965645" lon="9.3833317"><ele>158.0</ele><time>2026-05-01T16:25:14.679Z</time></trkpt><trkpt lat="40.965735" lon="9.3833433"><ele>158.0</ele><time>2026-05-01T16:25:17.679Z</time></trkpt><trkpt lat="40.9658217" lon="9.3832983"><ele>158.0</ele><time>2026-05-01T16:25:20.679Z</time></trkpt><trkpt lat="40.9658867" lon="9.3832533"><ele>158.0</ele><time>2026-05-01T16:25:22.679Z</time></trkpt><trkpt lat="40.965945" lon="9.3831967"><ele>158.0</ele><time>2026-05-01T16:25:24.679Z</time></trkpt><trkpt lat="40.966005" lon="9.3831167"><ele>156.71428571428572</ele><time>2026-05-01T16:25:27.679Z</time></trkpt><trkpt lat="40.9660567" lon="9.3830617"><ele>155.42857142857144</ele><time>2026-05-01T16:25:29.679Z</time></trkpt><trkpt lat="40.96612" lon="9.3829883"><ele>154.14285714285714</ele><time>2026-05-01T16:25:32.679Z</time></trkpt><trkpt lat="40.9661833" lon="9.3829383"><ele>152.85714285714286</ele><time>2026-05-01T16:25:35.678Z</time></trkpt><trkpt lat="40.9662583" lon="9.382915"><ele>151.57142857142856</ele><time>2026-05-01T16:25:37.678Z</time></trkpt><trkpt lat="40.9663117" lon="9.38287"><ele>150.28571428571428</ele><time>2026-05-01T16:25:38.678Z</time></trkpt><trkpt lat="40.9663733" lon="9.3828233"><ele>149.0</ele><time>2026-05-01T16:25:39.678Z</time></trkpt><trkpt lat="40.9664667" lon="9.3827633"><ele>147.83333333333331</ele><time>2026-05-01T16:25:41.678Z</time></trkpt><trkpt lat="40.9665433" lon="9.382745"><ele>146.66666666666666</ele><time>2026-05-01T16:25:43.678Z</time></trkpt><trkpt lat="40.9666333" lon="9.3827233"><ele>145.5</ele><time>2026-05-01T16:25:45.678Z</time></trkpt><trkpt lat="40.9667267" lon="9.3826933"><ele>144.33333333333334</ele><time>2026-05-01T16:25:47.678Z</time></trkpt><trkpt lat="40.9668017" lon="9.3826483"><ele>143.16666666666669</ele><time>2026-05-01T16:25:50.678Z</time></trkpt><trkpt lat="40.9668933" lon="9.3826533"><ele>142.0</ele><time>2026-05-01T16:25:53.678Z</time></trkpt><trkpt lat="40.9669817" lon="9.3827367"><ele>141.79999999999998</ele><time>2026-05-01T16:26:39.678Z</time></trkpt><trkpt lat="40.9670833" lon="9.3828467"><ele>141.6</ele><time>2026-05-01T16:26:41.678Z</time></trkpt><trkpt lat="40.9671483" lon="9.38291"><ele>141.39999999999998</ele><time>2026-05-01T16:26:42.678Z</time></trkpt><trkpt lat="40.9672117" lon="9.38297"><ele>141.2</ele><time>2026-05-01T16:26:43.678Z</time></trkpt><trkpt lat="40.967275" lon="9.38304"><ele>141.0</ele><time>2026-05-01T16:26:44.678Z</time></trkpt><trkpt lat="40.9673333" lon="9.3831117"><ele>141.0</ele><time>2026-05-01T16:26:45.678Z</time></trkpt><trkpt lat="40.9674" lon="9.383195"><ele>141.0</ele><time>2026-05-01T16:26:46.678Z</time></trkpt><trkpt lat="40.967465" lon="9.3832733"><ele>141.0</ele><time>2026-05-01T16:26:47.678Z</time></trkpt><trkpt lat="40.96755" lon="9.383375"><ele>141.0</ele><time>2026-05-01T16:26:48.678Z</time></trkpt><trkpt lat="40.9676317" lon="9.3834467"><ele>141.0</ele><time>2026-05-01T16:26:49.678Z</time></trkpt><trkpt lat="40.9677083" lon="9.383515"><ele>140.5</ele><time>2026-05-01T16:26:50.678Z</time></trkpt><trkpt lat="40.9677867" lon="9.3835767"><ele>140.0</ele><time>2026-05-01T16:26:51.678Z</time></trkpt><trkpt lat="40.9678617" lon="9.3836233"><ele>139.5</ele><time>2026-05-01T16:26:52.678Z</time></trkpt><trkpt lat="40.9679333" lon="9.3836683"><ele>139.0</ele><time>2026-05-01T16:26:53.678Z</time></trkpt><trkpt lat="40.9679983" lon="9.3837033"><ele>138.5</ele><time>2026-05-01T16:26:54.678Z</time></trkpt><trkpt lat="40.9680683" lon="9.3837417"><ele>138.0</ele><time>2026-05-01T16:26:55.678Z</time></trkpt><trkpt lat="40.9681667" lon="9.3837883"><ele>138.0</ele><time>2026-05-01T16:26:57.678Z</time></trkpt><trkpt lat="40.9682833" lon="9.3837583"><ele>138.0</ele><time>2026-05-01T16:26:59.678Z</time></trkpt><trkpt lat="40.9683917" lon="9.3837117"><ele>138.0</ele><time>2026-05-01T16:27:01.678Z</time></trkpt><trkpt lat="40.9684933" lon="9.3837167"><ele>138.0</ele><time>2026-05-01T16:27:03.678Z</time></trkpt><trkpt lat="40.9685783" lon="9.3837783"><ele>138.0</ele><time>2026-05-01T16:27:05.678Z</time></trkpt><trkpt lat="40.968665" lon="9.3837933"><ele>138.0</ele><time>2026-05-01T16:27:07.678Z</time></trkpt><trkpt lat="40.9687667" lon="9.38375"><ele>138.0</ele><time>2026-05-01T16:27:10.678Z</time></trkpt><trkpt lat="40.968845" lon="9.383755"><ele>138.0</ele><time>2026-05-01T16:27:12.678Z</time></trkpt><trkpt lat="40.968935" lon="9.38377"><ele>138.0</ele><time>2026-05-01T16:27:14.678Z</time></trkpt><trkpt lat="40.969035" lon="9.3837917"><ele>138.0</ele><time>2026-05-01T16:27:16.678Z</time></trkpt><trkpt lat="40.9691483" lon="9.3838067"><ele>138.66666666666666</ele><time>2026-05-01T16:27:18.678Z</time></trkpt><trkpt lat="40.9692683" lon="9.3838083"><ele>139.33333333333334</ele><time>2026-05-01T16:27:20.678Z</time></trkpt><trkpt lat="40.9693833" lon="9.3838383"><ele>140.0</ele><time>2026-05-01T16:27:22.678Z</time></trkpt><trkpt lat="40.9694483" lon="9.38386"><ele>140.66666666666669</ele><time>2026-05-01T16:27:23.678Z</time></trkpt><trkpt lat="40.969515" lon="9.383885"><ele>141.33333333333334</ele><time>2026-05-01T16:27:24.678Z</time></trkpt><trkpt lat="40.9695817" lon="9.3839183"><ele>142.0</ele><time>2026-05-01T16:27:25.678Z</time></trkpt><trkpt lat="40.96964" lon="9.3839533"><ele>142.0</ele><time>2026-05-01T16:27:26.678Z</time></trkpt><trkpt lat="40.96976" lon="9.384015"><ele>142.0</ele><time>2026-05-01T16:27:28.678Z</time></trkpt><trkpt lat="40.9698167" lon="9.38406"><ele>142.0</ele><time>2026-05-01T16:27:29.678Z</time></trkpt><trkpt lat="40.9699017" lon="9.384155"><ele>142.0</ele><time>2026-05-01T16:27:31.678Z</time></trkpt><trkpt lat="40.96994" lon="9.3842233"><ele>142.0</ele><time>2026-05-01T16:27:32.678Z</time></trkpt><trkpt lat="40.9699817" lon="9.384305"><ele>142.0</ele><time>2026-05-01T16:27:33.678Z</time></trkpt><trkpt lat="40.97006" lon="9.384415"><ele>145.75</ele><time>2026-05-01T16:27:34.678Z</time></trkpt><trkpt lat="40.9701233" lon="9.3845283"><ele>149.5</ele><time>2026-05-01T16:27:35.678Z</time></trkpt><trkpt lat="40.97019" lon="9.3846983"><ele>153.25</ele><time>2026-05-01T16:27:36.678Z</time></trkpt><trkpt lat="40.9702517" lon="9.3848833"><ele>157.0</ele><time>2026-05-01T16:27:37.678Z</time></trkpt><trkpt lat="40.9703183" lon="9.38507"><ele>157.0</ele><time>2026-05-01T16:27:38.678Z</time></trkpt><trkpt lat="40.9703817" lon="9.3852367"><ele>157.0</ele><time>2026-05-01T16:27:39.678Z</time></trkpt><trkpt lat="40.9704433" lon="9.3853667"><ele>157.0</ele><time>2026-05-01T16:27:40.678Z</time></trkpt><trkpt lat="40.9705133" lon="9.3854917"><ele>157.0</ele><time>2026-05-01T16:27:41.678Z</time></trkpt><trkpt lat="40.97058" lon="9.3856333"><ele>154.5</ele><time>2026-05-01T16:27:42.678Z</time></trkpt><trkpt lat="40.97064" lon="9.3857667"><ele>152.0</ele><time>2026-05-01T16:27:43.679Z</time></trkpt><trkpt lat="40.9707033" lon="9.3859067"><ele>149.5</ele><time>2026-05-01T16:27:44.678Z</time></trkpt><trkpt lat="40.9707583" lon="9.3860267"><ele>147.0</ele><time>2026-05-01T16:27:45.678Z</time></trkpt><trkpt lat="40.97082" lon="9.3861867"><ele>147.0</ele><time>2026-05-01T16:27:46.678Z</time></trkpt><trkpt lat="40.9708533" lon="9.3863333"><ele>147.0</ele><time>2026-05-01T16:27:47.678Z</time></trkpt><trkpt lat="40.9708783" lon="9.3864917"><ele>147.0</ele><time>2026-05-01T16:27:48.678Z</time></trkpt><trkpt lat="40.9708933" lon="9.3866267"><ele>147.0</ele><time>2026-05-01T16:27:49.678Z</time></trkpt><trkpt lat="40.9708933" lon="9.3867683"><ele>147.0</ele><time>2026-05-01T16:27:50.678Z</time></trkpt><trkpt lat="40.970885" lon="9.3869167"><ele>146.25</ele><time>2026-05-01T16:27:51.678Z</time></trkpt><trkpt lat="40.97088" lon="9.3870833"><ele>145.5</ele><time>2026-05-01T16:27:52.678Z</time></trkpt><trkpt lat="40.9708767" lon="9.3872567"><ele>144.75</ele><time>2026-05-01T16:27:53.678Z</time></trkpt><trkpt lat="40.9708883" lon="9.3874267"><ele>144.0</ele><time>2026-05-01T16:27:54.678Z</time></trkpt><trkpt lat="40.9709117" lon="9.3875833"><ele>144.0</ele><time>2026-05-01T16:27:55.678Z</time></trkpt><trkpt lat="40.97092" lon="9.387735"><ele>144.0</ele><time>2026-05-01T16:27:56.678Z</time></trkpt><trkpt lat="40.9709467" lon="9.387845"><ele>144.0</ele><time>2026-05-01T16:27:57.678Z</time></trkpt><trkpt lat="40.970955" lon="9.3879683"><ele>144.0</ele><time>2026-05-01T16:27:58.678Z</time></trkpt><trkpt lat="40.9709533" lon="9.3880783"><ele>144.0</ele><time>2026-05-01T16:27:59.678Z</time></trkpt><trkpt lat="40.9709267" lon="9.3881867"><ele>143.2</ele><time>2026-05-01T16:28:00.678Z</time></trkpt><trkpt lat="40.970875" lon="9.3882933"><ele>142.4</ele><time>2026-05-01T16:28:01.678Z</time></trkpt><trkpt lat="40.9708133" lon="9.3883967"><ele>141.6</ele><time>2026-05-01T16:28:02.678Z</time></trkpt><trkpt lat="40.9707583" lon="9.3885217"><ele>140.8</ele><time>2026-05-01T16:28:03.678Z</time></trkpt><trkpt lat="40.9706967" lon="9.3886533"><ele>140.0</ele><time>2026-05-01T16:28:04.678Z</time></trkpt><trkpt lat="40.97063" lon="9.3887867"><ele>139.75</ele><time>2026-05-01T16:28:05.678Z</time></trkpt><trkpt lat="40.97057" lon="9.3888933"><ele>139.5</ele><time>2026-05-01T16:28:06.678Z</time></trkpt><trkpt lat="40.9704933" lon="9.3890167"><ele>139.25</ele><time>2026-05-01T16:28:07.678Z</time></trkpt><trkpt lat="40.9704217" lon="9.389145"><ele>139.0</ele><time>2026-05-01T16:28:08.678Z</time></trkpt><trkpt lat="40.97037" lon="9.3892833"><ele>139.0</ele><time>2026-05-01T16:28:09.678Z</time></trkpt><trkpt lat="40.9703067" lon="9.3894"><ele>139.0</ele><time>2026-05-01T16:28:10.678Z</time></trkpt><trkpt lat="40.9702467" lon="9.3894967"><ele>139.0</ele><time>2026-05-01T16:28:11.678Z</time></trkpt><trkpt lat="40.9701883" lon="9.389605"><ele>139.0</ele><time>2026-05-01T16:28:12.678Z</time></trkpt><trkpt lat="40.9701417" lon="9.3897133"><ele>139.0</ele><time>2026-05-01T16:28:13.678Z</time></trkpt><trkpt lat="40.9701083" lon="9.3898383"><ele>138.8</ele><time>2026-05-01T16:28:14.678Z</time></trkpt><trkpt lat="40.97007" lon="9.3899567"><ele>138.60000000000002</ele><time>2026-05-01T16:28:15.678Z</time></trkpt><trkpt lat="40.970025" lon="9.3900717"><ele>138.4</ele><time>2026-05-01T16:28:16.678Z</time></trkpt><trkpt lat="40.9699717" lon="9.3901717"><ele>138.20000000000002</ele><time>2026-05-01T16:28:17.678Z</time></trkpt><trkpt lat="40.9698817" lon="9.3902433"><ele>138.0</ele><time>2026-05-01T16:28:18.678Z</time></trkpt><trkpt lat="40.9698283" lon="9.390325"><ele>138.0</ele><time>2026-05-01T16:28:19.678Z</time></trkpt><trkpt lat="40.969795" lon="9.3904267"><ele>138.0</ele><time>2026-05-01T16:28:20.678Z</time></trkpt><trkpt lat="40.9697583" lon="9.3905333"><ele>138.0</ele><time>2026-05-01T16:28:21.678Z</time></trkpt><trkpt lat="40.96974" lon="9.3906617"><ele>138.0</ele><time>2026-05-01T16:28:22.678Z</time></trkpt><trkpt lat="40.9697233" lon="9.390805"><ele>138.0</ele><time>2026-05-01T16:28:23.678Z</time></trkpt><trkpt lat="40.96971" lon="9.3909617"><ele>140.25</ele><time>2026-05-01T16:28:24.678Z</time></trkpt><trkpt lat="40.9697067" lon="9.391125"><ele>142.5</ele><time>2026-05-01T16:28:25.678Z</time></trkpt><trkpt lat="40.96971" lon="9.391295"><ele>144.75</ele><time>2026-05-01T16:28:26.678Z</time></trkpt><trkpt lat="40.9697117" lon="9.3914783"><ele>147.0</ele><time>2026-05-01T16:28:27.678Z</time></trkpt><trkpt lat="40.9697167" lon="9.3916567"><ele>147.4</ele><time>2026-05-01T16:28:28.678Z</time></trkpt><trkpt lat="40.969725" lon="9.39182"><ele>147.79999999999998</ele><time>2026-05-01T16:28:29.678Z</time></trkpt><trkpt lat="40.9697317" lon="9.3919617"><ele>148.2</ele><time>2026-05-01T16:28:30.678Z</time></trkpt><trkpt lat="40.9697417" lon="9.39209"><ele>148.6</ele><time>2026-05-01T16:28:31.679Z</time></trkpt><trkpt lat="40.9697517" lon="9.3922117"><ele>149.0</ele><time>2026-05-01T16:28:32.678Z</time></trkpt><trkpt lat="40.969775" lon="9.3923667"><ele>149.0</ele><time>2026-05-01T16:28:33.678Z</time></trkpt><trkpt lat="40.96981" lon="9.3925333"><ele>149.0</ele><time>2026-05-01T16:28:34.678Z</time></trkpt><trkpt lat="40.9698383" lon="9.392695"><ele>149.0</ele><time>2026-05-01T16:28:35.678Z</time></trkpt><trkpt lat="40.9698283" lon="9.3928633"><ele>149.0</ele><time>2026-05-01T16:28:36.678Z</time></trkpt><trkpt lat="40.9698183" lon="9.3930233"><ele>148.8</ele><time>2026-05-01T16:28:37.678Z</time></trkpt><trkpt lat="40.96981" lon="9.3931783"><ele>148.60000000000002</ele><time>2026-05-01T16:28:38.679Z</time></trkpt><trkpt lat="40.9697767" lon="9.3932983"><ele>148.4</ele><time>2026-05-01T16:28:39.678Z</time></trkpt><trkpt lat="40.96972" lon="9.393405"><ele>148.20000000000002</ele><time>2026-05-01T16:28:40.678Z</time></trkpt><trkpt lat="40.9696383" lon="9.3934833"><ele>148.0</ele><time>2026-05-01T16:28:41.678Z</time></trkpt><trkpt lat="40.9695783" lon="9.39357"><ele>148.0</ele><time>2026-05-01T16:28:42.678Z</time></trkpt><trkpt lat="40.9695317" lon="9.3936517"><ele>148.0</ele><time>2026-05-01T16:28:43.679Z</time></trkpt><trkpt lat="40.969495" lon="9.3937417"><ele>148.0</ele><time>2026-05-01T16:28:44.678Z</time></trkpt><trkpt lat="40.9694633" lon="9.3938533"><ele>148.0</ele><time>2026-05-01T16:28:45.678Z</time></trkpt><trkpt lat="40.9694483" lon="9.393975"><ele>148.0</ele><time>2026-05-01T16:28:46.678Z</time></trkpt><trkpt lat="40.9694367" lon="9.3941083"><ele>148.0</ele><time>2026-05-01T16:28:47.678Z</time></trkpt><trkpt lat="40.9694167" lon="9.3942333"><ele>147.66666666666669</ele><time>2026-05-01T16:28:48.678Z</time></trkpt><trkpt lat="40.969405" lon="9.3943567"><ele>147.33333333333334</ele><time>2026-05-01T16:28:49.678Z</time></trkpt><trkpt lat="40.9694483" lon="9.3944583"><ele>147.0</ele><time>2026-05-01T16:28:50.678Z</time></trkpt><trkpt lat="40.96948" lon="9.394555"><ele>146.66666666666666</ele><time>2026-05-01T16:28:51.678Z</time></trkpt><trkpt lat="40.9694917" lon="9.3946467"><ele>146.33333333333331</ele><time>2026-05-01T16:28:52.678Z</time></trkpt><trkpt lat="40.9694967" lon="9.3947383"><ele>146.0</ele><time>2026-05-01T16:28:53.678Z</time></trkpt><trkpt lat="40.9694983" lon="9.3948317"><ele>144.6</ele><time>2026-05-01T16:28:54.678Z</time></trkpt><trkpt lat="40.96948" lon="9.39492"><ele>143.2</ele><time>2026-05-01T16:28:55.678Z</time></trkpt><trkpt lat="40.9694483" lon="9.39502"><ele>141.8</ele><time>2026-05-01T16:28:56.678Z</time></trkpt><trkpt lat="40.9694133" lon="9.3951133"><ele>140.4</ele><time>2026-05-01T16:28:57.678Z</time></trkpt><trkpt lat="40.9693533" lon="9.3952633"><ele>139.0</ele><time>2026-05-01T16:28:59.679Z</time></trkpt><trkpt lat="40.9693267" lon="9.3954233"><ele>138.33333333333334</ele><time>2026-05-01T16:29:01.678Z</time></trkpt><trkpt lat="40.96933" lon="9.3955083"><ele>137.66666666666669</ele><time>2026-05-01T16:29:02.678Z</time></trkpt><trkpt lat="40.9693317" lon="9.3956133"><ele>137.0</ele><time>2026-05-01T16:29:03.678Z</time></trkpt><trkpt lat="40.9693467" lon="9.3957333"><ele>136.33333333333334</ele><time>2026-05-01T16:29:04.678Z</time></trkpt><trkpt lat="40.9693583" lon="9.3958583"><ele>135.66666666666666</ele><time>2026-05-01T16:29:05.678Z</time></trkpt><trkpt lat="40.9693683" lon="9.395985"><ele>135.0</ele><time>2026-05-01T16:29:06.678Z</time></trkpt><trkpt lat="40.9693633" lon="9.3961083"><ele>135.0</ele><time>2026-05-01T16:29:07.678Z</time></trkpt><trkpt lat="40.969345" lon="9.3962283"><ele>135.0</ele><time>2026-05-01T16:29:08.678Z</time></trkpt><trkpt lat="40.9693167" lon="9.3963283"><ele>135.0</ele><time>2026-05-01T16:29:09.678Z</time></trkpt><trkpt lat="40.9692717" lon="9.396425"><ele>135.0</ele><time>2026-05-01T16:29:10.678Z</time></trkpt><trkpt lat="40.9692117" lon="9.3965117"><ele>135.0</ele><time>2026-05-01T16:29:11.678Z</time></trkpt><trkpt lat="40.9691467" lon="9.3965967"><ele>135.0</ele><time>2026-05-01T16:29:12.678Z</time></trkpt><trkpt lat="40.9690967" lon="9.3966867"><ele>133.83333333333334</ele><time>2026-05-01T16:29:13.678Z</time></trkpt><trkpt lat="40.9690533" lon="9.3967883"><ele>132.66666666666666</ele><time>2026-05-01T16:29:14.678Z</time></trkpt><trkpt lat="40.9690167" lon="9.3968867"><ele>131.5</ele><time>2026-05-01T16:29:15.678Z</time></trkpt><trkpt lat="40.9690033" lon="9.3970017"><ele>130.33333333333331</ele><time>2026-05-01T16:29:16.678Z</time></trkpt><trkpt lat="40.9689833" lon="9.397115"><ele>129.16666666666666</ele><time>2026-05-01T16:29:17.678Z</time></trkpt><trkpt lat="40.968995" lon="9.39725"><ele>128.0</ele><time>2026-05-01T16:29:18.678Z</time></trkpt><trkpt lat="40.9690183" lon="9.397385"><ele>128.0</ele><time>2026-05-01T16:29:19.678Z</time></trkpt><trkpt lat="40.9690667" lon="9.3975383"><ele>128.0</ele><time>2026-05-01T16:29:20.678Z</time></trkpt><trkpt lat="40.969135" lon="9.3977067"><ele>128.0</ele><time>2026-05-01T16:29:21.678Z</time></trkpt><trkpt lat="40.96922" lon="9.3978767"><ele>128.0</ele><time>2026-05-01T16:29:22.678Z</time></trkpt><trkpt lat="40.969285" lon="9.39805"><ele>131.0</ele><time>2026-05-01T16:29:23.678Z</time></trkpt><trkpt lat="40.9693633" lon="9.3982333"><ele>134.0</ele><time>2026-05-01T16:29:24.679Z</time></trkpt><trkpt lat="40.9694467" lon="9.3984317"><ele>137.0</ele><time>2026-05-01T16:29:25.678Z</time></trkpt><trkpt lat="40.9695417" lon="9.3986033"><ele>137.0</ele><time>2026-05-01T16:29:26.678Z</time></trkpt><trkpt lat="40.96961" lon="9.3987867"><ele>137.0</ele><time>2026-05-01T16:29:27.678Z</time></trkpt><trkpt lat="40.9696583" lon="9.3989583"><ele>137.0</ele><time>2026-05-01T16:29:28.678Z</time></trkpt><trkpt lat="40.9696933" lon="9.39914"><ele>137.0</ele><time>2026-05-01T16:29:29.678Z</time></trkpt><trkpt lat="40.9697167" lon="9.39932"><ele>136.0</ele><time>2026-05-01T16:29:30.678Z</time></trkpt><trkpt lat="40.9697417" lon="9.3994883"><ele>135.0</ele><time>2026-05-01T16:29:31.678Z</time></trkpt><trkpt lat="40.9697633" lon="9.39965"><ele>134.0</ele><time>2026-05-01T16:29:32.678Z</time></trkpt><trkpt lat="40.96978" lon="9.399795"><ele>133.0</ele><time>2026-05-01T16:29:33.678Z</time></trkpt><trkpt lat="40.969775" lon="9.3999333"><ele>132.16666666666669</ele><time>2026-05-01T16:29:34.678Z</time></trkpt><trkpt lat="40.9697833" lon="9.4000633"><ele>131.33333333333334</ele><time>2026-05-01T16:29:35.678Z</time></trkpt><trkpt lat="40.969805" lon="9.400175"><ele>130.5</ele><time>2026-05-01T16:29:36.678Z</time></trkpt><trkpt lat="40.96981" lon="9.4002967"><ele>129.66666666666666</ele><time>2026-05-01T16:29:37.678Z</time></trkpt><trkpt lat="40.9698167" lon="9.400405"><ele>128.83333333333331</ele><time>2026-05-01T16:29:38.678Z</time></trkpt><trkpt lat="40.969815" lon="9.4005"><ele>128.0</ele><time>2026-05-01T16:29:39.678Z</time></trkpt><trkpt lat="40.96979" lon="9.4006133"><ele>126.60000000000001</ele><time>2026-05-01T16:29:41.678Z</time></trkpt><trkpt lat="40.9697833" lon="9.400705"><ele>125.20000000000002</ele><time>2026-05-01T16:29:43.678Z</time></trkpt><trkpt lat="40.9697067" lon="9.40076"><ele>123.8</ele><time>2026-05-01T16:30:33.678Z</time></trkpt><trkpt lat="40.969785" lon="9.4006633"><ele>122.4</ele><time>2026-05-01T16:32:01.678Z</time></trkpt><trkpt lat="40.969835" lon="9.4008283"><ele>121.0</ele><time>2026-05-01T16:32:27.678Z</time></trkpt><trkpt lat="40.9698817" lon="9.400935"><ele>121.0</ele><time>2026-05-01T16:32:28.678Z</time></trkpt><trkpt lat="40.969925" lon="9.4010517"><ele>121.0</ele><time>2026-05-01T16:32:29.678Z</time></trkpt><trkpt lat="40.9699733" lon="9.4011933"><ele>121.0</ele><time>2026-05-01T16:32:30.678Z</time></trkpt><trkpt lat="40.9700417" lon="9.4013317"><ele>121.0</ele><time>2026-05-01T16:32:31.678Z</time></trkpt><trkpt lat="40.9701133" lon="9.4014683"><ele>122.25</ele><time>2026-05-01T16:32:32.678Z</time></trkpt><trkpt lat="40.9701767" lon="9.40161"><ele>123.5</ele><time>2026-05-01T16:32:33.679Z</time></trkpt><trkpt lat="40.9702433" lon="9.40176"><ele>124.75</ele><time>2026-05-01T16:32:34.678Z</time></trkpt><trkpt lat="40.9703033" lon="9.4018867"><ele>126.0</ele><time>2026-05-01T16:32:35.678Z</time></trkpt><trkpt lat="40.970365" lon="9.402015"><ele>126.0</ele><time>2026-05-01T16:32:36.678Z</time></trkpt><trkpt lat="40.9704317" lon="9.402145"><ele>126.0</ele><time>2026-05-01T16:32:37.679Z</time></trkpt><trkpt lat="40.9704933" lon="9.402275"><ele>126.0</ele><time>2026-05-01T16:32:38.678Z</time></trkpt><trkpt lat="40.9705417" lon="9.4023933"><ele>126.0</ele><time>2026-05-01T16:32:39.679Z</time></trkpt><trkpt lat="40.9705867" lon="9.4025117"><ele>126.0</ele><time>2026-05-01T16:32:40.678Z</time></trkpt><trkpt lat="40.9706217" lon="9.4026583"><ele>125.19999999999999</ele><time>2026-05-01T16:32:41.678Z</time></trkpt><trkpt lat="40.9706383" lon="9.4028067"><ele>124.39999999999999</ele><time>2026-05-01T16:32:42.678Z</time></trkpt><trkpt lat="40.9706517" lon="9.4029467"><ele>123.6</ele><time>2026-05-01T16:32:43.678Z</time></trkpt><trkpt lat="40.9706567" lon="9.4030933"><ele>122.8</ele><time>2026-05-01T16:32:44.678Z</time></trkpt><trkpt lat="40.97067" lon="9.403245"><ele>122.0</ele><time>2026-05-01T16:32:45.678Z</time></trkpt><trkpt lat="40.9706783" lon="9.4034033"><ele>120.75</ele><time>2026-05-01T16:32:46.678Z</time></trkpt><trkpt lat="40.970695" lon="9.4035583"><ele>119.5</ele><time>2026-05-01T16:32:47.678Z</time></trkpt><trkpt lat="40.9707083" lon="9.4037133"><ele>118.25</ele><time>2026-05-01T16:32:48.679Z</time></trkpt><trkpt lat="40.970725" lon="9.40386"><ele>117.0</ele><time>2026-05-01T16:32:49.678Z</time></trkpt><trkpt lat="40.9707267" lon="9.4040133"><ele>116.25</ele><time>2026-05-01T16:32:50.678Z</time></trkpt><trkpt lat="40.970735" lon="9.4041683"><ele>115.5</ele><time>2026-05-01T16:32:51.678Z</time></trkpt><trkpt lat="40.9707733" lon="9.40432"><ele>114.75</ele><time>2026-05-01T16:32:52.678Z</time></trkpt><trkpt lat="40.9707917" lon="9.4044733"><ele>114.0</ele><time>2026-05-01T16:32:53.678Z</time></trkpt><trkpt lat="40.9707983" lon="9.4046233"><ele>113.6</ele><time>2026-05-01T16:32:54.678Z</time></trkpt><trkpt lat="40.970805" lon="9.4047617"><ele>113.2</ele><time>2026-05-01T16:32:55.678Z</time></trkpt><trkpt lat="40.970825" lon="9.4048983"><ele>112.79999999999998</ele><time>2026-05-01T16:32:56.678Z</time></trkpt><trkpt lat="40.9708517" lon="9.405035"><ele>112.39999999999999</ele><time>2026-05-01T16:32:57.678Z</time></trkpt><trkpt lat="40.9708817" lon="9.4051817"><ele>112.0</ele><time>2026-05-01T16:32:58.678Z</time></trkpt><trkpt lat="40.9709117" lon="9.4053283"><ele>114.8</ele><time>2026-05-01T16:32:59.678Z</time></trkpt><trkpt lat="40.9709483" lon="9.405475"><ele>117.6</ele><time>2026-05-01T16:33:00.678Z</time></trkpt><trkpt lat="40.970995" lon="9.4056067"><ele>120.39999999999999</ele><time>2026-05-01T16:33:01.678Z</time></trkpt><trkpt lat="40.97105" lon="9.4057233"><ele>123.19999999999999</ele><time>2026-05-01T16:33:02.678Z</time></trkpt><trkpt lat="40.9711017" lon="9.4058283"><ele>126.0</ele><time>2026-05-01T16:33:03.678Z</time></trkpt><trkpt lat="40.9711483" lon="9.4059367"><ele>126.0</ele><time>2026-05-01T16:33:04.678Z</time></trkpt><trkpt lat="40.97119" lon="9.4060333"><ele>126.0</ele><time>2026-05-01T16:33:05.678Z</time></trkpt><trkpt lat="40.9712417" lon="9.4061217"><ele>126.0</ele><time>2026-05-01T16:33:06.678Z</time></trkpt><trkpt lat="40.971285" lon="9.4061883"><ele>126.0</ele><time>2026-05-01T16:33:07.678Z</time></trkpt><trkpt lat="40.9713567" lon="9.4063117"><ele>126.0</ele><time>2026-05-01T16:33:09.678Z</time></trkpt><trkpt lat="40.97139" lon="9.406385"><ele>126.0</ele><time>2026-05-01T16:33:10.679Z</time></trkpt><trkpt lat="40.971445" lon="9.40655"><ele>124.6</ele><time>2026-05-01T16:33:12.678Z</time></trkpt><trkpt lat="40.97148" lon="9.4066467"><ele>123.19999999999999</ele><time>2026-05-01T16:33:13.678Z</time></trkpt><trkpt lat="40.9715217" lon="9.4067667"><ele>121.80000000000001</ele><time>2026-05-01T16:33:14.678Z</time></trkpt><trkpt lat="40.971575" lon="9.4068967"><ele>120.4</ele><time>2026-05-01T16:33:15.678Z</time></trkpt><trkpt lat="40.9716317" lon="9.407045"><ele>119.0</ele><time>2026-05-01T16:33:16.678Z</time></trkpt><trkpt lat="40.9716833" lon="9.4072"><ele>120.0</ele><time>2026-05-01T16:33:17.678Z</time></trkpt><trkpt lat="40.9717467" lon="9.4073667"><ele>121.0</ele><time>2026-05-01T16:33:18.678Z</time></trkpt><trkpt lat="40.971805" lon="9.407535"><ele>122.0</ele><time>2026-05-01T16:33:19.678Z</time></trkpt><trkpt lat="40.97186" lon="9.4077"><ele>123.0</ele><time>2026-05-01T16:33:20.678Z</time></trkpt><trkpt lat="40.9719133" lon="9.4078733"><ele>122.0</ele><time>2026-05-01T16:33:21.678Z</time></trkpt><trkpt lat="40.9719617" lon="9.4080433"><ele>121.0</ele><time>2026-05-01T16:33:22.678Z</time></trkpt><trkpt lat="40.9720117" lon="9.4082117"><ele>120.0</ele><time>2026-05-01T16:33:23.678Z</time></trkpt><trkpt lat="40.9720567" lon="9.4083867"><ele>119.0</ele><time>2026-05-01T16:33:24.678Z</time></trkpt><trkpt lat="40.972095" lon="9.4085717"><ele>119.0</ele><time>2026-05-01T16:33:25.678Z</time></trkpt><trkpt lat="40.97213" lon="9.4087533"><ele>119.0</ele><time>2026-05-01T16:33:26.678Z</time></trkpt><trkpt lat="40.9721667" lon="9.4089033"><ele>119.0</ele><time>2026-05-01T16:33:27.678Z</time></trkpt><trkpt lat="40.9721967" lon="9.4090383"><ele>119.0</ele><time>2026-05-01T16:33:28.678Z</time></trkpt><trkpt lat="40.97222" lon="9.4091633"><ele>118.4</ele><time>2026-05-01T16:33:29.678Z</time></trkpt><trkpt lat="40.97223" lon="9.4092783"><ele>117.80000000000001</ele><time>2026-05-01T16:33:30.678Z</time></trkpt><trkpt lat="40.9722417" lon="9.4093917"><ele>117.19999999999999</ele><time>2026-05-01T16:33:31.678Z</time></trkpt><trkpt lat="40.97226" lon="9.4095"><ele>116.6</ele><time>2026-05-01T16:33:32.678Z</time></trkpt><trkpt lat="40.9723383" lon="9.4096367"><ele>116.0</ele><time>2026-05-01T16:33:34.678Z</time></trkpt><trkpt lat="40.972395" lon="9.409705"><ele>114.8</ele><time>2026-05-01T16:33:35.678Z</time></trkpt><trkpt lat="40.9724783" lon="9.4097633"><ele>113.6</ele><time>2026-05-01T16:33:36.678Z</time></trkpt><trkpt lat="40.9725783" lon="9.4098233"><ele>112.4</ele><time>2026-05-01T16:33:37.678Z</time></trkpt><trkpt lat="40.9726883" lon="9.409865"><ele>111.2</ele><time>2026-05-01T16:33:38.678Z</time></trkpt><trkpt lat="40.97278" lon="9.4099033"><ele>110.0</ele><time>2026-05-01T16:33:39.678Z</time></trkpt><trkpt lat="40.9728767" lon="9.409945"><ele>110.0</ele><time>2026-05-01T16:33:40.678Z</time></trkpt><trkpt lat="40.9729683" lon="9.4099883"><ele>110.0</ele><time>2026-05-01T16:33:41.678Z</time></trkpt><trkpt lat="40.9730533" lon="9.41005"><ele>110.0</ele><time>2026-05-01T16:33:42.679Z</time></trkpt><trkpt lat="40.9731417" lon="9.41013"><ele>110.0</ele><time>2026-05-01T16:33:43.678Z</time></trkpt><trkpt lat="40.97323" lon="9.41024"><ele>110.0</ele><time>2026-05-01T16:33:44.678Z</time></trkpt><trkpt lat="40.9733017" lon="9.41034"><ele>111.0</ele><time>2026-05-01T16:33:45.678Z</time></trkpt><trkpt lat="40.97336" lon="9.410455"><ele>112.0</ele><time>2026-05-01T16:33:46.678Z</time></trkpt><trkpt lat="40.973415" lon="9.4105867"><ele>113.0</ele><time>2026-05-01T16:33:47.678Z</time></trkpt><trkpt lat="40.9734667" lon="9.41073"><ele>114.0</ele><time>2026-05-01T16:33:48.678Z</time></trkpt><trkpt lat="40.9735167" lon="9.4109117"><ele>114.0</ele><time>2026-05-01T16:33:49.678Z</time></trkpt><trkpt lat="40.9735667" lon="9.4111"><ele>114.0</ele><time>2026-05-01T16:33:50.678Z</time></trkpt><trkpt lat="40.9736067" lon="9.4112817"><ele>114.0</ele><time>2026-05-01T16:33:51.678Z</time></trkpt><trkpt lat="40.9736483" lon="9.4114383"><ele>114.0</ele><time>2026-05-01T16:33:52.678Z</time></trkpt><trkpt lat="40.9736933" lon="9.4115867"><ele>112.0</ele><time>2026-05-01T16:33:53.678Z</time></trkpt><trkpt lat="40.9737483" lon="9.4117233"><ele>110.0</ele><time>2026-05-01T16:33:54.678Z</time></trkpt><trkpt lat="40.9738233" lon="9.411875"><ele>108.0</ele><time>2026-05-01T16:33:55.678Z</time></trkpt><trkpt lat="40.9739217" lon="9.4120283"><ele>106.0</ele><time>2026-05-01T16:33:56.678Z</time></trkpt><trkpt lat="40.9740233" lon="9.4121867"><ele>105.66666666666667</ele><time>2026-05-01T16:33:57.679Z</time></trkpt><trkpt lat="40.9741233" lon="9.412355"><ele>105.33333333333334</ele><time>2026-05-01T16:33:58.678Z</time></trkpt><trkpt lat="40.974225" lon="9.41252"><ele>105.0</ele><time>2026-05-01T16:33:59.678Z</time></trkpt><trkpt lat="40.974325" lon="9.4126833"><ele>105.0</ele><time>2026-05-01T16:34:00.678Z</time></trkpt><trkpt lat="40.97441" lon="9.4128383"><ele>105.0</ele><time>2026-05-01T16:34:01.678Z</time></trkpt><trkpt lat="40.9744917" lon="9.4129867"><ele>105.0</ele><time>2026-05-01T16:34:02.679Z</time></trkpt><trkpt lat="40.9745833" lon="9.413135"><ele>105.0</ele><time>2026-05-01T16:34:03.678Z</time></trkpt><trkpt lat="40.9746633" lon="9.413285"><ele>103.5</ele><time>2026-05-01T16:34:04.678Z</time></trkpt><trkpt lat="40.974725" lon="9.41343"><ele>102.0</ele><time>2026-05-01T16:34:05.678Z</time></trkpt><trkpt lat="40.9747933" lon="9.4135717"><ele>100.5</ele><time>2026-05-01T16:34:06.678Z</time></trkpt><trkpt lat="40.9748617" lon="9.41372"><ele>99.0</ele><time>2026-05-01T16:34:07.678Z</time></trkpt><trkpt lat="40.9749217" lon="9.4138617"><ele>98.4</ele><time>2026-05-01T16:34:08.678Z</time></trkpt><trkpt lat="40.9749767" lon="9.4140017"><ele>97.80000000000001</ele><time>2026-05-01T16:34:09.678Z</time></trkpt><trkpt lat="40.9750367" lon="9.4141233"><ele>97.19999999999999</ele><time>2026-05-01T16:34:10.678Z</time></trkpt><trkpt lat="40.97509" lon="9.4142533"><ele>96.6</ele><time>2026-05-01T16:34:11.678Z</time></trkpt><trkpt lat="40.975135" lon="9.41437"><ele>96.0</ele><time>2026-05-01T16:34:12.678Z</time></trkpt><trkpt lat="40.9751767" lon="9.4144733"><ele>96.0</ele><time>2026-05-01T16:34:13.678Z</time></trkpt><trkpt lat="40.9752183" lon="9.4145783"><ele>96.0</ele><time>2026-05-01T16:34:14.678Z</time></trkpt><trkpt lat="40.9752583" lon="9.4146917"><ele>96.0</ele><time>2026-05-01T16:34:15.678Z</time></trkpt><trkpt lat="40.9753133" lon="9.4148183"><ele>96.0</ele><time>2026-05-01T16:34:16.678Z</time></trkpt><trkpt lat="40.9753717" lon="9.4149317"><ele>96.0</ele><time>2026-05-01T16:34:17.678Z</time></trkpt><trkpt lat="40.9754383" lon="9.4150517"><ele>95.83333333333333</ele><time>2026-05-01T16:34:18.679Z</time></trkpt><trkpt lat="40.9755017" lon="9.41517"><ele>95.66666666666667</ele><time>2026-05-01T16:34:19.678Z</time></trkpt><trkpt lat="40.9755583" lon="9.4152667"><ele>95.5</ele><time>2026-05-01T16:34:20.678Z</time></trkpt><trkpt lat="40.9756033" lon="9.4153467"><ele>95.33333333333334</ele><time>2026-05-01T16:34:21.678Z</time></trkpt><trkpt lat="40.97565" lon="9.4154217"><ele>95.16666666666667</ele><time>2026-05-01T16:34:22.678Z</time></trkpt><trkpt lat="40.9756967" lon="9.415495"><ele>95.0</ele><time>2026-05-01T16:34:23.679Z</time></trkpt><trkpt lat="40.9757917" lon="9.4156017"><ele>94.28571428571429</ele><time>2026-05-01T16:34:25.678Z</time></trkpt><trkpt lat="40.9758567" lon="9.41561"><ele>93.57142857142858</ele><time>2026-05-01T16:34:26.678Z</time></trkpt><trkpt lat="40.97593" lon="9.4155983"><ele>92.85714285714286</ele><time>2026-05-01T16:34:27.678Z</time></trkpt><trkpt lat="40.9759967" lon="9.4156167"><ele>92.14285714285714</ele><time>2026-05-01T16:34:28.678Z</time></trkpt><trkpt lat="40.97606" lon="9.41563"><ele>91.42857142857143</ele><time>2026-05-01T16:34:29.678Z</time></trkpt><trkpt lat="40.9761267" lon="9.4156733"><ele>90.71428571428571</ele><time>2026-05-01T16:34:30.678Z</time></trkpt><trkpt lat="40.9762017" lon="9.4157167"><ele>90.0</ele><time>2026-05-01T16:34:31.678Z</time></trkpt><trkpt lat="40.97628" lon="9.4157617"><ele>90.0</ele><time>2026-05-01T16:34:32.678Z</time></trkpt><trkpt lat="40.9763717" lon="9.4158167"><ele>90.0</ele><time>2026-05-01T16:34:33.678Z</time></trkpt><trkpt lat="40.9764683" lon="9.4158783"><ele>90.0</ele><time>2026-05-01T16:34:34.678Z</time></trkpt><trkpt lat="40.97658" lon="9.4159367"><ele>90.0</ele><time>2026-05-01T16:34:35.678Z</time></trkpt><trkpt lat="40.976695" lon="9.4159917"><ele>90.75</ele><time>2026-05-01T16:34:36.678Z</time></trkpt><trkpt lat="40.976825" lon="9.4160533"><ele>91.5</ele><time>2026-05-01T16:34:37.678Z</time></trkpt><trkpt lat="40.976955" lon="9.4160917"><ele>92.25</ele><time>2026-05-01T16:34:38.678Z</time></trkpt><trkpt lat="40.9770933" lon="9.41613"><ele>93.0</ele><time>2026-05-01T16:34:39.678Z</time></trkpt><trkpt lat="40.97721" lon="9.4161667"><ele>93.0</ele><time>2026-05-01T16:34:40.678Z</time></trkpt><trkpt lat="40.9773183" lon="9.4162217"><ele>93.0</ele><time>2026-05-01T16:34:41.679Z</time></trkpt><trkpt lat="40.97743" lon="9.4162717"><ele>93.0</ele><time>2026-05-01T16:34:42.678Z</time></trkpt><trkpt lat="40.97755" lon="9.41631"><ele>93.0</ele><time>2026-05-01T16:34:43.678Z</time></trkpt><trkpt lat="40.9776617" lon="9.4163433"><ele>91.75</ele><time>2026-05-01T16:34:44.678Z</time></trkpt><trkpt lat="40.9777683" lon="9.4163633"><ele>90.5</ele><time>2026-05-01T16:34:45.678Z</time></trkpt><trkpt lat="40.9778933" lon="9.416365"><ele>89.25</ele><time>2026-05-01T16:34:46.678Z</time></trkpt><trkpt lat="40.9780333" lon="9.4163667"><ele>88.0</ele><time>2026-05-01T16:34:47.678Z</time></trkpt><trkpt lat="40.97818" lon="9.4163567"><ele>88.0</ele><time>2026-05-01T16:34:48.678Z</time></trkpt><trkpt lat="40.9783167" lon="9.41634"><ele>88.0</ele><time>2026-05-01T16:34:49.678Z</time></trkpt><trkpt lat="40.97844" lon="9.41632"><ele>88.0</ele><time>2026-05-01T16:34:50.678Z</time></trkpt><trkpt lat="40.97857" lon="9.41629"><ele>88.0</ele><time>2026-05-01T16:34:51.678Z</time></trkpt><trkpt lat="40.978705" lon="9.41625"><ele>88.33333333333333</ele><time>2026-05-01T16:34:52.678Z</time></trkpt><trkpt lat="40.9788383" lon="9.4161883"><ele>88.66666666666667</ele><time>2026-05-01T16:34:53.678Z</time></trkpt><trkpt lat="40.978975" lon="9.4161167"><ele>89.0</ele><time>2026-05-01T16:34:54.678Z</time></trkpt><trkpt lat="40.9791233" lon="9.4160183"><ele>88.5</ele><time>2026-05-01T16:34:55.678Z</time></trkpt><trkpt lat="40.979265" lon="9.4159233"><ele>88.0</ele><time>2026-05-01T16:34:56.678Z</time></trkpt><trkpt lat="40.9793983" lon="9.4158517"><ele>87.5</ele><time>2026-05-01T16:34:57.678Z</time></trkpt><trkpt lat="40.97952" lon="9.4157817"><ele>87.0</ele><time>2026-05-01T16:34:58.678Z</time></trkpt><trkpt lat="40.9796283" lon="9.4156983"><ele>87.0</ele><time>2026-05-01T16:34:59.678Z</time></trkpt><trkpt lat="40.9797167" lon="9.4156033"><ele>87.0</ele><time>2026-05-01T16:35:00.678Z</time></trkpt><trkpt lat="40.9797917" lon="9.4155283"><ele>87.0</ele><time>2026-05-01T16:35:01.678Z</time></trkpt><trkpt lat="40.9798533" lon="9.4154833"><ele>87.0</ele><time>2026-05-01T16:35:02.678Z</time></trkpt><trkpt lat="40.9799417" lon="9.4154083"><ele>87.0</ele><time>2026-05-01T16:35:03.678Z</time></trkpt><trkpt lat="40.9800033" lon="9.4153517"><ele>86.39999999999999</ele><time>2026-05-01T16:35:04.678Z</time></trkpt><trkpt lat="40.98008" lon="9.4152967"><ele>85.8</ele><time>2026-05-01T16:35:05.678Z</time></trkpt><trkpt lat="40.9801517" lon="9.4152583"><ele>85.2</ele><time>2026-05-01T16:35:06.678Z</time></trkpt><trkpt lat="40.98025" lon="9.4151933"><ele>84.6</ele><time>2026-05-01T16:35:07.678Z</time></trkpt><trkpt lat="40.98034" lon="9.4151333"><ele>84.0</ele><time>2026-05-01T16:35:08.678Z</time></trkpt><trkpt lat="40.980445" lon="9.4150917"><ele>84.0</ele><time>2026-05-01T16:35:09.678Z</time></trkpt><trkpt lat="40.98056" lon="9.41505"><ele>84.0</ele><time>2026-05-01T16:35:10.678Z</time></trkpt><trkpt lat="40.9806717" lon="9.41499"><ele>84.0</ele><time>2026-05-01T16:35:11.678Z</time></trkpt><trkpt lat="40.980785" lon="9.414925"><ele>84.0</ele><time>2026-05-01T16:35:12.678Z</time></trkpt><trkpt lat="40.9809083" lon="9.4148667"><ele>83.6</ele><time>2026-05-01T16:35:13.678Z</time></trkpt><trkpt lat="40.9810217" lon="9.4148233"><ele>83.2</ele><time>2026-05-01T16:35:14.678Z</time></trkpt><trkpt lat="40.9811233" lon="9.4147717"><ele>82.8</ele><time>2026-05-01T16:35:15.678Z</time></trkpt><trkpt lat="40.9812133" lon="9.4147467"><ele>82.39999999999999</ele><time>2026-05-01T16:35:16.678Z</time></trkpt><trkpt lat="40.9813117" lon="9.4147267"><ele>82.0</ele><time>2026-05-01T16:35:17.678Z</time></trkpt><trkpt lat="40.9814083" lon="9.4147083"><ele>82.0</ele><time>2026-05-01T16:35:18.678Z</time></trkpt><trkpt lat="40.9814933" lon="9.4146933"><ele>82.0</ele><time>2026-05-01T16:35:19.678Z</time></trkpt><trkpt lat="40.98157" lon="9.4146767"><ele>82.0</ele><time>2026-05-01T16:35:20.678Z</time></trkpt><trkpt lat="40.9816383" lon="9.4146517"><ele>82.0</ele><time>2026-05-01T16:35:21.678Z</time></trkpt><trkpt lat="40.9817583" lon="9.414625"><ele>82.0</ele><time>2026-05-01T16:35:23.678Z</time></trkpt><trkpt lat="40.9818733" lon="9.4146067"><ele>83.0</ele><time>2026-05-01T16:35:25.678Z</time></trkpt><trkpt lat="40.9819383" lon="9.4145833"><ele>84.0</ele><time>2026-05-01T16:35:26.678Z</time></trkpt><trkpt lat="40.9820167" lon="9.414565"><ele>85.0</ele><time>2026-05-01T16:35:27.678Z</time></trkpt><trkpt lat="40.9821067" lon="9.4145567"><ele>86.0</ele><time>2026-05-01T16:35:28.678Z</time></trkpt><trkpt lat="40.9821967" lon="9.4145567"><ele>87.0</ele><time>2026-05-01T16:35:29.678Z</time></trkpt><trkpt lat="40.982275" lon="9.4145383"><ele>88.0</ele><time>2026-05-01T16:35:30.678Z</time></trkpt><trkpt lat="40.98237" lon="9.4145167"><ele>88.0</ele><time>2026-05-01T16:35:31.678Z</time></trkpt><trkpt lat="40.98247" lon="9.4144817"><ele>88.0</ele><time>2026-05-01T16:35:32.678Z</time></trkpt><trkpt lat="40.982575" lon="9.414455"><ele>88.0</ele><time>2026-05-01T16:35:33.678Z</time></trkpt><trkpt lat="40.982675" lon="9.4144267"><ele>88.0</ele><time>2026-05-01T16:35:34.678Z</time></trkpt><trkpt lat="40.9827733" lon="9.4144083"><ele>88.0</ele><time>2026-05-01T16:35:35.678Z</time></trkpt><trkpt lat="40.9828783" lon="9.414395"><ele>88.83333333333333</ele><time>2026-05-01T16:35:36.678Z</time></trkpt><trkpt lat="40.982975" lon="9.4143917"><ele>89.66666666666666</ele><time>2026-05-01T16:35:37.678Z</time></trkpt><trkpt lat="40.9830583" lon="9.4144083"><ele>90.5</ele><time>2026-05-01T16:35:38.678Z</time></trkpt><trkpt lat="40.9831383" lon="9.414445"><ele>91.33333333333333</ele><time>2026-05-01T16:35:39.678Z</time></trkpt><trkpt lat="40.98321" lon="9.4144783"><ele>92.16666666666667</ele><time>2026-05-01T16:35:40.678Z</time></trkpt><trkpt lat="40.9832917" lon="9.4145333"><ele>93.0</ele><time>2026-05-01T16:35:41.678Z</time></trkpt><trkpt lat="40.9833617" lon="9.4146433"><ele>91.0</ele><time>2026-05-01T16:35:42.678Z</time></trkpt><trkpt lat="40.983435" lon="9.4147467"><ele>89.0</ele><time>2026-05-01T16:35:43.678Z</time></trkpt><trkpt lat="40.9835133" lon="9.414825"><ele>87.0</ele><time>2026-05-01T16:35:44.678Z</time></trkpt><trkpt lat="40.98359" lon="9.4148817"><ele>85.0</ele><time>2026-05-01T16:35:45.678Z</time></trkpt><trkpt lat="40.9836733" lon="9.414945"><ele>83.0</ele><time>2026-05-01T16:35:46.678Z</time></trkpt><trkpt lat="40.9837633" lon="9.4149767"><ele>83.0</ele><time>2026-05-01T16:35:47.678Z</time></trkpt><trkpt lat="40.9838517" lon="9.4150033"><ele>83.0</ele><time>2026-05-01T16:35:48.678Z</time></trkpt><trkpt lat="40.983965" lon="9.415"><ele>83.0</ele><time>2026-05-01T16:35:49.678Z</time></trkpt><trkpt lat="40.9840883" lon="9.4149717"><ele>83.0</ele><time>2026-05-01T16:35:50.679Z</time></trkpt><trkpt lat="40.984215" lon="9.4149317"><ele>82.0</ele><time>2026-05-01T16:35:51.678Z</time></trkpt><trkpt lat="40.984365" lon="9.4148967"><ele>81.0</ele><time>2026-05-01T16:35:52.678Z</time></trkpt><trkpt lat="40.9845217" lon="9.414855"><ele>80.0</ele><time>2026-05-01T16:35:53.678Z</time></trkpt><trkpt lat="40.98468" lon="9.4148067"><ele>80.0</ele><time>2026-05-01T16:35:54.679Z</time></trkpt><trkpt lat="40.9848217" lon="9.41477"><ele>80.0</ele><time>2026-05-01T16:35:55.678Z</time></trkpt><trkpt lat="40.9849633" lon="9.41474"><ele>80.0</ele><time>2026-05-01T16:35:56.678Z</time></trkpt><trkpt lat="40.9851117" lon="9.414705"><ele>80.0</ele><time>2026-05-01T16:35:57.678Z</time></trkpt><trkpt lat="40.985255" lon="9.4146667"><ele>83.0</ele><time>2026-05-01T16:35:58.678Z</time></trkpt><trkpt lat="40.98539" lon="9.414625"><ele>86.0</ele><time>2026-05-01T16:35:59.678Z</time></trkpt><trkpt lat="40.985515" lon="9.41459"><ele>89.0</ele><time>2026-05-01T16:36:00.678Z</time></trkpt><trkpt lat="40.9856317" lon="9.4145667"><ele>92.0</ele><time>2026-05-01T16:36:01.678Z</time></trkpt><trkpt lat="40.98575" lon="9.4145617"><ele>91.25</ele><time>2026-05-01T16:36:02.678Z</time></trkpt><trkpt lat="40.9858517" lon="9.414565"><ele>90.5</ele><time>2026-05-01T16:36:03.678Z</time></trkpt><trkpt lat="40.9859683" lon="9.4145867"><ele>89.75</ele><time>2026-05-01T16:36:04.678Z</time></trkpt><trkpt lat="40.9861033" lon="9.4146033"><ele>89.0</ele><time>2026-05-01T16:36:05.678Z</time></trkpt><trkpt lat="40.986235" lon="9.4146283"><ele>89.0</ele><time>2026-05-01T16:36:06.678Z</time></trkpt><trkpt lat="40.986375" lon="9.4146483"><ele>89.0</ele><time>2026-05-01T16:36:07.678Z</time></trkpt><trkpt lat="40.986515" lon="9.4146767"><ele>89.0</ele><time>2026-05-01T16:36:08.678Z</time></trkpt><trkpt lat="40.9866483" lon="9.4146867"><ele>89.0</ele><time>2026-05-01T16:36:09.678Z</time></trkpt><trkpt lat="40.9867683" lon="9.4146817"><ele>89.6</ele><time>2026-05-01T16:36:10.678Z</time></trkpt><trkpt lat="40.9868767" lon="9.41467"><ele>90.2</ele><time>2026-05-01T16:36:11.678Z</time></trkpt><trkpt lat="40.9869567" lon="9.4146333"><ele>90.8</ele><time>2026-05-01T16:36:12.678Z</time></trkpt><trkpt lat="40.9870533" lon="9.414605"><ele>91.39999999999999</ele><time>2026-05-01T16:36:13.678Z</time></trkpt><trkpt lat="40.9871367" lon="9.4145867"><ele>92.0</ele><time>2026-05-01T16:36:14.678Z</time></trkpt><trkpt lat="40.9872183" lon="9.4145833"><ele>92.0</ele><time>2026-05-01T16:36:15.678Z</time></trkpt><trkpt lat="40.9872967" lon="9.4145867"><ele>92.0</ele><time>2026-05-01T16:36:16.678Z</time></trkpt><trkpt lat="40.9873767" lon="9.4146017"><ele>92.0</ele><time>2026-05-01T16:36:17.678Z</time></trkpt><trkpt lat="40.9874733" lon="9.4146317"><ele>92.0</ele><time>2026-05-01T16:36:18.678Z</time></trkpt><trkpt lat="40.987565" lon="9.4146717"><ele>92.0</ele><time>2026-05-01T16:36:19.678Z</time></trkpt><trkpt lat="40.9876567" lon="9.4147167"><ele>89.0</ele><time>2026-05-01T16:36:20.678Z</time></trkpt><trkpt lat="40.9877517" lon="9.4147683"><ele>86.0</ele><time>2026-05-01T16:36:21.678Z</time></trkpt><trkpt lat="40.987875" lon="9.41483"><ele>83.0</ele><time>2026-05-01T16:36:22.678Z</time></trkpt><trkpt lat="40.987985" lon="9.41489"><ele>80.0</ele><time>2026-05-01T16:36:23.678Z</time></trkpt><trkpt lat="40.9880917" lon="9.414935"><ele>80.0</ele><time>2026-05-01T16:36:24.678Z</time></trkpt><trkpt lat="40.988175" lon="9.4149517"><ele>80.0</ele><time>2026-05-01T16:36:25.678Z</time></trkpt><trkpt lat="40.9883133" lon="9.4149817"><ele>80.0</ele><time>2026-05-01T16:36:27.678Z</time></trkpt><trkpt lat="40.9884417" lon="9.41503"><ele>80.0</ele><time>2026-05-01T16:36:29.679Z</time></trkpt><trkpt lat="40.9885233" lon="9.4150733"><ele>80.0</ele><time>2026-05-01T16:36:30.678Z</time></trkpt><trkpt lat="40.988605" lon="9.415125"><ele>80.4</ele><time>2026-05-01T16:36:31.678Z</time></trkpt><trkpt lat="40.9886867" lon="9.4152133"><ele>80.8</ele><time>2026-05-01T16:36:32.678Z</time></trkpt><trkpt lat="40.9887733" lon="9.415325"><ele>81.19999999999999</ele><time>2026-05-01T16:36:33.678Z</time></trkpt><trkpt lat="40.9888417" lon="9.4154317"><ele>81.6</ele><time>2026-05-01T16:36:34.678Z</time></trkpt><trkpt lat="40.988915" lon="9.4155133"><ele>82.0</ele><time>2026-05-01T16:36:35.678Z</time></trkpt><trkpt lat="40.9889767" lon="9.4155867"><ele>82.0</ele><time>2026-05-01T16:36:36.678Z</time></trkpt><trkpt lat="40.9890233" lon="9.415655"><ele>82.0</ele><time>2026-05-01T16:36:37.678Z</time></trkpt><trkpt lat="40.98907" lon="9.415785"><ele>82.0</ele><time>2026-05-01T16:36:39.678Z</time></trkpt><trkpt lat="40.9890817" lon="9.4159217"><ele>82.0</ele><time>2026-05-01T16:36:41.678Z</time></trkpt><trkpt lat="40.9890933" lon="9.416005"><ele>82.0</ele><time>2026-05-01T16:36:43.678Z</time></trkpt><trkpt lat="40.98918" lon="9.4159683"><ele>82.0</ele><time>2026-05-01T16:36:45.678Z</time></trkpt><trkpt lat="40.98925" lon="9.415945"><ele>83.8</ele><time>2026-05-01T16:36:46.678Z</time></trkpt><trkpt lat="40.9893167" lon="9.4159467"><ele>85.6</ele><time>2026-05-01T16:36:47.678Z</time></trkpt><trkpt lat="40.9894033" lon="9.415985"><ele>87.39999999999999</ele><time>2026-05-01T16:36:49.678Z</time></trkpt><trkpt lat="40.9894533" lon="9.4160917"><ele>89.19999999999999</ele><time>2026-05-01T16:36:51.678Z</time></trkpt><trkpt lat="40.98946" lon="9.4162233"><ele>91.0</ele><time>2026-05-01T16:36:53.678Z</time></trkpt><trkpt lat="40.9894217" lon="9.416355"><ele>92.8</ele><time>2026-05-01T16:36:55.678Z</time></trkpt><trkpt lat="40.9893867" lon="9.416485"><ele>94.6</ele><time>2026-05-01T16:36:57.678Z</time></trkpt><trkpt lat="40.989405" lon="9.4166183"><ele>96.4</ele><time>2026-05-01T16:36:59.678Z</time></trkpt><trkpt lat="40.9894567" lon="9.4167617"><ele>98.2</ele><time>2026-05-01T16:37:01.678Z</time></trkpt><trkpt lat="40.989545" lon="9.416825"><ele>100.0</ele><time>2026-05-01T16:37:02.678Z</time></trkpt><trkpt lat="40.9896367" lon="9.4168983"><ele>100.0</ele><time>2026-05-01T16:37:03.678Z</time></trkpt><trkpt lat="40.9897533" lon="9.4169467"><ele>100.0</ele><time>2026-05-01T16:37:04.678Z</time></trkpt><trkpt lat="40.9898567" lon="9.4169767"><ele>100.0</ele><time>2026-05-01T16:37:05.678Z</time></trkpt><trkpt lat="40.98995" lon="9.4170033"><ele>100.0</ele><time>2026-05-01T16:37:06.678Z</time></trkpt><trkpt lat="40.990045" lon="9.417025"><ele>100.0</ele><time>2026-05-01T16:37:07.678Z</time></trkpt><trkpt lat="40.9901533" lon="9.41702"><ele>103.0</ele><time>2026-05-01T16:37:08.678Z</time></trkpt><trkpt lat="40.9902633" lon="9.4169933"><ele>106.0</ele><time>2026-05-01T16:37:09.678Z</time></trkpt><trkpt lat="40.9903567" lon="9.4169767"><ele>109.0</ele><time>2026-05-01T16:37:10.678Z</time></trkpt><trkpt lat="40.99044" lon="9.41697"><ele>112.0</ele><time>2026-05-01T16:37:11.678Z</time></trkpt><trkpt lat="40.990515" lon="9.4169583"><ele>115.0</ele><time>2026-05-01T16:37:12.678Z</time></trkpt><trkpt lat="40.9906267" lon="9.4169517"><ele>115.00000000000001</ele><time>2026-05-01T16:37:14.678Z</time></trkpt><trkpt lat="40.9907183" lon="9.4169433"><ele>115.0</ele><time>2026-05-01T16:37:16.678Z</time></trkpt><trkpt lat="40.9907" lon="9.41704"><ele>115.0</ele><time>2026-05-01T16:37:22.678Z</time></trkpt><trkpt lat="40.990775" lon="9.4170517"><ele>115.0</ele><time>2026-05-01T16:37:25.678Z</time></trkpt><trkpt lat="40.9908683" lon="9.4170167"><ele>115.00000000000001</ele><time>2026-05-01T16:37:27.678Z</time></trkpt><trkpt lat="40.9909367" lon="9.4169633"><ele>115.0</ele><time>2026-05-01T16:37:28.678Z</time></trkpt><trkpt lat="40.9910067" lon="9.4169"><ele>117.33333333333334</ele><time>2026-05-01T16:37:29.678Z</time></trkpt><trkpt lat="40.99107" lon="9.41682"><ele>119.66666666666667</ele><time>2026-05-01T16:37:30.678Z</time></trkpt><trkpt lat="40.9911383" lon="9.416745"><ele>122.0</ele><time>2026-05-01T16:37:31.678Z</time></trkpt><trkpt lat="40.9911967" lon="9.4166867"><ele>124.33333333333334</ele><time>2026-05-01T16:37:32.678Z</time></trkpt><trkpt lat="40.9912517" lon="9.4166433"><ele>126.66666666666667</ele><time>2026-05-01T16:37:33.678Z</time></trkpt><trkpt lat="40.9913233" lon="9.4166067"><ele>129.0</ele><time>2026-05-01T16:37:34.678Z</time></trkpt><trkpt lat="40.9914" lon="9.4165817"><ele>129.0</ele><time>2026-05-01T16:37:35.678Z</time></trkpt><trkpt lat="40.9914817" lon="9.416555"><ele>129.0</ele><time>2026-05-01T16:37:36.678Z</time></trkpt><trkpt lat="40.9915767" lon="9.4165217"><ele>129.0</ele><time>2026-05-01T16:37:37.678Z</time></trkpt><trkpt lat="40.9916467" lon="9.4164533"><ele>129.0</ele><time>2026-05-01T16:37:38.678Z</time></trkpt><trkpt lat="40.991715" lon="9.41639"><ele>129.0</ele><time>2026-05-01T16:37:39.678Z</time></trkpt><trkpt lat="40.9917833" lon="9.4163367"><ele>129.0</ele><time>2026-05-01T16:37:40.678Z</time></trkpt><trkpt lat="40.9918933" lon="9.41629"><ele>129.2</ele><time>2026-05-01T16:37:42.678Z</time></trkpt><trkpt lat="40.99198" lon="9.41637"><ele>129.4</ele><time>2026-05-01T16:37:44.678Z</time></trkpt><trkpt lat="40.992035" lon="9.4164283"><ele>129.6</ele><time>2026-05-01T16:37:45.678Z</time></trkpt><trkpt lat="40.9920817" lon="9.4165583"><ele>129.8</ele><time>2026-05-01T16:37:46.678Z</time></trkpt><trkpt lat="40.992135" lon="9.4166867"><ele>130.0</ele><time>2026-05-01T16:37:47.678Z</time></trkpt><trkpt lat="40.9921933" lon="9.4168217"><ele>130.0</ele><time>2026-05-01T16:37:48.678Z</time></trkpt><trkpt lat="40.9922683" lon="9.4169333"><ele>130.0</ele><time>2026-05-01T16:37:49.678Z</time></trkpt><trkpt lat="40.992335" lon="9.4170267"><ele>130.0</ele><time>2026-05-01T16:37:50.678Z</time></trkpt><trkpt lat="40.9924083" lon="9.4170883"><ele>130.0</ele><time>2026-05-01T16:37:51.678Z</time></trkpt><trkpt lat="40.9924717" lon="9.4171417"><ele>130.0</ele><time>2026-05-01T16:37:52.678Z</time></trkpt><trkpt lat="40.992555" lon="9.417245"><ele>129.16666666666669</ele><time>2026-05-01T16:37:54.678Z</time></trkpt><trkpt lat="40.992605" lon="9.4173617"><ele>128.33333333333334</ele><time>2026-05-01T16:38:28.678Z</time></trkpt><trkpt lat="40.9926467" lon="9.41745"><ele>127.5</ele><time>2026-05-01T16:38:29.678Z</time></trkpt><trkpt lat="40.9927" lon="9.4175583"><ele>126.66666666666666</ele><time>2026-05-01T16:38:30.678Z</time></trkpt><trkpt lat="40.9927517" lon="9.4176467"><ele>125.83333333333333</ele><time>2026-05-01T16:38:31.678Z</time></trkpt><trkpt lat="40.9928133" lon="9.4177233"><ele>125.0</ele><time>2026-05-01T16:38:32.678Z</time></trkpt><trkpt lat="40.9928783" lon="9.4177933"><ele>125.0</ele><time>2026-05-01T16:38:33.678Z</time></trkpt><trkpt lat="40.992955" lon="9.41786"><ele>125.0</ele><time>2026-05-01T16:38:34.678Z</time></trkpt><trkpt lat="40.99304" lon="9.4179167"><ele>125.0</ele><time>2026-05-01T16:38:35.678Z</time></trkpt><trkpt lat="40.9931383" lon="9.4179683"><ele>125.0</ele><time>2026-05-01T16:38:36.678Z</time></trkpt><trkpt lat="40.9932383" lon="9.418025"><ele>125.0</ele><time>2026-05-01T16:38:37.678Z</time></trkpt><trkpt lat="40.99334" lon="9.41808"><ele>122.0</ele><time>2026-05-01T16:38:38.678Z</time></trkpt><trkpt lat="40.9934517" lon="9.4181367"><ele>119.0</ele><time>2026-05-01T16:38:39.678Z</time></trkpt><trkpt lat="40.9935717" lon="9.4181883"><ele>116.0</ele><time>2026-05-01T16:38:40.678Z</time></trkpt><trkpt lat="40.9936917" lon="9.4182517"><ele>113.0</ele><time>2026-05-01T16:38:41.678Z</time></trkpt><trkpt lat="40.993805" lon="9.4183183"><ele>113.0</ele><time>2026-05-01T16:38:42.678Z</time></trkpt><trkpt lat="40.9939267" lon="9.4183883"><ele>113.0</ele><time>2026-05-01T16:38:43.678Z</time></trkpt><trkpt lat="40.9940533" lon="9.4184667"><ele>113.0</ele><time>2026-05-01T16:38:44.678Z</time></trkpt><trkpt lat="40.99418" lon="9.4185483"><ele>113.0</ele><time>2026-05-01T16:38:45.678Z</time></trkpt><trkpt lat="40.9942967" lon="9.4186333"><ele>112.0</ele><time>2026-05-01T16:38:46.678Z</time></trkpt><trkpt lat="40.9944167" lon="9.418715"><ele>111.0</ele><time>2026-05-01T16:38:47.678Z</time></trkpt><trkpt lat="40.99454" lon="9.4188033"><ele>110.0</ele><time>2026-05-01T16:38:48.678Z</time></trkpt><trkpt lat="40.9946583" lon="9.4188883"><ele>109.0</ele><time>2026-05-01T16:38:49.678Z</time></trkpt><trkpt lat="40.9947667" lon="9.4189883"><ele>109.0</ele><time>2026-05-01T16:38:50.678Z</time></trkpt><trkpt lat="40.9948717" lon="9.419075"><ele>109.0</ele><time>2026-05-01T16:38:51.678Z</time></trkpt><trkpt lat="40.9949817" lon="9.4191583"><ele>109.0</ele><time>2026-05-01T16:38:52.678Z</time></trkpt><trkpt lat="40.9950533" lon="9.4192317"><ele>109.0</ele><time>2026-05-01T16:38:53.678Z</time></trkpt><trkpt lat="40.9951233" lon="9.419295"><ele>109.0</ele><time>2026-05-01T16:38:54.678Z</time></trkpt><trkpt lat="40.9951933" lon="9.41936"><ele>107.00000000000001</ele><time>2026-05-01T16:38:55.678Z</time></trkpt><trkpt lat="40.9952533" lon="9.4194417"><ele>105.0</ele><time>2026-05-01T16:38:56.678Z</time></trkpt><trkpt lat="40.995295" lon="9.4195133"><ele>103.0</ele><time>2026-05-01T16:38:57.678Z</time></trkpt><trkpt lat="40.9953417" lon="9.4196617"><ele>101.0</ele><time>2026-05-01T16:38:59.678Z</time></trkpt><trkpt lat="40.9953267" lon="9.4197633"><ele>99.00000000000001</ele><time>2026-05-01T16:39:00.678Z</time></trkpt><trkpt lat="40.9953217" lon="9.419875"><ele>97.0</ele><time>2026-05-01T16:39:01.678Z</time></trkpt><trkpt lat="40.99528" lon="9.4200383"><ele>97.0</ele><time>2026-05-01T16:39:02.678Z</time></trkpt><trkpt lat="40.995235" lon="9.42023"><ele>97.0</ele><time>2026-05-01T16:39:03.678Z</time></trkpt><trkpt lat="40.9952233" lon="9.4204533"><ele>97.0</ele><time>2026-05-01T16:39:04.678Z</time></trkpt><trkpt lat="40.9951417" lon="9.420695"><ele>96.75</ele><time>2026-05-01T16:39:05.678Z</time></trkpt><trkpt lat="40.995155" lon="9.42087"><ele>96.5</ele><time>2026-05-01T16:39:06.678Z</time></trkpt><trkpt lat="40.9951517" lon="9.42106"><ele>96.25</ele><time>2026-05-01T16:39:07.678Z</time></trkpt><trkpt lat="40.99514" lon="9.4212317"><ele>96.0</ele><time>2026-05-01T16:39:08.678Z</time></trkpt><trkpt lat="40.9951367" lon="9.4213783"><ele>95.5</ele><time>2026-05-01T16:39:09.678Z</time></trkpt><trkpt lat="40.9951617" lon="9.4215483"><ele>95.0</ele><time>2026-05-01T16:39:10.678Z</time></trkpt><trkpt lat="40.995175" lon="9.4217433"><ele>94.5</ele><time>2026-05-01T16:39:11.678Z</time></trkpt><trkpt lat="40.99519" lon="9.42192"><ele>94.0</ele><time>2026-05-01T16:39:12.678Z</time></trkpt><trkpt lat="40.9952067" lon="9.4220833"><ele>93.4</ele><time>2026-05-01T16:39:13.678Z</time></trkpt><trkpt lat="40.99525" lon="9.422235"><ele>92.80000000000001</ele><time>2026-05-01T16:39:14.678Z</time></trkpt><trkpt lat="40.9952667" lon="9.422375"><ele>92.19999999999999</ele><time>2026-05-01T16:39:15.678Z</time></trkpt><trkpt lat="40.9952817" lon="9.4225117"><ele>91.6</ele><time>2026-05-01T16:39:16.678Z</time></trkpt><trkpt lat="40.9953" lon="9.4226317"><ele>91.0</ele><time>2026-05-01T16:39:17.678Z</time></trkpt><trkpt lat="40.99531" lon="9.422765"><ele>91.0</ele><time>2026-05-01T16:39:18.678Z</time></trkpt><trkpt lat="40.9953133" lon="9.422895"><ele>91.0</ele><time>2026-05-01T16:39:19.678Z</time></trkpt><trkpt lat="40.9952983" lon="9.423025"><ele>91.0</ele><time>2026-05-01T16:39:20.679Z</time></trkpt><trkpt lat="40.9952817" lon="9.42316"><ele>91.0</ele><time>2026-05-01T16:39:21.679Z</time></trkpt><trkpt lat="40.9952667" lon="9.4233083"><ele>91.0</ele><time>2026-05-01T16:39:22.678Z</time></trkpt><trkpt lat="40.9952567" lon="9.423465"><ele>88.25</ele><time>2026-05-01T16:39:23.678Z</time></trkpt><trkpt lat="40.9952567" lon="9.42361"><ele>85.5</ele><time>2026-05-01T16:39:24.678Z</time></trkpt><trkpt lat="40.9952633" lon="9.4237383"><ele>82.75</ele><time>2026-05-01T16:39:25.678Z</time></trkpt><trkpt lat="40.9952333" lon="9.4238833"><ele>80.0</ele><time>2026-05-01T16:39:26.678Z</time></trkpt><trkpt lat="40.9952183" lon="9.4240617"><ele>78.2</ele><time>2026-05-01T16:39:27.678Z</time></trkpt><trkpt lat="40.9952117" lon="9.4242317"><ele>76.4</ele><time>2026-05-01T16:39:28.678Z</time></trkpt><trkpt lat="40.995215" lon="9.4243783"><ele>74.6</ele><time>2026-05-01T16:39:29.678Z</time></trkpt><trkpt lat="40.995215" lon="9.4245117"><ele>72.8</ele><time>2026-05-01T16:39:30.678Z</time></trkpt><trkpt lat="40.9952167" lon="9.4246283"><ele>71.0</ele><time>2026-05-01T16:39:31.678Z</time></trkpt><trkpt lat="40.99523" lon="9.4247233"><ele>70.5</ele><time>2026-05-01T16:39:32.678Z</time></trkpt><trkpt lat="40.9952483" lon="9.424825"><ele>70.0</ele><time>2026-05-01T16:39:33.678Z</time></trkpt><trkpt lat="40.9952767" lon="9.42493"><ele>69.5</ele><time>2026-05-01T16:39:34.678Z</time></trkpt><trkpt lat="40.9953267" lon="9.4250233"><ele>69.0</ele><time>2026-05-01T16:39:35.678Z</time></trkpt><trkpt lat="40.99538" lon="9.4251267"><ele>68.5</ele><time>2026-05-01T16:39:36.678Z</time></trkpt><trkpt lat="40.99545" lon="9.4252267"><ele>68.0</ele><time>2026-05-01T16:39:37.678Z</time></trkpt><trkpt lat="40.99553" lon="9.4253183"><ele>68.0</ele><time>2026-05-01T16:39:38.678Z</time></trkpt><trkpt lat="40.99559" lon="9.4254067"><ele>68.0</ele><time>2026-05-01T16:39:39.678Z</time></trkpt><trkpt lat="40.9956533" lon="9.425485"><ele>68.0</ele><time>2026-05-01T16:39:40.678Z</time></trkpt><trkpt lat="40.99571" lon="9.4255667"><ele>68.0</ele><time>2026-05-01T16:39:41.678Z</time></trkpt><trkpt lat="40.995755" lon="9.4256383"><ele>68.0</ele><time>2026-05-01T16:39:42.678Z</time></trkpt><trkpt lat="40.9957983" lon="9.425705"><ele>68.0</ele><time>2026-05-01T16:39:43.678Z</time></trkpt><trkpt lat="40.9958433" lon="9.4257683"><ele>66.2</ele><time>2026-05-01T16:39:44.678Z</time></trkpt><trkpt lat="40.9959567" lon="9.4258567"><ele>64.4</ele><time>2026-05-01T16:39:46.678Z</time></trkpt><trkpt lat="40.9960333" lon="9.425895"><ele>62.60000000000001</ele><time>2026-05-01T16:39:47.678Z</time></trkpt><trkpt lat="40.99612" lon="9.4259183"><ele>60.800000000000004</ele><time>2026-05-01T16:39:48.678Z</time></trkpt><trkpt lat="40.9962083" lon="9.4259367"><ele>59.0</ele><time>2026-05-01T16:39:49.678Z</time></trkpt><trkpt lat="40.99629" lon="9.4259483"><ele>59.00000000000001</ele><time>2026-05-01T16:39:50.678Z</time></trkpt><trkpt lat="40.996355" lon="9.4259717"><ele>59.0</ele><time>2026-05-01T16:39:51.678Z</time></trkpt><trkpt lat="40.9964167" lon="9.426005"><ele>59.0</ele><time>2026-05-01T16:39:52.678Z</time></trkpt><trkpt lat="40.9964767" lon="9.4261267"><ele>59.0</ele><time>2026-05-01T16:39:54.678Z</time></trkpt><trkpt lat="40.996505" lon="9.4262483"><ele>59.00000000000001</ele><time>2026-05-01T16:39:56.678Z</time></trkpt><trkpt lat="40.9965233" lon="9.4263417"><ele>59.0</ele><time>2026-05-01T16:39:58.678Z</time></trkpt><trkpt lat="40.9965167" lon="9.4264783"><ele>59.0</ele><time>2026-05-01T16:40:00.678Z</time></trkpt><trkpt lat="40.9965283" lon="9.4266167"><ele>59.00000000000001</ele><time>2026-05-01T16:40:02.678Z</time></trkpt><trkpt lat="40.9965217" lon="9.4267733"><ele>59.00000000000001</ele><time>2026-05-01T16:40:04.678Z</time></trkpt><trkpt lat="40.9964933" lon="9.4269317"><ele>59.0</ele><time>2026-05-01T16:40:06.678Z</time></trkpt><trkpt lat="40.99647" lon="9.42701"><ele>59.0</ele><time>2026-05-01T16:40:07.678Z</time></trkpt><trkpt lat="40.996465" lon="9.4271717"><ele>60.2</ele><time>2026-05-01T16:40:09.678Z</time></trkpt><trkpt lat="40.9964967" lon="9.4272767"><ele>61.400000000000006</ele><time>2026-05-01T16:40:11.678Z</time></trkpt><trkpt lat="40.9965667" lon="9.4273533"><ele>62.6</ele><time>2026-05-01T16:40:13.678Z</time></trkpt><trkpt lat="40.9967" lon="9.427405"><ele>63.8</ele><time>2026-05-01T16:40:15.678Z</time></trkpt><trkpt lat="40.9968017" lon="9.427415"><ele>65.0</ele><time>2026-05-01T16:40:16.678Z</time></trkpt><trkpt lat="40.9969083" lon="9.4274167"><ele>65.0</ele><time>2026-05-01T16:40:17.678Z</time></trkpt><trkpt lat="40.997015" lon="9.4274167"><ele>65.0</ele><time>2026-05-01T16:40:18.678Z</time></trkpt><trkpt lat="40.997105" lon="9.4274383"><ele>65.0</ele><time>2026-05-01T16:40:19.678Z</time></trkpt><trkpt lat="40.9971933" lon="9.4274833"><ele>65.0</ele><time>2026-05-01T16:40:20.678Z</time></trkpt><trkpt lat="40.997255" lon="9.4275467"><ele>65.0</ele><time>2026-05-01T16:40:21.678Z</time></trkpt><trkpt lat="40.997295" lon="9.4276217"><ele>65.0</ele><time>2026-05-01T16:40:22.678Z</time></trkpt><trkpt lat="40.9973333" lon="9.4277067"><ele>65.0</ele><time>2026-05-01T16:40:23.678Z</time></trkpt><trkpt lat="40.9973617" lon="9.427815"><ele>65.0</ele><time>2026-05-01T16:40:24.678Z</time></trkpt><trkpt lat="40.99737" lon="9.4279467"><ele>65.0</ele><time>2026-05-01T16:40:25.679Z</time></trkpt><trkpt lat="40.9973667" lon="9.4280867"><ele>65.0</ele><time>2026-05-01T16:40:26.678Z</time></trkpt><trkpt lat="40.9973733" lon="9.4282167"><ele>65.0</ele><time>2026-05-01T16:40:27.678Z</time></trkpt><trkpt lat="40.9973817" lon="9.42836"><ele>66.0</ele><time>2026-05-01T16:40:28.678Z</time></trkpt><trkpt lat="40.9973867" lon="9.42851"><ele>67.0</ele><time>2026-05-01T16:40:29.678Z</time></trkpt><trkpt lat="40.9973917" lon="9.4286533"><ele>68.0</ele><time>2026-05-01T16:40:30.678Z</time></trkpt><trkpt lat="40.9973983" lon="9.4287967"><ele>69.0</ele><time>2026-05-01T16:40:31.678Z</time></trkpt><trkpt lat="40.9974117" lon="9.428935"><ele>70.0</ele><time>2026-05-01T16:40:32.678Z</time></trkpt><trkpt lat="40.9974183" lon="9.4290833"><ele>71.4</ele><time>2026-05-01T16:40:33.678Z</time></trkpt><trkpt lat="40.9974283" lon="9.429225"><ele>72.8</ele><time>2026-05-01T16:40:34.678Z</time></trkpt><trkpt lat="40.9974467" lon="9.4293733"><ele>74.2</ele><time>2026-05-01T16:40:35.678Z</time></trkpt><trkpt lat="40.9974533" lon="9.4295183"><ele>75.6</ele><time>2026-05-01T16:40:36.678Z</time></trkpt><trkpt lat="40.997465" lon="9.4296617"><ele>77.0</ele><time>2026-05-01T16:40:37.678Z</time></trkpt><trkpt lat="40.9974717" lon="9.4298"><ele>77.6</ele><time>2026-05-01T16:40:38.678Z</time></trkpt><trkpt lat="40.997475" lon="9.4299367"><ele>78.2</ele><time>2026-05-01T16:40:39.678Z</time></trkpt><trkpt lat="40.997475" lon="9.430075"><ele>78.8</ele><time>2026-05-01T16:40:40.678Z</time></trkpt><trkpt lat="40.9974633" lon="9.43022"><ele>79.4</ele><time>2026-05-01T16:40:41.678Z</time></trkpt><trkpt lat="40.9974367" lon="9.4303583"><ele>80.0</ele><time>2026-05-01T16:40:42.678Z</time></trkpt><trkpt lat="40.9974117" lon="9.43051"><ele>80.0</ele><time>2026-05-01T16:40:43.678Z</time></trkpt><trkpt lat="40.9973883" lon="9.4306533"><ele>80.0</ele><time>2026-05-01T16:40:44.678Z</time></trkpt><trkpt lat="40.9973717" lon="9.43079"><ele>80.0</ele><time>2026-05-01T16:40:45.678Z</time></trkpt><trkpt lat="40.9973533" lon="9.4309417"><ele>80.0</ele><time>2026-05-01T16:40:46.678Z</time></trkpt><trkpt lat="40.99734" lon="9.431105"><ele>80.0</ele><time>2026-05-01T16:40:47.678Z</time></trkpt><trkpt lat="40.997335" lon="9.43126"><ele>80.0</ele><time>2026-05-01T16:40:48.678Z</time></trkpt><trkpt lat="40.9973383" lon="9.4314083"><ele>80.0</ele><time>2026-05-01T16:40:49.678Z</time></trkpt><trkpt lat="40.9973617" lon="9.43157"><ele>80.0</ele><time>2026-05-01T16:40:50.678Z</time></trkpt><trkpt lat="40.99739" lon="9.431745"><ele>80.75</ele><time>2026-05-01T16:40:51.678Z</time></trkpt><trkpt lat="40.9974317" lon="9.4319283"><ele>81.5</ele><time>2026-05-01T16:40:52.678Z</time></trkpt><trkpt lat="40.9974533" lon="9.4321417"><ele>82.25</ele><time>2026-05-01T16:40:53.678Z</time></trkpt><trkpt lat="40.99749" lon="9.4323133"><ele>83.0</ele><time>2026-05-01T16:40:54.678Z</time></trkpt><trkpt lat="40.9975133" lon="9.4324817"><ele>84.80000000000001</ele><time>2026-05-01T16:40:55.678Z</time></trkpt><trkpt lat="40.99755" lon="9.432625"><ele>86.6</ele><time>2026-05-01T16:40:56.678Z</time></trkpt><trkpt lat="40.9975783" lon="9.4327567"><ele>88.4</ele><time>2026-05-01T16:40:57.678Z</time></trkpt><trkpt lat="40.9976317" lon="9.4328733"><ele>90.19999999999999</ele><time>2026-05-01T16:40:58.678Z</time></trkpt><trkpt lat="40.9976983" lon="9.4329733"><ele>92.0</ele><time>2026-05-01T16:40:59.678Z</time></trkpt><trkpt lat="40.9977883" lon="9.4330417"><ele>94.5</ele><time>2026-05-01T16:41:00.678Z</time></trkpt><trkpt lat="40.9978817" lon="9.4330967"><ele>97.0</ele><time>2026-05-01T16:41:01.678Z</time></trkpt><trkpt lat="40.9979883" lon="9.43314"><ele>99.5</ele><time>2026-05-01T16:41:02.678Z</time></trkpt><trkpt lat="40.9981067" lon="9.4331717"><ele>102.0</ele><time>2026-05-01T16:41:03.678Z</time></trkpt><trkpt lat="40.9982333" lon="9.43322"><ele>102.0</ele><time>2026-05-01T16:41:04.678Z</time></trkpt><trkpt lat="40.9983233" lon="9.433285"><ele>102.0</ele><time>2026-05-01T16:41:05.678Z</time></trkpt><trkpt lat="40.9984017" lon="9.4333767"><ele>102.0</ele><time>2026-05-01T16:41:06.678Z</time></trkpt><trkpt lat="40.9984667" lon="9.433495"><ele>102.0</ele><time>2026-05-01T16:41:07.678Z</time></trkpt><trkpt lat="40.998515" lon="9.4336317"><ele>102.0</ele><time>2026-05-01T16:41:08.678Z</time></trkpt><trkpt lat="40.9985867" lon="9.4337733"><ele>103.25</ele><time>2026-05-01T16:41:09.678Z</time></trkpt><trkpt lat="40.9986783" lon="9.4339083"><ele>104.5</ele><time>2026-05-01T16:41:10.678Z</time></trkpt><trkpt lat="40.9987817" lon="9.4340433"><ele>105.75</ele><time>2026-05-01T16:41:11.678Z</time></trkpt><trkpt lat="40.998895" lon="9.4341817"><ele>107.0</ele><time>2026-05-01T16:41:12.679Z</time></trkpt><trkpt lat="40.9990217" lon="9.43433"><ele>107.0</ele><time>2026-05-01T16:41:13.678Z</time></trkpt><trkpt lat="40.999135" lon="9.4344533"><ele>107.0</ele><time>2026-05-01T16:41:14.678Z</time></trkpt><trkpt lat="40.9992133" lon="9.43457"><ele>107.0</ele><time>2026-05-01T16:41:15.678Z</time></trkpt><trkpt lat="40.9993483" lon="9.434695"><ele>107.0</ele><time>2026-05-01T16:41:16.678Z</time></trkpt><trkpt lat="40.9994783" lon="9.434795"><ele>108.0</ele><time>2026-05-01T16:41:17.678Z</time></trkpt><trkpt lat="40.9996033" lon="9.4348833"><ele>109.0</ele><time>2026-05-01T16:41:18.678Z</time></trkpt><trkpt lat="40.9997233" lon="9.4349683"><ele>110.0</ele><time>2026-05-01T16:41:19.678Z</time></trkpt><trkpt lat="40.9998467" lon="9.4350717"><ele>111.0</ele><time>2026-05-01T16:41:20.678Z</time></trkpt><trkpt lat="40.9999717" lon="9.4351867"><ele>111.0</ele><time>2026-05-01T16:41:21.678Z</time></trkpt><trkpt lat="41.00007" lon="9.4353217"><ele>111.0</ele><time>2026-05-01T16:41:22.679Z</time></trkpt><trkpt lat="41.0001683" lon="9.4354433"><ele>111.0</ele><time>2026-05-01T16:41:23.678Z</time></trkpt><trkpt lat="41.0002233" lon="9.4356067"><ele>111.0</ele><time>2026-05-01T16:41:24.678Z</time></trkpt><trkpt lat="41.0003117" lon="9.4357517"><ele>112.25</ele><time>2026-05-01T16:41:25.678Z</time></trkpt><trkpt lat="41.0004317" lon="9.4358667"><ele>113.5</ele><time>2026-05-01T16:41:26.678Z</time></trkpt><trkpt lat="41.0005467" lon="9.4359783"><ele>114.75</ele><time>2026-05-01T16:41:27.678Z</time></trkpt><trkpt lat="41.0006717" lon="9.436055"><ele>116.0</ele><time>2026-05-01T16:41:28.678Z</time></trkpt><trkpt lat="41.0008" lon="9.4361133"><ele>115.66666666666666</ele><time>2026-05-01T16:41:29.678Z</time></trkpt><trkpt lat="41.0009517" lon="9.4361567"><ele>115.33333333333334</ele><time>2026-05-01T16:41:30.679Z</time></trkpt><trkpt lat="41.0011133" lon="9.436195"><ele>115.0</ele><time>2026-05-01T16:41:31.678Z</time></trkpt><trkpt lat="41.0012667" lon="9.436235"><ele>115.0</ele><time>2026-05-01T16:41:32.678Z</time></trkpt><trkpt lat="41.0013967" lon="9.4362733"><ele>115.0</ele><time>2026-05-01T16:41:33.678Z</time></trkpt><trkpt lat="41.0014967" lon="9.4363333"><ele>115.0</ele><time>2026-05-01T16:41:34.678Z</time></trkpt><trkpt lat="41.0015967" lon="9.4363783"><ele>115.0</ele><time>2026-05-01T16:41:35.678Z</time></trkpt><trkpt lat="41.0016933" lon="9.436445"><ele>113.4</ele><time>2026-05-01T16:41:36.678Z</time></trkpt><trkpt lat="41.001785" lon="9.4365283"><ele>111.8</ele><time>2026-05-01T16:41:37.678Z</time></trkpt><trkpt lat="41.0018683" lon="9.4366417"><ele>110.19999999999999</ele><time>2026-05-01T16:41:38.678Z</time></trkpt><trkpt lat="41.0019417" lon="9.436755"><ele>108.6</ele><time>2026-05-01T16:41:39.678Z</time></trkpt><trkpt lat="41.0019783" lon="9.4368683"><ele>107.0</ele><time>2026-05-01T16:41:40.678Z</time></trkpt><trkpt lat="41.0019917" lon="9.4369817"><ele>107.0</ele><time>2026-05-01T16:41:41.679Z</time></trkpt><trkpt lat="41.0019867" lon="9.43711"><ele>106.99999999999999</ele><time>2026-05-01T16:41:42.678Z</time></trkpt><trkpt lat="41.0019633" lon="9.4372467"><ele>106.99999999999999</ele><time>2026-05-01T16:41:43.678Z</time></trkpt><trkpt lat="41.00193" lon="9.4373817"><ele>107.0</ele><time>2026-05-01T16:41:44.678Z</time></trkpt><trkpt lat="41.001865" lon="9.4375183"><ele>107.0</ele><time>2026-05-01T16:41:45.678Z</time></trkpt><trkpt lat="41.0018117" lon="9.437645"><ele>107.0</ele><time>2026-05-01T16:41:46.678Z</time></trkpt><trkpt lat="41.0017667" lon="9.4377683"><ele>106.99999999999999</ele><time>2026-05-01T16:41:47.678Z</time></trkpt><trkpt lat="41.001725" lon="9.4378783"><ele>106.99999999999999</ele><time>2026-05-01T16:41:48.678Z</time></trkpt><trkpt lat="41.0016883" lon="9.4379867"><ele>107.0</ele><time>2026-05-01T16:41:49.678Z</time></trkpt><trkpt lat="41.001655" lon="9.4381033"><ele>107.0</ele><time>2026-05-01T16:41:50.678Z</time></trkpt><trkpt lat="41.0015417" lon="9.4384533"><ele>107.0</ele><time>2026-05-01T16:41:53.678Z</time></trkpt><trkpt lat="41.001475" lon="9.4386433"><ele>107.0</ele><time>2026-05-01T16:41:55.678Z</time></trkpt><trkpt lat="41.001405" lon="9.4388367"><ele>107.0</ele><time>2026-05-01T16:41:57.678Z</time></trkpt><trkpt lat="41.0013717" lon="9.4389483"><ele>107.0</ele><time>2026-05-01T16:41:58.678Z</time></trkpt><trkpt lat="41.0013283" lon="9.439055"><ele>104.83333333333333</ele><time>2026-05-01T16:41:59.678Z</time></trkpt><trkpt lat="41.0012817" lon="9.4391567"><ele>102.66666666666666</ele><time>2026-05-01T16:42:00.678Z</time></trkpt><trkpt lat="41.0012367" lon="9.43926"><ele>100.5</ele><time>2026-05-01T16:42:01.678Z</time></trkpt><trkpt lat="41.001195" lon="9.4393683"><ele>98.33333333333333</ele><time>2026-05-01T16:42:02.678Z</time></trkpt><trkpt lat="41.0011867" lon="9.4394567"><ele>96.16666666666666</ele><time>2026-05-01T16:42:03.678Z</time></trkpt><trkpt lat="41.0011767" lon="9.4395683"><ele>94.0</ele><time>2026-05-01T16:42:04.679Z</time></trkpt><trkpt lat="41.0011733" lon="9.4396833"><ele>92.4</ele><time>2026-05-01T16:42:05.678Z</time></trkpt><trkpt lat="41.001205" lon="9.4397917"><ele>90.80000000000001</ele><time>2026-05-01T16:42:06.678Z</time></trkpt><trkpt lat="41.0012533" lon="9.439895"><ele>89.19999999999999</ele><time>2026-05-01T16:42:07.678Z</time></trkpt><trkpt lat="41.001325" lon="9.4399733"><ele>87.6</ele><time>2026-05-01T16:42:08.678Z</time></trkpt><trkpt lat="41.001395" lon="9.440045"><ele>86.0</ele><time>2026-05-01T16:42:09.678Z</time></trkpt><trkpt lat="41.00148" lon="9.4400983"><ele>86.0</ele><time>2026-05-01T16:42:10.678Z</time></trkpt><trkpt lat="41.001565" lon="9.440145"><ele>86.0</ele><time>2026-05-01T16:42:11.678Z</time></trkpt><trkpt lat="41.0016333" lon="9.4401767"><ele>86.0</ele><time>2026-05-01T16:42:12.678Z</time></trkpt><trkpt lat="41.0017367" lon="9.440205"><ele>86.0</ele><time>2026-05-01T16:42:14.678Z</time></trkpt><trkpt lat="41.0018383" lon="9.4401733"><ele>86.0</ele><time>2026-05-01T16:42:16.679Z</time></trkpt><trkpt lat="41.00196" lon="9.4401"><ele>85.4</ele><time>2026-05-01T16:42:18.678Z</time></trkpt><trkpt lat="41.00204" lon="9.4400117"><ele>84.8</ele><time>2026-05-01T16:42:19.678Z</time></trkpt><trkpt lat="41.00212" lon="9.4398983"><ele>84.2</ele><time>2026-05-01T16:42:20.678Z</time></trkpt><trkpt lat="41.0022017" lon="9.4398"><ele>83.60000000000001</ele><time>2026-05-01T16:42:21.678Z</time></trkpt><trkpt lat="41.0022883" lon="9.439715"><ele>83.0</ele><time>2026-05-01T16:42:22.678Z</time></trkpt><trkpt lat="41.002365" lon="9.4396233"><ele>83.0</ele><time>2026-05-01T16:42:23.678Z</time></trkpt><trkpt lat="41.0024383" lon="9.4395417"><ele>83.0</ele><time>2026-05-01T16:42:24.678Z</time></trkpt><trkpt lat="41.002865" lon="9.4391817"><ele>81.0</ele><time>2026-05-01T16:42:29.678Z</time></trkpt><trkpt lat="41.0031833" lon="9.4389633"><ele>79.0</ele><time>2026-05-01T16:42:32.678Z</time></trkpt><trkpt lat="41.0033017" lon="9.438875"><ele>78.5</ele><time>2026-05-01T16:42:33.678Z</time></trkpt><trkpt lat="41.003425" lon="9.4387633"><ele>78.0</ele><time>2026-05-01T16:42:34.678Z</time></trkpt><trkpt lat="41.00354" lon="9.43866"><ele>77.5</ele><time>2026-05-01T16:42:35.678Z</time></trkpt><trkpt lat="41.0036467" lon="9.4385417"><ele>77.0</ele><time>2026-05-01T16:42:36.678Z</time></trkpt><trkpt lat="41.00374" lon="9.438405"><ele>77.0</ele><time>2026-05-01T16:42:37.678Z</time></trkpt><trkpt lat="41.0038333" lon="9.4382"><ele>77.0</ele><time>2026-05-01T16:42:38.678Z</time></trkpt><trkpt lat="41.0039233" lon="9.4380067"><ele>77.0</ele><time>2026-05-01T16:42:39.678Z</time></trkpt><trkpt lat="41.0040217" lon="9.437825"><ele>76.33333333333334</ele><time>2026-05-01T16:42:40.678Z</time></trkpt><trkpt lat="41.0041217" lon="9.4376583"><ele>75.66666666666667</ele><time>2026-05-01T16:42:41.678Z</time></trkpt><trkpt lat="41.00423" lon="9.4375067"><ele>75.0</ele><time>2026-05-01T16:42:42.678Z</time></trkpt><trkpt lat="41.004345" lon="9.43735"><ele>76.33333333333333</ele><time>2026-05-01T16:42:43.678Z</time></trkpt><trkpt lat="41.004465" lon="9.4372133"><ele>77.66666666666666</ele><time>2026-05-01T16:42:44.678Z</time></trkpt><trkpt lat="41.0046033" lon="9.4370617"><ele>79.0</ele><time>2026-05-01T16:42:45.678Z</time></trkpt><trkpt lat="41.0047217" lon="9.4369333"><ele>79.33333333333333</ele><time>2026-05-01T16:42:46.678Z</time></trkpt><trkpt lat="41.004835" lon="9.436795"><ele>79.66666666666667</ele><time>2026-05-01T16:42:47.678Z</time></trkpt><trkpt lat="41.0049517" lon="9.4366617"><ele>80.0</ele><time>2026-05-01T16:42:48.678Z</time></trkpt><trkpt lat="41.0050717" lon="9.43653"><ele>80.0</ele><time>2026-05-01T16:42:49.678Z</time></trkpt><trkpt lat="41.0051967" lon="9.4364"><ele>80.0</ele><time>2026-05-01T16:42:50.679Z</time></trkpt><trkpt lat="41.00532" lon="9.4362667"><ele>80.0</ele><time>2026-05-01T16:42:51.678Z</time></trkpt><trkpt lat="41.0054483" lon="9.43614"><ele>79.0</ele><time>2026-05-01T16:42:52.678Z</time></trkpt><trkpt lat="41.0055867" lon="9.4360483"><ele>78.0</ele><time>2026-05-01T16:42:53.678Z</time></trkpt><trkpt lat="41.00573" lon="9.435995"><ele>77.0</ele><time>2026-05-01T16:42:54.678Z</time></trkpt><trkpt lat="41.005875" lon="9.4359817"><ele>76.0</ele><time>2026-05-01T16:42:55.678Z</time></trkpt><trkpt lat="41.0060267" lon="9.4359833"><ele>76.0</ele><time>2026-05-01T16:42:56.678Z</time></trkpt><trkpt lat="41.0061617" lon="9.4360033"><ele>76.0</ele><time>2026-05-01T16:42:57.678Z</time></trkpt><trkpt lat="41.0062817" lon="9.436025"><ele>76.0</ele><time>2026-05-01T16:42:58.678Z</time></trkpt><trkpt lat="41.0063933" lon="9.436015"><ele>76.0</ele><time>2026-05-01T16:42:59.678Z</time></trkpt><trkpt lat="41.006495" lon="9.4359817"><ele>76.0</ele><time>2026-05-01T16:43:00.678Z</time></trkpt><trkpt lat="41.0065983" lon="9.4359317"><ele>76.0</ele><time>2026-05-01T16:43:01.678Z</time></trkpt><trkpt lat="41.0066967" lon="9.4358283"><ele>76.0</ele><time>2026-05-01T16:43:02.678Z</time></trkpt><trkpt lat="41.0067733" lon="9.435685"><ele>76.0</ele><time>2026-05-01T16:43:03.678Z</time></trkpt><trkpt lat="41.0068267" lon="9.435495"><ele>76.33333333333333</ele><time>2026-05-01T16:43:04.678Z</time></trkpt><trkpt lat="41.00687" lon="9.4352717"><ele>76.66666666666667</ele><time>2026-05-01T16:43:05.678Z</time></trkpt><trkpt lat="41.0069117" lon="9.4350217"><ele>77.0</ele><time>2026-05-01T16:43:06.678Z</time></trkpt><trkpt lat="41.0069333" lon="9.4347883"><ele>74.33333333333334</ele><time>2026-05-01T16:43:07.678Z</time></trkpt><trkpt lat="41.0069983" lon="9.434565"><ele>71.66666666666667</ele><time>2026-05-01T16:43:08.678Z</time></trkpt><trkpt lat="41.0070683" lon="9.4343667"><ele>69.0</ele><time>2026-05-01T16:43:09.678Z</time></trkpt><trkpt lat="41.00712" lon="9.4341717"><ele>69.0</ele><time>2026-05-01T16:43:10.678Z</time></trkpt><trkpt lat="41.0071817" lon="9.4339717"><ele>69.0</ele><time>2026-05-01T16:43:11.678Z</time></trkpt><trkpt lat="41.007265" lon="9.4337767"><ele>69.0</ele><time>2026-05-01T16:43:12.678Z</time></trkpt><trkpt lat="41.0073133" lon="9.4336133"><ele>68.66666666666667</ele><time>2026-05-01T16:43:13.678Z</time></trkpt><trkpt lat="41.0073833" lon="9.4334333"><ele>68.33333333333334</ele><time>2026-05-01T16:43:14.678Z</time></trkpt><trkpt lat="41.0074633" lon="9.43327"><ele>68.0</ele><time>2026-05-01T16:43:15.678Z</time></trkpt><trkpt lat="41.0075583" lon="9.4331083"><ele>69.66666666666667</ele><time>2026-05-01T16:43:16.678Z</time></trkpt><trkpt lat="41.00767" lon="9.43298"><ele>71.33333333333333</ele><time>2026-05-01T16:43:17.678Z</time></trkpt><trkpt lat="41.0078083" lon="9.4328717"><ele>73.0</ele><time>2026-05-01T16:43:18.678Z</time></trkpt><trkpt lat="41.00795" lon="9.4327883"><ele>73.0</ele><time>2026-05-01T16:43:19.679Z</time></trkpt><trkpt lat="41.0080983" lon="9.4327217"><ele>73.0</ele><time>2026-05-01T16:43:20.678Z</time></trkpt><trkpt lat="41.0082667" lon="9.43266"><ele>73.0</ele><time>2026-05-01T16:43:21.678Z</time></trkpt><trkpt lat="41.0084283" lon="9.432615"><ele>73.0</ele><time>2026-05-01T16:43:22.678Z</time></trkpt><trkpt lat="41.0085767" lon="9.432555"><ele>73.0</ele><time>2026-05-01T16:43:23.678Z</time></trkpt><trkpt lat="41.008725" lon="9.4325167"><ele>73.0</ele><time>2026-05-01T16:43:24.678Z</time></trkpt><trkpt lat="41.00885" lon="9.4324517"><ele>73.0</ele><time>2026-05-01T16:43:25.678Z</time></trkpt><trkpt lat="41.0089733" lon="9.432375"><ele>73.0</ele><time>2026-05-01T16:43:26.678Z</time></trkpt><trkpt lat="41.0090783" lon="9.43226"><ele>73.0</ele><time>2026-05-01T16:43:27.678Z</time></trkpt><trkpt lat="41.0091517" lon="9.4321233"><ele>73.0</ele><time>2026-05-01T16:43:28.678Z</time></trkpt><trkpt lat="41.0092233" lon="9.4319633"><ele>73.0</ele><time>2026-05-01T16:43:29.678Z</time></trkpt><trkpt lat="41.0093017" lon="9.4318033"><ele>69.66666666666666</ele><time>2026-05-01T16:43:30.678Z</time></trkpt><trkpt lat="41.0094067" lon="9.4316467"><ele>66.33333333333333</ele><time>2026-05-01T16:43:31.678Z</time></trkpt><trkpt lat="41.0095267" lon="9.4314933"><ele>63.0</ele><time>2026-05-01T16:43:32.678Z</time></trkpt><trkpt lat="41.0096483" lon="9.4313683"><ele>62.75</ele><time>2026-05-01T16:43:33.678Z</time></trkpt><trkpt lat="41.0097783" lon="9.43127"><ele>62.5</ele><time>2026-05-01T16:43:34.678Z</time></trkpt><trkpt lat="41.0098733" lon="9.4311533"><ele>62.25</ele><time>2026-05-01T16:43:35.678Z</time></trkpt><trkpt lat="41.009995" lon="9.431055"><ele>62.0</ele><time>2026-05-01T16:43:36.678Z</time></trkpt><trkpt lat="41.01014" lon="9.4309433"><ele>62.0</ele><time>2026-05-01T16:43:37.678Z</time></trkpt><trkpt lat="41.0102717" lon="9.4308467"><ele>62.0</ele><time>2026-05-01T16:43:38.678Z</time></trkpt><trkpt lat="41.0103967" lon="9.4307417"><ele>62.0</ele><time>2026-05-01T16:43:39.679Z</time></trkpt><trkpt lat="41.010525" lon="9.4306333"><ele>62.0</ele><time>2026-05-01T16:43:40.678Z</time></trkpt><trkpt lat="41.01065" lon="9.4305333"><ele>62.0</ele><time>2026-05-01T16:43:41.678Z</time></trkpt><trkpt lat="41.01077" lon="9.430475"><ele>62.0</ele><time>2026-05-01T16:43:42.678Z</time></trkpt><trkpt lat="41.0108967" lon="9.4304217"><ele>62.0</ele><time>2026-05-01T16:43:43.678Z</time></trkpt><trkpt lat="41.0110233" lon="9.4303333"><ele>62.0</ele><time>2026-05-01T16:43:44.678Z</time></trkpt><trkpt lat="41.011155" lon="9.43022"><ele>62.0</ele><time>2026-05-01T16:43:45.678Z</time></trkpt><trkpt lat="41.011275" lon="9.4301"><ele>62.0</ele><time>2026-05-01T16:43:46.678Z</time></trkpt><trkpt lat="41.011395" lon="9.4299717"><ele>62.0</ele><time>2026-05-01T16:43:47.678Z</time></trkpt><trkpt lat="41.0115183" lon="9.4298267"><ele>62.0</ele><time>2026-05-01T16:43:48.678Z</time></trkpt><trkpt lat="41.0116517" lon="9.4296917"><ele>62.0</ele><time>2026-05-01T16:43:49.678Z</time></trkpt><trkpt lat="41.011795" lon="9.4295783"><ele>59.0</ele><time>2026-05-01T16:43:50.678Z</time></trkpt><trkpt lat="41.01196" lon="9.4295083"><ele>56.0</ele><time>2026-05-01T16:43:51.678Z</time></trkpt><trkpt lat="41.0121283" lon="9.4294567"><ele>53.0</ele><time>2026-05-01T16:43:52.678Z</time></trkpt><trkpt lat="41.0122817" lon="9.4294083"><ele>53.0</ele><time>2026-05-01T16:43:53.678Z</time></trkpt><trkpt lat="41.0124367" lon="9.42935"><ele>53.0</ele><time>2026-05-01T16:43:54.678Z</time></trkpt><trkpt lat="41.0125967" lon="9.4292933"><ele>53.0</ele><time>2026-05-01T16:43:55.678Z</time></trkpt><trkpt lat="41.01275" lon="9.4292333"><ele>51.75</ele><time>2026-05-01T16:43:56.678Z</time></trkpt><trkpt lat="41.01289" lon="9.4291983"><ele>50.5</ele><time>2026-05-01T16:43:57.678Z</time></trkpt><trkpt lat="41.01301" lon="9.4291667"><ele>49.25</ele><time>2026-05-01T16:43:58.678Z</time></trkpt><trkpt lat="41.0131417" lon="9.42911"><ele>48.0</ele><time>2026-05-01T16:43:59.678Z</time></trkpt><trkpt lat="41.0132633" lon="9.429055"><ele>48.25</ele><time>2026-05-01T16:44:00.678Z</time></trkpt><trkpt lat="41.0134017" lon="9.4289817"><ele>48.5</ele><time>2026-05-01T16:44:01.678Z</time></trkpt><trkpt lat="41.0135417" lon="9.4289317"><ele>48.75</ele><time>2026-05-01T16:44:02.678Z</time></trkpt><trkpt lat="41.01368" lon="9.4288883"><ele>49.0</ele><time>2026-05-01T16:44:03.678Z</time></trkpt><trkpt lat="41.0138283" lon="9.4288617"><ele>49.0</ele><time>2026-05-01T16:44:04.678Z</time></trkpt><trkpt lat="41.013985" lon="9.42886"><ele>49.0</ele><time>2026-05-01T16:44:05.678Z</time></trkpt><trkpt lat="41.0141433" lon="9.4288883"><ele>49.0</ele><time>2026-05-01T16:44:06.678Z</time></trkpt><trkpt lat="41.0143" lon="9.4289317"><ele>46.666666666666664</ele><time>2026-05-01T16:44:07.678Z</time></trkpt><trkpt lat="41.0144567" lon="9.4289817"><ele>44.33333333333333</ele><time>2026-05-01T16:44:08.678Z</time></trkpt><trkpt lat="41.0146133" lon="9.4290317"><ele>42.0</ele><time>2026-05-01T16:44:09.678Z</time></trkpt><trkpt lat="41.0147833" lon="9.4290683"><ele>42.0</ele><time>2026-05-01T16:44:10.678Z</time></trkpt><trkpt lat="41.0149467" lon="9.4290817"><ele>42.0</ele><time>2026-05-01T16:44:11.678Z</time></trkpt><trkpt lat="41.0151017" lon="9.4291183"><ele>42.0</ele><time>2026-05-01T16:44:12.678Z</time></trkpt><trkpt lat="41.01526" lon="9.42912"><ele>41.5</ele><time>2026-05-01T16:44:13.678Z</time></trkpt><trkpt lat="41.0154267" lon="9.4291017"><ele>41.0</ele><time>2026-05-01T16:44:14.678Z</time></trkpt><trkpt lat="41.0158533" lon="9.429025"><ele>41.0</ele><time>2026-05-01T16:44:17.678Z</time></trkpt><trkpt lat="41.0160133" lon="9.4290033"><ele>41.0</ele><time>2026-05-01T16:44:18.678Z</time></trkpt><trkpt lat="41.01633" lon="9.4289433"><ele>40.5</ele><time>2026-05-01T16:44:20.678Z</time></trkpt><trkpt lat="41.01664" lon="9.4287683"><ele>40.0</ele><time>2026-05-01T16:44:22.678Z</time></trkpt><trkpt lat="41.016785" lon="9.4286417"><ele>38.333333333333336</ele><time>2026-05-01T16:44:23.678Z</time></trkpt><trkpt lat="41.01694" lon="9.4285617"><ele>36.666666666666664</ele><time>2026-05-01T16:44:24.678Z</time></trkpt><trkpt lat="41.0171033" lon="9.4285133"><ele>35.0</ele><time>2026-05-01T16:44:25.678Z</time></trkpt><trkpt lat="41.0172417" lon="9.4285133"><ele>35.0</ele><time>2026-05-01T16:44:26.678Z</time></trkpt><trkpt lat="41.0173917" lon="9.4285183"><ele>35.0</ele><time>2026-05-01T16:44:27.678Z</time></trkpt><trkpt lat="41.0175617" lon="9.4285833"><ele>35.0</ele><time>2026-05-01T16:44:28.678Z</time></trkpt><trkpt lat="41.0177333" lon="9.4286533"><ele>35.0</ele><time>2026-05-01T16:44:29.678Z</time></trkpt><trkpt lat="41.0179033" lon="9.4286983"><ele>35.0</ele><time>2026-05-01T16:44:30.678Z</time></trkpt><trkpt lat="41.0180683" lon="9.4287017"><ele>35.0</ele><time>2026-05-01T16:44:31.678Z</time></trkpt><trkpt lat="41.0182317" lon="9.42871"><ele>35.33333333333333</ele><time>2026-05-01T16:44:32.678Z</time></trkpt><trkpt lat="41.0184033" lon="9.4287233"><ele>35.666666666666664</ele><time>2026-05-01T16:44:33.678Z</time></trkpt><trkpt lat="41.018555" lon="9.4287533"><ele>36.0</ele><time>2026-05-01T16:44:34.678Z</time></trkpt><trkpt lat="41.018705" lon="9.4287983"><ele>38.333333333333336</ele><time>2026-05-01T16:44:35.678Z</time></trkpt><trkpt lat="41.0188667" lon="9.42885"><ele>40.66666666666667</ele><time>2026-05-01T16:44:36.678Z</time></trkpt><trkpt lat="41.019035" lon="9.428905"><ele>43.0</ele><time>2026-05-01T16:44:37.678Z</time></trkpt><trkpt lat="41.0192233" lon="9.4289833"><ele>43.0</ele><time>2026-05-01T16:44:38.678Z</time></trkpt><trkpt lat="41.0193917" lon="9.42898"><ele>43.0</ele><time>2026-05-01T16:44:39.679Z</time></trkpt><trkpt lat="41.01954" lon="9.4289533"><ele>43.0</ele><time>2026-05-01T16:44:40.678Z</time></trkpt><trkpt lat="41.0196983" lon="9.4288833"><ele>41.0</ele><time>2026-05-01T16:44:41.678Z</time></trkpt><trkpt lat="41.019855" lon="9.4287833"><ele>39.0</ele><time>2026-05-01T16:44:42.678Z</time></trkpt><trkpt lat="41.0200117" lon="9.4286917"><ele>37.0</ele><time>2026-05-01T16:44:43.678Z</time></trkpt><trkpt lat="41.0201533" lon="9.4285883"><ele>37.0</ele><time>2026-05-01T16:44:44.678Z</time></trkpt><trkpt lat="41.020295" lon="9.4284767"><ele>37.0</ele><time>2026-05-01T16:44:45.678Z</time></trkpt><trkpt lat="41.020435" lon="9.4283667"><ele>37.0</ele><time>2026-05-01T16:44:46.678Z</time></trkpt><trkpt lat="41.02057" lon="9.4282517"><ele>37.0</ele><time>2026-05-01T16:44:47.678Z</time></trkpt><trkpt lat="41.0206767" lon="9.4281467"><ele>37.0</ele><time>2026-05-01T16:44:48.678Z</time></trkpt><trkpt lat="41.0208033" lon="9.428025"><ele>37.0</ele><time>2026-05-01T16:44:49.678Z</time></trkpt><trkpt lat="41.0209433" lon="9.427945"><ele>37.0</ele><time>2026-05-01T16:44:50.678Z</time></trkpt><trkpt lat="41.0210883" lon="9.4278917"><ele>36.0</ele><time>2026-05-01T16:44:51.678Z</time></trkpt><trkpt lat="41.0212517" lon="9.4278517"><ele>35.0</ele><time>2026-05-01T16:44:52.678Z</time></trkpt><trkpt lat="41.02142" lon="9.4278217"><ele>34.0</ele><time>2026-05-01T16:44:53.678Z</time></trkpt><trkpt lat="41.0215883" lon="9.4277883"><ele>34.0</ele><time>2026-05-01T16:44:54.678Z</time></trkpt><trkpt lat="41.0217517" lon="9.4277583"><ele>34.0</ele><time>2026-05-01T16:44:55.678Z</time></trkpt><trkpt lat="41.0219133" lon="9.4277283"><ele>34.0</ele><time>2026-05-01T16:44:56.678Z</time></trkpt><trkpt lat="41.02206" lon="9.4277033"><ele>34.0</ele><time>2026-05-01T16:44:57.678Z</time></trkpt><trkpt lat="41.02222" lon="9.4276817"><ele>34.0</ele><time>2026-05-01T16:44:58.678Z</time></trkpt><trkpt lat="41.0223683" lon="9.4277"><ele>34.0</ele><time>2026-05-01T16:44:59.678Z</time></trkpt><trkpt lat="41.0225017" lon="9.4277067"><ele>34.0</ele><time>2026-05-01T16:45:00.678Z</time></trkpt><trkpt lat="41.0226467" lon="9.4277417"><ele>33.66666666666667</ele><time>2026-05-01T16:45:01.678Z</time></trkpt><trkpt lat="41.022795" lon="9.4277883"><ele>33.333333333333336</ele><time>2026-05-01T16:45:02.678Z</time></trkpt><trkpt lat="41.0229517" lon="9.4278383"><ele>33.0</ele><time>2026-05-01T16:45:03.678Z</time></trkpt><trkpt lat="41.0230983" lon="9.427905"><ele>34.0</ele><time>2026-05-01T16:45:04.678Z</time></trkpt><trkpt lat="41.0232267" lon="9.4279783"><ele>35.0</ele><time>2026-05-01T16:45:05.678Z</time></trkpt><trkpt lat="41.0233533" lon="9.4280583"><ele>36.0</ele><time>2026-05-01T16:45:06.678Z</time></trkpt><trkpt lat="41.0234933" lon="9.428145"><ele>37.0</ele><time>2026-05-01T16:45:07.678Z</time></trkpt><trkpt lat="41.0236467" lon="9.4282233"><ele>37.0</ele><time>2026-05-01T16:45:08.678Z</time></trkpt><trkpt lat="41.0238067" lon="9.4283117"><ele>37.0</ele><time>2026-05-01T16:45:09.678Z</time></trkpt><trkpt lat="41.0239683" lon="9.4284167"><ele>37.0</ele><time>2026-05-01T16:45:10.678Z</time></trkpt><trkpt lat="41.0241183" lon="9.4285333"><ele>37.333333333333336</ele><time>2026-05-01T16:45:11.678Z</time></trkpt><trkpt lat="41.0242567" lon="9.4286317"><ele>37.666666666666664</ele><time>2026-05-01T16:45:12.678Z</time></trkpt><trkpt lat="41.0244133" lon="9.4287333"><ele>38.0</ele><time>2026-05-01T16:45:13.678Z</time></trkpt><trkpt lat="41.0245567" lon="9.4288333"><ele>38.0</ele><time>2026-05-01T16:45:14.678Z</time></trkpt><trkpt lat="41.0246833" lon="9.4289233"><ele>38.0</ele><time>2026-05-01T16:45:15.678Z</time></trkpt><trkpt lat="41.0248433" lon="9.4290083"><ele>38.0</ele><time>2026-05-01T16:45:16.678Z</time></trkpt><trkpt lat="41.0250167" lon="9.4290783"><ele>35.666666666666664</ele><time>2026-05-01T16:45:17.678Z</time></trkpt><trkpt lat="41.02519" lon="9.429165"><ele>33.333333333333336</ele><time>2026-05-01T16:45:18.678Z</time></trkpt><trkpt lat="41.0253567" lon="9.4292517"><ele>31.0</ele><time>2026-05-01T16:45:19.678Z</time></trkpt><trkpt lat="41.0255233" lon="9.4293333"><ele>31.0</ele><time>2026-05-01T16:45:20.678Z</time></trkpt><trkpt lat="41.0256767" lon="9.42942"><ele>31.0</ele><time>2026-05-01T16:45:21.678Z</time></trkpt><trkpt lat="41.0258283" lon="9.429505"><ele>31.0</ele><time>2026-05-01T16:45:22.678Z</time></trkpt><trkpt lat="41.0259817" lon="9.42959"><ele>32.66666666666667</ele><time>2026-05-01T16:45:23.678Z</time></trkpt><trkpt lat="41.0261233" lon="9.429665"><ele>34.333333333333336</ele><time>2026-05-01T16:45:24.678Z</time></trkpt><trkpt lat="41.0262717" lon="9.4297417"><ele>36.0</ele><time>2026-05-01T16:45:25.678Z</time></trkpt><trkpt lat="41.02643" lon="9.429805"><ele>36.0</ele><time>2026-05-01T16:45:26.678Z</time></trkpt><trkpt lat="41.0266" lon="9.4298817"><ele>36.0</ele><time>2026-05-01T16:45:27.678Z</time></trkpt><trkpt lat="41.02676" lon="9.4299583"><ele>36.0</ele><time>2026-05-01T16:45:28.678Z</time></trkpt><trkpt lat="41.0269117" lon="9.4300433"><ele>35.0</ele><time>2026-05-01T16:45:29.678Z</time></trkpt><trkpt lat="41.0270483" lon="9.43014"><ele>34.0</ele><time>2026-05-01T16:45:30.678Z</time></trkpt><trkpt lat="41.0271833" lon="9.430245"><ele>33.0</ele><time>2026-05-01T16:45:31.678Z</time></trkpt><trkpt lat="41.0273117" lon="9.4303633"><ele>33.0</ele><time>2026-05-01T16:45:32.678Z</time></trkpt><trkpt lat="41.0274433" lon="9.4304783"><ele>33.0</ele><time>2026-05-01T16:45:33.679Z</time></trkpt><trkpt lat="41.0275717" lon="9.4305967"><ele>33.0</ele><time>2026-05-01T16:45:34.678Z</time></trkpt><trkpt lat="41.02769" lon="9.43069"><ele>33.0</ele><time>2026-05-01T16:45:35.678Z</time></trkpt><trkpt lat="41.0278217" lon="9.4307517"><ele>33.0</ele><time>2026-05-01T16:45:36.678Z</time></trkpt><trkpt lat="41.0279617" lon="9.4307767"><ele>33.0</ele><time>2026-05-01T16:45:37.678Z</time></trkpt><trkpt lat="41.028105" lon="9.4307833"><ele>33.0</ele><time>2026-05-01T16:45:38.678Z</time></trkpt><trkpt lat="41.0282533" lon="9.4308233"><ele>33.0</ele><time>2026-05-01T16:45:39.678Z</time></trkpt><trkpt lat="41.0283967" lon="9.4308783"><ele>33.0</ele><time>2026-05-01T16:45:40.679Z</time></trkpt><trkpt lat="41.0285367" lon="9.4309433"><ele>33.0</ele><time>2026-05-01T16:45:41.678Z</time></trkpt><trkpt lat="41.0286983" lon="9.4309983"><ele>33.0</ele><time>2026-05-01T16:45:42.678Z</time></trkpt><trkpt lat="41.028875" lon="9.43103"><ele>33.0</ele><time>2026-05-01T16:45:43.678Z</time></trkpt><trkpt lat="41.0290517" lon="9.4310417"><ele>33.0</ele><time>2026-05-01T16:45:44.678Z</time></trkpt><trkpt lat="41.0292083" lon="9.4310417"><ele>32.333333333333336</ele><time>2026-05-01T16:45:45.678Z</time></trkpt><trkpt lat="41.02937" lon="9.4310467"><ele>31.666666666666668</ele><time>2026-05-01T16:45:46.678Z</time></trkpt><trkpt lat="41.029525" lon="9.4310433"><ele>31.0</ele><time>2026-05-01T16:45:47.678Z</time></trkpt><trkpt lat="41.0296883" lon="9.43105"><ele>31.0</ele><time>2026-05-01T16:45:48.678Z</time></trkpt><trkpt lat="41.0298467" lon="9.43106"><ele>31.0</ele><time>2026-05-01T16:45:49.678Z</time></trkpt><trkpt lat="41.0300033" lon="9.4310817"><ele>31.0</ele><time>2026-05-01T16:45:50.678Z</time></trkpt><trkpt lat="41.0301667" lon="9.4311283"><ele>30.666666666666668</ele><time>2026-05-01T16:45:51.678Z</time></trkpt><trkpt lat="41.0303283" lon="9.4311883"><ele>30.333333333333336</ele><time>2026-05-01T16:45:52.678Z</time></trkpt><trkpt lat="41.0304917" lon="9.4312517"><ele>30.0</ele><time>2026-05-01T16:45:53.678Z</time></trkpt><trkpt lat="41.0306467" lon="9.4313267"><ele>31.333333333333336</ele><time>2026-05-01T16:45:54.678Z</time></trkpt><trkpt lat="41.0307883" lon="9.4313983"><ele>32.66666666666667</ele><time>2026-05-01T16:45:55.678Z</time></trkpt><trkpt lat="41.0309317" lon="9.4314733"><ele>34.0</ele><time>2026-05-01T16:45:56.678Z</time></trkpt><trkpt lat="41.0310767" lon="9.431565"><ele>34.0</ele><time>2026-05-01T16:45:57.678Z</time></trkpt><trkpt lat="41.03122" lon="9.4316633"><ele>34.0</ele><time>2026-05-01T16:45:58.678Z</time></trkpt><trkpt lat="41.031355" lon="9.4317717"><ele>34.0</ele><time>2026-05-01T16:45:59.678Z</time></trkpt><trkpt lat="41.031495" lon="9.4318633"><ele>32.0</ele><time>2026-05-01T16:46:00.678Z</time></trkpt><trkpt lat="41.031645" lon="9.4319533"><ele>30.0</ele><time>2026-05-01T16:46:01.678Z</time></trkpt><trkpt lat="41.0318017" lon="9.43203"><ele>28.0</ele><time>2026-05-01T16:46:02.678Z</time></trkpt><trkpt lat="41.03196" lon="9.4320917"><ele>30.333333333333336</ele><time>2026-05-01T16:46:03.678Z</time></trkpt><trkpt lat="41.0321183" lon="9.4321467"><ele>32.666666666666664</ele><time>2026-05-01T16:46:04.678Z</time></trkpt><trkpt lat="41.0322733" lon="9.4322017"><ele>35.0</ele><time>2026-05-01T16:46:05.678Z</time></trkpt><trkpt lat="41.032425" lon="9.4322633"><ele>33.666666666666664</ele><time>2026-05-01T16:46:06.678Z</time></trkpt><trkpt lat="41.0325783" lon="9.4323317"><ele>32.333333333333336</ele><time>2026-05-01T16:46:07.678Z</time></trkpt><trkpt lat="41.032725" lon="9.432415"><ele>31.0</ele><time>2026-05-01T16:46:08.678Z</time></trkpt><trkpt lat="41.0328617" lon="9.4325083"><ele>31.0</ele><time>2026-05-01T16:46:09.678Z</time></trkpt><trkpt lat="41.0330067" lon="9.432605"><ele>31.0</ele><time>2026-05-01T16:46:10.678Z</time></trkpt><trkpt lat="41.03315" lon="9.4326967"><ele>31.0</ele><time>2026-05-01T16:46:11.678Z</time></trkpt><trkpt lat="41.0332833" lon="9.4327717"><ele>29.75</ele><time>2026-05-01T16:46:12.678Z</time></trkpt><trkpt lat="41.033425" lon="9.43284"><ele>28.5</ele><time>2026-05-01T16:46:13.678Z</time></trkpt><trkpt lat="41.03356" lon="9.432905"><ele>27.25</ele><time>2026-05-01T16:46:14.678Z</time></trkpt><trkpt lat="41.0336933" lon="9.43298"><ele>26.0</ele><time>2026-05-01T16:46:15.678Z</time></trkpt><trkpt lat="41.0338267" lon="9.433085"><ele>26.75</ele><time>2026-05-01T16:46:16.678Z</time></trkpt><trkpt lat="41.0339083" lon="9.4331933"><ele>27.5</ele><time>2026-05-01T16:46:17.678Z</time></trkpt><trkpt lat="41.0340017" lon="9.43331"><ele>28.25</ele><time>2026-05-01T16:46:18.678Z</time></trkpt><trkpt lat="41.0340983" lon="9.4334517"><ele>29.0</ele><time>2026-05-01T16:46:19.678Z</time></trkpt><trkpt lat="41.034165" lon="9.43357"><ele>29.0</ele><time>2026-05-01T16:46:20.678Z</time></trkpt><trkpt lat="41.0342767" lon="9.43367"><ele>29.0</ele><time>2026-05-01T16:46:21.678Z</time></trkpt><trkpt lat="41.034395" lon="9.43373"><ele>29.0</ele><time>2026-05-01T16:46:22.678Z</time></trkpt><trkpt lat="41.0345067" lon="9.433745"><ele>29.0</ele><time>2026-05-01T16:46:23.678Z</time></trkpt><trkpt lat="41.0346167" lon="9.43375"><ele>29.0</ele><time>2026-05-01T16:46:24.678Z</time></trkpt><trkpt lat="41.034725" lon="9.43373"><ele>29.0</ele><time>2026-05-01T16:46:25.678Z</time></trkpt><trkpt lat="41.03482" lon="9.4337217"><ele>29.0</ele><time>2026-05-01T16:46:26.678Z</time></trkpt><trkpt lat="41.0348933" lon="9.4337083"><ele>29.0</ele><time>2026-05-01T16:46:27.678Z</time></trkpt><trkpt lat="41.0349933" lon="9.4336683"><ele>29.0</ele><time>2026-05-01T16:46:29.679Z</time></trkpt><trkpt lat="41.0350783" lon="9.433615"><ele>28.0</ele><time>2026-05-01T16:46:31.678Z</time></trkpt><trkpt lat="41.035185" lon="9.433525"><ele>27.0</ele><time>2026-05-01T16:46:33.678Z</time></trkpt><trkpt lat="41.03529" lon="9.4334467"><ele>26.0</ele><time>2026-05-01T16:46:35.678Z</time></trkpt><trkpt lat="41.035415" lon="9.4333867"><ele>25.0</ele><time>2026-05-01T16:46:37.678Z</time></trkpt><trkpt lat="41.0354883" lon="9.4333567"><ele>25.0</ele><time>2026-05-01T16:46:38.678Z</time></trkpt><trkpt lat="41.0355717" lon="9.433335"><ele>25.0</ele><time>2026-05-01T16:46:39.678Z</time></trkpt><trkpt lat="41.0357367" lon="9.433345"><ele>25.0</ele><time>2026-05-01T16:46:41.678Z</time></trkpt><trkpt lat="41.0358133" lon="9.4333683"><ele>25.0</ele><time>2026-05-01T16:46:42.678Z</time></trkpt><trkpt lat="41.0359983" lon="9.4334433"><ele>25.5</ele><time>2026-05-01T16:46:44.678Z</time></trkpt><trkpt lat="41.036105" lon="9.4334917"><ele>26.0</ele><time>2026-05-01T16:46:45.678Z</time></trkpt><trkpt lat="41.03649" lon="9.433645"><ele>27.0</ele><time>2026-05-01T16:46:48.678Z</time></trkpt><trkpt lat="41.0370317" lon="9.4338567"><ele>26.0</ele><time>2026-05-01T16:46:52.678Z</time></trkpt><trkpt lat="41.0376233" lon="9.4340183"><ele>26.0</ele><time>2026-05-01T16:46:56.678Z</time></trkpt><trkpt lat="41.0380617" lon="9.43416"><ele>26.0</ele><time>2026-05-01T16:46:59.678Z</time></trkpt><trkpt lat="41.0384883" lon="9.4342583"><ele>26.0</ele><time>2026-05-01T16:47:02.678Z</time></trkpt><trkpt lat="41.0386417" lon="9.4342833"><ele>26.0</ele><time>2026-05-01T16:47:03.678Z</time></trkpt><trkpt lat="41.0389483" lon="9.4342833"><ele>26.0</ele><time>2026-05-01T16:47:05.679Z</time></trkpt><trkpt lat="41.039105" lon="9.4343"><ele>25.0</ele><time>2026-05-01T16:47:06.679Z</time></trkpt><trkpt lat="41.03955" lon="9.4343533"><ele>24.0</ele><time>2026-05-01T16:47:09.678Z</time></trkpt><trkpt lat="41.0397017" lon="9.434385"><ele>24.0</ele><time>2026-05-01T16:47:10.678Z</time></trkpt><trkpt lat="41.03987" lon="9.4344517"><ele>24.0</ele><time>2026-05-01T16:47:11.678Z</time></trkpt><trkpt lat="41.0401883" lon="9.4345417"><ele>27.0</ele><time>2026-05-01T16:47:13.678Z</time></trkpt><trkpt lat="41.04051" lon="9.434665"><ele>30.0</ele><time>2026-05-01T16:47:15.678Z</time></trkpt><trkpt lat="41.0406717" lon="9.434725"><ele>28.5</ele><time>2026-05-01T16:47:16.678Z</time></trkpt><trkpt lat="41.04099" lon="9.4348417"><ele>27.0</ele><time>2026-05-01T16:47:18.679Z</time></trkpt><trkpt lat="41.0411467" lon="9.4349033"><ele>27.0</ele><time>2026-05-01T16:47:19.678Z</time></trkpt><trkpt lat="41.0413" lon="9.4349667"><ele>27.0</ele><time>2026-05-01T16:47:20.678Z</time></trkpt><trkpt lat="41.041445" lon="9.4350133"><ele>27.0</ele><time>2026-05-01T16:47:21.678Z</time></trkpt><trkpt lat="41.0416017" lon="9.4350733"><ele>26.0</ele><time>2026-05-01T16:47:22.678Z</time></trkpt><trkpt lat="41.04176" lon="9.4351083"><ele>25.0</ele><time>2026-05-01T16:47:23.678Z</time></trkpt><trkpt lat="41.04191" lon="9.4351667"><ele>24.0</ele><time>2026-05-01T16:47:24.678Z</time></trkpt><trkpt lat="41.042075" lon="9.4352217"><ele>24.0</ele><time>2026-05-01T16:47:25.678Z</time></trkpt><trkpt lat="41.0422333" lon="9.4352683"><ele>24.0</ele><time>2026-05-01T16:47:26.678Z</time></trkpt><trkpt lat="41.0424033" lon="9.4352867"><ele>24.0</ele><time>2026-05-01T16:47:27.679Z</time></trkpt><trkpt lat="41.0425683" lon="9.4353083"><ele>23.333333333333332</ele><time>2026-05-01T16:47:28.678Z</time></trkpt><trkpt lat="41.04275" lon="9.4353333"><ele>22.666666666666664</ele><time>2026-05-01T16:47:29.678Z</time></trkpt><trkpt lat="41.0429183" lon="9.4353417"><ele>22.0</ele><time>2026-05-01T16:47:30.678Z</time></trkpt><trkpt lat="41.0430833" lon="9.4353317"><ele>19.0</ele><time>2026-05-01T16:47:31.678Z</time></trkpt><trkpt lat="41.043575" lon="9.4353683"><ele>19.0</ele><time>2026-05-01T16:47:34.678Z</time></trkpt><trkpt lat="41.0437233" lon="9.4353983"><ele>19.0</ele><time>2026-05-01T16:47:35.678Z</time></trkpt><trkpt lat="41.044075" lon="9.435435"><ele>19.5</ele><time>2026-05-01T16:47:37.678Z</time></trkpt><trkpt lat="41.0444183" lon="9.4354333"><ele>20.0</ele><time>2026-05-01T16:47:39.678Z</time></trkpt><trkpt lat="41.0445883" lon="9.4354233"><ele>20.0</ele><time>2026-05-01T16:47:40.678Z</time></trkpt><trkpt lat="41.0447633" lon="9.4354133"><ele>20.0</ele><time>2026-05-01T16:47:41.678Z</time></trkpt><trkpt lat="41.044935" lon="9.4353933"><ele>20.0</ele><time>2026-05-01T16:47:42.678Z</time></trkpt><trkpt lat="41.0451" lon="9.4353517"><ele>19.5</ele><time>2026-05-01T16:47:43.678Z</time></trkpt><trkpt lat="41.04543" lon="9.4353067"><ele>19.0</ele><time>2026-05-01T16:47:45.678Z</time></trkpt><trkpt lat="41.045585" lon="9.43533"><ele>28.0</ele><time>2026-05-01T16:47:46.678Z</time></trkpt><trkpt lat="41.04608" lon="9.43549"><ele>28.0</ele><time>2026-05-01T16:47:49.678Z</time></trkpt><trkpt lat="41.0462233" lon="9.4355783"><ele>28.0</ele><time>2026-05-01T16:47:50.678Z</time></trkpt><trkpt lat="41.04649" lon="9.4358317"><ele>25.666666666666668</ele><time>2026-05-01T16:47:52.678Z</time></trkpt><trkpt lat="41.04673" lon="9.4360533"><ele>23.333333333333336</ele><time>2026-05-01T16:47:54.678Z</time></trkpt><trkpt lat="41.0468583" lon="9.4361"><ele>21.0</ele><time>2026-05-01T16:47:55.678Z</time></trkpt><trkpt lat="41.0471483" lon="9.436085"><ele>22.5</ele><time>2026-05-01T16:47:57.678Z</time></trkpt><trkpt lat="41.047465" lon="9.4358167"><ele>24.0</ele><time>2026-05-01T16:48:00.678Z</time></trkpt><trkpt lat="41.0475583" lon="9.4357383"><ele>24.0</ele><time>2026-05-01T16:48:01.678Z</time></trkpt><trkpt lat="41.0476683" lon="9.4356767"><ele>24.0</ele><time>2026-05-01T16:48:02.678Z</time></trkpt><trkpt lat="41.0477817" lon="9.43561"><ele>24.0</ele><time>2026-05-01T16:48:03.678Z</time></trkpt><trkpt lat="41.0479133" lon="9.43557"><ele>24.0</ele><time>2026-05-01T16:48:04.678Z</time></trkpt><trkpt lat="41.048045" lon="9.4355817"><ele>24.0</ele><time>2026-05-01T16:48:05.678Z</time></trkpt><trkpt lat="41.0481783" lon="9.435605"><ele>24.0</ele><time>2026-05-01T16:48:06.678Z</time></trkpt><trkpt lat="41.0483283" lon="9.4356483"><ele>24.0</ele><time>2026-05-01T16:48:07.678Z</time></trkpt><trkpt lat="41.04847" lon="9.4356967"><ele>24.0</ele><time>2026-05-01T16:48:08.679Z</time></trkpt><trkpt lat="41.04861" lon="9.4357483"><ele>23.0</ele><time>2026-05-01T16:48:09.678Z</time></trkpt><trkpt lat="41.0487483" lon="9.4358233"><ele>22.0</ele><time>2026-05-01T16:48:10.678Z</time></trkpt><trkpt lat="41.0488817" lon="9.4358683"><ele>21.0</ele><time>2026-05-01T16:48:11.678Z</time></trkpt><trkpt lat="41.0490133" lon="9.4359083"><ele>20.0</ele><time>2026-05-01T16:48:12.678Z</time></trkpt><trkpt lat="41.0492967" lon="9.436"><ele>19.5</ele><time>2026-05-01T16:48:14.678Z</time></trkpt><trkpt lat="41.0494267" lon="9.4360383"><ele>19.0</ele><time>2026-05-01T16:48:15.678Z</time></trkpt><trkpt lat="41.0495467" lon="9.4360783"><ele>18.5</ele><time>2026-05-01T16:48:16.678Z</time></trkpt><trkpt lat="41.0496817" lon="9.4361183"><ele>18.0</ele><time>2026-05-01T16:48:17.678Z</time></trkpt><trkpt lat="41.0499333" lon="9.4362183"><ele>17.666666666666668</ele><time>2026-05-01T16:48:19.678Z</time></trkpt><trkpt lat="41.0500567" lon="9.4362367"><ele>17.333333333333336</ele><time>2026-05-01T16:48:20.678Z</time></trkpt><trkpt lat="41.0501667" lon="9.4362417"><ele>17.0</ele><time>2026-05-01T16:48:21.678Z</time></trkpt><trkpt lat="41.0503767" lon="9.4361433"><ele>17.0</ele><time>2026-05-01T16:48:23.678Z</time></trkpt><trkpt lat="41.0506267" lon="9.4358067"><ele>17.0</ele><time>2026-05-01T16:48:26.678Z</time></trkpt><trkpt lat="41.0507617" lon="9.4354933"><ele>17.333333333333336</ele><time>2026-05-01T16:48:28.678Z</time></trkpt><trkpt lat="41.0509333" lon="9.4352233"><ele>17.666666666666668</ele><time>2026-05-01T16:48:30.678Z</time></trkpt><trkpt lat="41.05102" lon="9.4351"><ele>18.0</ele><time>2026-05-01T16:48:31.678Z</time></trkpt><trkpt lat="41.051115" lon="9.4349717"><ele>18.0</ele><time>2026-05-01T16:48:32.678Z</time></trkpt><trkpt lat="41.0512333" lon="9.434855"><ele>18.0</ele><time>2026-05-01T16:48:33.678Z</time></trkpt><trkpt lat="41.0515167" lon="9.4347817"><ele>18.0</ele><time>2026-05-01T16:48:35.678Z</time></trkpt><trkpt lat="41.051685" lon="9.434775"><ele>17.333333333333332</ele><time>2026-05-01T16:48:36.678Z</time></trkpt><trkpt lat="41.0518767" lon="9.434785"><ele>16.666666666666664</ele><time>2026-05-01T16:48:37.678Z</time></trkpt><trkpt lat="41.05202" lon="9.4347283"><ele>16.0</ele><time>2026-05-01T16:48:38.678Z</time></trkpt><trkpt lat="41.0523067" lon="9.43458"><ele>16.5</ele><time>2026-05-01T16:48:40.678Z</time></trkpt><trkpt lat="41.0524733" lon="9.434515"><ele>17.0</ele><time>2026-05-01T16:48:41.678Z</time></trkpt><trkpt lat="41.0527633" lon="9.43443"><ele>17.0</ele><time>2026-05-01T16:48:43.678Z</time></trkpt><trkpt lat="41.0530833" lon="9.4344417"><ele>17.0</ele><time>2026-05-01T16:48:45.678Z</time></trkpt><trkpt lat="41.0534033" lon="9.4344917"><ele>16.5</ele><time>2026-05-01T16:48:47.678Z</time></trkpt><trkpt lat="41.0537183" lon="9.4345017"><ele>16.0</ele><time>2026-05-01T16:48:49.678Z</time></trkpt><trkpt lat="41.05386" lon="9.4344967"><ele>16.0</ele><time>2026-05-01T16:48:50.678Z</time></trkpt><trkpt lat="41.0540167" lon="9.4345233"><ele>16.0</ele><time>2026-05-01T16:48:51.678Z</time></trkpt><trkpt lat="41.0541767" lon="9.4345383"><ele>16.0</ele><time>2026-05-01T16:48:52.678Z</time></trkpt><trkpt lat="41.05449" lon="9.4345533"><ele>16.0</ele><time>2026-05-01T16:48:54.678Z</time></trkpt><trkpt lat="41.0547883" lon="9.4345583"><ele>16.0</ele><time>2026-05-01T16:48:56.678Z</time></trkpt><trkpt lat="41.0549383" lon="9.434585"><ele>16.0</ele><time>2026-05-01T16:48:57.678Z</time></trkpt><trkpt lat="41.0551017" lon="9.4346167"><ele>16.0</ele><time>2026-05-01T16:48:58.678Z</time></trkpt><trkpt lat="41.0552533" lon="9.4346383"><ele>16.0</ele><time>2026-05-01T16:48:59.678Z</time></trkpt><trkpt lat="41.0555767" lon="9.4346567"><ele>15.666666666666666</ele><time>2026-05-01T16:49:01.678Z</time></trkpt><trkpt lat="41.0557483" lon="9.434655"><ele>15.333333333333332</ele><time>2026-05-01T16:49:02.678Z</time></trkpt><trkpt lat="41.0559083" lon="9.43464"><ele>15.0</ele><time>2026-05-01T16:49:03.678Z</time></trkpt><trkpt lat="41.05606" lon="9.434625"><ele>15.0</ele><time>2026-05-01T16:49:04.678Z</time></trkpt><trkpt lat="41.0562133" lon="9.4346183"><ele>15.0</ele><time>2026-05-01T16:49:05.678Z</time></trkpt><trkpt lat="41.0563733" lon="9.434635"><ele>15.0</ele><time>2026-05-01T16:49:06.678Z</time></trkpt><trkpt lat="41.05684" lon="9.4348317"><ele>17.333333333333332</ele><time>2026-05-01T16:49:09.678Z</time></trkpt><trkpt lat="41.056975" lon="9.434895"><ele>19.666666666666664</ele><time>2026-05-01T16:49:10.678Z</time></trkpt><trkpt lat="41.057255" lon="9.4350367"><ele>22.0</ele><time>2026-05-01T16:49:12.679Z</time></trkpt><trkpt lat="41.0573817" lon="9.4351067"><ele>23.0</ele><time>2026-05-01T16:49:13.678Z</time></trkpt><trkpt lat="41.057505" lon="9.4351883"><ele>24.0</ele><time>2026-05-01T16:49:14.678Z</time></trkpt><trkpt lat="41.0575967" lon="9.4352767"><ele>25.0</ele><time>2026-05-01T16:49:15.678Z</time></trkpt><trkpt lat="41.05795" lon="9.4355483"><ele>25.0</ele><time>2026-05-01T16:49:18.678Z</time></trkpt><trkpt lat="41.0580783" lon="9.435635"><ele>25.0</ele><time>2026-05-01T16:49:19.678Z</time></trkpt><trkpt lat="41.0582183" lon="9.4357117"><ele>25.0</ele><time>2026-05-01T16:49:20.678Z</time></trkpt><trkpt lat="41.0583567" lon="9.4357817"><ele>25.0</ele><time>2026-05-01T16:49:21.678Z</time></trkpt><trkpt lat="41.0586467" lon="9.4358217"><ele>25.0</ele><time>2026-05-01T16:49:23.678Z</time></trkpt><trkpt lat="41.0588917" lon="9.435805"><ele>25.0</ele><time>2026-05-01T16:49:25.678Z</time></trkpt><trkpt lat="41.0590217" lon="9.435805"><ele>25.0</ele><time>2026-05-01T16:49:26.678Z</time></trkpt><trkpt lat="41.05928" lon="9.4358167"><ele>21.5</ele><time>2026-05-01T16:49:28.678Z</time></trkpt><trkpt lat="41.0594117" lon="9.4358183"><ele>18.0</ele><time>2026-05-01T16:49:29.678Z</time></trkpt><trkpt lat="41.05982" lon="9.43589"><ele>18.5</ele><time>2026-05-01T16:49:32.678Z</time></trkpt><trkpt lat="41.06015" lon="9.4359233"><ele>19.0</ele><time>2026-05-01T16:49:34.678Z</time></trkpt><trkpt lat="41.0602967" lon="9.4358933"><ele>19.0</ele><time>2026-05-01T16:49:35.678Z</time></trkpt><trkpt lat="41.0604533" lon="9.4358383"><ele>19.0</ele><time>2026-05-01T16:49:36.678Z</time></trkpt><trkpt lat="41.060775" lon="9.4356883"><ele>16.5</ele><time>2026-05-01T16:49:38.678Z</time></trkpt><trkpt lat="41.06103" lon="9.43543"><ele>14.0</ele><time>2026-05-01T16:49:40.678Z</time></trkpt><trkpt lat="41.0614167" lon="9.4350333"><ele>14.0</ele><time>2026-05-01T16:49:43.678Z</time></trkpt><trkpt lat="41.0615383" lon="9.43489"><ele>14.0</ele><time>2026-05-01T16:49:44.678Z</time></trkpt><trkpt lat="41.0618833" lon="9.4344867"><ele>14.0</ele><time>2026-05-01T16:49:47.678Z</time></trkpt><trkpt lat="41.0622083" lon="9.4340667"><ele>12.0</ele><time>2026-05-01T16:49:50.678Z</time></trkpt><trkpt lat="41.0625883" lon="9.4336733"><ele>12.0</ele><time>2026-05-01T16:49:53.677Z</time></trkpt><trkpt lat="41.0627083" lon="9.433545"><ele>12.0</ele><time>2026-05-01T16:49:54.677Z</time></trkpt><trkpt lat="41.0628267" lon="9.4333933"><ele>12.0</ele><time>2026-05-01T16:49:55.677Z</time></trkpt><trkpt lat="41.0629483" lon="9.4332567"><ele>11.0</ele><time>2026-05-01T16:49:56.677Z</time></trkpt><trkpt lat="41.0633367" lon="9.432915"><ele>11.0</ele><time>2026-05-01T16:49:59.677Z</time></trkpt><trkpt lat="41.06371" lon="9.4325467"><ele>11.0</ele><time>2026-05-01T16:50:02.677Z</time></trkpt><trkpt lat="41.063845" lon="9.43242"><ele>11.0</ele><time>2026-05-01T16:50:03.677Z</time></trkpt><trkpt lat="41.0640633" lon="9.4321783"><ele>10.666666666666666</ele><time>2026-05-01T16:50:05.677Z</time></trkpt><trkpt lat="41.0641733" lon="9.432055"><ele>10.333333333333334</ele><time>2026-05-01T16:50:06.677Z</time></trkpt><trkpt lat="41.0643983" lon="9.4318333"><ele>10.0</ele><time>2026-05-01T16:50:08.677Z</time></trkpt><trkpt lat="41.0645417" lon="9.4317367"><ele>10.0</ele><time>2026-05-01T16:50:09.677Z</time></trkpt><trkpt lat="41.0648283" lon="9.4315"><ele>10.0</ele><time>2026-05-01T16:50:11.677Z</time></trkpt><trkpt lat="41.06495" lon="9.4313733"><ele>10.333333333333334</ele><time>2026-05-01T16:50:12.677Z</time></trkpt><trkpt lat="41.0651867" lon="9.431145"><ele>10.666666666666666</ele><time>2026-05-01T16:50:14.677Z</time></trkpt><trkpt lat="41.0652983" lon="9.4310517"><ele>11.0</ele><time>2026-05-01T16:50:15.677Z</time></trkpt><trkpt lat="41.0654983" lon="9.43101"><ele>11.0</ele><time>2026-05-01T16:50:17.677Z</time></trkpt><trkpt lat="41.06556" lon="9.431035"><ele>11.0</ele><time>2026-05-01T16:50:18.677Z</time></trkpt><trkpt lat="41.0656617" lon="9.4310583"><ele>11.0</ele><time>2026-05-01T16:50:20.677Z</time></trkpt><trkpt lat="41.0657283" lon="9.4310933"><ele>11.0</ele><time>2026-05-01T16:50:21.677Z</time></trkpt><trkpt lat="41.0658467" lon="9.4311"><ele>11.0</ele><time>2026-05-01T16:50:23.677Z</time></trkpt><trkpt lat="41.065905" lon="9.4310017"><ele>11.25</ele><time>2026-05-01T16:50:25.677Z</time></trkpt><trkpt lat="41.0659467" lon="9.4308867"><ele>11.5</ele><time>2026-05-01T16:50:27.677Z</time></trkpt><trkpt lat="41.0660067" lon="9.4306767"><ele>11.75</ele><time>2026-05-01T16:50:30.677Z</time></trkpt><trkpt lat="41.066075" lon="9.4304983"><ele>12.0</ele><time>2026-05-01T16:50:33.677Z</time></trkpt><trkpt lat="41.0661083" lon="9.4303567"><ele>11.0</ele><time>2026-05-01T16:50:36.677Z</time></trkpt><trkpt lat="41.0660233" lon="9.43035"><ele>10.0</ele><time>2026-05-01T16:50:40.677Z</time></trkpt><trkpt lat="41.0658883" lon="9.4303967"><ele>9.0</ele><time>2026-05-01T16:50:43.677Z</time></trkpt><trkpt lat="41.0656433" lon="9.430445"><ele>9.666666666666666</ele><time>2026-05-01T16:50:46.677Z</time></trkpt><trkpt lat="41.06554" lon="9.4304817"><ele>10.333333333333332</ele><time>2026-05-01T16:50:47.677Z</time></trkpt><trkpt lat="41.0653533" lon="9.4306117"><ele>11.0</ele><time>2026-05-01T16:50:49.677Z</time></trkpt><trkpt lat="41.0651767" lon="9.4309317"><ele>11.0</ele><time>2026-05-01T16:50:52.677Z</time></trkpt><trkpt lat="41.06516" lon="9.43105"><ele>11.0</ele><time>2026-05-01T16:50:53.677Z</time></trkpt><trkpt lat="41.0653383" lon="9.4314267"><ele>11.0</ele><time>2026-05-01T16:50:56.677Z</time></trkpt><trkpt lat="41.0654267" lon="9.4315367"><ele>11.0</ele><time>2026-05-01T16:50:57.677Z</time></trkpt><trkpt lat="41.0656267" lon="9.4319367"><ele>11.0</ele><time>2026-05-01T16:51:00.677Z</time></trkpt><trkpt lat="41.0658417" lon="9.4324683"><ele>11.0</ele><time>2026-05-01T16:51:03.677Z</time></trkpt><trkpt lat="41.0659067" lon="9.43265"><ele>11.0</ele><time>2026-05-01T16:51:04.677Z</time></trkpt><trkpt lat="41.06601" lon="9.4330067"><ele>11.0</ele><time>2026-05-01T16:51:06.677Z</time></trkpt><trkpt lat="41.06607" lon="9.4331917"><ele>10.0</ele><time>2026-05-01T16:51:07.677Z</time></trkpt><trkpt lat="41.0662683" lon="9.433735"><ele>10.5</ele><time>2026-05-01T16:51:10.677Z</time></trkpt><trkpt lat="41.0663383" lon="9.4339083"><ele>11.0</ele><time>2026-05-01T16:51:11.678Z</time></trkpt><trkpt lat="41.066465" lon="9.4342983"><ele>13.0</ele><time>2026-05-01T16:51:13.677Z</time></trkpt><trkpt lat="41.0666783" lon="9.43502"><ele>12.0</ele><time>2026-05-01T16:51:17.677Z</time></trkpt><trkpt lat="41.0668567" lon="9.4355833"><ele>12.0</ele><time>2026-05-01T16:51:20.677Z</time></trkpt><trkpt lat="41.0669317" lon="9.435775"><ele>12.0</ele><time>2026-05-01T16:51:21.677Z</time></trkpt><trkpt lat="41.067045" lon="9.4361583"><ele>11.0</ele><time>2026-05-01T16:51:23.677Z</time></trkpt><trkpt lat="41.0672217" lon="9.43674"><ele>13.5</ele><time>2026-05-01T16:51:26.677Z</time></trkpt><trkpt lat="41.067305" lon="9.4371417"><ele>16.0</ele><time>2026-05-01T16:51:28.677Z</time></trkpt><trkpt lat="41.0673383" lon="9.4373467"><ele>16.0</ele><time>2026-05-01T16:51:29.677Z</time></trkpt><trkpt lat="41.0674017" lon="9.4377617"><ele>16.0</ele><time>2026-05-01T16:51:31.677Z</time></trkpt><trkpt lat="41.06743" lon="9.4379617"><ele>15.0</ele><time>2026-05-01T16:51:32.678Z</time></trkpt><trkpt lat="41.0674983" lon="9.43857"><ele>15.0</ele><time>2026-05-01T16:51:35.677Z</time></trkpt><trkpt lat="41.06751" lon="9.4387667"><ele>15.0</ele><time>2026-05-01T16:51:36.677Z</time></trkpt><trkpt lat="41.067515" lon="9.4389783"><ele>15.0</ele><time>2026-05-01T16:51:37.677Z</time></trkpt><trkpt lat="41.0675133" lon="9.439205"><ele>15.333333333333332</ele><time>2026-05-01T16:51:38.677Z</time></trkpt><trkpt lat="41.0675217" lon="9.439425"><ele>15.666666666666666</ele><time>2026-05-01T16:51:39.677Z</time></trkpt><trkpt lat="41.067555" lon="9.4396133"><ele>16.0</ele><time>2026-05-01T16:51:40.677Z</time></trkpt><trkpt lat="41.0676033" lon="9.4400117"><ele>15.0</ele><time>2026-05-01T16:51:42.677Z</time></trkpt><trkpt lat="41.0676867" lon="9.4403967"><ele>14.0</ele><time>2026-05-01T16:51:44.677Z</time></trkpt><trkpt lat="41.0677083" lon="9.4406083"><ele>14.0</ele><time>2026-05-01T16:51:45.677Z</time></trkpt><trkpt lat="41.0677233" lon="9.44081"><ele>14.0</ele><time>2026-05-01T16:51:46.677Z</time></trkpt><trkpt lat="41.067755" lon="9.4410317"><ele>14.0</ele><time>2026-05-01T16:51:47.677Z</time></trkpt><trkpt lat="41.0677583" lon="9.4414917"><ele>13.0</ele><time>2026-05-01T16:51:49.677Z</time></trkpt><trkpt lat="41.0678" lon="9.4421133"><ele>11.0</ele><time>2026-05-01T16:51:52.677Z</time></trkpt><trkpt lat="41.0678383" lon="9.44255"><ele>9.0</ele><time>2026-05-01T16:51:54.677Z</time></trkpt><trkpt lat="41.0678617" lon="9.4427683"><ele>9.0</ele><time>2026-05-01T16:51:55.677Z</time></trkpt><trkpt lat="41.06793" lon="9.4433967"><ele>9.0</ele><time>2026-05-01T16:51:58.677Z</time></trkpt><trkpt lat="41.068005" lon="9.444"><ele>9.0</ele><time>2026-05-01T16:52:01.677Z</time></trkpt><trkpt lat="41.0680367" lon="9.4442867"><ele>9.0</ele><time>2026-05-01T16:52:02.677Z</time></trkpt><trkpt lat="41.0681467" lon="9.445155"><ele>8.666666666666666</ele><time>2026-05-01T16:52:06.677Z</time></trkpt><trkpt lat="41.06816" lon="9.4453733"><ele>8.333333333333332</ele><time>2026-05-01T16:52:07.677Z</time></trkpt><trkpt lat="41.0681783" lon="9.4455917"><ele>8.0</ele><time>2026-05-01T16:52:08.677Z</time></trkpt><trkpt lat="41.068235" lon="9.4460767"><ele>8.25</ele><time>2026-05-01T16:52:10.677Z</time></trkpt><trkpt lat="41.0682533" lon="9.4463567"><ele>8.5</ele><time>2026-05-01T16:52:11.677Z</time></trkpt><trkpt lat="41.0682717" lon="9.446545"><ele>8.75</ele><time>2026-05-01T16:52:12.677Z</time></trkpt><trkpt lat="41.0682983" lon="9.4466583"><ele>9.0</ele><time>2026-05-01T16:52:13.677Z</time></trkpt><trkpt lat="41.0683317" lon="9.4468667"><ele>11.0</ele><time>2026-05-01T16:52:14.677Z</time></trkpt><trkpt lat="41.0684383" lon="9.4472517"><ele>13.0</ele><time>2026-05-01T16:52:16.677Z</time></trkpt><trkpt lat="41.068475" lon="9.4474633"><ele>10.0</ele><time>2026-05-01T16:52:17.677Z</time></trkpt><trkpt lat="41.0686717" lon="9.44802"><ele>10.0</ele><time>2026-05-01T16:52:20.677Z</time></trkpt><trkpt lat="41.068725" lon="9.4482217"><ele>10.0</ele><time>2026-05-01T16:52:21.677Z</time></trkpt><trkpt lat="41.0689267" lon="9.4487783"><ele>11.0</ele><time>2026-05-01T16:52:24.677Z</time></trkpt><trkpt lat="41.0691683" lon="9.4495083"><ele>10.0</ele><time>2026-05-01T16:52:28.677Z</time></trkpt><trkpt lat="41.0692367" lon="9.449685"><ele>9.0</ele><time>2026-05-01T16:52:29.677Z</time></trkpt><trkpt lat="41.06931" lon="9.4498733"><ele>8.0</ele><time>2026-05-01T16:52:30.677Z</time></trkpt><trkpt lat="41.0693717" lon="9.4500633"><ele>8.0</ele><time>2026-05-01T16:52:31.677Z</time></trkpt><trkpt lat="41.0694367" lon="9.4502417"><ele>8.0</ele><time>2026-05-01T16:52:32.677Z</time></trkpt><trkpt lat="41.0695617" lon="9.4506017"><ele>8.0</ele><time>2026-05-01T16:52:34.677Z</time></trkpt><trkpt lat="41.0696217" lon="9.45078"><ele>7.5</ele><time>2026-05-01T16:52:35.677Z</time></trkpt><trkpt lat="41.0697233" lon="9.4511067"><ele>7.0</ele><time>2026-05-01T16:52:37.677Z</time></trkpt><trkpt lat="41.069835" lon="9.4514817"><ele>7.0</ele><time>2026-05-01T16:52:40.677Z</time></trkpt><trkpt lat="41.0699517" lon="9.4516183"><ele>7.0</ele><time>2026-05-01T16:52:42.677Z</time></trkpt><trkpt lat="41.070115" lon="9.4516633"><ele>7.0</ele><time>2026-05-01T16:52:44.677Z</time></trkpt><trkpt lat="41.0703117" lon="9.45166"><ele>7.0</ele><time>2026-05-01T16:52:46.677Z</time></trkpt><trkpt lat="41.070615" lon="9.4515967"><ele>7.0</ele><time>2026-05-01T16:52:48.677Z</time></trkpt><trkpt lat="41.0707567" lon="9.4515867"><ele>7.0</ele><time>2026-05-01T16:52:49.677Z</time></trkpt><trkpt lat="41.0710417" lon="9.45154"><ele>8.0</ele><time>2026-05-01T16:52:51.677Z</time></trkpt><trkpt lat="41.0711867" lon="9.451565"><ele>9.0</ele><time>2026-05-01T16:52:52.677Z</time></trkpt><trkpt lat="41.0715" lon="9.4516717"><ele>8.0</ele><time>2026-05-01T16:52:54.677Z</time></trkpt><trkpt lat="41.07165" lon="9.4517683"><ele>7.0</ele><time>2026-05-01T16:52:55.678Z</time></trkpt><trkpt lat="41.0719533" lon="9.4519617"><ele>5.5</ele><time>2026-05-01T16:52:57.677Z</time></trkpt><trkpt lat="41.0722667" lon="9.4521583"><ele>4.0</ele><time>2026-05-01T16:52:59.677Z</time></trkpt><trkpt lat="41.0724183" lon="9.4522517"><ele>4.0</ele><time>2026-05-01T16:53:00.677Z</time></trkpt><trkpt lat="41.07257" lon="9.452335"><ele>4.0</ele><time>2026-05-01T16:53:01.677Z</time></trkpt><trkpt lat="41.0728633" lon="9.452525"><ele>4.0</ele><time>2026-05-01T16:53:03.677Z</time></trkpt><trkpt lat="41.0731133" lon="9.4528233"><ele>4.0</ele><time>2026-05-01T16:53:05.677Z</time></trkpt><trkpt lat="41.0732217" lon="9.4529867"><ele>4.0</ele><time>2026-05-01T16:53:06.677Z</time></trkpt><trkpt lat="41.07352" lon="9.453475"><ele>5.0</ele><time>2026-05-01T16:53:09.677Z</time></trkpt><trkpt lat="41.0737067" lon="9.4538317"><ele>6.0</ele><time>2026-05-01T16:53:11.677Z</time></trkpt><trkpt lat="41.0739067" lon="9.4541417"><ele>6.0</ele><time>2026-05-01T16:53:13.677Z</time></trkpt><trkpt lat="41.0740133" lon="9.4543183"><ele>6.0</ele><time>2026-05-01T16:53:14.677Z</time></trkpt><trkpt lat="41.0741783" lon="9.4546517"><ele>5.0</ele><time>2026-05-01T16:53:16.677Z</time></trkpt><trkpt lat="41.0743483" lon="9.4549933"><ele>4.0</ele><time>2026-05-01T16:53:18.677Z</time></trkpt><trkpt lat="41.074435" lon="9.4551517"><ele>4.0</ele><time>2026-05-01T16:53:19.677Z</time></trkpt><trkpt lat="41.0745183" lon="9.4553183"><ele>4.0</ele><time>2026-05-01T16:53:20.677Z</time></trkpt><trkpt lat="41.0746217" lon="9.4554867"><ele>4.0</ele><time>2026-05-01T16:53:21.677Z</time></trkpt><trkpt lat="41.0748383" lon="9.4558017"><ele>3.0</ele><time>2026-05-01T16:53:23.677Z</time></trkpt><trkpt lat="41.0750467" lon="9.45613"><ele>2.0</ele><time>2026-05-01T16:53:25.677Z</time></trkpt><trkpt lat="41.0751433" lon="9.4562917"><ele>2.0</ele><time>2026-05-01T16:53:26.677Z</time></trkpt><trkpt lat="41.0752433" lon="9.4564517"><ele>2.0</ele><time>2026-05-01T16:53:27.677Z</time></trkpt><trkpt lat="41.0753317" lon="9.4566083"><ele>2.0</ele><time>2026-05-01T16:53:28.677Z</time></trkpt><trkpt lat="41.075435" lon="9.456765"><ele>2.0</ele><time>2026-05-01T16:53:29.677Z</time></trkpt><trkpt lat="41.0755317" lon="9.4569117"><ele>2.0</ele><time>2026-05-01T16:53:30.677Z</time></trkpt><trkpt lat="41.0756217" lon="9.457085"><ele>2.0</ele><time>2026-05-01T16:53:31.677Z</time></trkpt><trkpt lat="41.07584" lon="9.45737"><ele>4.0</ele><time>2026-05-01T16:53:33.677Z</time></trkpt><trkpt lat="41.0759733" lon="9.457475"><ele>6.0</ele><time>2026-05-01T16:53:34.678Z</time></trkpt><trkpt lat="41.07629" lon="9.457615"><ele>6.0</ele><time>2026-05-01T16:53:36.677Z</time></trkpt><trkpt lat="41.0764567" lon="9.457665"><ele>6.0</ele><time>2026-05-01T16:53:37.677Z</time></trkpt><trkpt lat="41.0766183" lon="9.4577167"><ele>6.0</ele><time>2026-05-01T16:53:38.677Z</time></trkpt><trkpt lat="41.076775" lon="9.4577717"><ele>7.5</ele><time>2026-05-01T16:53:39.678Z</time></trkpt><trkpt lat="41.076905" lon="9.4578017"><ele>9.0</ele><time>2026-05-01T16:53:40.677Z</time></trkpt><trkpt lat="41.0770567" lon="9.457855"><ele>10.5</ele><time>2026-05-01T16:53:41.677Z</time></trkpt><trkpt lat="41.0772" lon="9.4579"><ele>12.0</ele><time>2026-05-01T16:53:42.677Z</time></trkpt><trkpt lat="41.0773383" lon="9.4579567"><ele>12.0</ele><time>2026-05-01T16:53:43.677Z</time></trkpt><trkpt lat="41.0774867" lon="9.4580117"><ele>12.0</ele><time>2026-05-01T16:53:44.677Z</time></trkpt><trkpt lat="41.07764" lon="9.4580717"><ele>12.0</ele><time>2026-05-01T16:53:45.677Z</time></trkpt><trkpt lat="41.0782783" lon="9.45834"><ele>11.0</ele><time>2026-05-01T16:53:49.677Z</time></trkpt><trkpt lat="41.0784267" lon="9.4584133"><ele>10.0</ele><time>2026-05-01T16:53:50.677Z</time></trkpt><trkpt lat="41.078735" lon="9.4585133"><ele>10.0</ele><time>2026-05-01T16:53:52.677Z</time></trkpt><trkpt lat="41.0788933" lon="9.4585483"><ele>10.0</ele><time>2026-05-01T16:53:53.677Z</time></trkpt><trkpt lat="41.079205" lon="9.458665"><ele>10.0</ele><time>2026-05-01T16:53:55.677Z</time></trkpt><trkpt lat="41.0793483" lon="9.4587167"><ele>10.0</ele><time>2026-05-01T16:53:56.677Z</time></trkpt><trkpt lat="41.0796533" lon="9.4588167"><ele>12.0</ele><time>2026-05-01T16:53:58.677Z</time></trkpt><trkpt lat="41.07994" lon="9.4588917"><ele>14.0</ele><time>2026-05-01T16:54:00.677Z</time></trkpt><trkpt lat="41.080095" lon="9.45895"><ele>14.0</ele><time>2026-05-01T16:54:01.677Z</time></trkpt><trkpt lat="41.080255" lon="9.458995"><ele>14.0</ele><time>2026-05-01T16:54:02.677Z</time></trkpt><trkpt lat="41.0804267" lon="9.45905"><ele>14.0</ele><time>2026-05-01T16:54:03.677Z</time></trkpt><trkpt lat="41.08077" lon="9.459035"><ele>15.5</ele><time>2026-05-01T16:54:05.677Z</time></trkpt><trkpt lat="41.0810783" lon="9.4588983"><ele>17.0</ele><time>2026-05-01T16:54:07.677Z</time></trkpt><trkpt lat="41.08123" lon="9.4588133"><ele>17.666666666666668</ele><time>2026-05-01T16:54:08.677Z</time></trkpt><trkpt lat="41.0813767" lon="9.45871"><ele>18.333333333333332</ele><time>2026-05-01T16:54:09.678Z</time></trkpt><trkpt lat="41.0815233" lon="9.458595"><ele>19.0</ele><time>2026-05-01T16:54:10.677Z</time></trkpt><trkpt lat="41.0821183" lon="9.4582"><ele>19.0</ele><time>2026-05-01T16:54:14.677Z</time></trkpt><trkpt lat="41.082245" lon="9.4580817"><ele>19.0</ele><time>2026-05-01T16:54:15.677Z</time></trkpt><trkpt lat="41.0823867" lon="9.457995"><ele>19.0</ele><time>2026-05-01T16:54:16.677Z</time></trkpt><trkpt lat="41.0825317" lon="9.4579233"><ele>18.5</ele><time>2026-05-01T16:54:17.677Z</time></trkpt><trkpt lat="41.0828417" lon="9.4578433"><ele>18.0</ele><time>2026-05-01T16:54:19.677Z</time></trkpt><trkpt lat="41.0830017" lon="9.457815"><ele>18.0</ele><time>2026-05-01T16:54:20.677Z</time></trkpt><trkpt lat="41.0831567" lon="9.457785"><ele>18.0</ele><time>2026-05-01T16:54:21.677Z</time></trkpt><trkpt lat="41.083465" lon="9.45772"><ele>19.0</ele><time>2026-05-01T16:54:23.677Z</time></trkpt><trkpt lat="41.0837917" lon="9.457555"><ele>20.0</ele><time>2026-05-01T16:54:25.678Z</time></trkpt><trkpt lat="41.08395" lon="9.457445"><ele>21.0</ele><time>2026-05-01T16:54:26.677Z</time></trkpt><trkpt lat="41.0842617" lon="9.4572283"><ele>22.0</ele><time>2026-05-01T16:54:28.677Z</time></trkpt><trkpt lat="41.0845233" lon="9.4569783"><ele>19.5</ele><time>2026-05-01T16:54:30.678Z</time></trkpt><trkpt lat="41.0846417" lon="9.456835"><ele>17.0</ele><time>2026-05-01T16:54:31.678Z</time></trkpt><trkpt lat="41.084855" lon="9.4565167"><ele>17.0</ele><time>2026-05-01T16:54:33.677Z</time></trkpt><trkpt lat="41.084985" lon="9.4561033"><ele>17.0</ele><time>2026-05-01T16:54:35.677Z</time></trkpt><trkpt lat="41.0850883" lon="9.45543"><ele>17.0</ele><time>2026-05-01T16:54:38.677Z</time></trkpt><trkpt lat="41.0851533" lon="9.4552367"><ele>17.0</ele><time>2026-05-01T16:54:39.677Z</time></trkpt><trkpt lat="41.0852833" lon="9.454855"><ele>18.0</ele><time>2026-05-01T16:54:41.677Z</time></trkpt><trkpt lat="41.085495" lon="9.4543183"><ele>18.0</ele><time>2026-05-01T16:54:44.677Z</time></trkpt><trkpt lat="41.0855617" lon="9.4541267"><ele>18.0</ele><time>2026-05-01T16:54:45.677Z</time></trkpt><trkpt lat="41.0856383" lon="9.4539533"><ele>18.0</ele><time>2026-05-01T16:54:46.677Z</time></trkpt><trkpt lat="41.0857083" lon="9.4537933"><ele>21.0</ele><time>2026-05-01T16:54:47.677Z</time></trkpt><trkpt lat="41.0862983" lon="9.453245"><ele>21.0</ele><time>2026-05-01T16:54:52.677Z</time></trkpt><trkpt lat="41.08646" lon="9.4531983"><ele>21.0</ele><time>2026-05-01T16:54:53.677Z</time></trkpt><trkpt lat="41.0870917" lon="9.4534883"><ele>21.0</ele><time>2026-05-01T16:54:57.677Z</time></trkpt><trkpt lat="41.0873983" lon="9.453645"><ele>21.0</ele><time>2026-05-01T16:54:59.677Z</time></trkpt><trkpt lat="41.0878283" lon="9.4539433"><ele>21.0</ele><time>2026-05-01T16:55:02.677Z</time></trkpt><trkpt lat="41.0879667" lon="9.4540067"><ele>21.0</ele><time>2026-05-01T16:55:03.677Z</time></trkpt><trkpt lat="41.0883183" lon="9.45399"><ele>20.666666666666668</ele><time>2026-05-01T16:55:05.678Z</time></trkpt><trkpt lat="41.08848" lon="9.45395"><ele>20.333333333333336</ele><time>2026-05-01T16:55:06.677Z</time></trkpt><trkpt lat="41.088635" lon="9.4538617"><ele>20.0</ele><time>2026-05-01T16:55:07.677Z</time></trkpt><trkpt lat="41.0890967" lon="9.4535983"><ele>20.0</ele><time>2026-05-01T16:55:10.677Z</time></trkpt><trkpt lat="41.08937" lon="9.4534033"><ele>20.0</ele><time>2026-05-01T16:55:12.677Z</time></trkpt><trkpt lat="41.0895333" lon="9.45334"><ele>20.0</ele><time>2026-05-01T16:55:13.677Z</time></trkpt><trkpt lat="41.0898517" lon="9.4532233"><ele>20.0</ele><time>2026-05-01T16:55:15.678Z</time></trkpt><trkpt lat="41.0901867" lon="9.45322"><ele>25.0</ele><time>2026-05-01T16:55:17.677Z</time></trkpt><trkpt lat="41.09066" lon="9.4531733"><ele>25.5</ele><time>2026-05-01T16:55:20.677Z</time></trkpt><trkpt lat="41.0908017" lon="9.453145"><ele>26.0</ele><time>2026-05-01T16:55:21.677Z</time></trkpt><trkpt lat="41.0912717" lon="9.4530367"><ele>26.0</ele><time>2026-05-01T16:55:24.677Z</time></trkpt><trkpt lat="41.0914217" lon="9.4529717"><ele>26.0</ele><time>2026-05-01T16:55:25.677Z</time></trkpt><trkpt lat="41.09175" lon="9.4525167"><ele>24.0</ele><time>2026-05-01T16:55:28.677Z</time></trkpt><trkpt lat="41.09189" lon="9.452385"><ele>22.0</ele><time>2026-05-01T16:55:29.677Z</time></trkpt><trkpt lat="41.0924733" lon="9.4520033"><ele>19.5</ele><time>2026-05-01T16:55:33.677Z</time></trkpt><trkpt lat="41.09263" lon="9.45193"><ele>17.0</ele><time>2026-05-01T16:55:34.677Z</time></trkpt><trkpt lat="41.0930883" lon="9.4517517"><ele>16.5</ele><time>2026-05-01T16:55:37.677Z</time></trkpt><trkpt lat="41.0932683" lon="9.4517817"><ele>16.0</ele><time>2026-05-01T16:55:38.677Z</time></trkpt><trkpt lat="41.0937283" lon="9.4519683"><ele>16.0</ele><time>2026-05-01T16:55:41.677Z</time></trkpt><trkpt lat="41.0940333" lon="9.452125"><ele>16.0</ele><time>2026-05-01T16:55:43.677Z</time></trkpt><trkpt lat="41.0951117" lon="9.452635"><ele>16.0</ele><time>2026-05-01T16:55:50.677Z</time></trkpt><trkpt lat="41.09527" lon="9.4527017"><ele>16.0</ele><time>2026-05-01T16:55:51.677Z</time></trkpt><trkpt lat="41.0954333" lon="9.45277"><ele>16.0</ele><time>2026-05-01T16:55:52.677Z</time></trkpt><trkpt lat="41.0958983" lon="9.45298"><ele>16.5</ele><time>2026-05-01T16:55:55.677Z</time></trkpt><trkpt lat="41.096055" lon="9.453045"><ele>17.0</ele><time>2026-05-01T16:55:56.677Z</time></trkpt><trkpt lat="41.0966983" lon="9.4532467"><ele>17.0</ele><time>2026-05-01T16:56:00.677Z</time></trkpt><trkpt lat="41.09703" lon="9.4533667"><ele>17.0</ele><time>2026-05-01T16:56:02.678Z</time></trkpt><trkpt lat="41.0973617" lon="9.4534567"><ele>16.0</ele><time>2026-05-01T16:56:04.677Z</time></trkpt><trkpt lat="41.0975133" lon="9.453525"><ele>15.0</ele><time>2026-05-01T16:56:05.677Z</time></trkpt><trkpt lat="41.09784" lon="9.4536067"><ele>15.0</ele><time>2026-05-01T16:56:07.677Z</time></trkpt><trkpt lat="41.0980017" lon="9.45366"><ele>15.0</ele><time>2026-05-01T16:56:08.677Z</time></trkpt><trkpt lat="41.0984733" lon="9.4538267"><ele>16.0</ele><time>2026-05-01T16:56:11.677Z</time></trkpt><trkpt lat="41.0986217" lon="9.4539"><ele>17.0</ele><time>2026-05-01T16:56:12.677Z</time></trkpt><trkpt lat="41.0990017" lon="9.45426"><ele>17.5</ele><time>2026-05-01T16:56:15.677Z</time></trkpt><trkpt lat="41.09923" lon="9.4545717"><ele>18.0</ele><time>2026-05-01T16:56:17.677Z</time></trkpt><trkpt lat="41.09944" lon="9.4549117"><ele>18.0</ele><time>2026-05-01T16:56:19.677Z</time></trkpt><trkpt lat="41.099905" lon="9.4555133"><ele>16.0</ele><time>2026-05-01T16:56:23.678Z</time></trkpt><trkpt lat="41.10022" lon="9.4556417"><ele>14.0</ele><time>2026-05-01T16:56:25.677Z</time></trkpt><trkpt lat="41.10071" lon="9.4556367"><ele>14.0</ele><time>2026-05-01T16:56:28.677Z</time></trkpt><trkpt lat="41.1010083" lon="9.4556683"><ele>14.0</ele><time>2026-05-01T16:56:30.677Z</time></trkpt><trkpt lat="41.101175" lon="9.4556783"><ele>14.0</ele><time>2026-05-01T16:56:31.677Z</time></trkpt><trkpt lat="41.1014917" lon="9.4557167"><ele>14.0</ele><time>2026-05-01T16:56:33.677Z</time></trkpt><trkpt lat="41.1016567" lon="9.4557367"><ele>13.5</ele><time>2026-05-01T16:56:34.677Z</time></trkpt><trkpt lat="41.101965" lon="9.45582"><ele>13.0</ele><time>2026-05-01T16:56:36.677Z</time></trkpt><trkpt lat="41.1023933" lon="9.456115"><ele>19.0</ele><time>2026-05-01T16:56:39.677Z</time></trkpt><trkpt lat="41.1029617" lon="9.456545"><ele>19.0</ele><time>2026-05-01T16:56:43.677Z</time></trkpt><trkpt lat="41.1030983" lon="9.45666"><ele>19.0</ele><time>2026-05-01T16:56:44.677Z</time></trkpt><trkpt lat="41.1036817" lon="9.4568817"><ele>20.5</ele><time>2026-05-01T16:56:48.677Z</time></trkpt><trkpt lat="41.10384" lon="9.4568567"><ele>22.0</ele><time>2026-05-01T16:56:49.677Z</time></trkpt><trkpt lat="41.104575" lon="9.456755"><ele>25.0</ele><time>2026-05-01T16:56:53.677Z</time></trkpt><trkpt lat="41.1047433" lon="9.4567283"><ele>28.0</ele><time>2026-05-01T16:56:54.677Z</time></trkpt><trkpt lat="41.1052117" lon="9.4566683"><ele>30.0</ele><time>2026-05-01T16:56:57.677Z</time></trkpt><trkpt lat="41.1055283" lon="9.4566233"><ele>32.0</ele><time>2026-05-01T16:56:59.677Z</time></trkpt><trkpt lat="41.1060767" lon="9.4569133"><ele>37.5</ele><time>2026-05-01T16:57:03.677Z</time></trkpt><trkpt lat="41.1062867" lon="9.4572767"><ele>43.0</ele><time>2026-05-01T16:57:06.677Z</time></trkpt><trkpt lat="41.10639" lon="9.4574683"><ele>43.0</ele><time>2026-05-01T16:57:08.677Z</time></trkpt><trkpt lat="41.1064733" lon="9.4576433"><ele>43.0</ele><time>2026-05-01T16:57:10.677Z</time></trkpt><trkpt lat="41.1065133" lon="9.4577283"><ele>43.0</ele><time>2026-05-01T16:57:11.677Z</time></trkpt><trkpt lat="41.1065617" lon="9.457845"><ele>43.0</ele><time>2026-05-01T16:57:13.677Z</time></trkpt><trkpt lat="41.1066117" lon="9.4577717"><ele>43.0</ele><time>2026-05-01T16:57:37.677Z</time></trkpt><trkpt lat="41.1064733" lon="9.45753"><ele>43.0</ele><time>2026-05-01T16:57:40.678Z</time></trkpt><trkpt lat="41.10637" lon="9.45733"><ele>43.0</ele><time>2026-05-01T16:57:42.677Z</time></trkpt><trkpt lat="41.1062017" lon="9.4570483"><ele>40.333333333333336</ele><time>2026-05-01T16:57:45.677Z</time></trkpt><trkpt lat="41.106035" lon="9.4568617"><ele>37.666666666666664</ele><time>2026-05-01T16:57:48.677Z</time></trkpt><trkpt lat="41.10588" lon="9.456765"><ele>35.0</ele><time>2026-05-01T16:57:51.678Z</time></trkpt><trkpt lat="41.105805" lon="9.456695"><ele>35.0</ele><time>2026-05-01T16:57:55.677Z</time></trkpt></trkseg></trk></gpx>